<?xml version="1.0" encoding="UTF-8" standalone="no" ?>
<gpx xmlns="http://www.topografix.com/GPX/1/1" xmlns:xsi="http://www.w3.org/2001/XMLSchema-instance" xsi:schemaLocation="http://www.topografix.com/GPX/1/1 http://www.topografix.com/GPX/1/1/gpx.xsd" version="1.1" creator="VisuGPX - https://www.visugpx.com">
  <metadata>
    <name>sortie vtt avec Jean claude</name>
    <desc><![CDATA[sortie vtt 59 km départ Paulhan niveau de difficulté moyenne]]></desc>
  </metadata>
  <trk>
    <name><![CDATA[20180925202419-F2PDa]]></name>
    <trkseg>
      <trkpt lat="43.53903" lon="3.46418">
        <ele>32.4</ele>
        <time>2018-09-25T18:05:46.819Z</time>
      </trkpt>
      <trkpt lat="43.53911" lon="3.46407">
        <ele>32.5</ele>
        <time>2018-09-25T18:05:49.819Z</time>
      </trkpt>
      <trkpt lat="43.5392" lon="3.46401">
        <ele>32.7</ele>
        <time>2018-09-25T18:05:51.819Z</time>
      </trkpt>
      <trkpt lat="43.5392" lon="3.46396">
        <ele>32.8</ele>
        <time>2018-09-25T18:05:55.819Z</time>
      </trkpt>
      <trkpt lat="43.5392" lon="3.46401">
        <ele>32.9</ele>
        <time>2018-09-25T18:06:21.819Z</time>
      </trkpt>
      <trkpt lat="43.53917" lon="3.46401">
        <ele>32.9</ele>
        <time>2018-09-25T18:07:00.819Z</time>
      </trkpt>
      <trkpt lat="43.5392" lon="3.46398">
        <ele>32.9</ele>
        <time>2018-09-25T18:09:13.819Z</time>
      </trkpt>
      <trkpt lat="43.53923" lon="3.46392">
        <ele>33</ele>
        <time>2018-09-25T18:09:15.819Z</time>
      </trkpt>
      <trkpt lat="43.53925" lon="3.46389">
        <ele>33</ele>
        <time>2018-09-25T18:09:16.819Z</time>
      </trkpt>
      <trkpt lat="43.53927" lon="3.46385">
        <ele>33.1</ele>
        <time>2018-09-25T18:09:17.819Z</time>
      </trkpt>
      <trkpt lat="43.53929" lon="3.46382">
        <ele>33.1</ele>
        <time>2018-09-25T18:09:18.819Z</time>
      </trkpt>
      <trkpt lat="43.53931" lon="3.46378">
        <ele>33.1</ele>
        <time>2018-09-25T18:09:19.819Z</time>
      </trkpt>
      <trkpt lat="43.53934" lon="3.46374">
        <ele>33.2</ele>
        <time>2018-09-25T18:09:20.819Z</time>
      </trkpt>
      <trkpt lat="43.53936" lon="3.4637">
        <ele>33.3</ele>
        <time>2018-09-25T18:09:21.819Z</time>
      </trkpt>
      <trkpt lat="43.53938" lon="3.46366">
        <ele>33.3</ele>
        <time>2018-09-25T18:09:22.819Z</time>
      </trkpt>
      <trkpt lat="43.53941" lon="3.46362">
        <ele>33.4</ele>
        <time>2018-09-25T18:09:23.819Z</time>
      </trkpt>
      <trkpt lat="43.53943" lon="3.46359">
        <ele>33.4</ele>
        <time>2018-09-25T18:09:24.819Z</time>
      </trkpt>
      <trkpt lat="43.53945" lon="3.46355">
        <ele>33.5</ele>
        <time>2018-09-25T18:09:25.819Z</time>
      </trkpt>
      <trkpt lat="43.53948" lon="3.46351">
        <ele>33.5</ele>
        <time>2018-09-25T18:09:26.819Z</time>
      </trkpt>
      <trkpt lat="43.53949" lon="3.46347">
        <ele>33.6</ele>
        <time>2018-09-25T18:09:27.819Z</time>
      </trkpt>
      <trkpt lat="43.53951" lon="3.46345">
        <ele>33.6</ele>
        <time>2018-09-25T18:09:28.819Z</time>
      </trkpt>
      <trkpt lat="43.53954" lon="3.46338">
        <ele>33.7</ele>
        <time>2018-09-25T18:09:30.819Z</time>
      </trkpt>
      <trkpt lat="43.53957" lon="3.46333">
        <ele>33.7</ele>
        <time>2018-09-25T18:09:32.819Z</time>
      </trkpt>
      <trkpt lat="43.53959" lon="3.4633">
        <ele>33.8</ele>
        <time>2018-09-25T18:09:33.819Z</time>
      </trkpt>
      <trkpt lat="43.53961" lon="3.46326">
        <ele>33.9</ele>
        <time>2018-09-25T18:09:34.819Z</time>
      </trkpt>
      <trkpt lat="43.53962" lon="3.46323">
        <ele>33.9</ele>
        <time>2018-09-25T18:09:35.819Z</time>
      </trkpt>
      <trkpt lat="43.53964" lon="3.4632">
        <ele>34</ele>
        <time>2018-09-25T18:09:36.819Z</time>
      </trkpt>
      <trkpt lat="43.53966" lon="3.46316">
        <ele>34</ele>
        <time>2018-09-25T18:09:37.819Z</time>
      </trkpt>
      <trkpt lat="43.53968" lon="3.46313">
        <ele>34.1</ele>
        <time>2018-09-25T18:09:38.819Z</time>
      </trkpt>
      <trkpt lat="43.5397" lon="3.46309">
        <ele>34.2</ele>
        <time>2018-09-25T18:09:39.819Z</time>
      </trkpt>
      <trkpt lat="43.53972" lon="3.46306">
        <ele>34.2</ele>
        <time>2018-09-25T18:09:40.819Z</time>
      </trkpt>
      <trkpt lat="43.53974" lon="3.46302">
        <ele>34.3</ele>
        <time>2018-09-25T18:09:41.819Z</time>
      </trkpt>
      <trkpt lat="43.53977" lon="3.46298">
        <ele>34.5</ele>
        <time>2018-09-25T18:09:42.819Z</time>
      </trkpt>
      <trkpt lat="43.53979" lon="3.46296">
        <ele>34.6</ele>
        <time>2018-09-25T18:09:43.819Z</time>
      </trkpt>
      <trkpt lat="43.53983" lon="3.46289">
        <ele>34.9</ele>
        <time>2018-09-25T18:09:45.819Z</time>
      </trkpt>
      <trkpt lat="43.53984" lon="3.46286">
        <ele>35.2</ele>
        <time>2018-09-25T18:09:46.819Z</time>
      </trkpt>
      <trkpt lat="43.53986" lon="3.46282">
        <ele>35.5</ele>
        <time>2018-09-25T18:09:47.819Z</time>
      </trkpt>
      <trkpt lat="43.53988" lon="3.46279">
        <ele>35.7</ele>
        <time>2018-09-25T18:09:48.819Z</time>
      </trkpt>
      <trkpt lat="43.5399" lon="3.46276">
        <ele>36</ele>
        <time>2018-09-25T18:09:49.819Z</time>
      </trkpt>
      <trkpt lat="43.53992" lon="3.46273">
        <ele>36.2</ele>
        <time>2018-09-25T18:09:50.819Z</time>
      </trkpt>
      <trkpt lat="43.53995" lon="3.46267">
        <ele>36.4</ele>
        <time>2018-09-25T18:09:52.819Z</time>
      </trkpt>
      <trkpt lat="43.53997" lon="3.46264">
        <ele>36.5</ele>
        <time>2018-09-25T18:09:53.819Z</time>
      </trkpt>
      <trkpt lat="43.53999" lon="3.46261">
        <ele>36.6</ele>
        <time>2018-09-25T18:09:54.819Z</time>
      </trkpt>
      <trkpt lat="43.54002" lon="3.46256">
        <ele>36.6</ele>
        <time>2018-09-25T18:09:56.819Z</time>
      </trkpt>
      <trkpt lat="43.54005" lon="3.46251">
        <ele>36.7</ele>
        <time>2018-09-25T18:09:58.819Z</time>
      </trkpt>
      <trkpt lat="43.54008" lon="3.46246">
        <ele>36.8</ele>
        <time>2018-09-25T18:10:00.819Z</time>
      </trkpt>
      <trkpt lat="43.5401" lon="3.46242">
        <ele>36.9</ele>
        <time>2018-09-25T18:10:02.819Z</time>
      </trkpt>
      <trkpt lat="43.54011" lon="3.46237">
        <ele>37</ele>
        <time>2018-09-25T18:10:04.819Z</time>
      </trkpt>
      <trkpt lat="43.54009" lon="3.46234">
        <ele>36.9</ele>
        <time>2018-09-25T18:10:05.819Z</time>
      </trkpt>
      <trkpt lat="43.54007" lon="3.46231">
        <ele>36.9</ele>
        <time>2018-09-25T18:10:06.819Z</time>
      </trkpt>
      <trkpt lat="43.54004" lon="3.46228">
        <ele>36.9</ele>
        <time>2018-09-25T18:10:07.819Z</time>
      </trkpt>
      <trkpt lat="43.54" lon="3.46226">
        <ele>36.9</ele>
        <time>2018-09-25T18:10:08.819Z</time>
      </trkpt>
      <trkpt lat="43.53997" lon="3.46224">
        <ele>36.8</ele>
        <time>2018-09-25T18:10:09.819Z</time>
      </trkpt>
      <trkpt lat="43.53994" lon="3.46222">
        <ele>36.8</ele>
        <time>2018-09-25T18:10:10.819Z</time>
      </trkpt>
      <trkpt lat="43.53991" lon="3.4622">
        <ele>36.8</ele>
        <time>2018-09-25T18:10:11.819Z</time>
      </trkpt>
      <trkpt lat="43.53988" lon="3.46219">
        <ele>36.7</ele>
        <time>2018-09-25T18:10:12.819Z</time>
      </trkpt>
      <trkpt lat="43.53984" lon="3.46217">
        <ele>36.7</ele>
        <time>2018-09-25T18:10:13.819Z</time>
      </trkpt>
      <trkpt lat="43.53981" lon="3.46215">
        <ele>36.7</ele>
        <time>2018-09-25T18:10:14.819Z</time>
      </trkpt>
      <trkpt lat="43.53978" lon="3.46212">
        <ele>36.7</ele>
        <time>2018-09-25T18:10:15.819Z</time>
      </trkpt>
      <trkpt lat="43.53975" lon="3.4621">
        <ele>36.6</ele>
        <time>2018-09-25T18:10:16.819Z</time>
      </trkpt>
      <trkpt lat="43.53972" lon="3.46208">
        <ele>36.6</ele>
        <time>2018-09-25T18:10:17.819Z</time>
      </trkpt>
      <trkpt lat="43.53968" lon="3.46206">
        <ele>36.5</ele>
        <time>2018-09-25T18:10:18.819Z</time>
      </trkpt>
      <trkpt lat="43.53964" lon="3.46203">
        <ele>36.5</ele>
        <time>2018-09-25T18:10:19.819Z</time>
      </trkpt>
      <trkpt lat="43.53961" lon="3.46201">
        <ele>36.4</ele>
        <time>2018-09-25T18:10:20.819Z</time>
      </trkpt>
      <trkpt lat="43.53957" lon="3.46199">
        <ele>36.4</ele>
        <time>2018-09-25T18:10:21.819Z</time>
      </trkpt>
      <trkpt lat="43.53953" lon="3.46197">
        <ele>36.3</ele>
        <time>2018-09-25T18:10:22.819Z</time>
      </trkpt>
      <trkpt lat="43.53949" lon="3.46195">
        <ele>36.3</ele>
        <time>2018-09-25T18:10:23.819Z</time>
      </trkpt>
      <trkpt lat="43.53945" lon="3.46193">
        <ele>36.2</ele>
        <time>2018-09-25T18:10:24.819Z</time>
      </trkpt>
      <trkpt lat="43.53942" lon="3.46191">
        <ele>36.2</ele>
        <time>2018-09-25T18:10:25.819Z</time>
      </trkpt>
      <trkpt lat="43.53939" lon="3.46189">
        <ele>36.1</ele>
        <time>2018-09-25T18:10:26.819Z</time>
      </trkpt>
      <trkpt lat="43.53935" lon="3.46187">
        <ele>36.1</ele>
        <time>2018-09-25T18:10:27.819Z</time>
      </trkpt>
      <trkpt lat="43.53932" lon="3.46186">
        <ele>36</ele>
        <time>2018-09-25T18:10:28.819Z</time>
      </trkpt>
      <trkpt lat="43.53928" lon="3.46184">
        <ele>35.8</ele>
        <time>2018-09-25T18:10:29.819Z</time>
      </trkpt>
      <trkpt lat="43.53924" lon="3.46183">
        <ele>35.6</ele>
        <time>2018-09-25T18:10:30.819Z</time>
      </trkpt>
      <trkpt lat="43.5392" lon="3.46181">
        <ele>35.4</ele>
        <time>2018-09-25T18:10:31.819Z</time>
      </trkpt>
      <trkpt lat="43.53917" lon="3.46181">
        <ele>35.2</ele>
        <time>2018-09-25T18:10:32.819Z</time>
      </trkpt>
      <trkpt lat="43.53915" lon="3.4618">
        <ele>35.1</ele>
        <time>2018-09-25T18:10:33.819Z</time>
      </trkpt>
      <trkpt lat="43.53912" lon="3.4618">
        <ele>35</ele>
        <time>2018-09-25T18:10:34.819Z</time>
      </trkpt>
      <trkpt lat="43.53908" lon="3.46181">
        <ele>35</ele>
        <time>2018-09-25T18:10:35.819Z</time>
      </trkpt>
      <trkpt lat="43.53905" lon="3.46182">
        <ele>35</ele>
        <time>2018-09-25T18:10:36.819Z</time>
      </trkpt>
      <trkpt lat="43.53901" lon="3.46184">
        <ele>35</ele>
        <time>2018-09-25T18:10:37.819Z</time>
      </trkpt>
      <trkpt lat="43.53898" lon="3.46186">
        <ele>35</ele>
        <time>2018-09-25T18:10:38.819Z</time>
      </trkpt>
      <trkpt lat="43.53894" lon="3.46187">
        <ele>35</ele>
        <time>2018-09-25T18:10:39.819Z</time>
      </trkpt>
      <trkpt lat="43.5389" lon="3.46189">
        <ele>35</ele>
        <time>2018-09-25T18:10:40.819Z</time>
      </trkpt>
      <trkpt lat="43.53886" lon="3.4619">
        <ele>35</ele>
        <time>2018-09-25T18:10:41.819Z</time>
      </trkpt>
      <trkpt lat="43.53883" lon="3.46192">
        <ele>35</ele>
        <time>2018-09-25T18:10:42.819Z</time>
      </trkpt>
      <trkpt lat="43.53879" lon="3.46193">
        <ele>35</ele>
        <time>2018-09-25T18:10:43.819Z</time>
      </trkpt>
      <trkpt lat="43.53875" lon="3.46193">
        <ele>35</ele>
        <time>2018-09-25T18:10:44.819Z</time>
      </trkpt>
      <trkpt lat="43.53871" lon="3.46191">
        <ele>35</ele>
        <time>2018-09-25T18:10:45.819Z</time>
      </trkpt>
      <trkpt lat="43.53867" lon="3.4619">
        <ele>35.1</ele>
        <time>2018-09-25T18:10:46.819Z</time>
      </trkpt>
      <trkpt lat="43.53864" lon="3.46188">
        <ele>35.1</ele>
        <time>2018-09-25T18:10:47.819Z</time>
      </trkpt>
      <trkpt lat="43.5386" lon="3.46186">
        <ele>35.1</ele>
        <time>2018-09-25T18:10:48.819Z</time>
      </trkpt>
      <trkpt lat="43.53857" lon="3.46185">
        <ele>35.2</ele>
        <time>2018-09-25T18:10:49.819Z</time>
      </trkpt>
      <trkpt lat="43.53854" lon="3.46183">
        <ele>35.2</ele>
        <time>2018-09-25T18:10:50.819Z</time>
      </trkpt>
      <trkpt lat="43.5385" lon="3.46181">
        <ele>35.3</ele>
        <time>2018-09-25T18:10:51.819Z</time>
      </trkpt>
      <trkpt lat="43.53847" lon="3.46179">
        <ele>35.3</ele>
        <time>2018-09-25T18:10:52.819Z</time>
      </trkpt>
      <trkpt lat="43.53844" lon="3.46178">
        <ele>35.4</ele>
        <time>2018-09-25T18:10:53.819Z</time>
      </trkpt>
      <trkpt lat="43.5384" lon="3.46176">
        <ele>35.4</ele>
        <time>2018-09-25T18:10:54.819Z</time>
      </trkpt>
      <trkpt lat="43.53837" lon="3.46174">
        <ele>35.4</ele>
        <time>2018-09-25T18:10:55.819Z</time>
      </trkpt>
      <trkpt lat="43.53833" lon="3.46172">
        <ele>35.4</ele>
        <time>2018-09-25T18:10:56.819Z</time>
      </trkpt>
      <trkpt lat="43.5383" lon="3.46171">
        <ele>35.4</ele>
        <time>2018-09-25T18:10:57.819Z</time>
      </trkpt>
      <trkpt lat="43.53826" lon="3.46169">
        <ele>35.5</ele>
        <time>2018-09-25T18:10:58.819Z</time>
      </trkpt>
      <trkpt lat="43.53823" lon="3.46166">
        <ele>35.5</ele>
        <time>2018-09-25T18:10:59.819Z</time>
      </trkpt>
      <trkpt lat="43.53819" lon="3.46164">
        <ele>35.5</ele>
        <time>2018-09-25T18:11:00.819Z</time>
      </trkpt>
      <trkpt lat="43.53815" lon="3.46162">
        <ele>35.5</ele>
        <time>2018-09-25T18:11:01.819Z</time>
      </trkpt>
      <trkpt lat="43.53811" lon="3.46159">
        <ele>35.5</ele>
        <time>2018-09-25T18:11:02.819Z</time>
      </trkpt>
      <trkpt lat="43.53807" lon="3.46158">
        <ele>35.5</ele>
        <time>2018-09-25T18:11:03.819Z</time>
      </trkpt>
      <trkpt lat="43.53804" lon="3.46156">
        <ele>35.5</ele>
        <time>2018-09-25T18:11:04.819Z</time>
      </trkpt>
      <trkpt lat="43.538" lon="3.46154">
        <ele>35.5</ele>
        <time>2018-09-25T18:11:05.819Z</time>
      </trkpt>
      <trkpt lat="43.53797" lon="3.46152">
        <ele>35.5</ele>
        <time>2018-09-25T18:11:06.819Z</time>
      </trkpt>
      <trkpt lat="43.53792" lon="3.4615">
        <ele>35.5</ele>
        <time>2018-09-25T18:11:07.819Z</time>
      </trkpt>
      <trkpt lat="43.53789" lon="3.46148">
        <ele>35.4</ele>
        <time>2018-09-25T18:11:08.819Z</time>
      </trkpt>
      <trkpt lat="43.53785" lon="3.46146">
        <ele>35.4</ele>
        <time>2018-09-25T18:11:09.819Z</time>
      </trkpt>
      <trkpt lat="43.53781" lon="3.46144">
        <ele>35.4</ele>
        <time>2018-09-25T18:11:10.819Z</time>
      </trkpt>
      <trkpt lat="43.53778" lon="3.46142">
        <ele>35.3</ele>
        <time>2018-09-25T18:11:11.819Z</time>
      </trkpt>
      <trkpt lat="43.53774" lon="3.4614">
        <ele>35.3</ele>
        <time>2018-09-25T18:11:12.819Z</time>
      </trkpt>
      <trkpt lat="43.5377" lon="3.46138">
        <ele>35.2</ele>
        <time>2018-09-25T18:11:13.819Z</time>
      </trkpt>
      <trkpt lat="43.53767" lon="3.46135">
        <ele>35.1</ele>
        <time>2018-09-25T18:11:14.819Z</time>
      </trkpt>
      <trkpt lat="43.53763" lon="3.46133">
        <ele>35</ele>
        <time>2018-09-25T18:11:15.819Z</time>
      </trkpt>
      <trkpt lat="43.5376" lon="3.46131">
        <ele>35</ele>
        <time>2018-09-25T18:11:16.819Z</time>
      </trkpt>
      <trkpt lat="43.53757" lon="3.46129">
        <ele>34.9</ele>
        <time>2018-09-25T18:11:17.819Z</time>
      </trkpt>
      <trkpt lat="43.53753" lon="3.46127">
        <ele>34.8</ele>
        <time>2018-09-25T18:11:18.819Z</time>
      </trkpt>
      <trkpt lat="43.53749" lon="3.46124">
        <ele>34.7</ele>
        <time>2018-09-25T18:11:19.819Z</time>
      </trkpt>
      <trkpt lat="43.53746" lon="3.46122">
        <ele>34.5</ele>
        <time>2018-09-25T18:11:20.819Z</time>
      </trkpt>
      <trkpt lat="43.53742" lon="3.4612">
        <ele>34.4</ele>
        <time>2018-09-25T18:11:21.819Z</time>
      </trkpt>
      <trkpt lat="43.53738" lon="3.46117">
        <ele>34.4</ele>
        <time>2018-09-25T18:11:22.819Z</time>
      </trkpt>
      <trkpt lat="43.53734" lon="3.46115">
        <ele>34.3</ele>
        <time>2018-09-25T18:11:23.819Z</time>
      </trkpt>
      <trkpt lat="43.53731" lon="3.46113">
        <ele>34.2</ele>
        <time>2018-09-25T18:11:24.819Z</time>
      </trkpt>
      <trkpt lat="43.53727" lon="3.46111">
        <ele>34.1</ele>
        <time>2018-09-25T18:11:25.819Z</time>
      </trkpt>
      <trkpt lat="43.53724" lon="3.46108">
        <ele>34</ele>
        <time>2018-09-25T18:11:26.819Z</time>
      </trkpt>
      <trkpt lat="43.5372" lon="3.46106">
        <ele>33.9</ele>
        <time>2018-09-25T18:11:27.819Z</time>
      </trkpt>
      <trkpt lat="43.53716" lon="3.46104">
        <ele>33.9</ele>
        <time>2018-09-25T18:11:28.819Z</time>
      </trkpt>
      <trkpt lat="43.53712" lon="3.46102">
        <ele>33.8</ele>
        <time>2018-09-25T18:11:29.819Z</time>
      </trkpt>
      <trkpt lat="43.53709" lon="3.461">
        <ele>33.8</ele>
        <time>2018-09-25T18:11:30.819Z</time>
      </trkpt>
      <trkpt lat="43.53705" lon="3.46098">
        <ele>33.7</ele>
        <time>2018-09-25T18:11:31.819Z</time>
      </trkpt>
      <trkpt lat="43.53702" lon="3.46096">
        <ele>33.7</ele>
        <time>2018-09-25T18:11:32.819Z</time>
      </trkpt>
      <trkpt lat="43.53698" lon="3.46094">
        <ele>33.6</ele>
        <time>2018-09-25T18:11:33.819Z</time>
      </trkpt>
      <trkpt lat="43.53695" lon="3.46091">
        <ele>33.5</ele>
        <time>2018-09-25T18:11:34.819Z</time>
      </trkpt>
      <trkpt lat="43.53691" lon="3.46089">
        <ele>33.5</ele>
        <time>2018-09-25T18:11:35.819Z</time>
      </trkpt>
      <trkpt lat="43.53687" lon="3.46087">
        <ele>33.5</ele>
        <time>2018-09-25T18:11:36.819Z</time>
      </trkpt>
      <trkpt lat="43.53683" lon="3.46084">
        <ele>33.5</ele>
        <time>2018-09-25T18:11:37.819Z</time>
      </trkpt>
      <trkpt lat="43.53679" lon="3.46082">
        <ele>33.5</ele>
        <time>2018-09-25T18:11:38.819Z</time>
      </trkpt>
      <trkpt lat="43.53675" lon="3.4608">
        <ele>33.4</ele>
        <time>2018-09-25T18:11:39.819Z</time>
      </trkpt>
      <trkpt lat="43.53671" lon="3.46077">
        <ele>33.4</ele>
        <time>2018-09-25T18:11:40.819Z</time>
      </trkpt>
      <trkpt lat="43.53667" lon="3.46075">
        <ele>33.4</ele>
        <time>2018-09-25T18:11:41.819Z</time>
      </trkpt>
      <trkpt lat="43.53663" lon="3.46073">
        <ele>33.5</ele>
        <time>2018-09-25T18:11:42.819Z</time>
      </trkpt>
      <trkpt lat="43.53659" lon="3.4607">
        <ele>33.5</ele>
        <time>2018-09-25T18:11:43.819Z</time>
      </trkpt>
      <trkpt lat="43.53656" lon="3.46068">
        <ele>33.5</ele>
        <time>2018-09-25T18:11:44.819Z</time>
      </trkpt>
      <trkpt lat="43.53651" lon="3.46066">
        <ele>33.6</ele>
        <time>2018-09-25T18:11:45.819Z</time>
      </trkpt>
      <trkpt lat="43.53648" lon="3.46064">
        <ele>33.6</ele>
        <time>2018-09-25T18:11:46.819Z</time>
      </trkpt>
      <trkpt lat="43.53644" lon="3.46062">
        <ele>33.6</ele>
        <time>2018-09-25T18:11:47.819Z</time>
      </trkpt>
      <trkpt lat="43.5364" lon="3.46061">
        <ele>33.5</ele>
        <time>2018-09-25T18:11:48.819Z</time>
      </trkpt>
      <trkpt lat="43.53636" lon="3.46059">
        <ele>33.5</ele>
        <time>2018-09-25T18:11:49.819Z</time>
      </trkpt>
      <trkpt lat="43.53632" lon="3.46057">
        <ele>33.5</ele>
        <time>2018-09-25T18:11:50.819Z</time>
      </trkpt>
      <trkpt lat="43.53628" lon="3.46055">
        <ele>33.4</ele>
        <time>2018-09-25T18:11:51.819Z</time>
      </trkpt>
      <trkpt lat="43.53624" lon="3.46052">
        <ele>33.4</ele>
        <time>2018-09-25T18:11:52.819Z</time>
      </trkpt>
      <trkpt lat="43.5362" lon="3.4605">
        <ele>33.4</ele>
        <time>2018-09-25T18:11:53.819Z</time>
      </trkpt>
      <trkpt lat="43.53616" lon="3.46048">
        <ele>33.3</ele>
        <time>2018-09-25T18:11:54.819Z</time>
      </trkpt>
      <trkpt lat="43.53612" lon="3.46046">
        <ele>33.3</ele>
        <time>2018-09-25T18:11:55.819Z</time>
      </trkpt>
      <trkpt lat="43.53607" lon="3.46044">
        <ele>33.2</ele>
        <time>2018-09-25T18:11:56.819Z</time>
      </trkpt>
      <trkpt lat="43.53604" lon="3.46041">
        <ele>33.2</ele>
        <time>2018-09-25T18:11:57.819Z</time>
      </trkpt>
      <trkpt lat="43.536" lon="3.46039">
        <ele>33.1</ele>
        <time>2018-09-25T18:11:58.819Z</time>
      </trkpt>
      <trkpt lat="43.53596" lon="3.46037">
        <ele>33.1</ele>
        <time>2018-09-25T18:11:59.819Z</time>
      </trkpt>
      <trkpt lat="43.53592" lon="3.46035">
        <ele>33.1</ele>
        <time>2018-09-25T18:12:00.819Z</time>
      </trkpt>
      <trkpt lat="43.53588" lon="3.46033">
        <ele>33</ele>
        <time>2018-09-25T18:12:01.819Z</time>
      </trkpt>
      <trkpt lat="43.53585" lon="3.4603">
        <ele>33</ele>
        <time>2018-09-25T18:12:02.819Z</time>
      </trkpt>
      <trkpt lat="43.53581" lon="3.46028">
        <ele>32.9</ele>
        <time>2018-09-25T18:12:03.819Z</time>
      </trkpt>
      <trkpt lat="43.53577" lon="3.46025">
        <ele>32.8</ele>
        <time>2018-09-25T18:12:04.819Z</time>
      </trkpt>
      <trkpt lat="43.53573" lon="3.46023">
        <ele>32.8</ele>
        <time>2018-09-25T18:12:05.819Z</time>
      </trkpt>
      <trkpt lat="43.5357" lon="3.46021">
        <ele>32.8</ele>
        <time>2018-09-25T18:12:06.819Z</time>
      </trkpt>
      <trkpt lat="43.53566" lon="3.46018">
        <ele>32.8</ele>
        <time>2018-09-25T18:12:07.819Z</time>
      </trkpt>
      <trkpt lat="43.53563" lon="3.46015">
        <ele>32.8</ele>
        <time>2018-09-25T18:12:08.819Z</time>
      </trkpt>
      <trkpt lat="43.53559" lon="3.46012">
        <ele>32.8</ele>
        <time>2018-09-25T18:12:09.819Z</time>
      </trkpt>
      <trkpt lat="43.53556" lon="3.46009">
        <ele>32.8</ele>
        <time>2018-09-25T18:12:10.819Z</time>
      </trkpt>
      <trkpt lat="43.53552" lon="3.46006">
        <ele>32.8</ele>
        <time>2018-09-25T18:12:11.819Z</time>
      </trkpt>
      <trkpt lat="43.53549" lon="3.46004">
        <ele>32.8</ele>
        <time>2018-09-25T18:12:12.819Z</time>
      </trkpt>
      <trkpt lat="43.53545" lon="3.46001">
        <ele>32.9</ele>
        <time>2018-09-25T18:12:13.819Z</time>
      </trkpt>
      <trkpt lat="43.53542" lon="3.45997">
        <ele>33</ele>
        <time>2018-09-25T18:12:14.819Z</time>
      </trkpt>
      <trkpt lat="43.53539" lon="3.45994">
        <ele>33</ele>
        <time>2018-09-25T18:12:15.819Z</time>
      </trkpt>
      <trkpt lat="43.53536" lon="3.4599">
        <ele>33.1</ele>
        <time>2018-09-25T18:12:16.819Z</time>
      </trkpt>
      <trkpt lat="43.53533" lon="3.45987">
        <ele>33.1</ele>
        <time>2018-09-25T18:12:17.819Z</time>
      </trkpt>
      <trkpt lat="43.5353" lon="3.45983">
        <ele>33.2</ele>
        <time>2018-09-25T18:12:18.819Z</time>
      </trkpt>
      <trkpt lat="43.53527" lon="3.45979">
        <ele>33.2</ele>
        <time>2018-09-25T18:12:19.819Z</time>
      </trkpt>
      <trkpt lat="43.53524" lon="3.45976">
        <ele>33.3</ele>
        <time>2018-09-25T18:12:20.819Z</time>
      </trkpt>
      <trkpt lat="43.53521" lon="3.45972">
        <ele>33.4</ele>
        <time>2018-09-25T18:12:21.819Z</time>
      </trkpt>
      <trkpt lat="43.53518" lon="3.45969">
        <ele>33.5</ele>
        <time>2018-09-25T18:12:22.819Z</time>
      </trkpt>
      <trkpt lat="43.53515" lon="3.45965">
        <ele>33.5</ele>
        <time>2018-09-25T18:12:23.819Z</time>
      </trkpt>
      <trkpt lat="43.53512" lon="3.45962">
        <ele>33.6</ele>
        <time>2018-09-25T18:12:24.819Z</time>
      </trkpt>
      <trkpt lat="43.53509" lon="3.45958">
        <ele>33.6</ele>
        <time>2018-09-25T18:12:25.819Z</time>
      </trkpt>
      <trkpt lat="43.53506" lon="3.45955">
        <ele>33.7</ele>
        <time>2018-09-25T18:12:26.819Z</time>
      </trkpt>
      <trkpt lat="43.53503" lon="3.45951">
        <ele>33.8</ele>
        <time>2018-09-25T18:12:27.819Z</time>
      </trkpt>
      <trkpt lat="43.535" lon="3.45948">
        <ele>33.9</ele>
        <time>2018-09-25T18:12:28.819Z</time>
      </trkpt>
      <trkpt lat="43.53497" lon="3.45945">
        <ele>33.9</ele>
        <time>2018-09-25T18:12:29.819Z</time>
      </trkpt>
      <trkpt lat="43.53494" lon="3.45941">
        <ele>34</ele>
        <time>2018-09-25T18:12:30.819Z</time>
      </trkpt>
      <trkpt lat="43.53491" lon="3.45938">
        <ele>34</ele>
        <time>2018-09-25T18:12:31.819Z</time>
      </trkpt>
      <trkpt lat="43.53487" lon="3.45935">
        <ele>34</ele>
        <time>2018-09-25T18:12:32.819Z</time>
      </trkpt>
      <trkpt lat="43.53484" lon="3.45933">
        <ele>34</ele>
        <time>2018-09-25T18:12:33.819Z</time>
      </trkpt>
      <trkpt lat="43.5348" lon="3.45932">
        <ele>34</ele>
        <time>2018-09-25T18:12:34.819Z</time>
      </trkpt>
      <trkpt lat="43.53477" lon="3.4593">
        <ele>34</ele>
        <time>2018-09-25T18:12:35.819Z</time>
      </trkpt>
      <trkpt lat="43.53473" lon="3.45929">
        <ele>34</ele>
        <time>2018-09-25T18:12:36.819Z</time>
      </trkpt>
      <trkpt lat="43.5347" lon="3.45928">
        <ele>34</ele>
        <time>2018-09-25T18:12:37.819Z</time>
      </trkpt>
      <trkpt lat="43.53466" lon="3.45926">
        <ele>34</ele>
        <time>2018-09-25T18:12:38.819Z</time>
      </trkpt>
      <trkpt lat="43.53463" lon="3.45925">
        <ele>34</ele>
        <time>2018-09-25T18:12:39.819Z</time>
      </trkpt>
      <trkpt lat="43.53459" lon="3.45924">
        <ele>34</ele>
        <time>2018-09-25T18:12:40.819Z</time>
      </trkpt>
      <trkpt lat="43.53455" lon="3.45923">
        <ele>34</ele>
        <time>2018-09-25T18:12:41.819Z</time>
      </trkpt>
      <trkpt lat="43.53451" lon="3.45921">
        <ele>34</ele>
        <time>2018-09-25T18:12:42.819Z</time>
      </trkpt>
      <trkpt lat="43.53447" lon="3.45919">
        <ele>33.9</ele>
        <time>2018-09-25T18:12:43.819Z</time>
      </trkpt>
      <trkpt lat="43.53444" lon="3.45918">
        <ele>33.9</ele>
        <time>2018-09-25T18:12:44.819Z</time>
      </trkpt>
      <trkpt lat="43.53439" lon="3.45916">
        <ele>33.9</ele>
        <time>2018-09-25T18:12:45.819Z</time>
      </trkpt>
      <trkpt lat="43.53435" lon="3.45915">
        <ele>33.9</ele>
        <time>2018-09-25T18:12:46.819Z</time>
      </trkpt>
      <trkpt lat="43.53431" lon="3.45914">
        <ele>33.9</ele>
        <time>2018-09-25T18:12:47.819Z</time>
      </trkpt>
      <trkpt lat="43.53426" lon="3.45912">
        <ele>33.9</ele>
        <time>2018-09-25T18:12:48.819Z</time>
      </trkpt>
      <trkpt lat="43.53422" lon="3.4591">
        <ele>34</ele>
        <time>2018-09-25T18:12:49.819Z</time>
      </trkpt>
      <trkpt lat="43.53417" lon="3.45908">
        <ele>33.9</ele>
        <time>2018-09-25T18:12:50.819Z</time>
      </trkpt>
      <trkpt lat="43.53413" lon="3.45906">
        <ele>33.9</ele>
        <time>2018-09-25T18:12:51.819Z</time>
      </trkpt>
      <trkpt lat="43.53408" lon="3.45903">
        <ele>33.9</ele>
        <time>2018-09-25T18:12:52.819Z</time>
      </trkpt>
      <trkpt lat="43.53404" lon="3.45901">
        <ele>33.9</ele>
        <time>2018-09-25T18:12:53.819Z</time>
      </trkpt>
      <trkpt lat="43.534" lon="3.45898">
        <ele>33.9</ele>
        <time>2018-09-25T18:12:54.819Z</time>
      </trkpt>
      <trkpt lat="43.53396" lon="3.45895">
        <ele>33.9</ele>
        <time>2018-09-25T18:12:55.819Z</time>
      </trkpt>
      <trkpt lat="43.53392" lon="3.45892">
        <ele>33.9</ele>
        <time>2018-09-25T18:12:56.819Z</time>
      </trkpt>
      <trkpt lat="43.53388" lon="3.45889">
        <ele>33.9</ele>
        <time>2018-09-25T18:12:57.819Z</time>
      </trkpt>
      <trkpt lat="43.53385" lon="3.45886">
        <ele>33.9</ele>
        <time>2018-09-25T18:12:58.819Z</time>
      </trkpt>
      <trkpt lat="43.53381" lon="3.45883">
        <ele>33.9</ele>
        <time>2018-09-25T18:12:59.819Z</time>
      </trkpt>
      <trkpt lat="43.53377" lon="3.45881">
        <ele>33.9</ele>
        <time>2018-09-25T18:13:00.819Z</time>
      </trkpt>
      <trkpt lat="43.53373" lon="3.45878">
        <ele>33.9</ele>
        <time>2018-09-25T18:13:01.819Z</time>
      </trkpt>
      <trkpt lat="43.5337" lon="3.45875">
        <ele>33.9</ele>
        <time>2018-09-25T18:13:02.819Z</time>
      </trkpt>
      <trkpt lat="43.53366" lon="3.45872">
        <ele>33.9</ele>
        <time>2018-09-25T18:13:03.819Z</time>
      </trkpt>
      <trkpt lat="43.53363" lon="3.4587">
        <ele>34</ele>
        <time>2018-09-25T18:13:04.819Z</time>
      </trkpt>
      <trkpt lat="43.53359" lon="3.45867">
        <ele>34</ele>
        <time>2018-09-25T18:13:05.819Z</time>
      </trkpt>
      <trkpt lat="43.53356" lon="3.45864">
        <ele>34</ele>
        <time>2018-09-25T18:13:06.819Z</time>
      </trkpt>
      <trkpt lat="43.53353" lon="3.45862">
        <ele>34</ele>
        <time>2018-09-25T18:13:07.819Z</time>
      </trkpt>
      <trkpt lat="43.53349" lon="3.4586">
        <ele>34</ele>
        <time>2018-09-25T18:13:08.819Z</time>
      </trkpt>
      <trkpt lat="43.53345" lon="3.45858">
        <ele>34</ele>
        <time>2018-09-25T18:13:09.819Z</time>
      </trkpt>
      <trkpt lat="43.53341" lon="3.45857">
        <ele>34</ele>
        <time>2018-09-25T18:13:10.819Z</time>
      </trkpt>
      <trkpt lat="43.53337" lon="3.45857">
        <ele>33.9</ele>
        <time>2018-09-25T18:13:11.819Z</time>
      </trkpt>
      <trkpt lat="43.53333" lon="3.45856">
        <ele>33.9</ele>
        <time>2018-09-25T18:13:12.819Z</time>
      </trkpt>
      <trkpt lat="43.53328" lon="3.45856">
        <ele>33.9</ele>
        <time>2018-09-25T18:13:13.819Z</time>
      </trkpt>
      <trkpt lat="43.53324" lon="3.45855">
        <ele>33.8</ele>
        <time>2018-09-25T18:13:14.819Z</time>
      </trkpt>
      <trkpt lat="43.53319" lon="3.45854">
        <ele>33.8</ele>
        <time>2018-09-25T18:13:15.819Z</time>
      </trkpt>
      <trkpt lat="43.53314" lon="3.45854">
        <ele>33.7</ele>
        <time>2018-09-25T18:13:16.819Z</time>
      </trkpt>
      <trkpt lat="43.5331" lon="3.45854">
        <ele>33.7</ele>
        <time>2018-09-25T18:13:17.819Z</time>
      </trkpt>
      <trkpt lat="43.53306" lon="3.45854">
        <ele>33.7</ele>
        <time>2018-09-25T18:13:18.819Z</time>
      </trkpt>
      <trkpt lat="43.53302" lon="3.45853">
        <ele>33.7</ele>
        <time>2018-09-25T18:13:19.819Z</time>
      </trkpt>
      <trkpt lat="43.53298" lon="3.45853">
        <ele>33.6</ele>
        <time>2018-09-25T18:13:20.819Z</time>
      </trkpt>
      <trkpt lat="43.53293" lon="3.45852">
        <ele>33.6</ele>
        <time>2018-09-25T18:13:21.819Z</time>
      </trkpt>
      <trkpt lat="43.53288" lon="3.45852">
        <ele>33.6</ele>
        <time>2018-09-25T18:13:22.819Z</time>
      </trkpt>
      <trkpt lat="43.53283" lon="3.45853">
        <ele>33.6</ele>
        <time>2018-09-25T18:13:23.819Z</time>
      </trkpt>
      <trkpt lat="43.53279" lon="3.45853">
        <ele>33.6</ele>
        <time>2018-09-25T18:13:24.819Z</time>
      </trkpt>
      <trkpt lat="43.53275" lon="3.45853">
        <ele>33.6</ele>
        <time>2018-09-25T18:13:25.819Z</time>
      </trkpt>
      <trkpt lat="43.5327" lon="3.45853">
        <ele>33.6</ele>
        <time>2018-09-25T18:13:26.819Z</time>
      </trkpt>
      <trkpt lat="43.53266" lon="3.45853">
        <ele>33.6</ele>
        <time>2018-09-25T18:13:27.819Z</time>
      </trkpt>
      <trkpt lat="43.53262" lon="3.45853">
        <ele>33.6</ele>
        <time>2018-09-25T18:13:28.819Z</time>
      </trkpt>
      <trkpt lat="43.53257" lon="3.45853">
        <ele>33.5</ele>
        <time>2018-09-25T18:13:29.819Z</time>
      </trkpt>
      <trkpt lat="43.53253" lon="3.45853">
        <ele>33.5</ele>
        <time>2018-09-25T18:13:30.819Z</time>
      </trkpt>
      <trkpt lat="43.53248" lon="3.45853">
        <ele>33.4</ele>
        <time>2018-09-25T18:13:31.819Z</time>
      </trkpt>
      <trkpt lat="43.53244" lon="3.45853">
        <ele>33.4</ele>
        <time>2018-09-25T18:13:32.819Z</time>
      </trkpt>
      <trkpt lat="43.5324" lon="3.45853">
        <ele>33.3</ele>
        <time>2018-09-25T18:13:33.819Z</time>
      </trkpt>
      <trkpt lat="43.53235" lon="3.45852">
        <ele>33.2</ele>
        <time>2018-09-25T18:13:34.819Z</time>
      </trkpt>
      <trkpt lat="43.53231" lon="3.45852">
        <ele>33.2</ele>
        <time>2018-09-25T18:13:35.819Z</time>
      </trkpt>
      <trkpt lat="43.53227" lon="3.45852">
        <ele>33.1</ele>
        <time>2018-09-25T18:13:36.819Z</time>
      </trkpt>
      <trkpt lat="43.53223" lon="3.45852">
        <ele>33</ele>
        <time>2018-09-25T18:13:37.819Z</time>
      </trkpt>
      <trkpt lat="43.53218" lon="3.45852">
        <ele>32.9</ele>
        <time>2018-09-25T18:13:38.819Z</time>
      </trkpt>
      <trkpt lat="43.53213" lon="3.45852">
        <ele>32.7</ele>
        <time>2018-09-25T18:13:39.819Z</time>
      </trkpt>
      <trkpt lat="43.53209" lon="3.45851">
        <ele>32.6</ele>
        <time>2018-09-25T18:13:40.819Z</time>
      </trkpt>
      <trkpt lat="43.53205" lon="3.45851">
        <ele>32.5</ele>
        <time>2018-09-25T18:13:41.819Z</time>
      </trkpt>
      <trkpt lat="43.53201" lon="3.45851">
        <ele>32.4</ele>
        <time>2018-09-25T18:13:42.819Z</time>
      </trkpt>
      <trkpt lat="43.53196" lon="3.45851">
        <ele>32.2</ele>
        <time>2018-09-25T18:13:43.819Z</time>
      </trkpt>
      <trkpt lat="43.53192" lon="3.45851">
        <ele>32.1</ele>
        <time>2018-09-25T18:13:44.819Z</time>
      </trkpt>
      <trkpt lat="43.53187" lon="3.45851">
        <ele>32</ele>
        <time>2018-09-25T18:13:45.819Z</time>
      </trkpt>
      <trkpt lat="43.53183" lon="3.45851">
        <ele>31.9</ele>
        <time>2018-09-25T18:13:46.819Z</time>
      </trkpt>
      <trkpt lat="43.53178" lon="3.45851">
        <ele>31.8</ele>
        <time>2018-09-25T18:13:47.819Z</time>
      </trkpt>
      <trkpt lat="43.53174" lon="3.45851">
        <ele>31.7</ele>
        <time>2018-09-25T18:13:48.819Z</time>
      </trkpt>
      <trkpt lat="43.5317" lon="3.45851">
        <ele>31.6</ele>
        <time>2018-09-25T18:13:49.819Z</time>
      </trkpt>
      <trkpt lat="43.53166" lon="3.45852">
        <ele>31.5</ele>
        <time>2018-09-25T18:13:50.819Z</time>
      </trkpt>
      <trkpt lat="43.53162" lon="3.45852">
        <ele>31.4</ele>
        <time>2018-09-25T18:13:51.819Z</time>
      </trkpt>
      <trkpt lat="43.53158" lon="3.45852">
        <ele>31.4</ele>
        <time>2018-09-25T18:13:52.819Z</time>
      </trkpt>
      <trkpt lat="43.53154" lon="3.45852">
        <ele>31.3</ele>
        <time>2018-09-25T18:13:53.819Z</time>
      </trkpt>
      <trkpt lat="43.5315" lon="3.45853">
        <ele>31.2</ele>
        <time>2018-09-25T18:13:54.819Z</time>
      </trkpt>
      <trkpt lat="43.53146" lon="3.45853">
        <ele>31.2</ele>
        <time>2018-09-25T18:13:55.819Z</time>
      </trkpt>
      <trkpt lat="43.53143" lon="3.45853">
        <ele>31.1</ele>
        <time>2018-09-25T18:13:56.819Z</time>
      </trkpt>
      <trkpt lat="43.53139" lon="3.45853">
        <ele>31.1</ele>
        <time>2018-09-25T18:13:57.819Z</time>
      </trkpt>
      <trkpt lat="43.53135" lon="3.45853">
        <ele>31</ele>
        <time>2018-09-25T18:13:58.819Z</time>
      </trkpt>
      <trkpt lat="43.53131" lon="3.45853">
        <ele>31</ele>
        <time>2018-09-25T18:13:59.819Z</time>
      </trkpt>
      <trkpt lat="43.53127" lon="3.45853">
        <ele>31</ele>
        <time>2018-09-25T18:14:00.819Z</time>
      </trkpt>
      <trkpt lat="43.53123" lon="3.45853">
        <ele>30.9</ele>
        <time>2018-09-25T18:14:01.819Z</time>
      </trkpt>
      <trkpt lat="43.53119" lon="3.45852">
        <ele>30.9</ele>
        <time>2018-09-25T18:14:02.819Z</time>
      </trkpt>
      <trkpt lat="43.53115" lon="3.45852">
        <ele>30.8</ele>
        <time>2018-09-25T18:14:03.819Z</time>
      </trkpt>
      <trkpt lat="43.5311" lon="3.45852">
        <ele>30.8</ele>
        <time>2018-09-25T18:14:04.819Z</time>
      </trkpt>
      <trkpt lat="43.53106" lon="3.45852">
        <ele>30.7</ele>
        <time>2018-09-25T18:14:05.819Z</time>
      </trkpt>
      <trkpt lat="43.53101" lon="3.45851">
        <ele>30.7</ele>
        <time>2018-09-25T18:14:06.819Z</time>
      </trkpt>
      <trkpt lat="43.53097" lon="3.4585">
        <ele>30.7</ele>
        <time>2018-09-25T18:14:07.819Z</time>
      </trkpt>
      <trkpt lat="43.53093" lon="3.45848">
        <ele>30.7</ele>
        <time>2018-09-25T18:14:08.819Z</time>
      </trkpt>
      <trkpt lat="43.53089" lon="3.45847">
        <ele>30.6</ele>
        <time>2018-09-25T18:14:09.819Z</time>
      </trkpt>
      <trkpt lat="43.53085" lon="3.45845">
        <ele>30.6</ele>
        <time>2018-09-25T18:14:10.819Z</time>
      </trkpt>
      <trkpt lat="43.5308" lon="3.45844">
        <ele>30.7</ele>
        <time>2018-09-25T18:14:11.819Z</time>
      </trkpt>
      <trkpt lat="43.53076" lon="3.45841">
        <ele>30.7</ele>
        <time>2018-09-25T18:14:12.819Z</time>
      </trkpt>
      <trkpt lat="43.53072" lon="3.45839">
        <ele>30.7</ele>
        <time>2018-09-25T18:14:13.819Z</time>
      </trkpt>
      <trkpt lat="43.53068" lon="3.45837">
        <ele>30.8</ele>
        <time>2018-09-25T18:14:14.819Z</time>
      </trkpt>
      <trkpt lat="43.53064" lon="3.45835">
        <ele>30.8</ele>
        <time>2018-09-25T18:14:15.819Z</time>
      </trkpt>
      <trkpt lat="43.5306" lon="3.45833">
        <ele>30.8</ele>
        <time>2018-09-25T18:14:16.819Z</time>
      </trkpt>
      <trkpt lat="43.53056" lon="3.4583">
        <ele>30.9</ele>
        <time>2018-09-25T18:14:17.819Z</time>
      </trkpt>
      <trkpt lat="43.53051" lon="3.45828">
        <ele>31</ele>
        <time>2018-09-25T18:14:18.819Z</time>
      </trkpt>
      <trkpt lat="43.53048" lon="3.45825">
        <ele>31</ele>
        <time>2018-09-25T18:14:19.819Z</time>
      </trkpt>
      <trkpt lat="43.53044" lon="3.45823">
        <ele>31.1</ele>
        <time>2018-09-25T18:14:20.819Z</time>
      </trkpt>
      <trkpt lat="43.5304" lon="3.4582">
        <ele>31.1</ele>
        <time>2018-09-25T18:14:21.819Z</time>
      </trkpt>
      <trkpt lat="43.53036" lon="3.45818">
        <ele>31.2</ele>
        <time>2018-09-25T18:14:22.819Z</time>
      </trkpt>
      <trkpt lat="43.53032" lon="3.45816">
        <ele>31.2</ele>
        <time>2018-09-25T18:14:23.819Z</time>
      </trkpt>
      <trkpt lat="43.53028" lon="3.45815">
        <ele>31.2</ele>
        <time>2018-09-25T18:14:24.819Z</time>
      </trkpt>
      <trkpt lat="43.53024" lon="3.45814">
        <ele>31.2</ele>
        <time>2018-09-25T18:14:25.819Z</time>
      </trkpt>
      <trkpt lat="43.53019" lon="3.45813">
        <ele>31.2</ele>
        <time>2018-09-25T18:14:26.819Z</time>
      </trkpt>
      <trkpt lat="43.53015" lon="3.45812">
        <ele>31.2</ele>
        <time>2018-09-25T18:14:27.819Z</time>
      </trkpt>
      <trkpt lat="43.53011" lon="3.45811">
        <ele>31.2</ele>
        <time>2018-09-25T18:14:28.819Z</time>
      </trkpt>
      <trkpt lat="43.53007" lon="3.45811">
        <ele>31.2</ele>
        <time>2018-09-25T18:14:29.819Z</time>
      </trkpt>
      <trkpt lat="43.53002" lon="3.4581">
        <ele>31.2</ele>
        <time>2018-09-25T18:14:30.819Z</time>
      </trkpt>
      <trkpt lat="43.52998" lon="3.4581">
        <ele>31.1</ele>
        <time>2018-09-25T18:14:31.819Z</time>
      </trkpt>
      <trkpt lat="43.52994" lon="3.4581">
        <ele>31.1</ele>
        <time>2018-09-25T18:14:32.819Z</time>
      </trkpt>
      <trkpt lat="43.5299" lon="3.4581">
        <ele>31</ele>
        <time>2018-09-25T18:14:33.819Z</time>
      </trkpt>
      <trkpt lat="43.52986" lon="3.4581">
        <ele>30.9</ele>
        <time>2018-09-25T18:14:34.819Z</time>
      </trkpt>
      <trkpt lat="43.52982" lon="3.45811">
        <ele>30.8</ele>
        <time>2018-09-25T18:14:35.819Z</time>
      </trkpt>
      <trkpt lat="43.52978" lon="3.45811">
        <ele>30.7</ele>
        <time>2018-09-25T18:14:36.819Z</time>
      </trkpt>
      <trkpt lat="43.52974" lon="3.45812">
        <ele>30.6</ele>
        <time>2018-09-25T18:14:37.819Z</time>
      </trkpt>
      <trkpt lat="43.52969" lon="3.45813">
        <ele>30.5</ele>
        <time>2018-09-25T18:14:38.819Z</time>
      </trkpt>
      <trkpt lat="43.52965" lon="3.45813">
        <ele>30.3</ele>
        <time>2018-09-25T18:14:39.819Z</time>
      </trkpt>
      <trkpt lat="43.52961" lon="3.45814">
        <ele>30.2</ele>
        <time>2018-09-25T18:14:40.819Z</time>
      </trkpt>
      <trkpt lat="43.52957" lon="3.45815">
        <ele>30.1</ele>
        <time>2018-09-25T18:14:41.819Z</time>
      </trkpt>
      <trkpt lat="43.52953" lon="3.45816">
        <ele>29.9</ele>
        <time>2018-09-25T18:14:42.819Z</time>
      </trkpt>
      <trkpt lat="43.52949" lon="3.45817">
        <ele>29.8</ele>
        <time>2018-09-25T18:14:43.819Z</time>
      </trkpt>
      <trkpt lat="43.52945" lon="3.45819">
        <ele>29.6</ele>
        <time>2018-09-25T18:14:44.819Z</time>
      </trkpt>
      <trkpt lat="43.52941" lon="3.4582">
        <ele>29.5</ele>
        <time>2018-09-25T18:14:45.819Z</time>
      </trkpt>
      <trkpt lat="43.52937" lon="3.45821">
        <ele>29.3</ele>
        <time>2018-09-25T18:14:46.819Z</time>
      </trkpt>
      <trkpt lat="43.52933" lon="3.45821">
        <ele>29.1</ele>
        <time>2018-09-25T18:14:47.819Z</time>
      </trkpt>
      <trkpt lat="43.52929" lon="3.45822">
        <ele>29</ele>
        <time>2018-09-25T18:14:48.819Z</time>
      </trkpt>
      <trkpt lat="43.52925" lon="3.45823">
        <ele>28.9</ele>
        <time>2018-09-25T18:14:49.819Z</time>
      </trkpt>
      <trkpt lat="43.52921" lon="3.45824">
        <ele>28.8</ele>
        <time>2018-09-25T18:14:50.819Z</time>
      </trkpt>
      <trkpt lat="43.52917" lon="3.45825">
        <ele>28.7</ele>
        <time>2018-09-25T18:14:51.819Z</time>
      </trkpt>
      <trkpt lat="43.52913" lon="3.45825">
        <ele>28.6</ele>
        <time>2018-09-25T18:14:52.819Z</time>
      </trkpt>
      <trkpt lat="43.52909" lon="3.45825">
        <ele>28.6</ele>
        <time>2018-09-25T18:14:53.819Z</time>
      </trkpt>
      <trkpt lat="43.52905" lon="3.45826">
        <ele>28.5</ele>
        <time>2018-09-25T18:14:54.819Z</time>
      </trkpt>
      <trkpt lat="43.52901" lon="3.45826">
        <ele>28.4</ele>
        <time>2018-09-25T18:14:55.819Z</time>
      </trkpt>
      <trkpt lat="43.52897" lon="3.45826">
        <ele>28.4</ele>
        <time>2018-09-25T18:14:56.819Z</time>
      </trkpt>
      <trkpt lat="43.52893" lon="3.45826">
        <ele>28.4</ele>
        <time>2018-09-25T18:14:57.819Z</time>
      </trkpt>
      <trkpt lat="43.52889" lon="3.45825">
        <ele>28.3</ele>
        <time>2018-09-25T18:14:58.819Z</time>
      </trkpt>
      <trkpt lat="43.52885" lon="3.45825">
        <ele>28.3</ele>
        <time>2018-09-25T18:14:59.819Z</time>
      </trkpt>
      <trkpt lat="43.52881" lon="3.45825">
        <ele>28.3</ele>
        <time>2018-09-25T18:15:00.819Z</time>
      </trkpt>
      <trkpt lat="43.52877" lon="3.45825">
        <ele>28.3</ele>
        <time>2018-09-25T18:15:01.819Z</time>
      </trkpt>
      <trkpt lat="43.52873" lon="3.45824">
        <ele>28.3</ele>
        <time>2018-09-25T18:15:02.819Z</time>
      </trkpt>
      <trkpt lat="43.5287" lon="3.45823">
        <ele>28.3</ele>
        <time>2018-09-25T18:15:03.819Z</time>
      </trkpt>
      <trkpt lat="43.52867" lon="3.45822">
        <ele>28.4</ele>
        <time>2018-09-25T18:15:04.819Z</time>
      </trkpt>
      <trkpt lat="43.52863" lon="3.45821">
        <ele>28.4</ele>
        <time>2018-09-25T18:15:05.819Z</time>
      </trkpt>
      <trkpt lat="43.52859" lon="3.4582">
        <ele>28.4</ele>
        <time>2018-09-25T18:15:06.819Z</time>
      </trkpt>
      <trkpt lat="43.52855" lon="3.45819">
        <ele>28.4</ele>
        <time>2018-09-25T18:15:07.819Z</time>
      </trkpt>
      <trkpt lat="43.52851" lon="3.45818">
        <ele>28.4</ele>
        <time>2018-09-25T18:15:08.819Z</time>
      </trkpt>
      <trkpt lat="43.52847" lon="3.45818">
        <ele>28.5</ele>
        <time>2018-09-25T18:15:09.819Z</time>
      </trkpt>
      <trkpt lat="43.52842" lon="3.45817">
        <ele>28.5</ele>
        <time>2018-09-25T18:15:10.819Z</time>
      </trkpt>
      <trkpt lat="43.52837" lon="3.45816">
        <ele>28.5</ele>
        <time>2018-09-25T18:15:11.819Z</time>
      </trkpt>
      <trkpt lat="43.52833" lon="3.45815">
        <ele>28.5</ele>
        <time>2018-09-25T18:15:12.819Z</time>
      </trkpt>
      <trkpt lat="43.52829" lon="3.45815">
        <ele>28.5</ele>
        <time>2018-09-25T18:15:13.819Z</time>
      </trkpt>
      <trkpt lat="43.52824" lon="3.45814">
        <ele>28.5</ele>
        <time>2018-09-25T18:15:14.819Z</time>
      </trkpt>
      <trkpt lat="43.5282" lon="3.45813">
        <ele>28.4</ele>
        <time>2018-09-25T18:15:15.819Z</time>
      </trkpt>
      <trkpt lat="43.52816" lon="3.45812">
        <ele>28.4</ele>
        <time>2018-09-25T18:15:16.819Z</time>
      </trkpt>
      <trkpt lat="43.52812" lon="3.45812">
        <ele>28.3</ele>
        <time>2018-09-25T18:15:17.819Z</time>
      </trkpt>
      <trkpt lat="43.52807" lon="3.45811">
        <ele>28.3</ele>
        <time>2018-09-25T18:15:18.819Z</time>
      </trkpt>
      <trkpt lat="43.52803" lon="3.4581">
        <ele>28.2</ele>
        <time>2018-09-25T18:15:19.819Z</time>
      </trkpt>
      <trkpt lat="43.52798" lon="3.45809">
        <ele>28.2</ele>
        <time>2018-09-25T18:15:20.819Z</time>
      </trkpt>
      <trkpt lat="43.52794" lon="3.45808">
        <ele>28.1</ele>
        <time>2018-09-25T18:15:21.819Z</time>
      </trkpt>
      <trkpt lat="43.5279" lon="3.45807">
        <ele>28</ele>
        <time>2018-09-25T18:15:22.819Z</time>
      </trkpt>
      <trkpt lat="43.52786" lon="3.45807">
        <ele>27.9</ele>
        <time>2018-09-25T18:15:23.819Z</time>
      </trkpt>
      <trkpt lat="43.52781" lon="3.45806">
        <ele>27.8</ele>
        <time>2018-09-25T18:15:24.819Z</time>
      </trkpt>
      <trkpt lat="43.52777" lon="3.45805">
        <ele>27.7</ele>
        <time>2018-09-25T18:15:25.819Z</time>
      </trkpt>
      <trkpt lat="43.52773" lon="3.45805">
        <ele>27.7</ele>
        <time>2018-09-25T18:15:26.819Z</time>
      </trkpt>
      <trkpt lat="43.52769" lon="3.45805">
        <ele>27.6</ele>
        <time>2018-09-25T18:15:27.819Z</time>
      </trkpt>
      <trkpt lat="43.52765" lon="3.45805">
        <ele>27.5</ele>
        <time>2018-09-25T18:15:28.819Z</time>
      </trkpt>
      <trkpt lat="43.5276" lon="3.45805">
        <ele>27.4</ele>
        <time>2018-09-25T18:15:29.819Z</time>
      </trkpt>
      <trkpt lat="43.52755" lon="3.45806">
        <ele>27.3</ele>
        <time>2018-09-25T18:15:30.819Z</time>
      </trkpt>
      <trkpt lat="43.52751" lon="3.45807">
        <ele>27.2</ele>
        <time>2018-09-25T18:15:31.819Z</time>
      </trkpt>
      <trkpt lat="43.52747" lon="3.45808">
        <ele>27.2</ele>
        <time>2018-09-25T18:15:32.819Z</time>
      </trkpt>
      <trkpt lat="43.52743" lon="3.45809">
        <ele>27.2</ele>
        <time>2018-09-25T18:15:33.819Z</time>
      </trkpt>
      <trkpt lat="43.52739" lon="3.4581">
        <ele>27.1</ele>
        <time>2018-09-25T18:15:34.819Z</time>
      </trkpt>
      <trkpt lat="43.52735" lon="3.45811">
        <ele>27.1</ele>
        <time>2018-09-25T18:15:35.819Z</time>
      </trkpt>
      <trkpt lat="43.5273" lon="3.45813">
        <ele>27.1</ele>
        <time>2018-09-25T18:15:36.819Z</time>
      </trkpt>
      <trkpt lat="43.52726" lon="3.45814">
        <ele>27.1</ele>
        <time>2018-09-25T18:15:37.819Z</time>
      </trkpt>
      <trkpt lat="43.52722" lon="3.45816">
        <ele>27</ele>
        <time>2018-09-25T18:15:38.819Z</time>
      </trkpt>
      <trkpt lat="43.52717" lon="3.45817">
        <ele>27</ele>
        <time>2018-09-25T18:15:39.819Z</time>
      </trkpt>
      <trkpt lat="43.52713" lon="3.45819">
        <ele>27</ele>
        <time>2018-09-25T18:15:40.819Z</time>
      </trkpt>
      <trkpt lat="43.52709" lon="3.4582">
        <ele>27</ele>
        <time>2018-09-25T18:15:41.819Z</time>
      </trkpt>
      <trkpt lat="43.52705" lon="3.45821">
        <ele>27</ele>
        <time>2018-09-25T18:15:42.819Z</time>
      </trkpt>
      <trkpt lat="43.52701" lon="3.45823">
        <ele>27</ele>
        <time>2018-09-25T18:15:43.819Z</time>
      </trkpt>
      <trkpt lat="43.52697" lon="3.45824">
        <ele>27</ele>
        <time>2018-09-25T18:15:44.819Z</time>
      </trkpt>
      <trkpt lat="43.52693" lon="3.45825">
        <ele>27</ele>
        <time>2018-09-25T18:15:45.819Z</time>
      </trkpt>
      <trkpt lat="43.52689" lon="3.45826">
        <ele>27</ele>
        <time>2018-09-25T18:15:46.819Z</time>
      </trkpt>
      <trkpt lat="43.52685" lon="3.45828">
        <ele>26.9</ele>
        <time>2018-09-25T18:15:47.819Z</time>
      </trkpt>
      <trkpt lat="43.5268" lon="3.45829">
        <ele>26.9</ele>
        <time>2018-09-25T18:15:48.819Z</time>
      </trkpt>
      <trkpt lat="43.52677" lon="3.4583">
        <ele>26.9</ele>
        <time>2018-09-25T18:15:49.819Z</time>
      </trkpt>
      <trkpt lat="43.52673" lon="3.45831">
        <ele>26.9</ele>
        <time>2018-09-25T18:15:50.819Z</time>
      </trkpt>
      <trkpt lat="43.52669" lon="3.45832">
        <ele>26.9</ele>
        <time>2018-09-25T18:15:51.819Z</time>
      </trkpt>
      <trkpt lat="43.52665" lon="3.45834">
        <ele>26.9</ele>
        <time>2018-09-25T18:15:52.819Z</time>
      </trkpt>
      <trkpt lat="43.52661" lon="3.45834">
        <ele>26.9</ele>
        <time>2018-09-25T18:15:53.819Z</time>
      </trkpt>
      <trkpt lat="43.52658" lon="3.45835">
        <ele>26.9</ele>
        <time>2018-09-25T18:15:54.819Z</time>
      </trkpt>
      <trkpt lat="43.52654" lon="3.45836">
        <ele>26.9</ele>
        <time>2018-09-25T18:15:55.819Z</time>
      </trkpt>
      <trkpt lat="43.5265" lon="3.45838">
        <ele>26.8</ele>
        <time>2018-09-25T18:15:56.819Z</time>
      </trkpt>
      <trkpt lat="43.52646" lon="3.45839">
        <ele>26.8</ele>
        <time>2018-09-25T18:15:57.819Z</time>
      </trkpt>
      <trkpt lat="43.52642" lon="3.4584">
        <ele>26.8</ele>
        <time>2018-09-25T18:15:58.819Z</time>
      </trkpt>
      <trkpt lat="43.52637" lon="3.45839">
        <ele>26.8</ele>
        <time>2018-09-25T18:15:59.819Z</time>
      </trkpt>
      <trkpt lat="43.52633" lon="3.45839">
        <ele>26.8</ele>
        <time>2018-09-25T18:16:00.819Z</time>
      </trkpt>
      <trkpt lat="43.52629" lon="3.45839">
        <ele>26.8</ele>
        <time>2018-09-25T18:16:01.819Z</time>
      </trkpt>
      <trkpt lat="43.52625" lon="3.45838">
        <ele>26.8</ele>
        <time>2018-09-25T18:16:02.819Z</time>
      </trkpt>
      <trkpt lat="43.52621" lon="3.45837">
        <ele>26.8</ele>
        <time>2018-09-25T18:16:03.819Z</time>
      </trkpt>
      <trkpt lat="43.52617" lon="3.45837">
        <ele>26.8</ele>
        <time>2018-09-25T18:16:04.819Z</time>
      </trkpt>
      <trkpt lat="43.52613" lon="3.45836">
        <ele>26.8</ele>
        <time>2018-09-25T18:16:05.819Z</time>
      </trkpt>
      <trkpt lat="43.52608" lon="3.45836">
        <ele>26.8</ele>
        <time>2018-09-25T18:16:06.819Z</time>
      </trkpt>
      <trkpt lat="43.52605" lon="3.45834">
        <ele>26.8</ele>
        <time>2018-09-25T18:16:07.819Z</time>
      </trkpt>
      <trkpt lat="43.52601" lon="3.45832">
        <ele>26.8</ele>
        <time>2018-09-25T18:16:08.819Z</time>
      </trkpt>
      <trkpt lat="43.52597" lon="3.4583">
        <ele>26.8</ele>
        <time>2018-09-25T18:16:09.819Z</time>
      </trkpt>
      <trkpt lat="43.52593" lon="3.45828">
        <ele>26.8</ele>
        <time>2018-09-25T18:16:10.819Z</time>
      </trkpt>
      <trkpt lat="43.5259" lon="3.45826">
        <ele>26.8</ele>
        <time>2018-09-25T18:16:11.819Z</time>
      </trkpt>
      <trkpt lat="43.52586" lon="3.45824">
        <ele>26.8</ele>
        <time>2018-09-25T18:16:12.819Z</time>
      </trkpt>
      <trkpt lat="43.52582" lon="3.45822">
        <ele>26.9</ele>
        <time>2018-09-25T18:16:13.819Z</time>
      </trkpt>
      <trkpt lat="43.52578" lon="3.4582">
        <ele>26.9</ele>
        <time>2018-09-25T18:16:14.819Z</time>
      </trkpt>
      <trkpt lat="43.52574" lon="3.45818">
        <ele>26.9</ele>
        <time>2018-09-25T18:16:15.819Z</time>
      </trkpt>
      <trkpt lat="43.5257" lon="3.45816">
        <ele>26.9</ele>
        <time>2018-09-25T18:16:16.819Z</time>
      </trkpt>
      <trkpt lat="43.52566" lon="3.45814">
        <ele>26.9</ele>
        <time>2018-09-25T18:16:17.819Z</time>
      </trkpt>
      <trkpt lat="43.52562" lon="3.45812">
        <ele>27</ele>
        <time>2018-09-25T18:16:18.819Z</time>
      </trkpt>
      <trkpt lat="43.52558" lon="3.4581">
        <ele>27</ele>
        <time>2018-09-25T18:16:19.819Z</time>
      </trkpt>
      <trkpt lat="43.52555" lon="3.45808">
        <ele>27</ele>
        <time>2018-09-25T18:16:20.819Z</time>
      </trkpt>
      <trkpt lat="43.52551" lon="3.45806">
        <ele>27</ele>
        <time>2018-09-25T18:16:21.819Z</time>
      </trkpt>
      <trkpt lat="43.52547" lon="3.45804">
        <ele>27.1</ele>
        <time>2018-09-25T18:16:22.819Z</time>
      </trkpt>
      <trkpt lat="43.52543" lon="3.45802">
        <ele>27.1</ele>
        <time>2018-09-25T18:16:23.819Z</time>
      </trkpt>
      <trkpt lat="43.52539" lon="3.458">
        <ele>27.1</ele>
        <time>2018-09-25T18:16:24.819Z</time>
      </trkpt>
      <trkpt lat="43.52536" lon="3.45799">
        <ele>27.2</ele>
        <time>2018-09-25T18:16:25.819Z</time>
      </trkpt>
      <trkpt lat="43.52532" lon="3.45796">
        <ele>27.2</ele>
        <time>2018-09-25T18:16:26.819Z</time>
      </trkpt>
      <trkpt lat="43.52529" lon="3.45794">
        <ele>27.2</ele>
        <time>2018-09-25T18:16:27.819Z</time>
      </trkpt>
      <trkpt lat="43.52526" lon="3.45792">
        <ele>27.3</ele>
        <time>2018-09-25T18:16:28.819Z</time>
      </trkpt>
      <trkpt lat="43.52522" lon="3.4579">
        <ele>27.3</ele>
        <time>2018-09-25T18:16:29.819Z</time>
      </trkpt>
      <trkpt lat="43.52518" lon="3.45789">
        <ele>27.3</ele>
        <time>2018-09-25T18:16:30.819Z</time>
      </trkpt>
      <trkpt lat="43.52515" lon="3.45787">
        <ele>27.4</ele>
        <time>2018-09-25T18:16:31.819Z</time>
      </trkpt>
      <trkpt lat="43.52511" lon="3.45785">
        <ele>27.4</ele>
        <time>2018-09-25T18:16:32.819Z</time>
      </trkpt>
      <trkpt lat="43.52507" lon="3.45783">
        <ele>27.4</ele>
        <time>2018-09-25T18:16:33.819Z</time>
      </trkpt>
      <trkpt lat="43.52503" lon="3.45781">
        <ele>27.5</ele>
        <time>2018-09-25T18:16:34.819Z</time>
      </trkpt>
      <trkpt lat="43.525" lon="3.45778">
        <ele>27.5</ele>
        <time>2018-09-25T18:16:35.819Z</time>
      </trkpt>
      <trkpt lat="43.52496" lon="3.45776">
        <ele>27.5</ele>
        <time>2018-09-25T18:16:36.819Z</time>
      </trkpt>
      <trkpt lat="43.52492" lon="3.45774">
        <ele>27.5</ele>
        <time>2018-09-25T18:16:37.819Z</time>
      </trkpt>
      <trkpt lat="43.52488" lon="3.45772">
        <ele>27.5</ele>
        <time>2018-09-25T18:16:38.819Z</time>
      </trkpt>
      <trkpt lat="43.52485" lon="3.4577">
        <ele>27.4</ele>
        <time>2018-09-25T18:16:39.819Z</time>
      </trkpt>
      <trkpt lat="43.5248" lon="3.45767">
        <ele>27.4</ele>
        <time>2018-09-25T18:16:40.819Z</time>
      </trkpt>
      <trkpt lat="43.52476" lon="3.45765">
        <ele>27.4</ele>
        <time>2018-09-25T18:16:41.819Z</time>
      </trkpt>
      <trkpt lat="43.52472" lon="3.45763">
        <ele>27.3</ele>
        <time>2018-09-25T18:16:42.819Z</time>
      </trkpt>
      <trkpt lat="43.52468" lon="3.45761">
        <ele>27.3</ele>
        <time>2018-09-25T18:16:43.819Z</time>
      </trkpt>
      <trkpt lat="43.52465" lon="3.45759">
        <ele>27.2</ele>
        <time>2018-09-25T18:16:44.819Z</time>
      </trkpt>
      <trkpt lat="43.5246" lon="3.45756">
        <ele>27.1</ele>
        <time>2018-09-25T18:16:45.819Z</time>
      </trkpt>
      <trkpt lat="43.52456" lon="3.45754">
        <ele>27.1</ele>
        <time>2018-09-25T18:16:46.819Z</time>
      </trkpt>
      <trkpt lat="43.52453" lon="3.45752">
        <ele>27</ele>
        <time>2018-09-25T18:16:47.819Z</time>
      </trkpt>
      <trkpt lat="43.52448" lon="3.4575">
        <ele>27</ele>
        <time>2018-09-25T18:16:48.819Z</time>
      </trkpt>
      <trkpt lat="43.52445" lon="3.45748">
        <ele>26.9</ele>
        <time>2018-09-25T18:16:49.819Z</time>
      </trkpt>
      <trkpt lat="43.5244" lon="3.45746">
        <ele>26.9</ele>
        <time>2018-09-25T18:16:50.819Z</time>
      </trkpt>
      <trkpt lat="43.52437" lon="3.45744">
        <ele>26.9</ele>
        <time>2018-09-25T18:16:51.819Z</time>
      </trkpt>
      <trkpt lat="43.52433" lon="3.45741">
        <ele>26.8</ele>
        <time>2018-09-25T18:16:52.819Z</time>
      </trkpt>
      <trkpt lat="43.52429" lon="3.45739">
        <ele>26.8</ele>
        <time>2018-09-25T18:16:53.819Z</time>
      </trkpt>
      <trkpt lat="43.52425" lon="3.45737">
        <ele>26.8</ele>
        <time>2018-09-25T18:16:54.819Z</time>
      </trkpt>
      <trkpt lat="43.52422" lon="3.45734">
        <ele>26.8</ele>
        <time>2018-09-25T18:16:55.819Z</time>
      </trkpt>
      <trkpt lat="43.52418" lon="3.45731">
        <ele>26.8</ele>
        <time>2018-09-25T18:16:56.819Z</time>
      </trkpt>
      <trkpt lat="43.52414" lon="3.45729">
        <ele>26.8</ele>
        <time>2018-09-25T18:16:57.819Z</time>
      </trkpt>
      <trkpt lat="43.5241" lon="3.45727">
        <ele>26.8</ele>
        <time>2018-09-25T18:16:58.819Z</time>
      </trkpt>
      <trkpt lat="43.52407" lon="3.45725">
        <ele>26.8</ele>
        <time>2018-09-25T18:16:59.819Z</time>
      </trkpt>
      <trkpt lat="43.52403" lon="3.45722">
        <ele>26.8</ele>
        <time>2018-09-25T18:17:00.819Z</time>
      </trkpt>
      <trkpt lat="43.52399" lon="3.4572">
        <ele>26.9</ele>
        <time>2018-09-25T18:17:01.819Z</time>
      </trkpt>
      <trkpt lat="43.52395" lon="3.45717">
        <ele>26.9</ele>
        <time>2018-09-25T18:17:02.819Z</time>
      </trkpt>
      <trkpt lat="43.52391" lon="3.45715">
        <ele>26.9</ele>
        <time>2018-09-25T18:17:03.819Z</time>
      </trkpt>
      <trkpt lat="43.52387" lon="3.45713">
        <ele>27</ele>
        <time>2018-09-25T18:17:04.819Z</time>
      </trkpt>
      <trkpt lat="43.52383" lon="3.4571">
        <ele>27</ele>
        <time>2018-09-25T18:17:05.819Z</time>
      </trkpt>
      <trkpt lat="43.52379" lon="3.45708">
        <ele>27</ele>
        <time>2018-09-25T18:17:06.819Z</time>
      </trkpt>
      <trkpt lat="43.52375" lon="3.45706">
        <ele>27</ele>
        <time>2018-09-25T18:17:07.819Z</time>
      </trkpt>
      <trkpt lat="43.52371" lon="3.45703">
        <ele>27</ele>
        <time>2018-09-25T18:17:08.819Z</time>
      </trkpt>
      <trkpt lat="43.52367" lon="3.45701">
        <ele>27</ele>
        <time>2018-09-25T18:17:09.819Z</time>
      </trkpt>
      <trkpt lat="43.52363" lon="3.45699">
        <ele>27</ele>
        <time>2018-09-25T18:17:10.819Z</time>
      </trkpt>
      <trkpt lat="43.52359" lon="3.45697">
        <ele>27</ele>
        <time>2018-09-25T18:17:11.819Z</time>
      </trkpt>
      <trkpt lat="43.52355" lon="3.45695">
        <ele>27</ele>
        <time>2018-09-25T18:17:12.819Z</time>
      </trkpt>
      <trkpt lat="43.52351" lon="3.45693">
        <ele>27</ele>
        <time>2018-09-25T18:17:13.819Z</time>
      </trkpt>
      <trkpt lat="43.52348" lon="3.45691">
        <ele>26.9</ele>
        <time>2018-09-25T18:17:14.819Z</time>
      </trkpt>
      <trkpt lat="43.52344" lon="3.4569">
        <ele>26.9</ele>
        <time>2018-09-25T18:17:15.819Z</time>
      </trkpt>
      <trkpt lat="43.5234" lon="3.45688">
        <ele>26.9</ele>
        <time>2018-09-25T18:17:16.819Z</time>
      </trkpt>
      <trkpt lat="43.52336" lon="3.45688">
        <ele>26.8</ele>
        <time>2018-09-25T18:17:17.819Z</time>
      </trkpt>
      <trkpt lat="43.52332" lon="3.45688">
        <ele>26.7</ele>
        <time>2018-09-25T18:17:18.819Z</time>
      </trkpt>
      <trkpt lat="43.52328" lon="3.45688">
        <ele>26.7</ele>
        <time>2018-09-25T18:17:19.819Z</time>
      </trkpt>
      <trkpt lat="43.52324" lon="3.45688">
        <ele>26.7</ele>
        <time>2018-09-25T18:17:20.819Z</time>
      </trkpt>
      <trkpt lat="43.5232" lon="3.45688">
        <ele>26.6</ele>
        <time>2018-09-25T18:17:21.819Z</time>
      </trkpt>
      <trkpt lat="43.52316" lon="3.45688">
        <ele>26.6</ele>
        <time>2018-09-25T18:17:22.819Z</time>
      </trkpt>
      <trkpt lat="43.52312" lon="3.45688">
        <ele>26.5</ele>
        <time>2018-09-25T18:17:23.819Z</time>
      </trkpt>
      <trkpt lat="43.52308" lon="3.45688">
        <ele>26.5</ele>
        <time>2018-09-25T18:17:24.819Z</time>
      </trkpt>
      <trkpt lat="43.52305" lon="3.45688">
        <ele>26.4</ele>
        <time>2018-09-25T18:17:25.819Z</time>
      </trkpt>
      <trkpt lat="43.52301" lon="3.45689">
        <ele>26.4</ele>
        <time>2018-09-25T18:17:26.819Z</time>
      </trkpt>
      <trkpt lat="43.52296" lon="3.45689">
        <ele>26.3</ele>
        <time>2018-09-25T18:17:27.819Z</time>
      </trkpt>
      <trkpt lat="43.52292" lon="3.4569">
        <ele>26.3</ele>
        <time>2018-09-25T18:17:28.819Z</time>
      </trkpt>
      <trkpt lat="43.52288" lon="3.45692">
        <ele>26.2</ele>
        <time>2018-09-25T18:17:29.819Z</time>
      </trkpt>
      <trkpt lat="43.52284" lon="3.45693">
        <ele>26.1</ele>
        <time>2018-09-25T18:17:30.819Z</time>
      </trkpt>
      <trkpt lat="43.5228" lon="3.45694">
        <ele>26</ele>
        <time>2018-09-25T18:17:31.819Z</time>
      </trkpt>
      <trkpt lat="43.52276" lon="3.45695">
        <ele>26</ele>
        <time>2018-09-25T18:17:32.819Z</time>
      </trkpt>
      <trkpt lat="43.52272" lon="3.45696">
        <ele>25.9</ele>
        <time>2018-09-25T18:17:33.819Z</time>
      </trkpt>
      <trkpt lat="43.52268" lon="3.45697">
        <ele>25.9</ele>
        <time>2018-09-25T18:17:34.819Z</time>
      </trkpt>
      <trkpt lat="43.52264" lon="3.45697">
        <ele>25.9</ele>
        <time>2018-09-25T18:17:35.819Z</time>
      </trkpt>
      <trkpt lat="43.52259" lon="3.45698">
        <ele>25.8</ele>
        <time>2018-09-25T18:17:36.819Z</time>
      </trkpt>
      <trkpt lat="43.52255" lon="3.45699">
        <ele>25.8</ele>
        <time>2018-09-25T18:17:37.819Z</time>
      </trkpt>
      <trkpt lat="43.52251" lon="3.457">
        <ele>25.7</ele>
        <time>2018-09-25T18:17:38.819Z</time>
      </trkpt>
      <trkpt lat="43.52247" lon="3.457">
        <ele>25.7</ele>
        <time>2018-09-25T18:17:39.819Z</time>
      </trkpt>
      <trkpt lat="43.52243" lon="3.457">
        <ele>25.6</ele>
        <time>2018-09-25T18:17:40.819Z</time>
      </trkpt>
      <trkpt lat="43.52239" lon="3.45701">
        <ele>25.6</ele>
        <time>2018-09-25T18:17:41.819Z</time>
      </trkpt>
      <trkpt lat="43.52235" lon="3.45702">
        <ele>25.6</ele>
        <time>2018-09-25T18:17:42.819Z</time>
      </trkpt>
      <trkpt lat="43.52231" lon="3.45703">
        <ele>25.6</ele>
        <time>2018-09-25T18:17:43.819Z</time>
      </trkpt>
      <trkpt lat="43.52228" lon="3.45704">
        <ele>25.6</ele>
        <time>2018-09-25T18:17:44.819Z</time>
      </trkpt>
      <trkpt lat="43.52224" lon="3.45704">
        <ele>25.6</ele>
        <time>2018-09-25T18:17:45.819Z</time>
      </trkpt>
      <trkpt lat="43.5222" lon="3.45705">
        <ele>25.6</ele>
        <time>2018-09-25T18:17:46.819Z</time>
      </trkpt>
      <trkpt lat="43.52215" lon="3.45705">
        <ele>25.6</ele>
        <time>2018-09-25T18:17:47.819Z</time>
      </trkpt>
      <trkpt lat="43.52211" lon="3.45706">
        <ele>25.6</ele>
        <time>2018-09-25T18:17:48.819Z</time>
      </trkpt>
      <trkpt lat="43.52206" lon="3.45707">
        <ele>25.6</ele>
        <time>2018-09-25T18:17:49.819Z</time>
      </trkpt>
      <trkpt lat="43.52201" lon="3.45707">
        <ele>25.6</ele>
        <time>2018-09-25T18:17:50.819Z</time>
      </trkpt>
      <trkpt lat="43.52196" lon="3.45708">
        <ele>25.7</ele>
        <time>2018-09-25T18:17:51.819Z</time>
      </trkpt>
      <trkpt lat="43.52192" lon="3.45709">
        <ele>25.7</ele>
        <time>2018-09-25T18:17:52.819Z</time>
      </trkpt>
      <trkpt lat="43.52188" lon="3.4571">
        <ele>25.7</ele>
        <time>2018-09-25T18:17:53.819Z</time>
      </trkpt>
      <trkpt lat="43.52184" lon="3.4571">
        <ele>25.8</ele>
        <time>2018-09-25T18:17:54.819Z</time>
      </trkpt>
      <trkpt lat="43.5218" lon="3.45711">
        <ele>25.8</ele>
        <time>2018-09-25T18:17:55.819Z</time>
      </trkpt>
      <trkpt lat="43.52175" lon="3.45712">
        <ele>25.8</ele>
        <time>2018-09-25T18:17:56.819Z</time>
      </trkpt>
      <trkpt lat="43.52171" lon="3.45713">
        <ele>25.8</ele>
        <time>2018-09-25T18:17:57.819Z</time>
      </trkpt>
      <trkpt lat="43.52167" lon="3.45714">
        <ele>25.9</ele>
        <time>2018-09-25T18:17:58.819Z</time>
      </trkpt>
      <trkpt lat="43.52163" lon="3.45715">
        <ele>25.9</ele>
        <time>2018-09-25T18:17:59.819Z</time>
      </trkpt>
      <trkpt lat="43.52159" lon="3.45716">
        <ele>25.9</ele>
        <time>2018-09-25T18:18:00.819Z</time>
      </trkpt>
      <trkpt lat="43.52155" lon="3.45717">
        <ele>25.9</ele>
        <time>2018-09-25T18:18:01.819Z</time>
      </trkpt>
      <trkpt lat="43.52151" lon="3.45718">
        <ele>25.9</ele>
        <time>2018-09-25T18:18:02.819Z</time>
      </trkpt>
      <trkpt lat="43.52147" lon="3.45719">
        <ele>25.9</ele>
        <time>2018-09-25T18:18:03.819Z</time>
      </trkpt>
      <trkpt lat="43.52143" lon="3.4572">
        <ele>25.8</ele>
        <time>2018-09-25T18:18:04.819Z</time>
      </trkpt>
      <trkpt lat="43.52139" lon="3.45721">
        <ele>25.8</ele>
        <time>2018-09-25T18:18:05.819Z</time>
      </trkpt>
      <trkpt lat="43.52135" lon="3.45721">
        <ele>25.8</ele>
        <time>2018-09-25T18:18:06.819Z</time>
      </trkpt>
      <trkpt lat="43.52132" lon="3.45722">
        <ele>25.8</ele>
        <time>2018-09-25T18:18:07.819Z</time>
      </trkpt>
      <trkpt lat="43.52128" lon="3.45723">
        <ele>25.8</ele>
        <time>2018-09-25T18:18:08.819Z</time>
      </trkpt>
      <trkpt lat="43.52124" lon="3.45724">
        <ele>25.7</ele>
        <time>2018-09-25T18:18:09.819Z</time>
      </trkpt>
      <trkpt lat="43.5212" lon="3.45725">
        <ele>25.7</ele>
        <time>2018-09-25T18:18:10.819Z</time>
      </trkpt>
      <trkpt lat="43.52116" lon="3.45725">
        <ele>25.6</ele>
        <time>2018-09-25T18:18:11.819Z</time>
      </trkpt>
      <trkpt lat="43.52112" lon="3.45726">
        <ele>25.6</ele>
        <time>2018-09-25T18:18:12.819Z</time>
      </trkpt>
      <trkpt lat="43.52109" lon="3.45726">
        <ele>25.6</ele>
        <time>2018-09-25T18:18:13.819Z</time>
      </trkpt>
      <trkpt lat="43.52105" lon="3.45727">
        <ele>25.5</ele>
        <time>2018-09-25T18:18:14.819Z</time>
      </trkpt>
      <trkpt lat="43.52101" lon="3.45728">
        <ele>25.5</ele>
        <time>2018-09-25T18:18:15.819Z</time>
      </trkpt>
      <trkpt lat="43.52097" lon="3.45728">
        <ele>25.4</ele>
        <time>2018-09-25T18:18:16.819Z</time>
      </trkpt>
      <trkpt lat="43.52093" lon="3.45729">
        <ele>25.4</ele>
        <time>2018-09-25T18:18:17.819Z</time>
      </trkpt>
      <trkpt lat="43.5209" lon="3.4573">
        <ele>25.3</ele>
        <time>2018-09-25T18:18:18.819Z</time>
      </trkpt>
      <trkpt lat="43.52086" lon="3.4573">
        <ele>25.3</ele>
        <time>2018-09-25T18:18:19.819Z</time>
      </trkpt>
      <trkpt lat="43.52083" lon="3.45731">
        <ele>25.3</ele>
        <time>2018-09-25T18:18:20.819Z</time>
      </trkpt>
      <trkpt lat="43.52079" lon="3.45732">
        <ele>25.2</ele>
        <time>2018-09-25T18:18:21.819Z</time>
      </trkpt>
      <trkpt lat="43.52075" lon="3.45733">
        <ele>25.2</ele>
        <time>2018-09-25T18:18:22.819Z</time>
      </trkpt>
      <trkpt lat="43.52072" lon="3.45734">
        <ele>25.1</ele>
        <time>2018-09-25T18:18:23.819Z</time>
      </trkpt>
      <trkpt lat="43.52068" lon="3.45735">
        <ele>25.1</ele>
        <time>2018-09-25T18:18:24.819Z</time>
      </trkpt>
      <trkpt lat="43.52065" lon="3.45737">
        <ele>25.1</ele>
        <time>2018-09-25T18:18:25.819Z</time>
      </trkpt>
      <trkpt lat="43.52063" lon="3.45739">
        <ele>25.1</ele>
        <time>2018-09-25T18:18:26.819Z</time>
      </trkpt>
      <trkpt lat="43.5206" lon="3.4574">
        <ele>25</ele>
        <time>2018-09-25T18:18:27.819Z</time>
      </trkpt>
      <trkpt lat="43.52057" lon="3.45742">
        <ele>25</ele>
        <time>2018-09-25T18:18:28.819Z</time>
      </trkpt>
      <trkpt lat="43.52054" lon="3.45747">
        <ele>25</ele>
        <time>2018-09-25T18:18:30.819Z</time>
      </trkpt>
      <trkpt lat="43.52051" lon="3.45751">
        <ele>25</ele>
        <time>2018-09-25T18:18:32.819Z</time>
      </trkpt>
      <trkpt lat="43.52048" lon="3.45752">
        <ele>25</ele>
        <time>2018-09-25T18:18:33.819Z</time>
      </trkpt>
      <trkpt lat="43.52044" lon="3.45753">
        <ele>25</ele>
        <time>2018-09-25T18:18:35.819Z</time>
      </trkpt>
      <trkpt lat="43.5204" lon="3.45754">
        <ele>25</ele>
        <time>2018-09-25T18:18:37.819Z</time>
      </trkpt>
      <trkpt lat="43.52034" lon="3.45756">
        <ele>25</ele>
        <time>2018-09-25T18:18:39.819Z</time>
      </trkpt>
      <trkpt lat="43.52031" lon="3.45756">
        <ele>25</ele>
        <time>2018-09-25T18:18:40.819Z</time>
      </trkpt>
      <trkpt lat="43.52027" lon="3.45757">
        <ele>24.9</ele>
        <time>2018-09-25T18:18:41.819Z</time>
      </trkpt>
      <trkpt lat="43.52023" lon="3.45758">
        <ele>24.9</ele>
        <time>2018-09-25T18:18:42.819Z</time>
      </trkpt>
      <trkpt lat="43.52019" lon="3.45759">
        <ele>24.8</ele>
        <time>2018-09-25T18:18:43.819Z</time>
      </trkpt>
      <trkpt lat="43.52015" lon="3.45761">
        <ele>24.8</ele>
        <time>2018-09-25T18:18:44.819Z</time>
      </trkpt>
      <trkpt lat="43.52012" lon="3.45762">
        <ele>24.8</ele>
        <time>2018-09-25T18:18:45.819Z</time>
      </trkpt>
      <trkpt lat="43.52009" lon="3.45764">
        <ele>24.8</ele>
        <time>2018-09-25T18:18:46.819Z</time>
      </trkpt>
      <trkpt lat="43.52005" lon="3.45765">
        <ele>24.8</ele>
        <time>2018-09-25T18:18:47.819Z</time>
      </trkpt>
      <trkpt lat="43.52002" lon="3.45767">
        <ele>24.8</ele>
        <time>2018-09-25T18:18:48.819Z</time>
      </trkpt>
      <trkpt lat="43.51999" lon="3.45768">
        <ele>24.8</ele>
        <time>2018-09-25T18:18:49.819Z</time>
      </trkpt>
      <trkpt lat="43.51996" lon="3.4577">
        <ele>24.8</ele>
        <time>2018-09-25T18:18:50.819Z</time>
      </trkpt>
      <trkpt lat="43.51992" lon="3.45771">
        <ele>24.8</ele>
        <time>2018-09-25T18:18:51.819Z</time>
      </trkpt>
      <trkpt lat="43.51989" lon="3.45773">
        <ele>24.8</ele>
        <time>2018-09-25T18:18:52.819Z</time>
      </trkpt>
      <trkpt lat="43.51985" lon="3.45774">
        <ele>24.9</ele>
        <time>2018-09-25T18:18:53.819Z</time>
      </trkpt>
      <trkpt lat="43.51981" lon="3.45776">
        <ele>24.9</ele>
        <time>2018-09-25T18:18:54.819Z</time>
      </trkpt>
      <trkpt lat="43.51978" lon="3.45777">
        <ele>25</ele>
        <time>2018-09-25T18:18:55.819Z</time>
      </trkpt>
      <trkpt lat="43.51974" lon="3.45779">
        <ele>25</ele>
        <time>2018-09-25T18:18:56.819Z</time>
      </trkpt>
      <trkpt lat="43.51971" lon="3.4578">
        <ele>25.1</ele>
        <time>2018-09-25T18:18:57.819Z</time>
      </trkpt>
      <trkpt lat="43.51968" lon="3.45781">
        <ele>25.1</ele>
        <time>2018-09-25T18:18:58.819Z</time>
      </trkpt>
      <trkpt lat="43.51964" lon="3.45782">
        <ele>25.2</ele>
        <time>2018-09-25T18:18:59.819Z</time>
      </trkpt>
      <trkpt lat="43.51961" lon="3.45783">
        <ele>25.3</ele>
        <time>2018-09-25T18:19:00.819Z</time>
      </trkpt>
      <trkpt lat="43.51957" lon="3.45784">
        <ele>25.4</ele>
        <time>2018-09-25T18:19:01.819Z</time>
      </trkpt>
      <trkpt lat="43.51952" lon="3.45785">
        <ele>25.5</ele>
        <time>2018-09-25T18:19:02.819Z</time>
      </trkpt>
      <trkpt lat="43.51948" lon="3.45786">
        <ele>25.6</ele>
        <time>2018-09-25T18:19:03.819Z</time>
      </trkpt>
      <trkpt lat="43.51944" lon="3.45787">
        <ele>25.8</ele>
        <time>2018-09-25T18:19:04.819Z</time>
      </trkpt>
      <trkpt lat="43.51941" lon="3.45788">
        <ele>25.9</ele>
        <time>2018-09-25T18:19:05.819Z</time>
      </trkpt>
      <trkpt lat="43.51937" lon="3.45789">
        <ele>26</ele>
        <time>2018-09-25T18:19:06.819Z</time>
      </trkpt>
      <trkpt lat="43.51933" lon="3.4579">
        <ele>26.1</ele>
        <time>2018-09-25T18:19:07.819Z</time>
      </trkpt>
      <trkpt lat="43.51929" lon="3.45791">
        <ele>26.2</ele>
        <time>2018-09-25T18:19:08.819Z</time>
      </trkpt>
      <trkpt lat="43.51926" lon="3.45792">
        <ele>26.3</ele>
        <time>2018-09-25T18:19:09.819Z</time>
      </trkpt>
      <trkpt lat="43.51922" lon="3.45792">
        <ele>26.4</ele>
        <time>2018-09-25T18:19:10.819Z</time>
      </trkpt>
      <trkpt lat="43.51919" lon="3.45794">
        <ele>26.4</ele>
        <time>2018-09-25T18:19:11.819Z</time>
      </trkpt>
      <trkpt lat="43.51915" lon="3.45795">
        <ele>26.5</ele>
        <time>2018-09-25T18:19:12.819Z</time>
      </trkpt>
      <trkpt lat="43.51911" lon="3.45796">
        <ele>26.6</ele>
        <time>2018-09-25T18:19:13.819Z</time>
      </trkpt>
      <trkpt lat="43.51908" lon="3.45797">
        <ele>26.7</ele>
        <time>2018-09-25T18:19:14.819Z</time>
      </trkpt>
      <trkpt lat="43.51904" lon="3.45798">
        <ele>26.8</ele>
        <time>2018-09-25T18:19:15.819Z</time>
      </trkpt>
      <trkpt lat="43.51901" lon="3.45798">
        <ele>26.8</ele>
        <time>2018-09-25T18:19:16.819Z</time>
      </trkpt>
      <trkpt lat="43.51898" lon="3.45799">
        <ele>26.9</ele>
        <time>2018-09-25T18:19:17.819Z</time>
      </trkpt>
      <trkpt lat="43.51894" lon="3.45799">
        <ele>26.9</ele>
        <time>2018-09-25T18:19:18.819Z</time>
      </trkpt>
      <trkpt lat="43.51891" lon="3.45798">
        <ele>27</ele>
        <time>2018-09-25T18:19:19.819Z</time>
      </trkpt>
      <trkpt lat="43.51887" lon="3.45797">
        <ele>27</ele>
        <time>2018-09-25T18:19:20.819Z</time>
      </trkpt>
      <trkpt lat="43.51884" lon="3.45796">
        <ele>27</ele>
        <time>2018-09-25T18:19:21.819Z</time>
      </trkpt>
      <trkpt lat="43.51882" lon="3.45795">
        <ele>27</ele>
        <time>2018-09-25T18:19:22.819Z</time>
      </trkpt>
      <trkpt lat="43.51877" lon="3.45791">
        <ele>27</ele>
        <time>2018-09-25T18:19:24.819Z</time>
      </trkpt>
      <trkpt lat="43.51874" lon="3.4579">
        <ele>27</ele>
        <time>2018-09-25T18:19:25.819Z</time>
      </trkpt>
      <trkpt lat="43.51871" lon="3.45788">
        <ele>27</ele>
        <time>2018-09-25T18:19:26.819Z</time>
      </trkpt>
      <trkpt lat="43.51867" lon="3.45786">
        <ele>27.1</ele>
        <time>2018-09-25T18:19:27.819Z</time>
      </trkpt>
      <trkpt lat="43.51864" lon="3.45784">
        <ele>27.1</ele>
        <time>2018-09-25T18:19:28.819Z</time>
      </trkpt>
      <trkpt lat="43.5186" lon="3.45783">
        <ele>27.1</ele>
        <time>2018-09-25T18:19:29.819Z</time>
      </trkpt>
      <trkpt lat="43.51856" lon="3.45781">
        <ele>27.2</ele>
        <time>2018-09-25T18:19:30.819Z</time>
      </trkpt>
      <trkpt lat="43.51853" lon="3.4578">
        <ele>27.2</ele>
        <time>2018-09-25T18:19:31.819Z</time>
      </trkpt>
      <trkpt lat="43.5185" lon="3.45778">
        <ele>27.3</ele>
        <time>2018-09-25T18:19:32.819Z</time>
      </trkpt>
      <trkpt lat="43.51846" lon="3.45777">
        <ele>27.3</ele>
        <time>2018-09-25T18:19:33.819Z</time>
      </trkpt>
      <trkpt lat="43.51843" lon="3.45776">
        <ele>27.3</ele>
        <time>2018-09-25T18:19:34.819Z</time>
      </trkpt>
      <trkpt lat="43.51839" lon="3.45774">
        <ele>27.4</ele>
        <time>2018-09-25T18:19:35.819Z</time>
      </trkpt>
      <trkpt lat="43.51835" lon="3.45773">
        <ele>27.4</ele>
        <time>2018-09-25T18:19:36.819Z</time>
      </trkpt>
      <trkpt lat="43.51832" lon="3.45771">
        <ele>27.5</ele>
        <time>2018-09-25T18:19:37.819Z</time>
      </trkpt>
      <trkpt lat="43.51829" lon="3.45771">
        <ele>27.5</ele>
        <time>2018-09-25T18:19:38.819Z</time>
      </trkpt>
      <trkpt lat="43.51824" lon="3.4577">
        <ele>27.5</ele>
        <time>2018-09-25T18:19:39.819Z</time>
      </trkpt>
      <trkpt lat="43.51821" lon="3.4577">
        <ele>27.5</ele>
        <time>2018-09-25T18:19:40.819Z</time>
      </trkpt>
      <trkpt lat="43.51817" lon="3.45771">
        <ele>27.5</ele>
        <time>2018-09-25T18:19:41.819Z</time>
      </trkpt>
      <trkpt lat="43.51813" lon="3.45771">
        <ele>27.5</ele>
        <time>2018-09-25T18:19:42.819Z</time>
      </trkpt>
      <trkpt lat="43.5181" lon="3.45771">
        <ele>27.5</ele>
        <time>2018-09-25T18:19:43.819Z</time>
      </trkpt>
      <trkpt lat="43.51807" lon="3.45772">
        <ele>27.5</ele>
        <time>2018-09-25T18:19:44.819Z</time>
      </trkpt>
      <trkpt lat="43.51804" lon="3.45773">
        <ele>27.5</ele>
        <time>2018-09-25T18:19:45.819Z</time>
      </trkpt>
      <trkpt lat="43.51801" lon="3.45774">
        <ele>27.4</ele>
        <time>2018-09-25T18:19:46.819Z</time>
      </trkpt>
      <trkpt lat="43.51798" lon="3.45775">
        <ele>27.4</ele>
        <time>2018-09-25T18:19:47.819Z</time>
      </trkpt>
      <trkpt lat="43.51794" lon="3.45776">
        <ele>27.3</ele>
        <time>2018-09-25T18:19:48.819Z</time>
      </trkpt>
      <trkpt lat="43.51791" lon="3.45777">
        <ele>27.3</ele>
        <time>2018-09-25T18:19:49.819Z</time>
      </trkpt>
      <trkpt lat="43.51787" lon="3.45777">
        <ele>27.3</ele>
        <time>2018-09-25T18:19:50.819Z</time>
      </trkpt>
      <trkpt lat="43.51784" lon="3.45778">
        <ele>27.2</ele>
        <time>2018-09-25T18:19:51.819Z</time>
      </trkpt>
      <trkpt lat="43.5178" lon="3.45779">
        <ele>27.2</ele>
        <time>2018-09-25T18:19:52.819Z</time>
      </trkpt>
      <trkpt lat="43.51777" lon="3.4578">
        <ele>27.1</ele>
        <time>2018-09-25T18:19:53.819Z</time>
      </trkpt>
      <trkpt lat="43.51773" lon="3.4578">
        <ele>27.1</ele>
        <time>2018-09-25T18:19:54.819Z</time>
      </trkpt>
      <trkpt lat="43.5177" lon="3.45781">
        <ele>27</ele>
        <time>2018-09-25T18:19:55.819Z</time>
      </trkpt>
      <trkpt lat="43.51767" lon="3.45781">
        <ele>27</ele>
        <time>2018-09-25T18:19:56.819Z</time>
      </trkpt>
      <trkpt lat="43.51763" lon="3.45781">
        <ele>26.9</ele>
        <time>2018-09-25T18:19:57.819Z</time>
      </trkpt>
      <trkpt lat="43.5176" lon="3.45781">
        <ele>26.9</ele>
        <time>2018-09-25T18:19:58.819Z</time>
      </trkpt>
      <trkpt lat="43.51757" lon="3.45781">
        <ele>26.9</ele>
        <time>2018-09-25T18:19:59.819Z</time>
      </trkpt>
      <trkpt lat="43.51751" lon="3.45781">
        <ele>26.9</ele>
        <time>2018-09-25T18:20:01.819Z</time>
      </trkpt>
      <trkpt lat="43.51747" lon="3.45782">
        <ele>26.9</ele>
        <time>2018-09-25T18:20:02.819Z</time>
      </trkpt>
      <trkpt lat="43.51743" lon="3.45782">
        <ele>26.9</ele>
        <time>2018-09-25T18:20:03.819Z</time>
      </trkpt>
      <trkpt lat="43.5174" lon="3.45782">
        <ele>26.9</ele>
        <time>2018-09-25T18:20:04.819Z</time>
      </trkpt>
      <trkpt lat="43.51737" lon="3.45781">
        <ele>26.9</ele>
        <time>2018-09-25T18:20:05.819Z</time>
      </trkpt>
      <trkpt lat="43.51734" lon="3.45781">
        <ele>26.9</ele>
        <time>2018-09-25T18:20:06.819Z</time>
      </trkpt>
      <trkpt lat="43.5173" lon="3.4578">
        <ele>27</ele>
        <time>2018-09-25T18:20:07.819Z</time>
      </trkpt>
      <trkpt lat="43.51727" lon="3.45779">
        <ele>27</ele>
        <time>2018-09-25T18:20:08.819Z</time>
      </trkpt>
      <trkpt lat="43.51723" lon="3.45778">
        <ele>27</ele>
        <time>2018-09-25T18:20:09.819Z</time>
      </trkpt>
      <trkpt lat="43.5172" lon="3.45778">
        <ele>27</ele>
        <time>2018-09-25T18:20:10.819Z</time>
      </trkpt>
      <trkpt lat="43.51716" lon="3.45778">
        <ele>27</ele>
        <time>2018-09-25T18:20:11.819Z</time>
      </trkpt>
      <trkpt lat="43.51713" lon="3.45778">
        <ele>27.1</ele>
        <time>2018-09-25T18:20:12.819Z</time>
      </trkpt>
      <trkpt lat="43.51709" lon="3.45778">
        <ele>27.1</ele>
        <time>2018-09-25T18:20:13.819Z</time>
      </trkpt>
      <trkpt lat="43.51705" lon="3.45778">
        <ele>27.2</ele>
        <time>2018-09-25T18:20:14.819Z</time>
      </trkpt>
      <trkpt lat="43.51702" lon="3.45778">
        <ele>27.2</ele>
        <time>2018-09-25T18:20:15.819Z</time>
      </trkpt>
      <trkpt lat="43.51698" lon="3.45777">
        <ele>27.3</ele>
        <time>2018-09-25T18:20:16.819Z</time>
      </trkpt>
      <trkpt lat="43.51695" lon="3.45777">
        <ele>27.3</ele>
        <time>2018-09-25T18:20:17.819Z</time>
      </trkpt>
      <trkpt lat="43.51691" lon="3.45776">
        <ele>27.4</ele>
        <time>2018-09-25T18:20:18.819Z</time>
      </trkpt>
      <trkpt lat="43.51687" lon="3.45775">
        <ele>27.5</ele>
        <time>2018-09-25T18:20:19.819Z</time>
      </trkpt>
      <trkpt lat="43.51684" lon="3.45774">
        <ele>27.6</ele>
        <time>2018-09-25T18:20:20.819Z</time>
      </trkpt>
      <trkpt lat="43.5168" lon="3.45773">
        <ele>27.6</ele>
        <time>2018-09-25T18:20:21.819Z</time>
      </trkpt>
      <trkpt lat="43.51677" lon="3.45772">
        <ele>27.7</ele>
        <time>2018-09-25T18:20:22.819Z</time>
      </trkpt>
      <trkpt lat="43.51674" lon="3.45771">
        <ele>27.7</ele>
        <time>2018-09-25T18:20:23.819Z</time>
      </trkpt>
      <trkpt lat="43.51671" lon="3.4577">
        <ele>27.7</ele>
        <time>2018-09-25T18:20:24.819Z</time>
      </trkpt>
      <trkpt lat="43.51668" lon="3.45768">
        <ele>27.8</ele>
        <time>2018-09-25T18:20:25.819Z</time>
      </trkpt>
      <trkpt lat="43.51664" lon="3.45766">
        <ele>27.8</ele>
        <time>2018-09-25T18:20:26.819Z</time>
      </trkpt>
      <trkpt lat="43.51661" lon="3.45765">
        <ele>27.8</ele>
        <time>2018-09-25T18:20:27.819Z</time>
      </trkpt>
      <trkpt lat="43.51659" lon="3.45763">
        <ele>27.8</ele>
        <time>2018-09-25T18:20:28.819Z</time>
      </trkpt>
      <trkpt lat="43.51655" lon="3.45761">
        <ele>27.8</ele>
        <time>2018-09-25T18:20:29.819Z</time>
      </trkpt>
      <trkpt lat="43.51652" lon="3.45759">
        <ele>27.8</ele>
        <time>2018-09-25T18:20:30.819Z</time>
      </trkpt>
      <trkpt lat="43.51649" lon="3.45757">
        <ele>27.8</ele>
        <time>2018-09-25T18:20:31.819Z</time>
      </trkpt>
      <trkpt lat="43.51645" lon="3.45755">
        <ele>27.7</ele>
        <time>2018-09-25T18:20:32.819Z</time>
      </trkpt>
      <trkpt lat="43.51641" lon="3.45753">
        <ele>27.7</ele>
        <time>2018-09-25T18:20:33.819Z</time>
      </trkpt>
      <trkpt lat="43.51638" lon="3.4575">
        <ele>27.6</ele>
        <time>2018-09-25T18:20:34.819Z</time>
      </trkpt>
      <trkpt lat="43.51634" lon="3.45747">
        <ele>27.5</ele>
        <time>2018-09-25T18:20:35.819Z</time>
      </trkpt>
      <trkpt lat="43.51631" lon="3.45744">
        <ele>27.5</ele>
        <time>2018-09-25T18:20:36.819Z</time>
      </trkpt>
      <trkpt lat="43.51628" lon="3.45742">
        <ele>27.4</ele>
        <time>2018-09-25T18:20:37.819Z</time>
      </trkpt>
      <trkpt lat="43.51625" lon="3.45739">
        <ele>27.3</ele>
        <time>2018-09-25T18:20:38.819Z</time>
      </trkpt>
      <trkpt lat="43.51622" lon="3.45737">
        <ele>27.1</ele>
        <time>2018-09-25T18:20:39.819Z</time>
      </trkpt>
      <trkpt lat="43.51619" lon="3.45734">
        <ele>27.1</ele>
        <time>2018-09-25T18:20:40.819Z</time>
      </trkpt>
      <trkpt lat="43.51616" lon="3.45731">
        <ele>27</ele>
        <time>2018-09-25T18:20:41.819Z</time>
      </trkpt>
      <trkpt lat="43.51613" lon="3.45729">
        <ele>26.9</ele>
        <time>2018-09-25T18:20:42.819Z</time>
      </trkpt>
      <trkpt lat="43.51611" lon="3.45726">
        <ele>26.9</ele>
        <time>2018-09-25T18:20:43.819Z</time>
      </trkpt>
      <trkpt lat="43.51608" lon="3.45723">
        <ele>26.8</ele>
        <time>2018-09-25T18:20:44.819Z</time>
      </trkpt>
      <trkpt lat="43.51606" lon="3.4572">
        <ele>26.7</ele>
        <time>2018-09-25T18:20:45.819Z</time>
      </trkpt>
      <trkpt lat="43.51603" lon="3.45717">
        <ele>26.6</ele>
        <time>2018-09-25T18:20:46.819Z</time>
      </trkpt>
      <trkpt lat="43.516" lon="3.45714">
        <ele>26.6</ele>
        <time>2018-09-25T18:20:47.819Z</time>
      </trkpt>
      <trkpt lat="43.51598" lon="3.45711">
        <ele>26.5</ele>
        <time>2018-09-25T18:20:48.819Z</time>
      </trkpt>
      <trkpt lat="43.51595" lon="3.45708">
        <ele>26.4</ele>
        <time>2018-09-25T18:20:49.819Z</time>
      </trkpt>
      <trkpt lat="43.51593" lon="3.45705">
        <ele>26.4</ele>
        <time>2018-09-25T18:20:50.819Z</time>
      </trkpt>
      <trkpt lat="43.5159" lon="3.45702">
        <ele>26.4</ele>
        <time>2018-09-25T18:20:51.819Z</time>
      </trkpt>
      <trkpt lat="43.51587" lon="3.45699">
        <ele>26.3</ele>
        <time>2018-09-25T18:20:52.819Z</time>
      </trkpt>
      <trkpt lat="43.51585" lon="3.45696">
        <ele>26.2</ele>
        <time>2018-09-25T18:20:53.819Z</time>
      </trkpt>
      <trkpt lat="43.51582" lon="3.45693">
        <ele>26.2</ele>
        <time>2018-09-25T18:20:54.819Z</time>
      </trkpt>
      <trkpt lat="43.51579" lon="3.4569">
        <ele>26.2</ele>
        <time>2018-09-25T18:20:55.819Z</time>
      </trkpt>
      <trkpt lat="43.51577" lon="3.45687">
        <ele>26.1</ele>
        <time>2018-09-25T18:20:56.819Z</time>
      </trkpt>
      <trkpt lat="43.51574" lon="3.45684">
        <ele>26.1</ele>
        <time>2018-09-25T18:20:57.819Z</time>
      </trkpt>
      <trkpt lat="43.51572" lon="3.4568">
        <ele>26.1</ele>
        <time>2018-09-25T18:20:58.819Z</time>
      </trkpt>
      <trkpt lat="43.51569" lon="3.45677">
        <ele>26</ele>
        <time>2018-09-25T18:20:59.819Z</time>
      </trkpt>
      <trkpt lat="43.51566" lon="3.45674">
        <ele>26</ele>
        <time>2018-09-25T18:21:00.819Z</time>
      </trkpt>
      <trkpt lat="43.51563" lon="3.45672">
        <ele>26</ele>
        <time>2018-09-25T18:21:01.819Z</time>
      </trkpt>
      <trkpt lat="43.5156" lon="3.45669">
        <ele>26</ele>
        <time>2018-09-25T18:21:02.819Z</time>
      </trkpt>
      <trkpt lat="43.51558" lon="3.45666">
        <ele>26</ele>
        <time>2018-09-25T18:21:03.819Z</time>
      </trkpt>
      <trkpt lat="43.51555" lon="3.45663">
        <ele>25.9</ele>
        <time>2018-09-25T18:21:04.819Z</time>
      </trkpt>
      <trkpt lat="43.51552" lon="3.45661">
        <ele>25.9</ele>
        <time>2018-09-25T18:21:05.819Z</time>
      </trkpt>
      <trkpt lat="43.51549" lon="3.45658">
        <ele>25.9</ele>
        <time>2018-09-25T18:21:06.819Z</time>
      </trkpt>
      <trkpt lat="43.51547" lon="3.45655">
        <ele>25.9</ele>
        <time>2018-09-25T18:21:07.819Z</time>
      </trkpt>
      <trkpt lat="43.51544" lon="3.45652">
        <ele>25.9</ele>
        <time>2018-09-25T18:21:08.819Z</time>
      </trkpt>
      <trkpt lat="43.51542" lon="3.45649">
        <ele>25.8</ele>
        <time>2018-09-25T18:21:09.819Z</time>
      </trkpt>
      <trkpt lat="43.51539" lon="3.45647">
        <ele>25.8</ele>
        <time>2018-09-25T18:21:10.819Z</time>
      </trkpt>
      <trkpt lat="43.51536" lon="3.45645">
        <ele>25.7</ele>
        <time>2018-09-25T18:21:11.819Z</time>
      </trkpt>
      <trkpt lat="43.51533" lon="3.45643">
        <ele>25.7</ele>
        <time>2018-09-25T18:21:12.819Z</time>
      </trkpt>
      <trkpt lat="43.5153" lon="3.45641">
        <ele>25.6</ele>
        <time>2018-09-25T18:21:13.819Z</time>
      </trkpt>
      <trkpt lat="43.51526" lon="3.45639">
        <ele>25.5</ele>
        <time>2018-09-25T18:21:14.819Z</time>
      </trkpt>
      <trkpt lat="43.51523" lon="3.45637">
        <ele>25.5</ele>
        <time>2018-09-25T18:21:15.819Z</time>
      </trkpt>
      <trkpt lat="43.5152" lon="3.45635">
        <ele>25.4</ele>
        <time>2018-09-25T18:21:16.819Z</time>
      </trkpt>
      <trkpt lat="43.51517" lon="3.45634">
        <ele>25.3</ele>
        <time>2018-09-25T18:21:17.819Z</time>
      </trkpt>
      <trkpt lat="43.51513" lon="3.45632">
        <ele>25.2</ele>
        <time>2018-09-25T18:21:18.819Z</time>
      </trkpt>
      <trkpt lat="43.5151" lon="3.45631">
        <ele>25.2</ele>
        <time>2018-09-25T18:21:19.819Z</time>
      </trkpt>
      <trkpt lat="43.51506" lon="3.45629">
        <ele>25.1</ele>
        <time>2018-09-25T18:21:20.819Z</time>
      </trkpt>
      <trkpt lat="43.51502" lon="3.45628">
        <ele>25.1</ele>
        <time>2018-09-25T18:21:21.819Z</time>
      </trkpt>
      <trkpt lat="43.51499" lon="3.45626">
        <ele>25</ele>
        <time>2018-09-25T18:21:22.819Z</time>
      </trkpt>
      <trkpt lat="43.51496" lon="3.45624">
        <ele>25</ele>
        <time>2018-09-25T18:21:23.819Z</time>
      </trkpt>
      <trkpt lat="43.51492" lon="3.45623">
        <ele>24.9</ele>
        <time>2018-09-25T18:21:24.819Z</time>
      </trkpt>
      <trkpt lat="43.51489" lon="3.45621">
        <ele>24.9</ele>
        <time>2018-09-25T18:21:25.819Z</time>
      </trkpt>
      <trkpt lat="43.51486" lon="3.45619">
        <ele>24.9</ele>
        <time>2018-09-25T18:21:26.819Z</time>
      </trkpt>
      <trkpt lat="43.51482" lon="3.45616">
        <ele>24.8</ele>
        <time>2018-09-25T18:21:27.819Z</time>
      </trkpt>
      <trkpt lat="43.51479" lon="3.45614">
        <ele>24.8</ele>
        <time>2018-09-25T18:21:28.819Z</time>
      </trkpt>
      <trkpt lat="43.51476" lon="3.45611">
        <ele>24.8</ele>
        <time>2018-09-25T18:21:29.819Z</time>
      </trkpt>
      <trkpt lat="43.51472" lon="3.45609">
        <ele>24.8</ele>
        <time>2018-09-25T18:21:30.819Z</time>
      </trkpt>
      <trkpt lat="43.51469" lon="3.45606">
        <ele>24.8</ele>
        <time>2018-09-25T18:21:31.819Z</time>
      </trkpt>
      <trkpt lat="43.51466" lon="3.45603">
        <ele>24.8</ele>
        <time>2018-09-25T18:21:32.819Z</time>
      </trkpt>
      <trkpt lat="43.51462" lon="3.45601">
        <ele>24.8</ele>
        <time>2018-09-25T18:21:33.819Z</time>
      </trkpt>
      <trkpt lat="43.51459" lon="3.45598">
        <ele>24.8</ele>
        <time>2018-09-25T18:21:34.819Z</time>
      </trkpt>
      <trkpt lat="43.51456" lon="3.45595">
        <ele>24.8</ele>
        <time>2018-09-25T18:21:35.819Z</time>
      </trkpt>
      <trkpt lat="43.51454" lon="3.45591">
        <ele>24.8</ele>
        <time>2018-09-25T18:21:36.819Z</time>
      </trkpt>
      <trkpt lat="43.51451" lon="3.45588">
        <ele>24.8</ele>
        <time>2018-09-25T18:21:37.819Z</time>
      </trkpt>
      <trkpt lat="43.51448" lon="3.45586">
        <ele>24.8</ele>
        <time>2018-09-25T18:21:38.819Z</time>
      </trkpt>
      <trkpt lat="43.51446" lon="3.45584">
        <ele>24.8</ele>
        <time>2018-09-25T18:21:39.819Z</time>
      </trkpt>
      <trkpt lat="43.51443" lon="3.45581">
        <ele>24.8</ele>
        <time>2018-09-25T18:21:40.819Z</time>
      </trkpt>
      <trkpt lat="43.5144" lon="3.45579">
        <ele>24.8</ele>
        <time>2018-09-25T18:21:41.819Z</time>
      </trkpt>
      <trkpt lat="43.51437" lon="3.45578">
        <ele>24.8</ele>
        <time>2018-09-25T18:21:42.819Z</time>
      </trkpt>
      <trkpt lat="43.51435" lon="3.45577">
        <ele>24.8</ele>
        <time>2018-09-25T18:21:43.819Z</time>
      </trkpt>
      <trkpt lat="43.51431" lon="3.45576">
        <ele>24.8</ele>
        <time>2018-09-25T18:21:44.819Z</time>
      </trkpt>
      <trkpt lat="43.51428" lon="3.45577">
        <ele>24.9</ele>
        <time>2018-09-25T18:21:45.819Z</time>
      </trkpt>
      <trkpt lat="43.51425" lon="3.45579">
        <ele>24.9</ele>
        <time>2018-09-25T18:21:46.819Z</time>
      </trkpt>
      <trkpt lat="43.51422" lon="3.4558">
        <ele>24.9</ele>
        <time>2018-09-25T18:21:47.819Z</time>
      </trkpt>
      <trkpt lat="43.51418" lon="3.45582">
        <ele>24.9</ele>
        <time>2018-09-25T18:21:48.819Z</time>
      </trkpt>
      <trkpt lat="43.51415" lon="3.45585">
        <ele>24.9</ele>
        <time>2018-09-25T18:21:49.819Z</time>
      </trkpt>
      <trkpt lat="43.51412" lon="3.45587">
        <ele>25</ele>
        <time>2018-09-25T18:21:50.819Z</time>
      </trkpt>
      <trkpt lat="43.51409" lon="3.45589">
        <ele>25</ele>
        <time>2018-09-25T18:21:51.819Z</time>
      </trkpt>
      <trkpt lat="43.51406" lon="3.4559">
        <ele>25</ele>
        <time>2018-09-25T18:21:52.819Z</time>
      </trkpt>
      <trkpt lat="43.51403" lon="3.45592">
        <ele>25</ele>
        <time>2018-09-25T18:21:53.819Z</time>
      </trkpt>
      <trkpt lat="43.51399" lon="3.45594">
        <ele>25</ele>
        <time>2018-09-25T18:21:54.819Z</time>
      </trkpt>
      <trkpt lat="43.51396" lon="3.45596">
        <ele>25</ele>
        <time>2018-09-25T18:21:55.819Z</time>
      </trkpt>
      <trkpt lat="43.51392" lon="3.45599">
        <ele>25</ele>
        <time>2018-09-25T18:21:56.819Z</time>
      </trkpt>
      <trkpt lat="43.51389" lon="3.45602">
        <ele>25</ele>
        <time>2018-09-25T18:21:57.819Z</time>
      </trkpt>
      <trkpt lat="43.51385" lon="3.45605">
        <ele>25</ele>
        <time>2018-09-25T18:21:58.819Z</time>
      </trkpt>
      <trkpt lat="43.51381" lon="3.45607">
        <ele>25</ele>
        <time>2018-09-25T18:21:59.819Z</time>
      </trkpt>
      <trkpt lat="43.51378" lon="3.4561">
        <ele>25</ele>
        <time>2018-09-25T18:22:00.819Z</time>
      </trkpt>
      <trkpt lat="43.51374" lon="3.45612">
        <ele>25</ele>
        <time>2018-09-25T18:22:01.819Z</time>
      </trkpt>
      <trkpt lat="43.51371" lon="3.45615">
        <ele>25</ele>
        <time>2018-09-25T18:22:02.819Z</time>
      </trkpt>
      <trkpt lat="43.51368" lon="3.45617">
        <ele>24.9</ele>
        <time>2018-09-25T18:22:03.819Z</time>
      </trkpt>
      <trkpt lat="43.51365" lon="3.45619">
        <ele>24.9</ele>
        <time>2018-09-25T18:22:04.819Z</time>
      </trkpt>
      <trkpt lat="43.51362" lon="3.45621">
        <ele>24.8</ele>
        <time>2018-09-25T18:22:05.819Z</time>
      </trkpt>
      <trkpt lat="43.51359" lon="3.45623">
        <ele>24.8</ele>
        <time>2018-09-25T18:22:06.819Z</time>
      </trkpt>
      <trkpt lat="43.51357" lon="3.45626">
        <ele>24.8</ele>
        <time>2018-09-25T18:22:07.819Z</time>
      </trkpt>
      <trkpt lat="43.51354" lon="3.45628">
        <ele>24.7</ele>
        <time>2018-09-25T18:22:08.819Z</time>
      </trkpt>
      <trkpt lat="43.51351" lon="3.4563">
        <ele>24.6</ele>
        <time>2018-09-25T18:22:09.819Z</time>
      </trkpt>
      <trkpt lat="43.51347" lon="3.45633">
        <ele>24.5</ele>
        <time>2018-09-25T18:22:10.819Z</time>
      </trkpt>
      <trkpt lat="43.51344" lon="3.45635">
        <ele>24.4</ele>
        <time>2018-09-25T18:22:11.819Z</time>
      </trkpt>
      <trkpt lat="43.51341" lon="3.45637">
        <ele>24.4</ele>
        <time>2018-09-25T18:22:12.819Z</time>
      </trkpt>
      <trkpt lat="43.51337" lon="3.45638">
        <ele>24.3</ele>
        <time>2018-09-25T18:22:13.819Z</time>
      </trkpt>
      <trkpt lat="43.51334" lon="3.4564">
        <ele>24.2</ele>
        <time>2018-09-25T18:22:14.819Z</time>
      </trkpt>
      <trkpt lat="43.5133" lon="3.45642">
        <ele>24.2</ele>
        <time>2018-09-25T18:22:15.819Z</time>
      </trkpt>
      <trkpt lat="43.51327" lon="3.45644">
        <ele>24.1</ele>
        <time>2018-09-25T18:22:16.819Z</time>
      </trkpt>
      <trkpt lat="43.51323" lon="3.45646">
        <ele>24</ele>
        <time>2018-09-25T18:22:17.819Z</time>
      </trkpt>
      <trkpt lat="43.5132" lon="3.45648">
        <ele>23.9</ele>
        <time>2018-09-25T18:22:18.819Z</time>
      </trkpt>
      <trkpt lat="43.51316" lon="3.45649">
        <ele>23.8</ele>
        <time>2018-09-25T18:22:19.819Z</time>
      </trkpt>
      <trkpt lat="43.51312" lon="3.4565">
        <ele>23.7</ele>
        <time>2018-09-25T18:22:20.819Z</time>
      </trkpt>
      <trkpt lat="43.51309" lon="3.4565">
        <ele>23.6</ele>
        <time>2018-09-25T18:22:21.819Z</time>
      </trkpt>
      <trkpt lat="43.51305" lon="3.4565">
        <ele>23.5</ele>
        <time>2018-09-25T18:22:22.819Z</time>
      </trkpt>
      <trkpt lat="43.513" lon="3.45649">
        <ele>23.4</ele>
        <time>2018-09-25T18:22:23.819Z</time>
      </trkpt>
      <trkpt lat="43.51296" lon="3.4565">
        <ele>23.3</ele>
        <time>2018-09-25T18:22:24.819Z</time>
      </trkpt>
      <trkpt lat="43.51292" lon="3.4565">
        <ele>23.2</ele>
        <time>2018-09-25T18:22:25.819Z</time>
      </trkpt>
      <trkpt lat="43.51288" lon="3.4565">
        <ele>23.1</ele>
        <time>2018-09-25T18:22:26.819Z</time>
      </trkpt>
      <trkpt lat="43.51284" lon="3.45649">
        <ele>23</ele>
        <time>2018-09-25T18:22:27.819Z</time>
      </trkpt>
      <trkpt lat="43.51279" lon="3.45648">
        <ele>22.9</ele>
        <time>2018-09-25T18:22:28.819Z</time>
      </trkpt>
      <trkpt lat="43.51274" lon="3.45648">
        <ele>22.8</ele>
        <time>2018-09-25T18:22:29.819Z</time>
      </trkpt>
      <trkpt lat="43.51269" lon="3.45647">
        <ele>22.7</ele>
        <time>2018-09-25T18:22:30.819Z</time>
      </trkpt>
      <trkpt lat="43.51264" lon="3.45647">
        <ele>22.6</ele>
        <time>2018-09-25T18:22:31.819Z</time>
      </trkpt>
      <trkpt lat="43.51259" lon="3.45646">
        <ele>22.5</ele>
        <time>2018-09-25T18:22:32.819Z</time>
      </trkpt>
      <trkpt lat="43.51254" lon="3.45646">
        <ele>22.4</ele>
        <time>2018-09-25T18:22:33.819Z</time>
      </trkpt>
      <trkpt lat="43.51248" lon="3.45647">
        <ele>22.3</ele>
        <time>2018-09-25T18:22:34.819Z</time>
      </trkpt>
      <trkpt lat="43.51241" lon="3.45648">
        <ele>22.2</ele>
        <time>2018-09-25T18:22:35.819Z</time>
      </trkpt>
      <trkpt lat="43.51236" lon="3.45648">
        <ele>22.1</ele>
        <time>2018-09-25T18:22:36.819Z</time>
      </trkpt>
      <trkpt lat="43.51232" lon="3.45647">
        <ele>22</ele>
        <time>2018-09-25T18:22:37.819Z</time>
      </trkpt>
      <trkpt lat="43.51228" lon="3.45646">
        <ele>22</ele>
        <time>2018-09-25T18:22:38.819Z</time>
      </trkpt>
      <trkpt lat="43.51225" lon="3.45645">
        <ele>22</ele>
        <time>2018-09-25T18:22:39.819Z</time>
      </trkpt>
      <trkpt lat="43.51222" lon="3.45646">
        <ele>22</ele>
        <time>2018-09-25T18:22:40.819Z</time>
      </trkpt>
      <trkpt lat="43.51219" lon="3.45647">
        <ele>21.9</ele>
        <time>2018-09-25T18:22:41.819Z</time>
      </trkpt>
      <trkpt lat="43.51216" lon="3.4565">
        <ele>21.8</ele>
        <time>2018-09-25T18:22:42.819Z</time>
      </trkpt>
      <trkpt lat="43.51212" lon="3.45652">
        <ele>21.7</ele>
        <time>2018-09-25T18:22:43.819Z</time>
      </trkpt>
      <trkpt lat="43.51207" lon="3.45654">
        <ele>21.5</ele>
        <time>2018-09-25T18:22:44.819Z</time>
      </trkpt>
      <trkpt lat="43.51202" lon="3.45657">
        <ele>21.4</ele>
        <time>2018-09-25T18:22:45.819Z</time>
      </trkpt>
      <trkpt lat="43.51197" lon="3.45659">
        <ele>21.3</ele>
        <time>2018-09-25T18:22:46.819Z</time>
      </trkpt>
      <trkpt lat="43.51192" lon="3.45661">
        <ele>21.2</ele>
        <time>2018-09-25T18:22:47.819Z</time>
      </trkpt>
      <trkpt lat="43.51188" lon="3.45663">
        <ele>21.1</ele>
        <time>2018-09-25T18:22:48.819Z</time>
      </trkpt>
      <trkpt lat="43.51183" lon="3.45665">
        <ele>21</ele>
        <time>2018-09-25T18:22:49.819Z</time>
      </trkpt>
      <trkpt lat="43.51179" lon="3.45667">
        <ele>20.9</ele>
        <time>2018-09-25T18:22:50.819Z</time>
      </trkpt>
      <trkpt lat="43.51174" lon="3.45669">
        <ele>20.8</ele>
        <time>2018-09-25T18:22:51.819Z</time>
      </trkpt>
      <trkpt lat="43.51169" lon="3.45671">
        <ele>20.7</ele>
        <time>2018-09-25T18:22:52.819Z</time>
      </trkpt>
      <trkpt lat="43.51165" lon="3.45673">
        <ele>20.6</ele>
        <time>2018-09-25T18:22:53.819Z</time>
      </trkpt>
      <trkpt lat="43.51161" lon="3.45675">
        <ele>20.4</ele>
        <time>2018-09-25T18:22:54.819Z</time>
      </trkpt>
      <trkpt lat="43.51157" lon="3.45676">
        <ele>20.3</ele>
        <time>2018-09-25T18:22:55.819Z</time>
      </trkpt>
      <trkpt lat="43.51153" lon="3.45678">
        <ele>20.3</ele>
        <time>2018-09-25T18:22:56.819Z</time>
      </trkpt>
      <trkpt lat="43.51148" lon="3.4568">
        <ele>20.2</ele>
        <time>2018-09-25T18:22:57.819Z</time>
      </trkpt>
      <trkpt lat="43.51144" lon="3.45681">
        <ele>20.1</ele>
        <time>2018-09-25T18:22:58.819Z</time>
      </trkpt>
      <trkpt lat="43.5114" lon="3.45683">
        <ele>19.9</ele>
        <time>2018-09-25T18:22:59.819Z</time>
      </trkpt>
      <trkpt lat="43.51136" lon="3.45685">
        <ele>19.8</ele>
        <time>2018-09-25T18:23:00.819Z</time>
      </trkpt>
      <trkpt lat="43.51132" lon="3.45687">
        <ele>19.7</ele>
        <time>2018-09-25T18:23:01.819Z</time>
      </trkpt>
      <trkpt lat="43.51128" lon="3.45688">
        <ele>19.6</ele>
        <time>2018-09-25T18:23:02.819Z</time>
      </trkpt>
      <trkpt lat="43.51124" lon="3.45689">
        <ele>19.5</ele>
        <time>2018-09-25T18:23:03.819Z</time>
      </trkpt>
      <trkpt lat="43.5112" lon="3.4569">
        <ele>19.4</ele>
        <time>2018-09-25T18:23:04.819Z</time>
      </trkpt>
      <trkpt lat="43.51117" lon="3.45691">
        <ele>19.3</ele>
        <time>2018-09-25T18:23:05.819Z</time>
      </trkpt>
      <trkpt lat="43.51113" lon="3.45692">
        <ele>19.2</ele>
        <time>2018-09-25T18:23:06.819Z</time>
      </trkpt>
      <trkpt lat="43.5111" lon="3.45694">
        <ele>19.1</ele>
        <time>2018-09-25T18:23:07.819Z</time>
      </trkpt>
      <trkpt lat="43.51106" lon="3.45695">
        <ele>19</ele>
        <time>2018-09-25T18:23:08.819Z</time>
      </trkpt>
      <trkpt lat="43.51102" lon="3.45697">
        <ele>18.9</ele>
        <time>2018-09-25T18:23:09.819Z</time>
      </trkpt>
      <trkpt lat="43.51098" lon="3.45698">
        <ele>18.8</ele>
        <time>2018-09-25T18:23:10.819Z</time>
      </trkpt>
      <trkpt lat="43.51095" lon="3.457">
        <ele>18.7</ele>
        <time>2018-09-25T18:23:11.819Z</time>
      </trkpt>
      <trkpt lat="43.51091" lon="3.45701">
        <ele>18.6</ele>
        <time>2018-09-25T18:23:12.819Z</time>
      </trkpt>
      <trkpt lat="43.51087" lon="3.45703">
        <ele>18.5</ele>
        <time>2018-09-25T18:23:13.819Z</time>
      </trkpt>
      <trkpt lat="43.51084" lon="3.45705">
        <ele>18.5</ele>
        <time>2018-09-25T18:23:14.819Z</time>
      </trkpt>
      <trkpt lat="43.5108" lon="3.45706">
        <ele>18.4</ele>
        <time>2018-09-25T18:23:15.819Z</time>
      </trkpt>
      <trkpt lat="43.51076" lon="3.45707">
        <ele>18.4</ele>
        <time>2018-09-25T18:23:16.819Z</time>
      </trkpt>
      <trkpt lat="43.51073" lon="3.45708">
        <ele>18.4</ele>
        <time>2018-09-25T18:23:17.819Z</time>
      </trkpt>
      <trkpt lat="43.51069" lon="3.45709">
        <ele>18.3</ele>
        <time>2018-09-25T18:23:18.819Z</time>
      </trkpt>
      <trkpt lat="43.51065" lon="3.4571">
        <ele>18.3</ele>
        <time>2018-09-25T18:23:19.819Z</time>
      </trkpt>
      <trkpt lat="43.51061" lon="3.4571">
        <ele>18.2</ele>
        <time>2018-09-25T18:23:20.819Z</time>
      </trkpt>
      <trkpt lat="43.51057" lon="3.45709">
        <ele>18.2</ele>
        <time>2018-09-25T18:23:21.819Z</time>
      </trkpt>
      <trkpt lat="43.51053" lon="3.45709">
        <ele>18.1</ele>
        <time>2018-09-25T18:23:22.819Z</time>
      </trkpt>
      <trkpt lat="43.5105" lon="3.45708">
        <ele>18.1</ele>
        <time>2018-09-25T18:23:23.819Z</time>
      </trkpt>
      <trkpt lat="43.51046" lon="3.45706">
        <ele>18</ele>
        <time>2018-09-25T18:23:24.819Z</time>
      </trkpt>
      <trkpt lat="43.51042" lon="3.45704">
        <ele>18</ele>
        <time>2018-09-25T18:23:25.819Z</time>
      </trkpt>
      <trkpt lat="43.51038" lon="3.45701">
        <ele>18</ele>
        <time>2018-09-25T18:23:26.819Z</time>
      </trkpt>
      <trkpt lat="43.51033" lon="3.45699">
        <ele>18</ele>
        <time>2018-09-25T18:23:27.819Z</time>
      </trkpt>
      <trkpt lat="43.5103" lon="3.45696">
        <ele>18</ele>
        <time>2018-09-25T18:23:28.819Z</time>
      </trkpt>
      <trkpt lat="43.51026" lon="3.45693">
        <ele>18</ele>
        <time>2018-09-25T18:23:29.819Z</time>
      </trkpt>
      <trkpt lat="43.51022" lon="3.4569">
        <ele>18</ele>
        <time>2018-09-25T18:23:30.819Z</time>
      </trkpt>
      <trkpt lat="43.51019" lon="3.45687">
        <ele>18</ele>
        <time>2018-09-25T18:23:31.819Z</time>
      </trkpt>
      <trkpt lat="43.51016" lon="3.45684">
        <ele>18</ele>
        <time>2018-09-25T18:23:32.819Z</time>
      </trkpt>
      <trkpt lat="43.51013" lon="3.45681">
        <ele>18.1</ele>
        <time>2018-09-25T18:23:33.819Z</time>
      </trkpt>
      <trkpt lat="43.51011" lon="3.45679">
        <ele>18.1</ele>
        <time>2018-09-25T18:23:34.819Z</time>
      </trkpt>
      <trkpt lat="43.51008" lon="3.45676">
        <ele>18.1</ele>
        <time>2018-09-25T18:23:35.819Z</time>
      </trkpt>
      <trkpt lat="43.51006" lon="3.45673">
        <ele>18.1</ele>
        <time>2018-09-25T18:23:36.819Z</time>
      </trkpt>
      <trkpt lat="43.51004" lon="3.4567">
        <ele>18.1</ele>
        <time>2018-09-25T18:23:37.819Z</time>
      </trkpt>
      <trkpt lat="43.51002" lon="3.45667">
        <ele>18.2</ele>
        <time>2018-09-25T18:23:38.819Z</time>
      </trkpt>
      <trkpt lat="43.51" lon="3.45665">
        <ele>18.2</ele>
        <time>2018-09-25T18:23:39.819Z</time>
      </trkpt>
      <trkpt lat="43.50998" lon="3.45662">
        <ele>18.2</ele>
        <time>2018-09-25T18:23:40.819Z</time>
      </trkpt>
      <trkpt lat="43.50995" lon="3.4566">
        <ele>18.2</ele>
        <time>2018-09-25T18:23:41.819Z</time>
      </trkpt>
      <trkpt lat="43.50993" lon="3.45657">
        <ele>18.2</ele>
        <time>2018-09-25T18:23:42.819Z</time>
      </trkpt>
      <trkpt lat="43.5099" lon="3.45654">
        <ele>18.2</ele>
        <time>2018-09-25T18:23:44.819Z</time>
      </trkpt>
      <trkpt lat="43.50987" lon="3.4565">
        <ele>18.2</ele>
        <time>2018-09-25T18:23:46.819Z</time>
      </trkpt>
      <trkpt lat="43.50982" lon="3.45646">
        <ele>18.1</ele>
        <time>2018-09-25T18:23:48.819Z</time>
      </trkpt>
      <trkpt lat="43.50979" lon="3.45644">
        <ele>18.1</ele>
        <time>2018-09-25T18:23:49.819Z</time>
      </trkpt>
      <trkpt lat="43.50977" lon="3.45642">
        <ele>18.1</ele>
        <time>2018-09-25T18:23:50.819Z</time>
      </trkpt>
      <trkpt lat="43.50973" lon="3.4564">
        <ele>18</ele>
        <time>2018-09-25T18:23:51.819Z</time>
      </trkpt>
      <trkpt lat="43.5097" lon="3.45639">
        <ele>18</ele>
        <time>2018-09-25T18:23:52.819Z</time>
      </trkpt>
      <trkpt lat="43.50967" lon="3.45637">
        <ele>18</ele>
        <time>2018-09-25T18:23:53.819Z</time>
      </trkpt>
      <trkpt lat="43.50962" lon="3.45638">
        <ele>18</ele>
        <time>2018-09-25T18:23:54.819Z</time>
      </trkpt>
      <trkpt lat="43.50958" lon="3.4564">
        <ele>18</ele>
        <time>2018-09-25T18:23:55.819Z</time>
      </trkpt>
      <trkpt lat="43.50955" lon="3.45644">
        <ele>18.1</ele>
        <time>2018-09-25T18:23:56.819Z</time>
      </trkpt>
      <trkpt lat="43.50951" lon="3.45649">
        <ele>18.1</ele>
        <time>2018-09-25T18:23:57.819Z</time>
      </trkpt>
      <trkpt lat="43.50946" lon="3.45653">
        <ele>18.2</ele>
        <time>2018-09-25T18:23:58.819Z</time>
      </trkpt>
      <trkpt lat="43.50942" lon="3.45658">
        <ele>18.3</ele>
        <time>2018-09-25T18:23:59.819Z</time>
      </trkpt>
      <trkpt lat="43.50939" lon="3.45663">
        <ele>18.4</ele>
        <time>2018-09-25T18:24:00.819Z</time>
      </trkpt>
      <trkpt lat="43.50935" lon="3.45667">
        <ele>18.5</ele>
        <time>2018-09-25T18:24:01.819Z</time>
      </trkpt>
      <trkpt lat="43.50932" lon="3.45671">
        <ele>18.6</ele>
        <time>2018-09-25T18:24:02.819Z</time>
      </trkpt>
      <trkpt lat="43.50929" lon="3.45674">
        <ele>18.7</ele>
        <time>2018-09-25T18:24:03.819Z</time>
      </trkpt>
      <trkpt lat="43.50926" lon="3.45677">
        <ele>18.7</ele>
        <time>2018-09-25T18:24:04.819Z</time>
      </trkpt>
      <trkpt lat="43.50924" lon="3.4568">
        <ele>18.8</ele>
        <time>2018-09-25T18:24:05.819Z</time>
      </trkpt>
      <trkpt lat="43.50921" lon="3.45683">
        <ele>18.9</ele>
        <time>2018-09-25T18:24:06.819Z</time>
      </trkpt>
      <trkpt lat="43.50918" lon="3.45687">
        <ele>19</ele>
        <time>2018-09-25T18:24:07.819Z</time>
      </trkpt>
      <trkpt lat="43.50915" lon="3.4569">
        <ele>19.1</ele>
        <time>2018-09-25T18:24:08.819Z</time>
      </trkpt>
      <trkpt lat="43.50912" lon="3.45694">
        <ele>19.2</ele>
        <time>2018-09-25T18:24:09.819Z</time>
      </trkpt>
      <trkpt lat="43.50908" lon="3.45697">
        <ele>19.3</ele>
        <time>2018-09-25T18:24:10.819Z</time>
      </trkpt>
      <trkpt lat="43.50905" lon="3.45701">
        <ele>19.4</ele>
        <time>2018-09-25T18:24:11.819Z</time>
      </trkpt>
      <trkpt lat="43.50902" lon="3.45705">
        <ele>19.5</ele>
        <time>2018-09-25T18:24:12.819Z</time>
      </trkpt>
      <trkpt lat="43.50898" lon="3.4571">
        <ele>19.6</ele>
        <time>2018-09-25T18:24:13.819Z</time>
      </trkpt>
      <trkpt lat="43.50895" lon="3.45712">
        <ele>19.7</ele>
        <time>2018-09-25T18:24:14.819Z</time>
      </trkpt>
      <trkpt lat="43.50892" lon="3.45716">
        <ele>19.8</ele>
        <time>2018-09-25T18:24:15.819Z</time>
      </trkpt>
      <trkpt lat="43.50889" lon="3.4572">
        <ele>19.9</ele>
        <time>2018-09-25T18:24:16.819Z</time>
      </trkpt>
      <trkpt lat="43.50886" lon="3.45723">
        <ele>20</ele>
        <time>2018-09-25T18:24:17.819Z</time>
      </trkpt>
      <trkpt lat="43.50884" lon="3.45727">
        <ele>20.2</ele>
        <time>2018-09-25T18:24:18.819Z</time>
      </trkpt>
      <trkpt lat="43.50881" lon="3.45729">
        <ele>20.3</ele>
        <time>2018-09-25T18:24:19.819Z</time>
      </trkpt>
      <trkpt lat="43.50879" lon="3.45732">
        <ele>20.4</ele>
        <time>2018-09-25T18:24:20.819Z</time>
      </trkpt>
      <trkpt lat="43.50876" lon="3.45734">
        <ele>20.5</ele>
        <time>2018-09-25T18:24:21.819Z</time>
      </trkpt>
      <trkpt lat="43.50874" lon="3.45737">
        <ele>20.6</ele>
        <time>2018-09-25T18:24:22.819Z</time>
      </trkpt>
      <trkpt lat="43.5087" lon="3.4574">
        <ele>20.6</ele>
        <time>2018-09-25T18:24:24.819Z</time>
      </trkpt>
      <trkpt lat="43.50866" lon="3.45744">
        <ele>20.7</ele>
        <time>2018-09-25T18:24:26.819Z</time>
      </trkpt>
      <trkpt lat="43.50862" lon="3.45748">
        <ele>20.8</ele>
        <time>2018-09-25T18:24:28.819Z</time>
      </trkpt>
      <trkpt lat="43.50861" lon="3.45756">
        <ele>21.9</ele>
        <time>2018-09-25T18:24:30.819Z</time>
      </trkpt>
      <trkpt lat="43.50861" lon="3.45761">
        <ele>22.1</ele>
        <time>2018-09-25T18:24:31.819Z</time>
      </trkpt>
      <trkpt lat="43.50863" lon="3.45765">
        <ele>22.3</ele>
        <time>2018-09-25T18:24:32.819Z</time>
      </trkpt>
      <trkpt lat="43.50865" lon="3.45768">
        <ele>22.6</ele>
        <time>2018-09-25T18:24:33.819Z</time>
      </trkpt>
      <trkpt lat="43.50866" lon="3.45772">
        <ele>22.8</ele>
        <time>2018-09-25T18:24:34.819Z</time>
      </trkpt>
      <trkpt lat="43.50865" lon="3.45777">
        <ele>23</ele>
        <time>2018-09-25T18:24:35.819Z</time>
      </trkpt>
      <trkpt lat="43.50864" lon="3.45783">
        <ele>22.9</ele>
        <time>2018-09-25T18:24:36.819Z</time>
      </trkpt>
      <trkpt lat="43.50862" lon="3.45789">
        <ele>22.9</ele>
        <time>2018-09-25T18:24:37.819Z</time>
      </trkpt>
      <trkpt lat="43.5086" lon="3.45795">
        <ele>22.8</ele>
        <time>2018-09-25T18:24:38.819Z</time>
      </trkpt>
      <trkpt lat="43.50859" lon="3.45802">
        <ele>22.8</ele>
        <time>2018-09-25T18:24:39.819Z</time>
      </trkpt>
      <trkpt lat="43.50857" lon="3.45808">
        <ele>22.8</ele>
        <time>2018-09-25T18:24:40.819Z</time>
      </trkpt>
      <trkpt lat="43.50856" lon="3.45812">
        <ele>22.8</ele>
        <time>2018-09-25T18:24:41.819Z</time>
      </trkpt>
      <trkpt lat="43.50854" lon="3.45817">
        <ele>22.7</ele>
        <time>2018-09-25T18:24:42.819Z</time>
      </trkpt>
      <trkpt lat="43.50853" lon="3.45822">
        <ele>22.7</ele>
        <time>2018-09-25T18:24:43.819Z</time>
      </trkpt>
      <trkpt lat="43.50851" lon="3.45827">
        <ele>22.7</ele>
        <time>2018-09-25T18:24:44.819Z</time>
      </trkpt>
      <trkpt lat="43.5085" lon="3.45832">
        <ele>22.6</ele>
        <time>2018-09-25T18:24:45.819Z</time>
      </trkpt>
      <trkpt lat="43.50848" lon="3.45837">
        <ele>22.6</ele>
        <time>2018-09-25T18:24:46.819Z</time>
      </trkpt>
      <trkpt lat="43.50846" lon="3.45842">
        <ele>22.5</ele>
        <time>2018-09-25T18:24:47.819Z</time>
      </trkpt>
      <trkpt lat="43.50844" lon="3.45847">
        <ele>22.4</ele>
        <time>2018-09-25T18:24:48.819Z</time>
      </trkpt>
      <trkpt lat="43.50842" lon="3.45852">
        <ele>22.4</ele>
        <time>2018-09-25T18:24:49.819Z</time>
      </trkpt>
      <trkpt lat="43.5084" lon="3.45856">
        <ele>22.3</ele>
        <time>2018-09-25T18:24:50.819Z</time>
      </trkpt>
      <trkpt lat="43.50838" lon="3.45861">
        <ele>22.2</ele>
        <time>2018-09-25T18:24:51.819Z</time>
      </trkpt>
      <trkpt lat="43.50836" lon="3.45867">
        <ele>22.2</ele>
        <time>2018-09-25T18:24:52.819Z</time>
      </trkpt>
      <trkpt lat="43.50834" lon="3.45872">
        <ele>22.1</ele>
        <time>2018-09-25T18:24:53.819Z</time>
      </trkpt>
      <trkpt lat="43.50832" lon="3.45877">
        <ele>22.1</ele>
        <time>2018-09-25T18:24:54.819Z</time>
      </trkpt>
      <trkpt lat="43.5083" lon="3.45881">
        <ele>22</ele>
        <time>2018-09-25T18:24:55.819Z</time>
      </trkpt>
      <trkpt lat="43.50829" lon="3.45886">
        <ele>22</ele>
        <time>2018-09-25T18:24:56.819Z</time>
      </trkpt>
      <trkpt lat="43.50827" lon="3.45892">
        <ele>22.1</ele>
        <time>2018-09-25T18:24:57.819Z</time>
      </trkpt>
      <trkpt lat="43.50826" lon="3.45897">
        <ele>22.1</ele>
        <time>2018-09-25T18:24:58.819Z</time>
      </trkpt>
      <trkpt lat="43.50824" lon="3.45902">
        <ele>22.2</ele>
        <time>2018-09-25T18:24:59.819Z</time>
      </trkpt>
      <trkpt lat="43.50822" lon="3.45908">
        <ele>22.3</ele>
        <time>2018-09-25T18:25:00.819Z</time>
      </trkpt>
      <trkpt lat="43.5082" lon="3.45913">
        <ele>22.3</ele>
        <time>2018-09-25T18:25:01.819Z</time>
      </trkpt>
      <trkpt lat="43.50818" lon="3.45919">
        <ele>22.4</ele>
        <time>2018-09-25T18:25:02.819Z</time>
      </trkpt>
      <trkpt lat="43.50816" lon="3.45925">
        <ele>22.5</ele>
        <time>2018-09-25T18:25:03.819Z</time>
      </trkpt>
      <trkpt lat="43.50814" lon="3.4593">
        <ele>22.6</ele>
        <time>2018-09-25T18:25:04.819Z</time>
      </trkpt>
      <trkpt lat="43.50812" lon="3.45935">
        <ele>22.6</ele>
        <time>2018-09-25T18:25:05.819Z</time>
      </trkpt>
      <trkpt lat="43.5081" lon="3.4594">
        <ele>22.7</ele>
        <time>2018-09-25T18:25:06.819Z</time>
      </trkpt>
      <trkpt lat="43.50808" lon="3.45945">
        <ele>22.7</ele>
        <time>2018-09-25T18:25:07.819Z</time>
      </trkpt>
      <trkpt lat="43.50806" lon="3.4595">
        <ele>22.8</ele>
        <time>2018-09-25T18:25:08.819Z</time>
      </trkpt>
      <trkpt lat="43.50803" lon="3.45955">
        <ele>22.9</ele>
        <time>2018-09-25T18:25:09.819Z</time>
      </trkpt>
      <trkpt lat="43.508" lon="3.4596">
        <ele>23</ele>
        <time>2018-09-25T18:25:10.819Z</time>
      </trkpt>
      <trkpt lat="43.50798" lon="3.45966">
        <ele>23</ele>
        <time>2018-09-25T18:25:11.819Z</time>
      </trkpt>
      <trkpt lat="43.50796" lon="3.45971">
        <ele>23.1</ele>
        <time>2018-09-25T18:25:12.819Z</time>
      </trkpt>
      <trkpt lat="43.50794" lon="3.45975">
        <ele>23.1</ele>
        <time>2018-09-25T18:25:13.819Z</time>
      </trkpt>
      <trkpt lat="43.50792" lon="3.4598">
        <ele>23.2</ele>
        <time>2018-09-25T18:25:14.819Z</time>
      </trkpt>
      <trkpt lat="43.50789" lon="3.45985">
        <ele>23.3</ele>
        <time>2018-09-25T18:25:15.819Z</time>
      </trkpt>
      <trkpt lat="43.50787" lon="3.4599">
        <ele>23.4</ele>
        <time>2018-09-25T18:25:16.819Z</time>
      </trkpt>
      <trkpt lat="43.50784" lon="3.45995">
        <ele>23.4</ele>
        <time>2018-09-25T18:25:17.819Z</time>
      </trkpt>
      <trkpt lat="43.50782" lon="3.46">
        <ele>23.5</ele>
        <time>2018-09-25T18:25:18.819Z</time>
      </trkpt>
      <trkpt lat="43.5078" lon="3.46005">
        <ele>23.5</ele>
        <time>2018-09-25T18:25:19.819Z</time>
      </trkpt>
      <trkpt lat="43.50777" lon="3.4601">
        <ele>23.6</ele>
        <time>2018-09-25T18:25:20.819Z</time>
      </trkpt>
      <trkpt lat="43.50775" lon="3.46014">
        <ele>23.7</ele>
        <time>2018-09-25T18:25:21.819Z</time>
      </trkpt>
      <trkpt lat="43.50774" lon="3.46021">
        <ele>23.8</ele>
        <time>2018-09-25T18:25:22.819Z</time>
      </trkpt>
      <trkpt lat="43.50773" lon="3.46027">
        <ele>23.9</ele>
        <time>2018-09-25T18:25:23.819Z</time>
      </trkpt>
      <trkpt lat="43.50771" lon="3.46033">
        <ele>24.1</ele>
        <time>2018-09-25T18:25:24.819Z</time>
      </trkpt>
      <trkpt lat="43.50767" lon="3.46037">
        <ele>24.3</ele>
        <time>2018-09-25T18:25:25.819Z</time>
      </trkpt>
      <trkpt lat="43.50764" lon="3.4604">
        <ele>24.4</ele>
        <time>2018-09-25T18:25:26.819Z</time>
      </trkpt>
      <trkpt lat="43.50761" lon="3.46044">
        <ele>24.5</ele>
        <time>2018-09-25T18:25:27.819Z</time>
      </trkpt>
      <trkpt lat="43.50759" lon="3.46048">
        <ele>24.6</ele>
        <time>2018-09-25T18:25:28.819Z</time>
      </trkpt>
      <trkpt lat="43.50758" lon="3.46052">
        <ele>24.7</ele>
        <time>2018-09-25T18:25:29.819Z</time>
      </trkpt>
      <trkpt lat="43.50755" lon="3.46055">
        <ele>24.8</ele>
        <time>2018-09-25T18:25:30.819Z</time>
      </trkpt>
      <trkpt lat="43.50752" lon="3.46057">
        <ele>25</ele>
        <time>2018-09-25T18:25:31.819Z</time>
      </trkpt>
      <trkpt lat="43.50748" lon="3.46061">
        <ele>25.2</ele>
        <time>2018-09-25T18:25:32.819Z</time>
      </trkpt>
      <trkpt lat="43.50745" lon="3.46064">
        <ele>25.4</ele>
        <time>2018-09-25T18:25:33.819Z</time>
      </trkpt>
      <trkpt lat="43.50742" lon="3.46066">
        <ele>25.6</ele>
        <time>2018-09-25T18:25:34.819Z</time>
      </trkpt>
      <trkpt lat="43.50739" lon="3.46065">
        <ele>25.7</ele>
        <time>2018-09-25T18:25:35.819Z</time>
      </trkpt>
      <trkpt lat="43.50735" lon="3.46065">
        <ele>25.8</ele>
        <time>2018-09-25T18:25:36.819Z</time>
      </trkpt>
      <trkpt lat="43.50731" lon="3.46065">
        <ele>25.9</ele>
        <time>2018-09-25T18:25:37.819Z</time>
      </trkpt>
      <trkpt lat="43.50727" lon="3.46063">
        <ele>26</ele>
        <time>2018-09-25T18:25:38.819Z</time>
      </trkpt>
      <trkpt lat="43.50722" lon="3.46062">
        <ele>26</ele>
        <time>2018-09-25T18:25:39.819Z</time>
      </trkpt>
      <trkpt lat="43.50719" lon="3.4606">
        <ele>25.9</ele>
        <time>2018-09-25T18:25:40.819Z</time>
      </trkpt>
      <trkpt lat="43.50715" lon="3.46058">
        <ele>25.9</ele>
        <time>2018-09-25T18:25:41.819Z</time>
      </trkpt>
      <trkpt lat="43.50712" lon="3.46055">
        <ele>25.9</ele>
        <time>2018-09-25T18:25:42.819Z</time>
      </trkpt>
      <trkpt lat="43.5071" lon="3.46052">
        <ele>25.9</ele>
        <time>2018-09-25T18:25:43.819Z</time>
      </trkpt>
      <trkpt lat="43.50707" lon="3.46049">
        <ele>25.8</ele>
        <time>2018-09-25T18:25:44.819Z</time>
      </trkpt>
      <trkpt lat="43.50705" lon="3.46045">
        <ele>25.8</ele>
        <time>2018-09-25T18:25:45.819Z</time>
      </trkpt>
      <trkpt lat="43.50703" lon="3.46043">
        <ele>25.8</ele>
        <time>2018-09-25T18:25:46.819Z</time>
      </trkpt>
      <trkpt lat="43.50699" lon="3.46039">
        <ele>25.7</ele>
        <time>2018-09-25T18:25:48.819Z</time>
      </trkpt>
      <trkpt lat="43.50696" lon="3.46036">
        <ele>25.7</ele>
        <time>2018-09-25T18:25:49.819Z</time>
      </trkpt>
      <trkpt lat="43.50694" lon="3.46034">
        <ele>25.7</ele>
        <time>2018-09-25T18:25:50.819Z</time>
      </trkpt>
      <trkpt lat="43.50691" lon="3.46031">
        <ele>25.6</ele>
        <time>2018-09-25T18:25:51.819Z</time>
      </trkpt>
      <trkpt lat="43.50689" lon="3.46027">
        <ele>25.6</ele>
        <time>2018-09-25T18:25:52.819Z</time>
      </trkpt>
      <trkpt lat="43.50688" lon="3.46022">
        <ele>25.6</ele>
        <time>2018-09-25T18:25:53.819Z</time>
      </trkpt>
      <trkpt lat="43.50686" lon="3.4602">
        <ele>25.5</ele>
        <time>2018-09-25T18:25:54.819Z</time>
      </trkpt>
      <trkpt lat="43.50683" lon="3.46018">
        <ele>25.5</ele>
        <time>2018-09-25T18:25:55.819Z</time>
      </trkpt>
      <trkpt lat="43.50679" lon="3.46014">
        <ele>25.5</ele>
        <time>2018-09-25T18:25:57.819Z</time>
      </trkpt>
      <trkpt lat="43.50676" lon="3.4601">
        <ele>25.4</ele>
        <time>2018-09-25T18:25:59.819Z</time>
      </trkpt>
      <trkpt lat="43.50672" lon="3.46007">
        <ele>25.3</ele>
        <time>2018-09-25T18:26:01.819Z</time>
      </trkpt>
      <trkpt lat="43.50668" lon="3.46004">
        <ele>25.3</ele>
        <time>2018-09-25T18:26:03.819Z</time>
      </trkpt>
      <trkpt lat="43.50664" lon="3.46004">
        <ele>25.2</ele>
        <time>2018-09-25T18:26:05.819Z</time>
      </trkpt>
      <trkpt lat="43.50661" lon="3.46005">
        <ele>25.2</ele>
        <time>2018-09-25T18:26:07.819Z</time>
      </trkpt>
      <trkpt lat="43.50659" lon="3.46008">
        <ele>25.2</ele>
        <time>2018-09-25T18:26:14.819Z</time>
      </trkpt>
      <trkpt lat="43.50656" lon="3.46009">
        <ele>25.1</ele>
        <time>2018-09-25T18:26:21.819Z</time>
      </trkpt>
      <trkpt lat="43.50652" lon="3.46007">
        <ele>25</ele>
        <time>2018-09-25T18:26:39.819Z</time>
      </trkpt>
      <trkpt lat="43.50649" lon="3.46008">
        <ele>25</ele>
        <time>2018-09-25T18:26:40.819Z</time>
      </trkpt>
      <trkpt lat="43.50646" lon="3.46006">
        <ele>24.9</ele>
        <time>2018-09-25T18:26:41.819Z</time>
      </trkpt>
      <trkpt lat="43.50643" lon="3.46002">
        <ele>25</ele>
        <time>2018-09-25T18:26:42.819Z</time>
      </trkpt>
      <trkpt lat="43.50642" lon="3.45997">
        <ele>25</ele>
        <time>2018-09-25T18:26:43.819Z</time>
      </trkpt>
      <trkpt lat="43.50639" lon="3.45994">
        <ele>25.1</ele>
        <time>2018-09-25T18:26:44.819Z</time>
      </trkpt>
      <trkpt lat="43.50635" lon="3.45993">
        <ele>25</ele>
        <time>2018-09-25T18:26:45.819Z</time>
      </trkpt>
      <trkpt lat="43.5063" lon="3.45992">
        <ele>25</ele>
        <time>2018-09-25T18:26:46.819Z</time>
      </trkpt>
      <trkpt lat="43.50627" lon="3.45989">
        <ele>25</ele>
        <time>2018-09-25T18:26:47.819Z</time>
      </trkpt>
      <trkpt lat="43.50623" lon="3.45986">
        <ele>24.9</ele>
        <time>2018-09-25T18:26:48.819Z</time>
      </trkpt>
      <trkpt lat="43.50621" lon="3.45982">
        <ele>24.9</ele>
        <time>2018-09-25T18:26:49.819Z</time>
      </trkpt>
      <trkpt lat="43.5062" lon="3.45978">
        <ele>24.8</ele>
        <time>2018-09-25T18:26:50.819Z</time>
      </trkpt>
      <trkpt lat="43.5062" lon="3.45973">
        <ele>24.7</ele>
        <time>2018-09-25T18:26:51.819Z</time>
      </trkpt>
      <trkpt lat="43.50618" lon="3.45971">
        <ele>24.7</ele>
        <time>2018-09-25T18:26:52.819Z</time>
      </trkpt>
      <trkpt lat="43.50614" lon="3.45969">
        <ele>24.5</ele>
        <time>2018-09-25T18:26:53.819Z</time>
      </trkpt>
      <trkpt lat="43.50611" lon="3.45967">
        <ele>24.4</ele>
        <time>2018-09-25T18:26:54.819Z</time>
      </trkpt>
      <trkpt lat="43.50607" lon="3.45965">
        <ele>24.1</ele>
        <time>2018-09-25T18:26:55.819Z</time>
      </trkpt>
      <trkpt lat="43.50603" lon="3.45962">
        <ele>24</ele>
        <time>2018-09-25T18:26:56.819Z</time>
      </trkpt>
      <trkpt lat="43.506" lon="3.4596">
        <ele>23.7</ele>
        <time>2018-09-25T18:26:57.819Z</time>
      </trkpt>
      <trkpt lat="43.50595" lon="3.45958">
        <ele>23.6</ele>
        <time>2018-09-25T18:26:58.819Z</time>
      </trkpt>
      <trkpt lat="43.50591" lon="3.45956">
        <ele>23.2</ele>
        <time>2018-09-25T18:26:59.819Z</time>
      </trkpt>
      <trkpt lat="43.50587" lon="3.45953">
        <ele>23</ele>
        <time>2018-09-25T18:27:00.819Z</time>
      </trkpt>
      <trkpt lat="43.50583" lon="3.4595">
        <ele>22.9</ele>
        <time>2018-09-25T18:27:01.819Z</time>
      </trkpt>
      <trkpt lat="43.50579" lon="3.45947">
        <ele>22.5</ele>
        <time>2018-09-25T18:27:02.819Z</time>
      </trkpt>
      <trkpt lat="43.50576" lon="3.45946">
        <ele>22.4</ele>
        <time>2018-09-25T18:27:03.819Z</time>
      </trkpt>
      <trkpt lat="43.50572" lon="3.45944">
        <ele>22.3</ele>
        <time>2018-09-25T18:27:04.819Z</time>
      </trkpt>
      <trkpt lat="43.50568" lon="3.45942">
        <ele>22.2</ele>
        <time>2018-09-25T18:27:05.819Z</time>
      </trkpt>
      <trkpt lat="43.50564" lon="3.4594">
        <ele>22.1</ele>
        <time>2018-09-25T18:27:06.819Z</time>
      </trkpt>
      <trkpt lat="43.5056" lon="3.45939">
        <ele>21.9</ele>
        <time>2018-09-25T18:27:07.819Z</time>
      </trkpt>
      <trkpt lat="43.50556" lon="3.45937">
        <ele>21.8</ele>
        <time>2018-09-25T18:27:08.819Z</time>
      </trkpt>
      <trkpt lat="43.50552" lon="3.45935">
        <ele>21.7</ele>
        <time>2018-09-25T18:27:09.819Z</time>
      </trkpt>
      <trkpt lat="43.50548" lon="3.45934">
        <ele>21.6</ele>
        <time>2018-09-25T18:27:10.819Z</time>
      </trkpt>
      <trkpt lat="43.50544" lon="3.45933">
        <ele>21.5</ele>
        <time>2018-09-25T18:27:11.819Z</time>
      </trkpt>
      <trkpt lat="43.5054" lon="3.45931">
        <ele>21.5</ele>
        <time>2018-09-25T18:27:12.819Z</time>
      </trkpt>
      <trkpt lat="43.50537" lon="3.4593">
        <ele>21.4</ele>
        <time>2018-09-25T18:27:13.819Z</time>
      </trkpt>
      <trkpt lat="43.50533" lon="3.45929">
        <ele>21.4</ele>
        <time>2018-09-25T18:27:14.819Z</time>
      </trkpt>
      <trkpt lat="43.50528" lon="3.4593">
        <ele>21.3</ele>
        <time>2018-09-25T18:27:16.819Z</time>
      </trkpt>
      <trkpt lat="43.50526" lon="3.45932">
        <ele>21.3</ele>
        <time>2018-09-25T18:27:17.819Z</time>
      </trkpt>
      <trkpt lat="43.50523" lon="3.45936">
        <ele>21.3</ele>
        <time>2018-09-25T18:27:18.819Z</time>
      </trkpt>
      <trkpt lat="43.50522" lon="3.45941">
        <ele>21.4</ele>
        <time>2018-09-25T18:27:19.819Z</time>
      </trkpt>
      <trkpt lat="43.50521" lon="3.45945">
        <ele>21.4</ele>
        <time>2018-09-25T18:27:20.819Z</time>
      </trkpt>
      <trkpt lat="43.5052" lon="3.4595">
        <ele>21.4</ele>
        <time>2018-09-25T18:27:21.819Z</time>
      </trkpt>
      <trkpt lat="43.50519" lon="3.45954">
        <ele>21.5</ele>
        <time>2018-09-25T18:27:22.819Z</time>
      </trkpt>
      <trkpt lat="43.50518" lon="3.45959">
        <ele>21.6</ele>
        <time>2018-09-25T18:27:23.819Z</time>
      </trkpt>
      <trkpt lat="43.50517" lon="3.45962">
        <ele>21.6</ele>
        <time>2018-09-25T18:27:24.819Z</time>
      </trkpt>
      <trkpt lat="43.50515" lon="3.45969">
        <ele>21.6</ele>
        <time>2018-09-25T18:27:26.819Z</time>
      </trkpt>
      <trkpt lat="43.50513" lon="3.45974">
        <ele>21.6</ele>
        <time>2018-09-25T18:27:28.819Z</time>
      </trkpt>
      <trkpt lat="43.50512" lon="3.45979">
        <ele>21.7</ele>
        <time>2018-09-25T18:27:30.819Z</time>
      </trkpt>
      <trkpt lat="43.50513" lon="3.45983">
        <ele>21.8</ele>
        <time>2018-09-25T18:27:33.819Z</time>
      </trkpt>
      <trkpt lat="43.50514" lon="3.45989">
        <ele>21.9</ele>
        <time>2018-09-25T18:27:35.819Z</time>
      </trkpt>
      <trkpt lat="43.50514" lon="3.45995">
        <ele>22.1</ele>
        <time>2018-09-25T18:27:37.819Z</time>
      </trkpt>
      <trkpt lat="43.50513" lon="3.46">
        <ele>22</ele>
        <time>2018-09-25T18:27:39.819Z</time>
      </trkpt>
      <trkpt lat="43.5051" lon="3.46001">
        <ele>21.9</ele>
        <time>2018-09-25T18:27:41.819Z</time>
      </trkpt>
      <trkpt lat="43.50505" lon="3.46003">
        <ele>21.8</ele>
        <time>2018-09-25T18:27:43.819Z</time>
      </trkpt>
      <trkpt lat="43.505" lon="3.46004">
        <ele>21.6</ele>
        <time>2018-09-25T18:27:45.819Z</time>
      </trkpt>
      <trkpt lat="43.50497" lon="3.46005">
        <ele>21.5</ele>
        <time>2018-09-25T18:27:46.819Z</time>
      </trkpt>
      <trkpt lat="43.50491" lon="3.46002">
        <ele>21.3</ele>
        <time>2018-09-25T18:27:48.819Z</time>
      </trkpt>
      <trkpt lat="43.50486" lon="3.46">
        <ele>21.1</ele>
        <time>2018-09-25T18:27:49.819Z</time>
      </trkpt>
      <trkpt lat="43.50482" lon="3.45998">
        <ele>21</ele>
        <time>2018-09-25T18:27:50.819Z</time>
      </trkpt>
      <trkpt lat="43.50477" lon="3.45998">
        <ele>20.9</ele>
        <time>2018-09-25T18:27:51.819Z</time>
      </trkpt>
      <trkpt lat="43.50472" lon="3.45997">
        <ele>20.7</ele>
        <time>2018-09-25T18:27:52.819Z</time>
      </trkpt>
      <trkpt lat="43.50468" lon="3.45997">
        <ele>20.6</ele>
        <time>2018-09-25T18:27:53.819Z</time>
      </trkpt>
      <trkpt lat="43.50464" lon="3.45995">
        <ele>20.3</ele>
        <time>2018-09-25T18:27:54.819Z</time>
      </trkpt>
      <trkpt lat="43.50461" lon="3.45993">
        <ele>20.2</ele>
        <time>2018-09-25T18:27:55.819Z</time>
      </trkpt>
      <trkpt lat="43.50458" lon="3.45989">
        <ele>20.1</ele>
        <time>2018-09-25T18:27:56.819Z</time>
      </trkpt>
      <trkpt lat="43.50455" lon="3.45985">
        <ele>19.9</ele>
        <time>2018-09-25T18:27:57.819Z</time>
      </trkpt>
      <trkpt lat="43.50452" lon="3.45981">
        <ele>19.8</ele>
        <time>2018-09-25T18:27:58.819Z</time>
      </trkpt>
      <trkpt lat="43.5045" lon="3.45977">
        <ele>19.7</ele>
        <time>2018-09-25T18:27:59.819Z</time>
      </trkpt>
      <trkpt lat="43.50448" lon="3.45972">
        <ele>19.6</ele>
        <time>2018-09-25T18:28:00.819Z</time>
      </trkpt>
      <trkpt lat="43.50446" lon="3.45967">
        <ele>19.6</ele>
        <time>2018-09-25T18:28:01.819Z</time>
      </trkpt>
      <trkpt lat="43.50445" lon="3.45963">
        <ele>19.5</ele>
        <time>2018-09-25T18:28:02.819Z</time>
      </trkpt>
      <trkpt lat="43.50444" lon="3.45958">
        <ele>19.5</ele>
        <time>2018-09-25T18:28:03.819Z</time>
      </trkpt>
      <trkpt lat="43.50443" lon="3.45954">
        <ele>19.5</ele>
        <time>2018-09-25T18:28:04.819Z</time>
      </trkpt>
      <trkpt lat="43.50443" lon="3.4595">
        <ele>19.5</ele>
        <time>2018-09-25T18:28:05.819Z</time>
      </trkpt>
      <trkpt lat="43.50443" lon="3.45943">
        <ele>19.5</ele>
        <time>2018-09-25T18:28:07.819Z</time>
      </trkpt>
      <trkpt lat="43.50443" lon="3.45939">
        <ele>19.6</ele>
        <time>2018-09-25T18:28:09.819Z</time>
      </trkpt>
      <trkpt lat="43.50442" lon="3.45934">
        <ele>19.5</ele>
        <time>2018-09-25T18:28:11.819Z</time>
      </trkpt>
      <trkpt lat="43.5044" lon="3.45929">
        <ele>19.6</ele>
        <time>2018-09-25T18:28:13.819Z</time>
      </trkpt>
      <trkpt lat="43.50435" lon="3.45928">
        <ele>19.5</ele>
        <time>2018-09-25T18:28:15.819Z</time>
      </trkpt>
      <trkpt lat="43.50432" lon="3.4593">
        <ele>19.4</ele>
        <time>2018-09-25T18:28:16.819Z</time>
      </trkpt>
      <trkpt lat="43.50429" lon="3.45933">
        <ele>19.4</ele>
        <time>2018-09-25T18:28:17.819Z</time>
      </trkpt>
      <trkpt lat="43.50426" lon="3.45937">
        <ele>19.3</ele>
        <time>2018-09-25T18:28:18.819Z</time>
      </trkpt>
      <trkpt lat="43.50424" lon="3.45942">
        <ele>19.2</ele>
        <time>2018-09-25T18:28:19.819Z</time>
      </trkpt>
      <trkpt lat="43.50421" lon="3.45948">
        <ele>19.1</ele>
        <time>2018-09-25T18:28:20.819Z</time>
      </trkpt>
      <trkpt lat="43.50419" lon="3.45954">
        <ele>19.1</ele>
        <time>2018-09-25T18:28:21.819Z</time>
      </trkpt>
      <trkpt lat="43.50416" lon="3.4596">
        <ele>19.1</ele>
        <time>2018-09-25T18:28:22.819Z</time>
      </trkpt>
      <trkpt lat="43.50413" lon="3.45967">
        <ele>19</ele>
        <time>2018-09-25T18:28:23.819Z</time>
      </trkpt>
      <trkpt lat="43.5041" lon="3.45974">
        <ele>19</ele>
        <time>2018-09-25T18:28:24.819Z</time>
      </trkpt>
      <trkpt lat="43.50406" lon="3.45981">
        <ele>18.9</ele>
        <time>2018-09-25T18:28:25.819Z</time>
      </trkpt>
      <trkpt lat="43.50403" lon="3.45988">
        <ele>18.8</ele>
        <time>2018-09-25T18:28:26.819Z</time>
      </trkpt>
      <trkpt lat="43.50399" lon="3.45995">
        <ele>18.8</ele>
        <time>2018-09-25T18:28:27.819Z</time>
      </trkpt>
      <trkpt lat="43.50396" lon="3.46002">
        <ele>18.7</ele>
        <time>2018-09-25T18:28:28.819Z</time>
      </trkpt>
      <trkpt lat="43.50393" lon="3.46008">
        <ele>18.6</ele>
        <time>2018-09-25T18:28:29.819Z</time>
      </trkpt>
      <trkpt lat="43.50391" lon="3.46013">
        <ele>18.6</ele>
        <time>2018-09-25T18:28:30.819Z</time>
      </trkpt>
      <trkpt lat="43.50389" lon="3.46018">
        <ele>18.6</ele>
        <time>2018-09-25T18:28:31.819Z</time>
      </trkpt>
      <trkpt lat="43.50386" lon="3.46024">
        <ele>18.5</ele>
        <time>2018-09-25T18:28:32.819Z</time>
      </trkpt>
      <trkpt lat="43.50383" lon="3.4603">
        <ele>18.5</ele>
        <time>2018-09-25T18:28:33.819Z</time>
      </trkpt>
      <trkpt lat="43.50381" lon="3.46036">
        <ele>18.5</ele>
        <time>2018-09-25T18:28:34.819Z</time>
      </trkpt>
      <trkpt lat="43.50379" lon="3.46041">
        <ele>18.5</ele>
        <time>2018-09-25T18:28:35.819Z</time>
      </trkpt>
      <trkpt lat="43.50376" lon="3.46047">
        <ele>18.5</ele>
        <time>2018-09-25T18:28:36.819Z</time>
      </trkpt>
      <trkpt lat="43.50374" lon="3.46052">
        <ele>18.5</ele>
        <time>2018-09-25T18:28:37.819Z</time>
      </trkpt>
      <trkpt lat="43.50372" lon="3.46056">
        <ele>18.5</ele>
        <time>2018-09-25T18:28:38.819Z</time>
      </trkpt>
      <trkpt lat="43.50369" lon="3.4606">
        <ele>18.5</ele>
        <time>2018-09-25T18:28:39.819Z</time>
      </trkpt>
      <trkpt lat="43.50367" lon="3.46064">
        <ele>18.5</ele>
        <time>2018-09-25T18:28:40.819Z</time>
      </trkpt>
      <trkpt lat="43.50365" lon="3.46068">
        <ele>18.5</ele>
        <time>2018-09-25T18:28:41.819Z</time>
      </trkpt>
      <trkpt lat="43.50364" lon="3.46073">
        <ele>18.6</ele>
        <time>2018-09-25T18:28:42.819Z</time>
      </trkpt>
      <trkpt lat="43.50361" lon="3.46079">
        <ele>18.6</ele>
        <time>2018-09-25T18:28:43.819Z</time>
      </trkpt>
      <trkpt lat="43.50359" lon="3.46084">
        <ele>18.6</ele>
        <time>2018-09-25T18:28:44.819Z</time>
      </trkpt>
      <trkpt lat="43.50357" lon="3.46089">
        <ele>18.6</ele>
        <time>2018-09-25T18:28:45.819Z</time>
      </trkpt>
      <trkpt lat="43.50354" lon="3.46094">
        <ele>18.6</ele>
        <time>2018-09-25T18:28:46.819Z</time>
      </trkpt>
      <trkpt lat="43.50351" lon="3.46099">
        <ele>18.5</ele>
        <time>2018-09-25T18:28:47.819Z</time>
      </trkpt>
      <trkpt lat="43.50348" lon="3.46103">
        <ele>18.5</ele>
        <time>2018-09-25T18:28:48.819Z</time>
      </trkpt>
      <trkpt lat="43.50346" lon="3.46108">
        <ele>18.5</ele>
        <time>2018-09-25T18:28:49.819Z</time>
      </trkpt>
      <trkpt lat="43.50343" lon="3.46113">
        <ele>18.5</ele>
        <time>2018-09-25T18:28:50.819Z</time>
      </trkpt>
      <trkpt lat="43.50341" lon="3.46117">
        <ele>18.5</ele>
        <time>2018-09-25T18:28:51.819Z</time>
      </trkpt>
      <trkpt lat="43.50338" lon="3.46122">
        <ele>18.4</ele>
        <time>2018-09-25T18:28:52.819Z</time>
      </trkpt>
      <trkpt lat="43.50336" lon="3.46126">
        <ele>18.4</ele>
        <time>2018-09-25T18:28:53.819Z</time>
      </trkpt>
      <trkpt lat="43.50333" lon="3.46131">
        <ele>18.3</ele>
        <time>2018-09-25T18:28:54.819Z</time>
      </trkpt>
      <trkpt lat="43.50331" lon="3.46135">
        <ele>18.3</ele>
        <time>2018-09-25T18:28:55.819Z</time>
      </trkpt>
      <trkpt lat="43.50328" lon="3.4614">
        <ele>18.3</ele>
        <time>2018-09-25T18:28:56.819Z</time>
      </trkpt>
      <trkpt lat="43.50326" lon="3.46144">
        <ele>18.2</ele>
        <time>2018-09-25T18:28:57.819Z</time>
      </trkpt>
      <trkpt lat="43.50323" lon="3.46148">
        <ele>18.2</ele>
        <time>2018-09-25T18:28:58.819Z</time>
      </trkpt>
      <trkpt lat="43.50321" lon="3.46152">
        <ele>18.1</ele>
        <time>2018-09-25T18:28:59.819Z</time>
      </trkpt>
      <trkpt lat="43.50319" lon="3.46157">
        <ele>18.1</ele>
        <time>2018-09-25T18:29:00.819Z</time>
      </trkpt>
      <trkpt lat="43.50316" lon="3.46161">
        <ele>18</ele>
        <time>2018-09-25T18:29:01.819Z</time>
      </trkpt>
      <trkpt lat="43.50314" lon="3.46165">
        <ele>18</ele>
        <time>2018-09-25T18:29:02.819Z</time>
      </trkpt>
      <trkpt lat="43.50311" lon="3.46169">
        <ele>17.9</ele>
        <time>2018-09-25T18:29:03.819Z</time>
      </trkpt>
      <trkpt lat="43.50309" lon="3.46174">
        <ele>17.9</ele>
        <time>2018-09-25T18:29:04.819Z</time>
      </trkpt>
      <trkpt lat="43.50307" lon="3.46178">
        <ele>17.9</ele>
        <time>2018-09-25T18:29:05.819Z</time>
      </trkpt>
      <trkpt lat="43.50305" lon="3.46182">
        <ele>17.8</ele>
        <time>2018-09-25T18:29:06.819Z</time>
      </trkpt>
      <trkpt lat="43.50303" lon="3.46187">
        <ele>17.8</ele>
        <time>2018-09-25T18:29:07.819Z</time>
      </trkpt>
      <trkpt lat="43.50301" lon="3.46191">
        <ele>17.8</ele>
        <time>2018-09-25T18:29:08.819Z</time>
      </trkpt>
      <trkpt lat="43.50299" lon="3.46195">
        <ele>17.8</ele>
        <time>2018-09-25T18:29:09.819Z</time>
      </trkpt>
      <trkpt lat="43.50297" lon="3.46199">
        <ele>17.8</ele>
        <time>2018-09-25T18:29:10.819Z</time>
      </trkpt>
      <trkpt lat="43.50295" lon="3.46203">
        <ele>17.8</ele>
        <time>2018-09-25T18:29:11.819Z</time>
      </trkpt>
      <trkpt lat="43.50293" lon="3.46206">
        <ele>17.8</ele>
        <time>2018-09-25T18:29:12.819Z</time>
      </trkpt>
      <trkpt lat="43.5029" lon="3.46213">
        <ele>17.8</ele>
        <time>2018-09-25T18:29:14.819Z</time>
      </trkpt>
      <trkpt lat="43.50287" lon="3.46218">
        <ele>17.8</ele>
        <time>2018-09-25T18:29:16.819Z</time>
      </trkpt>
      <trkpt lat="43.50284" lon="3.46221">
        <ele>17.8</ele>
        <time>2018-09-25T18:29:17.819Z</time>
      </trkpt>
      <trkpt lat="43.50282" lon="3.46225">
        <ele>17.8</ele>
        <time>2018-09-25T18:29:18.819Z</time>
      </trkpt>
      <trkpt lat="43.5028" lon="3.4623">
        <ele>17.8</ele>
        <time>2018-09-25T18:29:20.819Z</time>
      </trkpt>
      <trkpt lat="43.50278" lon="3.46234">
        <ele>17.8</ele>
        <time>2018-09-25T18:29:21.819Z</time>
      </trkpt>
      <trkpt lat="43.50276" lon="3.46237">
        <ele>17.8</ele>
        <time>2018-09-25T18:29:22.819Z</time>
      </trkpt>
      <trkpt lat="43.50273" lon="3.46243">
        <ele>17.8</ele>
        <time>2018-09-25T18:29:24.819Z</time>
      </trkpt>
      <trkpt lat="43.50271" lon="3.46248">
        <ele>17.9</ele>
        <time>2018-09-25T18:29:26.819Z</time>
      </trkpt>
      <trkpt lat="43.50268" lon="3.46253">
        <ele>18</ele>
        <time>2018-09-25T18:29:28.819Z</time>
      </trkpt>
      <trkpt lat="43.50266" lon="3.46257">
        <ele>18</ele>
        <time>2018-09-25T18:29:31.819Z</time>
      </trkpt>
      <trkpt lat="43.50263" lon="3.46263">
        <ele>18</ele>
        <time>2018-09-25T18:29:33.819Z</time>
      </trkpt>
      <trkpt lat="43.50261" lon="3.46269">
        <ele>18.1</ele>
        <time>2018-09-25T18:29:35.819Z</time>
      </trkpt>
      <trkpt lat="43.5026" lon="3.46272">
        <ele>18.2</ele>
        <time>2018-09-25T18:29:36.819Z</time>
      </trkpt>
      <trkpt lat="43.5026" lon="3.46276">
        <ele>18.3</ele>
        <time>2018-09-25T18:29:37.819Z</time>
      </trkpt>
      <trkpt lat="43.5026" lon="3.4628">
        <ele>18.4</ele>
        <time>2018-09-25T18:29:38.819Z</time>
      </trkpt>
      <trkpt lat="43.50258" lon="3.46285">
        <ele>18.5</ele>
        <time>2018-09-25T18:29:40.819Z</time>
      </trkpt>
      <trkpt lat="43.50256" lon="3.46287">
        <ele>18.5</ele>
        <time>2018-09-25T18:29:41.819Z</time>
      </trkpt>
      <trkpt lat="43.50252" lon="3.46289">
        <ele>18.7</ele>
        <time>2018-09-25T18:29:42.819Z</time>
      </trkpt>
      <trkpt lat="43.50249" lon="3.46293">
        <ele>18.9</ele>
        <time>2018-09-25T18:29:43.819Z</time>
      </trkpt>
      <trkpt lat="43.50246" lon="3.46299">
        <ele>19.2</ele>
        <time>2018-09-25T18:29:44.819Z</time>
      </trkpt>
      <trkpt lat="43.50244" lon="3.46303">
        <ele>19.4</ele>
        <time>2018-09-25T18:29:45.819Z</time>
      </trkpt>
      <trkpt lat="43.50242" lon="3.46307">
        <ele>19.7</ele>
        <time>2018-09-25T18:29:46.819Z</time>
      </trkpt>
      <trkpt lat="43.5024" lon="3.46311">
        <ele>19.9</ele>
        <time>2018-09-25T18:29:47.819Z</time>
      </trkpt>
      <trkpt lat="43.50236" lon="3.46312">
        <ele>19.9</ele>
        <time>2018-09-25T18:29:48.819Z</time>
      </trkpt>
      <trkpt lat="43.50233" lon="3.46313">
        <ele>20</ele>
        <time>2018-09-25T18:29:49.819Z</time>
      </trkpt>
      <trkpt lat="43.50228" lon="3.46316">
        <ele>19.9</ele>
        <time>2018-09-25T18:29:51.819Z</time>
      </trkpt>
      <trkpt lat="43.50225" lon="3.46316">
        <ele>19.9</ele>
        <time>2018-09-25T18:29:52.819Z</time>
      </trkpt>
      <trkpt lat="43.50221" lon="3.46316">
        <ele>19.9</ele>
        <time>2018-09-25T18:29:53.819Z</time>
      </trkpt>
      <trkpt lat="43.50217" lon="3.46316">
        <ele>19.8</ele>
        <time>2018-09-25T18:29:54.819Z</time>
      </trkpt>
      <trkpt lat="43.50214" lon="3.46314">
        <ele>19.8</ele>
        <time>2018-09-25T18:29:55.819Z</time>
      </trkpt>
      <trkpt lat="43.50211" lon="3.46314">
        <ele>19.8</ele>
        <time>2018-09-25T18:29:56.819Z</time>
      </trkpt>
      <trkpt lat="43.50208" lon="3.46314">
        <ele>19.8</ele>
        <time>2018-09-25T18:29:57.819Z</time>
      </trkpt>
      <trkpt lat="43.50205" lon="3.46313">
        <ele>19.9</ele>
        <time>2018-09-25T18:29:58.819Z</time>
      </trkpt>
      <trkpt lat="43.50201" lon="3.46313">
        <ele>19.9</ele>
        <time>2018-09-25T18:29:59.819Z</time>
      </trkpt>
      <trkpt lat="43.50199" lon="3.46313">
        <ele>19.9</ele>
        <time>2018-09-25T18:30:00.819Z</time>
      </trkpt>
      <trkpt lat="43.50195" lon="3.46313">
        <ele>19.9</ele>
        <time>2018-09-25T18:30:01.819Z</time>
      </trkpt>
      <trkpt lat="43.50192" lon="3.46312">
        <ele>19.9</ele>
        <time>2018-09-25T18:30:03.819Z</time>
      </trkpt>
      <trkpt lat="43.50189" lon="3.46312">
        <ele>19.9</ele>
        <time>2018-09-25T18:30:04.819Z</time>
      </trkpt>
      <trkpt lat="43.50183" lon="3.46311">
        <ele>19.8</ele>
        <time>2018-09-25T18:30:06.819Z</time>
      </trkpt>
      <trkpt lat="43.5018" lon="3.46311">
        <ele>19.8</ele>
        <time>2018-09-25T18:30:07.819Z</time>
      </trkpt>
      <trkpt lat="43.50176" lon="3.46312">
        <ele>19.8</ele>
        <time>2018-09-25T18:30:08.819Z</time>
      </trkpt>
      <trkpt lat="43.50171" lon="3.46312">
        <ele>19.8</ele>
        <time>2018-09-25T18:30:09.819Z</time>
      </trkpt>
      <trkpt lat="43.50167" lon="3.46313">
        <ele>19.8</ele>
        <time>2018-09-25T18:30:10.819Z</time>
      </trkpt>
      <trkpt lat="43.50163" lon="3.46313">
        <ele>19.8</ele>
        <time>2018-09-25T18:30:11.819Z</time>
      </trkpt>
      <trkpt lat="43.50158" lon="3.46312">
        <ele>19.8</ele>
        <time>2018-09-25T18:30:13.819Z</time>
      </trkpt>
      <trkpt lat="43.50154" lon="3.46309">
        <ele>19.7</ele>
        <time>2018-09-25T18:30:14.819Z</time>
      </trkpt>
      <trkpt lat="43.50149" lon="3.46306">
        <ele>19.7</ele>
        <time>2018-09-25T18:30:15.819Z</time>
      </trkpt>
      <trkpt lat="43.50144" lon="3.46304">
        <ele>19.4</ele>
        <time>2018-09-25T18:30:16.819Z</time>
      </trkpt>
      <trkpt lat="43.50141" lon="3.46303">
        <ele>19.4</ele>
        <time>2018-09-25T18:30:17.819Z</time>
      </trkpt>
      <trkpt lat="43.50138" lon="3.46301">
        <ele>19.1</ele>
        <time>2018-09-25T18:30:18.819Z</time>
      </trkpt>
      <trkpt lat="43.50135" lon="3.463">
        <ele>19.1</ele>
        <time>2018-09-25T18:30:19.819Z</time>
      </trkpt>
      <trkpt lat="43.50131" lon="3.463">
        <ele>19.1</ele>
        <time>2018-09-25T18:30:20.819Z</time>
      </trkpt>
      <trkpt lat="43.50127" lon="3.46298">
        <ele>19</ele>
        <time>2018-09-25T18:30:22.819Z</time>
      </trkpt>
      <trkpt lat="43.50124" lon="3.46298">
        <ele>19</ele>
        <time>2018-09-25T18:30:23.819Z</time>
      </trkpt>
      <trkpt lat="43.5012" lon="3.46299">
        <ele>18.9</ele>
        <time>2018-09-25T18:30:24.819Z</time>
      </trkpt>
      <trkpt lat="43.50115" lon="3.463">
        <ele>18.8</ele>
        <time>2018-09-25T18:30:25.819Z</time>
      </trkpt>
      <trkpt lat="43.50111" lon="3.46298">
        <ele>18.7</ele>
        <time>2018-09-25T18:30:26.819Z</time>
      </trkpt>
      <trkpt lat="43.50107" lon="3.46299">
        <ele>18.7</ele>
        <time>2018-09-25T18:30:27.819Z</time>
      </trkpt>
      <trkpt lat="43.50104" lon="3.46299">
        <ele>18.6</ele>
        <time>2018-09-25T18:30:28.819Z</time>
      </trkpt>
      <trkpt lat="43.50101" lon="3.46298">
        <ele>18.5</ele>
        <time>2018-09-25T18:30:29.819Z</time>
      </trkpt>
      <trkpt lat="43.50098" lon="3.46296">
        <ele>18.4</ele>
        <time>2018-09-25T18:30:30.819Z</time>
      </trkpt>
      <trkpt lat="43.50094" lon="3.46295">
        <ele>18.4</ele>
        <time>2018-09-25T18:30:31.819Z</time>
      </trkpt>
      <trkpt lat="43.50091" lon="3.46294">
        <ele>18.3</ele>
        <time>2018-09-25T18:30:32.819Z</time>
      </trkpt>
      <trkpt lat="43.50085" lon="3.46294">
        <ele>18.3</ele>
        <time>2018-09-25T18:30:34.819Z</time>
      </trkpt>
      <trkpt lat="43.50081" lon="3.46294">
        <ele>18.2</ele>
        <time>2018-09-25T18:30:35.819Z</time>
      </trkpt>
      <trkpt lat="43.50076" lon="3.46293">
        <ele>18.2</ele>
        <time>2018-09-25T18:30:37.819Z</time>
      </trkpt>
      <trkpt lat="43.50072" lon="3.46294">
        <ele>18.2</ele>
        <time>2018-09-25T18:30:38.819Z</time>
      </trkpt>
      <trkpt lat="43.50069" lon="3.46295">
        <ele>18.2</ele>
        <time>2018-09-25T18:30:39.819Z</time>
      </trkpt>
      <trkpt lat="43.50064" lon="3.46294">
        <ele>18.1</ele>
        <time>2018-09-25T18:30:41.819Z</time>
      </trkpt>
      <trkpt lat="43.50061" lon="3.46294">
        <ele>18.1</ele>
        <time>2018-09-25T18:30:42.819Z</time>
      </trkpt>
      <trkpt lat="43.50058" lon="3.46294">
        <ele>18.1</ele>
        <time>2018-09-25T18:30:43.819Z</time>
      </trkpt>
      <trkpt lat="43.50055" lon="3.46295">
        <ele>18.1</ele>
        <time>2018-09-25T18:30:44.819Z</time>
      </trkpt>
      <trkpt lat="43.50052" lon="3.46295">
        <ele>18.1</ele>
        <time>2018-09-25T18:30:45.819Z</time>
      </trkpt>
      <trkpt lat="43.50048" lon="3.46297">
        <ele>18.1</ele>
        <time>2018-09-25T18:30:47.819Z</time>
      </trkpt>
      <trkpt lat="43.50044" lon="3.46298">
        <ele>18.1</ele>
        <time>2018-09-25T18:30:49.819Z</time>
      </trkpt>
      <trkpt lat="43.50041" lon="3.46298">
        <ele>18.1</ele>
        <time>2018-09-25T18:30:50.819Z</time>
      </trkpt>
      <trkpt lat="43.50038" lon="3.46299">
        <ele>18.1</ele>
        <time>2018-09-25T18:30:51.819Z</time>
      </trkpt>
      <trkpt lat="43.50032" lon="3.46299">
        <ele>18.1</ele>
        <time>2018-09-25T18:30:53.819Z</time>
      </trkpt>
      <trkpt lat="43.50028" lon="3.463">
        <ele>18.1</ele>
        <time>2018-09-25T18:30:54.819Z</time>
      </trkpt>
      <trkpt lat="43.50025" lon="3.463">
        <ele>18.1</ele>
        <time>2018-09-25T18:30:55.819Z</time>
      </trkpt>
      <trkpt lat="43.50021" lon="3.46301">
        <ele>18.1</ele>
        <time>2018-09-25T18:30:56.819Z</time>
      </trkpt>
      <trkpt lat="43.50019" lon="3.46303">
        <ele>18.1</ele>
        <time>2018-09-25T18:30:57.819Z</time>
      </trkpt>
      <trkpt lat="43.50015" lon="3.46308">
        <ele>18.2</ele>
        <time>2018-09-25T18:30:59.819Z</time>
      </trkpt>
      <trkpt lat="43.50013" lon="3.46312">
        <ele>18.3</ele>
        <time>2018-09-25T18:31:00.819Z</time>
      </trkpt>
      <trkpt lat="43.50013" lon="3.46318">
        <ele>18.5</ele>
        <time>2018-09-25T18:31:02.819Z</time>
      </trkpt>
      <trkpt lat="43.50013" lon="3.46323">
        <ele>18.7</ele>
        <time>2018-09-25T18:31:03.819Z</time>
      </trkpt>
      <trkpt lat="43.50012" lon="3.46327">
        <ele>19.3</ele>
        <time>2018-09-25T18:31:04.819Z</time>
      </trkpt>
      <trkpt lat="43.50011" lon="3.46332">
        <ele>19.5</ele>
        <time>2018-09-25T18:31:05.819Z</time>
      </trkpt>
      <trkpt lat="43.50009" lon="3.46337">
        <ele>19.6</ele>
        <time>2018-09-25T18:31:06.819Z</time>
      </trkpt>
      <trkpt lat="43.50007" lon="3.46342">
        <ele>19.5</ele>
        <time>2018-09-25T18:31:07.819Z</time>
      </trkpt>
      <trkpt lat="43.50006" lon="3.46345">
        <ele>19.1</ele>
        <time>2018-09-25T18:31:08.819Z</time>
      </trkpt>
      <trkpt lat="43.50005" lon="3.46349">
        <ele>18.6</ele>
        <time>2018-09-25T18:31:09.819Z</time>
      </trkpt>
      <trkpt lat="43.50003" lon="3.46353">
        <ele>17.7</ele>
        <time>2018-09-25T18:31:10.819Z</time>
      </trkpt>
      <trkpt lat="43.5" lon="3.46356">
        <ele>17.7</ele>
        <time>2018-09-25T18:31:11.819Z</time>
      </trkpt>
      <trkpt lat="43.49998" lon="3.46359">
        <ele>16.7</ele>
        <time>2018-09-25T18:31:12.819Z</time>
      </trkpt>
      <trkpt lat="43.49995" lon="3.46363">
        <ele>15.6</ele>
        <time>2018-09-25T18:31:13.819Z</time>
      </trkpt>
      <trkpt lat="43.49991" lon="3.46367">
        <ele>15</ele>
        <time>2018-09-25T18:31:14.819Z</time>
      </trkpt>
      <trkpt lat="43.49988" lon="3.4637">
        <ele>14.5</ele>
        <time>2018-09-25T18:31:15.819Z</time>
      </trkpt>
      <trkpt lat="43.49985" lon="3.46374">
        <ele>14.9</ele>
        <time>2018-09-25T18:31:16.819Z</time>
      </trkpt>
      <trkpt lat="43.49982" lon="3.46377">
        <ele>14.4</ele>
        <time>2018-09-25T18:31:17.819Z</time>
      </trkpt>
      <trkpt lat="43.4998" lon="3.46381">
        <ele>14.5</ele>
        <time>2018-09-25T18:31:18.819Z</time>
      </trkpt>
      <trkpt lat="43.49977" lon="3.46383">
        <ele>14.5</ele>
        <time>2018-09-25T18:31:19.819Z</time>
      </trkpt>
      <trkpt lat="43.49975" lon="3.46386">
        <ele>15</ele>
        <time>2018-09-25T18:31:20.819Z</time>
      </trkpt>
      <trkpt lat="43.49973" lon="3.46389">
        <ele>14.5</ele>
        <time>2018-09-25T18:31:21.819Z</time>
      </trkpt>
      <trkpt lat="43.49969" lon="3.46391">
        <ele>15.2</ele>
        <time>2018-09-25T18:31:22.819Z</time>
      </trkpt>
      <trkpt lat="43.49965" lon="3.46391">
        <ele>15.6</ele>
        <time>2018-09-25T18:31:23.819Z</time>
      </trkpt>
      <trkpt lat="43.49961" lon="3.46393">
        <ele>15.2</ele>
        <time>2018-09-25T18:31:24.819Z</time>
      </trkpt>
      <trkpt lat="43.49958" lon="3.46395">
        <ele>15.6</ele>
        <time>2018-09-25T18:31:25.819Z</time>
      </trkpt>
      <trkpt lat="43.49955" lon="3.46397">
        <ele>15.2</ele>
        <time>2018-09-25T18:31:26.819Z</time>
      </trkpt>
      <trkpt lat="43.49951" lon="3.464">
        <ele>15.1</ele>
        <time>2018-09-25T18:31:27.819Z</time>
      </trkpt>
      <trkpt lat="43.49948" lon="3.46402">
        <ele>15.6</ele>
        <time>2018-09-25T18:31:28.819Z</time>
      </trkpt>
      <trkpt lat="43.49945" lon="3.46403">
        <ele>16.1</ele>
        <time>2018-09-25T18:31:29.819Z</time>
      </trkpt>
      <trkpt lat="43.49941" lon="3.46405">
        <ele>16.2</ele>
        <time>2018-09-25T18:31:30.819Z</time>
      </trkpt>
      <trkpt lat="43.49938" lon="3.46407">
        <ele>17.2</ele>
        <time>2018-09-25T18:31:31.819Z</time>
      </trkpt>
      <trkpt lat="43.49934" lon="3.46409">
        <ele>17</ele>
        <time>2018-09-25T18:31:32.819Z</time>
      </trkpt>
      <trkpt lat="43.49931" lon="3.4641">
        <ele>17.3</ele>
        <time>2018-09-25T18:31:33.819Z</time>
      </trkpt>
      <trkpt lat="43.49928" lon="3.46413">
        <ele>16.6</ele>
        <time>2018-09-25T18:31:34.819Z</time>
      </trkpt>
      <trkpt lat="43.49924" lon="3.46415">
        <ele>16.6</ele>
        <time>2018-09-25T18:31:35.819Z</time>
      </trkpt>
      <trkpt lat="43.49921" lon="3.46417">
        <ele>16.6</ele>
        <time>2018-09-25T18:31:36.819Z</time>
      </trkpt>
      <trkpt lat="43.49917" lon="3.4642">
        <ele>15.6</ele>
        <time>2018-09-25T18:31:37.819Z</time>
      </trkpt>
      <trkpt lat="43.49915" lon="3.46422">
        <ele>14.7</ele>
        <time>2018-09-25T18:31:38.819Z</time>
      </trkpt>
      <trkpt lat="43.49911" lon="3.46425">
        <ele>14.7</ele>
        <time>2018-09-25T18:31:40.819Z</time>
      </trkpt>
      <trkpt lat="43.49907" lon="3.46427">
        <ele>14.3</ele>
        <time>2018-09-25T18:31:41.819Z</time>
      </trkpt>
      <trkpt lat="43.49904" lon="3.46429">
        <ele>14.6</ele>
        <time>2018-09-25T18:31:42.819Z</time>
      </trkpt>
      <trkpt lat="43.499" lon="3.46432">
        <ele>14.5</ele>
        <time>2018-09-25T18:31:43.819Z</time>
      </trkpt>
      <trkpt lat="43.49896" lon="3.46434">
        <ele>14.6</ele>
        <time>2018-09-25T18:31:44.819Z</time>
      </trkpt>
      <trkpt lat="43.49893" lon="3.46435">
        <ele>15.2</ele>
        <time>2018-09-25T18:31:45.819Z</time>
      </trkpt>
      <trkpt lat="43.4989" lon="3.46438">
        <ele>15.7</ele>
        <time>2018-09-25T18:31:46.819Z</time>
      </trkpt>
      <trkpt lat="43.49887" lon="3.46442">
        <ele>15.8</ele>
        <time>2018-09-25T18:31:48.819Z</time>
      </trkpt>
      <trkpt lat="43.49883" lon="3.46443">
        <ele>15.7</ele>
        <time>2018-09-25T18:31:49.819Z</time>
      </trkpt>
      <trkpt lat="43.49878" lon="3.46444">
        <ele>16.2</ele>
        <time>2018-09-25T18:31:50.819Z</time>
      </trkpt>
      <trkpt lat="43.49875" lon="3.46446">
        <ele>16.4</ele>
        <time>2018-09-25T18:31:51.819Z</time>
      </trkpt>
      <trkpt lat="43.49871" lon="3.46448">
        <ele>15.5</ele>
        <time>2018-09-25T18:31:52.819Z</time>
      </trkpt>
      <trkpt lat="43.49868" lon="3.4645">
        <ele>15.4</ele>
        <time>2018-09-25T18:31:53.819Z</time>
      </trkpt>
      <trkpt lat="43.49865" lon="3.46452">
        <ele>14.4</ele>
        <time>2018-09-25T18:31:54.819Z</time>
      </trkpt>
      <trkpt lat="43.49861" lon="3.46454">
        <ele>14.3</ele>
        <time>2018-09-25T18:31:55.819Z</time>
      </trkpt>
      <trkpt lat="43.49858" lon="3.46456">
        <ele>13.6</ele>
        <time>2018-09-25T18:31:56.819Z</time>
      </trkpt>
      <trkpt lat="43.49855" lon="3.46457">
        <ele>13.6</ele>
        <time>2018-09-25T18:31:57.819Z</time>
      </trkpt>
      <trkpt lat="43.49851" lon="3.46461">
        <ele>13.6</ele>
        <time>2018-09-25T18:31:59.819Z</time>
      </trkpt>
      <trkpt lat="43.49846" lon="3.46463">
        <ele>13.9</ele>
        <time>2018-09-25T18:32:01.819Z</time>
      </trkpt>
      <trkpt lat="43.49842" lon="3.46464">
        <ele>14.3</ele>
        <time>2018-09-25T18:32:02.819Z</time>
      </trkpt>
      <trkpt lat="43.49838" lon="3.46465">
        <ele>14.9</ele>
        <time>2018-09-25T18:32:03.819Z</time>
      </trkpt>
      <trkpt lat="43.49836" lon="3.46466">
        <ele>14.9</ele>
        <time>2018-09-25T18:32:04.819Z</time>
      </trkpt>
      <trkpt lat="43.49831" lon="3.46468">
        <ele>15.9</ele>
        <time>2018-09-25T18:32:06.819Z</time>
      </trkpt>
      <trkpt lat="43.49828" lon="3.46466">
        <ele>16.4</ele>
        <time>2018-09-25T18:32:07.819Z</time>
      </trkpt>
      <trkpt lat="43.49825" lon="3.46463">
        <ele>17.7</ele>
        <time>2018-09-25T18:32:08.819Z</time>
      </trkpt>
      <trkpt lat="43.49822" lon="3.46461">
        <ele>18.2</ele>
        <time>2018-09-25T18:32:09.819Z</time>
      </trkpt>
      <trkpt lat="43.49821" lon="3.46457">
        <ele>18.8</ele>
        <time>2018-09-25T18:32:10.819Z</time>
      </trkpt>
      <trkpt lat="43.4982" lon="3.46451">
        <ele>19.2</ele>
        <time>2018-09-25T18:32:11.819Z</time>
      </trkpt>
      <trkpt lat="43.49819" lon="3.46447">
        <ele>19.8</ele>
        <time>2018-09-25T18:32:12.819Z</time>
      </trkpt>
      <trkpt lat="43.49819" lon="3.46441">
        <ele>19.7</ele>
        <time>2018-09-25T18:32:13.819Z</time>
      </trkpt>
      <trkpt lat="43.49818" lon="3.46437">
        <ele>19.6</ele>
        <time>2018-09-25T18:32:14.819Z</time>
      </trkpt>
      <trkpt lat="43.49818" lon="3.46429">
        <ele>19.4</ele>
        <time>2018-09-25T18:32:16.819Z</time>
      </trkpt>
      <trkpt lat="43.49817" lon="3.46423">
        <ele>19.3</ele>
        <time>2018-09-25T18:32:17.819Z</time>
      </trkpt>
      <trkpt lat="43.49817" lon="3.46416">
        <ele>19.3</ele>
        <time>2018-09-25T18:32:18.819Z</time>
      </trkpt>
      <trkpt lat="43.49816" lon="3.4641">
        <ele>19.4</ele>
        <time>2018-09-25T18:32:19.819Z</time>
      </trkpt>
      <trkpt lat="43.49815" lon="3.46405">
        <ele>19.5</ele>
        <time>2018-09-25T18:32:20.819Z</time>
      </trkpt>
      <trkpt lat="43.49815" lon="3.46401">
        <ele>19.5</ele>
        <time>2018-09-25T18:32:21.819Z</time>
      </trkpt>
      <trkpt lat="43.49813" lon="3.46394">
        <ele>19.5</ele>
        <time>2018-09-25T18:32:23.819Z</time>
      </trkpt>
      <trkpt lat="43.49812" lon="3.46389">
        <ele>19.5</ele>
        <time>2018-09-25T18:32:24.819Z</time>
      </trkpt>
      <trkpt lat="43.49813" lon="3.46385">
        <ele>19.4</ele>
        <time>2018-09-25T18:32:25.819Z</time>
      </trkpt>
      <trkpt lat="43.49813" lon="3.46381">
        <ele>19.4</ele>
        <time>2018-09-25T18:32:26.819Z</time>
      </trkpt>
      <trkpt lat="43.49813" lon="3.46372">
        <ele>19.3</ele>
        <time>2018-09-25T18:32:28.819Z</time>
      </trkpt>
      <trkpt lat="43.49813" lon="3.46365">
        <ele>19.2</ele>
        <time>2018-09-25T18:32:30.819Z</time>
      </trkpt>
      <trkpt lat="43.49814" lon="3.46359">
        <ele>19.2</ele>
        <time>2018-09-25T18:32:32.819Z</time>
      </trkpt>
      <trkpt lat="43.49814" lon="3.46353">
        <ele>19.1</ele>
        <time>2018-09-25T18:32:34.819Z</time>
      </trkpt>
      <trkpt lat="43.49813" lon="3.46346">
        <ele>19.1</ele>
        <time>2018-09-25T18:32:36.819Z</time>
      </trkpt>
      <trkpt lat="43.49812" lon="3.46342">
        <ele>19.1</ele>
        <time>2018-09-25T18:32:37.819Z</time>
      </trkpt>
      <trkpt lat="43.4981" lon="3.46336">
        <ele>19.1</ele>
        <time>2018-09-25T18:32:38.819Z</time>
      </trkpt>
      <trkpt lat="43.49808" lon="3.46331">
        <ele>19.1</ele>
        <time>2018-09-25T18:32:39.819Z</time>
      </trkpt>
      <trkpt lat="43.49805" lon="3.46329">
        <ele>19.1</ele>
        <time>2018-09-25T18:32:40.819Z</time>
      </trkpt>
      <trkpt lat="43.49802" lon="3.46329">
        <ele>19.2</ele>
        <time>2018-09-25T18:32:41.819Z</time>
      </trkpt>
      <trkpt lat="43.49799" lon="3.46326">
        <ele>19.2</ele>
        <time>2018-09-25T18:32:43.819Z</time>
      </trkpt>
      <trkpt lat="43.49801" lon="3.46319">
        <ele>19.1</ele>
        <time>2018-09-25T18:32:45.819Z</time>
      </trkpt>
      <trkpt lat="43.49802" lon="3.46315">
        <ele>19</ele>
        <time>2018-09-25T18:32:46.819Z</time>
      </trkpt>
      <trkpt lat="43.49804" lon="3.46312">
        <ele>18.9</ele>
        <time>2018-09-25T18:32:47.819Z</time>
      </trkpt>
      <trkpt lat="43.49802" lon="3.46303">
        <ele>18.8</ele>
        <time>2018-09-25T18:32:49.819Z</time>
      </trkpt>
      <trkpt lat="43.49803" lon="3.46298">
        <ele>18.8</ele>
        <time>2018-09-25T18:32:50.819Z</time>
      </trkpt>
      <trkpt lat="43.49804" lon="3.46294">
        <ele>18.7</ele>
        <time>2018-09-25T18:32:51.819Z</time>
      </trkpt>
      <trkpt lat="43.49805" lon="3.4629">
        <ele>18.6</ele>
        <time>2018-09-25T18:32:52.819Z</time>
      </trkpt>
      <trkpt lat="43.49806" lon="3.46285">
        <ele>18.6</ele>
        <time>2018-09-25T18:32:53.819Z</time>
      </trkpt>
      <trkpt lat="43.49807" lon="3.46279">
        <ele>18.5</ele>
        <time>2018-09-25T18:32:54.819Z</time>
      </trkpt>
      <trkpt lat="43.49809" lon="3.46275">
        <ele>18.4</ele>
        <time>2018-09-25T18:32:55.819Z</time>
      </trkpt>
      <trkpt lat="43.49811" lon="3.4627">
        <ele>18.3</ele>
        <time>2018-09-25T18:32:56.819Z</time>
      </trkpt>
      <trkpt lat="43.49812" lon="3.46266">
        <ele>18.3</ele>
        <time>2018-09-25T18:32:57.819Z</time>
      </trkpt>
      <trkpt lat="43.49812" lon="3.46261">
        <ele>18.3</ele>
        <time>2018-09-25T18:32:58.819Z</time>
      </trkpt>
      <trkpt lat="43.49813" lon="3.46256">
        <ele>18.3</ele>
        <time>2018-09-25T18:32:59.819Z</time>
      </trkpt>
      <trkpt lat="43.49814" lon="3.46252">
        <ele>18.2</ele>
        <time>2018-09-25T18:33:00.819Z</time>
      </trkpt>
      <trkpt lat="43.49815" lon="3.46248">
        <ele>18.2</ele>
        <time>2018-09-25T18:33:01.819Z</time>
      </trkpt>
      <trkpt lat="43.49815" lon="3.46244">
        <ele>18.3</ele>
        <time>2018-09-25T18:33:02.819Z</time>
      </trkpt>
      <trkpt lat="43.49815" lon="3.4624">
        <ele>18.3</ele>
        <time>2018-09-25T18:33:03.819Z</time>
      </trkpt>
      <trkpt lat="43.49815" lon="3.46235">
        <ele>18.3</ele>
        <time>2018-09-25T18:33:04.819Z</time>
      </trkpt>
      <trkpt lat="43.49816" lon="3.46232">
        <ele>18.4</ele>
        <time>2018-09-25T18:33:05.819Z</time>
      </trkpt>
      <trkpt lat="43.49818" lon="3.46227">
        <ele>18.4</ele>
        <time>2018-09-25T18:33:06.819Z</time>
      </trkpt>
      <trkpt lat="43.4982" lon="3.46221">
        <ele>18.4</ele>
        <time>2018-09-25T18:33:07.819Z</time>
      </trkpt>
      <trkpt lat="43.49821" lon="3.46214">
        <ele>18.5</ele>
        <time>2018-09-25T18:33:08.819Z</time>
      </trkpt>
      <trkpt lat="43.49823" lon="3.4621">
        <ele>18.5</ele>
        <time>2018-09-25T18:33:09.819Z</time>
      </trkpt>
      <trkpt lat="43.49826" lon="3.46205">
        <ele>18.6</ele>
        <time>2018-09-25T18:33:10.819Z</time>
      </trkpt>
      <trkpt lat="43.49826" lon="3.46199">
        <ele>18.7</ele>
        <time>2018-09-25T18:33:11.819Z</time>
      </trkpt>
      <trkpt lat="43.49828" lon="3.46193">
        <ele>18.8</ele>
        <time>2018-09-25T18:33:12.819Z</time>
      </trkpt>
      <trkpt lat="43.49829" lon="3.46189">
        <ele>18.9</ele>
        <time>2018-09-25T18:33:13.819Z</time>
      </trkpt>
      <trkpt lat="43.4983" lon="3.46182">
        <ele>18.9</ele>
        <time>2018-09-25T18:33:15.819Z</time>
      </trkpt>
      <trkpt lat="43.49829" lon="3.46178">
        <ele>19.1</ele>
        <time>2018-09-25T18:33:16.819Z</time>
      </trkpt>
      <trkpt lat="43.49829" lon="3.46173">
        <ele>19.2</ele>
        <time>2018-09-25T18:33:17.819Z</time>
      </trkpt>
      <trkpt lat="43.49831" lon="3.4617">
        <ele>19.3</ele>
        <time>2018-09-25T18:33:18.819Z</time>
      </trkpt>
      <trkpt lat="43.49833" lon="3.46166">
        <ele>19.4</ele>
        <time>2018-09-25T18:33:19.819Z</time>
      </trkpt>
      <trkpt lat="43.49836" lon="3.46163">
        <ele>19.4</ele>
        <time>2018-09-25T18:33:21.819Z</time>
      </trkpt>
      <trkpt lat="43.49839" lon="3.46157">
        <ele>19.5</ele>
        <time>2018-09-25T18:33:23.819Z</time>
      </trkpt>
      <trkpt lat="43.49842" lon="3.46155">
        <ele>19.6</ele>
        <time>2018-09-25T18:33:24.819Z</time>
      </trkpt>
      <trkpt lat="43.49843" lon="3.4615">
        <ele>19.7</ele>
        <time>2018-09-25T18:33:25.819Z</time>
      </trkpt>
      <trkpt lat="43.49845" lon="3.46144">
        <ele>19.8</ele>
        <time>2018-09-25T18:33:26.819Z</time>
      </trkpt>
      <trkpt lat="43.49849" lon="3.4614">
        <ele>19.8</ele>
        <time>2018-09-25T18:33:27.819Z</time>
      </trkpt>
      <trkpt lat="43.49852" lon="3.46135">
        <ele>19.8</ele>
        <time>2018-09-25T18:33:28.819Z</time>
      </trkpt>
      <trkpt lat="43.49854" lon="3.46131">
        <ele>19.8</ele>
        <time>2018-09-25T18:33:29.819Z</time>
      </trkpt>
      <trkpt lat="43.49859" lon="3.46125">
        <ele>19.9</ele>
        <time>2018-09-25T18:33:31.819Z</time>
      </trkpt>
      <trkpt lat="43.49862" lon="3.46121">
        <ele>19.8</ele>
        <time>2018-09-25T18:33:32.819Z</time>
      </trkpt>
      <trkpt lat="43.49865" lon="3.46117">
        <ele>19.6</ele>
        <time>2018-09-25T18:33:33.819Z</time>
      </trkpt>
      <trkpt lat="43.49869" lon="3.46114">
        <ele>19.5</ele>
        <time>2018-09-25T18:33:35.819Z</time>
      </trkpt>
      <trkpt lat="43.49869" lon="3.46108">
        <ele>19.6</ele>
        <time>2018-09-25T18:33:37.819Z</time>
      </trkpt>
      <trkpt lat="43.49865" lon="3.46109">
        <ele>19.8</ele>
        <time>2018-09-25T18:33:39.819Z</time>
      </trkpt>
      <trkpt lat="43.4986" lon="3.46111">
        <ele>20.1</ele>
        <time>2018-09-25T18:33:40.819Z</time>
      </trkpt>
      <trkpt lat="43.49855" lon="3.46113">
        <ele>20.3</ele>
        <time>2018-09-25T18:33:41.819Z</time>
      </trkpt>
      <trkpt lat="43.4985" lon="3.46115">
        <ele>20.5</ele>
        <time>2018-09-25T18:33:42.819Z</time>
      </trkpt>
      <trkpt lat="43.49845" lon="3.46118">
        <ele>20.7</ele>
        <time>2018-09-25T18:33:43.819Z</time>
      </trkpt>
      <trkpt lat="43.4984" lon="3.46121">
        <ele>20.8</ele>
        <time>2018-09-25T18:33:44.819Z</time>
      </trkpt>
      <trkpt lat="43.49834" lon="3.46124">
        <ele>21</ele>
        <time>2018-09-25T18:33:45.819Z</time>
      </trkpt>
      <trkpt lat="43.49828" lon="3.46125">
        <ele>21.1</ele>
        <time>2018-09-25T18:33:46.819Z</time>
      </trkpt>
      <trkpt lat="43.49823" lon="3.46123">
        <ele>21.2</ele>
        <time>2018-09-25T18:33:47.819Z</time>
      </trkpt>
      <trkpt lat="43.49818" lon="3.46122">
        <ele>21.4</ele>
        <time>2018-09-25T18:33:48.819Z</time>
      </trkpt>
      <trkpt lat="43.49814" lon="3.46121">
        <ele>21.5</ele>
        <time>2018-09-25T18:33:49.819Z</time>
      </trkpt>
      <trkpt lat="43.4981" lon="3.46121">
        <ele>21.6</ele>
        <time>2018-09-25T18:33:50.819Z</time>
      </trkpt>
      <trkpt lat="43.49807" lon="3.4612">
        <ele>21.7</ele>
        <time>2018-09-25T18:33:51.819Z</time>
      </trkpt>
      <trkpt lat="43.49804" lon="3.46119">
        <ele>21.8</ele>
        <time>2018-09-25T18:33:52.819Z</time>
      </trkpt>
      <trkpt lat="43.49799" lon="3.46117">
        <ele>22.1</ele>
        <time>2018-09-25T18:33:54.819Z</time>
      </trkpt>
      <trkpt lat="43.49796" lon="3.46117">
        <ele>22.2</ele>
        <time>2018-09-25T18:33:55.819Z</time>
      </trkpt>
      <trkpt lat="43.49793" lon="3.46116">
        <ele>22.3</ele>
        <time>2018-09-25T18:33:56.819Z</time>
      </trkpt>
      <trkpt lat="43.49788" lon="3.46115">
        <ele>22.4</ele>
        <time>2018-09-25T18:33:58.819Z</time>
      </trkpt>
      <trkpt lat="43.49785" lon="3.46112">
        <ele>22.6</ele>
        <time>2018-09-25T18:34:00.819Z</time>
      </trkpt>
      <trkpt lat="43.49782" lon="3.46113">
        <ele>22.7</ele>
        <time>2018-09-25T18:34:01.819Z</time>
      </trkpt>
      <trkpt lat="43.49778" lon="3.46113">
        <ele>22.8</ele>
        <time>2018-09-25T18:34:03.819Z</time>
      </trkpt>
      <trkpt lat="43.49773" lon="3.4611">
        <ele>23</ele>
        <time>2018-09-25T18:34:05.819Z</time>
      </trkpt>
      <trkpt lat="43.49771" lon="3.46109">
        <ele>23</ele>
        <time>2018-09-25T18:34:06.819Z</time>
      </trkpt>
      <trkpt lat="43.49768" lon="3.46108">
        <ele>23</ele>
        <time>2018-09-25T18:34:07.819Z</time>
      </trkpt>
      <trkpt lat="43.49765" lon="3.46106">
        <ele>23</ele>
        <time>2018-09-25T18:34:08.819Z</time>
      </trkpt>
      <trkpt lat="43.49762" lon="3.46105">
        <ele>22.9</ele>
        <time>2018-09-25T18:34:09.819Z</time>
      </trkpt>
      <trkpt lat="43.49759" lon="3.46104">
        <ele>22.9</ele>
        <time>2018-09-25T18:34:10.819Z</time>
      </trkpt>
      <trkpt lat="43.49755" lon="3.46102">
        <ele>22.7</ele>
        <time>2018-09-25T18:34:11.819Z</time>
      </trkpt>
      <trkpt lat="43.49751" lon="3.46101">
        <ele>22.5</ele>
        <time>2018-09-25T18:34:12.819Z</time>
      </trkpt>
      <trkpt lat="43.49747" lon="3.46101">
        <ele>22.2</ele>
        <time>2018-09-25T18:34:13.819Z</time>
      </trkpt>
      <trkpt lat="43.49743" lon="3.461">
        <ele>21.8</ele>
        <time>2018-09-25T18:34:14.819Z</time>
      </trkpt>
      <trkpt lat="43.4974" lon="3.461">
        <ele>21.5</ele>
        <time>2018-09-25T18:34:15.819Z</time>
      </trkpt>
      <trkpt lat="43.49737" lon="3.461">
        <ele>21.1</ele>
        <time>2018-09-25T18:34:16.819Z</time>
      </trkpt>
      <trkpt lat="43.49733" lon="3.46098">
        <ele>20.6</ele>
        <time>2018-09-25T18:34:17.819Z</time>
      </trkpt>
      <trkpt lat="43.49729" lon="3.46098">
        <ele>20</ele>
        <time>2018-09-25T18:34:18.819Z</time>
      </trkpt>
      <trkpt lat="43.49726" lon="3.46098">
        <ele>19.6</ele>
        <time>2018-09-25T18:34:19.819Z</time>
      </trkpt>
      <trkpt lat="43.49722" lon="3.46098">
        <ele>19.1</ele>
        <time>2018-09-25T18:34:20.819Z</time>
      </trkpt>
      <trkpt lat="43.49718" lon="3.46098">
        <ele>18.8</ele>
        <time>2018-09-25T18:34:21.819Z</time>
      </trkpt>
      <trkpt lat="43.49713" lon="3.46097">
        <ele>18.4</ele>
        <time>2018-09-25T18:34:22.819Z</time>
      </trkpt>
      <trkpt lat="43.49708" lon="3.46096">
        <ele>18</ele>
        <time>2018-09-25T18:34:23.819Z</time>
      </trkpt>
      <trkpt lat="43.49705" lon="3.46095">
        <ele>17.6</ele>
        <time>2018-09-25T18:34:24.819Z</time>
      </trkpt>
      <trkpt lat="43.497" lon="3.46094">
        <ele>17.3</ele>
        <time>2018-09-25T18:34:25.819Z</time>
      </trkpt>
      <trkpt lat="43.49693" lon="3.46091">
        <ele>16.9</ele>
        <time>2018-09-25T18:34:26.819Z</time>
      </trkpt>
      <trkpt lat="43.49687" lon="3.4609">
        <ele>16.7</ele>
        <time>2018-09-25T18:34:27.819Z</time>
      </trkpt>
      <trkpt lat="43.49683" lon="3.46089">
        <ele>16.7</ele>
        <time>2018-09-25T18:34:28.819Z</time>
      </trkpt>
      <trkpt lat="43.49678" lon="3.46088">
        <ele>16.6</ele>
        <time>2018-09-25T18:34:29.819Z</time>
      </trkpt>
      <trkpt lat="43.49672" lon="3.46087">
        <ele>16.6</ele>
        <time>2018-09-25T18:34:30.819Z</time>
      </trkpt>
      <trkpt lat="43.49665" lon="3.46087">
        <ele>16.6</ele>
        <time>2018-09-25T18:34:31.819Z</time>
      </trkpt>
      <trkpt lat="43.49662" lon="3.46087">
        <ele>16.6</ele>
        <time>2018-09-25T18:34:32.819Z</time>
      </trkpt>
      <trkpt lat="43.49655" lon="3.46086">
        <ele>16.7</ele>
        <time>2018-09-25T18:34:34.819Z</time>
      </trkpt>
      <trkpt lat="43.49652" lon="3.46086">
        <ele>16.8</ele>
        <time>2018-09-25T18:34:35.819Z</time>
      </trkpt>
      <trkpt lat="43.49648" lon="3.46085">
        <ele>16.8</ele>
        <time>2018-09-25T18:34:36.819Z</time>
      </trkpt>
      <trkpt lat="43.49643" lon="3.46083">
        <ele>16.9</ele>
        <time>2018-09-25T18:34:38.819Z</time>
      </trkpt>
      <trkpt lat="43.49637" lon="3.46083">
        <ele>17</ele>
        <time>2018-09-25T18:34:40.819Z</time>
      </trkpt>
      <trkpt lat="43.49634" lon="3.46083">
        <ele>17.1</ele>
        <time>2018-09-25T18:34:41.819Z</time>
      </trkpt>
      <trkpt lat="43.4963" lon="3.46082">
        <ele>17.1</ele>
        <time>2018-09-25T18:34:42.819Z</time>
      </trkpt>
      <trkpt lat="43.49627" lon="3.46082">
        <ele>17.1</ele>
        <time>2018-09-25T18:34:43.819Z</time>
      </trkpt>
      <trkpt lat="43.49621" lon="3.46081">
        <ele>17.2</ele>
        <time>2018-09-25T18:34:45.819Z</time>
      </trkpt>
      <trkpt lat="43.49617" lon="3.46082">
        <ele>17.2</ele>
        <time>2018-09-25T18:34:46.819Z</time>
      </trkpt>
      <trkpt lat="43.49611" lon="3.46082">
        <ele>17.3</ele>
        <time>2018-09-25T18:34:47.819Z</time>
      </trkpt>
      <trkpt lat="43.49606" lon="3.46082">
        <ele>17.3</ele>
        <time>2018-09-25T18:34:48.819Z</time>
      </trkpt>
      <trkpt lat="43.49603" lon="3.46083">
        <ele>17.3</ele>
        <time>2018-09-25T18:34:49.819Z</time>
      </trkpt>
      <trkpt lat="43.496" lon="3.46082">
        <ele>17.4</ele>
        <time>2018-09-25T18:34:50.819Z</time>
      </trkpt>
      <trkpt lat="43.49596" lon="3.46081">
        <ele>17.4</ele>
        <time>2018-09-25T18:34:51.819Z</time>
      </trkpt>
      <trkpt lat="43.49592" lon="3.46081">
        <ele>17.4</ele>
        <time>2018-09-25T18:34:52.819Z</time>
      </trkpt>
      <trkpt lat="43.49588" lon="3.4608">
        <ele>17.4</ele>
        <time>2018-09-25T18:34:53.819Z</time>
      </trkpt>
      <trkpt lat="43.49585" lon="3.46079">
        <ele>17.5</ele>
        <time>2018-09-25T18:34:54.819Z</time>
      </trkpt>
      <trkpt lat="43.49582" lon="3.46079">
        <ele>17.5</ele>
        <time>2018-09-25T18:34:55.819Z</time>
      </trkpt>
      <trkpt lat="43.49579" lon="3.46078">
        <ele>17.6</ele>
        <time>2018-09-25T18:34:56.819Z</time>
      </trkpt>
      <trkpt lat="43.49575" lon="3.46077">
        <ele>17.6</ele>
        <time>2018-09-25T18:34:57.819Z</time>
      </trkpt>
      <trkpt lat="43.49571" lon="3.46076">
        <ele>17.6</ele>
        <time>2018-09-25T18:34:58.819Z</time>
      </trkpt>
      <trkpt lat="43.49567" lon="3.46074">
        <ele>17.7</ele>
        <time>2018-09-25T18:34:59.819Z</time>
      </trkpt>
      <trkpt lat="43.49564" lon="3.46072">
        <ele>17.7</ele>
        <time>2018-09-25T18:35:00.819Z</time>
      </trkpt>
      <trkpt lat="43.49561" lon="3.4607">
        <ele>17.8</ele>
        <time>2018-09-25T18:35:01.819Z</time>
      </trkpt>
      <trkpt lat="43.49556" lon="3.46069">
        <ele>17.9</ele>
        <time>2018-09-25T18:35:02.819Z</time>
      </trkpt>
      <trkpt lat="43.49552" lon="3.46069">
        <ele>18</ele>
        <time>2018-09-25T18:35:03.819Z</time>
      </trkpt>
      <trkpt lat="43.49547" lon="3.46067">
        <ele>18.1</ele>
        <time>2018-09-25T18:35:05.819Z</time>
      </trkpt>
      <trkpt lat="43.49541" lon="3.46065">
        <ele>18.3</ele>
        <time>2018-09-25T18:35:07.819Z</time>
      </trkpt>
      <trkpt lat="43.49539" lon="3.46064">
        <ele>18.4</ele>
        <time>2018-09-25T18:35:08.819Z</time>
      </trkpt>
      <trkpt lat="43.49535" lon="3.46063">
        <ele>18.5</ele>
        <time>2018-09-25T18:35:09.819Z</time>
      </trkpt>
      <trkpt lat="43.49532" lon="3.46062">
        <ele>18.6</ele>
        <time>2018-09-25T18:35:10.819Z</time>
      </trkpt>
      <trkpt lat="43.49528" lon="3.46062">
        <ele>18.6</ele>
        <time>2018-09-25T18:35:11.819Z</time>
      </trkpt>
      <trkpt lat="43.49524" lon="3.46062">
        <ele>18.7</ele>
        <time>2018-09-25T18:35:12.819Z</time>
      </trkpt>
      <trkpt lat="43.49521" lon="3.46062">
        <ele>18.9</ele>
        <time>2018-09-25T18:35:13.819Z</time>
      </trkpt>
      <trkpt lat="43.49518" lon="3.46063">
        <ele>19</ele>
        <time>2018-09-25T18:35:14.819Z</time>
      </trkpt>
      <trkpt lat="43.49515" lon="3.46062">
        <ele>19</ele>
        <time>2018-09-25T18:35:15.819Z</time>
      </trkpt>
      <trkpt lat="43.49512" lon="3.46061">
        <ele>19</ele>
        <time>2018-09-25T18:35:16.819Z</time>
      </trkpt>
      <trkpt lat="43.49509" lon="3.46061">
        <ele>19</ele>
        <time>2018-09-25T18:35:17.819Z</time>
      </trkpt>
      <trkpt lat="43.49505" lon="3.46061">
        <ele>19.2</ele>
        <time>2018-09-25T18:35:18.819Z</time>
      </trkpt>
      <trkpt lat="43.49502" lon="3.46061">
        <ele>19.3</ele>
        <time>2018-09-25T18:35:19.819Z</time>
      </trkpt>
      <trkpt lat="43.49498" lon="3.46061">
        <ele>19.3</ele>
        <time>2018-09-25T18:35:20.819Z</time>
      </trkpt>
      <trkpt lat="43.49494" lon="3.4606">
        <ele>19.3</ele>
        <time>2018-09-25T18:35:21.819Z</time>
      </trkpt>
      <trkpt lat="43.4949" lon="3.4606">
        <ele>19.3</ele>
        <time>2018-09-25T18:35:22.819Z</time>
      </trkpt>
      <trkpt lat="43.49485" lon="3.4606">
        <ele>19.4</ele>
        <time>2018-09-25T18:35:23.819Z</time>
      </trkpt>
      <trkpt lat="43.49481" lon="3.46059">
        <ele>19.4</ele>
        <time>2018-09-25T18:35:24.819Z</time>
      </trkpt>
      <trkpt lat="43.49477" lon="3.46058">
        <ele>19.4</ele>
        <time>2018-09-25T18:35:25.819Z</time>
      </trkpt>
      <trkpt lat="43.49473" lon="3.46056">
        <ele>19.4</ele>
        <time>2018-09-25T18:35:26.819Z</time>
      </trkpt>
      <trkpt lat="43.49468" lon="3.46054">
        <ele>19.5</ele>
        <time>2018-09-25T18:35:27.819Z</time>
      </trkpt>
      <trkpt lat="43.49464" lon="3.46053">
        <ele>19.4</ele>
        <time>2018-09-25T18:35:28.819Z</time>
      </trkpt>
      <trkpt lat="43.49461" lon="3.46051">
        <ele>19.4</ele>
        <time>2018-09-25T18:35:29.819Z</time>
      </trkpt>
      <trkpt lat="43.49457" lon="3.4605">
        <ele>19.4</ele>
        <time>2018-09-25T18:35:30.819Z</time>
      </trkpt>
      <trkpt lat="43.49453" lon="3.46049">
        <ele>19.5</ele>
        <time>2018-09-25T18:35:31.819Z</time>
      </trkpt>
      <trkpt lat="43.49449" lon="3.46048">
        <ele>19.5</ele>
        <time>2018-09-25T18:35:32.819Z</time>
      </trkpt>
      <trkpt lat="43.49446" lon="3.46046">
        <ele>19.5</ele>
        <time>2018-09-25T18:35:33.819Z</time>
      </trkpt>
      <trkpt lat="43.49443" lon="3.46045">
        <ele>19.4</ele>
        <time>2018-09-25T18:35:34.819Z</time>
      </trkpt>
      <trkpt lat="43.4944" lon="3.46044">
        <ele>19.5</ele>
        <time>2018-09-25T18:35:35.819Z</time>
      </trkpt>
      <trkpt lat="43.49437" lon="3.46042">
        <ele>19.5</ele>
        <time>2018-09-25T18:35:36.819Z</time>
      </trkpt>
      <trkpt lat="43.49435" lon="3.4604">
        <ele>19.5</ele>
        <time>2018-09-25T18:35:37.819Z</time>
      </trkpt>
      <trkpt lat="43.49431" lon="3.46037">
        <ele>19.4</ele>
        <time>2018-09-25T18:35:38.819Z</time>
      </trkpt>
      <trkpt lat="43.49428" lon="3.46036">
        <ele>19.3</ele>
        <time>2018-09-25T18:35:39.819Z</time>
      </trkpt>
      <trkpt lat="43.49424" lon="3.46035">
        <ele>19.2</ele>
        <time>2018-09-25T18:35:40.819Z</time>
      </trkpt>
      <trkpt lat="43.49421" lon="3.46034">
        <ele>19.1</ele>
        <time>2018-09-25T18:35:41.819Z</time>
      </trkpt>
      <trkpt lat="43.49417" lon="3.46032">
        <ele>18.9</ele>
        <time>2018-09-25T18:35:42.819Z</time>
      </trkpt>
      <trkpt lat="43.49413" lon="3.46032">
        <ele>18.8</ele>
        <time>2018-09-25T18:35:43.819Z</time>
      </trkpt>
      <trkpt lat="43.4941" lon="3.4603">
        <ele>18.7</ele>
        <time>2018-09-25T18:35:44.819Z</time>
      </trkpt>
      <trkpt lat="43.49407" lon="3.46027">
        <ele>18.7</ele>
        <time>2018-09-25T18:35:45.819Z</time>
      </trkpt>
      <trkpt lat="43.49403" lon="3.46025">
        <ele>18.6</ele>
        <time>2018-09-25T18:35:46.819Z</time>
      </trkpt>
      <trkpt lat="43.49399" lon="3.46024">
        <ele>18.5</ele>
        <time>2018-09-25T18:35:47.819Z</time>
      </trkpt>
      <trkpt lat="43.49396" lon="3.46023">
        <ele>18.3</ele>
        <time>2018-09-25T18:35:48.819Z</time>
      </trkpt>
      <trkpt lat="43.49392" lon="3.46021">
        <ele>18.2</ele>
        <time>2018-09-25T18:35:49.819Z</time>
      </trkpt>
      <trkpt lat="43.49388" lon="3.46019">
        <ele>18</ele>
        <time>2018-09-25T18:35:50.819Z</time>
      </trkpt>
      <trkpt lat="43.49384" lon="3.46018">
        <ele>17.8</ele>
        <time>2018-09-25T18:35:51.819Z</time>
      </trkpt>
      <trkpt lat="43.49381" lon="3.46016">
        <ele>17.7</ele>
        <time>2018-09-25T18:35:52.819Z</time>
      </trkpt>
      <trkpt lat="43.49377" lon="3.46015">
        <ele>17.5</ele>
        <time>2018-09-25T18:35:53.819Z</time>
      </trkpt>
      <trkpt lat="43.49373" lon="3.46012">
        <ele>17.4</ele>
        <time>2018-09-25T18:35:54.819Z</time>
      </trkpt>
      <trkpt lat="43.49369" lon="3.46011">
        <ele>17.3</ele>
        <time>2018-09-25T18:35:55.819Z</time>
      </trkpt>
      <trkpt lat="43.49365" lon="3.4601">
        <ele>17.2</ele>
        <time>2018-09-25T18:35:56.819Z</time>
      </trkpt>
      <trkpt lat="43.49361" lon="3.46009">
        <ele>17.1</ele>
        <time>2018-09-25T18:35:57.819Z</time>
      </trkpt>
      <trkpt lat="43.49357" lon="3.46007">
        <ele>17</ele>
        <time>2018-09-25T18:35:58.819Z</time>
      </trkpt>
      <trkpt lat="43.49353" lon="3.46006">
        <ele>16.9</ele>
        <time>2018-09-25T18:35:59.819Z</time>
      </trkpt>
      <trkpt lat="43.4935" lon="3.46005">
        <ele>16.9</ele>
        <time>2018-09-25T18:36:00.819Z</time>
      </trkpt>
      <trkpt lat="43.49346" lon="3.46002">
        <ele>16.8</ele>
        <time>2018-09-25T18:36:02.819Z</time>
      </trkpt>
      <trkpt lat="43.49343" lon="3.46001">
        <ele>16.8</ele>
        <time>2018-09-25T18:36:03.819Z</time>
      </trkpt>
      <trkpt lat="43.4934" lon="3.46">
        <ele>16.7</ele>
        <time>2018-09-25T18:36:04.819Z</time>
      </trkpt>
      <trkpt lat="43.49337" lon="3.45998">
        <ele>16.7</ele>
        <time>2018-09-25T18:36:05.819Z</time>
      </trkpt>
      <trkpt lat="43.49334" lon="3.45997">
        <ele>16.7</ele>
        <time>2018-09-25T18:36:06.819Z</time>
      </trkpt>
      <trkpt lat="43.49331" lon="3.45997">
        <ele>16.7</ele>
        <time>2018-09-25T18:36:07.819Z</time>
      </trkpt>
      <trkpt lat="43.49328" lon="3.45996">
        <ele>16.7</ele>
        <time>2018-09-25T18:36:08.819Z</time>
      </trkpt>
      <trkpt lat="43.49325" lon="3.45996">
        <ele>16.7</ele>
        <time>2018-09-25T18:36:09.819Z</time>
      </trkpt>
      <trkpt lat="43.49322" lon="3.45994">
        <ele>16.7</ele>
        <time>2018-09-25T18:36:10.819Z</time>
      </trkpt>
      <trkpt lat="43.49317" lon="3.45991">
        <ele>16.7</ele>
        <time>2018-09-25T18:36:12.819Z</time>
      </trkpt>
      <trkpt lat="43.49312" lon="3.4599">
        <ele>16.7</ele>
        <time>2018-09-25T18:36:13.819Z</time>
      </trkpt>
      <trkpt lat="43.49308" lon="3.4599">
        <ele>16.7</ele>
        <time>2018-09-25T18:36:14.819Z</time>
      </trkpt>
      <trkpt lat="43.49305" lon="3.45989">
        <ele>16.7</ele>
        <time>2018-09-25T18:36:15.819Z</time>
      </trkpt>
      <trkpt lat="43.49303" lon="3.45987">
        <ele>16.7</ele>
        <time>2018-09-25T18:36:16.819Z</time>
      </trkpt>
      <trkpt lat="43.49299" lon="3.45984">
        <ele>16.7</ele>
        <time>2018-09-25T18:36:18.819Z</time>
      </trkpt>
      <trkpt lat="43.49296" lon="3.45982">
        <ele>16.7</ele>
        <time>2018-09-25T18:36:19.819Z</time>
      </trkpt>
      <trkpt lat="43.49293" lon="3.45981">
        <ele>16.7</ele>
        <time>2018-09-25T18:36:20.819Z</time>
      </trkpt>
      <trkpt lat="43.49289" lon="3.4598">
        <ele>16.7</ele>
        <time>2018-09-25T18:36:21.819Z</time>
      </trkpt>
      <trkpt lat="43.49285" lon="3.45979">
        <ele>16.7</ele>
        <time>2018-09-25T18:36:22.819Z</time>
      </trkpt>
      <trkpt lat="43.49281" lon="3.45977">
        <ele>16.7</ele>
        <time>2018-09-25T18:36:23.819Z</time>
      </trkpt>
      <trkpt lat="43.49276" lon="3.45975">
        <ele>16.7</ele>
        <time>2018-09-25T18:36:24.819Z</time>
      </trkpt>
      <trkpt lat="43.49271" lon="3.45973">
        <ele>16.7</ele>
        <time>2018-09-25T18:36:25.819Z</time>
      </trkpt>
      <trkpt lat="43.49267" lon="3.45972">
        <ele>16.7</ele>
        <time>2018-09-25T18:36:26.819Z</time>
      </trkpt>
      <trkpt lat="43.49264" lon="3.45971">
        <ele>16.6</ele>
        <time>2018-09-25T18:36:27.819Z</time>
      </trkpt>
      <trkpt lat="43.49261" lon="3.4597">
        <ele>16.6</ele>
        <time>2018-09-25T18:36:28.819Z</time>
      </trkpt>
      <trkpt lat="43.49258" lon="3.45969">
        <ele>16.6</ele>
        <time>2018-09-25T18:36:29.819Z</time>
      </trkpt>
      <trkpt lat="43.49255" lon="3.45967">
        <ele>16.5</ele>
        <time>2018-09-25T18:36:30.819Z</time>
      </trkpt>
      <trkpt lat="43.49251" lon="3.45966">
        <ele>16.5</ele>
        <time>2018-09-25T18:36:31.819Z</time>
      </trkpt>
      <trkpt lat="43.49246" lon="3.45966">
        <ele>16.5</ele>
        <time>2018-09-25T18:36:32.819Z</time>
      </trkpt>
      <trkpt lat="43.49241" lon="3.45965">
        <ele>16.5</ele>
        <time>2018-09-25T18:36:33.819Z</time>
      </trkpt>
      <trkpt lat="43.49237" lon="3.45964">
        <ele>16.4</ele>
        <time>2018-09-25T18:36:34.819Z</time>
      </trkpt>
      <trkpt lat="43.49232" lon="3.45963">
        <ele>16.4</ele>
        <time>2018-09-25T18:36:35.819Z</time>
      </trkpt>
      <trkpt lat="43.49228" lon="3.45962">
        <ele>16.4</ele>
        <time>2018-09-25T18:36:36.819Z</time>
      </trkpt>
      <trkpt lat="43.49224" lon="3.4596">
        <ele>16.4</ele>
        <time>2018-09-25T18:36:37.819Z</time>
      </trkpt>
      <trkpt lat="43.49221" lon="3.45959">
        <ele>16.4</ele>
        <time>2018-09-25T18:36:38.819Z</time>
      </trkpt>
      <trkpt lat="43.49217" lon="3.45958">
        <ele>16.4</ele>
        <time>2018-09-25T18:36:39.819Z</time>
      </trkpt>
      <trkpt lat="43.49213" lon="3.45957">
        <ele>16.4</ele>
        <time>2018-09-25T18:36:40.819Z</time>
      </trkpt>
      <trkpt lat="43.4921" lon="3.45956">
        <ele>16.4</ele>
        <time>2018-09-25T18:36:41.819Z</time>
      </trkpt>
      <trkpt lat="43.49206" lon="3.45955">
        <ele>16.4</ele>
        <time>2018-09-25T18:36:42.819Z</time>
      </trkpt>
      <trkpt lat="43.49202" lon="3.45954">
        <ele>16.4</ele>
        <time>2018-09-25T18:36:43.819Z</time>
      </trkpt>
      <trkpt lat="43.49199" lon="3.45954">
        <ele>16.4</ele>
        <time>2018-09-25T18:36:44.819Z</time>
      </trkpt>
      <trkpt lat="43.49195" lon="3.45954">
        <ele>16.4</ele>
        <time>2018-09-25T18:36:45.819Z</time>
      </trkpt>
      <trkpt lat="43.49191" lon="3.45953">
        <ele>16.4</ele>
        <time>2018-09-25T18:36:46.819Z</time>
      </trkpt>
      <trkpt lat="43.49188" lon="3.45953">
        <ele>16.5</ele>
        <time>2018-09-25T18:36:47.819Z</time>
      </trkpt>
      <trkpt lat="43.49184" lon="3.45953">
        <ele>16.5</ele>
        <time>2018-09-25T18:36:48.819Z</time>
      </trkpt>
      <trkpt lat="43.49181" lon="3.45953">
        <ele>16.5</ele>
        <time>2018-09-25T18:36:49.819Z</time>
      </trkpt>
      <trkpt lat="43.49178" lon="3.45953">
        <ele>16.5</ele>
        <time>2018-09-25T18:36:50.819Z</time>
      </trkpt>
      <trkpt lat="43.49175" lon="3.45953">
        <ele>16.5</ele>
        <time>2018-09-25T18:36:51.819Z</time>
      </trkpt>
      <trkpt lat="43.4917" lon="3.45952">
        <ele>16.6</ele>
        <time>2018-09-25T18:36:53.819Z</time>
      </trkpt>
      <trkpt lat="43.49165" lon="3.45951">
        <ele>16.6</ele>
        <time>2018-09-25T18:36:55.819Z</time>
      </trkpt>
      <trkpt lat="43.49162" lon="3.45952">
        <ele>16.7</ele>
        <time>2018-09-25T18:36:56.819Z</time>
      </trkpt>
      <trkpt lat="43.49159" lon="3.45951">
        <ele>16.7</ele>
        <time>2018-09-25T18:36:57.819Z</time>
      </trkpt>
      <trkpt lat="43.49155" lon="3.45948">
        <ele>16.7</ele>
        <time>2018-09-25T18:36:58.819Z</time>
      </trkpt>
      <trkpt lat="43.49152" lon="3.45946">
        <ele>16.8</ele>
        <time>2018-09-25T18:36:59.819Z</time>
      </trkpt>
      <trkpt lat="43.49149" lon="3.45944">
        <ele>16.8</ele>
        <time>2018-09-25T18:37:00.819Z</time>
      </trkpt>
      <trkpt lat="43.49146" lon="3.45942">
        <ele>16.8</ele>
        <time>2018-09-25T18:37:01.819Z</time>
      </trkpt>
      <trkpt lat="43.49143" lon="3.45939">
        <ele>16.8</ele>
        <time>2018-09-25T18:37:02.819Z</time>
      </trkpt>
      <trkpt lat="43.4914" lon="3.45937">
        <ele>16.9</ele>
        <time>2018-09-25T18:37:03.819Z</time>
      </trkpt>
      <trkpt lat="43.49137" lon="3.45936">
        <ele>16.9</ele>
        <time>2018-09-25T18:37:04.819Z</time>
      </trkpt>
      <trkpt lat="43.49134" lon="3.45934">
        <ele>16.9</ele>
        <time>2018-09-25T18:37:05.819Z</time>
      </trkpt>
      <trkpt lat="43.49131" lon="3.45932">
        <ele>16.9</ele>
        <time>2018-09-25T18:37:06.819Z</time>
      </trkpt>
      <trkpt lat="43.49128" lon="3.45928">
        <ele>16.9</ele>
        <time>2018-09-25T18:37:07.819Z</time>
      </trkpt>
      <trkpt lat="43.49125" lon="3.45925">
        <ele>16.9</ele>
        <time>2018-09-25T18:37:08.819Z</time>
      </trkpt>
      <trkpt lat="43.49123" lon="3.45923">
        <ele>16.9</ele>
        <time>2018-09-25T18:37:09.819Z</time>
      </trkpt>
      <trkpt lat="43.4912" lon="3.4592">
        <ele>16.9</ele>
        <time>2018-09-25T18:37:10.819Z</time>
      </trkpt>
      <trkpt lat="43.49116" lon="3.45918">
        <ele>16.9</ele>
        <time>2018-09-25T18:37:11.819Z</time>
      </trkpt>
      <trkpt lat="43.49113" lon="3.45915">
        <ele>16.9</ele>
        <time>2018-09-25T18:37:12.819Z</time>
      </trkpt>
      <trkpt lat="43.4911" lon="3.45912">
        <ele>16.8</ele>
        <time>2018-09-25T18:37:13.819Z</time>
      </trkpt>
      <trkpt lat="43.49107" lon="3.45909">
        <ele>16.7</ele>
        <time>2018-09-25T18:37:14.819Z</time>
      </trkpt>
      <trkpt lat="43.49104" lon="3.45907">
        <ele>16.7</ele>
        <time>2018-09-25T18:37:15.819Z</time>
      </trkpt>
      <trkpt lat="43.49101" lon="3.45904">
        <ele>16.7</ele>
        <time>2018-09-25T18:37:16.819Z</time>
      </trkpt>
      <trkpt lat="43.49098" lon="3.45901">
        <ele>16.7</ele>
        <time>2018-09-25T18:37:18.819Z</time>
      </trkpt>
      <trkpt lat="43.49094" lon="3.45897">
        <ele>16.6</ele>
        <time>2018-09-25T18:37:20.819Z</time>
      </trkpt>
      <trkpt lat="43.49091" lon="3.45895">
        <ele>16.5</ele>
        <time>2018-09-25T18:37:21.819Z</time>
      </trkpt>
      <trkpt lat="43.49088" lon="3.45893">
        <ele>16.4</ele>
        <time>2018-09-25T18:37:22.819Z</time>
      </trkpt>
      <trkpt lat="43.49085" lon="3.45891">
        <ele>16.3</ele>
        <time>2018-09-25T18:37:23.819Z</time>
      </trkpt>
      <trkpt lat="43.4908" lon="3.45889">
        <ele>16.3</ele>
        <time>2018-09-25T18:37:24.819Z</time>
      </trkpt>
      <trkpt lat="43.49076" lon="3.45886">
        <ele>16.2</ele>
        <time>2018-09-25T18:37:25.819Z</time>
      </trkpt>
      <trkpt lat="43.49072" lon="3.45884">
        <ele>16.2</ele>
        <time>2018-09-25T18:37:26.819Z</time>
      </trkpt>
      <trkpt lat="43.49067" lon="3.45881">
        <ele>16</ele>
        <time>2018-09-25T18:37:27.819Z</time>
      </trkpt>
      <trkpt lat="43.49063" lon="3.45878">
        <ele>15.9</ele>
        <time>2018-09-25T18:37:28.819Z</time>
      </trkpt>
      <trkpt lat="43.49058" lon="3.45876">
        <ele>15.9</ele>
        <time>2018-09-25T18:37:29.819Z</time>
      </trkpt>
      <trkpt lat="43.49055" lon="3.45873">
        <ele>15.8</ele>
        <time>2018-09-25T18:37:30.819Z</time>
      </trkpt>
      <trkpt lat="43.49051" lon="3.4587">
        <ele>15.8</ele>
        <time>2018-09-25T18:37:31.819Z</time>
      </trkpt>
      <trkpt lat="43.49047" lon="3.45867">
        <ele>15.8</ele>
        <time>2018-09-25T18:37:32.819Z</time>
      </trkpt>
      <trkpt lat="43.49043" lon="3.45865">
        <ele>15.7</ele>
        <time>2018-09-25T18:37:33.819Z</time>
      </trkpt>
      <trkpt lat="43.49039" lon="3.45862">
        <ele>15.7</ele>
        <time>2018-09-25T18:37:34.819Z</time>
      </trkpt>
      <trkpt lat="43.49036" lon="3.4586">
        <ele>15.7</ele>
        <time>2018-09-25T18:37:35.819Z</time>
      </trkpt>
      <trkpt lat="43.49032" lon="3.45857">
        <ele>15.8</ele>
        <time>2018-09-25T18:37:36.819Z</time>
      </trkpt>
      <trkpt lat="43.49029" lon="3.45854">
        <ele>15.8</ele>
        <time>2018-09-25T18:37:37.819Z</time>
      </trkpt>
      <trkpt lat="43.49025" lon="3.45851">
        <ele>15.9</ele>
        <time>2018-09-25T18:37:38.819Z</time>
      </trkpt>
      <trkpt lat="43.49021" lon="3.45848">
        <ele>15.9</ele>
        <time>2018-09-25T18:37:39.819Z</time>
      </trkpt>
      <trkpt lat="43.49018" lon="3.45845">
        <ele>16</ele>
        <time>2018-09-25T18:37:40.819Z</time>
      </trkpt>
      <trkpt lat="43.49015" lon="3.45841">
        <ele>16</ele>
        <time>2018-09-25T18:37:41.819Z</time>
      </trkpt>
      <trkpt lat="43.49011" lon="3.45838">
        <ele>16.1</ele>
        <time>2018-09-25T18:37:42.819Z</time>
      </trkpt>
      <trkpt lat="43.49008" lon="3.45835">
        <ele>16.2</ele>
        <time>2018-09-25T18:37:43.819Z</time>
      </trkpt>
      <trkpt lat="43.49005" lon="3.45832">
        <ele>16.3</ele>
        <time>2018-09-25T18:37:44.819Z</time>
      </trkpt>
      <trkpt lat="43.49001" lon="3.45829">
        <ele>16.4</ele>
        <time>2018-09-25T18:37:45.819Z</time>
      </trkpt>
      <trkpt lat="43.48998" lon="3.45826">
        <ele>16.5</ele>
        <time>2018-09-25T18:37:46.819Z</time>
      </trkpt>
      <trkpt lat="43.48995" lon="3.45823">
        <ele>16.6</ele>
        <time>2018-09-25T18:37:47.819Z</time>
      </trkpt>
      <trkpt lat="43.48992" lon="3.4582">
        <ele>16.6</ele>
        <time>2018-09-25T18:37:48.819Z</time>
      </trkpt>
      <trkpt lat="43.48988" lon="3.45816">
        <ele>16.7</ele>
        <time>2018-09-25T18:37:49.819Z</time>
      </trkpt>
      <trkpt lat="43.48985" lon="3.45813">
        <ele>16.8</ele>
        <time>2018-09-25T18:37:50.819Z</time>
      </trkpt>
      <trkpt lat="43.48981" lon="3.4581">
        <ele>16.9</ele>
        <time>2018-09-25T18:37:51.819Z</time>
      </trkpt>
      <trkpt lat="43.48978" lon="3.45807">
        <ele>16.9</ele>
        <time>2018-09-25T18:37:52.819Z</time>
      </trkpt>
      <trkpt lat="43.48974" lon="3.45804">
        <ele>16.9</ele>
        <time>2018-09-25T18:37:53.819Z</time>
      </trkpt>
      <trkpt lat="43.4897" lon="3.45801">
        <ele>17</ele>
        <time>2018-09-25T18:37:54.819Z</time>
      </trkpt>
      <trkpt lat="43.48967" lon="3.45798">
        <ele>17</ele>
        <time>2018-09-25T18:37:55.819Z</time>
      </trkpt>
      <trkpt lat="43.48964" lon="3.45795">
        <ele>17.1</ele>
        <time>2018-09-25T18:37:56.819Z</time>
      </trkpt>
      <trkpt lat="43.4896" lon="3.45792">
        <ele>17.1</ele>
        <time>2018-09-25T18:37:57.819Z</time>
      </trkpt>
      <trkpt lat="43.48957" lon="3.45789">
        <ele>17.1</ele>
        <time>2018-09-25T18:37:58.819Z</time>
      </trkpt>
      <trkpt lat="43.48953" lon="3.45785">
        <ele>17</ele>
        <time>2018-09-25T18:37:59.819Z</time>
      </trkpt>
      <trkpt lat="43.4895" lon="3.45782">
        <ele>17</ele>
        <time>2018-09-25T18:38:00.819Z</time>
      </trkpt>
      <trkpt lat="43.48946" lon="3.45778">
        <ele>17</ele>
        <time>2018-09-25T18:38:01.819Z</time>
      </trkpt>
      <trkpt lat="43.48943" lon="3.45774">
        <ele>17</ele>
        <time>2018-09-25T18:38:02.819Z</time>
      </trkpt>
      <trkpt lat="43.4894" lon="3.45771">
        <ele>16.9</ele>
        <time>2018-09-25T18:38:03.819Z</time>
      </trkpt>
      <trkpt lat="43.48936" lon="3.45768">
        <ele>16.8</ele>
        <time>2018-09-25T18:38:04.819Z</time>
      </trkpt>
      <trkpt lat="43.48932" lon="3.45765">
        <ele>16.8</ele>
        <time>2018-09-25T18:38:05.819Z</time>
      </trkpt>
      <trkpt lat="43.48929" lon="3.45763">
        <ele>16.8</ele>
        <time>2018-09-25T18:38:06.819Z</time>
      </trkpt>
      <trkpt lat="43.48926" lon="3.4576">
        <ele>16.8</ele>
        <time>2018-09-25T18:38:07.819Z</time>
      </trkpt>
      <trkpt lat="43.48923" lon="3.45757">
        <ele>16.8</ele>
        <time>2018-09-25T18:38:08.819Z</time>
      </trkpt>
      <trkpt lat="43.4892" lon="3.45755">
        <ele>16.7</ele>
        <time>2018-09-25T18:38:09.819Z</time>
      </trkpt>
      <trkpt lat="43.48917" lon="3.45752">
        <ele>16.7</ele>
        <time>2018-09-25T18:38:10.819Z</time>
      </trkpt>
      <trkpt lat="43.48914" lon="3.45748">
        <ele>16.7</ele>
        <time>2018-09-25T18:38:11.819Z</time>
      </trkpt>
      <trkpt lat="43.48911" lon="3.45746">
        <ele>16.7</ele>
        <time>2018-09-25T18:38:12.819Z</time>
      </trkpt>
      <trkpt lat="43.48908" lon="3.45742">
        <ele>16.7</ele>
        <time>2018-09-25T18:38:13.819Z</time>
      </trkpt>
      <trkpt lat="43.48904" lon="3.45739">
        <ele>16.8</ele>
        <time>2018-09-25T18:38:14.819Z</time>
      </trkpt>
      <trkpt lat="43.48901" lon="3.45737">
        <ele>16.8</ele>
        <time>2018-09-25T18:38:15.819Z</time>
      </trkpt>
      <trkpt lat="43.48898" lon="3.45734">
        <ele>16.8</ele>
        <time>2018-09-25T18:38:16.819Z</time>
      </trkpt>
      <trkpt lat="43.48894" lon="3.45731">
        <ele>16.8</ele>
        <time>2018-09-25T18:38:17.819Z</time>
      </trkpt>
      <trkpt lat="43.4889" lon="3.45729">
        <ele>16.8</ele>
        <time>2018-09-25T18:38:18.819Z</time>
      </trkpt>
      <trkpt lat="43.48887" lon="3.45726">
        <ele>16.9</ele>
        <time>2018-09-25T18:38:19.819Z</time>
      </trkpt>
      <trkpt lat="43.48883" lon="3.45723">
        <ele>16.9</ele>
        <time>2018-09-25T18:38:20.819Z</time>
      </trkpt>
      <trkpt lat="43.48879" lon="3.45721">
        <ele>16.9</ele>
        <time>2018-09-25T18:38:21.819Z</time>
      </trkpt>
      <trkpt lat="43.48876" lon="3.45718">
        <ele>16.9</ele>
        <time>2018-09-25T18:38:22.819Z</time>
      </trkpt>
      <trkpt lat="43.48873" lon="3.45716">
        <ele>16.9</ele>
        <time>2018-09-25T18:38:23.819Z</time>
      </trkpt>
      <trkpt lat="43.48869" lon="3.45713">
        <ele>16.9</ele>
        <time>2018-09-25T18:38:24.819Z</time>
      </trkpt>
      <trkpt lat="43.48865" lon="3.45711">
        <ele>16.9</ele>
        <time>2018-09-25T18:38:25.819Z</time>
      </trkpt>
      <trkpt lat="43.48861" lon="3.45709">
        <ele>16.9</ele>
        <time>2018-09-25T18:38:26.819Z</time>
      </trkpt>
      <trkpt lat="43.48858" lon="3.45706">
        <ele>16.9</ele>
        <time>2018-09-25T18:38:27.819Z</time>
      </trkpt>
      <trkpt lat="43.48854" lon="3.45704">
        <ele>16.9</ele>
        <time>2018-09-25T18:38:28.819Z</time>
      </trkpt>
      <trkpt lat="43.4885" lon="3.45701">
        <ele>16.8</ele>
        <time>2018-09-25T18:38:29.819Z</time>
      </trkpt>
      <trkpt lat="43.48846" lon="3.45699">
        <ele>16.8</ele>
        <time>2018-09-25T18:38:30.819Z</time>
      </trkpt>
      <trkpt lat="43.48843" lon="3.45696">
        <ele>16.7</ele>
        <time>2018-09-25T18:38:31.819Z</time>
      </trkpt>
      <trkpt lat="43.48839" lon="3.45693">
        <ele>16.7</ele>
        <time>2018-09-25T18:38:32.819Z</time>
      </trkpt>
      <trkpt lat="43.48836" lon="3.4569">
        <ele>16.7</ele>
        <time>2018-09-25T18:38:33.819Z</time>
      </trkpt>
      <trkpt lat="43.48833" lon="3.45687">
        <ele>16.7</ele>
        <time>2018-09-25T18:38:34.819Z</time>
      </trkpt>
      <trkpt lat="43.48829" lon="3.45684">
        <ele>16.6</ele>
        <time>2018-09-25T18:38:35.819Z</time>
      </trkpt>
      <trkpt lat="43.48826" lon="3.4568">
        <ele>16.6</ele>
        <time>2018-09-25T18:38:36.819Z</time>
      </trkpt>
      <trkpt lat="43.48824" lon="3.45677">
        <ele>16.6</ele>
        <time>2018-09-25T18:38:37.819Z</time>
      </trkpt>
      <trkpt lat="43.4882" lon="3.45674">
        <ele>16.5</ele>
        <time>2018-09-25T18:38:38.819Z</time>
      </trkpt>
      <trkpt lat="43.48817" lon="3.4567">
        <ele>16.5</ele>
        <time>2018-09-25T18:38:39.819Z</time>
      </trkpt>
      <trkpt lat="43.48814" lon="3.45666">
        <ele>16.5</ele>
        <time>2018-09-25T18:38:40.819Z</time>
      </trkpt>
      <trkpt lat="43.48811" lon="3.45661">
        <ele>16.5</ele>
        <time>2018-09-25T18:38:41.819Z</time>
      </trkpt>
      <trkpt lat="43.48808" lon="3.45657">
        <ele>16.5</ele>
        <time>2018-09-25T18:38:42.819Z</time>
      </trkpt>
      <trkpt lat="43.48805" lon="3.45653">
        <ele>16.4</ele>
        <time>2018-09-25T18:38:43.819Z</time>
      </trkpt>
      <trkpt lat="43.48802" lon="3.45649">
        <ele>16.4</ele>
        <time>2018-09-25T18:38:44.819Z</time>
      </trkpt>
      <trkpt lat="43.48799" lon="3.45646">
        <ele>16.4</ele>
        <time>2018-09-25T18:38:45.819Z</time>
      </trkpt>
      <trkpt lat="43.48796" lon="3.45641">
        <ele>16.4</ele>
        <time>2018-09-25T18:38:46.819Z</time>
      </trkpt>
      <trkpt lat="43.48793" lon="3.45637">
        <ele>16.4</ele>
        <time>2018-09-25T18:38:47.819Z</time>
      </trkpt>
      <trkpt lat="43.4879" lon="3.45634">
        <ele>16.3</ele>
        <time>2018-09-25T18:38:48.819Z</time>
      </trkpt>
      <trkpt lat="43.48787" lon="3.4563">
        <ele>16.3</ele>
        <time>2018-09-25T18:38:49.819Z</time>
      </trkpt>
      <trkpt lat="43.48784" lon="3.45627">
        <ele>16.2</ele>
        <time>2018-09-25T18:38:50.819Z</time>
      </trkpt>
      <trkpt lat="43.4878" lon="3.45623">
        <ele>16.2</ele>
        <time>2018-09-25T18:38:51.819Z</time>
      </trkpt>
      <trkpt lat="43.48777" lon="3.4562">
        <ele>16.2</ele>
        <time>2018-09-25T18:38:52.819Z</time>
      </trkpt>
      <trkpt lat="43.48773" lon="3.45617">
        <ele>16.2</ele>
        <time>2018-09-25T18:38:53.819Z</time>
      </trkpt>
      <trkpt lat="43.4877" lon="3.45613">
        <ele>16.1</ele>
        <time>2018-09-25T18:38:54.819Z</time>
      </trkpt>
      <trkpt lat="43.48766" lon="3.4561">
        <ele>16.1</ele>
        <time>2018-09-25T18:38:55.819Z</time>
      </trkpt>
      <trkpt lat="43.48763" lon="3.45607">
        <ele>16.1</ele>
        <time>2018-09-25T18:38:56.819Z</time>
      </trkpt>
      <trkpt lat="43.48759" lon="3.45604">
        <ele>16</ele>
        <time>2018-09-25T18:38:57.819Z</time>
      </trkpt>
      <trkpt lat="43.48756" lon="3.45601">
        <ele>16</ele>
        <time>2018-09-25T18:38:58.819Z</time>
      </trkpt>
      <trkpt lat="43.48752" lon="3.45598">
        <ele>16</ele>
        <time>2018-09-25T18:38:59.819Z</time>
      </trkpt>
      <trkpt lat="43.48749" lon="3.45595">
        <ele>16</ele>
        <time>2018-09-25T18:39:00.819Z</time>
      </trkpt>
      <trkpt lat="43.48745" lon="3.45592">
        <ele>16</ele>
        <time>2018-09-25T18:39:01.819Z</time>
      </trkpt>
      <trkpt lat="43.48742" lon="3.45589">
        <ele>16</ele>
        <time>2018-09-25T18:39:02.819Z</time>
      </trkpt>
      <trkpt lat="43.48738" lon="3.45586">
        <ele>16.1</ele>
        <time>2018-09-25T18:39:03.819Z</time>
      </trkpt>
      <trkpt lat="43.48735" lon="3.45583">
        <ele>16.1</ele>
        <time>2018-09-25T18:39:04.819Z</time>
      </trkpt>
      <trkpt lat="43.48732" lon="3.4558">
        <ele>16.2</ele>
        <time>2018-09-25T18:39:05.819Z</time>
      </trkpt>
      <trkpt lat="43.48729" lon="3.45577">
        <ele>16.2</ele>
        <time>2018-09-25T18:39:06.819Z</time>
      </trkpt>
      <trkpt lat="43.48725" lon="3.45574">
        <ele>16.3</ele>
        <time>2018-09-25T18:39:07.819Z</time>
      </trkpt>
      <trkpt lat="43.48722" lon="3.45571">
        <ele>16.4</ele>
        <time>2018-09-25T18:39:08.819Z</time>
      </trkpt>
      <trkpt lat="43.48719" lon="3.45568">
        <ele>16.5</ele>
        <time>2018-09-25T18:39:09.819Z</time>
      </trkpt>
      <trkpt lat="43.48715" lon="3.45564">
        <ele>16.5</ele>
        <time>2018-09-25T18:39:10.819Z</time>
      </trkpt>
      <trkpt lat="43.48712" lon="3.45561">
        <ele>16.6</ele>
        <time>2018-09-25T18:39:11.819Z</time>
      </trkpt>
      <trkpt lat="43.48709" lon="3.45558">
        <ele>16.7</ele>
        <time>2018-09-25T18:39:12.819Z</time>
      </trkpt>
      <trkpt lat="43.48705" lon="3.45555">
        <ele>16.8</ele>
        <time>2018-09-25T18:39:13.819Z</time>
      </trkpt>
      <trkpt lat="43.48702" lon="3.45551">
        <ele>16.9</ele>
        <time>2018-09-25T18:39:14.819Z</time>
      </trkpt>
      <trkpt lat="43.48698" lon="3.45548">
        <ele>17</ele>
        <time>2018-09-25T18:39:15.819Z</time>
      </trkpt>
      <trkpt lat="43.48694" lon="3.45545">
        <ele>17.1</ele>
        <time>2018-09-25T18:39:16.819Z</time>
      </trkpt>
      <trkpt lat="43.48691" lon="3.45541">
        <ele>17.1</ele>
        <time>2018-09-25T18:39:17.819Z</time>
      </trkpt>
      <trkpt lat="43.48688" lon="3.45538">
        <ele>17.2</ele>
        <time>2018-09-25T18:39:18.819Z</time>
      </trkpt>
      <trkpt lat="43.48684" lon="3.45535">
        <ele>17.3</ele>
        <time>2018-09-25T18:39:19.819Z</time>
      </trkpt>
      <trkpt lat="43.48681" lon="3.45531">
        <ele>17.3</ele>
        <time>2018-09-25T18:39:20.819Z</time>
      </trkpt>
      <trkpt lat="43.48678" lon="3.45528">
        <ele>17.4</ele>
        <time>2018-09-25T18:39:21.819Z</time>
      </trkpt>
      <trkpt lat="43.48674" lon="3.45525">
        <ele>17.4</ele>
        <time>2018-09-25T18:39:22.819Z</time>
      </trkpt>
      <trkpt lat="43.48671" lon="3.45522">
        <ele>17.4</ele>
        <time>2018-09-25T18:39:23.819Z</time>
      </trkpt>
      <trkpt lat="43.48668" lon="3.45519">
        <ele>17.5</ele>
        <time>2018-09-25T18:39:24.819Z</time>
      </trkpt>
      <trkpt lat="43.48664" lon="3.45516">
        <ele>17.5</ele>
        <time>2018-09-25T18:39:25.819Z</time>
      </trkpt>
      <trkpt lat="43.48661" lon="3.45513">
        <ele>17.5</ele>
        <time>2018-09-25T18:39:26.819Z</time>
      </trkpt>
      <trkpt lat="43.48657" lon="3.4551">
        <ele>17.5</ele>
        <time>2018-09-25T18:39:27.819Z</time>
      </trkpt>
      <trkpt lat="43.48654" lon="3.45507">
        <ele>17.5</ele>
        <time>2018-09-25T18:39:28.819Z</time>
      </trkpt>
      <trkpt lat="43.48651" lon="3.45505">
        <ele>17.5</ele>
        <time>2018-09-25T18:39:29.819Z</time>
      </trkpt>
      <trkpt lat="43.48647" lon="3.45502">
        <ele>17.4</ele>
        <time>2018-09-25T18:39:30.819Z</time>
      </trkpt>
      <trkpt lat="43.48644" lon="3.45499">
        <ele>17.4</ele>
        <time>2018-09-25T18:39:31.819Z</time>
      </trkpt>
      <trkpt lat="43.4864" lon="3.45496">
        <ele>17.4</ele>
        <time>2018-09-25T18:39:32.819Z</time>
      </trkpt>
      <trkpt lat="43.48636" lon="3.45494">
        <ele>17.4</ele>
        <time>2018-09-25T18:39:33.819Z</time>
      </trkpt>
      <trkpt lat="43.48633" lon="3.45492">
        <ele>17.4</ele>
        <time>2018-09-25T18:39:34.819Z</time>
      </trkpt>
      <trkpt lat="43.48629" lon="3.45489">
        <ele>17.3</ele>
        <time>2018-09-25T18:39:35.819Z</time>
      </trkpt>
      <trkpt lat="43.48625" lon="3.45487">
        <ele>17.3</ele>
        <time>2018-09-25T18:39:36.819Z</time>
      </trkpt>
      <trkpt lat="43.48621" lon="3.45485">
        <ele>17.3</ele>
        <time>2018-09-25T18:39:37.819Z</time>
      </trkpt>
      <trkpt lat="43.48618" lon="3.45483">
        <ele>17.2</ele>
        <time>2018-09-25T18:39:38.819Z</time>
      </trkpt>
      <trkpt lat="43.48614" lon="3.45482">
        <ele>17.2</ele>
        <time>2018-09-25T18:39:39.819Z</time>
      </trkpt>
      <trkpt lat="43.4861" lon="3.45481">
        <ele>17.2</ele>
        <time>2018-09-25T18:39:40.819Z</time>
      </trkpt>
      <trkpt lat="43.48606" lon="3.45479">
        <ele>17.2</ele>
        <time>2018-09-25T18:39:41.819Z</time>
      </trkpt>
      <trkpt lat="43.48602" lon="3.45477">
        <ele>17.1</ele>
        <time>2018-09-25T18:39:42.819Z</time>
      </trkpt>
      <trkpt lat="43.48598" lon="3.45476">
        <ele>17.1</ele>
        <time>2018-09-25T18:39:43.819Z</time>
      </trkpt>
      <trkpt lat="43.48595" lon="3.45475">
        <ele>17.1</ele>
        <time>2018-09-25T18:39:44.819Z</time>
      </trkpt>
      <trkpt lat="43.48592" lon="3.45473">
        <ele>17</ele>
        <time>2018-09-25T18:39:45.819Z</time>
      </trkpt>
      <trkpt lat="43.48589" lon="3.45471">
        <ele>17</ele>
        <time>2018-09-25T18:39:47.819Z</time>
      </trkpt>
      <trkpt lat="43.48586" lon="3.45469">
        <ele>17</ele>
        <time>2018-09-25T18:39:49.819Z</time>
      </trkpt>
      <trkpt lat="43.48582" lon="3.45472">
        <ele>17</ele>
        <time>2018-09-25T18:39:51.819Z</time>
      </trkpt>
      <trkpt lat="43.4858" lon="3.45474">
        <ele>17</ele>
        <time>2018-09-25T18:39:52.819Z</time>
      </trkpt>
      <trkpt lat="43.48577" lon="3.45476">
        <ele>17</ele>
        <time>2018-09-25T18:39:53.819Z</time>
      </trkpt>
      <trkpt lat="43.48574" lon="3.45475">
        <ele>17</ele>
        <time>2018-09-25T18:39:54.819Z</time>
      </trkpt>
      <trkpt lat="43.48571" lon="3.45475">
        <ele>17</ele>
        <time>2018-09-25T18:39:55.819Z</time>
      </trkpt>
      <trkpt lat="43.48568" lon="3.45474">
        <ele>17</ele>
        <time>2018-09-25T18:39:56.819Z</time>
      </trkpt>
      <trkpt lat="43.48563" lon="3.45472">
        <ele>16.9</ele>
        <time>2018-09-25T18:39:58.819Z</time>
      </trkpt>
      <trkpt lat="43.48561" lon="3.45472">
        <ele>16.9</ele>
        <time>2018-09-25T18:39:59.819Z</time>
      </trkpt>
      <trkpt lat="43.48557" lon="3.45471">
        <ele>16.9</ele>
        <time>2018-09-25T18:40:00.819Z</time>
      </trkpt>
      <trkpt lat="43.48554" lon="3.45471">
        <ele>16.9</ele>
        <time>2018-09-25T18:40:01.819Z</time>
      </trkpt>
      <trkpt lat="43.4855" lon="3.45471">
        <ele>16.8</ele>
        <time>2018-09-25T18:40:02.819Z</time>
      </trkpt>
      <trkpt lat="43.48546" lon="3.4547">
        <ele>16.8</ele>
        <time>2018-09-25T18:40:03.819Z</time>
      </trkpt>
      <trkpt lat="43.48542" lon="3.45469">
        <ele>16.7</ele>
        <time>2018-09-25T18:40:04.819Z</time>
      </trkpt>
      <trkpt lat="43.48538" lon="3.45467">
        <ele>16.7</ele>
        <time>2018-09-25T18:40:05.819Z</time>
      </trkpt>
      <trkpt lat="43.48534" lon="3.45465">
        <ele>16.7</ele>
        <time>2018-09-25T18:40:06.819Z</time>
      </trkpt>
      <trkpt lat="43.48531" lon="3.45462">
        <ele>16.7</ele>
        <time>2018-09-25T18:40:07.819Z</time>
      </trkpt>
      <trkpt lat="43.48527" lon="3.45459">
        <ele>16.7</ele>
        <time>2018-09-25T18:40:08.819Z</time>
      </trkpt>
      <trkpt lat="43.48525" lon="3.45456">
        <ele>16.7</ele>
        <time>2018-09-25T18:40:09.819Z</time>
      </trkpt>
      <trkpt lat="43.48521" lon="3.45452">
        <ele>16.7</ele>
        <time>2018-09-25T18:40:10.819Z</time>
      </trkpt>
      <trkpt lat="43.48519" lon="3.45448">
        <ele>16.7</ele>
        <time>2018-09-25T18:40:11.819Z</time>
      </trkpt>
      <trkpt lat="43.48515" lon="3.45445">
        <ele>16.7</ele>
        <time>2018-09-25T18:40:12.819Z</time>
      </trkpt>
      <trkpt lat="43.48512" lon="3.45442">
        <ele>16.8</ele>
        <time>2018-09-25T18:40:13.819Z</time>
      </trkpt>
      <trkpt lat="43.48509" lon="3.45439">
        <ele>16.8</ele>
        <time>2018-09-25T18:40:14.819Z</time>
      </trkpt>
      <trkpt lat="43.48506" lon="3.45435">
        <ele>16.8</ele>
        <time>2018-09-25T18:40:15.819Z</time>
      </trkpt>
      <trkpt lat="43.48503" lon="3.45431">
        <ele>16.8</ele>
        <time>2018-09-25T18:40:16.819Z</time>
      </trkpt>
      <trkpt lat="43.485" lon="3.45427">
        <ele>16.9</ele>
        <time>2018-09-25T18:40:17.819Z</time>
      </trkpt>
      <trkpt lat="43.48498" lon="3.45423">
        <ele>16.9</ele>
        <time>2018-09-25T18:40:18.819Z</time>
      </trkpt>
      <trkpt lat="43.48496" lon="3.4542">
        <ele>16.9</ele>
        <time>2018-09-25T18:40:19.819Z</time>
      </trkpt>
      <trkpt lat="43.48494" lon="3.45415">
        <ele>16.9</ele>
        <time>2018-09-25T18:40:20.819Z</time>
      </trkpt>
      <trkpt lat="43.48491" lon="3.45412">
        <ele>16.9</ele>
        <time>2018-09-25T18:40:21.819Z</time>
      </trkpt>
      <trkpt lat="43.48489" lon="3.45408">
        <ele>16.9</ele>
        <time>2018-09-25T18:40:22.819Z</time>
      </trkpt>
      <trkpt lat="43.48486" lon="3.45404">
        <ele>16.9</ele>
        <time>2018-09-25T18:40:23.819Z</time>
      </trkpt>
      <trkpt lat="43.48484" lon="3.454">
        <ele>17</ele>
        <time>2018-09-25T18:40:24.819Z</time>
      </trkpt>
      <trkpt lat="43.48482" lon="3.45395">
        <ele>17</ele>
        <time>2018-09-25T18:40:25.819Z</time>
      </trkpt>
      <trkpt lat="43.4848" lon="3.4539">
        <ele>17</ele>
        <time>2018-09-25T18:40:26.819Z</time>
      </trkpt>
      <trkpt lat="43.48478" lon="3.45384">
        <ele>17</ele>
        <time>2018-09-25T18:40:27.819Z</time>
      </trkpt>
      <trkpt lat="43.48477" lon="3.45379">
        <ele>17</ele>
        <time>2018-09-25T18:40:28.819Z</time>
      </trkpt>
      <trkpt lat="43.48476" lon="3.45373">
        <ele>17</ele>
        <time>2018-09-25T18:40:29.819Z</time>
      </trkpt>
      <trkpt lat="43.48476" lon="3.45368">
        <ele>17</ele>
        <time>2018-09-25T18:40:30.819Z</time>
      </trkpt>
      <trkpt lat="43.48476" lon="3.45363">
        <ele>17</ele>
        <time>2018-09-25T18:40:31.819Z</time>
      </trkpt>
      <trkpt lat="43.48477" lon="3.45357">
        <ele>17.1</ele>
        <time>2018-09-25T18:40:32.819Z</time>
      </trkpt>
      <trkpt lat="43.48477" lon="3.45353">
        <ele>17.1</ele>
        <time>2018-09-25T18:40:33.819Z</time>
      </trkpt>
      <trkpt lat="43.48478" lon="3.45348">
        <ele>17.1</ele>
        <time>2018-09-25T18:40:34.819Z</time>
      </trkpt>
      <trkpt lat="43.48479" lon="3.45343">
        <ele>17.1</ele>
        <time>2018-09-25T18:40:35.819Z</time>
      </trkpt>
      <trkpt lat="43.48479" lon="3.45338">
        <ele>17.1</ele>
        <time>2018-09-25T18:40:36.819Z</time>
      </trkpt>
      <trkpt lat="43.4848" lon="3.45332">
        <ele>17.2</ele>
        <time>2018-09-25T18:40:37.819Z</time>
      </trkpt>
      <trkpt lat="43.4848" lon="3.45326">
        <ele>17.2</ele>
        <time>2018-09-25T18:40:38.819Z</time>
      </trkpt>
      <trkpt lat="43.4848" lon="3.45321">
        <ele>17.3</ele>
        <time>2018-09-25T18:40:39.819Z</time>
      </trkpt>
      <trkpt lat="43.4848" lon="3.45315">
        <ele>17.3</ele>
        <time>2018-09-25T18:40:40.819Z</time>
      </trkpt>
      <trkpt lat="43.4848" lon="3.4531">
        <ele>17.4</ele>
        <time>2018-09-25T18:40:41.819Z</time>
      </trkpt>
      <trkpt lat="43.4848" lon="3.45304">
        <ele>17.4</ele>
        <time>2018-09-25T18:40:42.819Z</time>
      </trkpt>
      <trkpt lat="43.48481" lon="3.45299">
        <ele>17.5</ele>
        <time>2018-09-25T18:40:43.819Z</time>
      </trkpt>
      <trkpt lat="43.48481" lon="3.45293">
        <ele>17.5</ele>
        <time>2018-09-25T18:40:44.819Z</time>
      </trkpt>
      <trkpt lat="43.48481" lon="3.45289">
        <ele>17.5</ele>
        <time>2018-09-25T18:40:45.819Z</time>
      </trkpt>
      <trkpt lat="43.48481" lon="3.45283">
        <ele>17.5</ele>
        <time>2018-09-25T18:40:46.819Z</time>
      </trkpt>
      <trkpt lat="43.48482" lon="3.45277">
        <ele>17.6</ele>
        <time>2018-09-25T18:40:47.819Z</time>
      </trkpt>
      <trkpt lat="43.48482" lon="3.45271">
        <ele>17.5</ele>
        <time>2018-09-25T18:40:48.819Z</time>
      </trkpt>
      <trkpt lat="43.48483" lon="3.45265">
        <ele>17.5</ele>
        <time>2018-09-25T18:40:49.819Z</time>
      </trkpt>
      <trkpt lat="43.48483" lon="3.45259">
        <ele>17.5</ele>
        <time>2018-09-25T18:40:50.819Z</time>
      </trkpt>
      <trkpt lat="43.48483" lon="3.45253">
        <ele>17.5</ele>
        <time>2018-09-25T18:40:51.819Z</time>
      </trkpt>
      <trkpt lat="43.48483" lon="3.45247">
        <ele>17.4</ele>
        <time>2018-09-25T18:40:52.819Z</time>
      </trkpt>
      <trkpt lat="43.48483" lon="3.45242">
        <ele>17.3</ele>
        <time>2018-09-25T18:40:53.819Z</time>
      </trkpt>
      <trkpt lat="43.48483" lon="3.45237">
        <ele>17.3</ele>
        <time>2018-09-25T18:40:54.819Z</time>
      </trkpt>
      <trkpt lat="43.48482" lon="3.45231">
        <ele>17.2</ele>
        <time>2018-09-25T18:40:55.819Z</time>
      </trkpt>
      <trkpt lat="43.48481" lon="3.45226">
        <ele>17.1</ele>
        <time>2018-09-25T18:40:56.819Z</time>
      </trkpt>
      <trkpt lat="43.4848" lon="3.45221">
        <ele>17</ele>
        <time>2018-09-25T18:40:57.819Z</time>
      </trkpt>
      <trkpt lat="43.48479" lon="3.45216">
        <ele>17</ele>
        <time>2018-09-25T18:40:58.819Z</time>
      </trkpt>
      <trkpt lat="43.48477" lon="3.4521">
        <ele>16.9</ele>
        <time>2018-09-25T18:40:59.819Z</time>
      </trkpt>
      <trkpt lat="43.48476" lon="3.45205">
        <ele>16.8</ele>
        <time>2018-09-25T18:41:00.819Z</time>
      </trkpt>
      <trkpt lat="43.48475" lon="3.452">
        <ele>16.8</ele>
        <time>2018-09-25T18:41:01.819Z</time>
      </trkpt>
      <trkpt lat="43.48473" lon="3.45194">
        <ele>16.7</ele>
        <time>2018-09-25T18:41:02.819Z</time>
      </trkpt>
      <trkpt lat="43.48472" lon="3.45189">
        <ele>16.7</ele>
        <time>2018-09-25T18:41:03.819Z</time>
      </trkpt>
      <trkpt lat="43.4847" lon="3.45184">
        <ele>16.6</ele>
        <time>2018-09-25T18:41:04.819Z</time>
      </trkpt>
      <trkpt lat="43.48468" lon="3.45179">
        <ele>16.6</ele>
        <time>2018-09-25T18:41:05.819Z</time>
      </trkpt>
      <trkpt lat="43.48466" lon="3.45174">
        <ele>16.6</ele>
        <time>2018-09-25T18:41:06.819Z</time>
      </trkpt>
      <trkpt lat="43.48465" lon="3.45169">
        <ele>16.6</ele>
        <time>2018-09-25T18:41:07.819Z</time>
      </trkpt>
      <trkpt lat="43.48463" lon="3.45164">
        <ele>16.6</ele>
        <time>2018-09-25T18:41:08.819Z</time>
      </trkpt>
      <trkpt lat="43.48461" lon="3.45159">
        <ele>16.6</ele>
        <time>2018-09-25T18:41:09.819Z</time>
      </trkpt>
      <trkpt lat="43.48459" lon="3.45154">
        <ele>16.6</ele>
        <time>2018-09-25T18:41:10.819Z</time>
      </trkpt>
      <trkpt lat="43.48457" lon="3.45149">
        <ele>16.6</ele>
        <time>2018-09-25T18:41:11.819Z</time>
      </trkpt>
      <trkpt lat="43.48455" lon="3.45144">
        <ele>16.6</ele>
        <time>2018-09-25T18:41:12.819Z</time>
      </trkpt>
      <trkpt lat="43.48453" lon="3.45139">
        <ele>16.5</ele>
        <time>2018-09-25T18:41:13.819Z</time>
      </trkpt>
      <trkpt lat="43.48451" lon="3.45134">
        <ele>16.5</ele>
        <time>2018-09-25T18:41:14.819Z</time>
      </trkpt>
      <trkpt lat="43.48449" lon="3.45129">
        <ele>16.5</ele>
        <time>2018-09-25T18:41:15.819Z</time>
      </trkpt>
      <trkpt lat="43.48448" lon="3.45123">
        <ele>16.5</ele>
        <time>2018-09-25T18:41:16.819Z</time>
      </trkpt>
      <trkpt lat="43.48446" lon="3.45119">
        <ele>16.5</ele>
        <time>2018-09-25T18:41:17.819Z</time>
      </trkpt>
      <trkpt lat="43.48445" lon="3.45114">
        <ele>16.5</ele>
        <time>2018-09-25T18:41:18.819Z</time>
      </trkpt>
      <trkpt lat="43.48443" lon="3.45108">
        <ele>16.4</ele>
        <time>2018-09-25T18:41:19.819Z</time>
      </trkpt>
      <trkpt lat="43.48442" lon="3.45103">
        <ele>16.4</ele>
        <time>2018-09-25T18:41:20.819Z</time>
      </trkpt>
      <trkpt lat="43.48441" lon="3.45098">
        <ele>16.3</ele>
        <time>2018-09-25T18:41:21.819Z</time>
      </trkpt>
      <trkpt lat="43.4844" lon="3.45093">
        <ele>16.3</ele>
        <time>2018-09-25T18:41:22.819Z</time>
      </trkpt>
      <trkpt lat="43.4844" lon="3.45088">
        <ele>16.2</ele>
        <time>2018-09-25T18:41:23.819Z</time>
      </trkpt>
      <trkpt lat="43.48439" lon="3.45083">
        <ele>16.1</ele>
        <time>2018-09-25T18:41:24.819Z</time>
      </trkpt>
      <trkpt lat="43.48438" lon="3.45078">
        <ele>16</ele>
        <time>2018-09-25T18:41:25.819Z</time>
      </trkpt>
      <trkpt lat="43.48437" lon="3.45074">
        <ele>15.9</ele>
        <time>2018-09-25T18:41:26.819Z</time>
      </trkpt>
      <trkpt lat="43.48436" lon="3.45069">
        <ele>15.8</ele>
        <time>2018-09-25T18:41:27.819Z</time>
      </trkpt>
      <trkpt lat="43.48434" lon="3.45065">
        <ele>15.7</ele>
        <time>2018-09-25T18:41:28.819Z</time>
      </trkpt>
      <trkpt lat="43.48432" lon="3.45061">
        <ele>15.6</ele>
        <time>2018-09-25T18:41:29.819Z</time>
      </trkpt>
      <trkpt lat="43.48429" lon="3.45058">
        <ele>15.5</ele>
        <time>2018-09-25T18:41:30.819Z</time>
      </trkpt>
      <trkpt lat="43.48426" lon="3.45055">
        <ele>15.4</ele>
        <time>2018-09-25T18:41:31.819Z</time>
      </trkpt>
      <trkpt lat="43.48423" lon="3.45052">
        <ele>15.3</ele>
        <time>2018-09-25T18:41:32.819Z</time>
      </trkpt>
      <trkpt lat="43.48421" lon="3.45048">
        <ele>15.2</ele>
        <time>2018-09-25T18:41:33.819Z</time>
      </trkpt>
      <trkpt lat="43.48418" lon="3.45045">
        <ele>15.2</ele>
        <time>2018-09-25T18:41:34.819Z</time>
      </trkpt>
      <trkpt lat="43.48415" lon="3.45042">
        <ele>15.1</ele>
        <time>2018-09-25T18:41:35.819Z</time>
      </trkpt>
      <trkpt lat="43.48412" lon="3.45039">
        <ele>15.1</ele>
        <time>2018-09-25T18:41:36.819Z</time>
      </trkpt>
      <trkpt lat="43.48408" lon="3.45037">
        <ele>15</ele>
        <time>2018-09-25T18:41:37.819Z</time>
      </trkpt>
      <trkpt lat="43.48405" lon="3.45034">
        <ele>15</ele>
        <time>2018-09-25T18:41:38.819Z</time>
      </trkpt>
      <trkpt lat="43.48402" lon="3.45032">
        <ele>15</ele>
        <time>2018-09-25T18:41:39.819Z</time>
      </trkpt>
      <trkpt lat="43.48399" lon="3.45029">
        <ele>15</ele>
        <time>2018-09-25T18:41:40.819Z</time>
      </trkpt>
      <trkpt lat="43.48396" lon="3.45027">
        <ele>15</ele>
        <time>2018-09-25T18:41:41.819Z</time>
      </trkpt>
      <trkpt lat="43.48394" lon="3.45021">
        <ele>15</ele>
        <time>2018-09-25T18:41:43.819Z</time>
      </trkpt>
      <trkpt lat="43.48395" lon="3.45017">
        <ele>15</ele>
        <time>2018-09-25T18:41:44.819Z</time>
      </trkpt>
      <trkpt lat="43.48396" lon="3.45012">
        <ele>14.9</ele>
        <time>2018-09-25T18:41:45.819Z</time>
      </trkpt>
      <trkpt lat="43.48398" lon="3.45007">
        <ele>14.9</ele>
        <time>2018-09-25T18:41:46.819Z</time>
      </trkpt>
      <trkpt lat="43.484" lon="3.45003">
        <ele>14.8</ele>
        <time>2018-09-25T18:41:47.819Z</time>
      </trkpt>
      <trkpt lat="43.48403" lon="3.45">
        <ele>14.8</ele>
        <time>2018-09-25T18:41:48.819Z</time>
      </trkpt>
      <trkpt lat="43.48406" lon="3.44996">
        <ele>14.8</ele>
        <time>2018-09-25T18:41:49.819Z</time>
      </trkpt>
      <trkpt lat="43.48408" lon="3.44992">
        <ele>14.7</ele>
        <time>2018-09-25T18:41:50.819Z</time>
      </trkpt>
      <trkpt lat="43.48411" lon="3.44988">
        <ele>14.7</ele>
        <time>2018-09-25T18:41:51.819Z</time>
      </trkpt>
      <trkpt lat="43.48413" lon="3.44984">
        <ele>14.7</ele>
        <time>2018-09-25T18:41:52.819Z</time>
      </trkpt>
      <trkpt lat="43.48416" lon="3.4498">
        <ele>14.7</ele>
        <time>2018-09-25T18:41:53.819Z</time>
      </trkpt>
      <trkpt lat="43.48418" lon="3.44975">
        <ele>14.6</ele>
        <time>2018-09-25T18:41:54.819Z</time>
      </trkpt>
      <trkpt lat="43.48421" lon="3.44971">
        <ele>14.6</ele>
        <time>2018-09-25T18:41:55.819Z</time>
      </trkpt>
      <trkpt lat="43.48423" lon="3.44967">
        <ele>14.6</ele>
        <time>2018-09-25T18:41:56.819Z</time>
      </trkpt>
      <trkpt lat="43.48426" lon="3.44963">
        <ele>14.6</ele>
        <time>2018-09-25T18:41:57.819Z</time>
      </trkpt>
      <trkpt lat="43.48428" lon="3.44959">
        <ele>14.6</ele>
        <time>2018-09-25T18:41:58.819Z</time>
      </trkpt>
      <trkpt lat="43.4843" lon="3.44955">
        <ele>14.6</ele>
        <time>2018-09-25T18:41:59.819Z</time>
      </trkpt>
      <trkpt lat="43.48433" lon="3.44951">
        <ele>14.6</ele>
        <time>2018-09-25T18:42:00.819Z</time>
      </trkpt>
      <trkpt lat="43.48436" lon="3.44946">
        <ele>14.6</ele>
        <time>2018-09-25T18:42:01.819Z</time>
      </trkpt>
      <trkpt lat="43.48438" lon="3.44941">
        <ele>14.6</ele>
        <time>2018-09-25T18:42:02.819Z</time>
      </trkpt>
      <trkpt lat="43.48441" lon="3.44935">
        <ele>14.6</ele>
        <time>2018-09-25T18:42:03.819Z</time>
      </trkpt>
      <trkpt lat="43.48443" lon="3.4493">
        <ele>14.6</ele>
        <time>2018-09-25T18:42:04.819Z</time>
      </trkpt>
      <trkpt lat="43.48445" lon="3.44925">
        <ele>14.6</ele>
        <time>2018-09-25T18:42:05.819Z</time>
      </trkpt>
      <trkpt lat="43.48448" lon="3.4492">
        <ele>14.6</ele>
        <time>2018-09-25T18:42:06.819Z</time>
      </trkpt>
      <trkpt lat="43.48451" lon="3.44916">
        <ele>14.7</ele>
        <time>2018-09-25T18:42:07.819Z</time>
      </trkpt>
      <trkpt lat="43.48453" lon="3.44912">
        <ele>14.7</ele>
        <time>2018-09-25T18:42:08.819Z</time>
      </trkpt>
      <trkpt lat="43.48456" lon="3.44907">
        <ele>14.8</ele>
        <time>2018-09-25T18:42:09.819Z</time>
      </trkpt>
      <trkpt lat="43.48459" lon="3.44903">
        <ele>14.9</ele>
        <time>2018-09-25T18:42:10.819Z</time>
      </trkpt>
      <trkpt lat="43.48462" lon="3.44898">
        <ele>15</ele>
        <time>2018-09-25T18:42:11.819Z</time>
      </trkpt>
      <trkpt lat="43.48465" lon="3.44894">
        <ele>15.1</ele>
        <time>2018-09-25T18:42:12.819Z</time>
      </trkpt>
      <trkpt lat="43.48468" lon="3.44889">
        <ele>15.2</ele>
        <time>2018-09-25T18:42:13.819Z</time>
      </trkpt>
      <trkpt lat="43.4847" lon="3.44885">
        <ele>15.3</ele>
        <time>2018-09-25T18:42:14.819Z</time>
      </trkpt>
      <trkpt lat="43.48473" lon="3.4488">
        <ele>15.4</ele>
        <time>2018-09-25T18:42:15.819Z</time>
      </trkpt>
      <trkpt lat="43.48475" lon="3.44876">
        <ele>15.5</ele>
        <time>2018-09-25T18:42:16.819Z</time>
      </trkpt>
      <trkpt lat="43.48478" lon="3.44872">
        <ele>15.5</ele>
        <time>2018-09-25T18:42:17.819Z</time>
      </trkpt>
      <trkpt lat="43.4848" lon="3.44867">
        <ele>15.6</ele>
        <time>2018-09-25T18:42:18.819Z</time>
      </trkpt>
      <trkpt lat="43.48483" lon="3.44862">
        <ele>15.7</ele>
        <time>2018-09-25T18:42:19.819Z</time>
      </trkpt>
      <trkpt lat="43.48485" lon="3.44858">
        <ele>15.8</ele>
        <time>2018-09-25T18:42:20.819Z</time>
      </trkpt>
      <trkpt lat="43.48487" lon="3.44853">
        <ele>15.8</ele>
        <time>2018-09-25T18:42:21.819Z</time>
      </trkpt>
      <trkpt lat="43.4849" lon="3.44848">
        <ele>15.9</ele>
        <time>2018-09-25T18:42:22.819Z</time>
      </trkpt>
      <trkpt lat="43.48493" lon="3.44844">
        <ele>15.9</ele>
        <time>2018-09-25T18:42:23.819Z</time>
      </trkpt>
      <trkpt lat="43.48496" lon="3.44839">
        <ele>15.9</ele>
        <time>2018-09-25T18:42:24.819Z</time>
      </trkpt>
      <trkpt lat="43.48498" lon="3.44834">
        <ele>15.9</ele>
        <time>2018-09-25T18:42:25.819Z</time>
      </trkpt>
      <trkpt lat="43.48501" lon="3.44829">
        <ele>15.8</ele>
        <time>2018-09-25T18:42:26.819Z</time>
      </trkpt>
      <trkpt lat="43.48504" lon="3.44825">
        <ele>15.8</ele>
        <time>2018-09-25T18:42:27.819Z</time>
      </trkpt>
      <trkpt lat="43.48507" lon="3.4482">
        <ele>15.7</ele>
        <time>2018-09-25T18:42:28.819Z</time>
      </trkpt>
      <trkpt lat="43.4851" lon="3.44815">
        <ele>15.6</ele>
        <time>2018-09-25T18:42:29.819Z</time>
      </trkpt>
      <trkpt lat="43.48513" lon="3.4481">
        <ele>15.5</ele>
        <time>2018-09-25T18:42:30.819Z</time>
      </trkpt>
      <trkpt lat="43.48516" lon="3.44806">
        <ele>15.5</ele>
        <time>2018-09-25T18:42:31.819Z</time>
      </trkpt>
      <trkpt lat="43.48518" lon="3.44801">
        <ele>15.4</ele>
        <time>2018-09-25T18:42:32.819Z</time>
      </trkpt>
      <trkpt lat="43.48521" lon="3.44796">
        <ele>15.3</ele>
        <time>2018-09-25T18:42:33.819Z</time>
      </trkpt>
      <trkpt lat="43.48524" lon="3.44791">
        <ele>15.2</ele>
        <time>2018-09-25T18:42:34.819Z</time>
      </trkpt>
      <trkpt lat="43.48527" lon="3.44786">
        <ele>15.1</ele>
        <time>2018-09-25T18:42:35.819Z</time>
      </trkpt>
      <trkpt lat="43.4853" lon="3.44781">
        <ele>15</ele>
        <time>2018-09-25T18:42:36.819Z</time>
      </trkpt>
      <trkpt lat="43.48533" lon="3.44776">
        <ele>14.9</ele>
        <time>2018-09-25T18:42:37.819Z</time>
      </trkpt>
      <trkpt lat="43.48536" lon="3.44771">
        <ele>14.8</ele>
        <time>2018-09-25T18:42:38.819Z</time>
      </trkpt>
      <trkpt lat="43.48539" lon="3.44766">
        <ele>14.8</ele>
        <time>2018-09-25T18:42:39.819Z</time>
      </trkpt>
      <trkpt lat="43.48542" lon="3.44761">
        <ele>14.7</ele>
        <time>2018-09-25T18:42:40.819Z</time>
      </trkpt>
      <trkpt lat="43.48545" lon="3.44756">
        <ele>14.7</ele>
        <time>2018-09-25T18:42:41.819Z</time>
      </trkpt>
      <trkpt lat="43.48548" lon="3.44751">
        <ele>14.7</ele>
        <time>2018-09-25T18:42:42.819Z</time>
      </trkpt>
      <trkpt lat="43.48551" lon="3.44746">
        <ele>14.6</ele>
        <time>2018-09-25T18:42:43.819Z</time>
      </trkpt>
      <trkpt lat="43.48554" lon="3.44741">
        <ele>14.7</ele>
        <time>2018-09-25T18:42:44.819Z</time>
      </trkpt>
      <trkpt lat="43.48556" lon="3.44736">
        <ele>14.7</ele>
        <time>2018-09-25T18:42:45.819Z</time>
      </trkpt>
      <trkpt lat="43.48559" lon="3.44731">
        <ele>14.7</ele>
        <time>2018-09-25T18:42:46.819Z</time>
      </trkpt>
      <trkpt lat="43.48561" lon="3.44727">
        <ele>14.7</ele>
        <time>2018-09-25T18:42:47.819Z</time>
      </trkpt>
      <trkpt lat="43.48563" lon="3.44722">
        <ele>14.8</ele>
        <time>2018-09-25T18:42:48.819Z</time>
      </trkpt>
      <trkpt lat="43.48565" lon="3.44718">
        <ele>14.8</ele>
        <time>2018-09-25T18:42:49.819Z</time>
      </trkpt>
      <trkpt lat="43.48567" lon="3.44714">
        <ele>14.9</ele>
        <time>2018-09-25T18:42:50.819Z</time>
      </trkpt>
      <trkpt lat="43.48569" lon="3.44711">
        <ele>14.9</ele>
        <time>2018-09-25T18:42:51.819Z</time>
      </trkpt>
      <trkpt lat="43.48572" lon="3.44705">
        <ele>14.9</ele>
        <time>2018-09-25T18:42:53.819Z</time>
      </trkpt>
      <trkpt lat="43.48573" lon="3.44702">
        <ele>15</ele>
        <time>2018-09-25T18:42:54.819Z</time>
      </trkpt>
      <trkpt lat="43.48575" lon="3.44695">
        <ele>15</ele>
        <time>2018-09-25T18:42:56.819Z</time>
      </trkpt>
      <trkpt lat="43.48572" lon="3.4469">
        <ele>15</ele>
        <time>2018-09-25T18:42:58.819Z</time>
      </trkpt>
      <trkpt lat="43.48569" lon="3.44688">
        <ele>15.1</ele>
        <time>2018-09-25T18:42:59.819Z</time>
      </trkpt>
      <trkpt lat="43.48564" lon="3.44684">
        <ele>15.1</ele>
        <time>2018-09-25T18:43:00.819Z</time>
      </trkpt>
      <trkpt lat="43.4856" lon="3.44681">
        <ele>15.1</ele>
        <time>2018-09-25T18:43:01.819Z</time>
      </trkpt>
      <trkpt lat="43.48556" lon="3.44677">
        <ele>15.1</ele>
        <time>2018-09-25T18:43:02.819Z</time>
      </trkpt>
      <trkpt lat="43.48552" lon="3.44674">
        <ele>15.1</ele>
        <time>2018-09-25T18:43:03.819Z</time>
      </trkpt>
      <trkpt lat="43.48548" lon="3.44671">
        <ele>15</ele>
        <time>2018-09-25T18:43:04.819Z</time>
      </trkpt>
      <trkpt lat="43.48544" lon="3.44668">
        <ele>15</ele>
        <time>2018-09-25T18:43:05.819Z</time>
      </trkpt>
      <trkpt lat="43.4854" lon="3.44665">
        <ele>15</ele>
        <time>2018-09-25T18:43:06.819Z</time>
      </trkpt>
      <trkpt lat="43.48537" lon="3.44661">
        <ele>15</ele>
        <time>2018-09-25T18:43:07.819Z</time>
      </trkpt>
      <trkpt lat="43.48535" lon="3.44658">
        <ele>15</ele>
        <time>2018-09-25T18:43:08.819Z</time>
      </trkpt>
      <trkpt lat="43.48532" lon="3.44654">
        <ele>15</ele>
        <time>2018-09-25T18:43:09.819Z</time>
      </trkpt>
      <trkpt lat="43.48529" lon="3.44651">
        <ele>15</ele>
        <time>2018-09-25T18:43:10.819Z</time>
      </trkpt>
      <trkpt lat="43.48527" lon="3.44647">
        <ele>15.1</ele>
        <time>2018-09-25T18:43:11.819Z</time>
      </trkpt>
      <trkpt lat="43.48525" lon="3.44644">
        <ele>15.1</ele>
        <time>2018-09-25T18:43:12.819Z</time>
      </trkpt>
      <trkpt lat="43.48523" lon="3.4464">
        <ele>15.1</ele>
        <time>2018-09-25T18:43:13.819Z</time>
      </trkpt>
      <trkpt lat="43.48521" lon="3.44637">
        <ele>15.1</ele>
        <time>2018-09-25T18:43:14.819Z</time>
      </trkpt>
      <trkpt lat="43.48519" lon="3.44634">
        <ele>15.1</ele>
        <time>2018-09-25T18:43:15.819Z</time>
      </trkpt>
      <trkpt lat="43.48517" lon="3.44631">
        <ele>15.1</ele>
        <time>2018-09-25T18:43:16.819Z</time>
      </trkpt>
      <trkpt lat="43.48513" lon="3.44626">
        <ele>15.1</ele>
        <time>2018-09-25T18:43:18.819Z</time>
      </trkpt>
      <trkpt lat="43.4851" lon="3.44623">
        <ele>15.2</ele>
        <time>2018-09-25T18:43:20.819Z</time>
      </trkpt>
      <trkpt lat="43.48507" lon="3.4462">
        <ele>15.2</ele>
        <time>2018-09-25T18:43:22.819Z</time>
      </trkpt>
      <trkpt lat="43.48504" lon="3.44616">
        <ele>15.2</ele>
        <time>2018-09-25T18:43:24.819Z</time>
      </trkpt>
      <trkpt lat="43.48502" lon="3.44614">
        <ele>15.2</ele>
        <time>2018-09-25T18:43:25.819Z</time>
      </trkpt>
      <trkpt lat="43.48499" lon="3.44612">
        <ele>15.2</ele>
        <time>2018-09-25T18:43:26.819Z</time>
      </trkpt>
      <trkpt lat="43.48495" lon="3.4461">
        <ele>15.2</ele>
        <time>2018-09-25T18:43:27.819Z</time>
      </trkpt>
      <trkpt lat="43.48492" lon="3.44607">
        <ele>15.2</ele>
        <time>2018-09-25T18:43:28.819Z</time>
      </trkpt>
      <trkpt lat="43.48488" lon="3.44604">
        <ele>15.2</ele>
        <time>2018-09-25T18:43:29.819Z</time>
      </trkpt>
      <trkpt lat="43.48486" lon="3.446">
        <ele>15.2</ele>
        <time>2018-09-25T18:43:30.819Z</time>
      </trkpt>
      <trkpt lat="43.48482" lon="3.44597">
        <ele>15.2</ele>
        <time>2018-09-25T18:43:31.819Z</time>
      </trkpt>
      <trkpt lat="43.48479" lon="3.44593">
        <ele>15.3</ele>
        <time>2018-09-25T18:43:32.819Z</time>
      </trkpt>
      <trkpt lat="43.48476" lon="3.4459">
        <ele>15.3</ele>
        <time>2018-09-25T18:43:33.819Z</time>
      </trkpt>
      <trkpt lat="43.48472" lon="3.44587">
        <ele>15.3</ele>
        <time>2018-09-25T18:43:34.819Z</time>
      </trkpt>
      <trkpt lat="43.48469" lon="3.44584">
        <ele>15.3</ele>
        <time>2018-09-25T18:43:35.819Z</time>
      </trkpt>
      <trkpt lat="43.48466" lon="3.44581">
        <ele>15.3</ele>
        <time>2018-09-25T18:43:36.819Z</time>
      </trkpt>
      <trkpt lat="43.48462" lon="3.44578">
        <ele>15.3</ele>
        <time>2018-09-25T18:43:37.819Z</time>
      </trkpt>
      <trkpt lat="43.48459" lon="3.44576">
        <ele>15.3</ele>
        <time>2018-09-25T18:43:38.819Z</time>
      </trkpt>
      <trkpt lat="43.48455" lon="3.44573">
        <ele>15.3</ele>
        <time>2018-09-25T18:43:39.819Z</time>
      </trkpt>
      <trkpt lat="43.48452" lon="3.4457">
        <ele>15.3</ele>
        <time>2018-09-25T18:43:40.819Z</time>
      </trkpt>
      <trkpt lat="43.48448" lon="3.44567">
        <ele>15.3</ele>
        <time>2018-09-25T18:43:41.819Z</time>
      </trkpt>
      <trkpt lat="43.48445" lon="3.44564">
        <ele>15.4</ele>
        <time>2018-09-25T18:43:42.819Z</time>
      </trkpt>
      <trkpt lat="43.48442" lon="3.44562">
        <ele>15.4</ele>
        <time>2018-09-25T18:43:43.819Z</time>
      </trkpt>
      <trkpt lat="43.48439" lon="3.44559">
        <ele>15.4</ele>
        <time>2018-09-25T18:43:44.819Z</time>
      </trkpt>
      <trkpt lat="43.48435" lon="3.44557">
        <ele>15.4</ele>
        <time>2018-09-25T18:43:45.819Z</time>
      </trkpt>
      <trkpt lat="43.48432" lon="3.44554">
        <ele>15.4</ele>
        <time>2018-09-25T18:43:46.819Z</time>
      </trkpt>
      <trkpt lat="43.48429" lon="3.44551">
        <ele>15.4</ele>
        <time>2018-09-25T18:43:47.819Z</time>
      </trkpt>
      <trkpt lat="43.48425" lon="3.44549">
        <ele>15.4</ele>
        <time>2018-09-25T18:43:48.819Z</time>
      </trkpt>
      <trkpt lat="43.48421" lon="3.44546">
        <ele>15.4</ele>
        <time>2018-09-25T18:43:49.819Z</time>
      </trkpt>
      <trkpt lat="43.48418" lon="3.44543">
        <ele>15.4</ele>
        <time>2018-09-25T18:43:50.819Z</time>
      </trkpt>
      <trkpt lat="43.48413" lon="3.4454">
        <ele>15.4</ele>
        <time>2018-09-25T18:43:51.819Z</time>
      </trkpt>
      <trkpt lat="43.4841" lon="3.44537">
        <ele>15.5</ele>
        <time>2018-09-25T18:43:52.819Z</time>
      </trkpt>
      <trkpt lat="43.48406" lon="3.44534">
        <ele>15.5</ele>
        <time>2018-09-25T18:43:53.819Z</time>
      </trkpt>
      <trkpt lat="43.48403" lon="3.44532">
        <ele>15.5</ele>
        <time>2018-09-25T18:43:54.819Z</time>
      </trkpt>
      <trkpt lat="43.48399" lon="3.44529">
        <ele>15.5</ele>
        <time>2018-09-25T18:43:55.819Z</time>
      </trkpt>
      <trkpt lat="43.48396" lon="3.44525">
        <ele>15.5</ele>
        <time>2018-09-25T18:43:56.819Z</time>
      </trkpt>
      <trkpt lat="43.48393" lon="3.44521">
        <ele>15.5</ele>
        <time>2018-09-25T18:43:57.819Z</time>
      </trkpt>
      <trkpt lat="43.48389" lon="3.44518">
        <ele>15.5</ele>
        <time>2018-09-25T18:43:58.819Z</time>
      </trkpt>
      <trkpt lat="43.48386" lon="3.44514">
        <ele>15.6</ele>
        <time>2018-09-25T18:43:59.819Z</time>
      </trkpt>
      <trkpt lat="43.48382" lon="3.4451">
        <ele>15.6</ele>
        <time>2018-09-25T18:44:00.819Z</time>
      </trkpt>
      <trkpt lat="43.48378" lon="3.44507">
        <ele>15.6</ele>
        <time>2018-09-25T18:44:01.819Z</time>
      </trkpt>
      <trkpt lat="43.48375" lon="3.44503">
        <ele>15.6</ele>
        <time>2018-09-25T18:44:02.819Z</time>
      </trkpt>
      <trkpt lat="43.48371" lon="3.44498">
        <ele>15.6</ele>
        <time>2018-09-25T18:44:03.819Z</time>
      </trkpt>
      <trkpt lat="43.48368" lon="3.44494">
        <ele>15.6</ele>
        <time>2018-09-25T18:44:04.819Z</time>
      </trkpt>
      <trkpt lat="43.48364" lon="3.4449">
        <ele>15.7</ele>
        <time>2018-09-25T18:44:05.819Z</time>
      </trkpt>
      <trkpt lat="43.48361" lon="3.44486">
        <ele>15.7</ele>
        <time>2018-09-25T18:44:06.819Z</time>
      </trkpt>
      <trkpt lat="43.48357" lon="3.44482">
        <ele>15.7</ele>
        <time>2018-09-25T18:44:07.819Z</time>
      </trkpt>
      <trkpt lat="43.48354" lon="3.44478">
        <ele>15.7</ele>
        <time>2018-09-25T18:44:08.819Z</time>
      </trkpt>
      <trkpt lat="43.4835" lon="3.44474">
        <ele>15.7</ele>
        <time>2018-09-25T18:44:09.819Z</time>
      </trkpt>
      <trkpt lat="43.48347" lon="3.4447">
        <ele>15.7</ele>
        <time>2018-09-25T18:44:10.819Z</time>
      </trkpt>
      <trkpt lat="43.48344" lon="3.44465">
        <ele>15.7</ele>
        <time>2018-09-25T18:44:11.819Z</time>
      </trkpt>
      <trkpt lat="43.4834" lon="3.44461">
        <ele>15.7</ele>
        <time>2018-09-25T18:44:12.819Z</time>
      </trkpt>
      <trkpt lat="43.48337" lon="3.44457">
        <ele>15.7</ele>
        <time>2018-09-25T18:44:13.819Z</time>
      </trkpt>
      <trkpt lat="43.48334" lon="3.44452">
        <ele>15.7</ele>
        <time>2018-09-25T18:44:14.819Z</time>
      </trkpt>
      <trkpt lat="43.48331" lon="3.44448">
        <ele>15.8</ele>
        <time>2018-09-25T18:44:15.819Z</time>
      </trkpt>
      <trkpt lat="43.48328" lon="3.44444">
        <ele>15.8</ele>
        <time>2018-09-25T18:44:16.819Z</time>
      </trkpt>
      <trkpt lat="43.48325" lon="3.4444">
        <ele>15.8</ele>
        <time>2018-09-25T18:44:17.819Z</time>
      </trkpt>
      <trkpt lat="43.48322" lon="3.44436">
        <ele>15.8</ele>
        <time>2018-09-25T18:44:18.819Z</time>
      </trkpt>
      <trkpt lat="43.48318" lon="3.44432">
        <ele>15.8</ele>
        <time>2018-09-25T18:44:19.819Z</time>
      </trkpt>
      <trkpt lat="43.48315" lon="3.44428">
        <ele>15.8</ele>
        <time>2018-09-25T18:44:20.819Z</time>
      </trkpt>
      <trkpt lat="43.48312" lon="3.44424">
        <ele>15.8</ele>
        <time>2018-09-25T18:44:21.819Z</time>
      </trkpt>
      <trkpt lat="43.48309" lon="3.4442">
        <ele>15.8</ele>
        <time>2018-09-25T18:44:22.819Z</time>
      </trkpt>
      <trkpt lat="43.48306" lon="3.44416">
        <ele>15.8</ele>
        <time>2018-09-25T18:44:23.819Z</time>
      </trkpt>
      <trkpt lat="43.48303" lon="3.44412">
        <ele>15.8</ele>
        <time>2018-09-25T18:44:24.819Z</time>
      </trkpt>
      <trkpt lat="43.483" lon="3.44408">
        <ele>15.9</ele>
        <time>2018-09-25T18:44:25.819Z</time>
      </trkpt>
      <trkpt lat="43.48297" lon="3.44404">
        <ele>15.9</ele>
        <time>2018-09-25T18:44:26.819Z</time>
      </trkpt>
      <trkpt lat="43.48294" lon="3.444">
        <ele>15.9</ele>
        <time>2018-09-25T18:44:27.819Z</time>
      </trkpt>
      <trkpt lat="43.48291" lon="3.44396">
        <ele>15.9</ele>
        <time>2018-09-25T18:44:28.819Z</time>
      </trkpt>
      <trkpt lat="43.48288" lon="3.44392">
        <ele>15.9</ele>
        <time>2018-09-25T18:44:29.819Z</time>
      </trkpt>
      <trkpt lat="43.48286" lon="3.44388">
        <ele>15.9</ele>
        <time>2018-09-25T18:44:30.819Z</time>
      </trkpt>
      <trkpt lat="43.48283" lon="3.44384">
        <ele>15.9</ele>
        <time>2018-09-25T18:44:31.819Z</time>
      </trkpt>
      <trkpt lat="43.48281" lon="3.44381">
        <ele>15.9</ele>
        <time>2018-09-25T18:44:32.819Z</time>
      </trkpt>
      <trkpt lat="43.48278" lon="3.44378">
        <ele>15.9</ele>
        <time>2018-09-25T18:44:33.819Z</time>
      </trkpt>
      <trkpt lat="43.48276" lon="3.44375">
        <ele>16</ele>
        <time>2018-09-25T18:44:34.819Z</time>
      </trkpt>
      <trkpt lat="43.48275" lon="3.44371">
        <ele>16</ele>
        <time>2018-09-25T18:44:35.819Z</time>
      </trkpt>
      <trkpt lat="43.48273" lon="3.44368">
        <ele>16</ele>
        <time>2018-09-25T18:44:36.819Z</time>
      </trkpt>
      <trkpt lat="43.4827" lon="3.44365">
        <ele>16</ele>
        <time>2018-09-25T18:44:37.819Z</time>
      </trkpt>
      <trkpt lat="43.48267" lon="3.44364">
        <ele>16</ele>
        <time>2018-09-25T18:44:38.819Z</time>
      </trkpt>
      <trkpt lat="43.48264" lon="3.44365">
        <ele>16.1</ele>
        <time>2018-09-25T18:44:39.819Z</time>
      </trkpt>
      <trkpt lat="43.4826" lon="3.44368">
        <ele>16.1</ele>
        <time>2018-09-25T18:44:40.819Z</time>
      </trkpt>
      <trkpt lat="43.48255" lon="3.44371">
        <ele>16.1</ele>
        <time>2018-09-25T18:44:41.819Z</time>
      </trkpt>
      <trkpt lat="43.48251" lon="3.44373">
        <ele>16.1</ele>
        <time>2018-09-25T18:44:42.819Z</time>
      </trkpt>
      <trkpt lat="43.48247" lon="3.44375">
        <ele>16.1</ele>
        <time>2018-09-25T18:44:43.819Z</time>
      </trkpt>
      <trkpt lat="43.48244" lon="3.44377">
        <ele>16.1</ele>
        <time>2018-09-25T18:44:44.819Z</time>
      </trkpt>
      <trkpt lat="43.4824" lon="3.44378">
        <ele>16.1</ele>
        <time>2018-09-25T18:44:45.819Z</time>
      </trkpt>
      <trkpt lat="43.48236" lon="3.44379">
        <ele>16.1</ele>
        <time>2018-09-25T18:44:46.819Z</time>
      </trkpt>
      <trkpt lat="43.48232" lon="3.4438">
        <ele>16</ele>
        <time>2018-09-25T18:44:47.819Z</time>
      </trkpt>
      <trkpt lat="43.48228" lon="3.44381">
        <ele>16</ele>
        <time>2018-09-25T18:44:48.819Z</time>
      </trkpt>
      <trkpt lat="43.48224" lon="3.44381">
        <ele>15.9</ele>
        <time>2018-09-25T18:44:49.819Z</time>
      </trkpt>
      <trkpt lat="43.48221" lon="3.44382">
        <ele>15.9</ele>
        <time>2018-09-25T18:44:50.819Z</time>
      </trkpt>
      <trkpt lat="43.48217" lon="3.44383">
        <ele>15.8</ele>
        <time>2018-09-25T18:44:51.819Z</time>
      </trkpt>
      <trkpt lat="43.48213" lon="3.44384">
        <ele>15.8</ele>
        <time>2018-09-25T18:44:52.819Z</time>
      </trkpt>
      <trkpt lat="43.48209" lon="3.44385">
        <ele>15.7</ele>
        <time>2018-09-25T18:44:53.819Z</time>
      </trkpt>
      <trkpt lat="43.48205" lon="3.44385">
        <ele>15.6</ele>
        <time>2018-09-25T18:44:54.819Z</time>
      </trkpt>
      <trkpt lat="43.48201" lon="3.44386">
        <ele>15.6</ele>
        <time>2018-09-25T18:44:55.819Z</time>
      </trkpt>
      <trkpt lat="43.48197" lon="3.44387">
        <ele>15.5</ele>
        <time>2018-09-25T18:44:56.819Z</time>
      </trkpt>
      <trkpt lat="43.48193" lon="3.44387">
        <ele>15.4</ele>
        <time>2018-09-25T18:44:57.819Z</time>
      </trkpt>
      <trkpt lat="43.48189" lon="3.44388">
        <ele>15.3</ele>
        <time>2018-09-25T18:44:58.819Z</time>
      </trkpt>
      <trkpt lat="43.48185" lon="3.44389">
        <ele>15.2</ele>
        <time>2018-09-25T18:44:59.819Z</time>
      </trkpt>
      <trkpt lat="43.48181" lon="3.4439">
        <ele>15.2</ele>
        <time>2018-09-25T18:45:00.819Z</time>
      </trkpt>
      <trkpt lat="43.48177" lon="3.44391">
        <ele>15.1</ele>
        <time>2018-09-25T18:45:01.819Z</time>
      </trkpt>
      <trkpt lat="43.48173" lon="3.44392">
        <ele>15.1</ele>
        <time>2018-09-25T18:45:02.819Z</time>
      </trkpt>
      <trkpt lat="43.48169" lon="3.44392">
        <ele>15</ele>
        <time>2018-09-25T18:45:03.819Z</time>
      </trkpt>
      <trkpt lat="43.48165" lon="3.44393">
        <ele>15</ele>
        <time>2018-09-25T18:45:04.819Z</time>
      </trkpt>
      <trkpt lat="43.48161" lon="3.44393">
        <ele>14.9</ele>
        <time>2018-09-25T18:45:05.819Z</time>
      </trkpt>
      <trkpt lat="43.48156" lon="3.44394">
        <ele>14.9</ele>
        <time>2018-09-25T18:45:06.819Z</time>
      </trkpt>
      <trkpt lat="43.48153" lon="3.44395">
        <ele>14.9</ele>
        <time>2018-09-25T18:45:07.819Z</time>
      </trkpt>
      <trkpt lat="43.48149" lon="3.44396">
        <ele>14.9</ele>
        <time>2018-09-25T18:45:08.819Z</time>
      </trkpt>
      <trkpt lat="43.48144" lon="3.44397">
        <ele>14.9</ele>
        <time>2018-09-25T18:45:09.819Z</time>
      </trkpt>
      <trkpt lat="43.4814" lon="3.44398">
        <ele>14.9</ele>
        <time>2018-09-25T18:45:10.819Z</time>
      </trkpt>
      <trkpt lat="43.48136" lon="3.44398">
        <ele>14.9</ele>
        <time>2018-09-25T18:45:11.819Z</time>
      </trkpt>
      <trkpt lat="43.48131" lon="3.44399">
        <ele>14.9</ele>
        <time>2018-09-25T18:45:12.819Z</time>
      </trkpt>
      <trkpt lat="43.48127" lon="3.444">
        <ele>15</ele>
        <time>2018-09-25T18:45:13.819Z</time>
      </trkpt>
      <trkpt lat="43.48123" lon="3.444">
        <ele>15.1</ele>
        <time>2018-09-25T18:45:14.819Z</time>
      </trkpt>
      <trkpt lat="43.48119" lon="3.444">
        <ele>15.1</ele>
        <time>2018-09-25T18:45:15.819Z</time>
      </trkpt>
      <trkpt lat="43.48115" lon="3.444">
        <ele>15.1</ele>
        <time>2018-09-25T18:45:16.819Z</time>
      </trkpt>
      <trkpt lat="43.48111" lon="3.444">
        <ele>15.2</ele>
        <time>2018-09-25T18:45:17.819Z</time>
      </trkpt>
      <trkpt lat="43.48107" lon="3.44401">
        <ele>15.2</ele>
        <time>2018-09-25T18:45:18.819Z</time>
      </trkpt>
      <trkpt lat="43.48104" lon="3.44401">
        <ele>15.2</ele>
        <time>2018-09-25T18:45:19.819Z</time>
      </trkpt>
      <trkpt lat="43.481" lon="3.44401">
        <ele>15.3</ele>
        <time>2018-09-25T18:45:20.819Z</time>
      </trkpt>
      <trkpt lat="43.48096" lon="3.44401">
        <ele>15.3</ele>
        <time>2018-09-25T18:45:21.819Z</time>
      </trkpt>
      <trkpt lat="43.48092" lon="3.44401">
        <ele>15.3</ele>
        <time>2018-09-25T18:45:22.819Z</time>
      </trkpt>
      <trkpt lat="43.48087" lon="3.44402">
        <ele>15.4</ele>
        <time>2018-09-25T18:45:23.819Z</time>
      </trkpt>
      <trkpt lat="43.48083" lon="3.44402">
        <ele>15.4</ele>
        <time>2018-09-25T18:45:24.819Z</time>
      </trkpt>
      <trkpt lat="43.48079" lon="3.44402">
        <ele>15.4</ele>
        <time>2018-09-25T18:45:25.819Z</time>
      </trkpt>
      <trkpt lat="43.48075" lon="3.44403">
        <ele>15.4</ele>
        <time>2018-09-25T18:45:26.819Z</time>
      </trkpt>
      <trkpt lat="43.48071" lon="3.44403">
        <ele>15.4</ele>
        <time>2018-09-25T18:45:27.819Z</time>
      </trkpt>
      <trkpt lat="43.48066" lon="3.44403">
        <ele>15.4</ele>
        <time>2018-09-25T18:45:28.819Z</time>
      </trkpt>
      <trkpt lat="43.48062" lon="3.44403">
        <ele>15.3</ele>
        <time>2018-09-25T18:45:29.819Z</time>
      </trkpt>
      <trkpt lat="43.48058" lon="3.44404">
        <ele>15.3</ele>
        <time>2018-09-25T18:45:30.819Z</time>
      </trkpt>
      <trkpt lat="43.48054" lon="3.44404">
        <ele>15.2</ele>
        <time>2018-09-25T18:45:31.819Z</time>
      </trkpt>
      <trkpt lat="43.4805" lon="3.44404">
        <ele>15.1</ele>
        <time>2018-09-25T18:45:32.819Z</time>
      </trkpt>
      <trkpt lat="43.48045" lon="3.44404">
        <ele>15.1</ele>
        <time>2018-09-25T18:45:33.819Z</time>
      </trkpt>
      <trkpt lat="43.48041" lon="3.44405">
        <ele>15</ele>
        <time>2018-09-25T18:45:34.819Z</time>
      </trkpt>
      <trkpt lat="43.48037" lon="3.44405">
        <ele>14.9</ele>
        <time>2018-09-25T18:45:35.819Z</time>
      </trkpt>
      <trkpt lat="43.48033" lon="3.44405">
        <ele>14.8</ele>
        <time>2018-09-25T18:45:36.819Z</time>
      </trkpt>
      <trkpt lat="43.48029" lon="3.44405">
        <ele>14.7</ele>
        <time>2018-09-25T18:45:37.819Z</time>
      </trkpt>
      <trkpt lat="43.48026" lon="3.44406">
        <ele>14.7</ele>
        <time>2018-09-25T18:45:38.819Z</time>
      </trkpt>
      <trkpt lat="43.48022" lon="3.44406">
        <ele>14.6</ele>
        <time>2018-09-25T18:45:39.819Z</time>
      </trkpt>
      <trkpt lat="43.48018" lon="3.44406">
        <ele>14.5</ele>
        <time>2018-09-25T18:45:40.819Z</time>
      </trkpt>
      <trkpt lat="43.48015" lon="3.44406">
        <ele>14.4</ele>
        <time>2018-09-25T18:45:41.819Z</time>
      </trkpt>
      <trkpt lat="43.48011" lon="3.44406">
        <ele>14.3</ele>
        <time>2018-09-25T18:45:42.819Z</time>
      </trkpt>
      <trkpt lat="43.48008" lon="3.44406">
        <ele>14.3</ele>
        <time>2018-09-25T18:45:43.819Z</time>
      </trkpt>
      <trkpt lat="43.48004" lon="3.44406">
        <ele>14.2</ele>
        <time>2018-09-25T18:45:44.819Z</time>
      </trkpt>
      <trkpt lat="43.48" lon="3.44407">
        <ele>14.2</ele>
        <time>2018-09-25T18:45:45.819Z</time>
      </trkpt>
      <trkpt lat="43.47997" lon="3.44407">
        <ele>14.1</ele>
        <time>2018-09-25T18:45:46.819Z</time>
      </trkpt>
      <trkpt lat="43.47993" lon="3.44407">
        <ele>14.1</ele>
        <time>2018-09-25T18:45:47.819Z</time>
      </trkpt>
      <trkpt lat="43.4799" lon="3.44407">
        <ele>14.1</ele>
        <time>2018-09-25T18:45:48.819Z</time>
      </trkpt>
      <trkpt lat="43.47986" lon="3.44408">
        <ele>14</ele>
        <time>2018-09-25T18:45:49.819Z</time>
      </trkpt>
      <trkpt lat="43.47982" lon="3.44407">
        <ele>14</ele>
        <time>2018-09-25T18:45:50.819Z</time>
      </trkpt>
      <trkpt lat="43.47978" lon="3.44407">
        <ele>14</ele>
        <time>2018-09-25T18:45:51.819Z</time>
      </trkpt>
      <trkpt lat="43.47974" lon="3.44408">
        <ele>14</ele>
        <time>2018-09-25T18:45:52.819Z</time>
      </trkpt>
      <trkpt lat="43.47971" lon="3.44407">
        <ele>14</ele>
        <time>2018-09-25T18:45:53.819Z</time>
      </trkpt>
      <trkpt lat="43.47967" lon="3.44407">
        <ele>14</ele>
        <time>2018-09-25T18:45:54.819Z</time>
      </trkpt>
      <trkpt lat="43.47963" lon="3.44407">
        <ele>14.1</ele>
        <time>2018-09-25T18:45:55.819Z</time>
      </trkpt>
      <trkpt lat="43.4796" lon="3.44407">
        <ele>14.1</ele>
        <time>2018-09-25T18:45:56.819Z</time>
      </trkpt>
      <trkpt lat="43.47956" lon="3.44406">
        <ele>14.1</ele>
        <time>2018-09-25T18:45:57.819Z</time>
      </trkpt>
      <trkpt lat="43.47952" lon="3.44406">
        <ele>14.2</ele>
        <time>2018-09-25T18:45:58.819Z</time>
      </trkpt>
      <trkpt lat="43.47948" lon="3.44405">
        <ele>14.2</ele>
        <time>2018-09-25T18:45:59.819Z</time>
      </trkpt>
      <trkpt lat="43.47944" lon="3.44405">
        <ele>14.2</ele>
        <time>2018-09-25T18:46:00.819Z</time>
      </trkpt>
      <trkpt lat="43.47941" lon="3.44404">
        <ele>14.2</ele>
        <time>2018-09-25T18:46:01.819Z</time>
      </trkpt>
      <trkpt lat="43.47938" lon="3.44404">
        <ele>14.3</ele>
        <time>2018-09-25T18:46:02.819Z</time>
      </trkpt>
      <trkpt lat="43.47934" lon="3.44404">
        <ele>14.3</ele>
        <time>2018-09-25T18:46:03.819Z</time>
      </trkpt>
      <trkpt lat="43.4793" lon="3.44403">
        <ele>14.4</ele>
        <time>2018-09-25T18:46:04.819Z</time>
      </trkpt>
      <trkpt lat="43.47926" lon="3.44403">
        <ele>14.4</ele>
        <time>2018-09-25T18:46:05.819Z</time>
      </trkpt>
      <trkpt lat="43.47922" lon="3.44403">
        <ele>14.4</ele>
        <time>2018-09-25T18:46:06.819Z</time>
      </trkpt>
      <trkpt lat="43.47918" lon="3.44402">
        <ele>14.5</ele>
        <time>2018-09-25T18:46:07.819Z</time>
      </trkpt>
      <trkpt lat="43.47914" lon="3.44402">
        <ele>14.5</ele>
        <time>2018-09-25T18:46:08.819Z</time>
      </trkpt>
      <trkpt lat="43.4791" lon="3.44402">
        <ele>14.5</ele>
        <time>2018-09-25T18:46:09.819Z</time>
      </trkpt>
      <trkpt lat="43.47906" lon="3.44401">
        <ele>14.5</ele>
        <time>2018-09-25T18:46:10.819Z</time>
      </trkpt>
      <trkpt lat="43.47902" lon="3.44401">
        <ele>14.6</ele>
        <time>2018-09-25T18:46:11.819Z</time>
      </trkpt>
      <trkpt lat="43.47898" lon="3.44401">
        <ele>14.6</ele>
        <time>2018-09-25T18:46:12.819Z</time>
      </trkpt>
      <trkpt lat="43.47894" lon="3.44401">
        <ele>14.6</ele>
        <time>2018-09-25T18:46:13.819Z</time>
      </trkpt>
      <trkpt lat="43.4789" lon="3.444">
        <ele>14.6</ele>
        <time>2018-09-25T18:46:14.819Z</time>
      </trkpt>
      <trkpt lat="43.47887" lon="3.444">
        <ele>14.6</ele>
        <time>2018-09-25T18:46:15.819Z</time>
      </trkpt>
      <trkpt lat="43.47883" lon="3.444">
        <ele>14.6</ele>
        <time>2018-09-25T18:46:16.819Z</time>
      </trkpt>
      <trkpt lat="43.47879" lon="3.44399">
        <ele>14.6</ele>
        <time>2018-09-25T18:46:17.819Z</time>
      </trkpt>
      <trkpt lat="43.47875" lon="3.44399">
        <ele>14.6</ele>
        <time>2018-09-25T18:46:18.819Z</time>
      </trkpt>
      <trkpt lat="43.47871" lon="3.44399">
        <ele>14.6</ele>
        <time>2018-09-25T18:46:19.819Z</time>
      </trkpt>
      <trkpt lat="43.47867" lon="3.44398">
        <ele>14.5</ele>
        <time>2018-09-25T18:46:20.819Z</time>
      </trkpt>
      <trkpt lat="43.47863" lon="3.44398">
        <ele>14.5</ele>
        <time>2018-09-25T18:46:21.819Z</time>
      </trkpt>
      <trkpt lat="43.47859" lon="3.44397">
        <ele>14.5</ele>
        <time>2018-09-25T18:46:22.819Z</time>
      </trkpt>
      <trkpt lat="43.47855" lon="3.44397">
        <ele>14.5</ele>
        <time>2018-09-25T18:46:23.819Z</time>
      </trkpt>
      <trkpt lat="43.47852" lon="3.44396">
        <ele>14.5</ele>
        <time>2018-09-25T18:46:24.819Z</time>
      </trkpt>
      <trkpt lat="43.47848" lon="3.44395">
        <ele>14.5</ele>
        <time>2018-09-25T18:46:25.819Z</time>
      </trkpt>
      <trkpt lat="43.47843" lon="3.44395">
        <ele>14.5</ele>
        <time>2018-09-25T18:46:26.819Z</time>
      </trkpt>
      <trkpt lat="43.47839" lon="3.44395">
        <ele>14.5</ele>
        <time>2018-09-25T18:46:27.819Z</time>
      </trkpt>
      <trkpt lat="43.47835" lon="3.44394">
        <ele>14.5</ele>
        <time>2018-09-25T18:46:28.819Z</time>
      </trkpt>
      <trkpt lat="43.47831" lon="3.44393">
        <ele>14.5</ele>
        <time>2018-09-25T18:46:29.819Z</time>
      </trkpt>
      <trkpt lat="43.47827" lon="3.44392">
        <ele>14.5</ele>
        <time>2018-09-25T18:46:30.819Z</time>
      </trkpt>
      <trkpt lat="43.47823" lon="3.44391">
        <ele>14.5</ele>
        <time>2018-09-25T18:46:31.819Z</time>
      </trkpt>
      <trkpt lat="43.47819" lon="3.4439">
        <ele>14.5</ele>
        <time>2018-09-25T18:46:32.819Z</time>
      </trkpt>
      <trkpt lat="43.47815" lon="3.44389">
        <ele>14.5</ele>
        <time>2018-09-25T18:46:33.819Z</time>
      </trkpt>
      <trkpt lat="43.47811" lon="3.44388">
        <ele>14.5</ele>
        <time>2018-09-25T18:46:34.819Z</time>
      </trkpt>
      <trkpt lat="43.47807" lon="3.44387">
        <ele>14.5</ele>
        <time>2018-09-25T18:46:35.819Z</time>
      </trkpt>
      <trkpt lat="43.47803" lon="3.44386">
        <ele>14.5</ele>
        <time>2018-09-25T18:46:36.819Z</time>
      </trkpt>
      <trkpt lat="43.47799" lon="3.44384">
        <ele>14.5</ele>
        <time>2018-09-25T18:46:37.819Z</time>
      </trkpt>
      <trkpt lat="43.47795" lon="3.44383">
        <ele>14.5</ele>
        <time>2018-09-25T18:46:38.819Z</time>
      </trkpt>
      <trkpt lat="43.47792" lon="3.44383">
        <ele>14.5</ele>
        <time>2018-09-25T18:46:39.819Z</time>
      </trkpt>
      <trkpt lat="43.47788" lon="3.44382">
        <ele>14.5</ele>
        <time>2018-09-25T18:46:40.819Z</time>
      </trkpt>
      <trkpt lat="43.47784" lon="3.44381">
        <ele>14.5</ele>
        <time>2018-09-25T18:46:41.819Z</time>
      </trkpt>
      <trkpt lat="43.47781" lon="3.44381">
        <ele>14.5</ele>
        <time>2018-09-25T18:46:42.819Z</time>
      </trkpt>
      <trkpt lat="43.47777" lon="3.4438">
        <ele>14.5</ele>
        <time>2018-09-25T18:46:43.819Z</time>
      </trkpt>
      <trkpt lat="43.47773" lon="3.4438">
        <ele>14.5</ele>
        <time>2018-09-25T18:46:44.819Z</time>
      </trkpt>
      <trkpt lat="43.47769" lon="3.44379">
        <ele>14.5</ele>
        <time>2018-09-25T18:46:45.819Z</time>
      </trkpt>
      <trkpt lat="43.47766" lon="3.44379">
        <ele>14.6</ele>
        <time>2018-09-25T18:46:46.819Z</time>
      </trkpt>
      <trkpt lat="43.47761" lon="3.44378">
        <ele>14.6</ele>
        <time>2018-09-25T18:46:47.819Z</time>
      </trkpt>
      <trkpt lat="43.47757" lon="3.44378">
        <ele>14.6</ele>
        <time>2018-09-25T18:46:48.819Z</time>
      </trkpt>
      <trkpt lat="43.47753" lon="3.44378">
        <ele>14.6</ele>
        <time>2018-09-25T18:46:49.819Z</time>
      </trkpt>
      <trkpt lat="43.47749" lon="3.44378">
        <ele>14.6</ele>
        <time>2018-09-25T18:46:50.819Z</time>
      </trkpt>
      <trkpt lat="43.47744" lon="3.44378">
        <ele>14.6</ele>
        <time>2018-09-25T18:46:51.819Z</time>
      </trkpt>
      <trkpt lat="43.4774" lon="3.44377">
        <ele>14.6</ele>
        <time>2018-09-25T18:46:52.819Z</time>
      </trkpt>
      <trkpt lat="43.47736" lon="3.44377">
        <ele>14.6</ele>
        <time>2018-09-25T18:46:53.819Z</time>
      </trkpt>
      <trkpt lat="43.47731" lon="3.44377">
        <ele>14.6</ele>
        <time>2018-09-25T18:46:54.819Z</time>
      </trkpt>
      <trkpt lat="43.47727" lon="3.44376">
        <ele>14.6</ele>
        <time>2018-09-25T18:46:55.819Z</time>
      </trkpt>
      <trkpt lat="43.47723" lon="3.44376">
        <ele>14.7</ele>
        <time>2018-09-25T18:46:56.819Z</time>
      </trkpt>
      <trkpt lat="43.47719" lon="3.44375">
        <ele>14.7</ele>
        <time>2018-09-25T18:46:57.819Z</time>
      </trkpt>
      <trkpt lat="43.47715" lon="3.44375">
        <ele>14.7</ele>
        <time>2018-09-25T18:46:58.819Z</time>
      </trkpt>
      <trkpt lat="43.47711" lon="3.44375">
        <ele>14.7</ele>
        <time>2018-09-25T18:46:59.819Z</time>
      </trkpt>
      <trkpt lat="43.47707" lon="3.44374">
        <ele>14.7</ele>
        <time>2018-09-25T18:47:00.819Z</time>
      </trkpt>
      <trkpt lat="43.47703" lon="3.44374">
        <ele>14.8</ele>
        <time>2018-09-25T18:47:01.819Z</time>
      </trkpt>
      <trkpt lat="43.47699" lon="3.44374">
        <ele>14.8</ele>
        <time>2018-09-25T18:47:02.819Z</time>
      </trkpt>
      <trkpt lat="43.47696" lon="3.44374">
        <ele>14.8</ele>
        <time>2018-09-25T18:47:03.819Z</time>
      </trkpt>
      <trkpt lat="43.47692" lon="3.44375">
        <ele>14.8</ele>
        <time>2018-09-25T18:47:04.819Z</time>
      </trkpt>
      <trkpt lat="43.47688" lon="3.44376">
        <ele>14.9</ele>
        <time>2018-09-25T18:47:05.819Z</time>
      </trkpt>
      <trkpt lat="43.47684" lon="3.44376">
        <ele>14.9</ele>
        <time>2018-09-25T18:47:06.819Z</time>
      </trkpt>
      <trkpt lat="43.47681" lon="3.44377">
        <ele>14.9</ele>
        <time>2018-09-25T18:47:07.819Z</time>
      </trkpt>
      <trkpt lat="43.47677" lon="3.44379">
        <ele>14.9</ele>
        <time>2018-09-25T18:47:08.819Z</time>
      </trkpt>
      <trkpt lat="43.47673" lon="3.4438">
        <ele>15</ele>
        <time>2018-09-25T18:47:09.819Z</time>
      </trkpt>
      <trkpt lat="43.47668" lon="3.44383">
        <ele>15</ele>
        <time>2018-09-25T18:47:10.819Z</time>
      </trkpt>
      <trkpt lat="43.47664" lon="3.44385">
        <ele>15</ele>
        <time>2018-09-25T18:47:11.819Z</time>
      </trkpt>
      <trkpt lat="43.4766" lon="3.44387">
        <ele>15.1</ele>
        <time>2018-09-25T18:47:12.819Z</time>
      </trkpt>
      <trkpt lat="43.47656" lon="3.44389">
        <ele>15.1</ele>
        <time>2018-09-25T18:47:13.819Z</time>
      </trkpt>
      <trkpt lat="43.47652" lon="3.44392">
        <ele>15.1</ele>
        <time>2018-09-25T18:47:14.819Z</time>
      </trkpt>
      <trkpt lat="43.47649" lon="3.44394">
        <ele>15.1</ele>
        <time>2018-09-25T18:47:15.819Z</time>
      </trkpt>
      <trkpt lat="43.47645" lon="3.44397">
        <ele>15.2</ele>
        <time>2018-09-25T18:47:16.819Z</time>
      </trkpt>
      <trkpt lat="43.47642" lon="3.44399">
        <ele>15.2</ele>
        <time>2018-09-25T18:47:17.819Z</time>
      </trkpt>
      <trkpt lat="43.47638" lon="3.44401">
        <ele>15.2</ele>
        <time>2018-09-25T18:47:18.819Z</time>
      </trkpt>
      <trkpt lat="43.47635" lon="3.44404">
        <ele>15.2</ele>
        <time>2018-09-25T18:47:19.819Z</time>
      </trkpt>
      <trkpt lat="43.47632" lon="3.44406">
        <ele>15.3</ele>
        <time>2018-09-25T18:47:20.819Z</time>
      </trkpt>
      <trkpt lat="43.47628" lon="3.44408">
        <ele>15.3</ele>
        <time>2018-09-25T18:47:21.819Z</time>
      </trkpt>
      <trkpt lat="43.47625" lon="3.44411">
        <ele>15.3</ele>
        <time>2018-09-25T18:47:22.819Z</time>
      </trkpt>
      <trkpt lat="43.47621" lon="3.44414">
        <ele>15.4</ele>
        <time>2018-09-25T18:47:23.819Z</time>
      </trkpt>
      <trkpt lat="43.47618" lon="3.44416">
        <ele>15.4</ele>
        <time>2018-09-25T18:47:24.819Z</time>
      </trkpt>
      <trkpt lat="43.47615" lon="3.44419">
        <ele>15.4</ele>
        <time>2018-09-25T18:47:25.819Z</time>
      </trkpt>
      <trkpt lat="43.47611" lon="3.44422">
        <ele>15.4</ele>
        <time>2018-09-25T18:47:26.819Z</time>
      </trkpt>
      <trkpt lat="43.47608" lon="3.44424">
        <ele>15.5</ele>
        <time>2018-09-25T18:47:27.819Z</time>
      </trkpt>
      <trkpt lat="43.47604" lon="3.44427">
        <ele>15.5</ele>
        <time>2018-09-25T18:47:28.819Z</time>
      </trkpt>
      <trkpt lat="43.47601" lon="3.4443">
        <ele>15.5</ele>
        <time>2018-09-25T18:47:29.819Z</time>
      </trkpt>
      <trkpt lat="43.47597" lon="3.44433">
        <ele>15.5</ele>
        <time>2018-09-25T18:47:30.819Z</time>
      </trkpt>
      <trkpt lat="43.47594" lon="3.44435">
        <ele>15.5</ele>
        <time>2018-09-25T18:47:31.819Z</time>
      </trkpt>
      <trkpt lat="43.4759" lon="3.44438">
        <ele>15.5</ele>
        <time>2018-09-25T18:47:32.819Z</time>
      </trkpt>
      <trkpt lat="43.47587" lon="3.4444">
        <ele>15.5</ele>
        <time>2018-09-25T18:47:33.819Z</time>
      </trkpt>
      <trkpt lat="43.47583" lon="3.44442">
        <ele>15.4</ele>
        <time>2018-09-25T18:47:34.819Z</time>
      </trkpt>
      <trkpt lat="43.4758" lon="3.44445">
        <ele>15.3</ele>
        <time>2018-09-25T18:47:35.819Z</time>
      </trkpt>
      <trkpt lat="43.47577" lon="3.44447">
        <ele>15.3</ele>
        <time>2018-09-25T18:47:36.819Z</time>
      </trkpt>
      <trkpt lat="43.47573" lon="3.4445">
        <ele>15.2</ele>
        <time>2018-09-25T18:47:37.819Z</time>
      </trkpt>
      <trkpt lat="43.47569" lon="3.44452">
        <ele>15.2</ele>
        <time>2018-09-25T18:47:38.819Z</time>
      </trkpt>
      <trkpt lat="43.47566" lon="3.44453">
        <ele>15.2</ele>
        <time>2018-09-25T18:47:39.819Z</time>
      </trkpt>
      <trkpt lat="43.47562" lon="3.44455">
        <ele>15.1</ele>
        <time>2018-09-25T18:47:40.819Z</time>
      </trkpt>
      <trkpt lat="43.47559" lon="3.44456">
        <ele>15</ele>
        <time>2018-09-25T18:47:41.819Z</time>
      </trkpt>
      <trkpt lat="43.47555" lon="3.44456">
        <ele>15</ele>
        <time>2018-09-25T18:47:42.819Z</time>
      </trkpt>
      <trkpt lat="43.47552" lon="3.44456">
        <ele>14.9</ele>
        <time>2018-09-25T18:47:43.819Z</time>
      </trkpt>
      <trkpt lat="43.47548" lon="3.44456">
        <ele>14.9</ele>
        <time>2018-09-25T18:47:44.819Z</time>
      </trkpt>
      <trkpt lat="43.47545" lon="3.44455">
        <ele>14.8</ele>
        <time>2018-09-25T18:47:45.819Z</time>
      </trkpt>
      <trkpt lat="43.47541" lon="3.44454">
        <ele>14.8</ele>
        <time>2018-09-25T18:47:46.819Z</time>
      </trkpt>
      <trkpt lat="43.47538" lon="3.44453">
        <ele>14.7</ele>
        <time>2018-09-25T18:47:47.819Z</time>
      </trkpt>
      <trkpt lat="43.47535" lon="3.44453">
        <ele>14.7</ele>
        <time>2018-09-25T18:47:48.819Z</time>
      </trkpt>
      <trkpt lat="43.47532" lon="3.44451">
        <ele>14.6</ele>
        <time>2018-09-25T18:47:49.819Z</time>
      </trkpt>
      <trkpt lat="43.47529" lon="3.44449">
        <ele>14.6</ele>
        <time>2018-09-25T18:47:50.819Z</time>
      </trkpt>
      <trkpt lat="43.47527" lon="3.44447">
        <ele>14.5</ele>
        <time>2018-09-25T18:47:51.819Z</time>
      </trkpt>
      <trkpt lat="43.47524" lon="3.44445">
        <ele>14.5</ele>
        <time>2018-09-25T18:47:52.819Z</time>
      </trkpt>
      <trkpt lat="43.47521" lon="3.44443">
        <ele>14.4</ele>
        <time>2018-09-25T18:47:53.819Z</time>
      </trkpt>
      <trkpt lat="43.47518" lon="3.44441">
        <ele>14.3</ele>
        <time>2018-09-25T18:47:54.819Z</time>
      </trkpt>
      <trkpt lat="43.47516" lon="3.4444">
        <ele>14.3</ele>
        <time>2018-09-25T18:47:55.819Z</time>
      </trkpt>
      <trkpt lat="43.47513" lon="3.44439">
        <ele>14.2</ele>
        <time>2018-09-25T18:47:56.819Z</time>
      </trkpt>
      <trkpt lat="43.47508" lon="3.44437">
        <ele>14.1</ele>
        <time>2018-09-25T18:47:58.819Z</time>
      </trkpt>
      <trkpt lat="43.47504" lon="3.44435">
        <ele>14</ele>
        <time>2018-09-25T18:48:00.819Z</time>
      </trkpt>
      <trkpt lat="43.47501" lon="3.44433">
        <ele>14</ele>
        <time>2018-09-25T18:48:02.819Z</time>
      </trkpt>
      <trkpt lat="43.47498" lon="3.44431">
        <ele>14</ele>
        <time>2018-09-25T18:48:04.819Z</time>
      </trkpt>
      <trkpt lat="43.47494" lon="3.44435">
        <ele>14</ele>
        <time>2018-09-25T18:48:50.819Z</time>
      </trkpt>
      <trkpt lat="43.47491" lon="3.44437">
        <ele>14</ele>
        <time>2018-09-25T18:48:51.819Z</time>
      </trkpt>
      <trkpt lat="43.47488" lon="3.44439">
        <ele>14</ele>
        <time>2018-09-25T18:48:52.819Z</time>
      </trkpt>
      <trkpt lat="43.47485" lon="3.44441">
        <ele>14</ele>
        <time>2018-09-25T18:48:53.819Z</time>
      </trkpt>
      <trkpt lat="43.47482" lon="3.44444">
        <ele>14</ele>
        <time>2018-09-25T18:48:54.819Z</time>
      </trkpt>
      <trkpt lat="43.47481" lon="3.4445">
        <ele>14</ele>
        <time>2018-09-25T18:48:55.819Z</time>
      </trkpt>
      <trkpt lat="43.47481" lon="3.44455">
        <ele>14</ele>
        <time>2018-09-25T18:48:56.819Z</time>
      </trkpt>
      <trkpt lat="43.4748" lon="3.44461">
        <ele>14</ele>
        <time>2018-09-25T18:48:57.819Z</time>
      </trkpt>
      <trkpt lat="43.4748" lon="3.44466">
        <ele>14</ele>
        <time>2018-09-25T18:48:58.819Z</time>
      </trkpt>
      <trkpt lat="43.47479" lon="3.44471">
        <ele>14</ele>
        <time>2018-09-25T18:48:59.819Z</time>
      </trkpt>
      <trkpt lat="43.47479" lon="3.44476">
        <ele>14</ele>
        <time>2018-09-25T18:49:00.819Z</time>
      </trkpt>
      <trkpt lat="43.47478" lon="3.44481">
        <ele>14</ele>
        <time>2018-09-25T18:49:01.819Z</time>
      </trkpt>
      <trkpt lat="43.47477" lon="3.44487">
        <ele>14.2</ele>
        <time>2018-09-25T18:49:02.819Z</time>
      </trkpt>
      <trkpt lat="43.47477" lon="3.44493">
        <ele>14.5</ele>
        <time>2018-09-25T18:49:03.819Z</time>
      </trkpt>
      <trkpt lat="43.47476" lon="3.44499">
        <ele>14.9</ele>
        <time>2018-09-25T18:49:04.819Z</time>
      </trkpt>
      <trkpt lat="43.47475" lon="3.44505">
        <ele>15.2</ele>
        <time>2018-09-25T18:49:05.819Z</time>
      </trkpt>
      <trkpt lat="43.47474" lon="3.44509">
        <ele>15.4</ele>
        <time>2018-09-25T18:49:06.819Z</time>
      </trkpt>
      <trkpt lat="43.47473" lon="3.44514">
        <ele>15.6</ele>
        <time>2018-09-25T18:49:07.819Z</time>
      </trkpt>
      <trkpt lat="43.47473" lon="3.44518">
        <ele>15.9</ele>
        <time>2018-09-25T18:49:08.819Z</time>
      </trkpt>
      <trkpt lat="43.47472" lon="3.44522">
        <ele>16.1</ele>
        <time>2018-09-25T18:49:09.819Z</time>
      </trkpt>
      <trkpt lat="43.47471" lon="3.44526">
        <ele>16.3</ele>
        <time>2018-09-25T18:49:10.819Z</time>
      </trkpt>
      <trkpt lat="43.4747" lon="3.44531">
        <ele>16.6</ele>
        <time>2018-09-25T18:49:11.819Z</time>
      </trkpt>
      <trkpt lat="43.4747" lon="3.44536">
        <ele>16.8</ele>
        <time>2018-09-25T18:49:12.819Z</time>
      </trkpt>
      <trkpt lat="43.47469" lon="3.4454">
        <ele>17</ele>
        <time>2018-09-25T18:49:13.819Z</time>
      </trkpt>
      <trkpt lat="43.47467" lon="3.44545">
        <ele>17.3</ele>
        <time>2018-09-25T18:49:14.819Z</time>
      </trkpt>
      <trkpt lat="43.47467" lon="3.44549">
        <ele>17.6</ele>
        <time>2018-09-25T18:49:15.819Z</time>
      </trkpt>
      <trkpt lat="43.47466" lon="3.44553">
        <ele>17.8</ele>
        <time>2018-09-25T18:49:16.819Z</time>
      </trkpt>
      <trkpt lat="43.47465" lon="3.44557">
        <ele>18</ele>
        <time>2018-09-25T18:49:17.819Z</time>
      </trkpt>
      <trkpt lat="43.47464" lon="3.44561">
        <ele>18.2</ele>
        <time>2018-09-25T18:49:18.819Z</time>
      </trkpt>
      <trkpt lat="43.47464" lon="3.44565">
        <ele>18.4</ele>
        <time>2018-09-25T18:49:19.819Z</time>
      </trkpt>
      <trkpt lat="43.47463" lon="3.4457">
        <ele>18.7</ele>
        <time>2018-09-25T18:49:20.819Z</time>
      </trkpt>
      <trkpt lat="43.47462" lon="3.44574">
        <ele>18.9</ele>
        <time>2018-09-25T18:49:21.819Z</time>
      </trkpt>
      <trkpt lat="43.47461" lon="3.44578">
        <ele>19.1</ele>
        <time>2018-09-25T18:49:22.819Z</time>
      </trkpt>
      <trkpt lat="43.4746" lon="3.44583">
        <ele>19.4</ele>
        <time>2018-09-25T18:49:23.819Z</time>
      </trkpt>
      <trkpt lat="43.47459" lon="3.44587">
        <ele>19.6</ele>
        <time>2018-09-25T18:49:24.819Z</time>
      </trkpt>
      <trkpt lat="43.47458" lon="3.44592">
        <ele>19.9</ele>
        <time>2018-09-25T18:49:25.819Z</time>
      </trkpt>
      <trkpt lat="43.47457" lon="3.44596">
        <ele>20.1</ele>
        <time>2018-09-25T18:49:26.819Z</time>
      </trkpt>
      <trkpt lat="43.47457" lon="3.446">
        <ele>20.3</ele>
        <time>2018-09-25T18:49:27.819Z</time>
      </trkpt>
      <trkpt lat="43.47456" lon="3.44604">
        <ele>20.5</ele>
        <time>2018-09-25T18:49:28.819Z</time>
      </trkpt>
      <trkpt lat="43.47455" lon="3.44608">
        <ele>20.8</ele>
        <time>2018-09-25T18:49:29.819Z</time>
      </trkpt>
      <trkpt lat="43.47455" lon="3.44612">
        <ele>21</ele>
        <time>2018-09-25T18:49:30.819Z</time>
      </trkpt>
      <trkpt lat="43.47454" lon="3.44616">
        <ele>21.2</ele>
        <time>2018-09-25T18:49:31.819Z</time>
      </trkpt>
      <trkpt lat="43.47453" lon="3.4462">
        <ele>21.4</ele>
        <time>2018-09-25T18:49:32.819Z</time>
      </trkpt>
      <trkpt lat="43.47452" lon="3.44624">
        <ele>21.6</ele>
        <time>2018-09-25T18:49:33.819Z</time>
      </trkpt>
      <trkpt lat="43.47451" lon="3.44627">
        <ele>21.8</ele>
        <time>2018-09-25T18:49:34.819Z</time>
      </trkpt>
      <trkpt lat="43.4745" lon="3.44632">
        <ele>22</ele>
        <time>2018-09-25T18:49:35.819Z</time>
      </trkpt>
      <trkpt lat="43.47449" lon="3.44636">
        <ele>21.9</ele>
        <time>2018-09-25T18:49:36.819Z</time>
      </trkpt>
      <trkpt lat="43.47448" lon="3.44641">
        <ele>21.7</ele>
        <time>2018-09-25T18:49:37.819Z</time>
      </trkpt>
      <trkpt lat="43.47447" lon="3.44645">
        <ele>21.7</ele>
        <time>2018-09-25T18:49:38.819Z</time>
      </trkpt>
      <trkpt lat="43.47446" lon="3.44649">
        <ele>21.6</ele>
        <time>2018-09-25T18:49:39.819Z</time>
      </trkpt>
      <trkpt lat="43.47445" lon="3.44653">
        <ele>21.5</ele>
        <time>2018-09-25T18:49:40.819Z</time>
      </trkpt>
      <trkpt lat="43.47444" lon="3.44656">
        <ele>21.4</ele>
        <time>2018-09-25T18:49:41.819Z</time>
      </trkpt>
      <trkpt lat="43.47444" lon="3.4466">
        <ele>21.3</ele>
        <time>2018-09-25T18:49:42.819Z</time>
      </trkpt>
      <trkpt lat="43.47443" lon="3.44664">
        <ele>21.2</ele>
        <time>2018-09-25T18:49:43.819Z</time>
      </trkpt>
      <trkpt lat="43.47441" lon="3.4467">
        <ele>21</ele>
        <time>2018-09-25T18:49:45.819Z</time>
      </trkpt>
      <trkpt lat="43.47439" lon="3.44676">
        <ele>21.7</ele>
        <time>2018-09-25T18:49:47.819Z</time>
      </trkpt>
      <trkpt lat="43.47436" lon="3.44678">
        <ele>21.8</ele>
        <time>2018-09-25T18:49:49.819Z</time>
      </trkpt>
      <trkpt lat="43.47432" lon="3.44681">
        <ele>22</ele>
        <time>2018-09-25T18:49:51.819Z</time>
      </trkpt>
      <trkpt lat="43.47429" lon="3.44683">
        <ele>22.1</ele>
        <time>2018-09-25T18:49:52.819Z</time>
      </trkpt>
      <trkpt lat="43.47426" lon="3.44685">
        <ele>22.2</ele>
        <time>2018-09-25T18:49:53.819Z</time>
      </trkpt>
      <trkpt lat="43.47423" lon="3.44686">
        <ele>22.3</ele>
        <time>2018-09-25T18:49:54.819Z</time>
      </trkpt>
      <trkpt lat="43.47419" lon="3.44686">
        <ele>22.4</ele>
        <time>2018-09-25T18:49:55.819Z</time>
      </trkpt>
      <trkpt lat="43.47415" lon="3.44684">
        <ele>22.6</ele>
        <time>2018-09-25T18:49:56.819Z</time>
      </trkpt>
      <trkpt lat="43.4741" lon="3.44681">
        <ele>22.7</ele>
        <time>2018-09-25T18:49:57.819Z</time>
      </trkpt>
      <trkpt lat="43.47407" lon="3.44678">
        <ele>22.9</ele>
        <time>2018-09-25T18:49:58.819Z</time>
      </trkpt>
      <trkpt lat="43.47402" lon="3.44675">
        <ele>23</ele>
        <time>2018-09-25T18:49:59.819Z</time>
      </trkpt>
      <trkpt lat="43.47399" lon="3.44671">
        <ele>23.1</ele>
        <time>2018-09-25T18:50:00.819Z</time>
      </trkpt>
      <trkpt lat="43.47395" lon="3.44668">
        <ele>23.3</ele>
        <time>2018-09-25T18:50:01.819Z</time>
      </trkpt>
      <trkpt lat="43.47391" lon="3.44664">
        <ele>23.5</ele>
        <time>2018-09-25T18:50:02.819Z</time>
      </trkpt>
      <trkpt lat="43.47387" lon="3.4466">
        <ele>23.6</ele>
        <time>2018-09-25T18:50:03.819Z</time>
      </trkpt>
      <trkpt lat="43.47383" lon="3.44657">
        <ele>23.7</ele>
        <time>2018-09-25T18:50:04.819Z</time>
      </trkpt>
      <trkpt lat="43.47379" lon="3.44653">
        <ele>23.9</ele>
        <time>2018-09-25T18:50:05.819Z</time>
      </trkpt>
      <trkpt lat="43.47375" lon="3.4465">
        <ele>24</ele>
        <time>2018-09-25T18:50:06.819Z</time>
      </trkpt>
      <trkpt lat="43.47371" lon="3.44648">
        <ele>24.1</ele>
        <time>2018-09-25T18:50:07.819Z</time>
      </trkpt>
      <trkpt lat="43.47367" lon="3.44646">
        <ele>24.2</ele>
        <time>2018-09-25T18:50:08.819Z</time>
      </trkpt>
      <trkpt lat="43.47362" lon="3.44643">
        <ele>24.3</ele>
        <time>2018-09-25T18:50:09.819Z</time>
      </trkpt>
      <trkpt lat="43.47358" lon="3.44641">
        <ele>24.3</ele>
        <time>2018-09-25T18:50:10.819Z</time>
      </trkpt>
      <trkpt lat="43.47353" lon="3.4464">
        <ele>24.4</ele>
        <time>2018-09-25T18:50:11.819Z</time>
      </trkpt>
      <trkpt lat="43.47348" lon="3.44639">
        <ele>24.5</ele>
        <time>2018-09-25T18:50:12.819Z</time>
      </trkpt>
      <trkpt lat="43.47343" lon="3.44639">
        <ele>24.6</ele>
        <time>2018-09-25T18:50:13.819Z</time>
      </trkpt>
      <trkpt lat="43.47338" lon="3.44638">
        <ele>24.7</ele>
        <time>2018-09-25T18:50:14.819Z</time>
      </trkpt>
      <trkpt lat="43.47333" lon="3.44637">
        <ele>24.7</ele>
        <time>2018-09-25T18:50:15.819Z</time>
      </trkpt>
      <trkpt lat="43.47328" lon="3.44636">
        <ele>24.8</ele>
        <time>2018-09-25T18:50:16.819Z</time>
      </trkpt>
      <trkpt lat="43.47323" lon="3.44635">
        <ele>24.9</ele>
        <time>2018-09-25T18:50:17.819Z</time>
      </trkpt>
      <trkpt lat="43.47318" lon="3.44634">
        <ele>24.9</ele>
        <time>2018-09-25T18:50:18.819Z</time>
      </trkpt>
      <trkpt lat="43.47314" lon="3.44633">
        <ele>25</ele>
        <time>2018-09-25T18:50:19.819Z</time>
      </trkpt>
      <trkpt lat="43.47309" lon="3.44632">
        <ele>25.1</ele>
        <time>2018-09-25T18:50:20.819Z</time>
      </trkpt>
      <trkpt lat="43.47305" lon="3.44631">
        <ele>25.1</ele>
        <time>2018-09-25T18:50:21.819Z</time>
      </trkpt>
      <trkpt lat="43.473" lon="3.4463">
        <ele>25.2</ele>
        <time>2018-09-25T18:50:22.819Z</time>
      </trkpt>
      <trkpt lat="43.47296" lon="3.44629">
        <ele>25.3</ele>
        <time>2018-09-25T18:50:23.819Z</time>
      </trkpt>
      <trkpt lat="43.47291" lon="3.44628">
        <ele>25.4</ele>
        <time>2018-09-25T18:50:24.819Z</time>
      </trkpt>
      <trkpt lat="43.47287" lon="3.44626">
        <ele>25.5</ele>
        <time>2018-09-25T18:50:25.819Z</time>
      </trkpt>
      <trkpt lat="43.47282" lon="3.44625">
        <ele>25.5</ele>
        <time>2018-09-25T18:50:26.819Z</time>
      </trkpt>
      <trkpt lat="43.47278" lon="3.44624">
        <ele>25.6</ele>
        <time>2018-09-25T18:50:27.819Z</time>
      </trkpt>
      <trkpt lat="43.47274" lon="3.44622">
        <ele>25.7</ele>
        <time>2018-09-25T18:50:28.819Z</time>
      </trkpt>
      <trkpt lat="43.47269" lon="3.44621">
        <ele>25.8</ele>
        <time>2018-09-25T18:50:29.819Z</time>
      </trkpt>
      <trkpt lat="43.47265" lon="3.4462">
        <ele>25.9</ele>
        <time>2018-09-25T18:50:30.819Z</time>
      </trkpt>
      <trkpt lat="43.4726" lon="3.44619">
        <ele>26</ele>
        <time>2018-09-25T18:50:31.819Z</time>
      </trkpt>
      <trkpt lat="43.47256" lon="3.44617">
        <ele>26.1</ele>
        <time>2018-09-25T18:50:32.819Z</time>
      </trkpt>
      <trkpt lat="43.47251" lon="3.44616">
        <ele>26.3</ele>
        <time>2018-09-25T18:50:33.819Z</time>
      </trkpt>
      <trkpt lat="43.47247" lon="3.44615">
        <ele>26.4</ele>
        <time>2018-09-25T18:50:34.819Z</time>
      </trkpt>
      <trkpt lat="43.47242" lon="3.44613">
        <ele>26.5</ele>
        <time>2018-09-25T18:50:35.819Z</time>
      </trkpt>
      <trkpt lat="43.47238" lon="3.44612">
        <ele>26.6</ele>
        <time>2018-09-25T18:50:36.819Z</time>
      </trkpt>
      <trkpt lat="43.47233" lon="3.44611">
        <ele>26.7</ele>
        <time>2018-09-25T18:50:37.819Z</time>
      </trkpt>
      <trkpt lat="43.47228" lon="3.44609">
        <ele>26.8</ele>
        <time>2018-09-25T18:50:38.819Z</time>
      </trkpt>
      <trkpt lat="43.47223" lon="3.44608">
        <ele>26.9</ele>
        <time>2018-09-25T18:50:39.819Z</time>
      </trkpt>
      <trkpt lat="43.47218" lon="3.44607">
        <ele>27</ele>
        <time>2018-09-25T18:50:40.819Z</time>
      </trkpt>
      <trkpt lat="43.47213" lon="3.44606">
        <ele>27</ele>
        <time>2018-09-25T18:50:41.819Z</time>
      </trkpt>
      <trkpt lat="43.47208" lon="3.44605">
        <ele>27</ele>
        <time>2018-09-25T18:50:42.819Z</time>
      </trkpt>
      <trkpt lat="43.47204" lon="3.44605">
        <ele>26.9</ele>
        <time>2018-09-25T18:50:43.819Z</time>
      </trkpt>
      <trkpt lat="43.472" lon="3.44606">
        <ele>26.9</ele>
        <time>2018-09-25T18:50:44.819Z</time>
      </trkpt>
      <trkpt lat="43.47195" lon="3.44608">
        <ele>26.9</ele>
        <time>2018-09-25T18:50:45.819Z</time>
      </trkpt>
      <trkpt lat="43.47191" lon="3.4461">
        <ele>26.9</ele>
        <time>2018-09-25T18:50:46.819Z</time>
      </trkpt>
      <trkpt lat="43.47186" lon="3.44612">
        <ele>26.9</ele>
        <time>2018-09-25T18:50:47.819Z</time>
      </trkpt>
      <trkpt lat="43.47182" lon="3.44615">
        <ele>26.8</ele>
        <time>2018-09-25T18:50:48.819Z</time>
      </trkpt>
      <trkpt lat="43.47178" lon="3.44617">
        <ele>26.8</ele>
        <time>2018-09-25T18:50:49.819Z</time>
      </trkpt>
      <trkpt lat="43.47173" lon="3.44621">
        <ele>26.8</ele>
        <time>2018-09-25T18:50:50.819Z</time>
      </trkpt>
      <trkpt lat="43.47169" lon="3.44624">
        <ele>26.8</ele>
        <time>2018-09-25T18:50:51.819Z</time>
      </trkpt>
      <trkpt lat="43.47165" lon="3.44628">
        <ele>26.7</ele>
        <time>2018-09-25T18:50:52.819Z</time>
      </trkpt>
      <trkpt lat="43.47161" lon="3.44631">
        <ele>26.7</ele>
        <time>2018-09-25T18:50:53.819Z</time>
      </trkpt>
      <trkpt lat="43.47157" lon="3.44635">
        <ele>26.7</ele>
        <time>2018-09-25T18:50:54.819Z</time>
      </trkpt>
      <trkpt lat="43.47153" lon="3.44639">
        <ele>26.7</ele>
        <time>2018-09-25T18:50:55.819Z</time>
      </trkpt>
      <trkpt lat="43.47149" lon="3.44643">
        <ele>26.6</ele>
        <time>2018-09-25T18:50:56.819Z</time>
      </trkpt>
      <trkpt lat="43.47145" lon="3.44647">
        <ele>26.6</ele>
        <time>2018-09-25T18:50:57.819Z</time>
      </trkpt>
      <trkpt lat="43.47141" lon="3.44651">
        <ele>26.6</ele>
        <time>2018-09-25T18:50:58.819Z</time>
      </trkpt>
      <trkpt lat="43.47137" lon="3.44655">
        <ele>26.6</ele>
        <time>2018-09-25T18:50:59.819Z</time>
      </trkpt>
      <trkpt lat="43.47134" lon="3.44659">
        <ele>26.6</ele>
        <time>2018-09-25T18:51:00.819Z</time>
      </trkpt>
      <trkpt lat="43.4713" lon="3.44663">
        <ele>26.6</ele>
        <time>2018-09-25T18:51:01.819Z</time>
      </trkpt>
      <trkpt lat="43.47126" lon="3.44668">
        <ele>26.6</ele>
        <time>2018-09-25T18:51:02.819Z</time>
      </trkpt>
      <trkpt lat="43.47122" lon="3.44672">
        <ele>26.6</ele>
        <time>2018-09-25T18:51:03.819Z</time>
      </trkpt>
      <trkpt lat="43.47119" lon="3.44676">
        <ele>26.6</ele>
        <time>2018-09-25T18:51:04.819Z</time>
      </trkpt>
      <trkpt lat="43.47115" lon="3.4468">
        <ele>26.6</ele>
        <time>2018-09-25T18:51:05.819Z</time>
      </trkpt>
      <trkpt lat="43.47111" lon="3.44685">
        <ele>26.6</ele>
        <time>2018-09-25T18:51:06.819Z</time>
      </trkpt>
      <trkpt lat="43.47107" lon="3.44689">
        <ele>26.5</ele>
        <time>2018-09-25T18:51:07.819Z</time>
      </trkpt>
      <trkpt lat="43.47104" lon="3.44693">
        <ele>26.5</ele>
        <time>2018-09-25T18:51:08.819Z</time>
      </trkpt>
      <trkpt lat="43.471" lon="3.44698">
        <ele>26.5</ele>
        <time>2018-09-25T18:51:09.819Z</time>
      </trkpt>
      <trkpt lat="43.47096" lon="3.44702">
        <ele>26.5</ele>
        <time>2018-09-25T18:51:10.819Z</time>
      </trkpt>
      <trkpt lat="43.47092" lon="3.44706">
        <ele>26.5</ele>
        <time>2018-09-25T18:51:11.819Z</time>
      </trkpt>
      <trkpt lat="43.47089" lon="3.44711">
        <ele>26.5</ele>
        <time>2018-09-25T18:51:12.819Z</time>
      </trkpt>
      <trkpt lat="43.47085" lon="3.44715">
        <ele>26.5</ele>
        <time>2018-09-25T18:51:13.819Z</time>
      </trkpt>
      <trkpt lat="43.47081" lon="3.44719">
        <ele>26.5</ele>
        <time>2018-09-25T18:51:14.819Z</time>
      </trkpt>
      <trkpt lat="43.47078" lon="3.44724">
        <ele>26.5</ele>
        <time>2018-09-25T18:51:15.819Z</time>
      </trkpt>
      <trkpt lat="43.47075" lon="3.44728">
        <ele>26.5</ele>
        <time>2018-09-25T18:51:16.819Z</time>
      </trkpt>
      <trkpt lat="43.47071" lon="3.44732">
        <ele>26.4</ele>
        <time>2018-09-25T18:51:17.819Z</time>
      </trkpt>
      <trkpt lat="43.47067" lon="3.44736">
        <ele>26.4</ele>
        <time>2018-09-25T18:51:18.819Z</time>
      </trkpt>
      <trkpt lat="43.47064" lon="3.4474">
        <ele>26.4</ele>
        <time>2018-09-25T18:51:19.819Z</time>
      </trkpt>
      <trkpt lat="43.4706" lon="3.44745">
        <ele>26.4</ele>
        <time>2018-09-25T18:51:20.819Z</time>
      </trkpt>
      <trkpt lat="43.47056" lon="3.44749">
        <ele>26.4</ele>
        <time>2018-09-25T18:51:21.819Z</time>
      </trkpt>
      <trkpt lat="43.47052" lon="3.44753">
        <ele>26.4</ele>
        <time>2018-09-25T18:51:22.819Z</time>
      </trkpt>
      <trkpt lat="43.47048" lon="3.44757">
        <ele>26.4</ele>
        <time>2018-09-25T18:51:23.819Z</time>
      </trkpt>
      <trkpt lat="43.47045" lon="3.44761">
        <ele>26.4</ele>
        <time>2018-09-25T18:51:24.819Z</time>
      </trkpt>
      <trkpt lat="43.47041" lon="3.44764">
        <ele>26.3</ele>
        <time>2018-09-25T18:51:25.819Z</time>
      </trkpt>
      <trkpt lat="43.47037" lon="3.44769">
        <ele>26.3</ele>
        <time>2018-09-25T18:51:26.819Z</time>
      </trkpt>
      <trkpt lat="43.47033" lon="3.44773">
        <ele>26.3</ele>
        <time>2018-09-25T18:51:27.819Z</time>
      </trkpt>
      <trkpt lat="43.47029" lon="3.44777">
        <ele>26.3</ele>
        <time>2018-09-25T18:51:28.819Z</time>
      </trkpt>
      <trkpt lat="43.47025" lon="3.44781">
        <ele>26.3</ele>
        <time>2018-09-25T18:51:29.819Z</time>
      </trkpt>
      <trkpt lat="43.47022" lon="3.44785">
        <ele>26.2</ele>
        <time>2018-09-25T18:51:30.819Z</time>
      </trkpt>
      <trkpt lat="43.47018" lon="3.44789">
        <ele>26.2</ele>
        <time>2018-09-25T18:51:31.819Z</time>
      </trkpt>
      <trkpt lat="43.47014" lon="3.44793">
        <ele>26.2</ele>
        <time>2018-09-25T18:51:32.819Z</time>
      </trkpt>
      <trkpt lat="43.4701" lon="3.44797">
        <ele>26.2</ele>
        <time>2018-09-25T18:51:33.819Z</time>
      </trkpt>
      <trkpt lat="43.47007" lon="3.44801">
        <ele>26.2</ele>
        <time>2018-09-25T18:51:34.819Z</time>
      </trkpt>
      <trkpt lat="43.47003" lon="3.44805">
        <ele>26.1</ele>
        <time>2018-09-25T18:51:35.819Z</time>
      </trkpt>
      <trkpt lat="43.46999" lon="3.44809">
        <ele>26.1</ele>
        <time>2018-09-25T18:51:36.819Z</time>
      </trkpt>
      <trkpt lat="43.46994" lon="3.44812">
        <ele>26.1</ele>
        <time>2018-09-25T18:51:37.819Z</time>
      </trkpt>
      <trkpt lat="43.4699" lon="3.44815">
        <ele>26</ele>
        <time>2018-09-25T18:51:38.819Z</time>
      </trkpt>
      <trkpt lat="43.46986" lon="3.44818">
        <ele>26</ele>
        <time>2018-09-25T18:51:39.819Z</time>
      </trkpt>
      <trkpt lat="43.46982" lon="3.44822">
        <ele>26</ele>
        <time>2018-09-25T18:51:40.819Z</time>
      </trkpt>
      <trkpt lat="43.46978" lon="3.44825">
        <ele>26</ele>
        <time>2018-09-25T18:51:41.819Z</time>
      </trkpt>
      <trkpt lat="43.46974" lon="3.44829">
        <ele>26</ele>
        <time>2018-09-25T18:51:42.819Z</time>
      </trkpt>
      <trkpt lat="43.46969" lon="3.44833">
        <ele>26</ele>
        <time>2018-09-25T18:51:43.819Z</time>
      </trkpt>
      <trkpt lat="43.46965" lon="3.44837">
        <ele>26</ele>
        <time>2018-09-25T18:51:44.819Z</time>
      </trkpt>
      <trkpt lat="43.4696" lon="3.44841">
        <ele>25.9</ele>
        <time>2018-09-25T18:51:45.819Z</time>
      </trkpt>
      <trkpt lat="43.46956" lon="3.44846">
        <ele>25.9</ele>
        <time>2018-09-25T18:51:46.819Z</time>
      </trkpt>
      <trkpt lat="43.46951" lon="3.44849">
        <ele>25.9</ele>
        <time>2018-09-25T18:51:47.819Z</time>
      </trkpt>
      <trkpt lat="43.46947" lon="3.44853">
        <ele>25.9</ele>
        <time>2018-09-25T18:51:48.819Z</time>
      </trkpt>
      <trkpt lat="43.46943" lon="3.44858">
        <ele>25.9</ele>
        <time>2018-09-25T18:51:49.819Z</time>
      </trkpt>
      <trkpt lat="43.46939" lon="3.44862">
        <ele>25.9</ele>
        <time>2018-09-25T18:51:50.819Z</time>
      </trkpt>
      <trkpt lat="43.46934" lon="3.44867">
        <ele>25.9</ele>
        <time>2018-09-25T18:51:51.819Z</time>
      </trkpt>
      <trkpt lat="43.4693" lon="3.4487">
        <ele>25.9</ele>
        <time>2018-09-25T18:51:52.819Z</time>
      </trkpt>
      <trkpt lat="43.46925" lon="3.44874">
        <ele>25.9</ele>
        <time>2018-09-25T18:51:53.819Z</time>
      </trkpt>
      <trkpt lat="43.46921" lon="3.44878">
        <ele>25.9</ele>
        <time>2018-09-25T18:51:54.819Z</time>
      </trkpt>
      <trkpt lat="43.46917" lon="3.44881">
        <ele>25.8</ele>
        <time>2018-09-25T18:51:55.819Z</time>
      </trkpt>
      <trkpt lat="43.46912" lon="3.44885">
        <ele>25.8</ele>
        <time>2018-09-25T18:51:56.819Z</time>
      </trkpt>
      <trkpt lat="43.46908" lon="3.44888">
        <ele>25.8</ele>
        <time>2018-09-25T18:51:57.819Z</time>
      </trkpt>
      <trkpt lat="43.46904" lon="3.44892">
        <ele>25.8</ele>
        <time>2018-09-25T18:51:58.819Z</time>
      </trkpt>
      <trkpt lat="43.469" lon="3.44895">
        <ele>25.8</ele>
        <time>2018-09-25T18:51:59.819Z</time>
      </trkpt>
      <trkpt lat="43.46895" lon="3.44899">
        <ele>25.8</ele>
        <time>2018-09-25T18:52:00.819Z</time>
      </trkpt>
      <trkpt lat="43.46891" lon="3.44903">
        <ele>25.8</ele>
        <time>2018-09-25T18:52:01.819Z</time>
      </trkpt>
      <trkpt lat="43.46886" lon="3.44906">
        <ele>25.8</ele>
        <time>2018-09-25T18:52:02.819Z</time>
      </trkpt>
      <trkpt lat="43.46882" lon="3.4491">
        <ele>25.7</ele>
        <time>2018-09-25T18:52:03.819Z</time>
      </trkpt>
      <trkpt lat="43.46879" lon="3.44915">
        <ele>25.7</ele>
        <time>2018-09-25T18:52:04.819Z</time>
      </trkpt>
      <trkpt lat="43.46875" lon="3.44919">
        <ele>25.7</ele>
        <time>2018-09-25T18:52:05.819Z</time>
      </trkpt>
      <trkpt lat="43.46871" lon="3.44923">
        <ele>25.7</ele>
        <time>2018-09-25T18:52:06.819Z</time>
      </trkpt>
      <trkpt lat="43.46867" lon="3.44927">
        <ele>25.7</ele>
        <time>2018-09-25T18:52:07.819Z</time>
      </trkpt>
      <trkpt lat="43.46863" lon="3.44933">
        <ele>25.7</ele>
        <time>2018-09-25T18:52:08.819Z</time>
      </trkpt>
      <trkpt lat="43.46859" lon="3.44938">
        <ele>25.7</ele>
        <time>2018-09-25T18:52:09.819Z</time>
      </trkpt>
      <trkpt lat="43.46855" lon="3.44943">
        <ele>25.7</ele>
        <time>2018-09-25T18:52:10.819Z</time>
      </trkpt>
      <trkpt lat="43.46852" lon="3.44948">
        <ele>25.6</ele>
        <time>2018-09-25T18:52:11.819Z</time>
      </trkpt>
      <trkpt lat="43.46848" lon="3.44954">
        <ele>25.6</ele>
        <time>2018-09-25T18:52:12.819Z</time>
      </trkpt>
      <trkpt lat="43.46845" lon="3.44959">
        <ele>25.6</ele>
        <time>2018-09-25T18:52:13.819Z</time>
      </trkpt>
      <trkpt lat="43.46841" lon="3.44964">
        <ele>25.6</ele>
        <time>2018-09-25T18:52:14.819Z</time>
      </trkpt>
      <trkpt lat="43.46838" lon="3.4497">
        <ele>25.6</ele>
        <time>2018-09-25T18:52:15.819Z</time>
      </trkpt>
      <trkpt lat="43.46836" lon="3.44976">
        <ele>25.6</ele>
        <time>2018-09-25T18:52:16.819Z</time>
      </trkpt>
      <trkpt lat="43.46833" lon="3.44982">
        <ele>25.6</ele>
        <time>2018-09-25T18:52:17.819Z</time>
      </trkpt>
      <trkpt lat="43.4683" lon="3.44988">
        <ele>25.5</ele>
        <time>2018-09-25T18:52:18.819Z</time>
      </trkpt>
      <trkpt lat="43.46828" lon="3.44994">
        <ele>25.5</ele>
        <time>2018-09-25T18:52:19.819Z</time>
      </trkpt>
      <trkpt lat="43.46825" lon="3.44999">
        <ele>25.5</ele>
        <time>2018-09-25T18:52:20.819Z</time>
      </trkpt>
      <trkpt lat="43.46822" lon="3.45005">
        <ele>25.5</ele>
        <time>2018-09-25T18:52:21.819Z</time>
      </trkpt>
      <trkpt lat="43.46821" lon="3.45011">
        <ele>25.5</ele>
        <time>2018-09-25T18:52:22.819Z</time>
      </trkpt>
      <trkpt lat="43.46819" lon="3.45017">
        <ele>25.5</ele>
        <time>2018-09-25T18:52:23.819Z</time>
      </trkpt>
      <trkpt lat="43.46816" lon="3.45023">
        <ele>25.5</ele>
        <time>2018-09-25T18:52:24.819Z</time>
      </trkpt>
      <trkpt lat="43.46814" lon="3.45028">
        <ele>25.4</ele>
        <time>2018-09-25T18:52:25.819Z</time>
      </trkpt>
      <trkpt lat="43.46812" lon="3.45034">
        <ele>25.4</ele>
        <time>2018-09-25T18:52:26.819Z</time>
      </trkpt>
      <trkpt lat="43.4681" lon="3.45039">
        <ele>25.4</ele>
        <time>2018-09-25T18:52:27.819Z</time>
      </trkpt>
      <trkpt lat="43.46807" lon="3.45045">
        <ele>25.4</ele>
        <time>2018-09-25T18:52:28.819Z</time>
      </trkpt>
      <trkpt lat="43.46805" lon="3.4505">
        <ele>25.4</ele>
        <time>2018-09-25T18:52:29.819Z</time>
      </trkpt>
      <trkpt lat="43.46803" lon="3.45055">
        <ele>25.4</ele>
        <time>2018-09-25T18:52:30.819Z</time>
      </trkpt>
      <trkpt lat="43.46801" lon="3.4506">
        <ele>25.4</ele>
        <time>2018-09-25T18:52:31.819Z</time>
      </trkpt>
      <trkpt lat="43.46799" lon="3.45066">
        <ele>25.4</ele>
        <time>2018-09-25T18:52:32.819Z</time>
      </trkpt>
      <trkpt lat="43.46797" lon="3.45071">
        <ele>25.3</ele>
        <time>2018-09-25T18:52:33.819Z</time>
      </trkpt>
      <trkpt lat="43.46795" lon="3.45075">
        <ele>25.3</ele>
        <time>2018-09-25T18:52:34.819Z</time>
      </trkpt>
      <trkpt lat="43.46793" lon="3.45081">
        <ele>25.3</ele>
        <time>2018-09-25T18:52:35.819Z</time>
      </trkpt>
      <trkpt lat="43.46791" lon="3.45086">
        <ele>25.3</ele>
        <time>2018-09-25T18:52:36.819Z</time>
      </trkpt>
      <trkpt lat="43.46788" lon="3.4509">
        <ele>25.2</ele>
        <time>2018-09-25T18:52:37.819Z</time>
      </trkpt>
      <trkpt lat="43.46785" lon="3.45095">
        <ele>25.2</ele>
        <time>2018-09-25T18:52:38.819Z</time>
      </trkpt>
      <trkpt lat="43.46783" lon="3.451">
        <ele>25.2</ele>
        <time>2018-09-25T18:52:39.819Z</time>
      </trkpt>
      <trkpt lat="43.46781" lon="3.45105">
        <ele>25.2</ele>
        <time>2018-09-25T18:52:40.819Z</time>
      </trkpt>
      <trkpt lat="43.46778" lon="3.4511">
        <ele>25.2</ele>
        <time>2018-09-25T18:52:41.819Z</time>
      </trkpt>
      <trkpt lat="43.46776" lon="3.45115">
        <ele>25.2</ele>
        <time>2018-09-25T18:52:42.819Z</time>
      </trkpt>
      <trkpt lat="43.46773" lon="3.45119">
        <ele>25.1</ele>
        <time>2018-09-25T18:52:43.819Z</time>
      </trkpt>
      <trkpt lat="43.46771" lon="3.45124">
        <ele>25.1</ele>
        <time>2018-09-25T18:52:44.819Z</time>
      </trkpt>
      <trkpt lat="43.46769" lon="3.45129">
        <ele>25.1</ele>
        <time>2018-09-25T18:52:45.819Z</time>
      </trkpt>
      <trkpt lat="43.46767" lon="3.45133">
        <ele>25.1</ele>
        <time>2018-09-25T18:52:46.819Z</time>
      </trkpt>
      <trkpt lat="43.46764" lon="3.45138">
        <ele>25.1</ele>
        <time>2018-09-25T18:52:47.819Z</time>
      </trkpt>
      <trkpt lat="43.46762" lon="3.45142">
        <ele>25.1</ele>
        <time>2018-09-25T18:52:48.819Z</time>
      </trkpt>
      <trkpt lat="43.46759" lon="3.45147">
        <ele>25.1</ele>
        <time>2018-09-25T18:52:49.819Z</time>
      </trkpt>
      <trkpt lat="43.46757" lon="3.45151">
        <ele>25.1</ele>
        <time>2018-09-25T18:52:50.819Z</time>
      </trkpt>
      <trkpt lat="43.46755" lon="3.45156">
        <ele>25.1</ele>
        <time>2018-09-25T18:52:51.819Z</time>
      </trkpt>
      <trkpt lat="43.46753" lon="3.4516">
        <ele>25.1</ele>
        <time>2018-09-25T18:52:52.819Z</time>
      </trkpt>
      <trkpt lat="43.46751" lon="3.45164">
        <ele>25</ele>
        <time>2018-09-25T18:52:53.819Z</time>
      </trkpt>
      <trkpt lat="43.46749" lon="3.45168">
        <ele>25</ele>
        <time>2018-09-25T18:52:54.819Z</time>
      </trkpt>
      <trkpt lat="43.46747" lon="3.45172">
        <ele>25</ele>
        <time>2018-09-25T18:52:55.819Z</time>
      </trkpt>
      <trkpt lat="43.46745" lon="3.45176">
        <ele>25</ele>
        <time>2018-09-25T18:52:56.819Z</time>
      </trkpt>
      <trkpt lat="43.46742" lon="3.45181">
        <ele>25</ele>
        <time>2018-09-25T18:52:57.819Z</time>
      </trkpt>
      <trkpt lat="43.4674" lon="3.45185">
        <ele>25</ele>
        <time>2018-09-25T18:52:58.819Z</time>
      </trkpt>
      <trkpt lat="43.46738" lon="3.4519">
        <ele>25</ele>
        <time>2018-09-25T18:52:59.819Z</time>
      </trkpt>
      <trkpt lat="43.46736" lon="3.45194">
        <ele>25</ele>
        <time>2018-09-25T18:53:00.819Z</time>
      </trkpt>
      <trkpt lat="43.46734" lon="3.45198">
        <ele>25</ele>
        <time>2018-09-25T18:53:01.819Z</time>
      </trkpt>
      <trkpt lat="43.46732" lon="3.45202">
        <ele>25</ele>
        <time>2018-09-25T18:53:02.819Z</time>
      </trkpt>
      <trkpt lat="43.4673" lon="3.45206">
        <ele>25</ele>
        <time>2018-09-25T18:53:03.819Z</time>
      </trkpt>
      <trkpt lat="43.46728" lon="3.45211">
        <ele>25</ele>
        <time>2018-09-25T18:53:04.819Z</time>
      </trkpt>
      <trkpt lat="43.46726" lon="3.45216">
        <ele>25</ele>
        <time>2018-09-25T18:53:05.819Z</time>
      </trkpt>
      <trkpt lat="43.46724" lon="3.45221">
        <ele>25</ele>
        <time>2018-09-25T18:53:06.819Z</time>
      </trkpt>
      <trkpt lat="43.46722" lon="3.45227">
        <ele>25</ele>
        <time>2018-09-25T18:53:07.819Z</time>
      </trkpt>
      <trkpt lat="43.4672" lon="3.45232">
        <ele>25</ele>
        <time>2018-09-25T18:53:08.819Z</time>
      </trkpt>
      <trkpt lat="43.46719" lon="3.45239">
        <ele>25</ele>
        <time>2018-09-25T18:53:09.819Z</time>
      </trkpt>
      <trkpt lat="43.46717" lon="3.45245">
        <ele>25</ele>
        <time>2018-09-25T18:53:10.819Z</time>
      </trkpt>
      <trkpt lat="43.46716" lon="3.45252">
        <ele>25</ele>
        <time>2018-09-25T18:53:11.819Z</time>
      </trkpt>
      <trkpt lat="43.46715" lon="3.45258">
        <ele>25.1</ele>
        <time>2018-09-25T18:53:12.819Z</time>
      </trkpt>
      <trkpt lat="43.46714" lon="3.45264">
        <ele>25.1</ele>
        <time>2018-09-25T18:53:13.819Z</time>
      </trkpt>
      <trkpt lat="43.46714" lon="3.4527">
        <ele>25.1</ele>
        <time>2018-09-25T18:53:14.819Z</time>
      </trkpt>
      <trkpt lat="43.46713" lon="3.45277">
        <ele>25.2</ele>
        <time>2018-09-25T18:53:15.819Z</time>
      </trkpt>
      <trkpt lat="43.46713" lon="3.45283">
        <ele>25.3</ele>
        <time>2018-09-25T18:53:16.819Z</time>
      </trkpt>
      <trkpt lat="43.46712" lon="3.4529">
        <ele>25.4</ele>
        <time>2018-09-25T18:53:17.819Z</time>
      </trkpt>
      <trkpt lat="43.46712" lon="3.45296">
        <ele>25.5</ele>
        <time>2018-09-25T18:53:18.819Z</time>
      </trkpt>
      <trkpt lat="43.46711" lon="3.45302">
        <ele>25.7</ele>
        <time>2018-09-25T18:53:19.819Z</time>
      </trkpt>
      <trkpt lat="43.46711" lon="3.45308">
        <ele>25.8</ele>
        <time>2018-09-25T18:53:20.819Z</time>
      </trkpt>
      <trkpt lat="43.46711" lon="3.45314">
        <ele>25.9</ele>
        <time>2018-09-25T18:53:21.819Z</time>
      </trkpt>
      <trkpt lat="43.46711" lon="3.4532">
        <ele>26</ele>
        <time>2018-09-25T18:53:22.819Z</time>
      </trkpt>
      <trkpt lat="43.4671" lon="3.45325">
        <ele>26.1</ele>
        <time>2018-09-25T18:53:23.819Z</time>
      </trkpt>
      <trkpt lat="43.4671" lon="3.45331">
        <ele>26.2</ele>
        <time>2018-09-25T18:53:24.819Z</time>
      </trkpt>
      <trkpt lat="43.4671" lon="3.45337">
        <ele>26.2</ele>
        <time>2018-09-25T18:53:25.819Z</time>
      </trkpt>
      <trkpt lat="43.46709" lon="3.45343">
        <ele>26.2</ele>
        <time>2018-09-25T18:53:26.819Z</time>
      </trkpt>
      <trkpt lat="43.46709" lon="3.45348">
        <ele>26.3</ele>
        <time>2018-09-25T18:53:27.819Z</time>
      </trkpt>
      <trkpt lat="43.46709" lon="3.45354">
        <ele>26.3</ele>
        <time>2018-09-25T18:53:28.819Z</time>
      </trkpt>
      <trkpt lat="43.46708" lon="3.4536">
        <ele>26.3</ele>
        <time>2018-09-25T18:53:29.819Z</time>
      </trkpt>
      <trkpt lat="43.46708" lon="3.45366">
        <ele>26.3</ele>
        <time>2018-09-25T18:53:30.819Z</time>
      </trkpt>
      <trkpt lat="43.46708" lon="3.45371">
        <ele>26.4</ele>
        <time>2018-09-25T18:53:31.819Z</time>
      </trkpt>
      <trkpt lat="43.46708" lon="3.45378">
        <ele>26.4</ele>
        <time>2018-09-25T18:53:32.819Z</time>
      </trkpt>
      <trkpt lat="43.46708" lon="3.45384">
        <ele>26.5</ele>
        <time>2018-09-25T18:53:33.819Z</time>
      </trkpt>
      <trkpt lat="43.46707" lon="3.45389">
        <ele>26.5</ele>
        <time>2018-09-25T18:53:34.819Z</time>
      </trkpt>
      <trkpt lat="43.46706" lon="3.45395">
        <ele>26.5</ele>
        <time>2018-09-25T18:53:35.819Z</time>
      </trkpt>
      <trkpt lat="43.46706" lon="3.454">
        <ele>26.6</ele>
        <time>2018-09-25T18:53:36.819Z</time>
      </trkpt>
      <trkpt lat="43.46705" lon="3.45406">
        <ele>26.7</ele>
        <time>2018-09-25T18:53:37.819Z</time>
      </trkpt>
      <trkpt lat="43.46705" lon="3.45411">
        <ele>26.9</ele>
        <time>2018-09-25T18:53:38.819Z</time>
      </trkpt>
      <trkpt lat="43.46704" lon="3.45416">
        <ele>27</ele>
        <time>2018-09-25T18:53:39.819Z</time>
      </trkpt>
      <trkpt lat="43.46704" lon="3.45421">
        <ele>27.2</ele>
        <time>2018-09-25T18:53:40.819Z</time>
      </trkpt>
      <trkpt lat="43.46704" lon="3.45427">
        <ele>27.5</ele>
        <time>2018-09-25T18:53:41.819Z</time>
      </trkpt>
      <trkpt lat="43.46704" lon="3.45432">
        <ele>27.7</ele>
        <time>2018-09-25T18:53:42.819Z</time>
      </trkpt>
      <trkpt lat="43.46704" lon="3.45438">
        <ele>28</ele>
        <time>2018-09-25T18:53:43.819Z</time>
      </trkpt>
      <trkpt lat="43.46705" lon="3.45443">
        <ele>28.3</ele>
        <time>2018-09-25T18:53:44.819Z</time>
      </trkpt>
      <trkpt lat="43.46705" lon="3.45448">
        <ele>28.6</ele>
        <time>2018-09-25T18:53:45.819Z</time>
      </trkpt>
      <trkpt lat="43.46705" lon="3.45454">
        <ele>28.9</ele>
        <time>2018-09-25T18:53:46.819Z</time>
      </trkpt>
      <trkpt lat="43.46705" lon="3.4546">
        <ele>29.2</ele>
        <time>2018-09-25T18:53:47.819Z</time>
      </trkpt>
      <trkpt lat="43.46705" lon="3.45466">
        <ele>29.6</ele>
        <time>2018-09-25T18:53:48.819Z</time>
      </trkpt>
      <trkpt lat="43.46705" lon="3.45471">
        <ele>29.9</ele>
        <time>2018-09-25T18:53:49.819Z</time>
      </trkpt>
      <trkpt lat="43.46705" lon="3.45477">
        <ele>30.2</ele>
        <time>2018-09-25T18:53:50.819Z</time>
      </trkpt>
      <trkpt lat="43.46704" lon="3.45482">
        <ele>30.4</ele>
        <time>2018-09-25T18:53:51.819Z</time>
      </trkpt>
      <trkpt lat="43.46704" lon="3.45487">
        <ele>30.7</ele>
        <time>2018-09-25T18:53:52.819Z</time>
      </trkpt>
      <trkpt lat="43.46704" lon="3.45492">
        <ele>31</ele>
        <time>2018-09-25T18:53:53.819Z</time>
      </trkpt>
      <trkpt lat="43.46704" lon="3.45497">
        <ele>31.3</ele>
        <time>2018-09-25T18:53:54.819Z</time>
      </trkpt>
      <trkpt lat="43.46703" lon="3.45502">
        <ele>31.6</ele>
        <time>2018-09-25T18:53:55.819Z</time>
      </trkpt>
      <trkpt lat="43.46703" lon="3.45507">
        <ele>31.9</ele>
        <time>2018-09-25T18:53:56.819Z</time>
      </trkpt>
      <trkpt lat="43.46703" lon="3.45512">
        <ele>32.2</ele>
        <time>2018-09-25T18:53:57.819Z</time>
      </trkpt>
      <trkpt lat="43.46703" lon="3.45517">
        <ele>32.5</ele>
        <time>2018-09-25T18:53:58.819Z</time>
      </trkpt>
      <trkpt lat="43.46703" lon="3.45522">
        <ele>32.8</ele>
        <time>2018-09-25T18:53:59.819Z</time>
      </trkpt>
      <trkpt lat="43.46702" lon="3.45527">
        <ele>33.1</ele>
        <time>2018-09-25T18:54:00.819Z</time>
      </trkpt>
      <trkpt lat="43.46702" lon="3.45532">
        <ele>33.4</ele>
        <time>2018-09-25T18:54:01.819Z</time>
      </trkpt>
      <trkpt lat="43.46702" lon="3.45537">
        <ele>33.7</ele>
        <time>2018-09-25T18:54:02.819Z</time>
      </trkpt>
      <trkpt lat="43.46702" lon="3.45542">
        <ele>34</ele>
        <time>2018-09-25T18:54:03.819Z</time>
      </trkpt>
      <trkpt lat="43.46702" lon="3.45547">
        <ele>34.4</ele>
        <time>2018-09-25T18:54:04.819Z</time>
      </trkpt>
      <trkpt lat="43.46702" lon="3.45552">
        <ele>34.7</ele>
        <time>2018-09-25T18:54:05.819Z</time>
      </trkpt>
      <trkpt lat="43.46702" lon="3.45557">
        <ele>35</ele>
        <time>2018-09-25T18:54:06.819Z</time>
      </trkpt>
      <trkpt lat="43.46702" lon="3.45563">
        <ele>35.4</ele>
        <time>2018-09-25T18:54:07.819Z</time>
      </trkpt>
      <trkpt lat="43.46702" lon="3.45568">
        <ele>35.8</ele>
        <time>2018-09-25T18:54:08.819Z</time>
      </trkpt>
      <trkpt lat="43.46702" lon="3.45573">
        <ele>36.1</ele>
        <time>2018-09-25T18:54:09.819Z</time>
      </trkpt>
      <trkpt lat="43.46702" lon="3.45579">
        <ele>36.4</ele>
        <time>2018-09-25T18:54:10.819Z</time>
      </trkpt>
      <trkpt lat="43.46702" lon="3.45584">
        <ele>36.7</ele>
        <time>2018-09-25T18:54:11.819Z</time>
      </trkpt>
      <trkpt lat="43.46701" lon="3.45589">
        <ele>37</ele>
        <time>2018-09-25T18:54:12.819Z</time>
      </trkpt>
      <trkpt lat="43.46701" lon="3.45595">
        <ele>37.3</ele>
        <time>2018-09-25T18:54:13.819Z</time>
      </trkpt>
      <trkpt lat="43.46701" lon="3.45599">
        <ele>37.5</ele>
        <time>2018-09-25T18:54:14.819Z</time>
      </trkpt>
      <trkpt lat="43.46701" lon="3.45605">
        <ele>37.8</ele>
        <time>2018-09-25T18:54:15.819Z</time>
      </trkpt>
      <trkpt lat="43.46701" lon="3.4561">
        <ele>38</ele>
        <time>2018-09-25T18:54:16.819Z</time>
      </trkpt>
      <trkpt lat="43.467" lon="3.45615">
        <ele>38.2</ele>
        <time>2018-09-25T18:54:17.819Z</time>
      </trkpt>
      <trkpt lat="43.467" lon="3.4562">
        <ele>38.4</ele>
        <time>2018-09-25T18:54:18.819Z</time>
      </trkpt>
      <trkpt lat="43.467" lon="3.45625">
        <ele>38.6</ele>
        <time>2018-09-25T18:54:19.819Z</time>
      </trkpt>
      <trkpt lat="43.467" lon="3.4563">
        <ele>38.8</ele>
        <time>2018-09-25T18:54:20.819Z</time>
      </trkpt>
      <trkpt lat="43.46699" lon="3.45635">
        <ele>39</ele>
        <time>2018-09-25T18:54:21.819Z</time>
      </trkpt>
      <trkpt lat="43.46699" lon="3.4564">
        <ele>39.2</ele>
        <time>2018-09-25T18:54:22.819Z</time>
      </trkpt>
      <trkpt lat="43.46699" lon="3.45645">
        <ele>39.4</ele>
        <time>2018-09-25T18:54:23.819Z</time>
      </trkpt>
      <trkpt lat="43.46698" lon="3.45649">
        <ele>39.5</ele>
        <time>2018-09-25T18:54:24.819Z</time>
      </trkpt>
      <trkpt lat="43.46698" lon="3.45653">
        <ele>39.7</ele>
        <time>2018-09-25T18:54:25.819Z</time>
      </trkpt>
      <trkpt lat="43.46699" lon="3.45658">
        <ele>39.8</ele>
        <time>2018-09-25T18:54:26.819Z</time>
      </trkpt>
      <trkpt lat="43.46698" lon="3.45662">
        <ele>39.9</ele>
        <time>2018-09-25T18:54:27.819Z</time>
      </trkpt>
      <trkpt lat="43.46698" lon="3.45666">
        <ele>40</ele>
        <time>2018-09-25T18:54:28.819Z</time>
      </trkpt>
      <trkpt lat="43.46697" lon="3.45672">
        <ele>40.1</ele>
        <time>2018-09-25T18:54:29.819Z</time>
      </trkpt>
      <trkpt lat="43.46697" lon="3.45676">
        <ele>40.2</ele>
        <time>2018-09-25T18:54:30.819Z</time>
      </trkpt>
      <trkpt lat="43.46697" lon="3.4568">
        <ele>40.3</ele>
        <time>2018-09-25T18:54:31.819Z</time>
      </trkpt>
      <trkpt lat="43.46697" lon="3.45684">
        <ele>40.5</ele>
        <time>2018-09-25T18:54:32.819Z</time>
      </trkpt>
      <trkpt lat="43.46697" lon="3.45689">
        <ele>40.7</ele>
        <time>2018-09-25T18:54:33.819Z</time>
      </trkpt>
      <trkpt lat="43.46696" lon="3.45693">
        <ele>40.9</ele>
        <time>2018-09-25T18:54:34.819Z</time>
      </trkpt>
      <trkpt lat="43.46696" lon="3.45698">
        <ele>41.1</ele>
        <time>2018-09-25T18:54:35.819Z</time>
      </trkpt>
      <trkpt lat="43.46696" lon="3.45702">
        <ele>41.2</ele>
        <time>2018-09-25T18:54:36.819Z</time>
      </trkpt>
      <trkpt lat="43.46696" lon="3.45707">
        <ele>41.4</ele>
        <time>2018-09-25T18:54:37.819Z</time>
      </trkpt>
      <trkpt lat="43.46695" lon="3.45712">
        <ele>41.5</ele>
        <time>2018-09-25T18:54:38.819Z</time>
      </trkpt>
      <trkpt lat="43.46695" lon="3.45717">
        <ele>41.6</ele>
        <time>2018-09-25T18:54:39.819Z</time>
      </trkpt>
      <trkpt lat="43.46695" lon="3.45721">
        <ele>41.7</ele>
        <time>2018-09-25T18:54:40.819Z</time>
      </trkpt>
      <trkpt lat="43.46695" lon="3.45726">
        <ele>41.7</ele>
        <time>2018-09-25T18:54:41.819Z</time>
      </trkpt>
      <trkpt lat="43.46694" lon="3.4573">
        <ele>41.8</ele>
        <time>2018-09-25T18:54:42.819Z</time>
      </trkpt>
      <trkpt lat="43.46694" lon="3.45735">
        <ele>41.9</ele>
        <time>2018-09-25T18:54:43.819Z</time>
      </trkpt>
      <trkpt lat="43.46694" lon="3.45739">
        <ele>41.9</ele>
        <time>2018-09-25T18:54:44.819Z</time>
      </trkpt>
      <trkpt lat="43.46693" lon="3.45744">
        <ele>42</ele>
        <time>2018-09-25T18:54:45.819Z</time>
      </trkpt>
      <trkpt lat="43.46693" lon="3.45748">
        <ele>42.1</ele>
        <time>2018-09-25T18:54:46.819Z</time>
      </trkpt>
      <trkpt lat="43.46692" lon="3.45753">
        <ele>42.3</ele>
        <time>2018-09-25T18:54:47.819Z</time>
      </trkpt>
      <trkpt lat="43.46692" lon="3.45757">
        <ele>42.5</ele>
        <time>2018-09-25T18:54:48.819Z</time>
      </trkpt>
      <trkpt lat="43.46691" lon="3.45762">
        <ele>42.7</ele>
        <time>2018-09-25T18:54:49.819Z</time>
      </trkpt>
      <trkpt lat="43.46691" lon="3.45766">
        <ele>42.9</ele>
        <time>2018-09-25T18:54:50.819Z</time>
      </trkpt>
      <trkpt lat="43.46691" lon="3.45771">
        <ele>43</ele>
        <time>2018-09-25T18:54:51.819Z</time>
      </trkpt>
      <trkpt lat="43.4669" lon="3.45775">
        <ele>43.2</ele>
        <time>2018-09-25T18:54:52.819Z</time>
      </trkpt>
      <trkpt lat="43.46689" lon="3.45779">
        <ele>43.3</ele>
        <time>2018-09-25T18:54:53.819Z</time>
      </trkpt>
      <trkpt lat="43.46689" lon="3.45783">
        <ele>43.4</ele>
        <time>2018-09-25T18:54:54.819Z</time>
      </trkpt>
      <trkpt lat="43.46689" lon="3.45788">
        <ele>43.5</ele>
        <time>2018-09-25T18:54:55.819Z</time>
      </trkpt>
      <trkpt lat="43.46688" lon="3.45792">
        <ele>43.6</ele>
        <time>2018-09-25T18:54:56.819Z</time>
      </trkpt>
      <trkpt lat="43.46688" lon="3.45797">
        <ele>43.8</ele>
        <time>2018-09-25T18:54:57.819Z</time>
      </trkpt>
      <trkpt lat="43.46687" lon="3.45801">
        <ele>43.9</ele>
        <time>2018-09-25T18:54:58.819Z</time>
      </trkpt>
      <trkpt lat="43.46687" lon="3.45805">
        <ele>44</ele>
        <time>2018-09-25T18:54:59.819Z</time>
      </trkpt>
      <trkpt lat="43.46686" lon="3.45809">
        <ele>44.2</ele>
        <time>2018-09-25T18:55:00.819Z</time>
      </trkpt>
      <trkpt lat="43.46686" lon="3.45813">
        <ele>44.4</ele>
        <time>2018-09-25T18:55:01.819Z</time>
      </trkpt>
      <trkpt lat="43.46685" lon="3.45818">
        <ele>44.7</ele>
        <time>2018-09-25T18:55:02.819Z</time>
      </trkpt>
      <trkpt lat="43.46684" lon="3.45822">
        <ele>44.9</ele>
        <time>2018-09-25T18:55:03.819Z</time>
      </trkpt>
      <trkpt lat="43.46684" lon="3.45826">
        <ele>45.1</ele>
        <time>2018-09-25T18:55:04.819Z</time>
      </trkpt>
      <trkpt lat="43.46683" lon="3.4583">
        <ele>45.2</ele>
        <time>2018-09-25T18:55:05.819Z</time>
      </trkpt>
      <trkpt lat="43.46682" lon="3.45834">
        <ele>45.3</ele>
        <time>2018-09-25T18:55:06.819Z</time>
      </trkpt>
      <trkpt lat="43.46681" lon="3.45839">
        <ele>45.4</ele>
        <time>2018-09-25T18:55:07.819Z</time>
      </trkpt>
      <trkpt lat="43.46681" lon="3.45843">
        <ele>45.5</ele>
        <time>2018-09-25T18:55:08.819Z</time>
      </trkpt>
      <trkpt lat="43.4668" lon="3.45847">
        <ele>45.6</ele>
        <time>2018-09-25T18:55:09.819Z</time>
      </trkpt>
      <trkpt lat="43.4668" lon="3.45852">
        <ele>45.7</ele>
        <time>2018-09-25T18:55:10.819Z</time>
      </trkpt>
      <trkpt lat="43.46679" lon="3.45856">
        <ele>45.9</ele>
        <time>2018-09-25T18:55:11.819Z</time>
      </trkpt>
      <trkpt lat="43.46678" lon="3.4586">
        <ele>46</ele>
        <time>2018-09-25T18:55:12.819Z</time>
      </trkpt>
      <trkpt lat="43.46677" lon="3.45865">
        <ele>46.2</ele>
        <time>2018-09-25T18:55:13.819Z</time>
      </trkpt>
      <trkpt lat="43.46676" lon="3.45868">
        <ele>46.4</ele>
        <time>2018-09-25T18:55:14.819Z</time>
      </trkpt>
      <trkpt lat="43.46675" lon="3.45873">
        <ele>46.5</ele>
        <time>2018-09-25T18:55:15.819Z</time>
      </trkpt>
      <trkpt lat="43.46674" lon="3.45877">
        <ele>46.6</ele>
        <time>2018-09-25T18:55:16.819Z</time>
      </trkpt>
      <trkpt lat="43.46673" lon="3.45881">
        <ele>46.7</ele>
        <time>2018-09-25T18:55:17.819Z</time>
      </trkpt>
      <trkpt lat="43.46673" lon="3.45885">
        <ele>46.8</ele>
        <time>2018-09-25T18:55:18.819Z</time>
      </trkpt>
      <trkpt lat="43.46672" lon="3.45889">
        <ele>46.9</ele>
        <time>2018-09-25T18:55:19.819Z</time>
      </trkpt>
      <trkpt lat="43.46671" lon="3.45893">
        <ele>47</ele>
        <time>2018-09-25T18:55:20.819Z</time>
      </trkpt>
      <trkpt lat="43.4667" lon="3.45897">
        <ele>47</ele>
        <time>2018-09-25T18:55:21.819Z</time>
      </trkpt>
      <trkpt lat="43.46669" lon="3.45902">
        <ele>47.1</ele>
        <time>2018-09-25T18:55:22.819Z</time>
      </trkpt>
      <trkpt lat="43.46668" lon="3.45907">
        <ele>47.2</ele>
        <time>2018-09-25T18:55:23.819Z</time>
      </trkpt>
      <trkpt lat="43.46667" lon="3.45913">
        <ele>47.2</ele>
        <time>2018-09-25T18:55:24.819Z</time>
      </trkpt>
      <trkpt lat="43.46665" lon="3.45919">
        <ele>47.3</ele>
        <time>2018-09-25T18:55:25.819Z</time>
      </trkpt>
      <trkpt lat="43.46664" lon="3.45926">
        <ele>47.4</ele>
        <time>2018-09-25T18:55:26.819Z</time>
      </trkpt>
      <trkpt lat="43.46663" lon="3.45932">
        <ele>47.4</ele>
        <time>2018-09-25T18:55:27.819Z</time>
      </trkpt>
      <trkpt lat="43.46661" lon="3.45939">
        <ele>47.5</ele>
        <time>2018-09-25T18:55:28.819Z</time>
      </trkpt>
      <trkpt lat="43.4666" lon="3.45945">
        <ele>47.6</ele>
        <time>2018-09-25T18:55:29.819Z</time>
      </trkpt>
      <trkpt lat="43.46659" lon="3.45949">
        <ele>47.7</ele>
        <time>2018-09-25T18:55:30.819Z</time>
      </trkpt>
      <trkpt lat="43.46658" lon="3.45954">
        <ele>47.7</ele>
        <time>2018-09-25T18:55:31.819Z</time>
      </trkpt>
      <trkpt lat="43.46657" lon="3.45958">
        <ele>47.8</ele>
        <time>2018-09-25T18:55:32.819Z</time>
      </trkpt>
      <trkpt lat="43.46656" lon="3.45962">
        <ele>47.8</ele>
        <time>2018-09-25T18:55:33.819Z</time>
      </trkpt>
      <trkpt lat="43.46655" lon="3.45966">
        <ele>47.8</ele>
        <time>2018-09-25T18:55:34.819Z</time>
      </trkpt>
      <trkpt lat="43.46654" lon="3.4597">
        <ele>47.9</ele>
        <time>2018-09-25T18:55:35.819Z</time>
      </trkpt>
      <trkpt lat="43.46654" lon="3.45974">
        <ele>47.9</ele>
        <time>2018-09-25T18:55:36.819Z</time>
      </trkpt>
      <trkpt lat="43.46653" lon="3.45977">
        <ele>47.9</ele>
        <time>2018-09-25T18:55:37.819Z</time>
      </trkpt>
      <trkpt lat="43.46652" lon="3.45981">
        <ele>48</ele>
        <time>2018-09-25T18:55:38.819Z</time>
      </trkpt>
      <trkpt lat="43.46651" lon="3.45987">
        <ele>48.2</ele>
        <time>2018-09-25T18:55:40.819Z</time>
      </trkpt>
      <trkpt lat="43.4665" lon="3.45992">
        <ele>48.3</ele>
        <time>2018-09-25T18:55:42.819Z</time>
      </trkpt>
      <trkpt lat="43.46648" lon="3.45997">
        <ele>48.5</ele>
        <time>2018-09-25T18:55:44.819Z</time>
      </trkpt>
      <trkpt lat="43.46647" lon="3.46003">
        <ele>48.7</ele>
        <time>2018-09-25T18:55:46.819Z</time>
      </trkpt>
      <trkpt lat="43.46646" lon="3.46008">
        <ele>48.8</ele>
        <time>2018-09-25T18:55:47.819Z</time>
      </trkpt>
      <trkpt lat="43.46646" lon="3.46011">
        <ele>48.9</ele>
        <time>2018-09-25T18:55:48.819Z</time>
      </trkpt>
      <trkpt lat="43.46645" lon="3.46015">
        <ele>49</ele>
        <time>2018-09-25T18:55:49.819Z</time>
      </trkpt>
      <trkpt lat="43.46645" lon="3.46019">
        <ele>49.1</ele>
        <time>2018-09-25T18:55:50.819Z</time>
      </trkpt>
      <trkpt lat="43.46645" lon="3.46023">
        <ele>49.1</ele>
        <time>2018-09-25T18:55:51.819Z</time>
      </trkpt>
      <trkpt lat="43.46644" lon="3.46027">
        <ele>49.2</ele>
        <time>2018-09-25T18:55:52.819Z</time>
      </trkpt>
      <trkpt lat="43.46644" lon="3.46031">
        <ele>49.2</ele>
        <time>2018-09-25T18:55:53.819Z</time>
      </trkpt>
      <trkpt lat="43.46643" lon="3.46035">
        <ele>49.2</ele>
        <time>2018-09-25T18:55:54.819Z</time>
      </trkpt>
      <trkpt lat="43.46643" lon="3.46039">
        <ele>49.3</ele>
        <time>2018-09-25T18:55:55.819Z</time>
      </trkpt>
      <trkpt lat="43.46641" lon="3.46046">
        <ele>49.3</ele>
        <time>2018-09-25T18:55:57.819Z</time>
      </trkpt>
      <trkpt lat="43.46641" lon="3.4605">
        <ele>49.3</ele>
        <time>2018-09-25T18:55:58.819Z</time>
      </trkpt>
      <trkpt lat="43.4664" lon="3.46057">
        <ele>49.4</ele>
        <time>2018-09-25T18:56:00.819Z</time>
      </trkpt>
      <trkpt lat="43.46639" lon="3.46062">
        <ele>49.4</ele>
        <time>2018-09-25T18:56:02.819Z</time>
      </trkpt>
      <trkpt lat="43.46639" lon="3.46067">
        <ele>49.5</ele>
        <time>2018-09-25T18:56:04.819Z</time>
      </trkpt>
      <trkpt lat="43.46639" lon="3.46073">
        <ele>49.8</ele>
        <time>2018-09-25T18:56:06.819Z</time>
      </trkpt>
      <trkpt lat="43.46639" lon="3.4608">
        <ele>50.1</ele>
        <time>2018-09-25T18:56:08.819Z</time>
      </trkpt>
      <trkpt lat="43.46638" lon="3.46087">
        <ele>50.2</ele>
        <time>2018-09-25T18:56:10.819Z</time>
      </trkpt>
      <trkpt lat="43.46638" lon="3.46093">
        <ele>50.4</ele>
        <time>2018-09-25T18:56:12.819Z</time>
      </trkpt>
      <trkpt lat="43.46638" lon="3.461">
        <ele>50.5</ele>
        <time>2018-09-25T18:56:14.819Z</time>
      </trkpt>
      <trkpt lat="43.46639" lon="3.46107">
        <ele>50.6</ele>
        <time>2018-09-25T18:56:16.819Z</time>
      </trkpt>
      <trkpt lat="43.46639" lon="3.46113">
        <ele>50.7</ele>
        <time>2018-09-25T18:56:18.819Z</time>
      </trkpt>
      <trkpt lat="43.4664" lon="3.4612">
        <ele>50.9</ele>
        <time>2018-09-25T18:56:20.819Z</time>
      </trkpt>
      <trkpt lat="43.46641" lon="3.46127">
        <ele>51</ele>
        <time>2018-09-25T18:56:22.819Z</time>
      </trkpt>
      <trkpt lat="43.46641" lon="3.46134">
        <ele>51.2</ele>
        <time>2018-09-25T18:56:24.819Z</time>
      </trkpt>
      <trkpt lat="43.46641" lon="3.46142">
        <ele>51.4</ele>
        <time>2018-09-25T18:56:26.819Z</time>
      </trkpt>
      <trkpt lat="43.46641" lon="3.46148">
        <ele>51.5</ele>
        <time>2018-09-25T18:56:28.819Z</time>
      </trkpt>
      <trkpt lat="43.46641" lon="3.46153">
        <ele>51.6</ele>
        <time>2018-09-25T18:56:30.819Z</time>
      </trkpt>
      <trkpt lat="43.46641" lon="3.46157">
        <ele>51.7</ele>
        <time>2018-09-25T18:56:32.819Z</time>
      </trkpt>
      <trkpt lat="43.46642" lon="3.46162">
        <ele>51.8</ele>
        <time>2018-09-25T18:56:34.819Z</time>
      </trkpt>
      <trkpt lat="43.46642" lon="3.46168">
        <ele>51.9</ele>
        <time>2018-09-25T18:56:36.819Z</time>
      </trkpt>
      <trkpt lat="43.46641" lon="3.46172">
        <ele>52</ele>
        <time>2018-09-25T18:56:37.819Z</time>
      </trkpt>
      <trkpt lat="43.46641" lon="3.46176">
        <ele>52</ele>
        <time>2018-09-25T18:56:38.819Z</time>
      </trkpt>
      <trkpt lat="43.4664" lon="3.46181">
        <ele>52</ele>
        <time>2018-09-25T18:56:39.819Z</time>
      </trkpt>
      <trkpt lat="43.4664" lon="3.46184">
        <ele>52</ele>
        <time>2018-09-25T18:56:40.819Z</time>
      </trkpt>
      <trkpt lat="43.4664" lon="3.46192">
        <ele>52</ele>
        <time>2018-09-25T18:56:42.819Z</time>
      </trkpt>
      <trkpt lat="43.4664" lon="3.46196">
        <ele>52</ele>
        <time>2018-09-25T18:56:43.819Z</time>
      </trkpt>
      <trkpt lat="43.46639" lon="3.46201">
        <ele>52</ele>
        <time>2018-09-25T18:56:44.819Z</time>
      </trkpt>
      <trkpt lat="43.46638" lon="3.46206">
        <ele>52</ele>
        <time>2018-09-25T18:56:45.819Z</time>
      </trkpt>
      <trkpt lat="43.46637" lon="3.46211">
        <ele>52</ele>
        <time>2018-09-25T18:56:46.819Z</time>
      </trkpt>
      <trkpt lat="43.46636" lon="3.46217">
        <ele>52</ele>
        <time>2018-09-25T18:56:48.819Z</time>
      </trkpt>
      <trkpt lat="43.46635" lon="3.46224">
        <ele>52.1</ele>
        <time>2018-09-25T18:56:50.819Z</time>
      </trkpt>
      <trkpt lat="43.46635" lon="3.46228">
        <ele>52.2</ele>
        <time>2018-09-25T18:56:51.819Z</time>
      </trkpt>
      <trkpt lat="43.46635" lon="3.46232">
        <ele>52.3</ele>
        <time>2018-09-25T18:56:52.819Z</time>
      </trkpt>
      <trkpt lat="43.46636" lon="3.46239">
        <ele>52.5</ele>
        <time>2018-09-25T18:56:54.819Z</time>
      </trkpt>
      <trkpt lat="43.46636" lon="3.46242">
        <ele>52.6</ele>
        <time>2018-09-25T18:56:55.819Z</time>
      </trkpt>
      <trkpt lat="43.46637" lon="3.46248">
        <ele>52.8</ele>
        <time>2018-09-25T18:56:57.819Z</time>
      </trkpt>
      <trkpt lat="43.46638" lon="3.46251">
        <ele>52.9</ele>
        <time>2018-09-25T18:57:04.819Z</time>
      </trkpt>
      <trkpt lat="43.46641" lon="3.46251">
        <ele>53</ele>
        <time>2018-09-25T18:57:09.819Z</time>
      </trkpt>
      <trkpt lat="43.46643" lon="3.46247">
        <ele>53</ele>
        <time>2018-09-25T18:57:26.819Z</time>
      </trkpt>
      <trkpt lat="43.46639" lon="3.4625">
        <ele>53</ele>
        <time>2018-09-25T18:57:45.819Z</time>
      </trkpt>
      <trkpt lat="43.46636" lon="3.46251">
        <ele>53</ele>
        <time>2018-09-25T18:57:46.819Z</time>
      </trkpt>
      <trkpt lat="43.46634" lon="3.46254">
        <ele>53</ele>
        <time>2018-09-25T18:57:47.819Z</time>
      </trkpt>
      <trkpt lat="43.46634" lon="3.4626">
        <ele>53</ele>
        <time>2018-09-25T18:57:49.819Z</time>
      </trkpt>
      <trkpt lat="43.46635" lon="3.46267">
        <ele>52.9</ele>
        <time>2018-09-25T18:57:51.819Z</time>
      </trkpt>
      <trkpt lat="43.46635" lon="3.46272">
        <ele>52.9</ele>
        <time>2018-09-25T18:57:52.819Z</time>
      </trkpt>
      <trkpt lat="43.46636" lon="3.46278">
        <ele>52.8</ele>
        <time>2018-09-25T18:57:54.819Z</time>
      </trkpt>
      <trkpt lat="43.46637" lon="3.46286">
        <ele>52.8</ele>
        <time>2018-09-25T18:57:56.819Z</time>
      </trkpt>
      <trkpt lat="43.46637" lon="3.46292">
        <ele>52.8</ele>
        <time>2018-09-25T18:57:57.819Z</time>
      </trkpt>
      <trkpt lat="43.46637" lon="3.46298">
        <ele>52.8</ele>
        <time>2018-09-25T18:57:59.819Z</time>
      </trkpt>
      <trkpt lat="43.46637" lon="3.46302">
        <ele>52.8</ele>
        <time>2018-09-25T18:58:00.819Z</time>
      </trkpt>
      <trkpt lat="43.46637" lon="3.46307">
        <ele>52.8</ele>
        <time>2018-09-25T18:58:01.819Z</time>
      </trkpt>
      <trkpt lat="43.46638" lon="3.46312">
        <ele>52.8</ele>
        <time>2018-09-25T18:58:02.819Z</time>
      </trkpt>
      <trkpt lat="43.46638" lon="3.46316">
        <ele>52.8</ele>
        <time>2018-09-25T18:58:03.819Z</time>
      </trkpt>
      <trkpt lat="43.46638" lon="3.46323">
        <ele>52.8</ele>
        <time>2018-09-25T18:58:05.819Z</time>
      </trkpt>
      <trkpt lat="43.4664" lon="3.46331">
        <ele>52.9</ele>
        <time>2018-09-25T18:58:07.819Z</time>
      </trkpt>
      <trkpt lat="43.4664" lon="3.46336">
        <ele>53</ele>
        <time>2018-09-25T18:58:09.819Z</time>
      </trkpt>
      <trkpt lat="43.46642" lon="3.46342">
        <ele>53</ele>
        <time>2018-09-25T18:58:11.819Z</time>
      </trkpt>
      <trkpt lat="43.46643" lon="3.46348">
        <ele>53</ele>
        <time>2018-09-25T18:58:13.819Z</time>
      </trkpt>
      <trkpt lat="43.46645" lon="3.4635">
        <ele>53</ele>
        <time>2018-09-25T18:58:15.819Z</time>
      </trkpt>
      <trkpt lat="43.4665" lon="3.4635">
        <ele>53.2</ele>
        <time>2018-09-25T18:58:17.819Z</time>
      </trkpt>
      <trkpt lat="43.46653" lon="3.4635">
        <ele>53.3</ele>
        <time>2018-09-25T18:58:18.819Z</time>
      </trkpt>
      <trkpt lat="43.46656" lon="3.4635">
        <ele>53.3</ele>
        <time>2018-09-25T18:58:19.819Z</time>
      </trkpt>
      <trkpt lat="43.4666" lon="3.4635">
        <ele>53.4</ele>
        <time>2018-09-25T18:58:20.819Z</time>
      </trkpt>
      <trkpt lat="43.46664" lon="3.46349">
        <ele>53.5</ele>
        <time>2018-09-25T18:58:21.819Z</time>
      </trkpt>
      <trkpt lat="43.46668" lon="3.46349">
        <ele>53.6</ele>
        <time>2018-09-25T18:58:22.819Z</time>
      </trkpt>
      <trkpt lat="43.46671" lon="3.46348">
        <ele>53.7</ele>
        <time>2018-09-25T18:58:23.819Z</time>
      </trkpt>
      <trkpt lat="43.46675" lon="3.46347">
        <ele>53.7</ele>
        <time>2018-09-25T18:58:24.819Z</time>
      </trkpt>
      <trkpt lat="43.4668" lon="3.46346">
        <ele>53.9</ele>
        <time>2018-09-25T18:58:25.819Z</time>
      </trkpt>
      <trkpt lat="43.46685" lon="3.46346">
        <ele>54</ele>
        <time>2018-09-25T18:58:26.819Z</time>
      </trkpt>
      <trkpt lat="43.4669" lon="3.46346">
        <ele>53.7</ele>
        <time>2018-09-25T18:58:27.819Z</time>
      </trkpt>
      <trkpt lat="43.46696" lon="3.46345">
        <ele>53.3</ele>
        <time>2018-09-25T18:58:28.819Z</time>
      </trkpt>
      <trkpt lat="43.46701" lon="3.46345">
        <ele>53</ele>
        <time>2018-09-25T18:58:29.819Z</time>
      </trkpt>
      <trkpt lat="43.46707" lon="3.46345">
        <ele>52.7</ele>
        <time>2018-09-25T18:58:30.819Z</time>
      </trkpt>
      <trkpt lat="43.46712" lon="3.46346">
        <ele>52.4</ele>
        <time>2018-09-25T18:58:31.819Z</time>
      </trkpt>
      <trkpt lat="43.46718" lon="3.46347">
        <ele>52.2</ele>
        <time>2018-09-25T18:58:32.819Z</time>
      </trkpt>
      <trkpt lat="43.46723" lon="3.46348">
        <ele>52</ele>
        <time>2018-09-25T18:58:33.819Z</time>
      </trkpt>
      <trkpt lat="43.46729" lon="3.46349">
        <ele>51.9</ele>
        <time>2018-09-25T18:58:34.819Z</time>
      </trkpt>
      <trkpt lat="43.46734" lon="3.46351">
        <ele>51.8</ele>
        <time>2018-09-25T18:58:35.819Z</time>
      </trkpt>
      <trkpt lat="43.4674" lon="3.46351">
        <ele>51.8</ele>
        <time>2018-09-25T18:58:36.819Z</time>
      </trkpt>
      <trkpt lat="43.46745" lon="3.46352">
        <ele>51.7</ele>
        <time>2018-09-25T18:58:37.819Z</time>
      </trkpt>
      <trkpt lat="43.46749" lon="3.46354">
        <ele>51.6</ele>
        <time>2018-09-25T18:58:38.819Z</time>
      </trkpt>
      <trkpt lat="43.46753" lon="3.46355">
        <ele>51.6</ele>
        <time>2018-09-25T18:58:39.819Z</time>
      </trkpt>
      <trkpt lat="43.46757" lon="3.46355">
        <ele>51.5</ele>
        <time>2018-09-25T18:58:40.819Z</time>
      </trkpt>
      <trkpt lat="43.46761" lon="3.46356">
        <ele>51.5</ele>
        <time>2018-09-25T18:58:41.819Z</time>
      </trkpt>
      <trkpt lat="43.46765" lon="3.46357">
        <ele>51.4</ele>
        <time>2018-09-25T18:58:42.819Z</time>
      </trkpt>
      <trkpt lat="43.46769" lon="3.46358">
        <ele>51.4</ele>
        <time>2018-09-25T18:58:43.819Z</time>
      </trkpt>
      <trkpt lat="43.46773" lon="3.46359">
        <ele>51.3</ele>
        <time>2018-09-25T18:58:44.819Z</time>
      </trkpt>
      <trkpt lat="43.46777" lon="3.46359">
        <ele>51.2</ele>
        <time>2018-09-25T18:58:45.819Z</time>
      </trkpt>
      <trkpt lat="43.46781" lon="3.4636">
        <ele>51.1</ele>
        <time>2018-09-25T18:58:46.819Z</time>
      </trkpt>
      <trkpt lat="43.46784" lon="3.46361">
        <ele>51.1</ele>
        <time>2018-09-25T18:58:47.819Z</time>
      </trkpt>
      <trkpt lat="43.46787" lon="3.4636">
        <ele>51.1</ele>
        <time>2018-09-25T18:58:48.819Z</time>
      </trkpt>
      <trkpt lat="43.4679" lon="3.46361">
        <ele>51.2</ele>
        <time>2018-09-25T18:58:49.819Z</time>
      </trkpt>
      <trkpt lat="43.46791" lon="3.46365">
        <ele>51.3</ele>
        <time>2018-09-25T18:58:50.819Z</time>
      </trkpt>
      <trkpt lat="43.46792" lon="3.46371">
        <ele>51.5</ele>
        <time>2018-09-25T18:58:51.819Z</time>
      </trkpt>
      <trkpt lat="43.46793" lon="3.46376">
        <ele>51.7</ele>
        <time>2018-09-25T18:58:52.819Z</time>
      </trkpt>
      <trkpt lat="43.46794" lon="3.46381">
        <ele>51.9</ele>
        <time>2018-09-25T18:58:53.819Z</time>
      </trkpt>
      <trkpt lat="43.46794" lon="3.46386">
        <ele>52.1</ele>
        <time>2018-09-25T18:58:54.819Z</time>
      </trkpt>
      <trkpt lat="43.46795" lon="3.46392">
        <ele>52.3</ele>
        <time>2018-09-25T18:58:55.819Z</time>
      </trkpt>
      <trkpt lat="43.46796" lon="3.46397">
        <ele>52.4</ele>
        <time>2018-09-25T18:58:56.819Z</time>
      </trkpt>
      <trkpt lat="43.46797" lon="3.46403">
        <ele>52.5</ele>
        <time>2018-09-25T18:58:57.819Z</time>
      </trkpt>
      <trkpt lat="43.46797" lon="3.46408">
        <ele>52.6</ele>
        <time>2018-09-25T18:58:58.819Z</time>
      </trkpt>
      <trkpt lat="43.46798" lon="3.46413">
        <ele>52.7</ele>
        <time>2018-09-25T18:58:59.819Z</time>
      </trkpt>
      <trkpt lat="43.46798" lon="3.46418">
        <ele>52.9</ele>
        <time>2018-09-25T18:59:00.819Z</time>
      </trkpt>
      <trkpt lat="43.46798" lon="3.46422">
        <ele>53</ele>
        <time>2018-09-25T18:59:01.819Z</time>
      </trkpt>
      <trkpt lat="43.46799" lon="3.46427">
        <ele>53</ele>
        <time>2018-09-25T18:59:02.819Z</time>
      </trkpt>
      <trkpt lat="43.46799" lon="3.46432">
        <ele>53</ele>
        <time>2018-09-25T18:59:03.819Z</time>
      </trkpt>
      <trkpt lat="43.468" lon="3.46436">
        <ele>53</ele>
        <time>2018-09-25T18:59:04.819Z</time>
      </trkpt>
      <trkpt lat="43.468" lon="3.4644">
        <ele>53</ele>
        <time>2018-09-25T18:59:05.819Z</time>
      </trkpt>
      <trkpt lat="43.46801" lon="3.46444">
        <ele>53</ele>
        <time>2018-09-25T18:59:06.819Z</time>
      </trkpt>
      <trkpt lat="43.46802" lon="3.46448">
        <ele>53</ele>
        <time>2018-09-25T18:59:07.819Z</time>
      </trkpt>
      <trkpt lat="43.46803" lon="3.46452">
        <ele>53</ele>
        <time>2018-09-25T18:59:08.819Z</time>
      </trkpt>
      <trkpt lat="43.46805" lon="3.46456">
        <ele>53</ele>
        <time>2018-09-25T18:59:09.819Z</time>
      </trkpt>
      <trkpt lat="43.46806" lon="3.4646">
        <ele>53</ele>
        <time>2018-09-25T18:59:10.819Z</time>
      </trkpt>
      <trkpt lat="43.46808" lon="3.46464">
        <ele>53</ele>
        <time>2018-09-25T18:59:11.819Z</time>
      </trkpt>
      <trkpt lat="43.4681" lon="3.46467">
        <ele>53</ele>
        <time>2018-09-25T18:59:12.819Z</time>
      </trkpt>
      <trkpt lat="43.46812" lon="3.4647">
        <ele>53</ele>
        <time>2018-09-25T18:59:13.819Z</time>
      </trkpt>
      <trkpt lat="43.46814" lon="3.46473">
        <ele>53</ele>
        <time>2018-09-25T18:59:14.819Z</time>
      </trkpt>
      <trkpt lat="43.46816" lon="3.46475">
        <ele>53</ele>
        <time>2018-09-25T18:59:15.819Z</time>
      </trkpt>
      <trkpt lat="43.46818" lon="3.46477">
        <ele>53</ele>
        <time>2018-09-25T18:59:16.819Z</time>
      </trkpt>
      <trkpt lat="43.46821" lon="3.4648">
        <ele>53</ele>
        <time>2018-09-25T18:59:17.819Z</time>
      </trkpt>
      <trkpt lat="43.46824" lon="3.46481">
        <ele>53</ele>
        <time>2018-09-25T18:59:18.819Z</time>
      </trkpt>
      <trkpt lat="43.46827" lon="3.46483">
        <ele>53</ele>
        <time>2018-09-25T18:59:19.819Z</time>
      </trkpt>
      <trkpt lat="43.4683" lon="3.46484">
        <ele>53</ele>
        <time>2018-09-25T18:59:20.819Z</time>
      </trkpt>
      <trkpt lat="43.46833" lon="3.46486">
        <ele>53</ele>
        <time>2018-09-25T18:59:21.819Z</time>
      </trkpt>
      <trkpt lat="43.46836" lon="3.46487">
        <ele>52.9</ele>
        <time>2018-09-25T18:59:22.819Z</time>
      </trkpt>
      <trkpt lat="43.4684" lon="3.46488">
        <ele>52.9</ele>
        <time>2018-09-25T18:59:23.819Z</time>
      </trkpt>
      <trkpt lat="43.46843" lon="3.4649">
        <ele>52.9</ele>
        <time>2018-09-25T18:59:24.819Z</time>
      </trkpt>
      <trkpt lat="43.46846" lon="3.46491">
        <ele>52.9</ele>
        <time>2018-09-25T18:59:25.819Z</time>
      </trkpt>
      <trkpt lat="43.46849" lon="3.46492">
        <ele>52.9</ele>
        <time>2018-09-25T18:59:26.819Z</time>
      </trkpt>
      <trkpt lat="43.46852" lon="3.46493">
        <ele>52.9</ele>
        <time>2018-09-25T18:59:27.819Z</time>
      </trkpt>
      <trkpt lat="43.46856" lon="3.46494">
        <ele>52.9</ele>
        <time>2018-09-25T18:59:28.819Z</time>
      </trkpt>
      <trkpt lat="43.4686" lon="3.46495">
        <ele>52.9</ele>
        <time>2018-09-25T18:59:29.819Z</time>
      </trkpt>
      <trkpt lat="43.46863" lon="3.46496">
        <ele>53</ele>
        <time>2018-09-25T18:59:30.819Z</time>
      </trkpt>
      <trkpt lat="43.46866" lon="3.46498">
        <ele>53</ele>
        <time>2018-09-25T18:59:31.819Z</time>
      </trkpt>
      <trkpt lat="43.46869" lon="3.46499">
        <ele>53</ele>
        <time>2018-09-25T18:59:32.819Z</time>
      </trkpt>
      <trkpt lat="43.46872" lon="3.465">
        <ele>53</ele>
        <time>2018-09-25T18:59:33.819Z</time>
      </trkpt>
      <trkpt lat="43.46875" lon="3.465">
        <ele>53.1</ele>
        <time>2018-09-25T18:59:34.819Z</time>
      </trkpt>
      <trkpt lat="43.46878" lon="3.46501">
        <ele>53.1</ele>
        <time>2018-09-25T18:59:35.819Z</time>
      </trkpt>
      <trkpt lat="43.46881" lon="3.46502">
        <ele>53.2</ele>
        <time>2018-09-25T18:59:36.819Z</time>
      </trkpt>
      <trkpt lat="43.46885" lon="3.46502">
        <ele>53.4</ele>
        <time>2018-09-25T18:59:37.819Z</time>
      </trkpt>
      <trkpt lat="43.46888" lon="3.46503">
        <ele>53.6</ele>
        <time>2018-09-25T18:59:38.819Z</time>
      </trkpt>
      <trkpt lat="43.46891" lon="3.46505">
        <ele>53.8</ele>
        <time>2018-09-25T18:59:39.819Z</time>
      </trkpt>
      <trkpt lat="43.46894" lon="3.46506">
        <ele>54</ele>
        <time>2018-09-25T18:59:40.819Z</time>
      </trkpt>
      <trkpt lat="43.46897" lon="3.46506">
        <ele>54.3</ele>
        <time>2018-09-25T18:59:41.819Z</time>
      </trkpt>
      <trkpt lat="43.469" lon="3.46508">
        <ele>54.6</ele>
        <time>2018-09-25T18:59:42.819Z</time>
      </trkpt>
      <trkpt lat="43.46903" lon="3.46508">
        <ele>54.9</ele>
        <time>2018-09-25T18:59:43.819Z</time>
      </trkpt>
      <trkpt lat="43.46906" lon="3.46509">
        <ele>55.2</ele>
        <time>2018-09-25T18:59:44.819Z</time>
      </trkpt>
      <trkpt lat="43.46909" lon="3.4651">
        <ele>55.3</ele>
        <time>2018-09-25T18:59:45.819Z</time>
      </trkpt>
      <trkpt lat="43.46912" lon="3.46512">
        <ele>55.5</ele>
        <time>2018-09-25T18:59:46.819Z</time>
      </trkpt>
      <trkpt lat="43.46915" lon="3.46513">
        <ele>55.7</ele>
        <time>2018-09-25T18:59:47.819Z</time>
      </trkpt>
      <trkpt lat="43.46918" lon="3.46514">
        <ele>55.8</ele>
        <time>2018-09-25T18:59:48.819Z</time>
      </trkpt>
      <trkpt lat="43.46921" lon="3.46516">
        <ele>56</ele>
        <time>2018-09-25T18:59:49.819Z</time>
      </trkpt>
      <trkpt lat="43.46924" lon="3.46517">
        <ele>56.1</ele>
        <time>2018-09-25T18:59:50.819Z</time>
      </trkpt>
      <trkpt lat="43.46926" lon="3.4652">
        <ele>56.3</ele>
        <time>2018-09-25T18:59:51.819Z</time>
      </trkpt>
      <trkpt lat="43.46928" lon="3.46522">
        <ele>56.5</ele>
        <time>2018-09-25T18:59:52.819Z</time>
      </trkpt>
      <trkpt lat="43.46931" lon="3.46525">
        <ele>56.6</ele>
        <time>2018-09-25T18:59:53.819Z</time>
      </trkpt>
      <trkpt lat="43.46932" lon="3.46528">
        <ele>56.8</ele>
        <time>2018-09-25T18:59:54.819Z</time>
      </trkpt>
      <trkpt lat="43.46934" lon="3.46531">
        <ele>57</ele>
        <time>2018-09-25T18:59:55.819Z</time>
      </trkpt>
      <trkpt lat="43.46935" lon="3.46535">
        <ele>57.1</ele>
        <time>2018-09-25T18:59:56.819Z</time>
      </trkpt>
      <trkpt lat="43.46938" lon="3.46538">
        <ele>57.2</ele>
        <time>2018-09-25T18:59:57.819Z</time>
      </trkpt>
      <trkpt lat="43.4694" lon="3.4654">
        <ele>57.3</ele>
        <time>2018-09-25T18:59:58.819Z</time>
      </trkpt>
      <trkpt lat="43.46943" lon="3.46543">
        <ele>57.5</ele>
        <time>2018-09-25T18:59:59.819Z</time>
      </trkpt>
      <trkpt lat="43.46946" lon="3.46546">
        <ele>57.6</ele>
        <time>2018-09-25T19:00:00.819Z</time>
      </trkpt>
      <trkpt lat="43.46949" lon="3.4655">
        <ele>57.8</ele>
        <time>2018-09-25T19:00:01.819Z</time>
      </trkpt>
      <trkpt lat="43.46952" lon="3.46553">
        <ele>58.2</ele>
        <time>2018-09-25T19:00:02.819Z</time>
      </trkpt>
      <trkpt lat="43.46954" lon="3.46556">
        <ele>58.6</ele>
        <time>2018-09-25T19:00:03.819Z</time>
      </trkpt>
      <trkpt lat="43.46957" lon="3.46559">
        <ele>58.9</ele>
        <time>2018-09-25T19:00:04.819Z</time>
      </trkpt>
      <trkpt lat="43.46959" lon="3.46562">
        <ele>59.3</ele>
        <time>2018-09-25T19:00:05.819Z</time>
      </trkpt>
      <trkpt lat="43.46962" lon="3.46565">
        <ele>59.6</ele>
        <time>2018-09-25T19:00:06.819Z</time>
      </trkpt>
      <trkpt lat="43.46966" lon="3.46567">
        <ele>59.8</ele>
        <time>2018-09-25T19:00:07.819Z</time>
      </trkpt>
      <trkpt lat="43.46969" lon="3.4657">
        <ele>60</ele>
        <time>2018-09-25T19:00:08.819Z</time>
      </trkpt>
      <trkpt lat="43.46971" lon="3.46573">
        <ele>60.1</ele>
        <time>2018-09-25T19:00:09.819Z</time>
      </trkpt>
      <trkpt lat="43.46974" lon="3.46576">
        <ele>60.2</ele>
        <time>2018-09-25T19:00:10.819Z</time>
      </trkpt>
      <trkpt lat="43.46976" lon="3.46579">
        <ele>60.4</ele>
        <time>2018-09-25T19:00:11.819Z</time>
      </trkpt>
      <trkpt lat="43.46979" lon="3.46582">
        <ele>60.4</ele>
        <time>2018-09-25T19:00:12.819Z</time>
      </trkpt>
      <trkpt lat="43.46981" lon="3.46586">
        <ele>60.5</ele>
        <time>2018-09-25T19:00:13.819Z</time>
      </trkpt>
      <trkpt lat="43.46983" lon="3.46589">
        <ele>60.6</ele>
        <time>2018-09-25T19:00:14.819Z</time>
      </trkpt>
      <trkpt lat="43.46985" lon="3.46592">
        <ele>60.7</ele>
        <time>2018-09-25T19:00:15.819Z</time>
      </trkpt>
      <trkpt lat="43.46988" lon="3.46595">
        <ele>60.9</ele>
        <time>2018-09-25T19:00:16.819Z</time>
      </trkpt>
      <trkpt lat="43.4699" lon="3.46598">
        <ele>61.1</ele>
        <time>2018-09-25T19:00:17.819Z</time>
      </trkpt>
      <trkpt lat="43.46993" lon="3.46601">
        <ele>61.4</ele>
        <time>2018-09-25T19:00:18.819Z</time>
      </trkpt>
      <trkpt lat="43.46995" lon="3.46603">
        <ele>61.7</ele>
        <time>2018-09-25T19:00:19.819Z</time>
      </trkpt>
      <trkpt lat="43.46998" lon="3.46606">
        <ele>62.1</ele>
        <time>2018-09-25T19:00:20.819Z</time>
      </trkpt>
      <trkpt lat="43.47" lon="3.46609">
        <ele>62.4</ele>
        <time>2018-09-25T19:00:21.819Z</time>
      </trkpt>
      <trkpt lat="43.47004" lon="3.46613">
        <ele>62.9</ele>
        <time>2018-09-25T19:00:23.819Z</time>
      </trkpt>
      <trkpt lat="43.47007" lon="3.46616">
        <ele>63.2</ele>
        <time>2018-09-25T19:00:24.819Z</time>
      </trkpt>
      <trkpt lat="43.47011" lon="3.46621">
        <ele>63.5</ele>
        <time>2018-09-25T19:00:26.819Z</time>
      </trkpt>
      <trkpt lat="43.47013" lon="3.46624">
        <ele>63.6</ele>
        <time>2018-09-25T19:00:27.819Z</time>
      </trkpt>
      <trkpt lat="43.47015" lon="3.46626">
        <ele>63.8</ele>
        <time>2018-09-25T19:00:28.819Z</time>
      </trkpt>
      <trkpt lat="43.47019" lon="3.46632">
        <ele>64.2</ele>
        <time>2018-09-25T19:00:30.819Z</time>
      </trkpt>
      <trkpt lat="43.47021" lon="3.46635">
        <ele>64.5</ele>
        <time>2018-09-25T19:00:31.819Z</time>
      </trkpt>
      <trkpt lat="43.47023" lon="3.46638">
        <ele>64.8</ele>
        <time>2018-09-25T19:00:32.819Z</time>
      </trkpt>
      <trkpt lat="43.47025" lon="3.46641">
        <ele>65.1</ele>
        <time>2018-09-25T19:00:33.819Z</time>
      </trkpt>
      <trkpt lat="43.47027" lon="3.46644">
        <ele>65.4</ele>
        <time>2018-09-25T19:00:34.819Z</time>
      </trkpt>
      <trkpt lat="43.47029" lon="3.46651">
        <ele>65.8</ele>
        <time>2018-09-25T19:00:36.819Z</time>
      </trkpt>
      <trkpt lat="43.47032" lon="3.46653">
        <ele>66</ele>
        <time>2018-09-25T19:00:37.819Z</time>
      </trkpt>
      <trkpt lat="43.47034" lon="3.46656">
        <ele>66.3</ele>
        <time>2018-09-25T19:00:38.819Z</time>
      </trkpt>
      <trkpt lat="43.47036" lon="3.46662">
        <ele>66.7</ele>
        <time>2018-09-25T19:00:40.819Z</time>
      </trkpt>
      <trkpt lat="43.47038" lon="3.46665">
        <ele>66.9</ele>
        <time>2018-09-25T19:00:41.819Z</time>
      </trkpt>
      <trkpt lat="43.4704" lon="3.46667">
        <ele>67.1</ele>
        <time>2018-09-25T19:00:42.819Z</time>
      </trkpt>
      <trkpt lat="43.47042" lon="3.4667">
        <ele>67.4</ele>
        <time>2018-09-25T19:00:43.819Z</time>
      </trkpt>
      <trkpt lat="43.47045" lon="3.46677">
        <ele>67.7</ele>
        <time>2018-09-25T19:00:45.819Z</time>
      </trkpt>
      <trkpt lat="43.47047" lon="3.46683">
        <ele>67.9</ele>
        <time>2018-09-25T19:00:47.819Z</time>
      </trkpt>
      <trkpt lat="43.47051" lon="3.46687">
        <ele>68.3</ele>
        <time>2018-09-25T19:00:49.819Z</time>
      </trkpt>
      <trkpt lat="43.47053" lon="3.4669">
        <ele>68.5</ele>
        <time>2018-09-25T19:00:50.819Z</time>
      </trkpt>
      <trkpt lat="43.47055" lon="3.46693">
        <ele>68.7</ele>
        <time>2018-09-25T19:00:51.819Z</time>
      </trkpt>
      <trkpt lat="43.47056" lon="3.46697">
        <ele>68.9</ele>
        <time>2018-09-25T19:00:52.819Z</time>
      </trkpt>
      <trkpt lat="43.47058" lon="3.467">
        <ele>69</ele>
        <time>2018-09-25T19:00:53.819Z</time>
      </trkpt>
      <trkpt lat="43.4706" lon="3.46704">
        <ele>69.1</ele>
        <time>2018-09-25T19:00:54.819Z</time>
      </trkpt>
      <trkpt lat="43.47061" lon="3.46708">
        <ele>69.4</ele>
        <time>2018-09-25T19:00:55.819Z</time>
      </trkpt>
      <trkpt lat="43.47062" lon="3.46712">
        <ele>69.6</ele>
        <time>2018-09-25T19:00:56.819Z</time>
      </trkpt>
      <trkpt lat="43.47063" lon="3.46716">
        <ele>69.8</ele>
        <time>2018-09-25T19:00:57.819Z</time>
      </trkpt>
      <trkpt lat="43.47065" lon="3.4672">
        <ele>70</ele>
        <time>2018-09-25T19:00:58.819Z</time>
      </trkpt>
      <trkpt lat="43.47066" lon="3.46724">
        <ele>70.1</ele>
        <time>2018-09-25T19:00:59.819Z</time>
      </trkpt>
      <trkpt lat="43.47067" lon="3.46727">
        <ele>70.3</ele>
        <time>2018-09-25T19:01:00.819Z</time>
      </trkpt>
      <trkpt lat="43.47069" lon="3.46731">
        <ele>70.6</ele>
        <time>2018-09-25T19:01:01.819Z</time>
      </trkpt>
      <trkpt lat="43.4707" lon="3.46735">
        <ele>70.8</ele>
        <time>2018-09-25T19:01:02.819Z</time>
      </trkpt>
      <trkpt lat="43.47072" lon="3.46738">
        <ele>71</ele>
        <time>2018-09-25T19:01:03.819Z</time>
      </trkpt>
      <trkpt lat="43.47073" lon="3.46742">
        <ele>71.2</ele>
        <time>2018-09-25T19:01:04.819Z</time>
      </trkpt>
      <trkpt lat="43.47074" lon="3.46746">
        <ele>71.3</ele>
        <time>2018-09-25T19:01:05.819Z</time>
      </trkpt>
      <trkpt lat="43.47076" lon="3.46749">
        <ele>71.5</ele>
        <time>2018-09-25T19:01:06.819Z</time>
      </trkpt>
      <trkpt lat="43.47077" lon="3.46753">
        <ele>71.7</ele>
        <time>2018-09-25T19:01:07.819Z</time>
      </trkpt>
      <trkpt lat="43.47078" lon="3.46756">
        <ele>71.9</ele>
        <time>2018-09-25T19:01:08.819Z</time>
      </trkpt>
      <trkpt lat="43.4708" lon="3.4676">
        <ele>72.2</ele>
        <time>2018-09-25T19:01:09.819Z</time>
      </trkpt>
      <trkpt lat="43.47082" lon="3.46763">
        <ele>72.4</ele>
        <time>2018-09-25T19:01:10.819Z</time>
      </trkpt>
      <trkpt lat="43.47084" lon="3.46766">
        <ele>72.6</ele>
        <time>2018-09-25T19:01:11.819Z</time>
      </trkpt>
      <trkpt lat="43.47086" lon="3.46769">
        <ele>72.9</ele>
        <time>2018-09-25T19:01:12.819Z</time>
      </trkpt>
      <trkpt lat="43.47088" lon="3.46772">
        <ele>73.1</ele>
        <time>2018-09-25T19:01:13.819Z</time>
      </trkpt>
      <trkpt lat="43.47091" lon="3.46774">
        <ele>73.5</ele>
        <time>2018-09-25T19:01:14.819Z</time>
      </trkpt>
      <trkpt lat="43.47093" lon="3.46776">
        <ele>73.8</ele>
        <time>2018-09-25T19:01:15.819Z</time>
      </trkpt>
      <trkpt lat="43.47096" lon="3.46778">
        <ele>74.1</ele>
        <time>2018-09-25T19:01:16.819Z</time>
      </trkpt>
      <trkpt lat="43.47098" lon="3.46781">
        <ele>74.4</ele>
        <time>2018-09-25T19:01:17.819Z</time>
      </trkpt>
      <trkpt lat="43.47101" lon="3.46782">
        <ele>74.6</ele>
        <time>2018-09-25T19:01:18.819Z</time>
      </trkpt>
      <trkpt lat="43.47104" lon="3.46782">
        <ele>74.9</ele>
        <time>2018-09-25T19:01:19.819Z</time>
      </trkpt>
      <trkpt lat="43.47108" lon="3.46783">
        <ele>75.2</ele>
        <time>2018-09-25T19:01:20.819Z</time>
      </trkpt>
      <trkpt lat="43.47112" lon="3.46784">
        <ele>75.5</ele>
        <time>2018-09-25T19:01:22.819Z</time>
      </trkpt>
      <trkpt lat="43.47116" lon="3.46785">
        <ele>75.8</ele>
        <time>2018-09-25T19:01:24.819Z</time>
      </trkpt>
      <trkpt lat="43.47121" lon="3.46786">
        <ele>76.2</ele>
        <time>2018-09-25T19:01:26.819Z</time>
      </trkpt>
      <trkpt lat="43.47124" lon="3.46786">
        <ele>76.5</ele>
        <time>2018-09-25T19:01:27.819Z</time>
      </trkpt>
      <trkpt lat="43.47127" lon="3.46787">
        <ele>76.7</ele>
        <time>2018-09-25T19:01:28.819Z</time>
      </trkpt>
      <trkpt lat="43.4713" lon="3.46788">
        <ele>76.9</ele>
        <time>2018-09-25T19:01:29.819Z</time>
      </trkpt>
      <trkpt lat="43.47133" lon="3.46789">
        <ele>77.1</ele>
        <time>2018-09-25T19:01:30.819Z</time>
      </trkpt>
      <trkpt lat="43.47136" lon="3.4679">
        <ele>77.2</ele>
        <time>2018-09-25T19:01:31.819Z</time>
      </trkpt>
      <trkpt lat="43.47139" lon="3.46791">
        <ele>77.4</ele>
        <time>2018-09-25T19:01:32.819Z</time>
      </trkpt>
      <trkpt lat="43.47141" lon="3.46793">
        <ele>77.4</ele>
        <time>2018-09-25T19:01:33.819Z</time>
      </trkpt>
      <trkpt lat="43.47144" lon="3.46795">
        <ele>77.5</ele>
        <time>2018-09-25T19:01:34.819Z</time>
      </trkpt>
      <trkpt lat="43.47147" lon="3.46797">
        <ele>77.6</ele>
        <time>2018-09-25T19:01:35.819Z</time>
      </trkpt>
      <trkpt lat="43.4715" lon="3.46799">
        <ele>77.6</ele>
        <time>2018-09-25T19:01:36.819Z</time>
      </trkpt>
      <trkpt lat="43.47153" lon="3.46801">
        <ele>77.7</ele>
        <time>2018-09-25T19:01:37.819Z</time>
      </trkpt>
      <trkpt lat="43.47157" lon="3.46803">
        <ele>77.8</ele>
        <time>2018-09-25T19:01:38.819Z</time>
      </trkpt>
      <trkpt lat="43.4716" lon="3.46805">
        <ele>77.8</ele>
        <time>2018-09-25T19:01:39.819Z</time>
      </trkpt>
      <trkpt lat="43.47164" lon="3.46808">
        <ele>77.8</ele>
        <time>2018-09-25T19:01:40.819Z</time>
      </trkpt>
      <trkpt lat="43.47167" lon="3.46812">
        <ele>77.8</ele>
        <time>2018-09-25T19:01:41.819Z</time>
      </trkpt>
      <trkpt lat="43.47171" lon="3.46815">
        <ele>77.8</ele>
        <time>2018-09-25T19:01:42.819Z</time>
      </trkpt>
      <trkpt lat="43.47174" lon="3.46819">
        <ele>77.8</ele>
        <time>2018-09-25T19:01:43.819Z</time>
      </trkpt>
      <trkpt lat="43.47177" lon="3.46822">
        <ele>77.8</ele>
        <time>2018-09-25T19:01:44.819Z</time>
      </trkpt>
      <trkpt lat="43.4718" lon="3.46824">
        <ele>77.8</ele>
        <time>2018-09-25T19:01:45.819Z</time>
      </trkpt>
      <trkpt lat="43.47184" lon="3.46826">
        <ele>77.8</ele>
        <time>2018-09-25T19:01:46.819Z</time>
      </trkpt>
      <trkpt lat="43.47188" lon="3.46826">
        <ele>77.9</ele>
        <time>2018-09-25T19:01:47.819Z</time>
      </trkpt>
      <trkpt lat="43.47191" lon="3.46826">
        <ele>78</ele>
        <time>2018-09-25T19:01:48.819Z</time>
      </trkpt>
      <trkpt lat="43.47195" lon="3.46825">
        <ele>78.1</ele>
        <time>2018-09-25T19:01:49.819Z</time>
      </trkpt>
      <trkpt lat="43.47199" lon="3.46823">
        <ele>78.3</ele>
        <time>2018-09-25T19:01:50.819Z</time>
      </trkpt>
      <trkpt lat="43.47203" lon="3.46821">
        <ele>78.3</ele>
        <time>2018-09-25T19:01:51.819Z</time>
      </trkpt>
      <trkpt lat="43.47207" lon="3.46819">
        <ele>78.4</ele>
        <time>2018-09-25T19:01:52.819Z</time>
      </trkpt>
      <trkpt lat="43.47212" lon="3.46817">
        <ele>78.4</ele>
        <time>2018-09-25T19:01:53.819Z</time>
      </trkpt>
      <trkpt lat="43.47216" lon="3.46814">
        <ele>78.5</ele>
        <time>2018-09-25T19:01:54.819Z</time>
      </trkpt>
      <trkpt lat="43.4722" lon="3.46812">
        <ele>78.7</ele>
        <time>2018-09-25T19:01:55.819Z</time>
      </trkpt>
      <trkpt lat="43.47224" lon="3.4681">
        <ele>78.8</ele>
        <time>2018-09-25T19:01:56.819Z</time>
      </trkpt>
      <trkpt lat="43.47229" lon="3.46808">
        <ele>78.9</ele>
        <time>2018-09-25T19:01:57.819Z</time>
      </trkpt>
      <trkpt lat="43.47233" lon="3.46805">
        <ele>79</ele>
        <time>2018-09-25T19:01:58.819Z</time>
      </trkpt>
      <trkpt lat="43.47237" lon="3.46803">
        <ele>79.1</ele>
        <time>2018-09-25T19:01:59.819Z</time>
      </trkpt>
      <trkpt lat="43.47241" lon="3.46802">
        <ele>79.2</ele>
        <time>2018-09-25T19:02:00.819Z</time>
      </trkpt>
      <trkpt lat="43.47244" lon="3.468">
        <ele>79.3</ele>
        <time>2018-09-25T19:02:01.819Z</time>
      </trkpt>
      <trkpt lat="43.47248" lon="3.46798">
        <ele>79.4</ele>
        <time>2018-09-25T19:02:02.819Z</time>
      </trkpt>
      <trkpt lat="43.4725" lon="3.46797">
        <ele>79.5</ele>
        <time>2018-09-25T19:02:03.819Z</time>
      </trkpt>
      <trkpt lat="43.47253" lon="3.46796">
        <ele>79.6</ele>
        <time>2018-09-25T19:02:04.819Z</time>
      </trkpt>
      <trkpt lat="43.47257" lon="3.46794">
        <ele>79.7</ele>
        <time>2018-09-25T19:02:05.819Z</time>
      </trkpt>
      <trkpt lat="43.47259" lon="3.46791">
        <ele>79.8</ele>
        <time>2018-09-25T19:02:06.819Z</time>
      </trkpt>
      <trkpt lat="43.47262" lon="3.46789">
        <ele>79.9</ele>
        <time>2018-09-25T19:02:07.819Z</time>
      </trkpt>
      <trkpt lat="43.47265" lon="3.46787">
        <ele>79.9</ele>
        <time>2018-09-25T19:02:08.819Z</time>
      </trkpt>
      <trkpt lat="43.47268" lon="3.46785">
        <ele>79.9</ele>
        <time>2018-09-25T19:02:09.819Z</time>
      </trkpt>
      <trkpt lat="43.4727" lon="3.46782">
        <ele>80</ele>
        <time>2018-09-25T19:02:10.819Z</time>
      </trkpt>
      <trkpt lat="43.47274" lon="3.46779">
        <ele>79.8</ele>
        <time>2018-09-25T19:02:11.819Z</time>
      </trkpt>
      <trkpt lat="43.47277" lon="3.46777">
        <ele>79.6</ele>
        <time>2018-09-25T19:02:12.819Z</time>
      </trkpt>
      <trkpt lat="43.47281" lon="3.46777">
        <ele>79.4</ele>
        <time>2018-09-25T19:02:13.819Z</time>
      </trkpt>
      <trkpt lat="43.47284" lon="3.4678">
        <ele>79.2</ele>
        <time>2018-09-25T19:02:14.819Z</time>
      </trkpt>
      <trkpt lat="43.47286" lon="3.46783">
        <ele>79</ele>
        <time>2018-09-25T19:02:15.819Z</time>
      </trkpt>
      <trkpt lat="43.47289" lon="3.46786">
        <ele>78.9</ele>
        <time>2018-09-25T19:02:16.819Z</time>
      </trkpt>
      <trkpt lat="43.47292" lon="3.46787">
        <ele>78.9</ele>
        <time>2018-09-25T19:02:17.819Z</time>
      </trkpt>
      <trkpt lat="43.47296" lon="3.46788">
        <ele>78.8</ele>
        <time>2018-09-25T19:02:18.819Z</time>
      </trkpt>
      <trkpt lat="43.47299" lon="3.46787">
        <ele>78.7</ele>
        <time>2018-09-25T19:02:19.819Z</time>
      </trkpt>
      <trkpt lat="43.47302" lon="3.46786">
        <ele>78.8</ele>
        <time>2018-09-25T19:02:20.819Z</time>
      </trkpt>
      <trkpt lat="43.47305" lon="3.46786">
        <ele>78.8</ele>
        <time>2018-09-25T19:02:21.819Z</time>
      </trkpt>
      <trkpt lat="43.47309" lon="3.46785">
        <ele>78.8</ele>
        <time>2018-09-25T19:02:22.819Z</time>
      </trkpt>
      <trkpt lat="43.47313" lon="3.46784">
        <ele>78.6</ele>
        <time>2018-09-25T19:02:23.819Z</time>
      </trkpt>
      <trkpt lat="43.47317" lon="3.46783">
        <ele>78.5</ele>
        <time>2018-09-25T19:02:24.819Z</time>
      </trkpt>
      <trkpt lat="43.4732" lon="3.46781">
        <ele>78.4</ele>
        <time>2018-09-25T19:02:25.819Z</time>
      </trkpt>
      <trkpt lat="43.47323" lon="3.46781">
        <ele>78.4</ele>
        <time>2018-09-25T19:02:26.819Z</time>
      </trkpt>
      <trkpt lat="43.47327" lon="3.46779">
        <ele>78.6</ele>
        <time>2018-09-25T19:02:28.819Z</time>
      </trkpt>
      <trkpt lat="43.4733" lon="3.46777">
        <ele>78.6</ele>
        <time>2018-09-25T19:02:30.819Z</time>
      </trkpt>
      <trkpt lat="43.47333" lon="3.46781">
        <ele>78.6</ele>
        <time>2018-09-25T19:02:34.819Z</time>
      </trkpt>
      <trkpt lat="43.47333" lon="3.46787">
        <ele>77.8</ele>
        <time>2018-09-25T19:02:36.819Z</time>
      </trkpt>
      <trkpt lat="43.47334" lon="3.46792">
        <ele>77.4</ele>
        <time>2018-09-25T19:02:37.819Z</time>
      </trkpt>
      <trkpt lat="43.47335" lon="3.46797">
        <ele>76.8</ele>
        <time>2018-09-25T19:02:38.819Z</time>
      </trkpt>
      <trkpt lat="43.47337" lon="3.46803">
        <ele>76.3</ele>
        <time>2018-09-25T19:02:39.819Z</time>
      </trkpt>
      <trkpt lat="43.47337" lon="3.46807">
        <ele>75.9</ele>
        <time>2018-09-25T19:02:40.819Z</time>
      </trkpt>
      <trkpt lat="43.47338" lon="3.46813">
        <ele>74.7</ele>
        <time>2018-09-25T19:02:42.819Z</time>
      </trkpt>
      <trkpt lat="43.4734" lon="3.46816">
        <ele>74.2</ele>
        <time>2018-09-25T19:02:43.819Z</time>
      </trkpt>
      <trkpt lat="43.47341" lon="3.46821">
        <ele>73.7</ele>
        <time>2018-09-25T19:02:44.819Z</time>
      </trkpt>
      <trkpt lat="43.47343" lon="3.46827">
        <ele>73</ele>
        <time>2018-09-25T19:02:45.819Z</time>
      </trkpt>
      <trkpt lat="43.47344" lon="3.46832">
        <ele>72.5</ele>
        <time>2018-09-25T19:02:47.819Z</time>
      </trkpt>
      <trkpt lat="43.47346" lon="3.46837">
        <ele>71.8</ele>
        <time>2018-09-25T19:02:49.819Z</time>
      </trkpt>
      <trkpt lat="43.47348" lon="3.4684">
        <ele>71.4</ele>
        <time>2018-09-25T19:02:50.819Z</time>
      </trkpt>
      <trkpt lat="43.47349" lon="3.46846">
        <ele>70.7</ele>
        <time>2018-09-25T19:02:52.819Z</time>
      </trkpt>
      <trkpt lat="43.4735" lon="3.46849">
        <ele>70.2</ele>
        <time>2018-09-25T19:02:53.819Z</time>
      </trkpt>
      <trkpt lat="43.47353" lon="3.46855">
        <ele>69.5</ele>
        <time>2018-09-25T19:02:55.819Z</time>
      </trkpt>
      <trkpt lat="43.47356" lon="3.46861">
        <ele>68.2</ele>
        <time>2018-09-25T19:02:57.819Z</time>
      </trkpt>
      <trkpt lat="43.47357" lon="3.46865">
        <ele>67.3</ele>
        <time>2018-09-25T19:02:58.819Z</time>
      </trkpt>
      <trkpt lat="43.4736" lon="3.4687">
        <ele>66.9</ele>
        <time>2018-09-25T19:02:59.819Z</time>
      </trkpt>
      <trkpt lat="43.47361" lon="3.46873">
        <ele>66.1</ele>
        <time>2018-09-25T19:03:00.819Z</time>
      </trkpt>
      <trkpt lat="43.47362" lon="3.46878">
        <ele>65.8</ele>
        <time>2018-09-25T19:03:01.819Z</time>
      </trkpt>
      <trkpt lat="43.47364" lon="3.46882">
        <ele>65</ele>
        <time>2018-09-25T19:03:02.819Z</time>
      </trkpt>
      <trkpt lat="43.47366" lon="3.46887">
        <ele>64.6</ele>
        <time>2018-09-25T19:03:03.819Z</time>
      </trkpt>
      <trkpt lat="43.47368" lon="3.46891">
        <ele>63.8</ele>
        <time>2018-09-25T19:03:04.819Z</time>
      </trkpt>
      <trkpt lat="43.47369" lon="3.46895">
        <ele>63.5</ele>
        <time>2018-09-25T19:03:05.819Z</time>
      </trkpt>
      <trkpt lat="43.47371" lon="3.469">
        <ele>62.7</ele>
        <time>2018-09-25T19:03:06.819Z</time>
      </trkpt>
      <trkpt lat="43.47372" lon="3.46903">
        <ele>62.3</ele>
        <time>2018-09-25T19:03:07.819Z</time>
      </trkpt>
      <trkpt lat="43.47373" lon="3.46907">
        <ele>61.5</ele>
        <time>2018-09-25T19:03:08.819Z</time>
      </trkpt>
      <trkpt lat="43.47375" lon="3.46912">
        <ele>61.1</ele>
        <time>2018-09-25T19:03:10.819Z</time>
      </trkpt>
      <trkpt lat="43.47377" lon="3.46917">
        <ele>60.3</ele>
        <time>2018-09-25T19:03:12.819Z</time>
      </trkpt>
      <trkpt lat="43.47378" lon="3.46921">
        <ele>59.9</ele>
        <time>2018-09-25T19:03:14.819Z</time>
      </trkpt>
      <trkpt lat="43.47381" lon="3.46925">
        <ele>59.1</ele>
        <time>2018-09-25T19:03:16.819Z</time>
      </trkpt>
      <trkpt lat="43.47383" lon="3.46928">
        <ele>58.2</ele>
        <time>2018-09-25T19:03:17.819Z</time>
      </trkpt>
      <trkpt lat="43.47385" lon="3.4693">
        <ele>57.7</ele>
        <time>2018-09-25T19:03:18.819Z</time>
      </trkpt>
      <trkpt lat="43.4739" lon="3.4693">
        <ele>57.2</ele>
        <time>2018-09-25T19:03:20.819Z</time>
      </trkpt>
      <trkpt lat="43.47395" lon="3.46932">
        <ele>55.9</ele>
        <time>2018-09-25T19:03:22.819Z</time>
      </trkpt>
      <trkpt lat="43.47398" lon="3.46934">
        <ele>55.9</ele>
        <time>2018-09-25T19:03:23.819Z</time>
      </trkpt>
      <trkpt lat="43.474" lon="3.46937">
        <ele>55.1</ele>
        <time>2018-09-25T19:03:24.819Z</time>
      </trkpt>
      <trkpt lat="43.47404" lon="3.46941">
        <ele>54.4</ele>
        <time>2018-09-25T19:03:26.819Z</time>
      </trkpt>
      <trkpt lat="43.47408" lon="3.46946">
        <ele>53.4</ele>
        <time>2018-09-25T19:03:28.819Z</time>
      </trkpt>
      <trkpt lat="43.47409" lon="3.46952">
        <ele>53.2</ele>
        <time>2018-09-25T19:03:29.819Z</time>
      </trkpt>
      <trkpt lat="43.4741" lon="3.46955">
        <ele>52.6</ele>
        <time>2018-09-25T19:03:30.819Z</time>
      </trkpt>
      <trkpt lat="43.47413" lon="3.46958">
        <ele>52.4</ele>
        <time>2018-09-25T19:03:32.819Z</time>
      </trkpt>
      <trkpt lat="43.47415" lon="3.46963">
        <ele>51.9</ele>
        <time>2018-09-25T19:03:34.819Z</time>
      </trkpt>
      <trkpt lat="43.47416" lon="3.46967">
        <ele>51.4</ele>
        <time>2018-09-25T19:03:35.819Z</time>
      </trkpt>
      <trkpt lat="43.47418" lon="3.4697">
        <ele>51.4</ele>
        <time>2018-09-25T19:03:36.819Z</time>
      </trkpt>
      <trkpt lat="43.4742" lon="3.46976">
        <ele>50.7</ele>
        <time>2018-09-25T19:03:38.819Z</time>
      </trkpt>
      <trkpt lat="43.47422" lon="3.46981">
        <ele>50.5</ele>
        <time>2018-09-25T19:03:39.819Z</time>
      </trkpt>
      <trkpt lat="43.47424" lon="3.46984">
        <ele>50</ele>
        <time>2018-09-25T19:03:40.819Z</time>
      </trkpt>
      <trkpt lat="43.47426" lon="3.46991">
        <ele>49.5</ele>
        <time>2018-09-25T19:03:42.819Z</time>
      </trkpt>
      <trkpt lat="43.47426" lon="3.46996">
        <ele>49.3</ele>
        <time>2018-09-25T19:03:43.819Z</time>
      </trkpt>
      <trkpt lat="43.47428" lon="3.47001">
        <ele>48.8</ele>
        <time>2018-09-25T19:03:44.819Z</time>
      </trkpt>
      <trkpt lat="43.4743" lon="3.47006">
        <ele>48.3</ele>
        <time>2018-09-25T19:03:45.819Z</time>
      </trkpt>
      <trkpt lat="43.47433" lon="3.47012">
        <ele>47.8</ele>
        <time>2018-09-25T19:03:46.819Z</time>
      </trkpt>
      <trkpt lat="43.47436" lon="3.47018">
        <ele>47</ele>
        <time>2018-09-25T19:03:47.819Z</time>
      </trkpt>
      <trkpt lat="43.47437" lon="3.47022">
        <ele>46.8</ele>
        <time>2018-09-25T19:03:48.819Z</time>
      </trkpt>
      <trkpt lat="43.47439" lon="3.47026">
        <ele>46.2</ele>
        <time>2018-09-25T19:03:49.819Z</time>
      </trkpt>
      <trkpt lat="43.47449" lon="3.47055">
        <ele>44.7</ele>
        <time>2018-09-25T19:03:56.819Z</time>
      </trkpt>
      <trkpt lat="43.47454" lon="3.4706">
        <ele>44.2</ele>
        <time>2018-09-25T19:03:57.819Z</time>
      </trkpt>
      <trkpt lat="43.47457" lon="3.47068">
        <ele>44.1</ele>
        <time>2018-09-25T19:04:00.819Z</time>
      </trkpt>
      <trkpt lat="43.4746" lon="3.47078">
        <ele>43.8</ele>
        <time>2018-09-25T19:04:02.819Z</time>
      </trkpt>
      <trkpt lat="43.47461" lon="3.47083">
        <ele>43.6</ele>
        <time>2018-09-25T19:04:03.819Z</time>
      </trkpt>
      <trkpt lat="43.47462" lon="3.4709">
        <ele>43.6</ele>
        <time>2018-09-25T19:04:04.819Z</time>
      </trkpt>
      <trkpt lat="43.47463" lon="3.47096">
        <ele>43.7</ele>
        <time>2018-09-25T19:04:05.819Z</time>
      </trkpt>
      <trkpt lat="43.47462" lon="3.47102">
        <ele>43.8</ele>
        <time>2018-09-25T19:04:06.819Z</time>
      </trkpt>
      <trkpt lat="43.47461" lon="3.47107">
        <ele>43.9</ele>
        <time>2018-09-25T19:04:07.819Z</time>
      </trkpt>
      <trkpt lat="43.47459" lon="3.47113">
        <ele>44.3</ele>
        <time>2018-09-25T19:04:09.819Z</time>
      </trkpt>
      <trkpt lat="43.47461" lon="3.47118">
        <ele>44.3</ele>
        <time>2018-09-25T19:04:11.819Z</time>
      </trkpt>
      <trkpt lat="43.47466" lon="3.47121">
        <ele>44.3</ele>
        <time>2018-09-25T19:04:13.819Z</time>
      </trkpt>
      <trkpt lat="43.47469" lon="3.47123">
        <ele>44.2</ele>
        <time>2018-09-25T19:04:14.819Z</time>
      </trkpt>
      <trkpt lat="43.47472" lon="3.47124">
        <ele>44</ele>
        <time>2018-09-25T19:04:15.819Z</time>
      </trkpt>
      <trkpt lat="43.47475" lon="3.47126">
        <ele>43.9</ele>
        <time>2018-09-25T19:04:16.819Z</time>
      </trkpt>
      <trkpt lat="43.47479" lon="3.47128">
        <ele>43.5</ele>
        <time>2018-09-25T19:04:17.819Z</time>
      </trkpt>
      <trkpt lat="43.47483" lon="3.4713">
        <ele>43.5</ele>
        <time>2018-09-25T19:04:18.819Z</time>
      </trkpt>
      <trkpt lat="43.47487" lon="3.47133">
        <ele>43.3</ele>
        <time>2018-09-25T19:04:19.819Z</time>
      </trkpt>
      <trkpt lat="43.47491" lon="3.47135">
        <ele>43.1</ele>
        <time>2018-09-25T19:04:20.819Z</time>
      </trkpt>
      <trkpt lat="43.47495" lon="3.47138">
        <ele>42.9</ele>
        <time>2018-09-25T19:04:21.819Z</time>
      </trkpt>
      <trkpt lat="43.47499" lon="3.47141">
        <ele>42.8</ele>
        <time>2018-09-25T19:04:22.819Z</time>
      </trkpt>
      <trkpt lat="43.47503" lon="3.47143">
        <ele>42.7</ele>
        <time>2018-09-25T19:04:23.819Z</time>
      </trkpt>
      <trkpt lat="43.47506" lon="3.47145">
        <ele>42.5</ele>
        <time>2018-09-25T19:04:24.819Z</time>
      </trkpt>
      <trkpt lat="43.4751" lon="3.47147">
        <ele>42.1</ele>
        <time>2018-09-25T19:04:25.819Z</time>
      </trkpt>
      <trkpt lat="43.47514" lon="3.47149">
        <ele>41.9</ele>
        <time>2018-09-25T19:04:26.819Z</time>
      </trkpt>
      <trkpt lat="43.47518" lon="3.47151">
        <ele>41.8</ele>
        <time>2018-09-25T19:04:27.819Z</time>
      </trkpt>
      <trkpt lat="43.47521" lon="3.47153">
        <ele>41.6</ele>
        <time>2018-09-25T19:04:28.819Z</time>
      </trkpt>
      <trkpt lat="43.47524" lon="3.47155">
        <ele>41.5</ele>
        <time>2018-09-25T19:04:29.819Z</time>
      </trkpt>
      <trkpt lat="43.47528" lon="3.47157">
        <ele>41.3</ele>
        <time>2018-09-25T19:04:30.819Z</time>
      </trkpt>
      <trkpt lat="43.47531" lon="3.4716">
        <ele>41.2</ele>
        <time>2018-09-25T19:04:31.819Z</time>
      </trkpt>
      <trkpt lat="43.47534" lon="3.47162">
        <ele>41</ele>
        <time>2018-09-25T19:04:32.819Z</time>
      </trkpt>
      <trkpt lat="43.47538" lon="3.47165">
        <ele>41</ele>
        <time>2018-09-25T19:04:33.819Z</time>
      </trkpt>
      <trkpt lat="43.47541" lon="3.47167">
        <ele>40.8</ele>
        <time>2018-09-25T19:04:34.819Z</time>
      </trkpt>
      <trkpt lat="43.47544" lon="3.4717">
        <ele>40.8</ele>
        <time>2018-09-25T19:04:35.819Z</time>
      </trkpt>
      <trkpt lat="43.47546" lon="3.47171">
        <ele>40.6</ele>
        <time>2018-09-25T19:04:36.819Z</time>
      </trkpt>
      <trkpt lat="43.47549" lon="3.47174">
        <ele>40.5</ele>
        <time>2018-09-25T19:04:37.819Z</time>
      </trkpt>
      <trkpt lat="43.47551" lon="3.47177">
        <ele>40.5</ele>
        <time>2018-09-25T19:04:38.819Z</time>
      </trkpt>
      <trkpt lat="43.47554" lon="3.4718">
        <ele>40.3</ele>
        <time>2018-09-25T19:04:39.819Z</time>
      </trkpt>
      <trkpt lat="43.47556" lon="3.47183">
        <ele>40.2</ele>
        <time>2018-09-25T19:04:40.819Z</time>
      </trkpt>
      <trkpt lat="43.47559" lon="3.47185">
        <ele>40.3</ele>
        <time>2018-09-25T19:04:41.819Z</time>
      </trkpt>
      <trkpt lat="43.47561" lon="3.47188">
        <ele>40.2</ele>
        <time>2018-09-25T19:04:42.819Z</time>
      </trkpt>
      <trkpt lat="43.47564" lon="3.47192">
        <ele>40.3</ele>
        <time>2018-09-25T19:04:43.819Z</time>
      </trkpt>
      <trkpt lat="43.47566" lon="3.47195">
        <ele>40.3</ele>
        <time>2018-09-25T19:04:44.819Z</time>
      </trkpt>
      <trkpt lat="43.47569" lon="3.47198">
        <ele>40.1</ele>
        <time>2018-09-25T19:04:45.819Z</time>
      </trkpt>
      <trkpt lat="43.47571" lon="3.47201">
        <ele>40.4</ele>
        <time>2018-09-25T19:04:46.819Z</time>
      </trkpt>
      <trkpt lat="43.47573" lon="3.47204">
        <ele>40.5</ele>
        <time>2018-09-25T19:04:47.819Z</time>
      </trkpt>
      <trkpt lat="43.47576" lon="3.47207">
        <ele>40.6</ele>
        <time>2018-09-25T19:04:48.819Z</time>
      </trkpt>
      <trkpt lat="43.47578" lon="3.47211">
        <ele>40.7</ele>
        <time>2018-09-25T19:04:49.819Z</time>
      </trkpt>
      <trkpt lat="43.47581" lon="3.47215">
        <ele>40.7</ele>
        <time>2018-09-25T19:04:50.819Z</time>
      </trkpt>
      <trkpt lat="43.47584" lon="3.47219">
        <ele>40.8</ele>
        <time>2018-09-25T19:04:51.819Z</time>
      </trkpt>
      <trkpt lat="43.47586" lon="3.47223">
        <ele>40.9</ele>
        <time>2018-09-25T19:04:52.819Z</time>
      </trkpt>
      <trkpt lat="43.47588" lon="3.47227">
        <ele>41</ele>
        <time>2018-09-25T19:04:53.819Z</time>
      </trkpt>
      <trkpt lat="43.47589" lon="3.47231">
        <ele>41.3</ele>
        <time>2018-09-25T19:04:54.819Z</time>
      </trkpt>
      <trkpt lat="43.47591" lon="3.47235">
        <ele>41.4</ele>
        <time>2018-09-25T19:04:55.819Z</time>
      </trkpt>
      <trkpt lat="43.47593" lon="3.47239">
        <ele>41.8</ele>
        <time>2018-09-25T19:04:56.819Z</time>
      </trkpt>
      <trkpt lat="43.47595" lon="3.47242">
        <ele>41.9</ele>
        <time>2018-09-25T19:04:57.819Z</time>
      </trkpt>
      <trkpt lat="43.47597" lon="3.47246">
        <ele>42.3</ele>
        <time>2018-09-25T19:04:58.819Z</time>
      </trkpt>
      <trkpt lat="43.47598" lon="3.4725">
        <ele>42.5</ele>
        <time>2018-09-25T19:04:59.819Z</time>
      </trkpt>
      <trkpt lat="43.47599" lon="3.47254">
        <ele>42.8</ele>
        <time>2018-09-25T19:05:00.819Z</time>
      </trkpt>
      <trkpt lat="43.47602" lon="3.4726">
        <ele>43</ele>
        <time>2018-09-25T19:05:02.819Z</time>
      </trkpt>
      <trkpt lat="43.47605" lon="3.47264">
        <ele>43.2</ele>
        <time>2018-09-25T19:05:03.819Z</time>
      </trkpt>
      <trkpt lat="43.47607" lon="3.47267">
        <ele>43.4</ele>
        <time>2018-09-25T19:05:04.819Z</time>
      </trkpt>
      <trkpt lat="43.47609" lon="3.4727">
        <ele>43.4</ele>
        <time>2018-09-25T19:05:05.819Z</time>
      </trkpt>
      <trkpt lat="43.4761" lon="3.47273">
        <ele>43.6</ele>
        <time>2018-09-25T19:05:06.819Z</time>
      </trkpt>
      <trkpt lat="43.47614" lon="3.47279">
        <ele>43.8</ele>
        <time>2018-09-25T19:05:08.819Z</time>
      </trkpt>
      <trkpt lat="43.47616" lon="3.47283">
        <ele>43.9</ele>
        <time>2018-09-25T19:05:09.819Z</time>
      </trkpt>
      <trkpt lat="43.47619" lon="3.47286">
        <ele>44.1</ele>
        <time>2018-09-25T19:05:10.819Z</time>
      </trkpt>
      <trkpt lat="43.47621" lon="3.47289">
        <ele>44.2</ele>
        <time>2018-09-25T19:05:11.819Z</time>
      </trkpt>
      <trkpt lat="43.47624" lon="3.47295">
        <ele>44.3</ele>
        <time>2018-09-25T19:05:13.819Z</time>
      </trkpt>
      <trkpt lat="43.47626" lon="3.47298">
        <ele>44.4</ele>
        <time>2018-09-25T19:05:14.819Z</time>
      </trkpt>
      <trkpt lat="43.47628" lon="3.47301">
        <ele>44.5</ele>
        <time>2018-09-25T19:05:15.819Z</time>
      </trkpt>
      <trkpt lat="43.4763" lon="3.47306">
        <ele>44.6</ele>
        <time>2018-09-25T19:05:16.819Z</time>
      </trkpt>
      <trkpt lat="43.47632" lon="3.47309">
        <ele>44.5</ele>
        <time>2018-09-25T19:05:17.819Z</time>
      </trkpt>
      <trkpt lat="43.47635" lon="3.47313">
        <ele>44.5</ele>
        <time>2018-09-25T19:05:18.819Z</time>
      </trkpt>
      <trkpt lat="43.47637" lon="3.47316">
        <ele>44.7</ele>
        <time>2018-09-25T19:05:19.819Z</time>
      </trkpt>
      <trkpt lat="43.47639" lon="3.4732">
        <ele>44.8</ele>
        <time>2018-09-25T19:05:20.819Z</time>
      </trkpt>
      <trkpt lat="43.47642" lon="3.47323">
        <ele>44.9</ele>
        <time>2018-09-25T19:05:21.819Z</time>
      </trkpt>
      <trkpt lat="43.47644" lon="3.47326">
        <ele>44.8</ele>
        <time>2018-09-25T19:05:22.819Z</time>
      </trkpt>
      <trkpt lat="43.47646" lon="3.47329">
        <ele>45.1</ele>
        <time>2018-09-25T19:05:23.819Z</time>
      </trkpt>
      <trkpt lat="43.47648" lon="3.47332">
        <ele>45.3</ele>
        <time>2018-09-25T19:05:24.819Z</time>
      </trkpt>
      <trkpt lat="43.4765" lon="3.47336">
        <ele>45.4</ele>
        <time>2018-09-25T19:05:25.819Z</time>
      </trkpt>
      <trkpt lat="43.47652" lon="3.4734">
        <ele>45.7</ele>
        <time>2018-09-25T19:05:26.819Z</time>
      </trkpt>
      <trkpt lat="43.47653" lon="3.47345">
        <ele>45.9</ele>
        <time>2018-09-25T19:05:27.819Z</time>
      </trkpt>
      <trkpt lat="43.47654" lon="3.47349">
        <ele>46.1</ele>
        <time>2018-09-25T19:05:28.819Z</time>
      </trkpt>
      <trkpt lat="43.47656" lon="3.47354">
        <ele>46.3</ele>
        <time>2018-09-25T19:05:29.819Z</time>
      </trkpt>
      <trkpt lat="43.47657" lon="3.47358">
        <ele>46.4</ele>
        <time>2018-09-25T19:05:30.819Z</time>
      </trkpt>
      <trkpt lat="43.47658" lon="3.47362">
        <ele>46.6</ele>
        <time>2018-09-25T19:05:31.819Z</time>
      </trkpt>
      <trkpt lat="43.47659" lon="3.47367">
        <ele>46.7</ele>
        <time>2018-09-25T19:05:32.819Z</time>
      </trkpt>
      <trkpt lat="43.4766" lon="3.47372">
        <ele>46.8</ele>
        <time>2018-09-25T19:05:33.819Z</time>
      </trkpt>
      <trkpt lat="43.4766" lon="3.47376">
        <ele>47</ele>
        <time>2018-09-25T19:05:34.819Z</time>
      </trkpt>
      <trkpt lat="43.47662" lon="3.47381">
        <ele>47.2</ele>
        <time>2018-09-25T19:05:35.819Z</time>
      </trkpt>
      <trkpt lat="43.47663" lon="3.47386">
        <ele>47.4</ele>
        <time>2018-09-25T19:05:36.819Z</time>
      </trkpt>
      <trkpt lat="43.47664" lon="3.4739">
        <ele>47.7</ele>
        <time>2018-09-25T19:05:37.819Z</time>
      </trkpt>
      <trkpt lat="43.47665" lon="3.47395">
        <ele>47.9</ele>
        <time>2018-09-25T19:05:38.819Z</time>
      </trkpt>
      <trkpt lat="43.47667" lon="3.474">
        <ele>48.3</ele>
        <time>2018-09-25T19:05:39.819Z</time>
      </trkpt>
      <trkpt lat="43.47668" lon="3.47405">
        <ele>48.5</ele>
        <time>2018-09-25T19:05:40.819Z</time>
      </trkpt>
      <trkpt lat="43.4767" lon="3.47409">
        <ele>48.6</ele>
        <time>2018-09-25T19:05:41.819Z</time>
      </trkpt>
      <trkpt lat="43.47671" lon="3.47413">
        <ele>48.8</ele>
        <time>2018-09-25T19:05:42.819Z</time>
      </trkpt>
      <trkpt lat="43.47672" lon="3.47417">
        <ele>48.7</ele>
        <time>2018-09-25T19:05:43.819Z</time>
      </trkpt>
      <trkpt lat="43.47674" lon="3.47421">
        <ele>48.9</ele>
        <time>2018-09-25T19:05:44.819Z</time>
      </trkpt>
      <trkpt lat="43.47676" lon="3.47425">
        <ele>49</ele>
        <time>2018-09-25T19:05:45.819Z</time>
      </trkpt>
      <trkpt lat="43.47677" lon="3.47429">
        <ele>49.1</ele>
        <time>2018-09-25T19:05:46.819Z</time>
      </trkpt>
      <trkpt lat="43.47678" lon="3.47433">
        <ele>49.2</ele>
        <time>2018-09-25T19:05:47.819Z</time>
      </trkpt>
      <trkpt lat="43.4768" lon="3.47436">
        <ele>49.4</ele>
        <time>2018-09-25T19:05:48.819Z</time>
      </trkpt>
      <trkpt lat="43.47681" lon="3.47441">
        <ele>49.5</ele>
        <time>2018-09-25T19:05:49.819Z</time>
      </trkpt>
      <trkpt lat="43.47683" lon="3.47446">
        <ele>49.6</ele>
        <time>2018-09-25T19:05:50.819Z</time>
      </trkpt>
      <trkpt lat="43.47685" lon="3.4745">
        <ele>49.7</ele>
        <time>2018-09-25T19:05:51.819Z</time>
      </trkpt>
      <trkpt lat="43.47686" lon="3.47454">
        <ele>49.8</ele>
        <time>2018-09-25T19:05:52.819Z</time>
      </trkpt>
      <trkpt lat="43.47688" lon="3.47459">
        <ele>49.9</ele>
        <time>2018-09-25T19:05:53.819Z</time>
      </trkpt>
      <trkpt lat="43.4769" lon="3.47464">
        <ele>50</ele>
        <time>2018-09-25T19:05:54.819Z</time>
      </trkpt>
      <trkpt lat="43.47691" lon="3.47468">
        <ele>50.1</ele>
        <time>2018-09-25T19:05:55.819Z</time>
      </trkpt>
      <trkpt lat="43.47693" lon="3.47473">
        <ele>50.4</ele>
        <time>2018-09-25T19:05:56.819Z</time>
      </trkpt>
      <trkpt lat="43.47694" lon="3.47477">
        <ele>50.5</ele>
        <time>2018-09-25T19:05:57.819Z</time>
      </trkpt>
      <trkpt lat="43.47696" lon="3.47482">
        <ele>50.6</ele>
        <time>2018-09-25T19:05:58.819Z</time>
      </trkpt>
      <trkpt lat="43.47697" lon="3.47486">
        <ele>50.7</ele>
        <time>2018-09-25T19:05:59.819Z</time>
      </trkpt>
      <trkpt lat="43.47699" lon="3.4749">
        <ele>50.8</ele>
        <time>2018-09-25T19:06:00.819Z</time>
      </trkpt>
      <trkpt lat="43.477" lon="3.47494">
        <ele>51</ele>
        <time>2018-09-25T19:06:01.819Z</time>
      </trkpt>
      <trkpt lat="43.47702" lon="3.47499">
        <ele>51.1</ele>
        <time>2018-09-25T19:06:02.819Z</time>
      </trkpt>
      <trkpt lat="43.47703" lon="3.47503">
        <ele>51.1</ele>
        <time>2018-09-25T19:06:03.819Z</time>
      </trkpt>
      <trkpt lat="43.47705" lon="3.47507">
        <ele>51.2</ele>
        <time>2018-09-25T19:06:04.819Z</time>
      </trkpt>
      <trkpt lat="43.47707" lon="3.47511">
        <ele>51.3</ele>
        <time>2018-09-25T19:06:05.819Z</time>
      </trkpt>
      <trkpt lat="43.47709" lon="3.47516">
        <ele>51.4</ele>
        <time>2018-09-25T19:06:06.819Z</time>
      </trkpt>
      <trkpt lat="43.4771" lon="3.4752">
        <ele>51.5</ele>
        <time>2018-09-25T19:06:07.819Z</time>
      </trkpt>
      <trkpt lat="43.47712" lon="3.47524">
        <ele>51.5</ele>
        <time>2018-09-25T19:06:08.819Z</time>
      </trkpt>
      <trkpt lat="43.47714" lon="3.47529">
        <ele>51.5</ele>
        <time>2018-09-25T19:06:09.819Z</time>
      </trkpt>
      <trkpt lat="43.47715" lon="3.47534">
        <ele>51.5</ele>
        <time>2018-09-25T19:06:10.819Z</time>
      </trkpt>
      <trkpt lat="43.47717" lon="3.47539">
        <ele>51.5</ele>
        <time>2018-09-25T19:06:11.819Z</time>
      </trkpt>
      <trkpt lat="43.47719" lon="3.47544">
        <ele>51.3</ele>
        <time>2018-09-25T19:06:12.819Z</time>
      </trkpt>
      <trkpt lat="43.4772" lon="3.47549">
        <ele>51.3</ele>
        <time>2018-09-25T19:06:13.819Z</time>
      </trkpt>
      <trkpt lat="43.47722" lon="3.47554">
        <ele>51.1</ele>
        <time>2018-09-25T19:06:14.819Z</time>
      </trkpt>
      <trkpt lat="43.47723" lon="3.47557">
        <ele>51.1</ele>
        <time>2018-09-25T19:06:15.819Z</time>
      </trkpt>
      <trkpt lat="43.47725" lon="3.47565">
        <ele>50.8</ele>
        <time>2018-09-25T19:06:17.819Z</time>
      </trkpt>
      <trkpt lat="43.47726" lon="3.47569">
        <ele>50.8</ele>
        <time>2018-09-25T19:06:18.819Z</time>
      </trkpt>
      <trkpt lat="43.47728" lon="3.47573">
        <ele>50.7</ele>
        <time>2018-09-25T19:06:19.819Z</time>
      </trkpt>
      <trkpt lat="43.47728" lon="3.47576">
        <ele>50.5</ele>
        <time>2018-09-25T19:06:20.819Z</time>
      </trkpt>
      <trkpt lat="43.47729" lon="3.4758">
        <ele>50.4</ele>
        <time>2018-09-25T19:06:21.819Z</time>
      </trkpt>
      <trkpt lat="43.47731" lon="3.47584">
        <ele>50.4</ele>
        <time>2018-09-25T19:06:22.819Z</time>
      </trkpt>
      <trkpt lat="43.47732" lon="3.47588">
        <ele>50.2</ele>
        <time>2018-09-25T19:06:23.819Z</time>
      </trkpt>
      <trkpt lat="43.47733" lon="3.47593">
        <ele>50.1</ele>
        <time>2018-09-25T19:06:24.819Z</time>
      </trkpt>
      <trkpt lat="43.47735" lon="3.47597">
        <ele>49.9</ele>
        <time>2018-09-25T19:06:25.819Z</time>
      </trkpt>
      <trkpt lat="43.47736" lon="3.47601">
        <ele>49.8</ele>
        <time>2018-09-25T19:06:26.819Z</time>
      </trkpt>
      <trkpt lat="43.47737" lon="3.47604">
        <ele>49.5</ele>
        <time>2018-09-25T19:06:27.819Z</time>
      </trkpt>
      <trkpt lat="43.47739" lon="3.47611">
        <ele>49.5</ele>
        <time>2018-09-25T19:06:29.819Z</time>
      </trkpt>
      <trkpt lat="43.47741" lon="3.47614">
        <ele>49.2</ele>
        <time>2018-09-25T19:06:30.819Z</time>
      </trkpt>
      <trkpt lat="43.47742" lon="3.47618">
        <ele>49.1</ele>
        <time>2018-09-25T19:06:31.819Z</time>
      </trkpt>
      <trkpt lat="43.47744" lon="3.47625">
        <ele>48.7</ele>
        <time>2018-09-25T19:06:33.819Z</time>
      </trkpt>
      <trkpt lat="43.47746" lon="3.47629">
        <ele>48.6</ele>
        <time>2018-09-25T19:06:34.819Z</time>
      </trkpt>
      <trkpt lat="43.47748" lon="3.47634">
        <ele>48.2</ele>
        <time>2018-09-25T19:06:35.819Z</time>
      </trkpt>
      <trkpt lat="43.4775" lon="3.47638">
        <ele>47.8</ele>
        <time>2018-09-25T19:06:36.819Z</time>
      </trkpt>
      <trkpt lat="43.47751" lon="3.47643">
        <ele>47.6</ele>
        <time>2018-09-25T19:06:37.819Z</time>
      </trkpt>
      <trkpt lat="43.47754" lon="3.47649">
        <ele>47.2</ele>
        <time>2018-09-25T19:06:38.819Z</time>
      </trkpt>
      <trkpt lat="43.47756" lon="3.47654">
        <ele>46.6</ele>
        <time>2018-09-25T19:06:39.819Z</time>
      </trkpt>
      <trkpt lat="43.47758" lon="3.47659">
        <ele>46.4</ele>
        <time>2018-09-25T19:06:40.819Z</time>
      </trkpt>
      <trkpt lat="43.4776" lon="3.47664">
        <ele>46</ele>
        <time>2018-09-25T19:06:41.819Z</time>
      </trkpt>
      <trkpt lat="43.47762" lon="3.47669">
        <ele>46</ele>
        <time>2018-09-25T19:06:42.819Z</time>
      </trkpt>
      <trkpt lat="43.47764" lon="3.47674">
        <ele>46</ele>
        <time>2018-09-25T19:06:43.819Z</time>
      </trkpt>
      <trkpt lat="43.47766" lon="3.47678">
        <ele>46</ele>
        <time>2018-09-25T19:06:44.819Z</time>
      </trkpt>
      <trkpt lat="43.47767" lon="3.47683">
        <ele>46</ele>
        <time>2018-09-25T19:06:45.819Z</time>
      </trkpt>
      <trkpt lat="43.47769" lon="3.47689">
        <ele>46</ele>
        <time>2018-09-25T19:06:46.819Z</time>
      </trkpt>
      <trkpt lat="43.47771" lon="3.47696">
        <ele>46</ele>
        <time>2018-09-25T19:06:47.819Z</time>
      </trkpt>
      <trkpt lat="43.47774" lon="3.47701">
        <ele>46</ele>
        <time>2018-09-25T19:06:48.819Z</time>
      </trkpt>
      <trkpt lat="43.47777" lon="3.47707">
        <ele>46</ele>
        <time>2018-09-25T19:06:49.819Z</time>
      </trkpt>
      <trkpt lat="43.47778" lon="3.47711">
        <ele>46</ele>
        <time>2018-09-25T19:06:50.819Z</time>
      </trkpt>
      <trkpt lat="43.4778" lon="3.47716">
        <ele>46</ele>
        <time>2018-09-25T19:06:51.819Z</time>
      </trkpt>
      <trkpt lat="43.47782" lon="3.4772">
        <ele>46</ele>
        <time>2018-09-25T19:06:52.819Z</time>
      </trkpt>
      <trkpt lat="43.47784" lon="3.47725">
        <ele>46</ele>
        <time>2018-09-25T19:06:53.819Z</time>
      </trkpt>
      <trkpt lat="43.47786" lon="3.47729">
        <ele>46</ele>
        <time>2018-09-25T19:06:54.819Z</time>
      </trkpt>
      <trkpt lat="43.47788" lon="3.47734">
        <ele>45.8</ele>
        <time>2018-09-25T19:06:55.819Z</time>
      </trkpt>
      <trkpt lat="43.47791" lon="3.47738">
        <ele>45.6</ele>
        <time>2018-09-25T19:06:56.819Z</time>
      </trkpt>
      <trkpt lat="43.47793" lon="3.47743">
        <ele>45.4</ele>
        <time>2018-09-25T19:06:57.819Z</time>
      </trkpt>
      <trkpt lat="43.47796" lon="3.47747">
        <ele>45.3</ele>
        <time>2018-09-25T19:06:58.819Z</time>
      </trkpt>
      <trkpt lat="43.47798" lon="3.47751">
        <ele>45.1</ele>
        <time>2018-09-25T19:06:59.819Z</time>
      </trkpt>
      <trkpt lat="43.478" lon="3.47756">
        <ele>44.9</ele>
        <time>2018-09-25T19:07:00.819Z</time>
      </trkpt>
      <trkpt lat="43.47802" lon="3.4776">
        <ele>44.7</ele>
        <time>2018-09-25T19:07:01.819Z</time>
      </trkpt>
      <trkpt lat="43.47804" lon="3.47763">
        <ele>44.5</ele>
        <time>2018-09-25T19:07:02.819Z</time>
      </trkpt>
      <trkpt lat="43.47806" lon="3.47767">
        <ele>44.3</ele>
        <time>2018-09-25T19:07:03.819Z</time>
      </trkpt>
      <trkpt lat="43.47809" lon="3.4777">
        <ele>44.1</ele>
        <time>2018-09-25T19:07:04.819Z</time>
      </trkpt>
      <trkpt lat="43.47811" lon="3.47774">
        <ele>43.9</ele>
        <time>2018-09-25T19:07:05.819Z</time>
      </trkpt>
      <trkpt lat="43.47813" lon="3.47778">
        <ele>43.8</ele>
        <time>2018-09-25T19:07:06.819Z</time>
      </trkpt>
      <trkpt lat="43.47815" lon="3.47783">
        <ele>43.6</ele>
        <time>2018-09-25T19:07:07.819Z</time>
      </trkpt>
      <trkpt lat="43.47817" lon="3.47787">
        <ele>43.5</ele>
        <time>2018-09-25T19:07:08.819Z</time>
      </trkpt>
      <trkpt lat="43.47819" lon="3.47791">
        <ele>43.3</ele>
        <time>2018-09-25T19:07:09.819Z</time>
      </trkpt>
      <trkpt lat="43.4782" lon="3.47796">
        <ele>43.2</ele>
        <time>2018-09-25T19:07:10.819Z</time>
      </trkpt>
      <trkpt lat="43.47822" lon="3.47801">
        <ele>43.1</ele>
        <time>2018-09-25T19:07:11.819Z</time>
      </trkpt>
      <trkpt lat="43.47823" lon="3.47805">
        <ele>43.1</ele>
        <time>2018-09-25T19:07:12.819Z</time>
      </trkpt>
      <trkpt lat="43.47824" lon="3.47809">
        <ele>43</ele>
        <time>2018-09-25T19:07:13.819Z</time>
      </trkpt>
      <trkpt lat="43.47826" lon="3.47813">
        <ele>43</ele>
        <time>2018-09-25T19:07:14.819Z</time>
      </trkpt>
      <trkpt lat="43.47827" lon="3.47818">
        <ele>42.9</ele>
        <time>2018-09-25T19:07:15.819Z</time>
      </trkpt>
      <trkpt lat="43.47829" lon="3.47822">
        <ele>42.8</ele>
        <time>2018-09-25T19:07:16.819Z</time>
      </trkpt>
      <trkpt lat="43.47829" lon="3.47827">
        <ele>42.8</ele>
        <time>2018-09-25T19:07:17.819Z</time>
      </trkpt>
      <trkpt lat="43.4783" lon="3.47831">
        <ele>42.8</ele>
        <time>2018-09-25T19:07:18.819Z</time>
      </trkpt>
      <trkpt lat="43.47831" lon="3.47838">
        <ele>42.7</ele>
        <time>2018-09-25T19:07:20.819Z</time>
      </trkpt>
      <trkpt lat="43.47831" lon="3.47843">
        <ele>42.7</ele>
        <time>2018-09-25T19:07:21.819Z</time>
      </trkpt>
      <trkpt lat="43.47831" lon="3.47848">
        <ele>42.8</ele>
        <time>2018-09-25T19:07:22.819Z</time>
      </trkpt>
      <trkpt lat="43.47831" lon="3.47852">
        <ele>42.9</ele>
        <time>2018-09-25T19:07:23.819Z</time>
      </trkpt>
      <trkpt lat="43.47831" lon="3.47856">
        <ele>42.9</ele>
        <time>2018-09-25T19:07:24.819Z</time>
      </trkpt>
      <trkpt lat="43.47831" lon="3.47861">
        <ele>43</ele>
        <time>2018-09-25T19:07:25.819Z</time>
      </trkpt>
      <trkpt lat="43.47831" lon="3.47866">
        <ele>43</ele>
        <time>2018-09-25T19:07:26.819Z</time>
      </trkpt>
      <trkpt lat="43.47831" lon="3.47871">
        <ele>43</ele>
        <time>2018-09-25T19:07:27.819Z</time>
      </trkpt>
      <trkpt lat="43.47831" lon="3.47876">
        <ele>43.1</ele>
        <time>2018-09-25T19:07:28.819Z</time>
      </trkpt>
      <trkpt lat="43.47831" lon="3.47881">
        <ele>43.1</ele>
        <time>2018-09-25T19:07:29.819Z</time>
      </trkpt>
      <trkpt lat="43.47832" lon="3.47886">
        <ele>43.1</ele>
        <time>2018-09-25T19:07:30.819Z</time>
      </trkpt>
      <trkpt lat="43.47833" lon="3.47891">
        <ele>43.1</ele>
        <time>2018-09-25T19:07:31.819Z</time>
      </trkpt>
      <trkpt lat="43.47834" lon="3.47896">
        <ele>43.2</ele>
        <time>2018-09-25T19:07:32.819Z</time>
      </trkpt>
      <trkpt lat="43.47834" lon="3.47901">
        <ele>43.2</ele>
        <time>2018-09-25T19:07:33.819Z</time>
      </trkpt>
      <trkpt lat="43.47835" lon="3.47907">
        <ele>43.2</ele>
        <time>2018-09-25T19:07:34.819Z</time>
      </trkpt>
      <trkpt lat="43.47835" lon="3.47912">
        <ele>43.3</ele>
        <time>2018-09-25T19:07:35.819Z</time>
      </trkpt>
      <trkpt lat="43.47835" lon="3.47918">
        <ele>43.3</ele>
        <time>2018-09-25T19:07:36.819Z</time>
      </trkpt>
      <trkpt lat="43.47836" lon="3.47924">
        <ele>43.4</ele>
        <time>2018-09-25T19:07:37.819Z</time>
      </trkpt>
      <trkpt lat="43.47836" lon="3.47929">
        <ele>43.4</ele>
        <time>2018-09-25T19:07:38.819Z</time>
      </trkpt>
      <trkpt lat="43.47836" lon="3.47934">
        <ele>43.4</ele>
        <time>2018-09-25T19:07:39.819Z</time>
      </trkpt>
      <trkpt lat="43.47837" lon="3.4794">
        <ele>43.4</ele>
        <time>2018-09-25T19:07:40.819Z</time>
      </trkpt>
      <trkpt lat="43.47836" lon="3.47945">
        <ele>43.4</ele>
        <time>2018-09-25T19:07:41.819Z</time>
      </trkpt>
      <trkpt lat="43.47836" lon="3.47949">
        <ele>43.4</ele>
        <time>2018-09-25T19:07:42.819Z</time>
      </trkpt>
      <trkpt lat="43.47836" lon="3.47954">
        <ele>43.4</ele>
        <time>2018-09-25T19:07:43.819Z</time>
      </trkpt>
      <trkpt lat="43.47835" lon="3.47958">
        <ele>43.4</ele>
        <time>2018-09-25T19:07:44.819Z</time>
      </trkpt>
      <trkpt lat="43.47834" lon="3.47961">
        <ele>43.4</ele>
        <time>2018-09-25T19:07:45.819Z</time>
      </trkpt>
      <trkpt lat="43.47832" lon="3.47969">
        <ele>43.4</ele>
        <time>2018-09-25T19:07:47.819Z</time>
      </trkpt>
      <trkpt lat="43.47831" lon="3.47973">
        <ele>43.4</ele>
        <time>2018-09-25T19:07:48.819Z</time>
      </trkpt>
      <trkpt lat="43.4783" lon="3.47977">
        <ele>43.4</ele>
        <time>2018-09-25T19:07:49.819Z</time>
      </trkpt>
      <trkpt lat="43.47828" lon="3.47981">
        <ele>43.4</ele>
        <time>2018-09-25T19:07:50.819Z</time>
      </trkpt>
      <trkpt lat="43.47827" lon="3.47986">
        <ele>43.4</ele>
        <time>2018-09-25T19:07:51.819Z</time>
      </trkpt>
      <trkpt lat="43.47826" lon="3.47991">
        <ele>43.4</ele>
        <time>2018-09-25T19:07:52.819Z</time>
      </trkpt>
      <trkpt lat="43.47826" lon="3.47995">
        <ele>43.4</ele>
        <time>2018-09-25T19:07:53.819Z</time>
      </trkpt>
      <trkpt lat="43.47824" lon="3.48002">
        <ele>43.3</ele>
        <time>2018-09-25T19:07:55.819Z</time>
      </trkpt>
      <trkpt lat="43.47824" lon="3.48005">
        <ele>43.3</ele>
        <time>2018-09-25T19:07:56.819Z</time>
      </trkpt>
      <trkpt lat="43.47823" lon="3.48012">
        <ele>43.3</ele>
        <time>2018-09-25T19:07:58.819Z</time>
      </trkpt>
      <trkpt lat="43.47824" lon="3.48016">
        <ele>43.2</ele>
        <time>2018-09-25T19:07:59.819Z</time>
      </trkpt>
      <trkpt lat="43.47825" lon="3.48019">
        <ele>43.2</ele>
        <time>2018-09-25T19:08:00.819Z</time>
      </trkpt>
      <trkpt lat="43.47828" lon="3.48023">
        <ele>43.2</ele>
        <time>2018-09-25T19:08:01.819Z</time>
      </trkpt>
      <trkpt lat="43.4783" lon="3.48026">
        <ele>41.2</ele>
        <time>2018-09-25T19:08:02.819Z</time>
      </trkpt>
      <trkpt lat="43.47833" lon="3.4803">
        <ele>40.6</ele>
        <time>2018-09-25T19:08:03.819Z</time>
      </trkpt>
      <trkpt lat="43.47837" lon="3.48034">
        <ele>39.9</ele>
        <time>2018-09-25T19:08:04.819Z</time>
      </trkpt>
      <trkpt lat="43.47839" lon="3.48038">
        <ele>39.3</ele>
        <time>2018-09-25T19:08:05.819Z</time>
      </trkpt>
      <trkpt lat="43.47843" lon="3.48042">
        <ele>38.6</ele>
        <time>2018-09-25T19:08:06.819Z</time>
      </trkpt>
      <trkpt lat="43.47846" lon="3.48046">
        <ele>38</ele>
        <time>2018-09-25T19:08:07.819Z</time>
      </trkpt>
      <trkpt lat="43.47849" lon="3.48049">
        <ele>38</ele>
        <time>2018-09-25T19:08:08.819Z</time>
      </trkpt>
      <trkpt lat="43.47852" lon="3.48052">
        <ele>38</ele>
        <time>2018-09-25T19:08:09.819Z</time>
      </trkpt>
      <trkpt lat="43.47854" lon="3.48056">
        <ele>38</ele>
        <time>2018-09-25T19:08:10.819Z</time>
      </trkpt>
      <trkpt lat="43.47856" lon="3.4806">
        <ele>38</ele>
        <time>2018-09-25T19:08:11.819Z</time>
      </trkpt>
      <trkpt lat="43.47859" lon="3.48064">
        <ele>38</ele>
        <time>2018-09-25T19:08:12.819Z</time>
      </trkpt>
      <trkpt lat="43.47862" lon="3.48068">
        <ele>38</ele>
        <time>2018-09-25T19:08:13.819Z</time>
      </trkpt>
      <trkpt lat="43.47864" lon="3.48072">
        <ele>38</ele>
        <time>2018-09-25T19:08:14.819Z</time>
      </trkpt>
      <trkpt lat="43.47867" lon="3.48075">
        <ele>38</ele>
        <time>2018-09-25T19:08:15.819Z</time>
      </trkpt>
      <trkpt lat="43.47869" lon="3.48079">
        <ele>38</ele>
        <time>2018-09-25T19:08:16.819Z</time>
      </trkpt>
      <trkpt lat="43.4787" lon="3.48083">
        <ele>37.5</ele>
        <time>2018-09-25T19:08:17.819Z</time>
      </trkpt>
      <trkpt lat="43.47873" lon="3.48087">
        <ele>35</ele>
        <time>2018-09-25T19:08:18.819Z</time>
      </trkpt>
      <trkpt lat="43.47875" lon="3.4809">
        <ele>35</ele>
        <time>2018-09-25T19:08:19.819Z</time>
      </trkpt>
      <trkpt lat="43.47877" lon="3.48093">
        <ele>35</ele>
        <time>2018-09-25T19:08:20.819Z</time>
      </trkpt>
      <trkpt lat="43.47881" lon="3.48097">
        <ele>35</ele>
        <time>2018-09-25T19:08:22.819Z</time>
      </trkpt>
      <trkpt lat="43.47883" lon="3.481">
        <ele>35</ele>
        <time>2018-09-25T19:08:23.819Z</time>
      </trkpt>
      <trkpt lat="43.47885" lon="3.48103">
        <ele>35</ele>
        <time>2018-09-25T19:08:24.819Z</time>
      </trkpt>
      <trkpt lat="43.47888" lon="3.48106">
        <ele>35</ele>
        <time>2018-09-25T19:08:25.819Z</time>
      </trkpt>
      <trkpt lat="43.47892" lon="3.48109">
        <ele>35</ele>
        <time>2018-09-25T19:08:26.819Z</time>
      </trkpt>
      <trkpt lat="43.47895" lon="3.48113">
        <ele>35</ele>
        <time>2018-09-25T19:08:27.819Z</time>
      </trkpt>
      <trkpt lat="43.47898" lon="3.48116">
        <ele>35</ele>
        <time>2018-09-25T19:08:28.819Z</time>
      </trkpt>
      <trkpt lat="43.47901" lon="3.4812">
        <ele>35</ele>
        <time>2018-09-25T19:08:29.819Z</time>
      </trkpt>
      <trkpt lat="43.47904" lon="3.48123">
        <ele>35</ele>
        <time>2018-09-25T19:08:30.819Z</time>
      </trkpt>
      <trkpt lat="43.47907" lon="3.48127">
        <ele>35.3</ele>
        <time>2018-09-25T19:08:31.819Z</time>
      </trkpt>
      <trkpt lat="43.47911" lon="3.4813">
        <ele>35.6</ele>
        <time>2018-09-25T19:08:32.819Z</time>
      </trkpt>
      <trkpt lat="43.47914" lon="3.48133">
        <ele>35.9</ele>
        <time>2018-09-25T19:08:33.819Z</time>
      </trkpt>
      <trkpt lat="43.47916" lon="3.48137">
        <ele>36.2</ele>
        <time>2018-09-25T19:08:34.819Z</time>
      </trkpt>
      <trkpt lat="43.47919" lon="3.4814">
        <ele>36.5</ele>
        <time>2018-09-25T19:08:35.819Z</time>
      </trkpt>
      <trkpt lat="43.47922" lon="3.48144">
        <ele>36.9</ele>
        <time>2018-09-25T19:08:36.819Z</time>
      </trkpt>
      <trkpt lat="43.47924" lon="3.48149">
        <ele>37.3</ele>
        <time>2018-09-25T19:08:37.819Z</time>
      </trkpt>
      <trkpt lat="43.47927" lon="3.48154">
        <ele>37.7</ele>
        <time>2018-09-25T19:08:38.819Z</time>
      </trkpt>
      <trkpt lat="43.4793" lon="3.48157">
        <ele>38.1</ele>
        <time>2018-09-25T19:08:39.819Z</time>
      </trkpt>
      <trkpt lat="43.47933" lon="3.48161">
        <ele>38.5</ele>
        <time>2018-09-25T19:08:40.819Z</time>
      </trkpt>
      <trkpt lat="43.47936" lon="3.48164">
        <ele>38.9</ele>
        <time>2018-09-25T19:08:41.819Z</time>
      </trkpt>
      <trkpt lat="43.4794" lon="3.48166">
        <ele>39.3</ele>
        <time>2018-09-25T19:08:42.819Z</time>
      </trkpt>
      <trkpt lat="43.47944" lon="3.48169">
        <ele>39.7</ele>
        <time>2018-09-25T19:08:43.819Z</time>
      </trkpt>
      <trkpt lat="43.47947" lon="3.48172">
        <ele>40</ele>
        <time>2018-09-25T19:08:44.819Z</time>
      </trkpt>
      <trkpt lat="43.4795" lon="3.48176">
        <ele>40</ele>
        <time>2018-09-25T19:08:45.819Z</time>
      </trkpt>
      <trkpt lat="43.47953" lon="3.4818">
        <ele>40</ele>
        <time>2018-09-25T19:08:46.819Z</time>
      </trkpt>
      <trkpt lat="43.47956" lon="3.48182">
        <ele>40</ele>
        <time>2018-09-25T19:08:47.819Z</time>
      </trkpt>
      <trkpt lat="43.47959" lon="3.48185">
        <ele>40</ele>
        <time>2018-09-25T19:08:48.819Z</time>
      </trkpt>
      <trkpt lat="43.47962" lon="3.48189">
        <ele>40</ele>
        <time>2018-09-25T19:08:49.819Z</time>
      </trkpt>
      <trkpt lat="43.47965" lon="3.48192">
        <ele>40</ele>
        <time>2018-09-25T19:08:50.819Z</time>
      </trkpt>
      <trkpt lat="43.47967" lon="3.48195">
        <ele>40</ele>
        <time>2018-09-25T19:08:51.819Z</time>
      </trkpt>
      <trkpt lat="43.47971" lon="3.48199">
        <ele>40</ele>
        <time>2018-09-25T19:08:53.819Z</time>
      </trkpt>
      <trkpt lat="43.47975" lon="3.48204">
        <ele>40</ele>
        <time>2018-09-25T19:08:55.819Z</time>
      </trkpt>
      <trkpt lat="43.47978" lon="3.48207">
        <ele>40</ele>
        <time>2018-09-25T19:08:57.819Z</time>
      </trkpt>
      <trkpt lat="43.47981" lon="3.48209">
        <ele>40</ele>
        <time>2018-09-25T19:08:59.819Z</time>
      </trkpt>
      <trkpt lat="43.47983" lon="3.48213">
        <ele>40</ele>
        <time>2018-09-25T19:09:01.819Z</time>
      </trkpt>
      <trkpt lat="43.47986" lon="3.48216">
        <ele>40</ele>
        <time>2018-09-25T19:09:03.819Z</time>
      </trkpt>
      <trkpt lat="43.4799" lon="3.48221">
        <ele>40.3</ele>
        <time>2018-09-25T19:09:05.819Z</time>
      </trkpt>
      <trkpt lat="43.47993" lon="3.48222">
        <ele>40.6</ele>
        <time>2018-09-25T19:09:06.819Z</time>
      </trkpt>
      <trkpt lat="43.47995" lon="3.48224">
        <ele>40.9</ele>
        <time>2018-09-25T19:09:07.819Z</time>
      </trkpt>
      <trkpt lat="43.47998" lon="3.48228">
        <ele>41.3</ele>
        <time>2018-09-25T19:09:08.819Z</time>
      </trkpt>
      <trkpt lat="43.48001" lon="3.4823">
        <ele>41.6</ele>
        <time>2018-09-25T19:09:09.819Z</time>
      </trkpt>
      <trkpt lat="43.48003" lon="3.48232">
        <ele>41.9</ele>
        <time>2018-09-25T19:09:10.819Z</time>
      </trkpt>
      <trkpt lat="43.48006" lon="3.48234">
        <ele>42.2</ele>
        <time>2018-09-25T19:09:11.819Z</time>
      </trkpt>
      <trkpt lat="43.48009" lon="3.48236">
        <ele>42.5</ele>
        <time>2018-09-25T19:09:12.819Z</time>
      </trkpt>
      <trkpt lat="43.48013" lon="3.48238">
        <ele>42.9</ele>
        <time>2018-09-25T19:09:13.819Z</time>
      </trkpt>
      <trkpt lat="43.48016" lon="3.48241">
        <ele>43.2</ele>
        <time>2018-09-25T19:09:14.819Z</time>
      </trkpt>
      <trkpt lat="43.48018" lon="3.48244">
        <ele>43.5</ele>
        <time>2018-09-25T19:09:15.819Z</time>
      </trkpt>
      <trkpt lat="43.4802" lon="3.48247">
        <ele>43.7</ele>
        <time>2018-09-25T19:09:16.819Z</time>
      </trkpt>
      <trkpt lat="43.48023" lon="3.4825">
        <ele>43.8</ele>
        <time>2018-09-25T19:09:17.819Z</time>
      </trkpt>
      <trkpt lat="43.48025" lon="3.48253">
        <ele>44</ele>
        <time>2018-09-25T19:09:18.819Z</time>
      </trkpt>
      <trkpt lat="43.48028" lon="3.48255">
        <ele>44.1</ele>
        <time>2018-09-25T19:09:19.819Z</time>
      </trkpt>
      <trkpt lat="43.48031" lon="3.48259">
        <ele>44.3</ele>
        <time>2018-09-25T19:09:21.819Z</time>
      </trkpt>
      <trkpt lat="43.48034" lon="3.48262">
        <ele>44.4</ele>
        <time>2018-09-25T19:09:23.819Z</time>
      </trkpt>
      <trkpt lat="43.48036" lon="3.48266">
        <ele>44.6</ele>
        <time>2018-09-25T19:09:25.819Z</time>
      </trkpt>
      <trkpt lat="43.48038" lon="3.4827">
        <ele>44.7</ele>
        <time>2018-09-25T19:09:27.819Z</time>
      </trkpt>
      <trkpt lat="43.4804" lon="3.48273">
        <ele>45</ele>
        <time>2018-09-25T19:09:31.819Z</time>
      </trkpt>
      <trkpt lat="43.48043" lon="3.48277">
        <ele>45.1</ele>
        <time>2018-09-25T19:09:33.819Z</time>
      </trkpt>
      <trkpt lat="43.48047" lon="3.48279">
        <ele>45.2</ele>
        <time>2018-09-25T19:09:35.819Z</time>
      </trkpt>
      <trkpt lat="43.4805" lon="3.48283">
        <ele>45.3</ele>
        <time>2018-09-25T19:09:37.819Z</time>
      </trkpt>
      <trkpt lat="43.48053" lon="3.48287">
        <ele>45.4</ele>
        <time>2018-09-25T19:09:39.819Z</time>
      </trkpt>
      <trkpt lat="43.48054" lon="3.48292">
        <ele>45.5</ele>
        <time>2018-09-25T19:09:41.819Z</time>
      </trkpt>
      <trkpt lat="43.48053" lon="3.48299">
        <ele>45.7</ele>
        <time>2018-09-25T19:09:44.819Z</time>
      </trkpt>
      <trkpt lat="43.48054" lon="3.48303">
        <ele>46</ele>
        <time>2018-09-25T19:09:46.819Z</time>
      </trkpt>
      <trkpt lat="43.48057" lon="3.48302">
        <ele>46</ele>
        <time>2018-09-25T19:09:47.819Z</time>
      </trkpt>
      <trkpt lat="43.4806" lon="3.48304">
        <ele>46.2</ele>
        <time>2018-09-25T19:09:48.819Z</time>
      </trkpt>
      <trkpt lat="43.48063" lon="3.48305">
        <ele>46.3</ele>
        <time>2018-09-25T19:09:49.819Z</time>
      </trkpt>
      <trkpt lat="43.48066" lon="3.48307">
        <ele>46.5</ele>
        <time>2018-09-25T19:09:50.819Z</time>
      </trkpt>
      <trkpt lat="43.48069" lon="3.4831">
        <ele>46.7</ele>
        <time>2018-09-25T19:09:51.819Z</time>
      </trkpt>
      <trkpt lat="43.48073" lon="3.48313">
        <ele>46.9</ele>
        <time>2018-09-25T19:09:52.819Z</time>
      </trkpt>
      <trkpt lat="43.48075" lon="3.48316">
        <ele>47.1</ele>
        <time>2018-09-25T19:09:53.819Z</time>
      </trkpt>
      <trkpt lat="43.48078" lon="3.4832">
        <ele>47.2</ele>
        <time>2018-09-25T19:09:54.819Z</time>
      </trkpt>
      <trkpt lat="43.48081" lon="3.48322">
        <ele>47.3</ele>
        <time>2018-09-25T19:09:55.819Z</time>
      </trkpt>
      <trkpt lat="43.48083" lon="3.48325">
        <ele>47.5</ele>
        <time>2018-09-25T19:09:56.819Z</time>
      </trkpt>
      <trkpt lat="43.48086" lon="3.48329">
        <ele>47.6</ele>
        <time>2018-09-25T19:09:57.819Z</time>
      </trkpt>
      <trkpt lat="43.48089" lon="3.48333">
        <ele>47.7</ele>
        <time>2018-09-25T19:09:58.819Z</time>
      </trkpt>
      <trkpt lat="43.48091" lon="3.48335">
        <ele>47.7</ele>
        <time>2018-09-25T19:09:59.819Z</time>
      </trkpt>
      <trkpt lat="43.48093" lon="3.48337">
        <ele>47.8</ele>
        <time>2018-09-25T19:10:00.819Z</time>
      </trkpt>
      <trkpt lat="43.48096" lon="3.48341">
        <ele>48</ele>
        <time>2018-09-25T19:10:01.819Z</time>
      </trkpt>
      <trkpt lat="43.48099" lon="3.48344">
        <ele>48</ele>
        <time>2018-09-25T19:10:02.819Z</time>
      </trkpt>
      <trkpt lat="43.48101" lon="3.48346">
        <ele>48</ele>
        <time>2018-09-25T19:10:03.819Z</time>
      </trkpt>
      <trkpt lat="43.48104" lon="3.4835">
        <ele>48</ele>
        <time>2018-09-25T19:10:04.819Z</time>
      </trkpt>
      <trkpt lat="43.48107" lon="3.48354">
        <ele>48</ele>
        <time>2018-09-25T19:10:05.819Z</time>
      </trkpt>
      <trkpt lat="43.4811" lon="3.48358">
        <ele>48</ele>
        <time>2018-09-25T19:10:06.819Z</time>
      </trkpt>
      <trkpt lat="43.48113" lon="3.4836">
        <ele>48</ele>
        <time>2018-09-25T19:10:07.819Z</time>
      </trkpt>
      <trkpt lat="43.48116" lon="3.48362">
        <ele>48</ele>
        <time>2018-09-25T19:10:08.819Z</time>
      </trkpt>
      <trkpt lat="43.4812" lon="3.48363">
        <ele>48</ele>
        <time>2018-09-25T19:10:09.819Z</time>
      </trkpt>
      <trkpt lat="43.48122" lon="3.48364">
        <ele>48</ele>
        <time>2018-09-25T19:10:10.819Z</time>
      </trkpt>
      <trkpt lat="43.48125" lon="3.48365">
        <ele>48</ele>
        <time>2018-09-25T19:10:11.819Z</time>
      </trkpt>
      <trkpt lat="43.48129" lon="3.48367">
        <ele>48</ele>
        <time>2018-09-25T19:10:12.819Z</time>
      </trkpt>
      <trkpt lat="43.48132" lon="3.48369">
        <ele>48</ele>
        <time>2018-09-25T19:10:13.819Z</time>
      </trkpt>
      <trkpt lat="43.48135" lon="3.4837">
        <ele>48</ele>
        <time>2018-09-25T19:10:14.819Z</time>
      </trkpt>
      <trkpt lat="43.48139" lon="3.48371">
        <ele>48</ele>
        <time>2018-09-25T19:10:15.819Z</time>
      </trkpt>
      <trkpt lat="43.48142" lon="3.48372">
        <ele>48</ele>
        <time>2018-09-25T19:10:16.819Z</time>
      </trkpt>
      <trkpt lat="43.48145" lon="3.48373">
        <ele>48</ele>
        <time>2018-09-25T19:10:17.819Z</time>
      </trkpt>
      <trkpt lat="43.48149" lon="3.48375">
        <ele>48</ele>
        <time>2018-09-25T19:10:18.819Z</time>
      </trkpt>
      <trkpt lat="43.48152" lon="3.48376">
        <ele>48</ele>
        <time>2018-09-25T19:10:19.819Z</time>
      </trkpt>
      <trkpt lat="43.48155" lon="3.48377">
        <ele>48</ele>
        <time>2018-09-25T19:10:20.819Z</time>
      </trkpt>
      <trkpt lat="43.48158" lon="3.48379">
        <ele>48</ele>
        <time>2018-09-25T19:10:21.819Z</time>
      </trkpt>
      <trkpt lat="43.48162" lon="3.48379">
        <ele>48.2</ele>
        <time>2018-09-25T19:10:22.819Z</time>
      </trkpt>
      <trkpt lat="43.48165" lon="3.48381">
        <ele>48.4</ele>
        <time>2018-09-25T19:10:23.819Z</time>
      </trkpt>
      <trkpt lat="43.48168" lon="3.48382">
        <ele>48.6</ele>
        <time>2018-09-25T19:10:24.819Z</time>
      </trkpt>
      <trkpt lat="43.48171" lon="3.48382">
        <ele>48.8</ele>
        <time>2018-09-25T19:10:25.819Z</time>
      </trkpt>
      <trkpt lat="43.48175" lon="3.48383">
        <ele>48.9</ele>
        <time>2018-09-25T19:10:26.819Z</time>
      </trkpt>
      <trkpt lat="43.48178" lon="3.48384">
        <ele>49.1</ele>
        <time>2018-09-25T19:10:27.819Z</time>
      </trkpt>
      <trkpt lat="43.48181" lon="3.48385">
        <ele>49.3</ele>
        <time>2018-09-25T19:10:28.819Z</time>
      </trkpt>
      <trkpt lat="43.48184" lon="3.48385">
        <ele>49.5</ele>
        <time>2018-09-25T19:10:29.819Z</time>
      </trkpt>
      <trkpt lat="43.48188" lon="3.48386">
        <ele>49.7</ele>
        <time>2018-09-25T19:10:30.819Z</time>
      </trkpt>
      <trkpt lat="43.48191" lon="3.48387">
        <ele>49.9</ele>
        <time>2018-09-25T19:10:31.819Z</time>
      </trkpt>
      <trkpt lat="43.48194" lon="3.48388">
        <ele>50</ele>
        <time>2018-09-25T19:10:32.819Z</time>
      </trkpt>
      <trkpt lat="43.48197" lon="3.48389">
        <ele>50</ele>
        <time>2018-09-25T19:10:33.819Z</time>
      </trkpt>
      <trkpt lat="43.482" lon="3.4839">
        <ele>50</ele>
        <time>2018-09-25T19:10:34.819Z</time>
      </trkpt>
      <trkpt lat="43.48203" lon="3.48391">
        <ele>50</ele>
        <time>2018-09-25T19:10:35.819Z</time>
      </trkpt>
      <trkpt lat="43.48206" lon="3.48391">
        <ele>50</ele>
        <time>2018-09-25T19:10:36.819Z</time>
      </trkpt>
      <trkpt lat="43.48209" lon="3.48392">
        <ele>50</ele>
        <time>2018-09-25T19:10:37.819Z</time>
      </trkpt>
      <trkpt lat="43.48212" lon="3.48393">
        <ele>50</ele>
        <time>2018-09-25T19:10:38.819Z</time>
      </trkpt>
      <trkpt lat="43.48215" lon="3.48395">
        <ele>50</ele>
        <time>2018-09-25T19:10:39.819Z</time>
      </trkpt>
      <trkpt lat="43.48219" lon="3.48396">
        <ele>50</ele>
        <time>2018-09-25T19:10:40.819Z</time>
      </trkpt>
      <trkpt lat="43.48221" lon="3.48399">
        <ele>50</ele>
        <time>2018-09-25T19:10:41.819Z</time>
      </trkpt>
      <trkpt lat="43.48224" lon="3.48402">
        <ele>50</ele>
        <time>2018-09-25T19:10:42.819Z</time>
      </trkpt>
      <trkpt lat="43.48227" lon="3.48404">
        <ele>50</ele>
        <time>2018-09-25T19:10:43.819Z</time>
      </trkpt>
      <trkpt lat="43.48231" lon="3.48406">
        <ele>50</ele>
        <time>2018-09-25T19:10:44.819Z</time>
      </trkpt>
      <trkpt lat="43.48234" lon="3.48409">
        <ele>50</ele>
        <time>2018-09-25T19:10:45.819Z</time>
      </trkpt>
      <trkpt lat="43.48237" lon="3.48411">
        <ele>50</ele>
        <time>2018-09-25T19:10:46.819Z</time>
      </trkpt>
      <trkpt lat="43.48239" lon="3.48412">
        <ele>50</ele>
        <time>2018-09-25T19:10:47.819Z</time>
      </trkpt>
      <trkpt lat="43.48244" lon="3.48417">
        <ele>51.8</ele>
        <time>2018-09-25T19:10:49.819Z</time>
      </trkpt>
      <trkpt lat="43.48246" lon="3.48419">
        <ele>52.3</ele>
        <time>2018-09-25T19:10:50.819Z</time>
      </trkpt>
      <trkpt lat="43.48249" lon="3.48422">
        <ele>52.5</ele>
        <time>2018-09-25T19:10:51.819Z</time>
      </trkpt>
      <trkpt lat="43.48252" lon="3.48425">
        <ele>52.8</ele>
        <time>2018-09-25T19:10:52.819Z</time>
      </trkpt>
      <trkpt lat="43.48254" lon="3.48429">
        <ele>53</ele>
        <time>2018-09-25T19:10:53.819Z</time>
      </trkpt>
      <trkpt lat="43.48256" lon="3.48432">
        <ele>53.2</ele>
        <time>2018-09-25T19:10:54.819Z</time>
      </trkpt>
      <trkpt lat="43.48259" lon="3.48435">
        <ele>53.3</ele>
        <time>2018-09-25T19:10:55.819Z</time>
      </trkpt>
      <trkpt lat="43.48262" lon="3.48437">
        <ele>53.5</ele>
        <time>2018-09-25T19:10:56.819Z</time>
      </trkpt>
      <trkpt lat="43.48265" lon="3.4844">
        <ele>53.6</ele>
        <time>2018-09-25T19:10:57.819Z</time>
      </trkpt>
      <trkpt lat="43.48268" lon="3.48443">
        <ele>53.8</ele>
        <time>2018-09-25T19:10:58.819Z</time>
      </trkpt>
      <trkpt lat="43.4827" lon="3.48445">
        <ele>53.9</ele>
        <time>2018-09-25T19:10:59.819Z</time>
      </trkpt>
      <trkpt lat="43.48273" lon="3.48447">
        <ele>54</ele>
        <time>2018-09-25T19:11:00.819Z</time>
      </trkpt>
      <trkpt lat="43.48276" lon="3.4845">
        <ele>54.1</ele>
        <time>2018-09-25T19:11:01.819Z</time>
      </trkpt>
      <trkpt lat="43.48278" lon="3.48453">
        <ele>54.2</ele>
        <time>2018-09-25T19:11:02.819Z</time>
      </trkpt>
      <trkpt lat="43.4828" lon="3.48456">
        <ele>54.3</ele>
        <time>2018-09-25T19:11:03.819Z</time>
      </trkpt>
      <trkpt lat="43.48283" lon="3.48458">
        <ele>54.4</ele>
        <time>2018-09-25T19:11:04.819Z</time>
      </trkpt>
      <trkpt lat="43.48286" lon="3.4846">
        <ele>54.5</ele>
        <time>2018-09-25T19:11:05.819Z</time>
      </trkpt>
      <trkpt lat="43.48289" lon="3.48463">
        <ele>54.5</ele>
        <time>2018-09-25T19:11:06.819Z</time>
      </trkpt>
      <trkpt lat="43.48292" lon="3.48467">
        <ele>54.6</ele>
        <time>2018-09-25T19:11:07.819Z</time>
      </trkpt>
      <trkpt lat="43.48295" lon="3.48469">
        <ele>54.7</ele>
        <time>2018-09-25T19:11:08.819Z</time>
      </trkpt>
      <trkpt lat="43.48298" lon="3.48472">
        <ele>54.8</ele>
        <time>2018-09-25T19:11:09.819Z</time>
      </trkpt>
      <trkpt lat="43.48301" lon="3.48476">
        <ele>54.8</ele>
        <time>2018-09-25T19:11:10.819Z</time>
      </trkpt>
      <trkpt lat="43.48304" lon="3.48479">
        <ele>54.9</ele>
        <time>2018-09-25T19:11:11.819Z</time>
      </trkpt>
      <trkpt lat="43.48307" lon="3.48482">
        <ele>55</ele>
        <time>2018-09-25T19:11:12.819Z</time>
      </trkpt>
      <trkpt lat="43.4831" lon="3.48485">
        <ele>55</ele>
        <time>2018-09-25T19:11:13.819Z</time>
      </trkpt>
      <trkpt lat="43.48313" lon="3.48488">
        <ele>55</ele>
        <time>2018-09-25T19:11:14.819Z</time>
      </trkpt>
      <trkpt lat="43.48316" lon="3.48492">
        <ele>55</ele>
        <time>2018-09-25T19:11:15.819Z</time>
      </trkpt>
      <trkpt lat="43.48319" lon="3.48495">
        <ele>55</ele>
        <time>2018-09-25T19:11:16.819Z</time>
      </trkpt>
      <trkpt lat="43.48322" lon="3.48499">
        <ele>54.9</ele>
        <time>2018-09-25T19:11:17.819Z</time>
      </trkpt>
      <trkpt lat="43.48325" lon="3.48502">
        <ele>54.8</ele>
        <time>2018-09-25T19:11:18.819Z</time>
      </trkpt>
      <trkpt lat="43.48328" lon="3.48505">
        <ele>54.7</ele>
        <time>2018-09-25T19:11:19.819Z</time>
      </trkpt>
      <trkpt lat="43.48331" lon="3.48508">
        <ele>54.6</ele>
        <time>2018-09-25T19:11:20.819Z</time>
      </trkpt>
      <trkpt lat="43.48334" lon="3.48511">
        <ele>54.5</ele>
        <time>2018-09-25T19:11:21.819Z</time>
      </trkpt>
      <trkpt lat="43.48336" lon="3.48513">
        <ele>54.5</ele>
        <time>2018-09-25T19:11:22.819Z</time>
      </trkpt>
      <trkpt lat="43.48339" lon="3.48516">
        <ele>54.4</ele>
        <time>2018-09-25T19:11:23.819Z</time>
      </trkpt>
      <trkpt lat="43.48342" lon="3.48518">
        <ele>54.3</ele>
        <time>2018-09-25T19:11:24.819Z</time>
      </trkpt>
      <trkpt lat="43.48345" lon="3.48521">
        <ele>54.2</ele>
        <time>2018-09-25T19:11:25.819Z</time>
      </trkpt>
      <trkpt lat="43.48349" lon="3.48524">
        <ele>54.1</ele>
        <time>2018-09-25T19:11:26.819Z</time>
      </trkpt>
      <trkpt lat="43.48352" lon="3.48527">
        <ele>54</ele>
        <time>2018-09-25T19:11:27.819Z</time>
      </trkpt>
      <trkpt lat="43.48355" lon="3.4853">
        <ele>54</ele>
        <time>2018-09-25T19:11:28.819Z</time>
      </trkpt>
      <trkpt lat="43.48358" lon="3.48533">
        <ele>53.9</ele>
        <time>2018-09-25T19:11:29.819Z</time>
      </trkpt>
      <trkpt lat="43.48361" lon="3.48537">
        <ele>53.8</ele>
        <time>2018-09-25T19:11:30.819Z</time>
      </trkpt>
      <trkpt lat="43.48363" lon="3.48539">
        <ele>53.8</ele>
        <time>2018-09-25T19:11:31.819Z</time>
      </trkpt>
      <trkpt lat="43.48365" lon="3.48541">
        <ele>53.7</ele>
        <time>2018-09-25T19:11:32.819Z</time>
      </trkpt>
      <trkpt lat="43.48368" lon="3.48544">
        <ele>53.7</ele>
        <time>2018-09-25T19:11:33.819Z</time>
      </trkpt>
      <trkpt lat="43.4837" lon="3.48547">
        <ele>53.6</ele>
        <time>2018-09-25T19:11:34.819Z</time>
      </trkpt>
      <trkpt lat="43.48373" lon="3.4855">
        <ele>53.6</ele>
        <time>2018-09-25T19:11:35.819Z</time>
      </trkpt>
      <trkpt lat="43.48375" lon="3.48553">
        <ele>53.5</ele>
        <time>2018-09-25T19:11:36.819Z</time>
      </trkpt>
      <trkpt lat="43.48378" lon="3.48556">
        <ele>53.5</ele>
        <time>2018-09-25T19:11:37.819Z</time>
      </trkpt>
      <trkpt lat="43.4838" lon="3.48559">
        <ele>53.4</ele>
        <time>2018-09-25T19:11:38.819Z</time>
      </trkpt>
      <trkpt lat="43.48383" lon="3.48561">
        <ele>53.4</ele>
        <time>2018-09-25T19:11:39.819Z</time>
      </trkpt>
      <trkpt lat="43.48385" lon="3.48564">
        <ele>53.3</ele>
        <time>2018-09-25T19:11:40.819Z</time>
      </trkpt>
      <trkpt lat="43.48388" lon="3.48568">
        <ele>53.3</ele>
        <time>2018-09-25T19:11:41.819Z</time>
      </trkpt>
      <trkpt lat="43.48391" lon="3.48571">
        <ele>53.2</ele>
        <time>2018-09-25T19:11:42.819Z</time>
      </trkpt>
      <trkpt lat="43.48393" lon="3.48574">
        <ele>53.1</ele>
        <time>2018-09-25T19:11:43.819Z</time>
      </trkpt>
      <trkpt lat="43.48396" lon="3.48577">
        <ele>52.9</ele>
        <time>2018-09-25T19:11:44.819Z</time>
      </trkpt>
      <trkpt lat="43.48398" lon="3.4858">
        <ele>52.8</ele>
        <time>2018-09-25T19:11:45.819Z</time>
      </trkpt>
      <trkpt lat="43.48401" lon="3.48583">
        <ele>52.7</ele>
        <time>2018-09-25T19:11:46.819Z</time>
      </trkpt>
      <trkpt lat="43.48404" lon="3.48586">
        <ele>52.5</ele>
        <time>2018-09-25T19:11:47.819Z</time>
      </trkpt>
      <trkpt lat="43.48406" lon="3.48588">
        <ele>52.4</ele>
        <time>2018-09-25T19:11:48.819Z</time>
      </trkpt>
      <trkpt lat="43.48409" lon="3.48591">
        <ele>52.2</ele>
        <time>2018-09-25T19:11:49.819Z</time>
      </trkpt>
      <trkpt lat="43.48412" lon="3.48594">
        <ele>52.1</ele>
        <time>2018-09-25T19:11:50.819Z</time>
      </trkpt>
      <trkpt lat="43.48414" lon="3.48597">
        <ele>51.8</ele>
        <time>2018-09-25T19:11:51.819Z</time>
      </trkpt>
      <trkpt lat="43.48417" lon="3.48599">
        <ele>51.6</ele>
        <time>2018-09-25T19:11:52.819Z</time>
      </trkpt>
      <trkpt lat="43.4842" lon="3.48602">
        <ele>51.3</ele>
        <time>2018-09-25T19:11:53.819Z</time>
      </trkpt>
      <trkpt lat="43.48423" lon="3.48605">
        <ele>51</ele>
        <time>2018-09-25T19:11:54.819Z</time>
      </trkpt>
      <trkpt lat="43.48426" lon="3.48609">
        <ele>50.7</ele>
        <time>2018-09-25T19:11:55.819Z</time>
      </trkpt>
      <trkpt lat="43.48429" lon="3.48612">
        <ele>50.5</ele>
        <time>2018-09-25T19:11:56.819Z</time>
      </trkpt>
      <trkpt lat="43.48431" lon="3.48615">
        <ele>50.2</ele>
        <time>2018-09-25T19:11:57.819Z</time>
      </trkpt>
      <trkpt lat="43.48434" lon="3.48618">
        <ele>50</ele>
        <time>2018-09-25T19:11:58.819Z</time>
      </trkpt>
      <trkpt lat="43.48436" lon="3.48621">
        <ele>50</ele>
        <time>2018-09-25T19:11:59.819Z</time>
      </trkpt>
      <trkpt lat="43.48438" lon="3.48624">
        <ele>50</ele>
        <time>2018-09-25T19:12:00.819Z</time>
      </trkpt>
      <trkpt lat="43.48441" lon="3.48628">
        <ele>50</ele>
        <time>2018-09-25T19:12:01.819Z</time>
      </trkpt>
      <trkpt lat="43.48443" lon="3.48631">
        <ele>50</ele>
        <time>2018-09-25T19:12:02.819Z</time>
      </trkpt>
      <trkpt lat="43.48445" lon="3.48635">
        <ele>50.1</ele>
        <time>2018-09-25T19:12:03.819Z</time>
      </trkpt>
      <trkpt lat="43.48448" lon="3.48638">
        <ele>50.2</ele>
        <time>2018-09-25T19:12:04.819Z</time>
      </trkpt>
      <trkpt lat="43.4845" lon="3.48642">
        <ele>50.3</ele>
        <time>2018-09-25T19:12:05.819Z</time>
      </trkpt>
      <trkpt lat="43.48453" lon="3.48646">
        <ele>50.4</ele>
        <time>2018-09-25T19:12:06.819Z</time>
      </trkpt>
      <trkpt lat="43.48455" lon="3.48649">
        <ele>50.5</ele>
        <time>2018-09-25T19:12:07.819Z</time>
      </trkpt>
      <trkpt lat="43.48458" lon="3.48653">
        <ele>50.6</ele>
        <time>2018-09-25T19:12:08.819Z</time>
      </trkpt>
      <trkpt lat="43.48461" lon="3.48657">
        <ele>50.7</ele>
        <time>2018-09-25T19:12:09.819Z</time>
      </trkpt>
      <trkpt lat="43.48463" lon="3.48662">
        <ele>50.8</ele>
        <time>2018-09-25T19:12:10.819Z</time>
      </trkpt>
      <trkpt lat="43.48466" lon="3.48666">
        <ele>50.9</ele>
        <time>2018-09-25T19:12:11.819Z</time>
      </trkpt>
      <trkpt lat="43.48468" lon="3.4867">
        <ele>51</ele>
        <time>2018-09-25T19:12:12.819Z</time>
      </trkpt>
      <trkpt lat="43.48471" lon="3.48675">
        <ele>51.2</ele>
        <time>2018-09-25T19:12:13.819Z</time>
      </trkpt>
      <trkpt lat="43.48473" lon="3.48679">
        <ele>51.3</ele>
        <time>2018-09-25T19:12:14.819Z</time>
      </trkpt>
      <trkpt lat="43.48476" lon="3.48684">
        <ele>51.4</ele>
        <time>2018-09-25T19:12:15.819Z</time>
      </trkpt>
      <trkpt lat="43.48478" lon="3.48688">
        <ele>51.5</ele>
        <time>2018-09-25T19:12:16.819Z</time>
      </trkpt>
      <trkpt lat="43.48481" lon="3.48692">
        <ele>51.6</ele>
        <time>2018-09-25T19:12:17.819Z</time>
      </trkpt>
      <trkpt lat="43.48483" lon="3.48696">
        <ele>51.7</ele>
        <time>2018-09-25T19:12:18.819Z</time>
      </trkpt>
      <trkpt lat="43.48486" lon="3.487">
        <ele>51.9</ele>
        <time>2018-09-25T19:12:19.819Z</time>
      </trkpt>
      <trkpt lat="43.48488" lon="3.48704">
        <ele>52</ele>
        <time>2018-09-25T19:12:20.819Z</time>
      </trkpt>
      <trkpt lat="43.48491" lon="3.48708">
        <ele>52.1</ele>
        <time>2018-09-25T19:12:21.819Z</time>
      </trkpt>
      <trkpt lat="43.48493" lon="3.48712">
        <ele>52.2</ele>
        <time>2018-09-25T19:12:22.819Z</time>
      </trkpt>
      <trkpt lat="43.48495" lon="3.48715">
        <ele>52.3</ele>
        <time>2018-09-25T19:12:23.819Z</time>
      </trkpt>
      <trkpt lat="43.48498" lon="3.48719">
        <ele>52.5</ele>
        <time>2018-09-25T19:12:24.819Z</time>
      </trkpt>
      <trkpt lat="43.48501" lon="3.48723">
        <ele>52.6</ele>
        <time>2018-09-25T19:12:25.819Z</time>
      </trkpt>
      <trkpt lat="43.48503" lon="3.48726">
        <ele>52.8</ele>
        <time>2018-09-25T19:12:26.819Z</time>
      </trkpt>
      <trkpt lat="43.48506" lon="3.4873">
        <ele>52.9</ele>
        <time>2018-09-25T19:12:27.819Z</time>
      </trkpt>
      <trkpt lat="43.48508" lon="3.48733">
        <ele>53</ele>
        <time>2018-09-25T19:12:28.819Z</time>
      </trkpt>
      <trkpt lat="43.4851" lon="3.48736">
        <ele>53.1</ele>
        <time>2018-09-25T19:12:29.819Z</time>
      </trkpt>
      <trkpt lat="43.48512" lon="3.4874">
        <ele>53.3</ele>
        <time>2018-09-25T19:12:30.819Z</time>
      </trkpt>
      <trkpt lat="43.48514" lon="3.48744">
        <ele>53.4</ele>
        <time>2018-09-25T19:12:31.819Z</time>
      </trkpt>
      <trkpt lat="43.48516" lon="3.48747">
        <ele>53.5</ele>
        <time>2018-09-25T19:12:32.819Z</time>
      </trkpt>
      <trkpt lat="43.48519" lon="3.48751">
        <ele>53.7</ele>
        <time>2018-09-25T19:12:33.819Z</time>
      </trkpt>
      <trkpt lat="43.48521" lon="3.48755">
        <ele>53.8</ele>
        <time>2018-09-25T19:12:34.819Z</time>
      </trkpt>
      <trkpt lat="43.48523" lon="3.48759">
        <ele>54</ele>
        <time>2018-09-25T19:12:35.819Z</time>
      </trkpt>
      <trkpt lat="43.48526" lon="3.48763">
        <ele>54.1</ele>
        <time>2018-09-25T19:12:36.819Z</time>
      </trkpt>
      <trkpt lat="43.48528" lon="3.48767">
        <ele>54.2</ele>
        <time>2018-09-25T19:12:37.819Z</time>
      </trkpt>
      <trkpt lat="43.4853" lon="3.48771">
        <ele>54.3</ele>
        <time>2018-09-25T19:12:38.819Z</time>
      </trkpt>
      <trkpt lat="43.48533" lon="3.48775">
        <ele>54.4</ele>
        <time>2018-09-25T19:12:39.819Z</time>
      </trkpt>
      <trkpt lat="43.48535" lon="3.48779">
        <ele>54.4</ele>
        <time>2018-09-25T19:12:40.819Z</time>
      </trkpt>
      <trkpt lat="43.48539" lon="3.48783">
        <ele>54.5</ele>
        <time>2018-09-25T19:12:41.819Z</time>
      </trkpt>
      <trkpt lat="43.48542" lon="3.48788">
        <ele>54.6</ele>
        <time>2018-09-25T19:12:42.819Z</time>
      </trkpt>
      <trkpt lat="43.48544" lon="3.48791">
        <ele>54.6</ele>
        <time>2018-09-25T19:12:43.819Z</time>
      </trkpt>
      <trkpt lat="43.48547" lon="3.48796">
        <ele>54.6</ele>
        <time>2018-09-25T19:12:44.819Z</time>
      </trkpt>
      <trkpt lat="43.4855" lon="3.488">
        <ele>54.6</ele>
        <time>2018-09-25T19:12:45.819Z</time>
      </trkpt>
      <trkpt lat="43.48553" lon="3.48805">
        <ele>54.5</ele>
        <time>2018-09-25T19:12:46.819Z</time>
      </trkpt>
      <trkpt lat="43.48555" lon="3.48809">
        <ele>54.5</ele>
        <time>2018-09-25T19:12:47.819Z</time>
      </trkpt>
      <trkpt lat="43.48557" lon="3.48813">
        <ele>54.4</ele>
        <time>2018-09-25T19:12:48.819Z</time>
      </trkpt>
      <trkpt lat="43.4856" lon="3.48817">
        <ele>54.3</ele>
        <time>2018-09-25T19:12:49.819Z</time>
      </trkpt>
      <trkpt lat="43.48562" lon="3.48821">
        <ele>54.3</ele>
        <time>2018-09-25T19:12:50.819Z</time>
      </trkpt>
      <trkpt lat="43.48564" lon="3.48824">
        <ele>54.2</ele>
        <time>2018-09-25T19:12:51.819Z</time>
      </trkpt>
      <trkpt lat="43.48566" lon="3.48828">
        <ele>54.1</ele>
        <time>2018-09-25T19:12:52.819Z</time>
      </trkpt>
      <trkpt lat="43.48568" lon="3.48831">
        <ele>54</ele>
        <time>2018-09-25T19:12:53.819Z</time>
      </trkpt>
      <trkpt lat="43.48571" lon="3.48835">
        <ele>54</ele>
        <time>2018-09-25T19:12:54.819Z</time>
      </trkpt>
      <trkpt lat="43.48573" lon="3.48838">
        <ele>54</ele>
        <time>2018-09-25T19:12:55.819Z</time>
      </trkpt>
      <trkpt lat="43.48575" lon="3.4884">
        <ele>54</ele>
        <time>2018-09-25T19:12:56.819Z</time>
      </trkpt>
      <trkpt lat="43.48578" lon="3.48843">
        <ele>54</ele>
        <time>2018-09-25T19:12:57.819Z</time>
      </trkpt>
      <trkpt lat="43.4858" lon="3.48846">
        <ele>54</ele>
        <time>2018-09-25T19:12:58.819Z</time>
      </trkpt>
      <trkpt lat="43.48583" lon="3.48848">
        <ele>54</ele>
        <time>2018-09-25T19:12:59.819Z</time>
      </trkpt>
      <trkpt lat="43.48586" lon="3.48851">
        <ele>54</ele>
        <time>2018-09-25T19:13:01.819Z</time>
      </trkpt>
      <trkpt lat="43.48588" lon="3.48855">
        <ele>54</ele>
        <time>2018-09-25T19:13:04.819Z</time>
      </trkpt>
      <trkpt lat="43.48588" lon="3.48859">
        <ele>54</ele>
        <time>2018-09-25T19:13:06.819Z</time>
      </trkpt>
      <trkpt lat="43.48587" lon="3.48866">
        <ele>54</ele>
        <time>2018-09-25T19:13:08.819Z</time>
      </trkpt>
      <trkpt lat="43.48587" lon="3.48872">
        <ele>54</ele>
        <time>2018-09-25T19:13:10.819Z</time>
      </trkpt>
      <trkpt lat="43.48588" lon="3.48879">
        <ele>54.1</ele>
        <time>2018-09-25T19:13:12.819Z</time>
      </trkpt>
      <trkpt lat="43.4859" lon="3.48884">
        <ele>54.1</ele>
        <time>2018-09-25T19:13:14.819Z</time>
      </trkpt>
      <trkpt lat="43.48592" lon="3.4889">
        <ele>54.1</ele>
        <time>2018-09-25T19:13:16.819Z</time>
      </trkpt>
      <trkpt lat="43.48594" lon="3.48896">
        <ele>54.2</ele>
        <time>2018-09-25T19:13:18.819Z</time>
      </trkpt>
      <trkpt lat="43.48595" lon="3.48902">
        <ele>54.2</ele>
        <time>2018-09-25T19:13:20.819Z</time>
      </trkpt>
      <trkpt lat="43.48597" lon="3.48909">
        <ele>54.3</ele>
        <time>2018-09-25T19:13:22.819Z</time>
      </trkpt>
      <trkpt lat="43.48597" lon="3.48913">
        <ele>54.3</ele>
        <time>2018-09-25T19:13:23.819Z</time>
      </trkpt>
      <trkpt lat="43.48598" lon="3.48917">
        <ele>54.2</ele>
        <time>2018-09-25T19:13:24.819Z</time>
      </trkpt>
      <trkpt lat="43.48599" lon="3.48921">
        <ele>54.2</ele>
        <time>2018-09-25T19:13:25.819Z</time>
      </trkpt>
      <trkpt lat="43.48599" lon="3.48926">
        <ele>54.2</ele>
        <time>2018-09-25T19:13:26.819Z</time>
      </trkpt>
      <trkpt lat="43.486" lon="3.4893">
        <ele>54.3</ele>
        <time>2018-09-25T19:13:27.819Z</time>
      </trkpt>
      <trkpt lat="43.48601" lon="3.48934">
        <ele>54.2</ele>
        <time>2018-09-25T19:13:28.819Z</time>
      </trkpt>
      <trkpt lat="43.48601" lon="3.48938">
        <ele>54.2</ele>
        <time>2018-09-25T19:13:29.819Z</time>
      </trkpt>
      <trkpt lat="43.48602" lon="3.48942">
        <ele>54.2</ele>
        <time>2018-09-25T19:13:30.819Z</time>
      </trkpt>
      <trkpt lat="43.48604" lon="3.48946">
        <ele>54.2</ele>
        <time>2018-09-25T19:13:31.819Z</time>
      </trkpt>
      <trkpt lat="43.48605" lon="3.48951">
        <ele>54.1</ele>
        <time>2018-09-25T19:13:32.819Z</time>
      </trkpt>
      <trkpt lat="43.48606" lon="3.48956">
        <ele>54.2</ele>
        <time>2018-09-25T19:13:33.819Z</time>
      </trkpt>
      <trkpt lat="43.48609" lon="3.48961">
        <ele>54</ele>
        <time>2018-09-25T19:13:34.819Z</time>
      </trkpt>
      <trkpt lat="43.4861" lon="3.48966">
        <ele>54</ele>
        <time>2018-09-25T19:13:35.819Z</time>
      </trkpt>
      <trkpt lat="43.48613" lon="3.48971">
        <ele>53.8</ele>
        <time>2018-09-25T19:13:36.819Z</time>
      </trkpt>
      <trkpt lat="43.48615" lon="3.48977">
        <ele>53.6</ele>
        <time>2018-09-25T19:13:37.819Z</time>
      </trkpt>
      <trkpt lat="43.48617" lon="3.48983">
        <ele>53.6</ele>
        <time>2018-09-25T19:13:38.819Z</time>
      </trkpt>
      <trkpt lat="43.48619" lon="3.48989">
        <ele>53.3</ele>
        <time>2018-09-25T19:13:39.819Z</time>
      </trkpt>
      <trkpt lat="43.48621" lon="3.48995">
        <ele>53.1</ele>
        <time>2018-09-25T19:13:40.819Z</time>
      </trkpt>
      <trkpt lat="43.48622" lon="3.49001">
        <ele>52.9</ele>
        <time>2018-09-25T19:13:41.819Z</time>
      </trkpt>
      <trkpt lat="43.48623" lon="3.49007">
        <ele>52.7</ele>
        <time>2018-09-25T19:13:42.819Z</time>
      </trkpt>
      <trkpt lat="43.48625" lon="3.49013">
        <ele>52.7</ele>
        <time>2018-09-25T19:13:43.819Z</time>
      </trkpt>
      <trkpt lat="43.48626" lon="3.49019">
        <ele>52.4</ele>
        <time>2018-09-25T19:13:44.819Z</time>
      </trkpt>
      <trkpt lat="43.48627" lon="3.49025">
        <ele>52.3</ele>
        <time>2018-09-25T19:13:45.819Z</time>
      </trkpt>
      <trkpt lat="43.48627" lon="3.49031">
        <ele>52.2</ele>
        <time>2018-09-25T19:13:47.819Z</time>
      </trkpt>
      <trkpt lat="43.48627" lon="3.49035">
        <ele>52.2</ele>
        <time>2018-09-25T19:13:49.819Z</time>
      </trkpt>
      <trkpt lat="43.48626" lon="3.49038">
        <ele>52.2</ele>
        <time>2018-09-25T19:13:52.819Z</time>
      </trkpt>
      <trkpt lat="43.48627" lon="3.49044">
        <ele>52.2</ele>
        <time>2018-09-25T19:13:54.819Z</time>
      </trkpt>
      <trkpt lat="43.48627" lon="3.49051">
        <ele>52.2</ele>
        <time>2018-09-25T19:13:56.819Z</time>
      </trkpt>
      <trkpt lat="43.48627" lon="3.49056">
        <ele>52.3</ele>
        <time>2018-09-25T19:13:57.819Z</time>
      </trkpt>
      <trkpt lat="43.48626" lon="3.4906">
        <ele>52.3</ele>
        <time>2018-09-25T19:13:58.819Z</time>
      </trkpt>
      <trkpt lat="43.48625" lon="3.49066">
        <ele>52.4</ele>
        <time>2018-09-25T19:14:00.819Z</time>
      </trkpt>
      <trkpt lat="43.48625" lon="3.49069">
        <ele>52.5</ele>
        <time>2018-09-25T19:14:02.819Z</time>
      </trkpt>
      <trkpt lat="43.48626" lon="3.49073">
        <ele>52.5</ele>
        <time>2018-09-25T19:14:22.819Z</time>
      </trkpt>
      <trkpt lat="43.48627" lon="3.49076">
        <ele>52.6</ele>
        <time>2018-09-25T19:14:52.819Z</time>
      </trkpt>
      <trkpt lat="43.48626" lon="3.4908">
        <ele>52.6</ele>
        <time>2018-09-25T19:15:05.819Z</time>
      </trkpt>
      <trkpt lat="43.48624" lon="3.49085">
        <ele>52.8</ele>
        <time>2018-09-25T19:15:08.819Z</time>
      </trkpt>
      <trkpt lat="43.48622" lon="3.49089">
        <ele>52.8</ele>
        <time>2018-09-25T19:15:12.819Z</time>
      </trkpt>
      <trkpt lat="43.48621" lon="3.49092">
        <ele>53</ele>
        <time>2018-09-25T19:15:14.819Z</time>
      </trkpt>
      <trkpt lat="43.48619" lon="3.49096">
        <ele>53.1</ele>
        <time>2018-09-25T19:15:17.819Z</time>
      </trkpt>
      <trkpt lat="43.48616" lon="3.49097">
        <ele>53.3</ele>
        <time>2018-09-25T19:15:22.819Z</time>
      </trkpt>
      <trkpt lat="43.48613" lon="3.491">
        <ele>53.5</ele>
        <time>2018-09-25T19:15:24.819Z</time>
      </trkpt>
      <trkpt lat="43.48609" lon="3.49104">
        <ele>53.9</ele>
        <time>2018-09-25T19:15:26.819Z</time>
      </trkpt>
      <trkpt lat="43.48605" lon="3.49109">
        <ele>54.4</ele>
        <time>2018-09-25T19:15:28.819Z</time>
      </trkpt>
      <trkpt lat="43.48602" lon="3.49114">
        <ele>54.8</ele>
        <time>2018-09-25T19:15:30.819Z</time>
      </trkpt>
      <trkpt lat="43.486" lon="3.49117">
        <ele>55</ele>
        <time>2018-09-25T19:15:31.819Z</time>
      </trkpt>
      <trkpt lat="43.48599" lon="3.4912">
        <ele>55.3</ele>
        <time>2018-09-25T19:15:32.819Z</time>
      </trkpt>
      <trkpt lat="43.48597" lon="3.49127">
        <ele>55.6</ele>
        <time>2018-09-25T19:15:34.819Z</time>
      </trkpt>
      <trkpt lat="43.48596" lon="3.49132">
        <ele>56</ele>
        <time>2018-09-25T19:15:36.819Z</time>
      </trkpt>
      <trkpt lat="43.48594" lon="3.49138">
        <ele>56.4</ele>
        <time>2018-09-25T19:15:38.819Z</time>
      </trkpt>
      <trkpt lat="43.48593" lon="3.49144">
        <ele>56.8</ele>
        <time>2018-09-25T19:15:40.819Z</time>
      </trkpt>
      <trkpt lat="43.48593" lon="3.49147">
        <ele>57</ele>
        <time>2018-09-25T19:15:41.819Z</time>
      </trkpt>
      <trkpt lat="43.48592" lon="3.49154">
        <ele>57.2</ele>
        <time>2018-09-25T19:15:43.819Z</time>
      </trkpt>
      <trkpt lat="43.48591" lon="3.4916">
        <ele>57.5</ele>
        <time>2018-09-25T19:15:45.819Z</time>
      </trkpt>
      <trkpt lat="43.4859" lon="3.49166">
        <ele>57.7</ele>
        <time>2018-09-25T19:15:47.819Z</time>
      </trkpt>
      <trkpt lat="43.4859" lon="3.49173">
        <ele>58</ele>
        <time>2018-09-25T19:15:49.819Z</time>
      </trkpt>
      <trkpt lat="43.4859" lon="3.4918">
        <ele>58.5</ele>
        <time>2018-09-25T19:15:51.819Z</time>
      </trkpt>
      <trkpt lat="43.48589" lon="3.49187">
        <ele>58.9</ele>
        <time>2018-09-25T19:15:53.819Z</time>
      </trkpt>
      <trkpt lat="43.48587" lon="3.49192">
        <ele>59.2</ele>
        <time>2018-09-25T19:15:55.819Z</time>
      </trkpt>
      <trkpt lat="43.48586" lon="3.49199">
        <ele>60</ele>
        <time>2018-09-25T19:15:57.819Z</time>
      </trkpt>
      <trkpt lat="43.48585" lon="3.49206">
        <ele>60.2</ele>
        <time>2018-09-25T19:15:59.819Z</time>
      </trkpt>
      <trkpt lat="43.48584" lon="3.4921">
        <ele>60.5</ele>
        <time>2018-09-25T19:16:00.819Z</time>
      </trkpt>
      <trkpt lat="43.48583" lon="3.49214">
        <ele>61</ele>
        <time>2018-09-25T19:16:01.819Z</time>
      </trkpt>
      <trkpt lat="43.48582" lon="3.49217">
        <ele>61.2</ele>
        <time>2018-09-25T19:16:02.819Z</time>
      </trkpt>
      <trkpt lat="43.4858" lon="3.49221">
        <ele>61.8</ele>
        <time>2018-09-25T19:16:03.819Z</time>
      </trkpt>
      <trkpt lat="43.48577" lon="3.49224">
        <ele>62.1</ele>
        <time>2018-09-25T19:16:04.819Z</time>
      </trkpt>
      <trkpt lat="43.48574" lon="3.49226">
        <ele>62.6</ele>
        <time>2018-09-25T19:16:05.819Z</time>
      </trkpt>
      <trkpt lat="43.48573" lon="3.4923">
        <ele>62.8</ele>
        <time>2018-09-25T19:16:06.819Z</time>
      </trkpt>
      <trkpt lat="43.48571" lon="3.49233">
        <ele>63.4</ele>
        <time>2018-09-25T19:16:07.819Z</time>
      </trkpt>
      <trkpt lat="43.48567" lon="3.49237">
        <ele>63.8</ele>
        <time>2018-09-25T19:16:09.819Z</time>
      </trkpt>
      <trkpt lat="43.48563" lon="3.49242">
        <ele>64.3</ele>
        <time>2018-09-25T19:16:11.819Z</time>
      </trkpt>
      <trkpt lat="43.48558" lon="3.49245">
        <ele>65</ele>
        <time>2018-09-25T19:16:13.819Z</time>
      </trkpt>
      <trkpt lat="43.48556" lon="3.49247">
        <ele>65.3</ele>
        <time>2018-09-25T19:16:14.819Z</time>
      </trkpt>
      <trkpt lat="43.48553" lon="3.4925">
        <ele>65.5</ele>
        <time>2018-09-25T19:16:15.819Z</time>
      </trkpt>
      <trkpt lat="43.48551" lon="3.49253">
        <ele>65.8</ele>
        <time>2018-09-25T19:16:16.819Z</time>
      </trkpt>
      <trkpt lat="43.48548" lon="3.49256">
        <ele>66.2</ele>
        <time>2018-09-25T19:16:17.819Z</time>
      </trkpt>
      <trkpt lat="43.48545" lon="3.4926">
        <ele>66.6</ele>
        <time>2018-09-25T19:16:18.819Z</time>
      </trkpt>
      <trkpt lat="43.48543" lon="3.49264">
        <ele>67</ele>
        <time>2018-09-25T19:16:19.819Z</time>
      </trkpt>
      <trkpt lat="43.4854" lon="3.49268">
        <ele>67.5</ele>
        <time>2018-09-25T19:16:20.819Z</time>
      </trkpt>
      <trkpt lat="43.48537" lon="3.49272">
        <ele>67.6</ele>
        <time>2018-09-25T19:16:21.819Z</time>
      </trkpt>
      <trkpt lat="43.48536" lon="3.49277">
        <ele>68.1</ele>
        <time>2018-09-25T19:16:22.819Z</time>
      </trkpt>
      <trkpt lat="43.48534" lon="3.49281">
        <ele>68.6</ele>
        <time>2018-09-25T19:16:23.819Z</time>
      </trkpt>
      <trkpt lat="43.48532" lon="3.49286">
        <ele>68.8</ele>
        <time>2018-09-25T19:16:24.819Z</time>
      </trkpt>
      <trkpt lat="43.4853" lon="3.49291">
        <ele>69.3</ele>
        <time>2018-09-25T19:16:25.819Z</time>
      </trkpt>
      <trkpt lat="43.48528" lon="3.49296">
        <ele>69.9</ele>
        <time>2018-09-25T19:16:26.819Z</time>
      </trkpt>
      <trkpt lat="43.48526" lon="3.493">
        <ele>70.1</ele>
        <time>2018-09-25T19:16:27.819Z</time>
      </trkpt>
      <trkpt lat="43.48524" lon="3.49304">
        <ele>70.6</ele>
        <time>2018-09-25T19:16:28.819Z</time>
      </trkpt>
      <trkpt lat="43.48522" lon="3.49308">
        <ele>70.8</ele>
        <time>2018-09-25T19:16:29.819Z</time>
      </trkpt>
      <trkpt lat="43.4852" lon="3.49312">
        <ele>71.3</ele>
        <time>2018-09-25T19:16:30.819Z</time>
      </trkpt>
      <trkpt lat="43.48519" lon="3.49316">
        <ele>71.5</ele>
        <time>2018-09-25T19:16:31.819Z</time>
      </trkpt>
      <trkpt lat="43.48517" lon="3.4932">
        <ele>71.9</ele>
        <time>2018-09-25T19:16:32.819Z</time>
      </trkpt>
      <trkpt lat="43.48516" lon="3.49324">
        <ele>72.1</ele>
        <time>2018-09-25T19:16:33.819Z</time>
      </trkpt>
      <trkpt lat="43.48515" lon="3.49327">
        <ele>72.5</ele>
        <time>2018-09-25T19:16:34.819Z</time>
      </trkpt>
      <trkpt lat="43.48514" lon="3.49331">
        <ele>72.6</ele>
        <time>2018-09-25T19:16:35.819Z</time>
      </trkpt>
      <trkpt lat="43.48513" lon="3.49335">
        <ele>72.6</ele>
        <time>2018-09-25T19:16:36.819Z</time>
      </trkpt>
      <trkpt lat="43.48512" lon="3.49339">
        <ele>72.9</ele>
        <time>2018-09-25T19:16:37.819Z</time>
      </trkpt>
      <trkpt lat="43.4851" lon="3.49345">
        <ele>73.1</ele>
        <time>2018-09-25T19:16:39.819Z</time>
      </trkpt>
      <trkpt lat="43.48508" lon="3.49349">
        <ele>73.4</ele>
        <time>2018-09-25T19:16:40.819Z</time>
      </trkpt>
      <trkpt lat="43.48506" lon="3.49353">
        <ele>73.8</ele>
        <time>2018-09-25T19:16:41.819Z</time>
      </trkpt>
      <trkpt lat="43.48504" lon="3.49356">
        <ele>73.8</ele>
        <time>2018-09-25T19:16:42.819Z</time>
      </trkpt>
      <trkpt lat="43.48502" lon="3.49359">
        <ele>74.2</ele>
        <time>2018-09-25T19:16:43.819Z</time>
      </trkpt>
      <trkpt lat="43.48499" lon="3.49362">
        <ele>74.6</ele>
        <time>2018-09-25T19:16:44.819Z</time>
      </trkpt>
      <trkpt lat="43.48497" lon="3.49366">
        <ele>74.6</ele>
        <time>2018-09-25T19:16:45.819Z</time>
      </trkpt>
      <trkpt lat="43.48495" lon="3.4937">
        <ele>75</ele>
        <time>2018-09-25T19:16:46.819Z</time>
      </trkpt>
      <trkpt lat="43.48493" lon="3.49373">
        <ele>75.3</ele>
        <time>2018-09-25T19:16:47.819Z</time>
      </trkpt>
      <trkpt lat="43.48491" lon="3.49376">
        <ele>75.3</ele>
        <time>2018-09-25T19:16:48.819Z</time>
      </trkpt>
      <trkpt lat="43.48489" lon="3.49379">
        <ele>75.7</ele>
        <time>2018-09-25T19:16:49.819Z</time>
      </trkpt>
      <trkpt lat="43.48487" lon="3.49383">
        <ele>76</ele>
        <time>2018-09-25T19:16:50.819Z</time>
      </trkpt>
      <trkpt lat="43.48485" lon="3.49386">
        <ele>76</ele>
        <time>2018-09-25T19:16:51.819Z</time>
      </trkpt>
      <trkpt lat="43.48483" lon="3.49388">
        <ele>76.4</ele>
        <time>2018-09-25T19:16:52.819Z</time>
      </trkpt>
      <trkpt lat="43.4848" lon="3.49391">
        <ele>76.9</ele>
        <time>2018-09-25T19:16:53.819Z</time>
      </trkpt>
      <trkpt lat="43.48476" lon="3.49396">
        <ele>77.4</ele>
        <time>2018-09-25T19:16:55.819Z</time>
      </trkpt>
      <trkpt lat="43.48474" lon="3.494">
        <ele>77.8</ele>
        <time>2018-09-25T19:16:56.819Z</time>
      </trkpt>
      <trkpt lat="43.48472" lon="3.49403">
        <ele>77.8</ele>
        <time>2018-09-25T19:16:57.819Z</time>
      </trkpt>
      <trkpt lat="43.48469" lon="3.49406">
        <ele>78.2</ele>
        <time>2018-09-25T19:16:58.819Z</time>
      </trkpt>
      <trkpt lat="43.48467" lon="3.49409">
        <ele>78.6</ele>
        <time>2018-09-25T19:16:59.819Z</time>
      </trkpt>
      <trkpt lat="43.48466" lon="3.49413">
        <ele>78.6</ele>
        <time>2018-09-25T19:17:00.819Z</time>
      </trkpt>
      <trkpt lat="43.48464" lon="3.49416">
        <ele>79</ele>
        <time>2018-09-25T19:17:01.819Z</time>
      </trkpt>
      <trkpt lat="43.48462" lon="3.49419">
        <ele>79.3</ele>
        <time>2018-09-25T19:17:02.819Z</time>
      </trkpt>
      <trkpt lat="43.48459" lon="3.49422">
        <ele>79.6</ele>
        <time>2018-09-25T19:17:03.819Z</time>
      </trkpt>
      <trkpt lat="43.48457" lon="3.49424">
        <ele>79.6</ele>
        <time>2018-09-25T19:17:04.819Z</time>
      </trkpt>
      <trkpt lat="43.48455" lon="3.49427">
        <ele>79.9</ele>
        <time>2018-09-25T19:17:05.819Z</time>
      </trkpt>
      <trkpt lat="43.48453" lon="3.4943">
        <ele>80.1</ele>
        <time>2018-09-25T19:17:06.819Z</time>
      </trkpt>
      <trkpt lat="43.4845" lon="3.49433">
        <ele>80.1</ele>
        <time>2018-09-25T19:17:07.819Z</time>
      </trkpt>
      <trkpt lat="43.48449" lon="3.49436">
        <ele>80.3</ele>
        <time>2018-09-25T19:17:08.819Z</time>
      </trkpt>
      <trkpt lat="43.48446" lon="3.49442">
        <ele>80.4</ele>
        <time>2018-09-25T19:17:10.819Z</time>
      </trkpt>
      <trkpt lat="43.48444" lon="3.49447">
        <ele>80.5</ele>
        <time>2018-09-25T19:17:12.819Z</time>
      </trkpt>
      <trkpt lat="43.48442" lon="3.49451">
        <ele>80.5</ele>
        <time>2018-09-25T19:17:16.819Z</time>
      </trkpt>
      <trkpt lat="43.48441" lon="3.49454">
        <ele>80.6</ele>
        <time>2018-09-25T19:17:18.819Z</time>
      </trkpt>
      <trkpt lat="43.48444" lon="3.49452">
        <ele>80.3</ele>
        <time>2018-09-25T19:17:41.819Z</time>
      </trkpt>
      <trkpt lat="43.48447" lon="3.49447">
        <ele>80.4</ele>
        <time>2018-09-25T19:17:43.819Z</time>
      </trkpt>
      <trkpt lat="43.48445" lon="3.49443">
        <ele>80.4</ele>
        <time>2018-09-25T19:17:46.819Z</time>
      </trkpt>
      <trkpt lat="43.48447" lon="3.49444">
        <ele>80.3</ele>
        <time>2018-09-25T19:18:20.819Z</time>
      </trkpt>
      <trkpt lat="43.48451" lon="3.49448">
        <ele>80</ele>
        <time>2018-09-25T19:18:22.819Z</time>
      </trkpt>
      <trkpt lat="43.48455" lon="3.49449">
        <ele>79.7</ele>
        <time>2018-09-25T19:18:24.819Z</time>
      </trkpt>
      <trkpt lat="43.48459" lon="3.4945">
        <ele>79.4</ele>
        <time>2018-09-25T19:18:26.819Z</time>
      </trkpt>
      <trkpt lat="43.48462" lon="3.4945">
        <ele>79</ele>
        <time>2018-09-25T19:18:48.819Z</time>
      </trkpt>
      <trkpt lat="43.48465" lon="3.49449">
        <ele>78.5</ele>
        <time>2018-09-25T19:18:58.819Z</time>
      </trkpt>
      <trkpt lat="43.48463" lon="3.49447">
        <ele>78.5</ele>
        <time>2018-09-25T19:19:09.819Z</time>
      </trkpt>
      <trkpt lat="43.4846" lon="3.4945">
        <ele>79</ele>
        <time>2018-09-25T19:20:24.819Z</time>
      </trkpt>
      <trkpt lat="43.48459" lon="3.49454">
        <ele>79.3</ele>
        <time>2018-09-25T19:20:27.819Z</time>
      </trkpt>
      <trkpt lat="43.48461" lon="3.49457">
        <ele>78.7</ele>
        <time>2018-09-25T19:21:03.819Z</time>
      </trkpt>
      <trkpt lat="43.48459" lon="3.49455">
        <ele>79.3</ele>
        <time>2018-09-25T19:21:52.819Z</time>
      </trkpt>
      <trkpt lat="43.48459" lon="3.49452">
        <ele>79.3</ele>
        <time>2018-09-25T19:22:46.819Z</time>
      </trkpt>
      <trkpt lat="43.48461" lon="3.49448">
        <ele>79</ele>
        <time>2018-09-25T19:24:28.819Z</time>
      </trkpt>
      <trkpt lat="43.48462" lon="3.49445">
        <ele>79.1</ele>
        <time>2018-09-25T19:24:32.819Z</time>
      </trkpt>
      <trkpt lat="43.48461" lon="3.49449">
        <ele>79</ele>
        <time>2018-09-25T19:25:11.819Z</time>
      </trkpt>
      <trkpt lat="43.48459" lon="3.49452">
        <ele>79.3</ele>
        <time>2018-09-25T19:26:10.819Z</time>
      </trkpt>
      <trkpt lat="43.48459" lon="3.49456">
        <ele>79.1</ele>
        <time>2018-09-25T19:26:19.819Z</time>
      </trkpt>
      <trkpt lat="43.48457" lon="3.4946">
        <ele>78.9</ele>
        <time>2018-09-25T19:26:47.819Z</time>
      </trkpt>
      <trkpt lat="43.48455" lon="3.49465">
        <ele>79.1</ele>
        <time>2018-09-25T19:27:19.819Z</time>
      </trkpt>
      <trkpt lat="43.48454" lon="3.49469">
        <ele>78.9</ele>
        <time>2018-09-25T19:27:21.819Z</time>
      </trkpt>
      <trkpt lat="43.48452" lon="3.49474">
        <ele>79.1</ele>
        <time>2018-09-25T19:27:23.819Z</time>
      </trkpt>
      <trkpt lat="43.48449" lon="3.49479">
        <ele>79.3</ele>
        <time>2018-09-25T19:27:25.819Z</time>
      </trkpt>
      <trkpt lat="43.48448" lon="3.49482">
        <ele>79.2</ele>
        <time>2018-09-25T19:27:26.819Z</time>
      </trkpt>
      <trkpt lat="43.48444" lon="3.49488">
        <ele>79.4</ele>
        <time>2018-09-25T19:27:28.819Z</time>
      </trkpt>
      <trkpt lat="43.48443" lon="3.49492">
        <ele>79.6</ele>
        <time>2018-09-25T19:27:29.819Z</time>
      </trkpt>
      <trkpt lat="43.48441" lon="3.49495">
        <ele>79.5</ele>
        <time>2018-09-25T19:27:30.819Z</time>
      </trkpt>
      <trkpt lat="43.48438" lon="3.49501">
        <ele>79.8</ele>
        <time>2018-09-25T19:27:32.819Z</time>
      </trkpt>
      <trkpt lat="43.48435" lon="3.49506">
        <ele>80</ele>
        <time>2018-09-25T19:27:34.819Z</time>
      </trkpt>
      <trkpt lat="43.48432" lon="3.49512">
        <ele>80.1</ele>
        <time>2018-09-25T19:27:36.819Z</time>
      </trkpt>
      <trkpt lat="43.4843" lon="3.49515">
        <ele>80.3</ele>
        <time>2018-09-25T19:27:37.819Z</time>
      </trkpt>
      <trkpt lat="43.48428" lon="3.49519">
        <ele>80.5</ele>
        <time>2018-09-25T19:27:38.819Z</time>
      </trkpt>
      <trkpt lat="43.48426" lon="3.49523">
        <ele>80.4</ele>
        <time>2018-09-25T19:27:39.819Z</time>
      </trkpt>
      <trkpt lat="43.48425" lon="3.49527">
        <ele>80.5</ele>
        <time>2018-09-25T19:27:40.819Z</time>
      </trkpt>
      <trkpt lat="43.48423" lon="3.4953">
        <ele>80.5</ele>
        <time>2018-09-25T19:27:41.819Z</time>
      </trkpt>
      <trkpt lat="43.48421" lon="3.49534">
        <ele>80.6</ele>
        <time>2018-09-25T19:27:42.819Z</time>
      </trkpt>
      <trkpt lat="43.48419" lon="3.49537">
        <ele>80.6</ele>
        <time>2018-09-25T19:27:43.819Z</time>
      </trkpt>
      <trkpt lat="43.48418" lon="3.49541">
        <ele>80.8</ele>
        <time>2018-09-25T19:27:44.819Z</time>
      </trkpt>
      <trkpt lat="43.48416" lon="3.49545">
        <ele>80.8</ele>
        <time>2018-09-25T19:27:45.819Z</time>
      </trkpt>
      <trkpt lat="43.48414" lon="3.49548">
        <ele>80.9</ele>
        <time>2018-09-25T19:27:46.819Z</time>
      </trkpt>
      <trkpt lat="43.48412" lon="3.49552">
        <ele>81.1</ele>
        <time>2018-09-25T19:27:47.819Z</time>
      </trkpt>
      <trkpt lat="43.4841" lon="3.49557">
        <ele>81.1</ele>
        <time>2018-09-25T19:27:49.819Z</time>
      </trkpt>
      <trkpt lat="43.48408" lon="3.49563">
        <ele>81.2</ele>
        <time>2018-09-25T19:27:51.819Z</time>
      </trkpt>
      <trkpt lat="43.48406" lon="3.4957">
        <ele>81.4</ele>
        <time>2018-09-25T19:27:53.819Z</time>
      </trkpt>
      <trkpt lat="43.48404" lon="3.49574">
        <ele>81.4</ele>
        <time>2018-09-25T19:27:54.819Z</time>
      </trkpt>
      <trkpt lat="43.48403" lon="3.49578">
        <ele>81.4</ele>
        <time>2018-09-25T19:27:55.819Z</time>
      </trkpt>
      <trkpt lat="43.48402" lon="3.49582">
        <ele>81.5</ele>
        <time>2018-09-25T19:27:56.819Z</time>
      </trkpt>
      <trkpt lat="43.48401" lon="3.49586">
        <ele>81.5</ele>
        <time>2018-09-25T19:27:57.819Z</time>
      </trkpt>
      <trkpt lat="43.484" lon="3.4959">
        <ele>81.6</ele>
        <time>2018-09-25T19:27:58.819Z</time>
      </trkpt>
      <trkpt lat="43.48398" lon="3.49593">
        <ele>81.5</ele>
        <time>2018-09-25T19:27:59.819Z</time>
      </trkpt>
      <trkpt lat="43.48396" lon="3.49598">
        <ele>81.6</ele>
        <time>2018-09-25T19:28:00.819Z</time>
      </trkpt>
      <trkpt lat="43.48395" lon="3.49602">
        <ele>81.5</ele>
        <time>2018-09-25T19:28:01.819Z</time>
      </trkpt>
      <trkpt lat="43.48393" lon="3.49607">
        <ele>81.5</ele>
        <time>2018-09-25T19:28:02.819Z</time>
      </trkpt>
      <trkpt lat="43.48392" lon="3.49612">
        <ele>81.4</ele>
        <time>2018-09-25T19:28:03.819Z</time>
      </trkpt>
      <trkpt lat="43.4839" lon="3.49616">
        <ele>81.4</ele>
        <time>2018-09-25T19:28:04.819Z</time>
      </trkpt>
      <trkpt lat="43.48389" lon="3.49621">
        <ele>81.2</ele>
        <time>2018-09-25T19:28:05.819Z</time>
      </trkpt>
      <trkpt lat="43.48387" lon="3.49625">
        <ele>81.2</ele>
        <time>2018-09-25T19:28:06.819Z</time>
      </trkpt>
      <trkpt lat="43.48386" lon="3.4963">
        <ele>81.1</ele>
        <time>2018-09-25T19:28:07.819Z</time>
      </trkpt>
      <trkpt lat="43.48385" lon="3.49634">
        <ele>81.1</ele>
        <time>2018-09-25T19:28:08.819Z</time>
      </trkpt>
      <trkpt lat="43.48383" lon="3.49639">
        <ele>80.9</ele>
        <time>2018-09-25T19:28:09.819Z</time>
      </trkpt>
      <trkpt lat="43.48382" lon="3.49644">
        <ele>80.9</ele>
        <time>2018-09-25T19:28:10.819Z</time>
      </trkpt>
      <trkpt lat="43.4838" lon="3.49649">
        <ele>80.7</ele>
        <time>2018-09-25T19:28:11.819Z</time>
      </trkpt>
      <trkpt lat="43.48378" lon="3.49654">
        <ele>80.8</ele>
        <time>2018-09-25T19:28:12.819Z</time>
      </trkpt>
      <trkpt lat="43.48376" lon="3.49659">
        <ele>80.7</ele>
        <time>2018-09-25T19:28:13.819Z</time>
      </trkpt>
      <trkpt lat="43.48374" lon="3.49664">
        <ele>80.8</ele>
        <time>2018-09-25T19:28:14.819Z</time>
      </trkpt>
      <trkpt lat="43.48372" lon="3.4967">
        <ele>80.7</ele>
        <time>2018-09-25T19:28:15.819Z</time>
      </trkpt>
      <trkpt lat="43.4837" lon="3.49675">
        <ele>80.6</ele>
        <time>2018-09-25T19:28:16.819Z</time>
      </trkpt>
      <trkpt lat="43.48368" lon="3.4968">
        <ele>80.7</ele>
        <time>2018-09-25T19:28:17.819Z</time>
      </trkpt>
      <trkpt lat="43.48366" lon="3.49685">
        <ele>80.6</ele>
        <time>2018-09-25T19:28:18.819Z</time>
      </trkpt>
      <trkpt lat="43.48365" lon="3.49691">
        <ele>80.6</ele>
        <time>2018-09-25T19:28:19.819Z</time>
      </trkpt>
      <trkpt lat="43.48363" lon="3.49695">
        <ele>80.6</ele>
        <time>2018-09-25T19:28:20.819Z</time>
      </trkpt>
      <trkpt lat="43.4836" lon="3.49701">
        <ele>80.3</ele>
        <time>2018-09-25T19:28:21.819Z</time>
      </trkpt>
      <trkpt lat="43.48358" lon="3.49706">
        <ele>80.4</ele>
        <time>2018-09-25T19:28:22.819Z</time>
      </trkpt>
      <trkpt lat="43.48355" lon="3.49711">
        <ele>80.5</ele>
        <time>2018-09-25T19:28:23.819Z</time>
      </trkpt>
      <trkpt lat="43.48354" lon="3.49716">
        <ele>80.6</ele>
        <time>2018-09-25T19:28:24.819Z</time>
      </trkpt>
      <trkpt lat="43.48351" lon="3.49721">
        <ele>80.5</ele>
        <time>2018-09-25T19:28:25.819Z</time>
      </trkpt>
      <trkpt lat="43.48349" lon="3.49726">
        <ele>80.5</ele>
        <time>2018-09-25T19:28:26.819Z</time>
      </trkpt>
      <trkpt lat="43.48347" lon="3.49731">
        <ele>80.7</ele>
        <time>2018-09-25T19:28:27.819Z</time>
      </trkpt>
      <trkpt lat="43.48345" lon="3.49736">
        <ele>80.6</ele>
        <time>2018-09-25T19:28:28.819Z</time>
      </trkpt>
      <trkpt lat="43.48343" lon="3.49741">
        <ele>80.7</ele>
        <time>2018-09-25T19:28:29.819Z</time>
      </trkpt>
      <trkpt lat="43.48342" lon="3.49746">
        <ele>80.7</ele>
        <time>2018-09-25T19:28:30.819Z</time>
      </trkpt>
      <trkpt lat="43.48339" lon="3.4975">
        <ele>80.9</ele>
        <time>2018-09-25T19:28:31.819Z</time>
      </trkpt>
      <trkpt lat="43.48338" lon="3.49755">
        <ele>81.1</ele>
        <time>2018-09-25T19:28:32.819Z</time>
      </trkpt>
      <trkpt lat="43.48336" lon="3.4976">
        <ele>81.1</ele>
        <time>2018-09-25T19:28:33.819Z</time>
      </trkpt>
      <trkpt lat="43.48334" lon="3.49764">
        <ele>81.3</ele>
        <time>2018-09-25T19:28:34.819Z</time>
      </trkpt>
      <trkpt lat="43.48332" lon="3.49769">
        <ele>81.2</ele>
        <time>2018-09-25T19:28:35.819Z</time>
      </trkpt>
      <trkpt lat="43.4833" lon="3.49773">
        <ele>81.4</ele>
        <time>2018-09-25T19:28:36.819Z</time>
      </trkpt>
      <trkpt lat="43.48329" lon="3.49777">
        <ele>81.4</ele>
        <time>2018-09-25T19:28:37.819Z</time>
      </trkpt>
      <trkpt lat="43.48327" lon="3.49782">
        <ele>81.6</ele>
        <time>2018-09-25T19:28:38.819Z</time>
      </trkpt>
      <trkpt lat="43.48325" lon="3.49787">
        <ele>81.8</ele>
        <time>2018-09-25T19:28:39.819Z</time>
      </trkpt>
      <trkpt lat="43.48324" lon="3.49791">
        <ele>81.7</ele>
        <time>2018-09-25T19:28:40.819Z</time>
      </trkpt>
      <trkpt lat="43.48322" lon="3.49796">
        <ele>82</ele>
        <time>2018-09-25T19:28:41.819Z</time>
      </trkpt>
      <trkpt lat="43.48321" lon="3.498">
        <ele>81.9</ele>
        <time>2018-09-25T19:28:42.819Z</time>
      </trkpt>
      <trkpt lat="43.48319" lon="3.49805">
        <ele>81.9</ele>
        <time>2018-09-25T19:28:43.819Z</time>
      </trkpt>
      <trkpt lat="43.48318" lon="3.4981">
        <ele>82.1</ele>
        <time>2018-09-25T19:28:44.819Z</time>
      </trkpt>
      <trkpt lat="43.48317" lon="3.49815">
        <ele>82.1</ele>
        <time>2018-09-25T19:28:45.819Z</time>
      </trkpt>
      <trkpt lat="43.48315" lon="3.4982">
        <ele>82.3</ele>
        <time>2018-09-25T19:28:46.819Z</time>
      </trkpt>
      <trkpt lat="43.48314" lon="3.49825">
        <ele>82.3</ele>
        <time>2018-09-25T19:28:47.819Z</time>
      </trkpt>
      <trkpt lat="43.48312" lon="3.4983">
        <ele>82.5</ele>
        <time>2018-09-25T19:28:48.819Z</time>
      </trkpt>
      <trkpt lat="43.48311" lon="3.49835">
        <ele>82.5</ele>
        <time>2018-09-25T19:28:49.819Z</time>
      </trkpt>
      <trkpt lat="43.4831" lon="3.4984">
        <ele>82.7</ele>
        <time>2018-09-25T19:28:50.819Z</time>
      </trkpt>
      <trkpt lat="43.48308" lon="3.49845">
        <ele>82.7</ele>
        <time>2018-09-25T19:28:51.819Z</time>
      </trkpt>
      <trkpt lat="43.48306" lon="3.4985">
        <ele>82.9</ele>
        <time>2018-09-25T19:28:52.819Z</time>
      </trkpt>
      <trkpt lat="43.48305" lon="3.49855">
        <ele>82.8</ele>
        <time>2018-09-25T19:28:53.819Z</time>
      </trkpt>
      <trkpt lat="43.48304" lon="3.4986">
        <ele>82.9</ele>
        <time>2018-09-25T19:28:54.819Z</time>
      </trkpt>
      <trkpt lat="43.48302" lon="3.49865">
        <ele>82.9</ele>
        <time>2018-09-25T19:28:55.819Z</time>
      </trkpt>
      <trkpt lat="43.483" lon="3.49869">
        <ele>83</ele>
        <time>2018-09-25T19:28:56.819Z</time>
      </trkpt>
      <trkpt lat="43.48298" lon="3.49873">
        <ele>82.9</ele>
        <time>2018-09-25T19:28:57.819Z</time>
      </trkpt>
      <trkpt lat="43.48295" lon="3.49877">
        <ele>83</ele>
        <time>2018-09-25T19:28:58.819Z</time>
      </trkpt>
      <trkpt lat="43.48292" lon="3.49881">
        <ele>83.2</ele>
        <time>2018-09-25T19:28:59.819Z</time>
      </trkpt>
      <trkpt lat="43.48289" lon="3.49884">
        <ele>83.3</ele>
        <time>2018-09-25T19:29:00.819Z</time>
      </trkpt>
      <trkpt lat="43.48285" lon="3.49887">
        <ele>83.5</ele>
        <time>2018-09-25T19:29:01.819Z</time>
      </trkpt>
      <trkpt lat="43.48282" lon="3.49891">
        <ele>83.9</ele>
        <time>2018-09-25T19:29:02.819Z</time>
      </trkpt>
      <trkpt lat="43.48279" lon="3.49895">
        <ele>84.1</ele>
        <time>2018-09-25T19:29:03.819Z</time>
      </trkpt>
      <trkpt lat="43.48276" lon="3.499">
        <ele>84.1</ele>
        <time>2018-09-25T19:29:04.819Z</time>
      </trkpt>
      <trkpt lat="43.48274" lon="3.49906">
        <ele>84.3</ele>
        <time>2018-09-25T19:29:05.819Z</time>
      </trkpt>
      <trkpt lat="43.48274" lon="3.49912">
        <ele>84.3</ele>
        <time>2018-09-25T19:29:06.819Z</time>
      </trkpt>
      <trkpt lat="43.48273" lon="3.49919">
        <ele>84.2</ele>
        <time>2018-09-25T19:29:07.819Z</time>
      </trkpt>
      <trkpt lat="43.48272" lon="3.49926">
        <ele>84.4</ele>
        <time>2018-09-25T19:29:08.819Z</time>
      </trkpt>
      <trkpt lat="43.4827" lon="3.49932">
        <ele>84.3</ele>
        <time>2018-09-25T19:29:09.819Z</time>
      </trkpt>
      <trkpt lat="43.48268" lon="3.49938">
        <ele>84.3</ele>
        <time>2018-09-25T19:29:10.819Z</time>
      </trkpt>
      <trkpt lat="43.48267" lon="3.49944">
        <ele>84.3</ele>
        <time>2018-09-25T19:29:11.819Z</time>
      </trkpt>
      <trkpt lat="43.48264" lon="3.49949">
        <ele>84.2</ele>
        <time>2018-09-25T19:29:12.819Z</time>
      </trkpt>
      <trkpt lat="43.48262" lon="3.49955">
        <ele>84.3</ele>
        <time>2018-09-25T19:29:13.819Z</time>
      </trkpt>
      <trkpt lat="43.4826" lon="3.4996">
        <ele>84.4</ele>
        <time>2018-09-25T19:29:14.819Z</time>
      </trkpt>
      <trkpt lat="43.48258" lon="3.49966">
        <ele>84.4</ele>
        <time>2018-09-25T19:29:15.819Z</time>
      </trkpt>
      <trkpt lat="43.48255" lon="3.49972">
        <ele>84.4</ele>
        <time>2018-09-25T19:29:16.819Z</time>
      </trkpt>
      <trkpt lat="43.48253" lon="3.49977">
        <ele>84.5</ele>
        <time>2018-09-25T19:29:17.819Z</time>
      </trkpt>
      <trkpt lat="43.48251" lon="3.49983">
        <ele>84.7</ele>
        <time>2018-09-25T19:29:18.819Z</time>
      </trkpt>
      <trkpt lat="43.48249" lon="3.49988">
        <ele>84.6</ele>
        <time>2018-09-25T19:29:19.819Z</time>
      </trkpt>
      <trkpt lat="43.48247" lon="3.49993">
        <ele>84.8</ele>
        <time>2018-09-25T19:29:20.819Z</time>
      </trkpt>
      <trkpt lat="43.48245" lon="3.49998">
        <ele>84.7</ele>
        <time>2018-09-25T19:29:21.819Z</time>
      </trkpt>
      <trkpt lat="43.48243" lon="3.50002">
        <ele>84.9</ele>
        <time>2018-09-25T19:29:22.819Z</time>
      </trkpt>
      <trkpt lat="43.48242" lon="3.50006">
        <ele>84.9</ele>
        <time>2018-09-25T19:29:23.819Z</time>
      </trkpt>
      <trkpt lat="43.4824" lon="3.5001">
        <ele>85.1</ele>
        <time>2018-09-25T19:29:24.819Z</time>
      </trkpt>
      <trkpt lat="43.48239" lon="3.50014">
        <ele>85</ele>
        <time>2018-09-25T19:29:25.819Z</time>
      </trkpt>
      <trkpt lat="43.48237" lon="3.50019">
        <ele>85.1</ele>
        <time>2018-09-25T19:29:26.819Z</time>
      </trkpt>
      <trkpt lat="43.48235" lon="3.50023">
        <ele>85.2</ele>
        <time>2018-09-25T19:29:27.819Z</time>
      </trkpt>
      <trkpt lat="43.48233" lon="3.50027">
        <ele>85.2</ele>
        <time>2018-09-25T19:29:28.819Z</time>
      </trkpt>
      <trkpt lat="43.48232" lon="3.50031">
        <ele>85.2</ele>
        <time>2018-09-25T19:29:29.819Z</time>
      </trkpt>
      <trkpt lat="43.4823" lon="3.50035">
        <ele>85.1</ele>
        <time>2018-09-25T19:29:30.819Z</time>
      </trkpt>
      <trkpt lat="43.48229" lon="3.50039">
        <ele>85.1</ele>
        <time>2018-09-25T19:29:31.819Z</time>
      </trkpt>
      <trkpt lat="43.48227" lon="3.50044">
        <ele>85.1</ele>
        <time>2018-09-25T19:29:32.819Z</time>
      </trkpt>
      <trkpt lat="43.48226" lon="3.50048">
        <ele>85</ele>
        <time>2018-09-25T19:29:33.819Z</time>
      </trkpt>
      <trkpt lat="43.48225" lon="3.50053">
        <ele>85.1</ele>
        <time>2018-09-25T19:29:34.819Z</time>
      </trkpt>
      <trkpt lat="43.48223" lon="3.50058">
        <ele>85</ele>
        <time>2018-09-25T19:29:35.819Z</time>
      </trkpt>
      <trkpt lat="43.48222" lon="3.50063">
        <ele>85.2</ele>
        <time>2018-09-25T19:29:36.819Z</time>
      </trkpt>
      <trkpt lat="43.4822" lon="3.50068">
        <ele>85.1</ele>
        <time>2018-09-25T19:29:37.819Z</time>
      </trkpt>
      <trkpt lat="43.48219" lon="3.50073">
        <ele>85.2</ele>
        <time>2018-09-25T19:29:38.819Z</time>
      </trkpt>
      <trkpt lat="43.48217" lon="3.50077">
        <ele>85.2</ele>
        <time>2018-09-25T19:29:39.819Z</time>
      </trkpt>
      <trkpt lat="43.48216" lon="3.50081">
        <ele>85.3</ele>
        <time>2018-09-25T19:29:40.819Z</time>
      </trkpt>
      <trkpt lat="43.48214" lon="3.50085">
        <ele>85.2</ele>
        <time>2018-09-25T19:29:41.819Z</time>
      </trkpt>
      <trkpt lat="43.48213" lon="3.50089">
        <ele>85.2</ele>
        <time>2018-09-25T19:29:42.819Z</time>
      </trkpt>
      <trkpt lat="43.48211" lon="3.50093">
        <ele>85.2</ele>
        <time>2018-09-25T19:29:43.819Z</time>
      </trkpt>
      <trkpt lat="43.48209" lon="3.50097">
        <ele>85.2</ele>
        <time>2018-09-25T19:29:44.819Z</time>
      </trkpt>
      <trkpt lat="43.48207" lon="3.50101">
        <ele>85.1</ele>
        <time>2018-09-25T19:29:45.819Z</time>
      </trkpt>
      <trkpt lat="43.48205" lon="3.50105">
        <ele>85.1</ele>
        <time>2018-09-25T19:29:46.819Z</time>
      </trkpt>
      <trkpt lat="43.48203" lon="3.5011">
        <ele>85.1</ele>
        <time>2018-09-25T19:29:47.819Z</time>
      </trkpt>
      <trkpt lat="43.48201" lon="3.50114">
        <ele>85.3</ele>
        <time>2018-09-25T19:29:48.819Z</time>
      </trkpt>
      <trkpt lat="43.48199" lon="3.50117">
        <ele>85.2</ele>
        <time>2018-09-25T19:29:49.819Z</time>
      </trkpt>
      <trkpt lat="43.48197" lon="3.50121">
        <ele>85.3</ele>
        <time>2018-09-25T19:29:50.819Z</time>
      </trkpt>
      <trkpt lat="43.48195" lon="3.50125">
        <ele>85.3</ele>
        <time>2018-09-25T19:29:51.819Z</time>
      </trkpt>
      <trkpt lat="43.48193" lon="3.50129">
        <ele>85.5</ele>
        <time>2018-09-25T19:29:52.819Z</time>
      </trkpt>
      <trkpt lat="43.48191" lon="3.50132">
        <ele>85.5</ele>
        <time>2018-09-25T19:29:53.819Z</time>
      </trkpt>
      <trkpt lat="43.48189" lon="3.50136">
        <ele>85.5</ele>
        <time>2018-09-25T19:29:54.819Z</time>
      </trkpt>
      <trkpt lat="43.48187" lon="3.5014">
        <ele>85.6</ele>
        <time>2018-09-25T19:29:55.819Z</time>
      </trkpt>
      <trkpt lat="43.48186" lon="3.50144">
        <ele>85.6</ele>
        <time>2018-09-25T19:29:56.819Z</time>
      </trkpt>
      <trkpt lat="43.48182" lon="3.50149">
        <ele>85.7</ele>
        <time>2018-09-25T19:29:58.819Z</time>
      </trkpt>
      <trkpt lat="43.48179" lon="3.5015">
        <ele>85.8</ele>
        <time>2018-09-25T19:29:59.819Z</time>
      </trkpt>
      <trkpt lat="43.48175" lon="3.50151">
        <ele>85.9</ele>
        <time>2018-09-25T19:30:00.819Z</time>
      </trkpt>
      <trkpt lat="43.48172" lon="3.50151">
        <ele>86</ele>
        <time>2018-09-25T19:30:01.819Z</time>
      </trkpt>
      <trkpt lat="43.48168" lon="3.50152">
        <ele>86.1</ele>
        <time>2018-09-25T19:30:02.819Z</time>
      </trkpt>
      <trkpt lat="43.48164" lon="3.50152">
        <ele>86.2</ele>
        <time>2018-09-25T19:30:03.819Z</time>
      </trkpt>
      <trkpt lat="43.4816" lon="3.50152">
        <ele>86.4</ele>
        <time>2018-09-25T19:30:04.819Z</time>
      </trkpt>
      <trkpt lat="43.48157" lon="3.50153">
        <ele>86.5</ele>
        <time>2018-09-25T19:30:05.819Z</time>
      </trkpt>
      <trkpt lat="43.48153" lon="3.50153">
        <ele>86.6</ele>
        <time>2018-09-25T19:30:06.819Z</time>
      </trkpt>
      <trkpt lat="43.4815" lon="3.50154">
        <ele>86.7</ele>
        <time>2018-09-25T19:30:07.819Z</time>
      </trkpt>
      <trkpt lat="43.48146" lon="3.50155">
        <ele>86.8</ele>
        <time>2018-09-25T19:30:08.819Z</time>
      </trkpt>
      <trkpt lat="43.48143" lon="3.50155">
        <ele>86.9</ele>
        <time>2018-09-25T19:30:09.819Z</time>
      </trkpt>
      <trkpt lat="43.4814" lon="3.50156">
        <ele>87</ele>
        <time>2018-09-25T19:30:10.819Z</time>
      </trkpt>
      <trkpt lat="43.48136" lon="3.50157">
        <ele>87.2</ele>
        <time>2018-09-25T19:30:11.819Z</time>
      </trkpt>
      <trkpt lat="43.48132" lon="3.50158">
        <ele>87.4</ele>
        <time>2018-09-25T19:30:12.819Z</time>
      </trkpt>
      <trkpt lat="43.48129" lon="3.50158">
        <ele>87.6</ele>
        <time>2018-09-25T19:30:13.819Z</time>
      </trkpt>
      <trkpt lat="43.48125" lon="3.50159">
        <ele>87.7</ele>
        <time>2018-09-25T19:30:14.819Z</time>
      </trkpt>
      <trkpt lat="43.48121" lon="3.50159">
        <ele>87.8</ele>
        <time>2018-09-25T19:30:15.819Z</time>
      </trkpt>
      <trkpt lat="43.48118" lon="3.50159">
        <ele>87.9</ele>
        <time>2018-09-25T19:30:16.819Z</time>
      </trkpt>
      <trkpt lat="43.48114" lon="3.50159">
        <ele>88.1</ele>
        <time>2018-09-25T19:30:17.819Z</time>
      </trkpt>
      <trkpt lat="43.4811" lon="3.5016">
        <ele>88.4</ele>
        <time>2018-09-25T19:30:18.819Z</time>
      </trkpt>
      <trkpt lat="43.48107" lon="3.5016">
        <ele>88.5</ele>
        <time>2018-09-25T19:30:19.819Z</time>
      </trkpt>
      <trkpt lat="43.48103" lon="3.50159">
        <ele>88.6</ele>
        <time>2018-09-25T19:30:20.819Z</time>
      </trkpt>
      <trkpt lat="43.481" lon="3.50159">
        <ele>88.8</ele>
        <time>2018-09-25T19:30:21.819Z</time>
      </trkpt>
      <trkpt lat="43.48097" lon="3.5016">
        <ele>88.9</ele>
        <time>2018-09-25T19:30:22.819Z</time>
      </trkpt>
      <trkpt lat="43.48093" lon="3.5016">
        <ele>89</ele>
        <time>2018-09-25T19:30:23.819Z</time>
      </trkpt>
      <trkpt lat="43.4809" lon="3.5016">
        <ele>89.1</ele>
        <time>2018-09-25T19:30:24.819Z</time>
      </trkpt>
      <trkpt lat="43.48086" lon="3.5016">
        <ele>89.2</ele>
        <time>2018-09-25T19:30:25.819Z</time>
      </trkpt>
      <trkpt lat="43.48083" lon="3.5016">
        <ele>89.3</ele>
        <time>2018-09-25T19:30:26.819Z</time>
      </trkpt>
      <trkpt lat="43.48079" lon="3.50161">
        <ele>89.5</ele>
        <time>2018-09-25T19:30:27.819Z</time>
      </trkpt>
      <trkpt lat="43.48076" lon="3.50161">
        <ele>89.6</ele>
        <time>2018-09-25T19:30:28.819Z</time>
      </trkpt>
      <trkpt lat="43.48073" lon="3.50161">
        <ele>89.7</ele>
        <time>2018-09-25T19:30:29.819Z</time>
      </trkpt>
      <trkpt lat="43.4807" lon="3.5016">
        <ele>89.8</ele>
        <time>2018-09-25T19:30:30.819Z</time>
      </trkpt>
      <trkpt lat="43.48067" lon="3.50159">
        <ele>89.8</ele>
        <time>2018-09-25T19:30:31.819Z</time>
      </trkpt>
      <trkpt lat="43.48064" lon="3.50157">
        <ele>90</ele>
        <time>2018-09-25T19:30:32.819Z</time>
      </trkpt>
      <trkpt lat="43.48061" lon="3.50156">
        <ele>90.1</ele>
        <time>2018-09-25T19:30:33.819Z</time>
      </trkpt>
      <trkpt lat="43.48059" lon="3.50154">
        <ele>90.2</ele>
        <time>2018-09-25T19:30:34.819Z</time>
      </trkpt>
      <trkpt lat="43.48056" lon="3.50152">
        <ele>90.4</ele>
        <time>2018-09-25T19:30:35.819Z</time>
      </trkpt>
      <trkpt lat="43.48053" lon="3.50151">
        <ele>90.6</ele>
        <time>2018-09-25T19:30:36.819Z</time>
      </trkpt>
      <trkpt lat="43.48049" lon="3.5015">
        <ele>90.7</ele>
        <time>2018-09-25T19:30:37.819Z</time>
      </trkpt>
      <trkpt lat="43.48046" lon="3.50149">
        <ele>90.9</ele>
        <time>2018-09-25T19:30:38.819Z</time>
      </trkpt>
      <trkpt lat="43.48042" lon="3.50148">
        <ele>91.1</ele>
        <time>2018-09-25T19:30:39.819Z</time>
      </trkpt>
      <trkpt lat="43.48039" lon="3.50148">
        <ele>91.3</ele>
        <time>2018-09-25T19:30:40.819Z</time>
      </trkpt>
      <trkpt lat="43.48035" lon="3.50147">
        <ele>91.4</ele>
        <time>2018-09-25T19:30:41.819Z</time>
      </trkpt>
      <trkpt lat="43.48032" lon="3.50147">
        <ele>91.6</ele>
        <time>2018-09-25T19:30:42.819Z</time>
      </trkpt>
      <trkpt lat="43.48028" lon="3.50147">
        <ele>91.7</ele>
        <time>2018-09-25T19:30:43.819Z</time>
      </trkpt>
      <trkpt lat="43.48025" lon="3.50147">
        <ele>91.8</ele>
        <time>2018-09-25T19:30:44.819Z</time>
      </trkpt>
      <trkpt lat="43.48021" lon="3.50147">
        <ele>92</ele>
        <time>2018-09-25T19:30:45.819Z</time>
      </trkpt>
      <trkpt lat="43.48018" lon="3.50147">
        <ele>92.1</ele>
        <time>2018-09-25T19:30:46.819Z</time>
      </trkpt>
      <trkpt lat="43.48014" lon="3.50147">
        <ele>92.4</ele>
        <time>2018-09-25T19:30:47.819Z</time>
      </trkpt>
      <trkpt lat="43.4801" lon="3.50147">
        <ele>92.5</ele>
        <time>2018-09-25T19:30:48.819Z</time>
      </trkpt>
      <trkpt lat="43.48007" lon="3.50147">
        <ele>92.7</ele>
        <time>2018-09-25T19:30:49.819Z</time>
      </trkpt>
      <trkpt lat="43.48004" lon="3.50147">
        <ele>92.8</ele>
        <time>2018-09-25T19:30:50.819Z</time>
      </trkpt>
      <trkpt lat="43.48" lon="3.50146">
        <ele>93</ele>
        <time>2018-09-25T19:30:51.819Z</time>
      </trkpt>
      <trkpt lat="43.47997" lon="3.50146">
        <ele>93.1</ele>
        <time>2018-09-25T19:30:52.819Z</time>
      </trkpt>
      <trkpt lat="43.47993" lon="3.50145">
        <ele>93.3</ele>
        <time>2018-09-25T19:30:53.819Z</time>
      </trkpt>
      <trkpt lat="43.47991" lon="3.50144">
        <ele>93.4</ele>
        <time>2018-09-25T19:30:54.819Z</time>
      </trkpt>
      <trkpt lat="43.47988" lon="3.50143">
        <ele>93.5</ele>
        <time>2018-09-25T19:30:55.819Z</time>
      </trkpt>
      <trkpt lat="43.47985" lon="3.50142">
        <ele>93.6</ele>
        <time>2018-09-25T19:30:56.819Z</time>
      </trkpt>
      <trkpt lat="43.47982" lon="3.50141">
        <ele>93.8</ele>
        <time>2018-09-25T19:30:57.819Z</time>
      </trkpt>
      <trkpt lat="43.47979" lon="3.5014">
        <ele>93.9</ele>
        <time>2018-09-25T19:30:58.819Z</time>
      </trkpt>
      <trkpt lat="43.47976" lon="3.50139">
        <ele>94</ele>
        <time>2018-09-25T19:30:59.819Z</time>
      </trkpt>
      <trkpt lat="43.47972" lon="3.50139">
        <ele>94.1</ele>
        <time>2018-09-25T19:31:00.819Z</time>
      </trkpt>
      <trkpt lat="43.47969" lon="3.5014">
        <ele>94.2</ele>
        <time>2018-09-25T19:31:01.819Z</time>
      </trkpt>
      <trkpt lat="43.47966" lon="3.50142">
        <ele>94.3</ele>
        <time>2018-09-25T19:31:02.819Z</time>
      </trkpt>
      <trkpt lat="43.47964" lon="3.50144">
        <ele>94.5</ele>
        <time>2018-09-25T19:31:03.819Z</time>
      </trkpt>
      <trkpt lat="43.4796" lon="3.50146">
        <ele>94.6</ele>
        <time>2018-09-25T19:31:04.819Z</time>
      </trkpt>
      <trkpt lat="43.47957" lon="3.50148">
        <ele>94.7</ele>
        <time>2018-09-25T19:31:05.819Z</time>
      </trkpt>
      <trkpt lat="43.47954" lon="3.50152">
        <ele>94.8</ele>
        <time>2018-09-25T19:31:06.819Z</time>
      </trkpt>
      <trkpt lat="43.47951" lon="3.50155">
        <ele>94.9</ele>
        <time>2018-09-25T19:31:07.819Z</time>
      </trkpt>
      <trkpt lat="43.47948" lon="3.50158">
        <ele>95</ele>
        <time>2018-09-25T19:31:08.819Z</time>
      </trkpt>
      <trkpt lat="43.47945" lon="3.5016">
        <ele>95.1</ele>
        <time>2018-09-25T19:31:09.819Z</time>
      </trkpt>
      <trkpt lat="43.47942" lon="3.50162">
        <ele>95.2</ele>
        <time>2018-09-25T19:31:10.819Z</time>
      </trkpt>
      <trkpt lat="43.47939" lon="3.50163">
        <ele>95.2</ele>
        <time>2018-09-25T19:31:11.819Z</time>
      </trkpt>
      <trkpt lat="43.47937" lon="3.50165">
        <ele>95.4</ele>
        <time>2018-09-25T19:31:12.819Z</time>
      </trkpt>
      <trkpt lat="43.47934" lon="3.50167">
        <ele>95.5</ele>
        <time>2018-09-25T19:31:13.819Z</time>
      </trkpt>
      <trkpt lat="43.47932" lon="3.50169">
        <ele>95.7</ele>
        <time>2018-09-25T19:31:14.819Z</time>
      </trkpt>
      <trkpt lat="43.47929" lon="3.50171">
        <ele>95.8</ele>
        <time>2018-09-25T19:31:15.819Z</time>
      </trkpt>
      <trkpt lat="43.47926" lon="3.50174">
        <ele>95.9</ele>
        <time>2018-09-25T19:31:16.819Z</time>
      </trkpt>
      <trkpt lat="43.47924" lon="3.50177">
        <ele>96</ele>
        <time>2018-09-25T19:31:17.819Z</time>
      </trkpt>
      <trkpt lat="43.47922" lon="3.5018">
        <ele>96.1</ele>
        <time>2018-09-25T19:31:18.819Z</time>
      </trkpt>
      <trkpt lat="43.4792" lon="3.50184">
        <ele>96.4</ele>
        <time>2018-09-25T19:31:19.819Z</time>
      </trkpt>
      <trkpt lat="43.47918" lon="3.50187">
        <ele>96.4</ele>
        <time>2018-09-25T19:31:20.819Z</time>
      </trkpt>
      <trkpt lat="43.47915" lon="3.50194">
        <ele>96.7</ele>
        <time>2018-09-25T19:31:22.819Z</time>
      </trkpt>
      <trkpt lat="43.47913" lon="3.50197">
        <ele>96.8</ele>
        <time>2018-09-25T19:31:23.819Z</time>
      </trkpt>
      <trkpt lat="43.47912" lon="3.50201">
        <ele>96.9</ele>
        <time>2018-09-25T19:31:24.819Z</time>
      </trkpt>
      <trkpt lat="43.4791" lon="3.50205">
        <ele>97.1</ele>
        <time>2018-09-25T19:31:25.819Z</time>
      </trkpt>
      <trkpt lat="43.47908" lon="3.50208">
        <ele>97.2</ele>
        <time>2018-09-25T19:31:26.819Z</time>
      </trkpt>
      <trkpt lat="43.47906" lon="3.50212">
        <ele>97.3</ele>
        <time>2018-09-25T19:31:27.819Z</time>
      </trkpt>
      <trkpt lat="43.47904" lon="3.50215">
        <ele>97.4</ele>
        <time>2018-09-25T19:31:28.819Z</time>
      </trkpt>
      <trkpt lat="43.47902" lon="3.50218">
        <ele>97.6</ele>
        <time>2018-09-25T19:31:29.819Z</time>
      </trkpt>
      <trkpt lat="43.47899" lon="3.5022">
        <ele>97.6</ele>
        <time>2018-09-25T19:31:30.819Z</time>
      </trkpt>
      <trkpt lat="43.47895" lon="3.50225">
        <ele>97.9</ele>
        <time>2018-09-25T19:31:32.819Z</time>
      </trkpt>
      <trkpt lat="43.47892" lon="3.50226">
        <ele>98</ele>
        <time>2018-09-25T19:31:33.819Z</time>
      </trkpt>
      <trkpt lat="43.4789" lon="3.50228">
        <ele>98.1</ele>
        <time>2018-09-25T19:31:34.819Z</time>
      </trkpt>
      <trkpt lat="43.47887" lon="3.50229">
        <ele>98.2</ele>
        <time>2018-09-25T19:31:35.819Z</time>
      </trkpt>
      <trkpt lat="43.47884" lon="3.5023">
        <ele>98.3</ele>
        <time>2018-09-25T19:31:36.819Z</time>
      </trkpt>
      <trkpt lat="43.47881" lon="3.50231">
        <ele>98.4</ele>
        <time>2018-09-25T19:31:37.819Z</time>
      </trkpt>
      <trkpt lat="43.47878" lon="3.50232">
        <ele>98.6</ele>
        <time>2018-09-25T19:31:38.819Z</time>
      </trkpt>
      <trkpt lat="43.47875" lon="3.50233">
        <ele>98.7</ele>
        <time>2018-09-25T19:31:39.819Z</time>
      </trkpt>
      <trkpt lat="43.47872" lon="3.50234">
        <ele>98.9</ele>
        <time>2018-09-25T19:31:40.819Z</time>
      </trkpt>
      <trkpt lat="43.47869" lon="3.50235">
        <ele>99</ele>
        <time>2018-09-25T19:31:41.819Z</time>
      </trkpt>
      <trkpt lat="43.47864" lon="3.50236">
        <ele>99.3</ele>
        <time>2018-09-25T19:31:43.819Z</time>
      </trkpt>
      <trkpt lat="43.47861" lon="3.50236">
        <ele>99.5</ele>
        <time>2018-09-25T19:31:44.819Z</time>
      </trkpt>
      <trkpt lat="43.47858" lon="3.50237">
        <ele>99.8</ele>
        <time>2018-09-25T19:31:45.819Z</time>
      </trkpt>
      <trkpt lat="43.47855" lon="3.50237">
        <ele>99.9</ele>
        <time>2018-09-25T19:31:46.819Z</time>
      </trkpt>
      <trkpt lat="43.47852" lon="3.50236">
        <ele>100</ele>
        <time>2018-09-25T19:31:47.819Z</time>
      </trkpt>
      <trkpt lat="43.47849" lon="3.50237">
        <ele>100.2</ele>
        <time>2018-09-25T19:31:48.819Z</time>
      </trkpt>
      <trkpt lat="43.47846" lon="3.50237">
        <ele>100.3</ele>
        <time>2018-09-25T19:31:49.819Z</time>
      </trkpt>
      <trkpt lat="43.47843" lon="3.50237">
        <ele>100.4</ele>
        <time>2018-09-25T19:31:50.819Z</time>
      </trkpt>
      <trkpt lat="43.47839" lon="3.50238">
        <ele>100.5</ele>
        <time>2018-09-25T19:31:51.819Z</time>
      </trkpt>
      <trkpt lat="43.47836" lon="3.50238">
        <ele>100.6</ele>
        <time>2018-09-25T19:31:52.819Z</time>
      </trkpt>
      <trkpt lat="43.47833" lon="3.50239">
        <ele>100.6</ele>
        <time>2018-09-25T19:31:53.819Z</time>
      </trkpt>
      <trkpt lat="43.4783" lon="3.5024">
        <ele>100.6</ele>
        <time>2018-09-25T19:31:54.819Z</time>
      </trkpt>
      <trkpt lat="43.47828" lon="3.5024">
        <ele>100.6</ele>
        <time>2018-09-25T19:31:55.819Z</time>
      </trkpt>
      <trkpt lat="43.47822" lon="3.50241">
        <ele>100.6</ele>
        <time>2018-09-25T19:31:57.819Z</time>
      </trkpt>
      <trkpt lat="43.47819" lon="3.50242">
        <ele>100.7</ele>
        <time>2018-09-25T19:31:59.819Z</time>
      </trkpt>
      <trkpt lat="43.47816" lon="3.50243">
        <ele>100.7</ele>
        <time>2018-09-25T19:32:01.819Z</time>
      </trkpt>
      <trkpt lat="43.47813" lon="3.50248">
        <ele>100.6</ele>
        <time>2018-09-25T19:32:03.819Z</time>
      </trkpt>
      <trkpt lat="43.47814" lon="3.50253">
        <ele>100.5</ele>
        <time>2018-09-25T19:32:04.819Z</time>
      </trkpt>
      <trkpt lat="43.47816" lon="3.50259">
        <ele>100.5</ele>
        <time>2018-09-25T19:32:05.819Z</time>
      </trkpt>
      <trkpt lat="43.47819" lon="3.50265">
        <ele>100.5</ele>
        <time>2018-09-25T19:32:06.819Z</time>
      </trkpt>
      <trkpt lat="43.47822" lon="3.50271">
        <ele>100.5</ele>
        <time>2018-09-25T19:32:07.819Z</time>
      </trkpt>
      <trkpt lat="43.47826" lon="3.50277">
        <ele>100.3</ele>
        <time>2018-09-25T19:32:08.819Z</time>
      </trkpt>
      <trkpt lat="43.47829" lon="3.50283">
        <ele>100.1</ele>
        <time>2018-09-25T19:32:09.819Z</time>
      </trkpt>
      <trkpt lat="43.47831" lon="3.50288">
        <ele>99.9</ele>
        <time>2018-09-25T19:32:10.819Z</time>
      </trkpt>
      <trkpt lat="43.47833" lon="3.50292">
        <ele>99.8</ele>
        <time>2018-09-25T19:32:11.819Z</time>
      </trkpt>
      <trkpt lat="43.47835" lon="3.50297">
        <ele>99.7</ele>
        <time>2018-09-25T19:32:12.819Z</time>
      </trkpt>
      <trkpt lat="43.47837" lon="3.50301">
        <ele>99.6</ele>
        <time>2018-09-25T19:32:13.819Z</time>
      </trkpt>
      <trkpt lat="43.47838" lon="3.50305">
        <ele>99.6</ele>
        <time>2018-09-25T19:32:14.819Z</time>
      </trkpt>
      <trkpt lat="43.47839" lon="3.5031">
        <ele>99.6</ele>
        <time>2018-09-25T19:32:15.819Z</time>
      </trkpt>
      <trkpt lat="43.47841" lon="3.50314">
        <ele>99.5</ele>
        <time>2018-09-25T19:32:16.819Z</time>
      </trkpt>
      <trkpt lat="43.47842" lon="3.50319">
        <ele>99.5</ele>
        <time>2018-09-25T19:32:17.819Z</time>
      </trkpt>
      <trkpt lat="43.47844" lon="3.50324">
        <ele>99.3</ele>
        <time>2018-09-25T19:32:18.819Z</time>
      </trkpt>
      <trkpt lat="43.47845" lon="3.50329">
        <ele>99.1</ele>
        <time>2018-09-25T19:32:19.819Z</time>
      </trkpt>
      <trkpt lat="43.47846" lon="3.50333">
        <ele>98.9</ele>
        <time>2018-09-25T19:32:20.819Z</time>
      </trkpt>
      <trkpt lat="43.47847" lon="3.50338">
        <ele>98.7</ele>
        <time>2018-09-25T19:32:21.819Z</time>
      </trkpt>
      <trkpt lat="43.47849" lon="3.50342">
        <ele>98.5</ele>
        <time>2018-09-25T19:32:22.819Z</time>
      </trkpt>
      <trkpt lat="43.4785" lon="3.50346">
        <ele>98.4</ele>
        <time>2018-09-25T19:32:23.819Z</time>
      </trkpt>
      <trkpt lat="43.47851" lon="3.50351">
        <ele>98.3</ele>
        <time>2018-09-25T19:32:24.819Z</time>
      </trkpt>
      <trkpt lat="43.47853" lon="3.50355">
        <ele>98.3</ele>
        <time>2018-09-25T19:32:25.819Z</time>
      </trkpt>
      <trkpt lat="43.47854" lon="3.5036">
        <ele>98.4</ele>
        <time>2018-09-25T19:32:26.819Z</time>
      </trkpt>
      <trkpt lat="43.47855" lon="3.50364">
        <ele>98.5</ele>
        <time>2018-09-25T19:32:27.819Z</time>
      </trkpt>
      <trkpt lat="43.47857" lon="3.50368">
        <ele>98.7</ele>
        <time>2018-09-25T19:32:28.819Z</time>
      </trkpt>
      <trkpt lat="43.47858" lon="3.50372">
        <ele>98.9</ele>
        <time>2018-09-25T19:32:29.819Z</time>
      </trkpt>
      <trkpt lat="43.47859" lon="3.50377">
        <ele>99.1</ele>
        <time>2018-09-25T19:32:30.819Z</time>
      </trkpt>
      <trkpt lat="43.4786" lon="3.50381">
        <ele>99.3</ele>
        <time>2018-09-25T19:32:31.819Z</time>
      </trkpt>
      <trkpt lat="43.47861" lon="3.50385">
        <ele>99.4</ele>
        <time>2018-09-25T19:32:32.819Z</time>
      </trkpt>
      <trkpt lat="43.47862" lon="3.50388">
        <ele>99.6</ele>
        <time>2018-09-25T19:32:33.819Z</time>
      </trkpt>
      <trkpt lat="43.47863" lon="3.50392">
        <ele>99.7</ele>
        <time>2018-09-25T19:32:34.819Z</time>
      </trkpt>
      <trkpt lat="43.47864" lon="3.50396">
        <ele>99.7</ele>
        <time>2018-09-25T19:32:35.819Z</time>
      </trkpt>
      <trkpt lat="43.47865" lon="3.504">
        <ele>99.8</ele>
        <time>2018-09-25T19:32:36.819Z</time>
      </trkpt>
      <trkpt lat="43.47866" lon="3.50403">
        <ele>99.8</ele>
        <time>2018-09-25T19:32:37.819Z</time>
      </trkpt>
      <trkpt lat="43.47867" lon="3.50407">
        <ele>99.7</ele>
        <time>2018-09-25T19:32:38.819Z</time>
      </trkpt>
      <trkpt lat="43.47868" lon="3.50411">
        <ele>99.7</ele>
        <time>2018-09-25T19:32:39.819Z</time>
      </trkpt>
      <trkpt lat="43.4787" lon="3.50415">
        <ele>99.6</ele>
        <time>2018-09-25T19:32:40.819Z</time>
      </trkpt>
      <trkpt lat="43.47871" lon="3.50419">
        <ele>99.6</ele>
        <time>2018-09-25T19:32:41.819Z</time>
      </trkpt>
      <trkpt lat="43.47872" lon="3.50423">
        <ele>99.6</ele>
        <time>2018-09-25T19:32:42.819Z</time>
      </trkpt>
      <trkpt lat="43.47874" lon="3.50427">
        <ele>99.6</ele>
        <time>2018-09-25T19:32:43.819Z</time>
      </trkpt>
      <trkpt lat="43.47875" lon="3.50431">
        <ele>99.6</ele>
        <time>2018-09-25T19:32:44.819Z</time>
      </trkpt>
      <trkpt lat="43.47875" lon="3.50435">
        <ele>99.7</ele>
        <time>2018-09-25T19:32:45.819Z</time>
      </trkpt>
      <trkpt lat="43.47876" lon="3.50439">
        <ele>99.8</ele>
        <time>2018-09-25T19:32:46.819Z</time>
      </trkpt>
      <trkpt lat="43.47877" lon="3.50443">
        <ele>99.9</ele>
        <time>2018-09-25T19:32:47.819Z</time>
      </trkpt>
      <trkpt lat="43.47878" lon="3.50448">
        <ele>100</ele>
        <time>2018-09-25T19:32:48.819Z</time>
      </trkpt>
      <trkpt lat="43.47878" lon="3.50452">
        <ele>100.1</ele>
        <time>2018-09-25T19:32:49.819Z</time>
      </trkpt>
      <trkpt lat="43.47879" lon="3.50457">
        <ele>100.1</ele>
        <time>2018-09-25T19:32:50.819Z</time>
      </trkpt>
      <trkpt lat="43.4788" lon="3.50462">
        <ele>100.1</ele>
        <time>2018-09-25T19:32:51.819Z</time>
      </trkpt>
      <trkpt lat="43.47881" lon="3.50466">
        <ele>100.1</ele>
        <time>2018-09-25T19:32:52.819Z</time>
      </trkpt>
      <trkpt lat="43.47883" lon="3.50471">
        <ele>100</ele>
        <time>2018-09-25T19:32:53.819Z</time>
      </trkpt>
      <trkpt lat="43.47884" lon="3.50476">
        <ele>99.8</ele>
        <time>2018-09-25T19:32:54.819Z</time>
      </trkpt>
      <trkpt lat="43.47885" lon="3.50481">
        <ele>99.6</ele>
        <time>2018-09-25T19:32:55.819Z</time>
      </trkpt>
      <trkpt lat="43.47886" lon="3.50486">
        <ele>99.5</ele>
        <time>2018-09-25T19:32:56.819Z</time>
      </trkpt>
      <trkpt lat="43.47887" lon="3.50491">
        <ele>99.3</ele>
        <time>2018-09-25T19:32:57.819Z</time>
      </trkpt>
      <trkpt lat="43.47888" lon="3.50495">
        <ele>99.1</ele>
        <time>2018-09-25T19:32:58.819Z</time>
      </trkpt>
      <trkpt lat="43.47889" lon="3.505">
        <ele>99</ele>
        <time>2018-09-25T19:32:59.819Z</time>
      </trkpt>
      <trkpt lat="43.4789" lon="3.50504">
        <ele>98.8</ele>
        <time>2018-09-25T19:33:00.819Z</time>
      </trkpt>
      <trkpt lat="43.47891" lon="3.50509">
        <ele>98.7</ele>
        <time>2018-09-25T19:33:01.819Z</time>
      </trkpt>
      <trkpt lat="43.47892" lon="3.50513">
        <ele>98.6</ele>
        <time>2018-09-25T19:33:02.819Z</time>
      </trkpt>
      <trkpt lat="43.47893" lon="3.50518">
        <ele>98.5</ele>
        <time>2018-09-25T19:33:03.819Z</time>
      </trkpt>
      <trkpt lat="43.47895" lon="3.50523">
        <ele>98.6</ele>
        <time>2018-09-25T19:33:04.819Z</time>
      </trkpt>
      <trkpt lat="43.47895" lon="3.50527">
        <ele>98.6</ele>
        <time>2018-09-25T19:33:05.819Z</time>
      </trkpt>
      <trkpt lat="43.47896" lon="3.50532">
        <ele>98.7</ele>
        <time>2018-09-25T19:33:06.819Z</time>
      </trkpt>
      <trkpt lat="43.47897" lon="3.50537">
        <ele>98.9</ele>
        <time>2018-09-25T19:33:07.819Z</time>
      </trkpt>
      <trkpt lat="43.47898" lon="3.50542">
        <ele>99</ele>
        <time>2018-09-25T19:33:08.819Z</time>
      </trkpt>
      <trkpt lat="43.47899" lon="3.50547">
        <ele>99.1</ele>
        <time>2018-09-25T19:33:09.819Z</time>
      </trkpt>
      <trkpt lat="43.479" lon="3.50552">
        <ele>99.2</ele>
        <time>2018-09-25T19:33:10.819Z</time>
      </trkpt>
      <trkpt lat="43.47901" lon="3.50557">
        <ele>99.2</ele>
        <time>2018-09-25T19:33:11.819Z</time>
      </trkpt>
      <trkpt lat="43.47901" lon="3.50561">
        <ele>99.2</ele>
        <time>2018-09-25T19:33:12.819Z</time>
      </trkpt>
      <trkpt lat="43.47902" lon="3.50566">
        <ele>99.2</ele>
        <time>2018-09-25T19:33:13.819Z</time>
      </trkpt>
      <trkpt lat="43.47903" lon="3.5057">
        <ele>99.2</ele>
        <time>2018-09-25T19:33:14.819Z</time>
      </trkpt>
      <trkpt lat="43.47904" lon="3.50574">
        <ele>99.2</ele>
        <time>2018-09-25T19:33:15.819Z</time>
      </trkpt>
      <trkpt lat="43.47905" lon="3.50579">
        <ele>99.3</ele>
        <time>2018-09-25T19:33:16.819Z</time>
      </trkpt>
      <trkpt lat="43.47906" lon="3.50584">
        <ele>99.3</ele>
        <time>2018-09-25T19:33:17.819Z</time>
      </trkpt>
      <trkpt lat="43.47907" lon="3.50588">
        <ele>99.4</ele>
        <time>2018-09-25T19:33:18.819Z</time>
      </trkpt>
      <trkpt lat="43.47908" lon="3.50593">
        <ele>99.5</ele>
        <time>2018-09-25T19:33:19.819Z</time>
      </trkpt>
      <trkpt lat="43.47909" lon="3.50597">
        <ele>99.7</ele>
        <time>2018-09-25T19:33:20.819Z</time>
      </trkpt>
      <trkpt lat="43.4791" lon="3.50602">
        <ele>99.8</ele>
        <time>2018-09-25T19:33:21.819Z</time>
      </trkpt>
      <trkpt lat="43.47911" lon="3.50607">
        <ele>100</ele>
        <time>2018-09-25T19:33:22.819Z</time>
      </trkpt>
      <trkpt lat="43.47913" lon="3.50611">
        <ele>100.2</ele>
        <time>2018-09-25T19:33:23.819Z</time>
      </trkpt>
      <trkpt lat="43.47914" lon="3.50616">
        <ele>100.4</ele>
        <time>2018-09-25T19:33:24.819Z</time>
      </trkpt>
      <trkpt lat="43.47914" lon="3.5062">
        <ele>100.6</ele>
        <time>2018-09-25T19:33:25.819Z</time>
      </trkpt>
      <trkpt lat="43.47915" lon="3.50624">
        <ele>100.8</ele>
        <time>2018-09-25T19:33:26.819Z</time>
      </trkpt>
      <trkpt lat="43.47916" lon="3.5063">
        <ele>101</ele>
        <time>2018-09-25T19:33:28.819Z</time>
      </trkpt>
      <trkpt lat="43.47917" lon="3.50637">
        <ele>101.1</ele>
        <time>2018-09-25T19:33:30.819Z</time>
      </trkpt>
      <trkpt lat="43.47917" lon="3.50641">
        <ele>101.1</ele>
        <time>2018-09-25T19:33:31.819Z</time>
      </trkpt>
      <trkpt lat="43.47918" lon="3.50645">
        <ele>101.1</ele>
        <time>2018-09-25T19:33:32.819Z</time>
      </trkpt>
      <trkpt lat="43.47919" lon="3.5065">
        <ele>101.1</ele>
        <time>2018-09-25T19:33:33.819Z</time>
      </trkpt>
      <trkpt lat="43.4792" lon="3.50655">
        <ele>101</ele>
        <time>2018-09-25T19:33:34.819Z</time>
      </trkpt>
      <trkpt lat="43.47921" lon="3.5066">
        <ele>101.1</ele>
        <time>2018-09-25T19:33:35.819Z</time>
      </trkpt>
      <trkpt lat="43.47922" lon="3.50664">
        <ele>101.1</ele>
        <time>2018-09-25T19:33:36.819Z</time>
      </trkpt>
      <trkpt lat="43.47923" lon="3.50669">
        <ele>101.2</ele>
        <time>2018-09-25T19:33:37.819Z</time>
      </trkpt>
      <trkpt lat="43.47924" lon="3.50674">
        <ele>101.4</ele>
        <time>2018-09-25T19:33:38.819Z</time>
      </trkpt>
      <trkpt lat="43.47925" lon="3.5068">
        <ele>101.6</ele>
        <time>2018-09-25T19:33:39.819Z</time>
      </trkpt>
      <trkpt lat="43.47926" lon="3.50685">
        <ele>101.8</ele>
        <time>2018-09-25T19:33:40.819Z</time>
      </trkpt>
      <trkpt lat="43.47927" lon="3.50691">
        <ele>101.9</ele>
        <time>2018-09-25T19:33:41.819Z</time>
      </trkpt>
      <trkpt lat="43.47928" lon="3.50696">
        <ele>102</ele>
        <time>2018-09-25T19:33:42.819Z</time>
      </trkpt>
      <trkpt lat="43.47928" lon="3.50701">
        <ele>102.1</ele>
        <time>2018-09-25T19:33:43.819Z</time>
      </trkpt>
      <trkpt lat="43.47929" lon="3.50706">
        <ele>102.1</ele>
        <time>2018-09-25T19:33:44.819Z</time>
      </trkpt>
      <trkpt lat="43.4793" lon="3.50711">
        <ele>102</ele>
        <time>2018-09-25T19:33:45.819Z</time>
      </trkpt>
      <trkpt lat="43.47931" lon="3.50715">
        <ele>102</ele>
        <time>2018-09-25T19:33:46.819Z</time>
      </trkpt>
      <trkpt lat="43.47932" lon="3.50719">
        <ele>102</ele>
        <time>2018-09-25T19:33:47.819Z</time>
      </trkpt>
      <trkpt lat="43.47932" lon="3.50724">
        <ele>101.9</ele>
        <time>2018-09-25T19:33:48.819Z</time>
      </trkpt>
      <trkpt lat="43.47933" lon="3.50728">
        <ele>101.9</ele>
        <time>2018-09-25T19:33:49.819Z</time>
      </trkpt>
      <trkpt lat="43.47934" lon="3.50733">
        <ele>101.8</ele>
        <time>2018-09-25T19:33:50.819Z</time>
      </trkpt>
      <trkpt lat="43.47935" lon="3.50737">
        <ele>101.7</ele>
        <time>2018-09-25T19:33:51.819Z</time>
      </trkpt>
      <trkpt lat="43.47936" lon="3.50742">
        <ele>101.6</ele>
        <time>2018-09-25T19:33:52.819Z</time>
      </trkpt>
      <trkpt lat="43.47937" lon="3.50747">
        <ele>101.5</ele>
        <time>2018-09-25T19:33:53.819Z</time>
      </trkpt>
      <trkpt lat="43.47938" lon="3.50752">
        <ele>101.4</ele>
        <time>2018-09-25T19:33:54.819Z</time>
      </trkpt>
      <trkpt lat="43.47938" lon="3.50756">
        <ele>101.4</ele>
        <time>2018-09-25T19:33:55.819Z</time>
      </trkpt>
      <trkpt lat="43.47939" lon="3.50761">
        <ele>101.4</ele>
        <time>2018-09-25T19:33:56.819Z</time>
      </trkpt>
      <trkpt lat="43.4794" lon="3.50765">
        <ele>101.4</ele>
        <time>2018-09-25T19:33:57.819Z</time>
      </trkpt>
      <trkpt lat="43.47941" lon="3.50769">
        <ele>101.5</ele>
        <time>2018-09-25T19:33:58.819Z</time>
      </trkpt>
      <trkpt lat="43.47941" lon="3.50773">
        <ele>101.6</ele>
        <time>2018-09-25T19:33:59.819Z</time>
      </trkpt>
      <trkpt lat="43.47942" lon="3.50778">
        <ele>101.8</ele>
        <time>2018-09-25T19:34:00.819Z</time>
      </trkpt>
      <trkpt lat="43.47943" lon="3.50782">
        <ele>102</ele>
        <time>2018-09-25T19:34:01.819Z</time>
      </trkpt>
      <trkpt lat="43.47943" lon="3.50786">
        <ele>102.2</ele>
        <time>2018-09-25T19:34:02.819Z</time>
      </trkpt>
      <trkpt lat="43.47944" lon="3.50791">
        <ele>102.5</ele>
        <time>2018-09-25T19:34:03.819Z</time>
      </trkpt>
      <trkpt lat="43.47946" lon="3.50797">
        <ele>102.9</ele>
        <time>2018-09-25T19:34:05.819Z</time>
      </trkpt>
      <trkpt lat="43.47946" lon="3.50802">
        <ele>103.1</ele>
        <time>2018-09-25T19:34:06.819Z</time>
      </trkpt>
      <trkpt lat="43.47947" lon="3.50806">
        <ele>103.3</ele>
        <time>2018-09-25T19:34:07.819Z</time>
      </trkpt>
      <trkpt lat="43.47948" lon="3.5081">
        <ele>103.4</ele>
        <time>2018-09-25T19:34:08.819Z</time>
      </trkpt>
      <trkpt lat="43.47949" lon="3.50814">
        <ele>103.5</ele>
        <time>2018-09-25T19:34:09.819Z</time>
      </trkpt>
      <trkpt lat="43.47949" lon="3.50818">
        <ele>103.6</ele>
        <time>2018-09-25T19:34:10.819Z</time>
      </trkpt>
      <trkpt lat="43.4795" lon="3.50822">
        <ele>103.6</ele>
        <time>2018-09-25T19:34:11.819Z</time>
      </trkpt>
      <trkpt lat="43.4795" lon="3.50826">
        <ele>103.6</ele>
        <time>2018-09-25T19:34:12.819Z</time>
      </trkpt>
      <trkpt lat="43.4795" lon="3.5083">
        <ele>103.6</ele>
        <time>2018-09-25T19:34:13.819Z</time>
      </trkpt>
      <trkpt lat="43.47949" lon="3.50834">
        <ele>103.6</ele>
        <time>2018-09-25T19:34:14.819Z</time>
      </trkpt>
      <trkpt lat="43.47946" lon="3.50837">
        <ele>103.5</ele>
        <time>2018-09-25T19:34:15.819Z</time>
      </trkpt>
      <trkpt lat="43.47944" lon="3.50839">
        <ele>103.5</ele>
        <time>2018-09-25T19:34:16.819Z</time>
      </trkpt>
      <trkpt lat="43.47941" lon="3.50841">
        <ele>103.5</ele>
        <time>2018-09-25T19:34:17.819Z</time>
      </trkpt>
      <trkpt lat="43.47937" lon="3.50843">
        <ele>103.5</ele>
        <time>2018-09-25T19:34:18.819Z</time>
      </trkpt>
      <trkpt lat="43.47933" lon="3.50845">
        <ele>103.5</ele>
        <time>2018-09-25T19:34:19.819Z</time>
      </trkpt>
      <trkpt lat="43.47928" lon="3.50847">
        <ele>103.5</ele>
        <time>2018-09-25T19:34:20.819Z</time>
      </trkpt>
      <trkpt lat="43.47924" lon="3.50849">
        <ele>103.6</ele>
        <time>2018-09-25T19:34:21.819Z</time>
      </trkpt>
      <trkpt lat="43.4792" lon="3.50851">
        <ele>103.6</ele>
        <time>2018-09-25T19:34:22.819Z</time>
      </trkpt>
      <trkpt lat="43.47916" lon="3.50853">
        <ele>103.6</ele>
        <time>2018-09-25T19:34:23.819Z</time>
      </trkpt>
      <trkpt lat="43.47913" lon="3.50855">
        <ele>103.7</ele>
        <time>2018-09-25T19:34:24.819Z</time>
      </trkpt>
      <trkpt lat="43.47909" lon="3.50858">
        <ele>103.7</ele>
        <time>2018-09-25T19:34:25.819Z</time>
      </trkpt>
      <trkpt lat="43.47906" lon="3.50861">
        <ele>103.8</ele>
        <time>2018-09-25T19:34:26.819Z</time>
      </trkpt>
      <trkpt lat="43.47903" lon="3.50864">
        <ele>103.9</ele>
        <time>2018-09-25T19:34:27.819Z</time>
      </trkpt>
      <trkpt lat="43.479" lon="3.50866">
        <ele>104</ele>
        <time>2018-09-25T19:34:28.819Z</time>
      </trkpt>
      <trkpt lat="43.47897" lon="3.50869">
        <ele>104.1</ele>
        <time>2018-09-25T19:34:29.819Z</time>
      </trkpt>
      <trkpt lat="43.47895" lon="3.50871">
        <ele>104.3</ele>
        <time>2018-09-25T19:34:30.819Z</time>
      </trkpt>
      <trkpt lat="43.47892" lon="3.50874">
        <ele>104.5</ele>
        <time>2018-09-25T19:34:31.819Z</time>
      </trkpt>
      <trkpt lat="43.47889" lon="3.50876">
        <ele>104.7</ele>
        <time>2018-09-25T19:34:32.819Z</time>
      </trkpt>
      <trkpt lat="43.47886" lon="3.50879">
        <ele>104.9</ele>
        <time>2018-09-25T19:34:33.819Z</time>
      </trkpt>
      <trkpt lat="43.47882" lon="3.50882">
        <ele>105.1</ele>
        <time>2018-09-25T19:34:34.819Z</time>
      </trkpt>
      <trkpt lat="43.47879" lon="3.50884">
        <ele>105.4</ele>
        <time>2018-09-25T19:34:35.819Z</time>
      </trkpt>
      <trkpt lat="43.47877" lon="3.50887">
        <ele>105.6</ele>
        <time>2018-09-25T19:34:36.819Z</time>
      </trkpt>
      <trkpt lat="43.47874" lon="3.50891">
        <ele>105.6</ele>
        <time>2018-09-25T19:34:37.819Z</time>
      </trkpt>
      <trkpt lat="43.47872" lon="3.50894">
        <ele>105.9</ele>
        <time>2018-09-25T19:34:38.819Z</time>
      </trkpt>
      <trkpt lat="43.47869" lon="3.50897">
        <ele>106.2</ele>
        <time>2018-09-25T19:34:39.819Z</time>
      </trkpt>
      <trkpt lat="43.47866" lon="3.50899">
        <ele>106.5</ele>
        <time>2018-09-25T19:34:40.819Z</time>
      </trkpt>
      <trkpt lat="43.47863" lon="3.50902">
        <ele>106.8</ele>
        <time>2018-09-25T19:34:41.819Z</time>
      </trkpt>
      <trkpt lat="43.4786" lon="3.50905">
        <ele>107.2</ele>
        <time>2018-09-25T19:34:42.819Z</time>
      </trkpt>
      <trkpt lat="43.47857" lon="3.50907">
        <ele>107.6</ele>
        <time>2018-09-25T19:34:43.819Z</time>
      </trkpt>
      <trkpt lat="43.47855" lon="3.5091">
        <ele>108</ele>
        <time>2018-09-25T19:34:44.819Z</time>
      </trkpt>
      <trkpt lat="43.47852" lon="3.50912">
        <ele>108.4</ele>
        <time>2018-09-25T19:34:45.819Z</time>
      </trkpt>
      <trkpt lat="43.47849" lon="3.50915">
        <ele>108.8</ele>
        <time>2018-09-25T19:34:46.819Z</time>
      </trkpt>
      <trkpt lat="43.47846" lon="3.50918">
        <ele>109.2</ele>
        <time>2018-09-25T19:34:47.819Z</time>
      </trkpt>
      <trkpt lat="43.47842" lon="3.5092">
        <ele>109.5</ele>
        <time>2018-09-25T19:34:48.819Z</time>
      </trkpt>
      <trkpt lat="43.47839" lon="3.50923">
        <ele>110</ele>
        <time>2018-09-25T19:34:49.819Z</time>
      </trkpt>
      <trkpt lat="43.47835" lon="3.50925">
        <ele>110.4</ele>
        <time>2018-09-25T19:34:50.819Z</time>
      </trkpt>
      <trkpt lat="43.47832" lon="3.50928">
        <ele>110.9</ele>
        <time>2018-09-25T19:34:51.819Z</time>
      </trkpt>
      <trkpt lat="43.47829" lon="3.50931">
        <ele>111.4</ele>
        <time>2018-09-25T19:34:52.819Z</time>
      </trkpt>
      <trkpt lat="43.47825" lon="3.50934">
        <ele>111.9</ele>
        <time>2018-09-25T19:34:53.819Z</time>
      </trkpt>
      <trkpt lat="43.47821" lon="3.50936">
        <ele>112.3</ele>
        <time>2018-09-25T19:34:54.819Z</time>
      </trkpt>
      <trkpt lat="43.47818" lon="3.5094">
        <ele>112.8</ele>
        <time>2018-09-25T19:34:55.819Z</time>
      </trkpt>
      <trkpt lat="43.47815" lon="3.50943">
        <ele>113.2</ele>
        <time>2018-09-25T19:34:56.819Z</time>
      </trkpt>
      <trkpt lat="43.47813" lon="3.50948">
        <ele>113.7</ele>
        <time>2018-09-25T19:34:57.819Z</time>
      </trkpt>
      <trkpt lat="43.47809" lon="3.50951">
        <ele>114.1</ele>
        <time>2018-09-25T19:34:58.819Z</time>
      </trkpt>
      <trkpt lat="43.47806" lon="3.50954">
        <ele>114.5</ele>
        <time>2018-09-25T19:34:59.819Z</time>
      </trkpt>
      <trkpt lat="43.47803" lon="3.50956">
        <ele>115</ele>
        <time>2018-09-25T19:35:00.819Z</time>
      </trkpt>
      <trkpt lat="43.478" lon="3.50959">
        <ele>115.3</ele>
        <time>2018-09-25T19:35:01.819Z</time>
      </trkpt>
      <trkpt lat="43.47797" lon="3.50962">
        <ele>115.6</ele>
        <time>2018-09-25T19:35:02.819Z</time>
      </trkpt>
      <trkpt lat="43.47795" lon="3.50964">
        <ele>115.8</ele>
        <time>2018-09-25T19:35:03.819Z</time>
      </trkpt>
      <trkpt lat="43.47792" lon="3.50967">
        <ele>115.9</ele>
        <time>2018-09-25T19:35:04.819Z</time>
      </trkpt>
      <trkpt lat="43.47789" lon="3.5097">
        <ele>116.1</ele>
        <time>2018-09-25T19:35:05.819Z</time>
      </trkpt>
      <trkpt lat="43.47786" lon="3.50974">
        <ele>116.4</ele>
        <time>2018-09-25T19:35:06.819Z</time>
      </trkpt>
      <trkpt lat="43.47783" lon="3.50978">
        <ele>116.6</ele>
        <time>2018-09-25T19:35:07.819Z</time>
      </trkpt>
      <trkpt lat="43.4778" lon="3.50982">
        <ele>116.8</ele>
        <time>2018-09-25T19:35:08.819Z</time>
      </trkpt>
      <trkpt lat="43.47777" lon="3.50985">
        <ele>117.1</ele>
        <time>2018-09-25T19:35:09.819Z</time>
      </trkpt>
      <trkpt lat="43.47774" lon="3.50989">
        <ele>117.3</ele>
        <time>2018-09-25T19:35:10.819Z</time>
      </trkpt>
      <trkpt lat="43.47772" lon="3.50992">
        <ele>117.1</ele>
        <time>2018-09-25T19:35:11.819Z</time>
      </trkpt>
      <trkpt lat="43.47769" lon="3.50995">
        <ele>117.4</ele>
        <time>2018-09-25T19:35:12.819Z</time>
      </trkpt>
      <trkpt lat="43.47767" lon="3.50999">
        <ele>117.6</ele>
        <time>2018-09-25T19:35:13.819Z</time>
      </trkpt>
      <trkpt lat="43.47764" lon="3.51002">
        <ele>117.7</ele>
        <time>2018-09-25T19:35:14.819Z</time>
      </trkpt>
      <trkpt lat="43.47761" lon="3.51006">
        <ele>117.8</ele>
        <time>2018-09-25T19:35:15.819Z</time>
      </trkpt>
      <trkpt lat="43.47759" lon="3.51009">
        <ele>117.6</ele>
        <time>2018-09-25T19:35:16.819Z</time>
      </trkpt>
      <trkpt lat="43.47757" lon="3.51013">
        <ele>117.9</ele>
        <time>2018-09-25T19:35:17.819Z</time>
      </trkpt>
      <trkpt lat="43.47754" lon="3.51016">
        <ele>117.9</ele>
        <time>2018-09-25T19:35:18.819Z</time>
      </trkpt>
      <trkpt lat="43.47752" lon="3.5102">
        <ele>118</ele>
        <time>2018-09-25T19:35:19.819Z</time>
      </trkpt>
      <trkpt lat="43.47749" lon="3.51023">
        <ele>118</ele>
        <time>2018-09-25T19:35:20.819Z</time>
      </trkpt>
      <trkpt lat="43.47747" lon="3.51027">
        <ele>117.8</ele>
        <time>2018-09-25T19:35:21.819Z</time>
      </trkpt>
      <trkpt lat="43.47744" lon="3.5103">
        <ele>118</ele>
        <time>2018-09-25T19:35:22.819Z</time>
      </trkpt>
      <trkpt lat="43.47741" lon="3.51034">
        <ele>118</ele>
        <time>2018-09-25T19:35:23.819Z</time>
      </trkpt>
      <trkpt lat="43.47739" lon="3.51037">
        <ele>117.9</ele>
        <time>2018-09-25T19:35:24.819Z</time>
      </trkpt>
      <trkpt lat="43.47736" lon="3.5104">
        <ele>117.8</ele>
        <time>2018-09-25T19:35:25.819Z</time>
      </trkpt>
      <trkpt lat="43.47734" lon="3.51043">
        <ele>117.7</ele>
        <time>2018-09-25T19:35:26.819Z</time>
      </trkpt>
      <trkpt lat="43.47731" lon="3.51047">
        <ele>117.7</ele>
        <time>2018-09-25T19:35:27.819Z</time>
      </trkpt>
      <trkpt lat="43.47729" lon="3.5105">
        <ele>117.6</ele>
        <time>2018-09-25T19:35:28.819Z</time>
      </trkpt>
      <trkpt lat="43.47726" lon="3.51054">
        <ele>117.5</ele>
        <time>2018-09-25T19:35:29.819Z</time>
      </trkpt>
      <trkpt lat="43.47724" lon="3.51057">
        <ele>117.5</ele>
        <time>2018-09-25T19:35:30.819Z</time>
      </trkpt>
      <trkpt lat="43.47721" lon="3.5106">
        <ele>117.8</ele>
        <time>2018-09-25T19:35:31.819Z</time>
      </trkpt>
      <trkpt lat="43.47718" lon="3.51063">
        <ele>117.6</ele>
        <time>2018-09-25T19:35:32.819Z</time>
      </trkpt>
      <trkpt lat="43.47716" lon="3.51066">
        <ele>117.7</ele>
        <time>2018-09-25T19:35:33.819Z</time>
      </trkpt>
      <trkpt lat="43.47713" lon="3.5107">
        <ele>117.8</ele>
        <time>2018-09-25T19:35:34.819Z</time>
      </trkpt>
      <trkpt lat="43.4771" lon="3.51073">
        <ele>118</ele>
        <time>2018-09-25T19:35:35.819Z</time>
      </trkpt>
      <trkpt lat="43.47707" lon="3.51076">
        <ele>118.2</ele>
        <time>2018-09-25T19:35:36.819Z</time>
      </trkpt>
      <trkpt lat="43.47704" lon="3.51079">
        <ele>118.3</ele>
        <time>2018-09-25T19:35:37.819Z</time>
      </trkpt>
      <trkpt lat="43.47701" lon="3.51082">
        <ele>118.4</ele>
        <time>2018-09-25T19:35:38.819Z</time>
      </trkpt>
      <trkpt lat="43.47698" lon="3.51086">
        <ele>118.7</ele>
        <time>2018-09-25T19:35:39.819Z</time>
      </trkpt>
      <trkpt lat="43.47695" lon="3.5109">
        <ele>118.9</ele>
        <time>2018-09-25T19:35:40.819Z</time>
      </trkpt>
      <trkpt lat="43.47692" lon="3.51093">
        <ele>119</ele>
        <time>2018-09-25T19:35:41.819Z</time>
      </trkpt>
      <trkpt lat="43.47689" lon="3.51097">
        <ele>119.2</ele>
        <time>2018-09-25T19:35:42.819Z</time>
      </trkpt>
      <trkpt lat="43.47686" lon="3.511">
        <ele>119.3</ele>
        <time>2018-09-25T19:35:43.819Z</time>
      </trkpt>
      <trkpt lat="43.47684" lon="3.51104">
        <ele>119.4</ele>
        <time>2018-09-25T19:35:44.819Z</time>
      </trkpt>
      <trkpt lat="43.47681" lon="3.51108">
        <ele>119.3</ele>
        <time>2018-09-25T19:35:45.819Z</time>
      </trkpt>
      <trkpt lat="43.47679" lon="3.51112">
        <ele>119.4</ele>
        <time>2018-09-25T19:35:46.819Z</time>
      </trkpt>
      <trkpt lat="43.47677" lon="3.51116">
        <ele>119.5</ele>
        <time>2018-09-25T19:35:47.819Z</time>
      </trkpt>
      <trkpt lat="43.47675" lon="3.5112">
        <ele>119.5</ele>
        <time>2018-09-25T19:35:48.819Z</time>
      </trkpt>
      <trkpt lat="43.47672" lon="3.51124">
        <ele>119.4</ele>
        <time>2018-09-25T19:35:49.819Z</time>
      </trkpt>
      <trkpt lat="43.4767" lon="3.51127">
        <ele>119.4</ele>
        <time>2018-09-25T19:35:50.819Z</time>
      </trkpt>
      <trkpt lat="43.47667" lon="3.51131">
        <ele>119.5</ele>
        <time>2018-09-25T19:35:51.819Z</time>
      </trkpt>
      <trkpt lat="43.47665" lon="3.51134">
        <ele>119.6</ele>
        <time>2018-09-25T19:35:52.819Z</time>
      </trkpt>
      <trkpt lat="43.47663" lon="3.51137">
        <ele>119.6</ele>
        <time>2018-09-25T19:35:53.819Z</time>
      </trkpt>
      <trkpt lat="43.4766" lon="3.51141">
        <ele>119.6</ele>
        <time>2018-09-25T19:35:54.819Z</time>
      </trkpt>
      <trkpt lat="43.47658" lon="3.51145">
        <ele>119.7</ele>
        <time>2018-09-25T19:35:55.819Z</time>
      </trkpt>
      <trkpt lat="43.47656" lon="3.51148">
        <ele>119.8</ele>
        <time>2018-09-25T19:35:56.819Z</time>
      </trkpt>
      <trkpt lat="43.47653" lon="3.51151">
        <ele>119.7</ele>
        <time>2018-09-25T19:35:57.819Z</time>
      </trkpt>
      <trkpt lat="43.47651" lon="3.51155">
        <ele>119.7</ele>
        <time>2018-09-25T19:35:58.819Z</time>
      </trkpt>
      <trkpt lat="43.47648" lon="3.51158">
        <ele>119.8</ele>
        <time>2018-09-25T19:35:59.819Z</time>
      </trkpt>
      <trkpt lat="43.47646" lon="3.51162">
        <ele>119.8</ele>
        <time>2018-09-25T19:36:00.819Z</time>
      </trkpt>
      <trkpt lat="43.47643" lon="3.51166">
        <ele>119.7</ele>
        <time>2018-09-25T19:36:01.819Z</time>
      </trkpt>
      <trkpt lat="43.4764" lon="3.5117">
        <ele>119.7</ele>
        <time>2018-09-25T19:36:02.819Z</time>
      </trkpt>
      <trkpt lat="43.47638" lon="3.51173">
        <ele>119.6</ele>
        <time>2018-09-25T19:36:03.819Z</time>
      </trkpt>
      <trkpt lat="43.47635" lon="3.51177">
        <ele>119.6</ele>
        <time>2018-09-25T19:36:04.819Z</time>
      </trkpt>
      <trkpt lat="43.47633" lon="3.51181">
        <ele>119.5</ele>
        <time>2018-09-25T19:36:05.819Z</time>
      </trkpt>
      <trkpt lat="43.4763" lon="3.51185">
        <ele>119.5</ele>
        <time>2018-09-25T19:36:06.819Z</time>
      </trkpt>
      <trkpt lat="43.47627" lon="3.5119">
        <ele>119.4</ele>
        <time>2018-09-25T19:36:07.819Z</time>
      </trkpt>
      <trkpt lat="43.47624" lon="3.51194">
        <ele>119.4</ele>
        <time>2018-09-25T19:36:08.819Z</time>
      </trkpt>
      <trkpt lat="43.47622" lon="3.51198">
        <ele>119.4</ele>
        <time>2018-09-25T19:36:09.819Z</time>
      </trkpt>
      <trkpt lat="43.47619" lon="3.51202">
        <ele>119.5</ele>
        <time>2018-09-25T19:36:10.819Z</time>
      </trkpt>
      <trkpt lat="43.47616" lon="3.51206">
        <ele>119.4</ele>
        <time>2018-09-25T19:36:11.819Z</time>
      </trkpt>
      <trkpt lat="43.47613" lon="3.51211">
        <ele>119.5</ele>
        <time>2018-09-25T19:36:12.819Z</time>
      </trkpt>
      <trkpt lat="43.4761" lon="3.51214">
        <ele>119.5</ele>
        <time>2018-09-25T19:36:13.819Z</time>
      </trkpt>
      <trkpt lat="43.47608" lon="3.51218">
        <ele>119.5</ele>
        <time>2018-09-25T19:36:14.819Z</time>
      </trkpt>
      <trkpt lat="43.47605" lon="3.51221">
        <ele>119.5</ele>
        <time>2018-09-25T19:36:15.819Z</time>
      </trkpt>
      <trkpt lat="43.47603" lon="3.51224">
        <ele>119.5</ele>
        <time>2018-09-25T19:36:16.819Z</time>
      </trkpt>
      <trkpt lat="43.47601" lon="3.51227">
        <ele>119.5</ele>
        <time>2018-09-25T19:36:17.819Z</time>
      </trkpt>
      <trkpt lat="43.47597" lon="3.51233">
        <ele>119.6</ele>
        <time>2018-09-25T19:36:19.819Z</time>
      </trkpt>
      <trkpt lat="43.47595" lon="3.51235">
        <ele>119.5</ele>
        <time>2018-09-25T19:36:20.819Z</time>
      </trkpt>
      <trkpt lat="43.47593" lon="3.51238">
        <ele>119.5</ele>
        <time>2018-09-25T19:36:21.819Z</time>
      </trkpt>
      <trkpt lat="43.4759" lon="3.51241">
        <ele>119.5</ele>
        <time>2018-09-25T19:36:22.819Z</time>
      </trkpt>
      <trkpt lat="43.47587" lon="3.51245">
        <ele>119.5</ele>
        <time>2018-09-25T19:36:23.819Z</time>
      </trkpt>
      <trkpt lat="43.47584" lon="3.51249">
        <ele>119.5</ele>
        <time>2018-09-25T19:36:24.819Z</time>
      </trkpt>
      <trkpt lat="43.47582" lon="3.51252">
        <ele>119.5</ele>
        <time>2018-09-25T19:36:25.819Z</time>
      </trkpt>
      <trkpt lat="43.47579" lon="3.51256">
        <ele>119.5</ele>
        <time>2018-09-25T19:36:26.819Z</time>
      </trkpt>
      <trkpt lat="43.47576" lon="3.5126">
        <ele>119.6</ele>
        <time>2018-09-25T19:36:27.819Z</time>
      </trkpt>
      <trkpt lat="43.47573" lon="3.51264">
        <ele>119.6</ele>
        <time>2018-09-25T19:36:28.819Z</time>
      </trkpt>
      <trkpt lat="43.4757" lon="3.51268">
        <ele>119.6</ele>
        <time>2018-09-25T19:36:29.819Z</time>
      </trkpt>
      <trkpt lat="43.47568" lon="3.51273">
        <ele>119.6</ele>
        <time>2018-09-25T19:36:30.819Z</time>
      </trkpt>
      <trkpt lat="43.47565" lon="3.51277">
        <ele>119.6</ele>
        <time>2018-09-25T19:36:31.819Z</time>
      </trkpt>
      <trkpt lat="43.47562" lon="3.51281">
        <ele>119.6</ele>
        <time>2018-09-25T19:36:32.819Z</time>
      </trkpt>
      <trkpt lat="43.47559" lon="3.51286">
        <ele>119.5</ele>
        <time>2018-09-25T19:36:33.819Z</time>
      </trkpt>
      <trkpt lat="43.47556" lon="3.5129">
        <ele>119.5</ele>
        <time>2018-09-25T19:36:34.819Z</time>
      </trkpt>
      <trkpt lat="43.47553" lon="3.51293">
        <ele>119.4</ele>
        <time>2018-09-25T19:36:35.819Z</time>
      </trkpt>
      <trkpt lat="43.4755" lon="3.51297">
        <ele>119.3</ele>
        <time>2018-09-25T19:36:36.819Z</time>
      </trkpt>
      <trkpt lat="43.47547" lon="3.51299">
        <ele>119.2</ele>
        <time>2018-09-25T19:36:37.819Z</time>
      </trkpt>
      <trkpt lat="43.47544" lon="3.51302">
        <ele>119.3</ele>
        <time>2018-09-25T19:36:38.819Z</time>
      </trkpt>
      <trkpt lat="43.47542" lon="3.51306">
        <ele>119.2</ele>
        <time>2018-09-25T19:36:39.819Z</time>
      </trkpt>
      <trkpt lat="43.47538" lon="3.5131">
        <ele>119</ele>
        <time>2018-09-25T19:36:40.819Z</time>
      </trkpt>
      <trkpt lat="43.47535" lon="3.51313">
        <ele>118.9</ele>
        <time>2018-09-25T19:36:41.819Z</time>
      </trkpt>
      <trkpt lat="43.47532" lon="3.51316">
        <ele>118.7</ele>
        <time>2018-09-25T19:36:42.819Z</time>
      </trkpt>
      <trkpt lat="43.47529" lon="3.51319">
        <ele>118.5</ele>
        <time>2018-09-25T19:36:44.819Z</time>
      </trkpt>
      <trkpt lat="43.47526" lon="3.5132">
        <ele>118.4</ele>
        <time>2018-09-25T19:36:45.819Z</time>
      </trkpt>
      <trkpt lat="43.47524" lon="3.51323">
        <ele>118.2</ele>
        <time>2018-09-25T19:36:46.819Z</time>
      </trkpt>
      <trkpt lat="43.47522" lon="3.51326">
        <ele>118</ele>
        <time>2018-09-25T19:36:47.819Z</time>
      </trkpt>
      <trkpt lat="43.47519" lon="3.51329">
        <ele>117.8</ele>
        <time>2018-09-25T19:36:48.819Z</time>
      </trkpt>
      <trkpt lat="43.47516" lon="3.51332">
        <ele>117.9</ele>
        <time>2018-09-25T19:36:49.819Z</time>
      </trkpt>
      <trkpt lat="43.47514" lon="3.51333">
        <ele>117.7</ele>
        <time>2018-09-25T19:36:50.819Z</time>
      </trkpt>
      <trkpt lat="43.4751" lon="3.51331">
        <ele>117.4</ele>
        <time>2018-09-25T19:36:52.819Z</time>
      </trkpt>
      <trkpt lat="43.47507" lon="3.51327">
        <ele>117.4</ele>
        <time>2018-09-25T19:36:53.819Z</time>
      </trkpt>
      <trkpt lat="43.47506" lon="3.51324">
        <ele>117.2</ele>
        <time>2018-09-25T19:36:54.819Z</time>
      </trkpt>
      <trkpt lat="43.47506" lon="3.51319">
        <ele>117.3</ele>
        <time>2018-09-25T19:36:55.819Z</time>
      </trkpt>
      <trkpt lat="43.47508" lon="3.51311">
        <ele>117.5</ele>
        <time>2018-09-25T19:36:56.819Z</time>
      </trkpt>
      <trkpt lat="43.47508" lon="3.51302">
        <ele>117.6</ele>
        <time>2018-09-25T19:36:57.819Z</time>
      </trkpt>
      <trkpt lat="43.47509" lon="3.51294">
        <ele>117.7</ele>
        <time>2018-09-25T19:36:58.819Z</time>
      </trkpt>
      <trkpt lat="43.47509" lon="3.51287">
        <ele>117.8</ele>
        <time>2018-09-25T19:36:59.819Z</time>
      </trkpt>
      <trkpt lat="43.4751" lon="3.5128">
        <ele>117.8</ele>
        <time>2018-09-25T19:37:00.819Z</time>
      </trkpt>
      <trkpt lat="43.4751" lon="3.51274">
        <ele>118.1</ele>
        <time>2018-09-25T19:37:01.819Z</time>
      </trkpt>
      <trkpt lat="43.4751" lon="3.51268">
        <ele>118.1</ele>
        <time>2018-09-25T19:37:02.819Z</time>
      </trkpt>
      <trkpt lat="43.4751" lon="3.51262">
        <ele>118.2</ele>
        <time>2018-09-25T19:37:03.819Z</time>
      </trkpt>
      <trkpt lat="43.4751" lon="3.51256">
        <ele>118.3</ele>
        <time>2018-09-25T19:37:04.819Z</time>
      </trkpt>
      <trkpt lat="43.4751" lon="3.51251">
        <ele>118.4</ele>
        <time>2018-09-25T19:37:05.819Z</time>
      </trkpt>
      <trkpt lat="43.4751" lon="3.51245">
        <ele>118.6</ele>
        <time>2018-09-25T19:37:06.819Z</time>
      </trkpt>
      <trkpt lat="43.4751" lon="3.51239">
        <ele>118.6</ele>
        <time>2018-09-25T19:37:07.819Z</time>
      </trkpt>
      <trkpt lat="43.4751" lon="3.51234">
        <ele>118.7</ele>
        <time>2018-09-25T19:37:08.819Z</time>
      </trkpt>
      <trkpt lat="43.4751" lon="3.51228">
        <ele>118.8</ele>
        <time>2018-09-25T19:37:09.819Z</time>
      </trkpt>
      <trkpt lat="43.47509" lon="3.51223">
        <ele>118.9</ele>
        <time>2018-09-25T19:37:10.819Z</time>
      </trkpt>
      <trkpt lat="43.47509" lon="3.51217">
        <ele>119</ele>
        <time>2018-09-25T19:37:11.819Z</time>
      </trkpt>
      <trkpt lat="43.47509" lon="3.51211">
        <ele>119.1</ele>
        <time>2018-09-25T19:37:12.819Z</time>
      </trkpt>
      <trkpt lat="43.47509" lon="3.51205">
        <ele>119.2</ele>
        <time>2018-09-25T19:37:13.819Z</time>
      </trkpt>
      <trkpt lat="43.47508" lon="3.512">
        <ele>119.3</ele>
        <time>2018-09-25T19:37:14.819Z</time>
      </trkpt>
      <trkpt lat="43.47508" lon="3.51194">
        <ele>119.4</ele>
        <time>2018-09-25T19:37:15.819Z</time>
      </trkpt>
      <trkpt lat="43.47508" lon="3.51188">
        <ele>119.5</ele>
        <time>2018-09-25T19:37:16.819Z</time>
      </trkpt>
      <trkpt lat="43.47508" lon="3.51183">
        <ele>119.6</ele>
        <time>2018-09-25T19:37:17.819Z</time>
      </trkpt>
      <trkpt lat="43.47508" lon="3.51178">
        <ele>119.7</ele>
        <time>2018-09-25T19:37:18.819Z</time>
      </trkpt>
      <trkpt lat="43.47507" lon="3.51172">
        <ele>119.8</ele>
        <time>2018-09-25T19:37:19.819Z</time>
      </trkpt>
      <trkpt lat="43.47507" lon="3.51167">
        <ele>120.1</ele>
        <time>2018-09-25T19:37:20.819Z</time>
      </trkpt>
      <trkpt lat="43.47507" lon="3.51162">
        <ele>120.2</ele>
        <time>2018-09-25T19:37:21.819Z</time>
      </trkpt>
      <trkpt lat="43.47507" lon="3.51157">
        <ele>120.3</ele>
        <time>2018-09-25T19:37:22.819Z</time>
      </trkpt>
      <trkpt lat="43.47507" lon="3.51151">
        <ele>120.5</ele>
        <time>2018-09-25T19:37:23.819Z</time>
      </trkpt>
      <trkpt lat="43.47507" lon="3.51146">
        <ele>120.7</ele>
        <time>2018-09-25T19:37:24.819Z</time>
      </trkpt>
      <trkpt lat="43.47507" lon="3.51141">
        <ele>120.9</ele>
        <time>2018-09-25T19:37:25.819Z</time>
      </trkpt>
      <trkpt lat="43.47507" lon="3.51136">
        <ele>121</ele>
        <time>2018-09-25T19:37:26.819Z</time>
      </trkpt>
      <trkpt lat="43.47506" lon="3.51131">
        <ele>121.2</ele>
        <time>2018-09-25T19:37:27.819Z</time>
      </trkpt>
      <trkpt lat="43.47506" lon="3.51126">
        <ele>121.4</ele>
        <time>2018-09-25T19:37:28.819Z</time>
      </trkpt>
      <trkpt lat="43.47506" lon="3.51121">
        <ele>121.5</ele>
        <time>2018-09-25T19:37:29.819Z</time>
      </trkpt>
      <trkpt lat="43.47506" lon="3.51116">
        <ele>121.9</ele>
        <time>2018-09-25T19:37:30.819Z</time>
      </trkpt>
      <trkpt lat="43.47505" lon="3.5111">
        <ele>122</ele>
        <time>2018-09-25T19:37:31.819Z</time>
      </trkpt>
      <trkpt lat="43.47504" lon="3.51105">
        <ele>122.2</ele>
        <time>2018-09-25T19:37:32.819Z</time>
      </trkpt>
      <trkpt lat="43.47504" lon="3.51099">
        <ele>122.3</ele>
        <time>2018-09-25T19:37:33.819Z</time>
      </trkpt>
      <trkpt lat="43.47504" lon="3.51094">
        <ele>122.7</ele>
        <time>2018-09-25T19:37:34.819Z</time>
      </trkpt>
      <trkpt lat="43.47503" lon="3.51089">
        <ele>122.8</ele>
        <time>2018-09-25T19:37:35.819Z</time>
      </trkpt>
      <trkpt lat="43.47503" lon="3.51085">
        <ele>123</ele>
        <time>2018-09-25T19:37:36.819Z</time>
      </trkpt>
      <trkpt lat="43.47503" lon="3.51079">
        <ele>123.2</ele>
        <time>2018-09-25T19:37:37.819Z</time>
      </trkpt>
      <trkpt lat="43.47502" lon="3.51074">
        <ele>123.4</ele>
        <time>2018-09-25T19:37:38.819Z</time>
      </trkpt>
      <trkpt lat="43.47502" lon="3.51069">
        <ele>123.6</ele>
        <time>2018-09-25T19:37:39.819Z</time>
      </trkpt>
      <trkpt lat="43.47501" lon="3.51064">
        <ele>123.9</ele>
        <time>2018-09-25T19:37:40.819Z</time>
      </trkpt>
      <trkpt lat="43.475" lon="3.51059">
        <ele>124.1</ele>
        <time>2018-09-25T19:37:41.819Z</time>
      </trkpt>
      <trkpt lat="43.47499" lon="3.51054">
        <ele>124.3</ele>
        <time>2018-09-25T19:37:42.819Z</time>
      </trkpt>
      <trkpt lat="43.47499" lon="3.51049">
        <ele>124.5</ele>
        <time>2018-09-25T19:37:43.819Z</time>
      </trkpt>
      <trkpt lat="43.47499" lon="3.51045">
        <ele>124.7</ele>
        <time>2018-09-25T19:37:44.819Z</time>
      </trkpt>
      <trkpt lat="43.47498" lon="3.5104">
        <ele>124.9</ele>
        <time>2018-09-25T19:37:45.819Z</time>
      </trkpt>
      <trkpt lat="43.47498" lon="3.51035">
        <ele>125.1</ele>
        <time>2018-09-25T19:37:46.819Z</time>
      </trkpt>
      <trkpt lat="43.47498" lon="3.51031">
        <ele>125.3</ele>
        <time>2018-09-25T19:37:47.819Z</time>
      </trkpt>
      <trkpt lat="43.47497" lon="3.51026">
        <ele>125.5</ele>
        <time>2018-09-25T19:37:48.819Z</time>
      </trkpt>
      <trkpt lat="43.47497" lon="3.51022">
        <ele>125.8</ele>
        <time>2018-09-25T19:37:49.819Z</time>
      </trkpt>
      <trkpt lat="43.47497" lon="3.51018">
        <ele>125.8</ele>
        <time>2018-09-25T19:37:50.819Z</time>
      </trkpt>
      <trkpt lat="43.47497" lon="3.51013">
        <ele>126.2</ele>
        <time>2018-09-25T19:37:51.819Z</time>
      </trkpt>
      <trkpt lat="43.47496" lon="3.51009">
        <ele>126.3</ele>
        <time>2018-09-25T19:37:52.819Z</time>
      </trkpt>
      <trkpt lat="43.47496" lon="3.51004">
        <ele>126.5</ele>
        <time>2018-09-25T19:37:53.819Z</time>
      </trkpt>
      <trkpt lat="43.47497" lon="3.50999">
        <ele>126.6</ele>
        <time>2018-09-25T19:37:54.819Z</time>
      </trkpt>
      <trkpt lat="43.47497" lon="3.50994">
        <ele>126.8</ele>
        <time>2018-09-25T19:37:55.819Z</time>
      </trkpt>
      <trkpt lat="43.47497" lon="3.5099">
        <ele>127</ele>
        <time>2018-09-25T19:37:56.819Z</time>
      </trkpt>
      <trkpt lat="43.47497" lon="3.50985">
        <ele>127.1</ele>
        <time>2018-09-25T19:37:57.819Z</time>
      </trkpt>
      <trkpt lat="43.47496" lon="3.50981">
        <ele>127.3</ele>
        <time>2018-09-25T19:37:58.819Z</time>
      </trkpt>
      <trkpt lat="43.47496" lon="3.50977">
        <ele>127.4</ele>
        <time>2018-09-25T19:37:59.819Z</time>
      </trkpt>
      <trkpt lat="43.47496" lon="3.50973">
        <ele>127.5</ele>
        <time>2018-09-25T19:38:00.819Z</time>
      </trkpt>
      <trkpt lat="43.47496" lon="3.50968">
        <ele>127.7</ele>
        <time>2018-09-25T19:38:01.819Z</time>
      </trkpt>
      <trkpt lat="43.47495" lon="3.50964">
        <ele>127.8</ele>
        <time>2018-09-25T19:38:02.819Z</time>
      </trkpt>
      <trkpt lat="43.47495" lon="3.5096">
        <ele>127.9</ele>
        <time>2018-09-25T19:38:03.819Z</time>
      </trkpt>
      <trkpt lat="43.47495" lon="3.50955">
        <ele>128</ele>
        <time>2018-09-25T19:38:04.819Z</time>
      </trkpt>
      <trkpt lat="43.47495" lon="3.5095">
        <ele>128.1</ele>
        <time>2018-09-25T19:38:05.819Z</time>
      </trkpt>
      <trkpt lat="43.47494" lon="3.50946">
        <ele>128.2</ele>
        <time>2018-09-25T19:38:06.819Z</time>
      </trkpt>
      <trkpt lat="43.47494" lon="3.50941">
        <ele>128.2</ele>
        <time>2018-09-25T19:38:07.819Z</time>
      </trkpt>
      <trkpt lat="43.47494" lon="3.50936">
        <ele>128.2</ele>
        <time>2018-09-25T19:38:08.819Z</time>
      </trkpt>
      <trkpt lat="43.47493" lon="3.50931">
        <ele>128.3</ele>
        <time>2018-09-25T19:38:09.819Z</time>
      </trkpt>
      <trkpt lat="43.47493" lon="3.50926">
        <ele>128.2</ele>
        <time>2018-09-25T19:38:10.819Z</time>
      </trkpt>
      <trkpt lat="43.47493" lon="3.5092">
        <ele>128.2</ele>
        <time>2018-09-25T19:38:11.819Z</time>
      </trkpt>
      <trkpt lat="43.47493" lon="3.50915">
        <ele>128.2</ele>
        <time>2018-09-25T19:38:12.819Z</time>
      </trkpt>
      <trkpt lat="43.47492" lon="3.5091">
        <ele>128.1</ele>
        <time>2018-09-25T19:38:13.819Z</time>
      </trkpt>
      <trkpt lat="43.47492" lon="3.50904">
        <ele>128</ele>
        <time>2018-09-25T19:38:14.819Z</time>
      </trkpt>
      <trkpt lat="43.47492" lon="3.50899">
        <ele>128</ele>
        <time>2018-09-25T19:38:15.819Z</time>
      </trkpt>
      <trkpt lat="43.47491" lon="3.50894">
        <ele>127.9</ele>
        <time>2018-09-25T19:38:16.819Z</time>
      </trkpt>
      <trkpt lat="43.47491" lon="3.50889">
        <ele>127.8</ele>
        <time>2018-09-25T19:38:17.819Z</time>
      </trkpt>
      <trkpt lat="43.47491" lon="3.50884">
        <ele>127.5</ele>
        <time>2018-09-25T19:38:18.819Z</time>
      </trkpt>
      <trkpt lat="43.47491" lon="3.5088">
        <ele>127.4</ele>
        <time>2018-09-25T19:38:19.819Z</time>
      </trkpt>
      <trkpt lat="43.4749" lon="3.50875">
        <ele>127.4</ele>
        <time>2018-09-25T19:38:20.819Z</time>
      </trkpt>
      <trkpt lat="43.4749" lon="3.50869">
        <ele>127.3</ele>
        <time>2018-09-25T19:38:21.819Z</time>
      </trkpt>
      <trkpt lat="43.47489" lon="3.50864">
        <ele>127.2</ele>
        <time>2018-09-25T19:38:22.819Z</time>
      </trkpt>
      <trkpt lat="43.47489" lon="3.50858">
        <ele>127</ele>
        <time>2018-09-25T19:38:23.819Z</time>
      </trkpt>
      <trkpt lat="43.47489" lon="3.50852">
        <ele>126.9</ele>
        <time>2018-09-25T19:38:24.819Z</time>
      </trkpt>
      <trkpt lat="43.47488" lon="3.50846">
        <ele>126.8</ele>
        <time>2018-09-25T19:38:25.819Z</time>
      </trkpt>
      <trkpt lat="43.47488" lon="3.5084">
        <ele>126.6</ele>
        <time>2018-09-25T19:38:26.819Z</time>
      </trkpt>
      <trkpt lat="43.47487" lon="3.50832">
        <ele>126.4</ele>
        <time>2018-09-25T19:38:27.819Z</time>
      </trkpt>
      <trkpt lat="43.47486" lon="3.50825">
        <ele>126.3</ele>
        <time>2018-09-25T19:38:28.819Z</time>
      </trkpt>
      <trkpt lat="43.47486" lon="3.50818">
        <ele>126.1</ele>
        <time>2018-09-25T19:38:29.819Z</time>
      </trkpt>
      <trkpt lat="43.47486" lon="3.5081">
        <ele>125.9</ele>
        <time>2018-09-25T19:38:30.819Z</time>
      </trkpt>
      <trkpt lat="43.47486" lon="3.50802">
        <ele>125.7</ele>
        <time>2018-09-25T19:38:31.819Z</time>
      </trkpt>
      <trkpt lat="43.47484" lon="3.5079">
        <ele>125.2</ele>
        <time>2018-09-25T19:38:32.819Z</time>
      </trkpt>
      <trkpt lat="43.47484" lon="3.50779">
        <ele>125</ele>
        <time>2018-09-25T19:38:33.819Z</time>
      </trkpt>
      <trkpt lat="43.47483" lon="3.5077">
        <ele>124.9</ele>
        <time>2018-09-25T19:38:34.819Z</time>
      </trkpt>
      <trkpt lat="43.47482" lon="3.50761">
        <ele>124.7</ele>
        <time>2018-09-25T19:38:35.819Z</time>
      </trkpt>
      <trkpt lat="43.47482" lon="3.50751">
        <ele>124.5</ele>
        <time>2018-09-25T19:38:36.819Z</time>
      </trkpt>
      <trkpt lat="43.47481" lon="3.50743">
        <ele>124.3</ele>
        <time>2018-09-25T19:38:37.819Z</time>
      </trkpt>
      <trkpt lat="43.4748" lon="3.50735">
        <ele>124.3</ele>
        <time>2018-09-25T19:38:38.819Z</time>
      </trkpt>
      <trkpt lat="43.47479" lon="3.50727">
        <ele>124.2</ele>
        <time>2018-09-25T19:38:39.819Z</time>
      </trkpt>
      <trkpt lat="43.47478" lon="3.50719">
        <ele>124.1</ele>
        <time>2018-09-25T19:38:40.819Z</time>
      </trkpt>
      <trkpt lat="43.47478" lon="3.50712">
        <ele>124.1</ele>
        <time>2018-09-25T19:38:41.819Z</time>
      </trkpt>
      <trkpt lat="43.47477" lon="3.50705">
        <ele>124</ele>
        <time>2018-09-25T19:38:42.819Z</time>
      </trkpt>
      <trkpt lat="43.47477" lon="3.507">
        <ele>124</ele>
        <time>2018-09-25T19:38:43.819Z</time>
      </trkpt>
      <trkpt lat="43.47477" lon="3.50693">
        <ele>124</ele>
        <time>2018-09-25T19:38:44.819Z</time>
      </trkpt>
      <trkpt lat="43.47476" lon="3.50688">
        <ele>124</ele>
        <time>2018-09-25T19:38:45.819Z</time>
      </trkpt>
      <trkpt lat="43.47475" lon="3.50682">
        <ele>123.9</ele>
        <time>2018-09-25T19:38:46.819Z</time>
      </trkpt>
      <trkpt lat="43.47475" lon="3.50676">
        <ele>123.9</ele>
        <time>2018-09-25T19:38:47.819Z</time>
      </trkpt>
      <trkpt lat="43.47474" lon="3.50671">
        <ele>123.9</ele>
        <time>2018-09-25T19:38:48.819Z</time>
      </trkpt>
      <trkpt lat="43.47474" lon="3.50665">
        <ele>123.9</ele>
        <time>2018-09-25T19:38:49.819Z</time>
      </trkpt>
      <trkpt lat="43.47473" lon="3.50659">
        <ele>123.9</ele>
        <time>2018-09-25T19:38:50.819Z</time>
      </trkpt>
      <trkpt lat="43.47472" lon="3.50653">
        <ele>123.9</ele>
        <time>2018-09-25T19:38:51.819Z</time>
      </trkpt>
      <trkpt lat="43.47472" lon="3.50647">
        <ele>123.8</ele>
        <time>2018-09-25T19:38:52.819Z</time>
      </trkpt>
      <trkpt lat="43.47471" lon="3.5064">
        <ele>123.8</ele>
        <time>2018-09-25T19:38:53.819Z</time>
      </trkpt>
      <trkpt lat="43.47471" lon="3.50634">
        <ele>123.8</ele>
        <time>2018-09-25T19:38:54.819Z</time>
      </trkpt>
      <trkpt lat="43.4747" lon="3.50628">
        <ele>123.8</ele>
        <time>2018-09-25T19:38:55.819Z</time>
      </trkpt>
      <trkpt lat="43.4747" lon="3.50622">
        <ele>123.8</ele>
        <time>2018-09-25T19:38:56.819Z</time>
      </trkpt>
      <trkpt lat="43.47469" lon="3.50617">
        <ele>123.7</ele>
        <time>2018-09-25T19:38:57.819Z</time>
      </trkpt>
      <trkpt lat="43.47469" lon="3.50611">
        <ele>123.7</ele>
        <time>2018-09-25T19:38:58.819Z</time>
      </trkpt>
      <trkpt lat="43.47468" lon="3.50606">
        <ele>123.6</ele>
        <time>2018-09-25T19:38:59.819Z</time>
      </trkpt>
      <trkpt lat="43.47468" lon="3.506">
        <ele>123.6</ele>
        <time>2018-09-25T19:39:00.819Z</time>
      </trkpt>
      <trkpt lat="43.47467" lon="3.50594">
        <ele>123.5</ele>
        <time>2018-09-25T19:39:01.819Z</time>
      </trkpt>
      <trkpt lat="43.47467" lon="3.50588">
        <ele>123.4</ele>
        <time>2018-09-25T19:39:02.819Z</time>
      </trkpt>
      <trkpt lat="43.47466" lon="3.50583">
        <ele>123.3</ele>
        <time>2018-09-25T19:39:03.819Z</time>
      </trkpt>
      <trkpt lat="43.47466" lon="3.50577">
        <ele>123.2</ele>
        <time>2018-09-25T19:39:04.819Z</time>
      </trkpt>
      <trkpt lat="43.47465" lon="3.50572">
        <ele>123.1</ele>
        <time>2018-09-25T19:39:05.819Z</time>
      </trkpt>
      <trkpt lat="43.47465" lon="3.50567">
        <ele>123</ele>
        <time>2018-09-25T19:39:06.819Z</time>
      </trkpt>
      <trkpt lat="43.47464" lon="3.50563">
        <ele>122.9</ele>
        <time>2018-09-25T19:39:07.819Z</time>
      </trkpt>
      <trkpt lat="43.47464" lon="3.50557">
        <ele>122.8</ele>
        <time>2018-09-25T19:39:08.819Z</time>
      </trkpt>
      <trkpt lat="43.47464" lon="3.50552">
        <ele>122.7</ele>
        <time>2018-09-25T19:39:09.819Z</time>
      </trkpt>
      <trkpt lat="43.47463" lon="3.50546">
        <ele>122.6</ele>
        <time>2018-09-25T19:39:10.819Z</time>
      </trkpt>
      <trkpt lat="43.47463" lon="3.5054">
        <ele>122.5</ele>
        <time>2018-09-25T19:39:11.819Z</time>
      </trkpt>
      <trkpt lat="43.47463" lon="3.50534">
        <ele>122.4</ele>
        <time>2018-09-25T19:39:12.819Z</time>
      </trkpt>
      <trkpt lat="43.47463" lon="3.50529">
        <ele>122.3</ele>
        <time>2018-09-25T19:39:13.819Z</time>
      </trkpt>
      <trkpt lat="43.47463" lon="3.50523">
        <ele>122.2</ele>
        <time>2018-09-25T19:39:15.819Z</time>
      </trkpt>
      <trkpt lat="43.47463" lon="3.50516">
        <ele>122.2</ele>
        <time>2018-09-25T19:39:17.819Z</time>
      </trkpt>
      <trkpt lat="43.47464" lon="3.50512">
        <ele>122.2</ele>
        <time>2018-09-25T19:39:18.819Z</time>
      </trkpt>
      <trkpt lat="43.47464" lon="3.50509">
        <ele>122.2</ele>
        <time>2018-09-25T19:39:19.819Z</time>
      </trkpt>
      <trkpt lat="43.47465" lon="3.50504">
        <ele>122.1</ele>
        <time>2018-09-25T19:39:20.819Z</time>
      </trkpt>
      <trkpt lat="43.47465" lon="3.50501">
        <ele>122</ele>
        <time>2018-09-25T19:39:21.819Z</time>
      </trkpt>
      <trkpt lat="43.47463" lon="3.50496">
        <ele>121.9</ele>
        <time>2018-09-25T19:39:23.819Z</time>
      </trkpt>
      <trkpt lat="43.47457" lon="3.50498">
        <ele>121.8</ele>
        <time>2018-09-25T19:39:25.819Z</time>
      </trkpt>
      <trkpt lat="43.47454" lon="3.50502">
        <ele>121.7</ele>
        <time>2018-09-25T19:39:26.819Z</time>
      </trkpt>
      <trkpt lat="43.47451" lon="3.50506">
        <ele>121.7</ele>
        <time>2018-09-25T19:39:27.819Z</time>
      </trkpt>
      <trkpt lat="43.47448" lon="3.5051">
        <ele>121.6</ele>
        <time>2018-09-25T19:39:28.819Z</time>
      </trkpt>
      <trkpt lat="43.47444" lon="3.50516">
        <ele>121.5</ele>
        <time>2018-09-25T19:39:29.819Z</time>
      </trkpt>
      <trkpt lat="43.4744" lon="3.5052">
        <ele>121.5</ele>
        <time>2018-09-25T19:39:30.819Z</time>
      </trkpt>
      <trkpt lat="43.47436" lon="3.50526">
        <ele>121.5</ele>
        <time>2018-09-25T19:39:31.819Z</time>
      </trkpt>
      <trkpt lat="43.47434" lon="3.50532">
        <ele>121.5</ele>
        <time>2018-09-25T19:39:32.819Z</time>
      </trkpt>
      <trkpt lat="43.47431" lon="3.50537">
        <ele>121.6</ele>
        <time>2018-09-25T19:39:33.819Z</time>
      </trkpt>
      <trkpt lat="43.47428" lon="3.50541">
        <ele>121.5</ele>
        <time>2018-09-25T19:39:34.819Z</time>
      </trkpt>
      <trkpt lat="43.47425" lon="3.50545">
        <ele>121.4</ele>
        <time>2018-09-25T19:39:35.819Z</time>
      </trkpt>
      <trkpt lat="43.47422" lon="3.50549">
        <ele>121.3</ele>
        <time>2018-09-25T19:39:36.819Z</time>
      </trkpt>
      <trkpt lat="43.47419" lon="3.50552">
        <ele>121.3</ele>
        <time>2018-09-25T19:39:37.819Z</time>
      </trkpt>
      <trkpt lat="43.47417" lon="3.50556">
        <ele>121.4</ele>
        <time>2018-09-25T19:39:38.819Z</time>
      </trkpt>
      <trkpt lat="43.47414" lon="3.50561">
        <ele>121.3</ele>
        <time>2018-09-25T19:39:39.819Z</time>
      </trkpt>
      <trkpt lat="43.47411" lon="3.50565">
        <ele>121.2</ele>
        <time>2018-09-25T19:39:40.819Z</time>
      </trkpt>
      <trkpt lat="43.47409" lon="3.50569">
        <ele>121.2</ele>
        <time>2018-09-25T19:39:41.819Z</time>
      </trkpt>
      <trkpt lat="43.47406" lon="3.50574">
        <ele>121.1</ele>
        <time>2018-09-25T19:39:42.819Z</time>
      </trkpt>
      <trkpt lat="43.47404" lon="3.50578">
        <ele>121.2</ele>
        <time>2018-09-25T19:39:43.819Z</time>
      </trkpt>
      <trkpt lat="43.47402" lon="3.50582">
        <ele>121.2</ele>
        <time>2018-09-25T19:39:44.819Z</time>
      </trkpt>
      <trkpt lat="43.474" lon="3.50587">
        <ele>121</ele>
        <time>2018-09-25T19:39:45.819Z</time>
      </trkpt>
      <trkpt lat="43.47398" lon="3.50592">
        <ele>120.9</ele>
        <time>2018-09-25T19:39:46.819Z</time>
      </trkpt>
      <trkpt lat="43.47396" lon="3.50597">
        <ele>121</ele>
        <time>2018-09-25T19:39:47.819Z</time>
      </trkpt>
      <trkpt lat="43.47394" lon="3.50601">
        <ele>120.9</ele>
        <time>2018-09-25T19:39:48.819Z</time>
      </trkpt>
      <trkpt lat="43.47392" lon="3.50606">
        <ele>120.9</ele>
        <time>2018-09-25T19:39:49.819Z</time>
      </trkpt>
      <trkpt lat="43.4739" lon="3.50611">
        <ele>120.7</ele>
        <time>2018-09-25T19:39:50.819Z</time>
      </trkpt>
      <trkpt lat="43.47389" lon="3.50615">
        <ele>120.8</ele>
        <time>2018-09-25T19:39:51.819Z</time>
      </trkpt>
      <trkpt lat="43.47387" lon="3.5062">
        <ele>120.6</ele>
        <time>2018-09-25T19:39:52.819Z</time>
      </trkpt>
      <trkpt lat="43.47386" lon="3.50625">
        <ele>120.7</ele>
        <time>2018-09-25T19:39:53.819Z</time>
      </trkpt>
      <trkpt lat="43.47384" lon="3.50631">
        <ele>120.5</ele>
        <time>2018-09-25T19:39:54.819Z</time>
      </trkpt>
      <trkpt lat="43.47382" lon="3.50637">
        <ele>120.6</ele>
        <time>2018-09-25T19:39:55.819Z</time>
      </trkpt>
      <trkpt lat="43.4738" lon="3.50642">
        <ele>120.4</ele>
        <time>2018-09-25T19:39:56.819Z</time>
      </trkpt>
      <trkpt lat="43.47379" lon="3.50647">
        <ele>120.2</ele>
        <time>2018-09-25T19:39:57.819Z</time>
      </trkpt>
      <trkpt lat="43.47377" lon="3.50653">
        <ele>120.3</ele>
        <time>2018-09-25T19:39:58.819Z</time>
      </trkpt>
      <trkpt lat="43.47375" lon="3.50658">
        <ele>120.2</ele>
        <time>2018-09-25T19:39:59.819Z</time>
      </trkpt>
      <trkpt lat="43.47373" lon="3.50663">
        <ele>120.2</ele>
        <time>2018-09-25T19:40:00.819Z</time>
      </trkpt>
      <trkpt lat="43.47371" lon="3.50668">
        <ele>120</ele>
        <time>2018-09-25T19:40:01.819Z</time>
      </trkpt>
      <trkpt lat="43.4737" lon="3.50672">
        <ele>119.8</ele>
        <time>2018-09-25T19:40:02.819Z</time>
      </trkpt>
      <trkpt lat="43.47367" lon="3.50676">
        <ele>119.8</ele>
        <time>2018-09-25T19:40:03.819Z</time>
      </trkpt>
      <trkpt lat="43.47365" lon="3.50681">
        <ele>119.6</ele>
        <time>2018-09-25T19:40:04.819Z</time>
      </trkpt>
      <trkpt lat="43.47362" lon="3.50685">
        <ele>119.4</ele>
        <time>2018-09-25T19:40:05.819Z</time>
      </trkpt>
      <trkpt lat="43.47359" lon="3.50688">
        <ele>119.2</ele>
        <time>2018-09-25T19:40:06.819Z</time>
      </trkpt>
      <trkpt lat="43.47356" lon="3.50693">
        <ele>119.1</ele>
        <time>2018-09-25T19:40:07.819Z</time>
      </trkpt>
      <trkpt lat="43.47354" lon="3.50697">
        <ele>119.1</ele>
        <time>2018-09-25T19:40:08.819Z</time>
      </trkpt>
      <trkpt lat="43.47351" lon="3.50701">
        <ele>119</ele>
        <time>2018-09-25T19:40:09.819Z</time>
      </trkpt>
      <trkpt lat="43.47349" lon="3.50706">
        <ele>118.8</ele>
        <time>2018-09-25T19:40:10.819Z</time>
      </trkpt>
      <trkpt lat="43.47346" lon="3.5071">
        <ele>118.7</ele>
        <time>2018-09-25T19:40:11.819Z</time>
      </trkpt>
      <trkpt lat="43.47344" lon="3.50715">
        <ele>118.5</ele>
        <time>2018-09-25T19:40:12.819Z</time>
      </trkpt>
      <trkpt lat="43.47341" lon="3.50721">
        <ele>118.3</ele>
        <time>2018-09-25T19:40:13.819Z</time>
      </trkpt>
      <trkpt lat="43.47338" lon="3.50727">
        <ele>118.1</ele>
        <time>2018-09-25T19:40:14.819Z</time>
      </trkpt>
      <trkpt lat="43.47335" lon="3.50733">
        <ele>117.9</ele>
        <time>2018-09-25T19:40:15.819Z</time>
      </trkpt>
      <trkpt lat="43.47332" lon="3.50738">
        <ele>117.7</ele>
        <time>2018-09-25T19:40:16.819Z</time>
      </trkpt>
      <trkpt lat="43.47329" lon="3.50743">
        <ele>117.6</ele>
        <time>2018-09-25T19:40:17.819Z</time>
      </trkpt>
      <trkpt lat="43.47326" lon="3.50748">
        <ele>117.6</ele>
        <time>2018-09-25T19:40:18.819Z</time>
      </trkpt>
      <trkpt lat="43.47323" lon="3.50753">
        <ele>117.6</ele>
        <time>2018-09-25T19:40:19.819Z</time>
      </trkpt>
      <trkpt lat="43.4732" lon="3.50757">
        <ele>117.6</ele>
        <time>2018-09-25T19:40:20.819Z</time>
      </trkpt>
      <trkpt lat="43.47317" lon="3.50763">
        <ele>117.5</ele>
        <time>2018-09-25T19:40:21.819Z</time>
      </trkpt>
      <trkpt lat="43.47315" lon="3.50767">
        <ele>117.5</ele>
        <time>2018-09-25T19:40:22.819Z</time>
      </trkpt>
      <trkpt lat="43.47312" lon="3.50772">
        <ele>117.4</ele>
        <time>2018-09-25T19:40:23.819Z</time>
      </trkpt>
      <trkpt lat="43.47309" lon="3.50777">
        <ele>117.3</ele>
        <time>2018-09-25T19:40:24.819Z</time>
      </trkpt>
      <trkpt lat="43.47306" lon="3.50781">
        <ele>117.1</ele>
        <time>2018-09-25T19:40:25.819Z</time>
      </trkpt>
      <trkpt lat="43.47304" lon="3.50785">
        <ele>117</ele>
        <time>2018-09-25T19:40:26.819Z</time>
      </trkpt>
      <trkpt lat="43.47301" lon="3.5079">
        <ele>116.9</ele>
        <time>2018-09-25T19:40:27.819Z</time>
      </trkpt>
      <trkpt lat="43.47298" lon="3.50794">
        <ele>117</ele>
        <time>2018-09-25T19:40:28.819Z</time>
      </trkpt>
      <trkpt lat="43.47296" lon="3.50798">
        <ele>116.9</ele>
        <time>2018-09-25T19:40:29.819Z</time>
      </trkpt>
      <trkpt lat="43.47294" lon="3.50802">
        <ele>116.9</ele>
        <time>2018-09-25T19:40:30.819Z</time>
      </trkpt>
      <trkpt lat="43.47291" lon="3.50807">
        <ele>116.8</ele>
        <time>2018-09-25T19:40:31.819Z</time>
      </trkpt>
      <trkpt lat="43.47288" lon="3.50811">
        <ele>116.8</ele>
        <time>2018-09-25T19:40:32.819Z</time>
      </trkpt>
      <trkpt lat="43.47286" lon="3.50815">
        <ele>116.9</ele>
        <time>2018-09-25T19:40:33.819Z</time>
      </trkpt>
      <trkpt lat="43.47283" lon="3.50819">
        <ele>116.8</ele>
        <time>2018-09-25T19:40:34.819Z</time>
      </trkpt>
      <trkpt lat="43.4728" lon="3.50823">
        <ele>116.7</ele>
        <time>2018-09-25T19:40:35.819Z</time>
      </trkpt>
      <trkpt lat="43.47278" lon="3.50827">
        <ele>116.6</ele>
        <time>2018-09-25T19:40:36.819Z</time>
      </trkpt>
      <trkpt lat="43.47275" lon="3.5083">
        <ele>116.4</ele>
        <time>2018-09-25T19:40:37.819Z</time>
      </trkpt>
      <trkpt lat="43.47273" lon="3.50834">
        <ele>116.2</ele>
        <time>2018-09-25T19:40:38.819Z</time>
      </trkpt>
      <trkpt lat="43.47269" lon="3.50837">
        <ele>116</ele>
        <time>2018-09-25T19:40:39.819Z</time>
      </trkpt>
      <trkpt lat="43.47266" lon="3.50841">
        <ele>115.7</ele>
        <time>2018-09-25T19:40:40.819Z</time>
      </trkpt>
      <trkpt lat="43.47262" lon="3.50845">
        <ele>115.5</ele>
        <time>2018-09-25T19:40:41.819Z</time>
      </trkpt>
      <trkpt lat="43.47259" lon="3.5085">
        <ele>115.2</ele>
        <time>2018-09-25T19:40:42.819Z</time>
      </trkpt>
      <trkpt lat="43.47256" lon="3.50856">
        <ele>114.9</ele>
        <time>2018-09-25T19:40:43.819Z</time>
      </trkpt>
      <trkpt lat="43.47253" lon="3.50862">
        <ele>114.5</ele>
        <time>2018-09-25T19:40:44.819Z</time>
      </trkpt>
      <trkpt lat="43.4725" lon="3.50868">
        <ele>114</ele>
        <time>2018-09-25T19:40:45.819Z</time>
      </trkpt>
      <trkpt lat="43.47247" lon="3.50873">
        <ele>113.7</ele>
        <time>2018-09-25T19:40:46.819Z</time>
      </trkpt>
      <trkpt lat="43.47244" lon="3.50879">
        <ele>113.3</ele>
        <time>2018-09-25T19:40:47.819Z</time>
      </trkpt>
      <trkpt lat="43.47241" lon="3.50884">
        <ele>113</ele>
        <time>2018-09-25T19:40:48.819Z</time>
      </trkpt>
      <trkpt lat="43.47239" lon="3.5089">
        <ele>112.9</ele>
        <time>2018-09-25T19:40:49.819Z</time>
      </trkpt>
      <trkpt lat="43.47237" lon="3.50897">
        <ele>112.6</ele>
        <time>2018-09-25T19:40:50.819Z</time>
      </trkpt>
      <trkpt lat="43.47235" lon="3.50904">
        <ele>112.2</ele>
        <time>2018-09-25T19:40:51.819Z</time>
      </trkpt>
      <trkpt lat="43.47232" lon="3.50911">
        <ele>111.9</ele>
        <time>2018-09-25T19:40:52.819Z</time>
      </trkpt>
      <trkpt lat="43.4723" lon="3.50919">
        <ele>111.8</ele>
        <time>2018-09-25T19:40:53.819Z</time>
      </trkpt>
      <trkpt lat="43.47228" lon="3.50927">
        <ele>111.5</ele>
        <time>2018-09-25T19:40:54.819Z</time>
      </trkpt>
      <trkpt lat="43.47225" lon="3.50935">
        <ele>111.2</ele>
        <time>2018-09-25T19:40:55.819Z</time>
      </trkpt>
      <trkpt lat="43.47223" lon="3.50943">
        <ele>110.9</ele>
        <time>2018-09-25T19:40:56.819Z</time>
      </trkpt>
      <trkpt lat="43.47221" lon="3.5095">
        <ele>110.7</ele>
        <time>2018-09-25T19:40:57.819Z</time>
      </trkpt>
      <trkpt lat="43.47219" lon="3.50957">
        <ele>110.6</ele>
        <time>2018-09-25T19:40:58.819Z</time>
      </trkpt>
      <trkpt lat="43.47217" lon="3.50962">
        <ele>110.5</ele>
        <time>2018-09-25T19:40:59.819Z</time>
      </trkpt>
      <trkpt lat="43.47215" lon="3.50966">
        <ele>110.3</ele>
        <time>2018-09-25T19:41:00.819Z</time>
      </trkpt>
      <trkpt lat="43.47213" lon="3.5097">
        <ele>110.2</ele>
        <time>2018-09-25T19:41:01.819Z</time>
      </trkpt>
      <trkpt lat="43.47211" lon="3.50975">
        <ele>110.1</ele>
        <time>2018-09-25T19:41:02.819Z</time>
      </trkpt>
      <trkpt lat="43.47211" lon="3.5098">
        <ele>110</ele>
        <time>2018-09-25T19:41:03.819Z</time>
      </trkpt>
      <trkpt lat="43.47211" lon="3.50986">
        <ele>109.8</ele>
        <time>2018-09-25T19:41:04.819Z</time>
      </trkpt>
      <trkpt lat="43.47211" lon="3.50992">
        <ele>109.7</ele>
        <time>2018-09-25T19:41:05.819Z</time>
      </trkpt>
      <trkpt lat="43.4721" lon="3.50999">
        <ele>109.5</ele>
        <time>2018-09-25T19:41:06.819Z</time>
      </trkpt>
      <trkpt lat="43.4721" lon="3.51006">
        <ele>109.3</ele>
        <time>2018-09-25T19:41:07.819Z</time>
      </trkpt>
      <trkpt lat="43.4721" lon="3.51013">
        <ele>109.2</ele>
        <time>2018-09-25T19:41:08.819Z</time>
      </trkpt>
      <trkpt lat="43.4721" lon="3.5102">
        <ele>109</ele>
        <time>2018-09-25T19:41:09.819Z</time>
      </trkpt>
      <trkpt lat="43.4721" lon="3.51027">
        <ele>108.7</ele>
        <time>2018-09-25T19:41:10.819Z</time>
      </trkpt>
      <trkpt lat="43.47211" lon="3.51034">
        <ele>108.6</ele>
        <time>2018-09-25T19:41:11.819Z</time>
      </trkpt>
      <trkpt lat="43.47211" lon="3.5104">
        <ele>108.4</ele>
        <time>2018-09-25T19:41:12.819Z</time>
      </trkpt>
      <trkpt lat="43.47211" lon="3.51046">
        <ele>108.3</ele>
        <time>2018-09-25T19:41:13.819Z</time>
      </trkpt>
      <trkpt lat="43.47211" lon="3.51052">
        <ele>108.1</ele>
        <time>2018-09-25T19:41:14.819Z</time>
      </trkpt>
      <trkpt lat="43.47211" lon="3.51058">
        <ele>108.1</ele>
        <time>2018-09-25T19:41:15.819Z</time>
      </trkpt>
      <trkpt lat="43.47211" lon="3.51064">
        <ele>108</ele>
        <time>2018-09-25T19:41:16.819Z</time>
      </trkpt>
      <trkpt lat="43.47211" lon="3.5107">
        <ele>107.8</ele>
        <time>2018-09-25T19:41:17.819Z</time>
      </trkpt>
      <trkpt lat="43.47211" lon="3.51076">
        <ele>107.8</ele>
        <time>2018-09-25T19:41:18.819Z</time>
      </trkpt>
      <trkpt lat="43.47211" lon="3.51081">
        <ele>107.7</ele>
        <time>2018-09-25T19:41:19.819Z</time>
      </trkpt>
      <trkpt lat="43.47211" lon="3.51087">
        <ele>107.6</ele>
        <time>2018-09-25T19:41:20.819Z</time>
      </trkpt>
      <trkpt lat="43.47211" lon="3.51093">
        <ele>107.5</ele>
        <time>2018-09-25T19:41:21.819Z</time>
      </trkpt>
      <trkpt lat="43.47211" lon="3.51099">
        <ele>107.4</ele>
        <time>2018-09-25T19:41:22.819Z</time>
      </trkpt>
      <trkpt lat="43.4721" lon="3.51105">
        <ele>107.2</ele>
        <time>2018-09-25T19:41:23.819Z</time>
      </trkpt>
      <trkpt lat="43.47209" lon="3.51111">
        <ele>107.1</ele>
        <time>2018-09-25T19:41:24.819Z</time>
      </trkpt>
      <trkpt lat="43.47208" lon="3.51118">
        <ele>106.9</ele>
        <time>2018-09-25T19:41:25.819Z</time>
      </trkpt>
      <trkpt lat="43.47206" lon="3.51124">
        <ele>106.7</ele>
        <time>2018-09-25T19:41:26.819Z</time>
      </trkpt>
      <trkpt lat="43.47205" lon="3.5113">
        <ele>106.5</ele>
        <time>2018-09-25T19:41:27.819Z</time>
      </trkpt>
      <trkpt lat="43.47203" lon="3.51136">
        <ele>106.2</ele>
        <time>2018-09-25T19:41:28.819Z</time>
      </trkpt>
      <trkpt lat="43.47201" lon="3.51142">
        <ele>106</ele>
        <time>2018-09-25T19:41:29.819Z</time>
      </trkpt>
      <trkpt lat="43.47199" lon="3.51148">
        <ele>105.9</ele>
        <time>2018-09-25T19:41:30.819Z</time>
      </trkpt>
      <trkpt lat="43.47197" lon="3.51153">
        <ele>105.6</ele>
        <time>2018-09-25T19:41:31.819Z</time>
      </trkpt>
      <trkpt lat="43.47195" lon="3.51159">
        <ele>105.5</ele>
        <time>2018-09-25T19:41:32.819Z</time>
      </trkpt>
      <trkpt lat="43.47193" lon="3.51165">
        <ele>105.3</ele>
        <time>2018-09-25T19:41:33.819Z</time>
      </trkpt>
      <trkpt lat="43.47191" lon="3.5117">
        <ele>105.1</ele>
        <time>2018-09-25T19:41:34.819Z</time>
      </trkpt>
      <trkpt lat="43.47189" lon="3.51176">
        <ele>104.9</ele>
        <time>2018-09-25T19:41:35.819Z</time>
      </trkpt>
      <trkpt lat="43.47186" lon="3.51182">
        <ele>104.8</ele>
        <time>2018-09-25T19:41:36.819Z</time>
      </trkpt>
      <trkpt lat="43.47184" lon="3.51188">
        <ele>104.5</ele>
        <time>2018-09-25T19:41:37.819Z</time>
      </trkpt>
      <trkpt lat="43.47181" lon="3.51194">
        <ele>104.3</ele>
        <time>2018-09-25T19:41:38.819Z</time>
      </trkpt>
      <trkpt lat="43.47179" lon="3.512">
        <ele>104</ele>
        <time>2018-09-25T19:41:39.819Z</time>
      </trkpt>
      <trkpt lat="43.47176" lon="3.51206">
        <ele>103.7</ele>
        <time>2018-09-25T19:41:40.819Z</time>
      </trkpt>
      <trkpt lat="43.47173" lon="3.51211">
        <ele>103.5</ele>
        <time>2018-09-25T19:41:41.819Z</time>
      </trkpt>
      <trkpt lat="43.4717" lon="3.51217">
        <ele>103.2</ele>
        <time>2018-09-25T19:41:42.819Z</time>
      </trkpt>
      <trkpt lat="43.47168" lon="3.51222">
        <ele>102.9</ele>
        <time>2018-09-25T19:41:43.819Z</time>
      </trkpt>
      <trkpt lat="43.47165" lon="3.51226">
        <ele>102.8</ele>
        <time>2018-09-25T19:41:44.819Z</time>
      </trkpt>
      <trkpt lat="43.47163" lon="3.51231">
        <ele>102.7</ele>
        <time>2018-09-25T19:41:45.819Z</time>
      </trkpt>
      <trkpt lat="43.4716" lon="3.51235">
        <ele>102.5</ele>
        <time>2018-09-25T19:41:46.819Z</time>
      </trkpt>
      <trkpt lat="43.47158" lon="3.51238">
        <ele>102.4</ele>
        <time>2018-09-25T19:41:47.819Z</time>
      </trkpt>
      <trkpt lat="43.47155" lon="3.51242">
        <ele>102.2</ele>
        <time>2018-09-25T19:41:48.819Z</time>
      </trkpt>
      <trkpt lat="43.47153" lon="3.51247">
        <ele>102.1</ele>
        <time>2018-09-25T19:41:49.819Z</time>
      </trkpt>
      <trkpt lat="43.47152" lon="3.51253">
        <ele>102.1</ele>
        <time>2018-09-25T19:41:50.819Z</time>
      </trkpt>
      <trkpt lat="43.47151" lon="3.5126">
        <ele>102</ele>
        <time>2018-09-25T19:41:51.819Z</time>
      </trkpt>
      <trkpt lat="43.47149" lon="3.51267">
        <ele>101.9</ele>
        <time>2018-09-25T19:41:52.819Z</time>
      </trkpt>
      <trkpt lat="43.47147" lon="3.51273">
        <ele>101.9</ele>
        <time>2018-09-25T19:41:53.819Z</time>
      </trkpt>
      <trkpt lat="43.47145" lon="3.51278">
        <ele>101.9</ele>
        <time>2018-09-25T19:41:54.819Z</time>
      </trkpt>
      <trkpt lat="43.47142" lon="3.51284">
        <ele>101.9</ele>
        <time>2018-09-25T19:41:55.819Z</time>
      </trkpt>
      <trkpt lat="43.4714" lon="3.5129">
        <ele>101.8</ele>
        <time>2018-09-25T19:41:56.819Z</time>
      </trkpt>
      <trkpt lat="43.47139" lon="3.51295">
        <ele>101.8</ele>
        <time>2018-09-25T19:41:57.819Z</time>
      </trkpt>
      <trkpt lat="43.47137" lon="3.513">
        <ele>101.8</ele>
        <time>2018-09-25T19:41:58.819Z</time>
      </trkpt>
      <trkpt lat="43.47135" lon="3.51305">
        <ele>101.8</ele>
        <time>2018-09-25T19:41:59.819Z</time>
      </trkpt>
      <trkpt lat="43.47133" lon="3.5131">
        <ele>101.7</ele>
        <time>2018-09-25T19:42:00.819Z</time>
      </trkpt>
      <trkpt lat="43.47132" lon="3.51315">
        <ele>101.7</ele>
        <time>2018-09-25T19:42:01.819Z</time>
      </trkpt>
      <trkpt lat="43.4713" lon="3.51321">
        <ele>101.7</ele>
        <time>2018-09-25T19:42:02.819Z</time>
      </trkpt>
      <trkpt lat="43.47127" lon="3.51327">
        <ele>101.6</ele>
        <time>2018-09-25T19:42:03.819Z</time>
      </trkpt>
      <trkpt lat="43.47126" lon="3.51334">
        <ele>101.5</ele>
        <time>2018-09-25T19:42:04.819Z</time>
      </trkpt>
      <trkpt lat="43.47125" lon="3.5134">
        <ele>101.4</ele>
        <time>2018-09-25T19:42:05.819Z</time>
      </trkpt>
      <trkpt lat="43.47123" lon="3.51346">
        <ele>101.3</ele>
        <time>2018-09-25T19:42:06.819Z</time>
      </trkpt>
      <trkpt lat="43.47121" lon="3.51353">
        <ele>101.2</ele>
        <time>2018-09-25T19:42:07.819Z</time>
      </trkpt>
      <trkpt lat="43.4712" lon="3.51359">
        <ele>101.1</ele>
        <time>2018-09-25T19:42:08.819Z</time>
      </trkpt>
      <trkpt lat="43.47118" lon="3.51365">
        <ele>101</ele>
        <time>2018-09-25T19:42:09.819Z</time>
      </trkpt>
      <trkpt lat="43.47117" lon="3.51371">
        <ele>101</ele>
        <time>2018-09-25T19:42:10.819Z</time>
      </trkpt>
      <trkpt lat="43.47115" lon="3.51378">
        <ele>101</ele>
        <time>2018-09-25T19:42:11.819Z</time>
      </trkpt>
      <trkpt lat="43.47114" lon="3.51384">
        <ele>101</ele>
        <time>2018-09-25T19:42:12.819Z</time>
      </trkpt>
      <trkpt lat="43.47113" lon="3.5139">
        <ele>100.9</ele>
        <time>2018-09-25T19:42:13.819Z</time>
      </trkpt>
      <trkpt lat="43.47112" lon="3.51395">
        <ele>100.8</ele>
        <time>2018-09-25T19:42:14.819Z</time>
      </trkpt>
      <trkpt lat="43.47111" lon="3.51402">
        <ele>100.7</ele>
        <time>2018-09-25T19:42:15.819Z</time>
      </trkpt>
      <trkpt lat="43.47109" lon="3.51407">
        <ele>100.7</ele>
        <time>2018-09-25T19:42:16.819Z</time>
      </trkpt>
      <trkpt lat="43.47108" lon="3.51413">
        <ele>100.6</ele>
        <time>2018-09-25T19:42:17.819Z</time>
      </trkpt>
      <trkpt lat="43.47107" lon="3.51418">
        <ele>100.5</ele>
        <time>2018-09-25T19:42:18.819Z</time>
      </trkpt>
      <trkpt lat="43.47105" lon="3.51423">
        <ele>100.4</ele>
        <time>2018-09-25T19:42:19.819Z</time>
      </trkpt>
      <trkpt lat="43.47104" lon="3.51429">
        <ele>100.3</ele>
        <time>2018-09-25T19:42:20.819Z</time>
      </trkpt>
      <trkpt lat="43.47103" lon="3.51434">
        <ele>100.2</ele>
        <time>2018-09-25T19:42:21.819Z</time>
      </trkpt>
      <trkpt lat="43.47102" lon="3.51439">
        <ele>100.3</ele>
        <time>2018-09-25T19:42:22.819Z</time>
      </trkpt>
      <trkpt lat="43.47101" lon="3.51444">
        <ele>100.2</ele>
        <time>2018-09-25T19:42:23.819Z</time>
      </trkpt>
      <trkpt lat="43.471" lon="3.51448">
        <ele>100.2</ele>
        <time>2018-09-25T19:42:24.819Z</time>
      </trkpt>
      <trkpt lat="43.47098" lon="3.51453">
        <ele>100.2</ele>
        <time>2018-09-25T19:42:25.819Z</time>
      </trkpt>
      <trkpt lat="43.47097" lon="3.51458">
        <ele>100.1</ele>
        <time>2018-09-25T19:42:26.819Z</time>
      </trkpt>
      <trkpt lat="43.47096" lon="3.51463">
        <ele>100</ele>
        <time>2018-09-25T19:42:27.819Z</time>
      </trkpt>
      <trkpt lat="43.47094" lon="3.51469">
        <ele>100.1</ele>
        <time>2018-09-25T19:42:28.819Z</time>
      </trkpt>
      <trkpt lat="43.47093" lon="3.51475">
        <ele>100.2</ele>
        <time>2018-09-25T19:42:29.819Z</time>
      </trkpt>
      <trkpt lat="43.47092" lon="3.51481">
        <ele>100.1</ele>
        <time>2018-09-25T19:42:30.819Z</time>
      </trkpt>
      <trkpt lat="43.4709" lon="3.51487">
        <ele>100</ele>
        <time>2018-09-25T19:42:31.819Z</time>
      </trkpt>
      <trkpt lat="43.47089" lon="3.51493">
        <ele>99.8</ele>
        <time>2018-09-25T19:42:32.819Z</time>
      </trkpt>
      <trkpt lat="43.47088" lon="3.515">
        <ele>99.7</ele>
        <time>2018-09-25T19:42:33.819Z</time>
      </trkpt>
      <trkpt lat="43.47086" lon="3.51507">
        <ele>99.8</ele>
        <time>2018-09-25T19:42:34.819Z</time>
      </trkpt>
      <trkpt lat="43.47085" lon="3.51513">
        <ele>99.6</ele>
        <time>2018-09-25T19:42:35.819Z</time>
      </trkpt>
      <trkpt lat="43.47084" lon="3.5152">
        <ele>99.4</ele>
        <time>2018-09-25T19:42:36.819Z</time>
      </trkpt>
      <trkpt lat="43.47082" lon="3.51527">
        <ele>99.3</ele>
        <time>2018-09-25T19:42:37.819Z</time>
      </trkpt>
      <trkpt lat="43.47081" lon="3.51534">
        <ele>99.3</ele>
        <time>2018-09-25T19:42:38.819Z</time>
      </trkpt>
      <trkpt lat="43.47079" lon="3.51541">
        <ele>99.3</ele>
        <time>2018-09-25T19:42:39.819Z</time>
      </trkpt>
      <trkpt lat="43.47078" lon="3.51548">
        <ele>99.3</ele>
        <time>2018-09-25T19:42:40.819Z</time>
      </trkpt>
      <trkpt lat="43.47077" lon="3.51554">
        <ele>99.2</ele>
        <time>2018-09-25T19:42:41.819Z</time>
      </trkpt>
      <trkpt lat="43.47076" lon="3.51561">
        <ele>99.2</ele>
        <time>2018-09-25T19:42:42.819Z</time>
      </trkpt>
      <trkpt lat="43.47075" lon="3.51568">
        <ele>99.2</ele>
        <time>2018-09-25T19:42:43.819Z</time>
      </trkpt>
      <trkpt lat="43.47074" lon="3.51575">
        <ele>99.3</ele>
        <time>2018-09-25T19:42:44.819Z</time>
      </trkpt>
      <trkpt lat="43.47073" lon="3.51581">
        <ele>99.3</ele>
        <time>2018-09-25T19:42:45.819Z</time>
      </trkpt>
      <trkpt lat="43.47072" lon="3.51587">
        <ele>99.3</ele>
        <time>2018-09-25T19:42:46.819Z</time>
      </trkpt>
      <trkpt lat="43.4707" lon="3.51594">
        <ele>99.5</ele>
        <time>2018-09-25T19:42:47.819Z</time>
      </trkpt>
      <trkpt lat="43.47069" lon="3.516">
        <ele>99.7</ele>
        <time>2018-09-25T19:42:48.819Z</time>
      </trkpt>
      <trkpt lat="43.47068" lon="3.51607">
        <ele>99.7</ele>
        <time>2018-09-25T19:42:49.819Z</time>
      </trkpt>
      <trkpt lat="43.47067" lon="3.51614">
        <ele>99.8</ele>
        <time>2018-09-25T19:42:50.819Z</time>
      </trkpt>
      <trkpt lat="43.47066" lon="3.51621">
        <ele>100</ele>
        <time>2018-09-25T19:42:51.819Z</time>
      </trkpt>
      <trkpt lat="43.47065" lon="3.51628">
        <ele>100.1</ele>
        <time>2018-09-25T19:42:52.819Z</time>
      </trkpt>
      <trkpt lat="43.47064" lon="3.51635">
        <ele>100.3</ele>
        <time>2018-09-25T19:42:53.819Z</time>
      </trkpt>
      <trkpt lat="43.47063" lon="3.51641">
        <ele>100.5</ele>
        <time>2018-09-25T19:42:54.819Z</time>
      </trkpt>
      <trkpt lat="43.47062" lon="3.51647">
        <ele>100.6</ele>
        <time>2018-09-25T19:42:55.819Z</time>
      </trkpt>
      <trkpt lat="43.47061" lon="3.51653">
        <ele>100.7</ele>
        <time>2018-09-25T19:42:56.819Z</time>
      </trkpt>
      <trkpt lat="43.4706" lon="3.51659">
        <ele>100.8</ele>
        <time>2018-09-25T19:42:57.819Z</time>
      </trkpt>
      <trkpt lat="43.4706" lon="3.51665">
        <ele>100.9</ele>
        <time>2018-09-25T19:42:58.819Z</time>
      </trkpt>
      <trkpt lat="43.47059" lon="3.51671">
        <ele>101.1</ele>
        <time>2018-09-25T19:42:59.819Z</time>
      </trkpt>
      <trkpt lat="43.47058" lon="3.51677">
        <ele>101.1</ele>
        <time>2018-09-25T19:43:00.819Z</time>
      </trkpt>
      <trkpt lat="43.47058" lon="3.51684">
        <ele>101.1</ele>
        <time>2018-09-25T19:43:01.819Z</time>
      </trkpt>
      <trkpt lat="43.47058" lon="3.5169">
        <ele>101.2</ele>
        <time>2018-09-25T19:43:02.819Z</time>
      </trkpt>
      <trkpt lat="43.47057" lon="3.51697">
        <ele>101.3</ele>
        <time>2018-09-25T19:43:03.819Z</time>
      </trkpt>
      <trkpt lat="43.47057" lon="3.51704">
        <ele>101.4</ele>
        <time>2018-09-25T19:43:04.819Z</time>
      </trkpt>
      <trkpt lat="43.47056" lon="3.51711">
        <ele>101.5</ele>
        <time>2018-09-25T19:43:05.819Z</time>
      </trkpt>
      <trkpt lat="43.47056" lon="3.51717">
        <ele>101.6</ele>
        <time>2018-09-25T19:43:06.819Z</time>
      </trkpt>
      <trkpt lat="43.47056" lon="3.51724">
        <ele>101.6</ele>
        <time>2018-09-25T19:43:07.819Z</time>
      </trkpt>
      <trkpt lat="43.47056" lon="3.5173">
        <ele>101.7</ele>
        <time>2018-09-25T19:43:08.819Z</time>
      </trkpt>
      <trkpt lat="43.47056" lon="3.51736">
        <ele>101.7</ele>
        <time>2018-09-25T19:43:09.819Z</time>
      </trkpt>
      <trkpt lat="43.47055" lon="3.51743">
        <ele>101.8</ele>
        <time>2018-09-25T19:43:10.819Z</time>
      </trkpt>
      <trkpt lat="43.47055" lon="3.5175">
        <ele>101.8</ele>
        <time>2018-09-25T19:43:11.819Z</time>
      </trkpt>
      <trkpt lat="43.47055" lon="3.51758">
        <ele>101.9</ele>
        <time>2018-09-25T19:43:12.819Z</time>
      </trkpt>
      <trkpt lat="43.47055" lon="3.51765">
        <ele>101.8</ele>
        <time>2018-09-25T19:43:13.819Z</time>
      </trkpt>
      <trkpt lat="43.47055" lon="3.51773">
        <ele>101.8</ele>
        <time>2018-09-25T19:43:14.819Z</time>
      </trkpt>
      <trkpt lat="43.47056" lon="3.5178">
        <ele>101.7</ele>
        <time>2018-09-25T19:43:15.819Z</time>
      </trkpt>
      <trkpt lat="43.47056" lon="3.51788">
        <ele>101.7</ele>
        <time>2018-09-25T19:43:16.819Z</time>
      </trkpt>
      <trkpt lat="43.47056" lon="3.51795">
        <ele>101.6</ele>
        <time>2018-09-25T19:43:17.819Z</time>
      </trkpt>
      <trkpt lat="43.47056" lon="3.51802">
        <ele>101.6</ele>
        <time>2018-09-25T19:43:18.819Z</time>
      </trkpt>
      <trkpt lat="43.47056" lon="3.51809">
        <ele>101.5</ele>
        <time>2018-09-25T19:43:19.819Z</time>
      </trkpt>
      <trkpt lat="43.47056" lon="3.51816">
        <ele>101.5</ele>
        <time>2018-09-25T19:43:20.819Z</time>
      </trkpt>
      <trkpt lat="43.47058" lon="3.51825">
        <ele>101.5</ele>
        <time>2018-09-25T19:43:21.819Z</time>
      </trkpt>
      <trkpt lat="43.47058" lon="3.51831">
        <ele>101.5</ele>
        <time>2018-09-25T19:43:22.819Z</time>
      </trkpt>
      <trkpt lat="43.47059" lon="3.51838">
        <ele>101.5</ele>
        <time>2018-09-25T19:43:23.819Z</time>
      </trkpt>
      <trkpt lat="43.47059" lon="3.51847">
        <ele>101.5</ele>
        <time>2018-09-25T19:43:24.819Z</time>
      </trkpt>
      <trkpt lat="43.4706" lon="3.51855">
        <ele>101.5</ele>
        <time>2018-09-25T19:43:25.819Z</time>
      </trkpt>
      <trkpt lat="43.4706" lon="3.51862">
        <ele>101.6</ele>
        <time>2018-09-25T19:43:26.819Z</time>
      </trkpt>
      <trkpt lat="43.4706" lon="3.51869">
        <ele>101.6</ele>
        <time>2018-09-25T19:43:27.819Z</time>
      </trkpt>
      <trkpt lat="43.4706" lon="3.51877">
        <ele>101.7</ele>
        <time>2018-09-25T19:43:28.819Z</time>
      </trkpt>
      <trkpt lat="43.4706" lon="3.51885">
        <ele>101.8</ele>
        <time>2018-09-25T19:43:29.819Z</time>
      </trkpt>
      <trkpt lat="43.47061" lon="3.51895">
        <ele>101.9</ele>
        <time>2018-09-25T19:43:30.819Z</time>
      </trkpt>
      <trkpt lat="43.47062" lon="3.51904">
        <ele>102</ele>
        <time>2018-09-25T19:43:31.819Z</time>
      </trkpt>
      <trkpt lat="43.47062" lon="3.51912">
        <ele>102.1</ele>
        <time>2018-09-25T19:43:32.819Z</time>
      </trkpt>
      <trkpt lat="43.47063" lon="3.5192">
        <ele>102.1</ele>
        <time>2018-09-25T19:43:33.819Z</time>
      </trkpt>
      <trkpt lat="43.47063" lon="3.51928">
        <ele>102.3</ele>
        <time>2018-09-25T19:43:34.819Z</time>
      </trkpt>
      <trkpt lat="43.47063" lon="3.51935">
        <ele>102.4</ele>
        <time>2018-09-25T19:43:35.819Z</time>
      </trkpt>
      <trkpt lat="43.47064" lon="3.51941">
        <ele>102.4</ele>
        <time>2018-09-25T19:43:36.819Z</time>
      </trkpt>
      <trkpt lat="43.47064" lon="3.51948">
        <ele>102.3</ele>
        <time>2018-09-25T19:43:37.819Z</time>
      </trkpt>
      <trkpt lat="43.47064" lon="3.51955">
        <ele>102.3</ele>
        <time>2018-09-25T19:43:38.819Z</time>
      </trkpt>
      <trkpt lat="43.47064" lon="3.51963">
        <ele>102.2</ele>
        <time>2018-09-25T19:43:39.819Z</time>
      </trkpt>
      <trkpt lat="43.47065" lon="3.51971">
        <ele>102.2</ele>
        <time>2018-09-25T19:43:40.819Z</time>
      </trkpt>
      <trkpt lat="43.47065" lon="3.51978">
        <ele>102.1</ele>
        <time>2018-09-25T19:43:41.819Z</time>
      </trkpt>
      <trkpt lat="43.47066" lon="3.51986">
        <ele>102.2</ele>
        <time>2018-09-25T19:43:42.819Z</time>
      </trkpt>
      <trkpt lat="43.47067" lon="3.51993">
        <ele>102.2</ele>
        <time>2018-09-25T19:43:43.819Z</time>
      </trkpt>
      <trkpt lat="43.47068" lon="3.51999">
        <ele>102.1</ele>
        <time>2018-09-25T19:43:44.819Z</time>
      </trkpt>
      <trkpt lat="43.47069" lon="3.52005">
        <ele>102.1</ele>
        <time>2018-09-25T19:43:45.819Z</time>
      </trkpt>
      <trkpt lat="43.4707" lon="3.52011">
        <ele>102.1</ele>
        <time>2018-09-25T19:43:46.819Z</time>
      </trkpt>
      <trkpt lat="43.47071" lon="3.52018">
        <ele>102.1</ele>
        <time>2018-09-25T19:43:47.819Z</time>
      </trkpt>
      <trkpt lat="43.47072" lon="3.52025">
        <ele>102</ele>
        <time>2018-09-25T19:43:48.819Z</time>
      </trkpt>
      <trkpt lat="43.47074" lon="3.52032">
        <ele>101.9</ele>
        <time>2018-09-25T19:43:49.819Z</time>
      </trkpt>
      <trkpt lat="43.47077" lon="3.52039">
        <ele>101.8</ele>
        <time>2018-09-25T19:43:50.819Z</time>
      </trkpt>
      <trkpt lat="43.4708" lon="3.52046">
        <ele>101.7</ele>
        <time>2018-09-25T19:43:51.819Z</time>
      </trkpt>
      <trkpt lat="43.47082" lon="3.52053">
        <ele>101.6</ele>
        <time>2018-09-25T19:43:52.819Z</time>
      </trkpt>
      <trkpt lat="43.47085" lon="3.52059">
        <ele>101.5</ele>
        <time>2018-09-25T19:43:53.819Z</time>
      </trkpt>
      <trkpt lat="43.47088" lon="3.52065">
        <ele>101.5</ele>
        <time>2018-09-25T19:43:54.819Z</time>
      </trkpt>
      <trkpt lat="43.47091" lon="3.52071">
        <ele>101.4</ele>
        <time>2018-09-25T19:43:55.819Z</time>
      </trkpt>
      <trkpt lat="43.47094" lon="3.52077">
        <ele>101.3</ele>
        <time>2018-09-25T19:43:56.819Z</time>
      </trkpt>
      <trkpt lat="43.47097" lon="3.52083">
        <ele>101.2</ele>
        <time>2018-09-25T19:43:57.819Z</time>
      </trkpt>
      <trkpt lat="43.471" lon="3.52089">
        <ele>101</ele>
        <time>2018-09-25T19:43:58.819Z</time>
      </trkpt>
      <trkpt lat="43.47102" lon="3.52095">
        <ele>100.9</ele>
        <time>2018-09-25T19:43:59.819Z</time>
      </trkpt>
      <trkpt lat="43.47105" lon="3.52101">
        <ele>100.8</ele>
        <time>2018-09-25T19:44:00.819Z</time>
      </trkpt>
      <trkpt lat="43.47107" lon="3.52107">
        <ele>100.8</ele>
        <time>2018-09-25T19:44:01.819Z</time>
      </trkpt>
      <trkpt lat="43.47109" lon="3.52112">
        <ele>100.8</ele>
        <time>2018-09-25T19:44:02.819Z</time>
      </trkpt>
      <trkpt lat="43.47112" lon="3.52118">
        <ele>100.8</ele>
        <time>2018-09-25T19:44:03.819Z</time>
      </trkpt>
      <trkpt lat="43.47113" lon="3.52124">
        <ele>100.7</ele>
        <time>2018-09-25T19:44:04.819Z</time>
      </trkpt>
      <trkpt lat="43.47115" lon="3.52129">
        <ele>100.8</ele>
        <time>2018-09-25T19:44:05.819Z</time>
      </trkpt>
      <trkpt lat="43.47118" lon="3.52135">
        <ele>100.8</ele>
        <time>2018-09-25T19:44:06.819Z</time>
      </trkpt>
      <trkpt lat="43.4712" lon="3.52142">
        <ele>100.9</ele>
        <time>2018-09-25T19:44:07.819Z</time>
      </trkpt>
      <trkpt lat="43.47122" lon="3.52148">
        <ele>100.9</ele>
        <time>2018-09-25T19:44:08.819Z</time>
      </trkpt>
      <trkpt lat="43.47124" lon="3.52153">
        <ele>100.9</ele>
        <time>2018-09-25T19:44:09.819Z</time>
      </trkpt>
      <trkpt lat="43.47126" lon="3.52159">
        <ele>100.9</ele>
        <time>2018-09-25T19:44:10.819Z</time>
      </trkpt>
      <trkpt lat="43.47128" lon="3.52165">
        <ele>101</ele>
        <time>2018-09-25T19:44:11.819Z</time>
      </trkpt>
      <trkpt lat="43.4713" lon="3.5217">
        <ele>101.1</ele>
        <time>2018-09-25T19:44:12.819Z</time>
      </trkpt>
      <trkpt lat="43.47133" lon="3.52176">
        <ele>101.2</ele>
        <time>2018-09-25T19:44:13.819Z</time>
      </trkpt>
      <trkpt lat="43.47135" lon="3.5218">
        <ele>101.3</ele>
        <time>2018-09-25T19:44:14.819Z</time>
      </trkpt>
      <trkpt lat="43.47137" lon="3.52186">
        <ele>101.4</ele>
        <time>2018-09-25T19:44:15.819Z</time>
      </trkpt>
      <trkpt lat="43.47139" lon="3.52193">
        <ele>101.5</ele>
        <time>2018-09-25T19:44:16.819Z</time>
      </trkpt>
      <trkpt lat="43.4714" lon="3.522">
        <ele>101.5</ele>
        <time>2018-09-25T19:44:17.819Z</time>
      </trkpt>
      <trkpt lat="43.47142" lon="3.52207">
        <ele>101.7</ele>
        <time>2018-09-25T19:44:18.819Z</time>
      </trkpt>
      <trkpt lat="43.47143" lon="3.52214">
        <ele>101.7</ele>
        <time>2018-09-25T19:44:19.819Z</time>
      </trkpt>
      <trkpt lat="43.47145" lon="3.52221">
        <ele>101.8</ele>
        <time>2018-09-25T19:44:20.819Z</time>
      </trkpt>
      <trkpt lat="43.47146" lon="3.52227">
        <ele>101.9</ele>
        <time>2018-09-25T19:44:21.819Z</time>
      </trkpt>
      <trkpt lat="43.47147" lon="3.52234">
        <ele>102</ele>
        <time>2018-09-25T19:44:22.819Z</time>
      </trkpt>
      <trkpt lat="43.47148" lon="3.5224">
        <ele>102.1</ele>
        <time>2018-09-25T19:44:23.819Z</time>
      </trkpt>
      <trkpt lat="43.47149" lon="3.52246">
        <ele>102.1</ele>
        <time>2018-09-25T19:44:24.819Z</time>
      </trkpt>
      <trkpt lat="43.47151" lon="3.52252">
        <ele>102.1</ele>
        <time>2018-09-25T19:44:25.819Z</time>
      </trkpt>
      <trkpt lat="43.47152" lon="3.52259">
        <ele>102.2</ele>
        <time>2018-09-25T19:44:26.819Z</time>
      </trkpt>
      <trkpt lat="43.47153" lon="3.52266">
        <ele>102.3</ele>
        <time>2018-09-25T19:44:27.819Z</time>
      </trkpt>
      <trkpt lat="43.47154" lon="3.52272">
        <ele>102.4</ele>
        <time>2018-09-25T19:44:28.819Z</time>
      </trkpt>
      <trkpt lat="43.47155" lon="3.52279">
        <ele>102.4</ele>
        <time>2018-09-25T19:44:29.819Z</time>
      </trkpt>
      <trkpt lat="43.47156" lon="3.52285">
        <ele>102.4</ele>
        <time>2018-09-25T19:44:30.819Z</time>
      </trkpt>
      <trkpt lat="43.47157" lon="3.52291">
        <ele>102.4</ele>
        <time>2018-09-25T19:44:31.819Z</time>
      </trkpt>
      <trkpt lat="43.47159" lon="3.52298">
        <ele>102.4</ele>
        <time>2018-09-25T19:44:32.819Z</time>
      </trkpt>
      <trkpt lat="43.4716" lon="3.52304">
        <ele>102.5</ele>
        <time>2018-09-25T19:44:33.819Z</time>
      </trkpt>
      <trkpt lat="43.47161" lon="3.5231">
        <ele>102.5</ele>
        <time>2018-09-25T19:44:34.819Z</time>
      </trkpt>
      <trkpt lat="43.47162" lon="3.52316">
        <ele>102.5</ele>
        <time>2018-09-25T19:44:35.819Z</time>
      </trkpt>
      <trkpt lat="43.47163" lon="3.52323">
        <ele>102.5</ele>
        <time>2018-09-25T19:44:36.819Z</time>
      </trkpt>
      <trkpt lat="43.47164" lon="3.5233">
        <ele>102.5</ele>
        <time>2018-09-25T19:44:37.819Z</time>
      </trkpt>
      <trkpt lat="43.47165" lon="3.52337">
        <ele>102.6</ele>
        <time>2018-09-25T19:44:38.819Z</time>
      </trkpt>
      <trkpt lat="43.47166" lon="3.52343">
        <ele>102.7</ele>
        <time>2018-09-25T19:44:39.819Z</time>
      </trkpt>
      <trkpt lat="43.47167" lon="3.5235">
        <ele>102.7</ele>
        <time>2018-09-25T19:44:40.819Z</time>
      </trkpt>
      <trkpt lat="43.47168" lon="3.52357">
        <ele>102.8</ele>
        <time>2018-09-25T19:44:41.819Z</time>
      </trkpt>
      <trkpt lat="43.4717" lon="3.52364">
        <ele>102.9</ele>
        <time>2018-09-25T19:44:42.819Z</time>
      </trkpt>
      <trkpt lat="43.47171" lon="3.52371">
        <ele>103</ele>
        <time>2018-09-25T19:44:43.819Z</time>
      </trkpt>
      <trkpt lat="43.47172" lon="3.52377">
        <ele>103.1</ele>
        <time>2018-09-25T19:44:44.819Z</time>
      </trkpt>
      <trkpt lat="43.47173" lon="3.52383">
        <ele>103.2</ele>
        <time>2018-09-25T19:44:45.819Z</time>
      </trkpt>
      <trkpt lat="43.47174" lon="3.5239">
        <ele>103.3</ele>
        <time>2018-09-25T19:44:46.819Z</time>
      </trkpt>
      <trkpt lat="43.47175" lon="3.52396">
        <ele>103.5</ele>
        <time>2018-09-25T19:44:47.819Z</time>
      </trkpt>
      <trkpt lat="43.47176" lon="3.52403">
        <ele>103.6</ele>
        <time>2018-09-25T19:44:48.819Z</time>
      </trkpt>
      <trkpt lat="43.47177" lon="3.52409">
        <ele>103.7</ele>
        <time>2018-09-25T19:44:49.819Z</time>
      </trkpt>
      <trkpt lat="43.47178" lon="3.52416">
        <ele>103.8</ele>
        <time>2018-09-25T19:44:50.819Z</time>
      </trkpt>
      <trkpt lat="43.47178" lon="3.52422">
        <ele>104</ele>
        <time>2018-09-25T19:44:51.819Z</time>
      </trkpt>
      <trkpt lat="43.47178" lon="3.52429">
        <ele>104.1</ele>
        <time>2018-09-25T19:44:52.819Z</time>
      </trkpt>
      <trkpt lat="43.47179" lon="3.52435">
        <ele>104.3</ele>
        <time>2018-09-25T19:44:53.819Z</time>
      </trkpt>
      <trkpt lat="43.47179" lon="3.52442">
        <ele>104.4</ele>
        <time>2018-09-25T19:44:54.819Z</time>
      </trkpt>
      <trkpt lat="43.47179" lon="3.52449">
        <ele>104.5</ele>
        <time>2018-09-25T19:44:55.819Z</time>
      </trkpt>
      <trkpt lat="43.47179" lon="3.52456">
        <ele>104.7</ele>
        <time>2018-09-25T19:44:56.819Z</time>
      </trkpt>
      <trkpt lat="43.47179" lon="3.52463">
        <ele>104.9</ele>
        <time>2018-09-25T19:44:57.819Z</time>
      </trkpt>
      <trkpt lat="43.47179" lon="3.5247">
        <ele>105.1</ele>
        <time>2018-09-25T19:44:58.819Z</time>
      </trkpt>
      <trkpt lat="43.47179" lon="3.52477">
        <ele>105.3</ele>
        <time>2018-09-25T19:44:59.819Z</time>
      </trkpt>
      <trkpt lat="43.47179" lon="3.52484">
        <ele>105.4</ele>
        <time>2018-09-25T19:45:00.819Z</time>
      </trkpt>
      <trkpt lat="43.47179" lon="3.52491">
        <ele>105.6</ele>
        <time>2018-09-25T19:45:01.819Z</time>
      </trkpt>
      <trkpt lat="43.47179" lon="3.52498">
        <ele>105.8</ele>
        <time>2018-09-25T19:45:02.819Z</time>
      </trkpt>
      <trkpt lat="43.47179" lon="3.52505">
        <ele>106</ele>
        <time>2018-09-25T19:45:03.819Z</time>
      </trkpt>
      <trkpt lat="43.47179" lon="3.52511">
        <ele>106.2</ele>
        <time>2018-09-25T19:45:04.819Z</time>
      </trkpt>
      <trkpt lat="43.47179" lon="3.52518">
        <ele>106.3</ele>
        <time>2018-09-25T19:45:05.819Z</time>
      </trkpt>
      <trkpt lat="43.47178" lon="3.52524">
        <ele>106.4</ele>
        <time>2018-09-25T19:45:06.819Z</time>
      </trkpt>
      <trkpt lat="43.47178" lon="3.52531">
        <ele>106.5</ele>
        <time>2018-09-25T19:45:07.819Z</time>
      </trkpt>
      <trkpt lat="43.47178" lon="3.52537">
        <ele>106.6</ele>
        <time>2018-09-25T19:45:08.819Z</time>
      </trkpt>
      <trkpt lat="43.47178" lon="3.52544">
        <ele>106.6</ele>
        <time>2018-09-25T19:45:09.819Z</time>
      </trkpt>
      <trkpt lat="43.47178" lon="3.5255">
        <ele>106.6</ele>
        <time>2018-09-25T19:45:10.819Z</time>
      </trkpt>
      <trkpt lat="43.47178" lon="3.52557">
        <ele>106.6</ele>
        <time>2018-09-25T19:45:11.819Z</time>
      </trkpt>
      <trkpt lat="43.47178" lon="3.52564">
        <ele>106.7</ele>
        <time>2018-09-25T19:45:12.819Z</time>
      </trkpt>
      <trkpt lat="43.47178" lon="3.52571">
        <ele>106.8</ele>
        <time>2018-09-25T19:45:13.819Z</time>
      </trkpt>
      <trkpt lat="43.47178" lon="3.52577">
        <ele>106.8</ele>
        <time>2018-09-25T19:45:14.819Z</time>
      </trkpt>
      <trkpt lat="43.47178" lon="3.52585">
        <ele>107</ele>
        <time>2018-09-25T19:45:15.819Z</time>
      </trkpt>
      <trkpt lat="43.47178" lon="3.52591">
        <ele>107.3</ele>
        <time>2018-09-25T19:45:16.819Z</time>
      </trkpt>
      <trkpt lat="43.47177" lon="3.52598">
        <ele>107.6</ele>
        <time>2018-09-25T19:45:17.819Z</time>
      </trkpt>
      <trkpt lat="43.47177" lon="3.52605">
        <ele>108</ele>
        <time>2018-09-25T19:45:18.819Z</time>
      </trkpt>
      <trkpt lat="43.47177" lon="3.52612">
        <ele>108.3</ele>
        <time>2018-09-25T19:45:19.819Z</time>
      </trkpt>
      <trkpt lat="43.47176" lon="3.5262">
        <ele>108.8</ele>
        <time>2018-09-25T19:45:20.819Z</time>
      </trkpt>
      <trkpt lat="43.47176" lon="3.52626">
        <ele>109.3</ele>
        <time>2018-09-25T19:45:21.819Z</time>
      </trkpt>
      <trkpt lat="43.47176" lon="3.52633">
        <ele>109.9</ele>
        <time>2018-09-25T19:45:22.819Z</time>
      </trkpt>
      <trkpt lat="43.47176" lon="3.5264">
        <ele>110.4</ele>
        <time>2018-09-25T19:45:23.819Z</time>
      </trkpt>
      <trkpt lat="43.47176" lon="3.52647">
        <ele>110.9</ele>
        <time>2018-09-25T19:45:24.819Z</time>
      </trkpt>
      <trkpt lat="43.47176" lon="3.52654">
        <ele>111.3</ele>
        <time>2018-09-25T19:45:25.819Z</time>
      </trkpt>
      <trkpt lat="43.47176" lon="3.52661">
        <ele>111.6</ele>
        <time>2018-09-25T19:45:26.819Z</time>
      </trkpt>
      <trkpt lat="43.47176" lon="3.52668">
        <ele>112</ele>
        <time>2018-09-25T19:45:27.819Z</time>
      </trkpt>
      <trkpt lat="43.47176" lon="3.52675">
        <ele>112.4</ele>
        <time>2018-09-25T19:45:28.819Z</time>
      </trkpt>
      <trkpt lat="43.47177" lon="3.52682">
        <ele>112.8</ele>
        <time>2018-09-25T19:45:29.819Z</time>
      </trkpt>
      <trkpt lat="43.47178" lon="3.52689">
        <ele>113.1</ele>
        <time>2018-09-25T19:45:30.819Z</time>
      </trkpt>
      <trkpt lat="43.47179" lon="3.52696">
        <ele>113.4</ele>
        <time>2018-09-25T19:45:31.819Z</time>
      </trkpt>
      <trkpt lat="43.4718" lon="3.52702">
        <ele>113.8</ele>
        <time>2018-09-25T19:45:32.819Z</time>
      </trkpt>
      <trkpt lat="43.47181" lon="3.5271">
        <ele>114.2</ele>
        <time>2018-09-25T19:45:33.819Z</time>
      </trkpt>
      <trkpt lat="43.47182" lon="3.52717">
        <ele>114.6</ele>
        <time>2018-09-25T19:45:34.819Z</time>
      </trkpt>
      <trkpt lat="43.47183" lon="3.52724">
        <ele>114.9</ele>
        <time>2018-09-25T19:45:35.819Z</time>
      </trkpt>
      <trkpt lat="43.47184" lon="3.52731">
        <ele>115.2</ele>
        <time>2018-09-25T19:45:36.819Z</time>
      </trkpt>
      <trkpt lat="43.47186" lon="3.52739">
        <ele>115.6</ele>
        <time>2018-09-25T19:45:37.819Z</time>
      </trkpt>
      <trkpt lat="43.47187" lon="3.52746">
        <ele>116</ele>
        <time>2018-09-25T19:45:38.819Z</time>
      </trkpt>
      <trkpt lat="43.47189" lon="3.52753">
        <ele>116.4</ele>
        <time>2018-09-25T19:45:39.819Z</time>
      </trkpt>
      <trkpt lat="43.47191" lon="3.5276">
        <ele>116.8</ele>
        <time>2018-09-25T19:45:40.819Z</time>
      </trkpt>
      <trkpt lat="43.47192" lon="3.52767">
        <ele>117.2</ele>
        <time>2018-09-25T19:45:41.819Z</time>
      </trkpt>
      <trkpt lat="43.47194" lon="3.52772">
        <ele>117.5</ele>
        <time>2018-09-25T19:45:42.819Z</time>
      </trkpt>
      <trkpt lat="43.47194" lon="3.52779">
        <ele>117.8</ele>
        <time>2018-09-25T19:45:43.819Z</time>
      </trkpt>
      <trkpt lat="43.47196" lon="3.52785">
        <ele>118.2</ele>
        <time>2018-09-25T19:45:44.819Z</time>
      </trkpt>
      <trkpt lat="43.47194" lon="3.52791">
        <ele>118.7</ele>
        <time>2018-09-25T19:45:45.819Z</time>
      </trkpt>
      <trkpt lat="43.47194" lon="3.52797">
        <ele>119.1</ele>
        <time>2018-09-25T19:45:46.819Z</time>
      </trkpt>
      <trkpt lat="43.47195" lon="3.52804">
        <ele>119.6</ele>
        <time>2018-09-25T19:45:47.819Z</time>
      </trkpt>
      <trkpt lat="43.47197" lon="3.5281">
        <ele>119.9</ele>
        <time>2018-09-25T19:45:48.819Z</time>
      </trkpt>
      <trkpt lat="43.47196" lon="3.52817">
        <ele>120.1</ele>
        <time>2018-09-25T19:45:49.819Z</time>
      </trkpt>
      <trkpt lat="43.47194" lon="3.52823">
        <ele>120.3</ele>
        <time>2018-09-25T19:45:50.819Z</time>
      </trkpt>
      <trkpt lat="43.47192" lon="3.52828">
        <ele>120.4</ele>
        <time>2018-09-25T19:45:51.819Z</time>
      </trkpt>
      <trkpt lat="43.47192" lon="3.52833">
        <ele>120.4</ele>
        <time>2018-09-25T19:45:52.819Z</time>
      </trkpt>
      <trkpt lat="43.47193" lon="3.52838">
        <ele>120.3</ele>
        <time>2018-09-25T19:45:53.819Z</time>
      </trkpt>
      <trkpt lat="43.47192" lon="3.52845">
        <ele>120</ele>
        <time>2018-09-25T19:45:54.819Z</time>
      </trkpt>
      <trkpt lat="43.47192" lon="3.52852">
        <ele>119.6</ele>
        <time>2018-09-25T19:45:55.819Z</time>
      </trkpt>
      <trkpt lat="43.47194" lon="3.52859">
        <ele>119</ele>
        <time>2018-09-25T19:45:56.819Z</time>
      </trkpt>
      <trkpt lat="43.47195" lon="3.52866">
        <ele>118.5</ele>
        <time>2018-09-25T19:45:57.819Z</time>
      </trkpt>
      <trkpt lat="43.47196" lon="3.52872">
        <ele>118</ele>
        <time>2018-09-25T19:45:58.819Z</time>
      </trkpt>
      <trkpt lat="43.47196" lon="3.52877">
        <ele>117.6</ele>
        <time>2018-09-25T19:45:59.819Z</time>
      </trkpt>
      <trkpt lat="43.47195" lon="3.52884">
        <ele>117.1</ele>
        <time>2018-09-25T19:46:00.819Z</time>
      </trkpt>
      <trkpt lat="43.47197" lon="3.52892">
        <ele>116.7</ele>
        <time>2018-09-25T19:46:01.819Z</time>
      </trkpt>
      <trkpt lat="43.47198" lon="3.52901">
        <ele>116.1</ele>
        <time>2018-09-25T19:46:02.819Z</time>
      </trkpt>
      <trkpt lat="43.47197" lon="3.52909">
        <ele>115.9</ele>
        <time>2018-09-25T19:46:03.819Z</time>
      </trkpt>
      <trkpt lat="43.47198" lon="3.52916">
        <ele>115.8</ele>
        <time>2018-09-25T19:46:04.819Z</time>
      </trkpt>
      <trkpt lat="43.47198" lon="3.52922">
        <ele>115.8</ele>
        <time>2018-09-25T19:46:05.819Z</time>
      </trkpt>
      <trkpt lat="43.47198" lon="3.52929">
        <ele>115.7</ele>
        <time>2018-09-25T19:46:06.819Z</time>
      </trkpt>
      <trkpt lat="43.47199" lon="3.52936">
        <ele>115.6</ele>
        <time>2018-09-25T19:46:07.819Z</time>
      </trkpt>
      <trkpt lat="43.47199" lon="3.52942">
        <ele>115.5</ele>
        <time>2018-09-25T19:46:08.819Z</time>
      </trkpt>
      <trkpt lat="43.47199" lon="3.52949">
        <ele>115.4</ele>
        <time>2018-09-25T19:46:09.819Z</time>
      </trkpt>
      <trkpt lat="43.47199" lon="3.52955">
        <ele>115.3</ele>
        <time>2018-09-25T19:46:10.819Z</time>
      </trkpt>
      <trkpt lat="43.47199" lon="3.52962">
        <ele>115.1</ele>
        <time>2018-09-25T19:46:11.819Z</time>
      </trkpt>
      <trkpt lat="43.472" lon="3.52972">
        <ele>114.8</ele>
        <time>2018-09-25T19:46:12.819Z</time>
      </trkpt>
      <trkpt lat="43.47201" lon="3.52986">
        <ele>114.3</ele>
        <time>2018-09-25T19:46:13.819Z</time>
      </trkpt>
      <trkpt lat="43.47199" lon="3.52995">
        <ele>113.9</ele>
        <time>2018-09-25T19:46:14.819Z</time>
      </trkpt>
      <trkpt lat="43.47197" lon="3.53005">
        <ele>113.5</ele>
        <time>2018-09-25T19:46:15.819Z</time>
      </trkpt>
      <trkpt lat="43.47197" lon="3.53018">
        <ele>112.8</ele>
        <time>2018-09-25T19:46:16.819Z</time>
      </trkpt>
      <trkpt lat="43.47196" lon="3.53029">
        <ele>112.2</ele>
        <time>2018-09-25T19:46:17.819Z</time>
      </trkpt>
      <trkpt lat="43.47194" lon="3.53041">
        <ele>111.5</ele>
        <time>2018-09-25T19:46:18.819Z</time>
      </trkpt>
      <trkpt lat="43.47193" lon="3.53053">
        <ele>110.7</ele>
        <time>2018-09-25T19:46:19.819Z</time>
      </trkpt>
      <trkpt lat="43.4719" lon="3.53065">
        <ele>109.7</ele>
        <time>2018-09-25T19:46:20.819Z</time>
      </trkpt>
      <trkpt lat="43.47188" lon="3.53078">
        <ele>108.6</ele>
        <time>2018-09-25T19:46:21.819Z</time>
      </trkpt>
      <trkpt lat="43.47186" lon="3.53091">
        <ele>107.3</ele>
        <time>2018-09-25T19:46:22.819Z</time>
      </trkpt>
      <trkpt lat="43.47184" lon="3.53102">
        <ele>106.1</ele>
        <time>2018-09-25T19:46:23.819Z</time>
      </trkpt>
      <trkpt lat="43.47182" lon="3.53112">
        <ele>105</ele>
        <time>2018-09-25T19:46:24.819Z</time>
      </trkpt>
      <trkpt lat="43.4718" lon="3.53121">
        <ele>103.9</ele>
        <time>2018-09-25T19:46:25.819Z</time>
      </trkpt>
      <trkpt lat="43.47177" lon="3.53131">
        <ele>102.9</ele>
        <time>2018-09-25T19:46:26.819Z</time>
      </trkpt>
      <trkpt lat="43.47175" lon="3.5314">
        <ele>101.8</ele>
        <time>2018-09-25T19:46:27.819Z</time>
      </trkpt>
      <trkpt lat="43.47176" lon="3.5315">
        <ele>100.7</ele>
        <time>2018-09-25T19:46:28.819Z</time>
      </trkpt>
      <trkpt lat="43.47176" lon="3.5316">
        <ele>99.6</ele>
        <time>2018-09-25T19:46:29.819Z</time>
      </trkpt>
      <trkpt lat="43.47177" lon="3.5317">
        <ele>98.5</ele>
        <time>2018-09-25T19:46:30.819Z</time>
      </trkpt>
      <trkpt lat="43.47177" lon="3.5318">
        <ele>97.4</ele>
        <time>2018-09-25T19:46:31.819Z</time>
      </trkpt>
      <trkpt lat="43.47177" lon="3.5319">
        <ele>96.3</ele>
        <time>2018-09-25T19:46:32.819Z</time>
      </trkpt>
      <trkpt lat="43.47177" lon="3.53202">
        <ele>94.9</ele>
        <time>2018-09-25T19:46:33.819Z</time>
      </trkpt>
      <trkpt lat="43.47176" lon="3.53215">
        <ele>93.4</ele>
        <time>2018-09-25T19:46:34.819Z</time>
      </trkpt>
      <trkpt lat="43.47175" lon="3.53228">
        <ele>91.9</ele>
        <time>2018-09-25T19:46:35.819Z</time>
      </trkpt>
      <trkpt lat="43.47174" lon="3.53242">
        <ele>90.4</ele>
        <time>2018-09-25T19:46:36.819Z</time>
      </trkpt>
      <trkpt lat="43.47174" lon="3.53256">
        <ele>88.8</ele>
        <time>2018-09-25T19:46:37.819Z</time>
      </trkpt>
      <trkpt lat="43.47173" lon="3.5327">
        <ele>87.2</ele>
        <time>2018-09-25T19:46:38.819Z</time>
      </trkpt>
      <trkpt lat="43.47173" lon="3.53284">
        <ele>85.9</ele>
        <time>2018-09-25T19:46:39.819Z</time>
      </trkpt>
      <trkpt lat="43.47172" lon="3.53297">
        <ele>84.7</ele>
        <time>2018-09-25T19:46:40.819Z</time>
      </trkpt>
      <trkpt lat="43.47171" lon="3.53312">
        <ele>83.6</ele>
        <time>2018-09-25T19:46:41.819Z</time>
      </trkpt>
      <trkpt lat="43.47168" lon="3.53326">
        <ele>82.7</ele>
        <time>2018-09-25T19:46:42.819Z</time>
      </trkpt>
      <trkpt lat="43.47167" lon="3.53341">
        <ele>81.9</ele>
        <time>2018-09-25T19:46:43.819Z</time>
      </trkpt>
      <trkpt lat="43.47165" lon="3.53356">
        <ele>81.2</ele>
        <time>2018-09-25T19:46:44.819Z</time>
      </trkpt>
      <trkpt lat="43.47163" lon="3.53372">
        <ele>80.5</ele>
        <time>2018-09-25T19:46:45.819Z</time>
      </trkpt>
      <trkpt lat="43.47162" lon="3.53387">
        <ele>79.8</ele>
        <time>2018-09-25T19:46:46.819Z</time>
      </trkpt>
      <trkpt lat="43.47161" lon="3.53401">
        <ele>79.2</ele>
        <time>2018-09-25T19:46:47.819Z</time>
      </trkpt>
      <trkpt lat="43.4716" lon="3.53413">
        <ele>78.6</ele>
        <time>2018-09-25T19:46:48.819Z</time>
      </trkpt>
      <trkpt lat="43.47159" lon="3.53423">
        <ele>78.2</ele>
        <time>2018-09-25T19:46:49.819Z</time>
      </trkpt>
      <trkpt lat="43.47158" lon="3.53432">
        <ele>77.8</ele>
        <time>2018-09-25T19:46:50.819Z</time>
      </trkpt>
      <trkpt lat="43.47157" lon="3.5344">
        <ele>77.5</ele>
        <time>2018-09-25T19:46:51.819Z</time>
      </trkpt>
      <trkpt lat="43.47156" lon="3.53447">
        <ele>77.3</ele>
        <time>2018-09-25T19:46:52.819Z</time>
      </trkpt>
      <trkpt lat="43.47156" lon="3.53453">
        <ele>77.1</ele>
        <time>2018-09-25T19:46:53.819Z</time>
      </trkpt>
      <trkpt lat="43.47157" lon="3.53458">
        <ele>77</ele>
        <time>2018-09-25T19:46:54.819Z</time>
      </trkpt>
      <trkpt lat="43.47157" lon="3.53462">
        <ele>76.9</ele>
        <time>2018-09-25T19:46:55.819Z</time>
      </trkpt>
      <trkpt lat="43.47156" lon="3.53466">
        <ele>76.8</ele>
        <time>2018-09-25T19:46:56.819Z</time>
      </trkpt>
      <trkpt lat="43.47155" lon="3.5347">
        <ele>76.7</ele>
        <time>2018-09-25T19:46:57.819Z</time>
      </trkpt>
      <trkpt lat="43.47153" lon="3.53474">
        <ele>76.7</ele>
        <time>2018-09-25T19:46:59.819Z</time>
      </trkpt>
      <trkpt lat="43.4715" lon="3.53473">
        <ele>76.7</ele>
        <time>2018-09-25T19:47:01.819Z</time>
      </trkpt>
      <trkpt lat="43.47146" lon="3.53467">
        <ele>76.8</ele>
        <time>2018-09-25T19:47:03.819Z</time>
      </trkpt>
      <trkpt lat="43.47143" lon="3.53463">
        <ele>76.8</ele>
        <time>2018-09-25T19:47:04.819Z</time>
      </trkpt>
      <trkpt lat="43.4714" lon="3.5346">
        <ele>76.9</ele>
        <time>2018-09-25T19:47:05.819Z</time>
      </trkpt>
      <trkpt lat="43.47136" lon="3.53456">
        <ele>77</ele>
        <time>2018-09-25T19:47:06.819Z</time>
      </trkpt>
      <trkpt lat="43.47133" lon="3.53452">
        <ele>77</ele>
        <time>2018-09-25T19:47:07.819Z</time>
      </trkpt>
      <trkpt lat="43.4713" lon="3.53449">
        <ele>77</ele>
        <time>2018-09-25T19:47:08.819Z</time>
      </trkpt>
      <trkpt lat="43.47127" lon="3.53446">
        <ele>77.1</ele>
        <time>2018-09-25T19:47:09.819Z</time>
      </trkpt>
      <trkpt lat="43.47124" lon="3.53443">
        <ele>77</ele>
        <time>2018-09-25T19:47:10.819Z</time>
      </trkpt>
      <trkpt lat="43.4712" lon="3.5344">
        <ele>77.1</ele>
        <time>2018-09-25T19:47:11.819Z</time>
      </trkpt>
      <trkpt lat="43.47117" lon="3.53436">
        <ele>77.1</ele>
        <time>2018-09-25T19:47:12.819Z</time>
      </trkpt>
      <trkpt lat="43.47114" lon="3.53433">
        <ele>77.1</ele>
        <time>2018-09-25T19:47:13.819Z</time>
      </trkpt>
      <trkpt lat="43.47111" lon="3.5343">
        <ele>77.1</ele>
        <time>2018-09-25T19:47:14.819Z</time>
      </trkpt>
      <trkpt lat="43.47109" lon="3.53427">
        <ele>77.2</ele>
        <time>2018-09-25T19:47:15.819Z</time>
      </trkpt>
      <trkpt lat="43.47107" lon="3.53425">
        <ele>77.3</ele>
        <time>2018-09-25T19:47:16.819Z</time>
      </trkpt>
      <trkpt lat="43.47104" lon="3.53422">
        <ele>77.2</ele>
        <time>2018-09-25T19:47:17.819Z</time>
      </trkpt>
      <trkpt lat="43.47102" lon="3.53419">
        <ele>77.4</ele>
        <time>2018-09-25T19:47:18.819Z</time>
      </trkpt>
      <trkpt lat="43.47099" lon="3.53416">
        <ele>77.5</ele>
        <time>2018-09-25T19:47:19.819Z</time>
      </trkpt>
      <trkpt lat="43.47096" lon="3.53413">
        <ele>77.4</ele>
        <time>2018-09-25T19:47:20.819Z</time>
      </trkpt>
      <trkpt lat="43.47094" lon="3.5341">
        <ele>77.6</ele>
        <time>2018-09-25T19:47:21.819Z</time>
      </trkpt>
      <trkpt lat="43.47091" lon="3.53407">
        <ele>77.7</ele>
        <time>2018-09-25T19:47:22.819Z</time>
      </trkpt>
      <trkpt lat="43.47089" lon="3.53404">
        <ele>77.6</ele>
        <time>2018-09-25T19:47:23.819Z</time>
      </trkpt>
      <trkpt lat="43.47086" lon="3.534">
        <ele>77.7</ele>
        <time>2018-09-25T19:47:24.819Z</time>
      </trkpt>
      <trkpt lat="43.47083" lon="3.53397">
        <ele>77.8</ele>
        <time>2018-09-25T19:47:25.819Z</time>
      </trkpt>
      <trkpt lat="43.4708" lon="3.53393">
        <ele>77.9</ele>
        <time>2018-09-25T19:47:26.819Z</time>
      </trkpt>
      <trkpt lat="43.47076" lon="3.5339">
        <ele>78</ele>
        <time>2018-09-25T19:47:27.819Z</time>
      </trkpt>
      <trkpt lat="43.47073" lon="3.53386">
        <ele>78</ele>
        <time>2018-09-25T19:47:28.819Z</time>
      </trkpt>
      <trkpt lat="43.4707" lon="3.53382">
        <ele>77.9</ele>
        <time>2018-09-25T19:47:29.819Z</time>
      </trkpt>
      <trkpt lat="43.47067" lon="3.53378">
        <ele>78</ele>
        <time>2018-09-25T19:47:30.819Z</time>
      </trkpt>
      <trkpt lat="43.47064" lon="3.53375">
        <ele>78</ele>
        <time>2018-09-25T19:47:31.819Z</time>
      </trkpt>
      <trkpt lat="43.47061" lon="3.53371">
        <ele>78</ele>
        <time>2018-09-25T19:47:32.819Z</time>
      </trkpt>
      <trkpt lat="43.47057" lon="3.53368">
        <ele>78.1</ele>
        <time>2018-09-25T19:47:33.819Z</time>
      </trkpt>
      <trkpt lat="43.47054" lon="3.53364">
        <ele>78.1</ele>
        <time>2018-09-25T19:47:34.819Z</time>
      </trkpt>
      <trkpt lat="43.47051" lon="3.5336">
        <ele>78.2</ele>
        <time>2018-09-25T19:47:35.819Z</time>
      </trkpt>
      <trkpt lat="43.47047" lon="3.53356">
        <ele>78.3</ele>
        <time>2018-09-25T19:47:36.819Z</time>
      </trkpt>
      <trkpt lat="43.47044" lon="3.53352">
        <ele>78.1</ele>
        <time>2018-09-25T19:47:37.819Z</time>
      </trkpt>
      <trkpt lat="43.4704" lon="3.53349">
        <ele>78.2</ele>
        <time>2018-09-25T19:47:38.819Z</time>
      </trkpt>
      <trkpt lat="43.47037" lon="3.53345">
        <ele>78.2</ele>
        <time>2018-09-25T19:47:39.819Z</time>
      </trkpt>
      <trkpt lat="43.47034" lon="3.53342">
        <ele>78.3</ele>
        <time>2018-09-25T19:47:40.819Z</time>
      </trkpt>
      <trkpt lat="43.47031" lon="3.53337">
        <ele>78.3</ele>
        <time>2018-09-25T19:47:41.819Z</time>
      </trkpt>
      <trkpt lat="43.47027" lon="3.53333">
        <ele>78.4</ele>
        <time>2018-09-25T19:47:42.819Z</time>
      </trkpt>
      <trkpt lat="43.47023" lon="3.5333">
        <ele>78.3</ele>
        <time>2018-09-25T19:47:43.819Z</time>
      </trkpt>
      <trkpt lat="43.47019" lon="3.53327">
        <ele>78.1</ele>
        <time>2018-09-25T19:47:44.819Z</time>
      </trkpt>
      <trkpt lat="43.47016" lon="3.53323">
        <ele>78.2</ele>
        <time>2018-09-25T19:47:45.819Z</time>
      </trkpt>
      <trkpt lat="43.47012" lon="3.53319">
        <ele>78.3</ele>
        <time>2018-09-25T19:47:46.819Z</time>
      </trkpt>
      <trkpt lat="43.47009" lon="3.53316">
        <ele>78.4</ele>
        <time>2018-09-25T19:47:47.819Z</time>
      </trkpt>
      <trkpt lat="43.47006" lon="3.53312">
        <ele>78.6</ele>
        <time>2018-09-25T19:47:48.819Z</time>
      </trkpt>
      <trkpt lat="43.47003" lon="3.53309">
        <ele>78.7</ele>
        <time>2018-09-25T19:47:49.819Z</time>
      </trkpt>
      <trkpt lat="43.46999" lon="3.53305">
        <ele>78.6</ele>
        <time>2018-09-25T19:47:50.819Z</time>
      </trkpt>
      <trkpt lat="43.46995" lon="3.53301">
        <ele>78.6</ele>
        <time>2018-09-25T19:47:51.819Z</time>
      </trkpt>
      <trkpt lat="43.46992" lon="3.53298">
        <ele>78.8</ele>
        <time>2018-09-25T19:47:52.819Z</time>
      </trkpt>
      <trkpt lat="43.46988" lon="3.53294">
        <ele>79</ele>
        <time>2018-09-25T19:47:53.819Z</time>
      </trkpt>
      <trkpt lat="43.46985" lon="3.5329">
        <ele>79.3</ele>
        <time>2018-09-25T19:47:54.819Z</time>
      </trkpt>
      <trkpt lat="43.46982" lon="3.53286">
        <ele>79.6</ele>
        <time>2018-09-25T19:47:55.819Z</time>
      </trkpt>
      <trkpt lat="43.46979" lon="3.53283">
        <ele>79.9</ele>
        <time>2018-09-25T19:47:56.819Z</time>
      </trkpt>
      <trkpt lat="43.46975" lon="3.53279">
        <ele>79.8</ele>
        <time>2018-09-25T19:47:57.819Z</time>
      </trkpt>
      <trkpt lat="43.46972" lon="3.53276">
        <ele>80</ele>
        <time>2018-09-25T19:47:58.819Z</time>
      </trkpt>
      <trkpt lat="43.46969" lon="3.53272">
        <ele>80.3</ele>
        <time>2018-09-25T19:47:59.819Z</time>
      </trkpt>
      <trkpt lat="43.46966" lon="3.53268">
        <ele>80.6</ele>
        <time>2018-09-25T19:48:00.819Z</time>
      </trkpt>
      <trkpt lat="43.46962" lon="3.53264">
        <ele>80.9</ele>
        <time>2018-09-25T19:48:01.819Z</time>
      </trkpt>
      <trkpt lat="43.46959" lon="3.53261">
        <ele>81.1</ele>
        <time>2018-09-25T19:48:02.819Z</time>
      </trkpt>
      <trkpt lat="43.46956" lon="3.53258">
        <ele>81.4</ele>
        <time>2018-09-25T19:48:03.819Z</time>
      </trkpt>
      <trkpt lat="43.46953" lon="3.53254">
        <ele>81.2</ele>
        <time>2018-09-25T19:48:04.819Z</time>
      </trkpt>
      <trkpt lat="43.4695" lon="3.5325">
        <ele>81.3</ele>
        <time>2018-09-25T19:48:05.819Z</time>
      </trkpt>
      <trkpt lat="43.46946" lon="3.53247">
        <ele>81.5</ele>
        <time>2018-09-25T19:48:06.819Z</time>
      </trkpt>
      <trkpt lat="43.46943" lon="3.53242">
        <ele>81.6</ele>
        <time>2018-09-25T19:48:07.819Z</time>
      </trkpt>
      <trkpt lat="43.46939" lon="3.53238">
        <ele>81.3</ele>
        <time>2018-09-25T19:48:08.819Z</time>
      </trkpt>
      <trkpt lat="43.46936" lon="3.53234">
        <ele>81.3</ele>
        <time>2018-09-25T19:48:09.819Z</time>
      </trkpt>
      <trkpt lat="43.46932" lon="3.53229">
        <ele>81.3</ele>
        <time>2018-09-25T19:48:10.819Z</time>
      </trkpt>
      <trkpt lat="43.46928" lon="3.53225">
        <ele>81.2</ele>
        <time>2018-09-25T19:48:11.819Z</time>
      </trkpt>
      <trkpt lat="43.46924" lon="3.53221">
        <ele>80.9</ele>
        <time>2018-09-25T19:48:12.819Z</time>
      </trkpt>
      <trkpt lat="43.4692" lon="3.53216">
        <ele>80.7</ele>
        <time>2018-09-25T19:48:13.819Z</time>
      </trkpt>
      <trkpt lat="43.46917" lon="3.53213">
        <ele>80.6</ele>
        <time>2018-09-25T19:48:14.819Z</time>
      </trkpt>
      <trkpt lat="43.46913" lon="3.53209">
        <ele>80.4</ele>
        <time>2018-09-25T19:48:15.819Z</time>
      </trkpt>
      <trkpt lat="43.4691" lon="3.53205">
        <ele>80.2</ele>
        <time>2018-09-25T19:48:16.819Z</time>
      </trkpt>
      <trkpt lat="43.46907" lon="3.53201">
        <ele>80</ele>
        <time>2018-09-25T19:48:17.819Z</time>
      </trkpt>
      <trkpt lat="43.46903" lon="3.53197">
        <ele>79.8</ele>
        <time>2018-09-25T19:48:18.819Z</time>
      </trkpt>
      <trkpt lat="43.469" lon="3.53193">
        <ele>79.6</ele>
        <time>2018-09-25T19:48:19.819Z</time>
      </trkpt>
      <trkpt lat="43.46896" lon="3.5319">
        <ele>79.4</ele>
        <time>2018-09-25T19:48:20.819Z</time>
      </trkpt>
      <trkpt lat="43.46893" lon="3.53186">
        <ele>79.2</ele>
        <time>2018-09-25T19:48:21.819Z</time>
      </trkpt>
      <trkpt lat="43.4689" lon="3.53182">
        <ele>78.7</ele>
        <time>2018-09-25T19:48:22.819Z</time>
      </trkpt>
      <trkpt lat="43.46886" lon="3.53178">
        <ele>78.4</ele>
        <time>2018-09-25T19:48:23.819Z</time>
      </trkpt>
      <trkpt lat="43.46883" lon="3.53174">
        <ele>78.2</ele>
        <time>2018-09-25T19:48:24.819Z</time>
      </trkpt>
      <trkpt lat="43.46879" lon="3.5317">
        <ele>78.2</ele>
        <time>2018-09-25T19:48:25.819Z</time>
      </trkpt>
      <trkpt lat="43.46875" lon="3.53165">
        <ele>78.1</ele>
        <time>2018-09-25T19:48:26.819Z</time>
      </trkpt>
      <trkpt lat="43.46872" lon="3.53161">
        <ele>78.2</ele>
        <time>2018-09-25T19:48:27.819Z</time>
      </trkpt>
      <trkpt lat="43.46868" lon="3.53157">
        <ele>78</ele>
        <time>2018-09-25T19:48:28.819Z</time>
      </trkpt>
      <trkpt lat="43.46864" lon="3.53152">
        <ele>78</ele>
        <time>2018-09-25T19:48:29.819Z</time>
      </trkpt>
      <trkpt lat="43.46861" lon="3.53147">
        <ele>78.1</ele>
        <time>2018-09-25T19:48:30.819Z</time>
      </trkpt>
      <trkpt lat="43.46858" lon="3.53143">
        <ele>78.1</ele>
        <time>2018-09-25T19:48:31.819Z</time>
      </trkpt>
      <trkpt lat="43.46854" lon="3.53139">
        <ele>78.1</ele>
        <time>2018-09-25T19:48:32.819Z</time>
      </trkpt>
      <trkpt lat="43.46851" lon="3.53135">
        <ele>78.2</ele>
        <time>2018-09-25T19:48:33.819Z</time>
      </trkpt>
      <trkpt lat="43.46848" lon="3.5313">
        <ele>78.2</ele>
        <time>2018-09-25T19:48:34.819Z</time>
      </trkpt>
      <trkpt lat="43.46846" lon="3.53127">
        <ele>78.2</ele>
        <time>2018-09-25T19:48:35.819Z</time>
      </trkpt>
      <trkpt lat="43.46843" lon="3.53122">
        <ele>78.1</ele>
        <time>2018-09-25T19:48:36.819Z</time>
      </trkpt>
      <trkpt lat="43.4684" lon="3.53118">
        <ele>78.3</ele>
        <time>2018-09-25T19:48:37.819Z</time>
      </trkpt>
      <trkpt lat="43.46838" lon="3.53114">
        <ele>78.3</ele>
        <time>2018-09-25T19:48:38.819Z</time>
      </trkpt>
      <trkpt lat="43.46836" lon="3.53109">
        <ele>78.4</ele>
        <time>2018-09-25T19:48:39.819Z</time>
      </trkpt>
      <trkpt lat="43.46833" lon="3.53105">
        <ele>78.4</ele>
        <time>2018-09-25T19:48:40.819Z</time>
      </trkpt>
      <trkpt lat="43.4683" lon="3.53101">
        <ele>78.5</ele>
        <time>2018-09-25T19:48:41.819Z</time>
      </trkpt>
      <trkpt lat="43.46827" lon="3.53097">
        <ele>78.6</ele>
        <time>2018-09-25T19:48:42.819Z</time>
      </trkpt>
      <trkpt lat="43.46825" lon="3.53092">
        <ele>78.8</ele>
        <time>2018-09-25T19:48:43.819Z</time>
      </trkpt>
      <trkpt lat="43.46823" lon="3.53088">
        <ele>78.9</ele>
        <time>2018-09-25T19:48:44.819Z</time>
      </trkpt>
      <trkpt lat="43.4682" lon="3.53083">
        <ele>79</ele>
        <time>2018-09-25T19:48:45.819Z</time>
      </trkpt>
      <trkpt lat="43.46818" lon="3.53078">
        <ele>79</ele>
        <time>2018-09-25T19:48:46.819Z</time>
      </trkpt>
      <trkpt lat="43.46816" lon="3.53073">
        <ele>79.2</ele>
        <time>2018-09-25T19:48:47.819Z</time>
      </trkpt>
      <trkpt lat="43.46814" lon="3.53068">
        <ele>79.3</ele>
        <time>2018-09-25T19:48:48.819Z</time>
      </trkpt>
      <trkpt lat="43.46812" lon="3.53063">
        <ele>79.2</ele>
        <time>2018-09-25T19:48:49.819Z</time>
      </trkpt>
      <trkpt lat="43.4681" lon="3.53057">
        <ele>79.4</ele>
        <time>2018-09-25T19:48:50.819Z</time>
      </trkpt>
      <trkpt lat="43.46808" lon="3.53052">
        <ele>79.3</ele>
        <time>2018-09-25T19:48:51.819Z</time>
      </trkpt>
      <trkpt lat="43.46806" lon="3.53047">
        <ele>79.6</ele>
        <time>2018-09-25T19:48:52.819Z</time>
      </trkpt>
      <trkpt lat="43.46804" lon="3.53042">
        <ele>79.5</ele>
        <time>2018-09-25T19:48:53.819Z</time>
      </trkpt>
      <trkpt lat="43.46802" lon="3.53037">
        <ele>79.3</ele>
        <time>2018-09-25T19:48:54.819Z</time>
      </trkpt>
      <trkpt lat="43.468" lon="3.53032">
        <ele>79.5</ele>
        <time>2018-09-25T19:48:55.819Z</time>
      </trkpt>
      <trkpt lat="43.46799" lon="3.53028">
        <ele>79.4</ele>
        <time>2018-09-25T19:48:56.819Z</time>
      </trkpt>
      <trkpt lat="43.46797" lon="3.53023">
        <ele>79.6</ele>
        <time>2018-09-25T19:48:57.819Z</time>
      </trkpt>
      <trkpt lat="43.46796" lon="3.53018">
        <ele>79.6</ele>
        <time>2018-09-25T19:48:58.819Z</time>
      </trkpt>
      <trkpt lat="43.46794" lon="3.53013">
        <ele>79.8</ele>
        <time>2018-09-25T19:48:59.819Z</time>
      </trkpt>
      <trkpt lat="43.46793" lon="3.53009">
        <ele>79.9</ele>
        <time>2018-09-25T19:49:00.819Z</time>
      </trkpt>
      <trkpt lat="43.46791" lon="3.53004">
        <ele>80.1</ele>
        <time>2018-09-25T19:49:01.819Z</time>
      </trkpt>
      <trkpt lat="43.4679" lon="3.53">
        <ele>79.8</ele>
        <time>2018-09-25T19:49:02.819Z</time>
      </trkpt>
      <trkpt lat="43.46789" lon="3.52994">
        <ele>80.2</ele>
        <time>2018-09-25T19:49:04.819Z</time>
      </trkpt>
      <trkpt lat="43.46788" lon="3.52989">
        <ele>80.4</ele>
        <time>2018-09-25T19:49:05.819Z</time>
      </trkpt>
      <trkpt lat="43.46786" lon="3.52985">
        <ele>80.3</ele>
        <time>2018-09-25T19:49:06.819Z</time>
      </trkpt>
      <trkpt lat="43.46785" lon="3.5298">
        <ele>80.5</ele>
        <time>2018-09-25T19:49:07.819Z</time>
      </trkpt>
      <trkpt lat="43.46784" lon="3.52976">
        <ele>80.4</ele>
        <time>2018-09-25T19:49:08.819Z</time>
      </trkpt>
      <trkpt lat="43.46783" lon="3.5297">
        <ele>80.6</ele>
        <time>2018-09-25T19:49:09.819Z</time>
      </trkpt>
      <trkpt lat="43.46783" lon="3.52965">
        <ele>81</ele>
        <time>2018-09-25T19:49:10.819Z</time>
      </trkpt>
      <trkpt lat="43.46784" lon="3.52962">
        <ele>81</ele>
        <time>2018-09-25T19:49:11.819Z</time>
      </trkpt>
      <trkpt lat="43.46784" lon="3.52958">
        <ele>81.2</ele>
        <time>2018-09-25T19:49:12.819Z</time>
      </trkpt>
      <trkpt lat="43.46784" lon="3.52952">
        <ele>81.5</ele>
        <time>2018-09-25T19:49:13.819Z</time>
      </trkpt>
      <trkpt lat="43.46783" lon="3.52946">
        <ele>81.7</ele>
        <time>2018-09-25T19:49:14.819Z</time>
      </trkpt>
      <trkpt lat="43.46782" lon="3.52941">
        <ele>81.9</ele>
        <time>2018-09-25T19:49:15.819Z</time>
      </trkpt>
      <trkpt lat="43.46781" lon="3.52935">
        <ele>82.2</ele>
        <time>2018-09-25T19:49:16.819Z</time>
      </trkpt>
      <trkpt lat="43.46781" lon="3.52929">
        <ele>82.1</ele>
        <time>2018-09-25T19:49:17.819Z</time>
      </trkpt>
      <trkpt lat="43.46781" lon="3.52923">
        <ele>82.3</ele>
        <time>2018-09-25T19:49:18.819Z</time>
      </trkpt>
      <trkpt lat="43.4678" lon="3.52918">
        <ele>82.7</ele>
        <time>2018-09-25T19:49:19.819Z</time>
      </trkpt>
      <trkpt lat="43.4678" lon="3.52914">
        <ele>82.9</ele>
        <time>2018-09-25T19:49:20.819Z</time>
      </trkpt>
      <trkpt lat="43.4678" lon="3.5291">
        <ele>83.1</ele>
        <time>2018-09-25T19:49:21.819Z</time>
      </trkpt>
      <trkpt lat="43.46779" lon="3.52906">
        <ele>83.2</ele>
        <time>2018-09-25T19:49:22.819Z</time>
      </trkpt>
      <trkpt lat="43.46779" lon="3.52901">
        <ele>83.4</ele>
        <time>2018-09-25T19:49:23.819Z</time>
      </trkpt>
      <trkpt lat="43.46779" lon="3.52896">
        <ele>83.5</ele>
        <time>2018-09-25T19:49:24.819Z</time>
      </trkpt>
      <trkpt lat="43.46778" lon="3.52891">
        <ele>83.7</ele>
        <time>2018-09-25T19:49:25.819Z</time>
      </trkpt>
      <trkpt lat="43.46778" lon="3.52886">
        <ele>83.5</ele>
        <time>2018-09-25T19:49:26.819Z</time>
      </trkpt>
      <trkpt lat="43.46777" lon="3.52882">
        <ele>83.7</ele>
        <time>2018-09-25T19:49:27.819Z</time>
      </trkpt>
      <trkpt lat="43.46776" lon="3.52877">
        <ele>83.8</ele>
        <time>2018-09-25T19:49:28.819Z</time>
      </trkpt>
      <trkpt lat="43.46775" lon="3.52872">
        <ele>84</ele>
        <time>2018-09-25T19:49:29.819Z</time>
      </trkpt>
      <trkpt lat="43.46774" lon="3.52868">
        <ele>83.8</ele>
        <time>2018-09-25T19:49:30.819Z</time>
      </trkpt>
      <trkpt lat="43.46773" lon="3.52864">
        <ele>84</ele>
        <time>2018-09-25T19:49:31.819Z</time>
      </trkpt>
      <trkpt lat="43.46773" lon="3.52859">
        <ele>84.3</ele>
        <time>2018-09-25T19:49:32.819Z</time>
      </trkpt>
      <trkpt lat="43.46773" lon="3.52854">
        <ele>84.5</ele>
        <time>2018-09-25T19:49:33.819Z</time>
      </trkpt>
      <trkpt lat="43.46773" lon="3.52849">
        <ele>84.6</ele>
        <time>2018-09-25T19:49:34.819Z</time>
      </trkpt>
      <trkpt lat="43.46774" lon="3.52843">
        <ele>84.8</ele>
        <time>2018-09-25T19:49:35.819Z</time>
      </trkpt>
      <trkpt lat="43.46775" lon="3.52839">
        <ele>85.3</ele>
        <time>2018-09-25T19:49:36.819Z</time>
      </trkpt>
      <trkpt lat="43.46778" lon="3.52834">
        <ele>85.7</ele>
        <time>2018-09-25T19:49:37.819Z</time>
      </trkpt>
      <trkpt lat="43.4678" lon="3.5283">
        <ele>85.9</ele>
        <time>2018-09-25T19:49:38.819Z</time>
      </trkpt>
      <trkpt lat="43.46783" lon="3.52826">
        <ele>86.3</ele>
        <time>2018-09-25T19:49:40.819Z</time>
      </trkpt>
      <trkpt lat="43.46787" lon="3.52823">
        <ele>86.6</ele>
        <time>2018-09-25T19:49:42.819Z</time>
      </trkpt>
      <trkpt lat="43.46789" lon="3.52821">
        <ele>86.8</ele>
        <time>2018-09-25T19:49:44.819Z</time>
      </trkpt>
      <trkpt lat="43.46791" lon="3.52817">
        <ele>87</ele>
        <time>2018-09-25T19:49:46.819Z</time>
      </trkpt>
      <trkpt lat="43.46795" lon="3.52815">
        <ele>87.2</ele>
        <time>2018-09-25T19:49:48.819Z</time>
      </trkpt>
      <trkpt lat="43.46797" lon="3.52812">
        <ele>87.4</ele>
        <time>2018-09-25T19:49:49.819Z</time>
      </trkpt>
      <trkpt lat="43.468" lon="3.5281">
        <ele>87.5</ele>
        <time>2018-09-25T19:49:50.819Z</time>
      </trkpt>
      <trkpt lat="43.46804" lon="3.52805">
        <ele>87.7</ele>
        <time>2018-09-25T19:49:52.819Z</time>
      </trkpt>
      <trkpt lat="43.4681" lon="3.52801">
        <ele>87.9</ele>
        <time>2018-09-25T19:49:54.819Z</time>
      </trkpt>
      <trkpt lat="43.46812" lon="3.52798">
        <ele>87.9</ele>
        <time>2018-09-25T19:49:55.819Z</time>
      </trkpt>
      <trkpt lat="43.46815" lon="3.52795">
        <ele>88</ele>
        <time>2018-09-25T19:49:56.819Z</time>
      </trkpt>
      <trkpt lat="43.46818" lon="3.52793">
        <ele>88.1</ele>
        <time>2018-09-25T19:49:57.819Z</time>
      </trkpt>
      <trkpt lat="43.46821" lon="3.5279">
        <ele>88.2</ele>
        <time>2018-09-25T19:49:58.819Z</time>
      </trkpt>
      <trkpt lat="43.46824" lon="3.52786">
        <ele>88.3</ele>
        <time>2018-09-25T19:50:00.819Z</time>
      </trkpt>
      <trkpt lat="43.46826" lon="3.52783">
        <ele>88.5</ele>
        <time>2018-09-25T19:50:04.819Z</time>
      </trkpt>
      <trkpt lat="43.46828" lon="3.5278">
        <ele>88.6</ele>
        <time>2018-09-25T19:50:12.819Z</time>
      </trkpt>
      <trkpt lat="43.46831" lon="3.52775">
        <ele>88.7</ele>
        <time>2018-09-25T19:50:16.819Z</time>
      </trkpt>
      <trkpt lat="43.46832" lon="3.52772">
        <ele>88.9</ele>
        <time>2018-09-25T19:50:20.819Z</time>
      </trkpt>
      <trkpt lat="43.46834" lon="3.52769">
        <ele>89.2</ele>
        <time>2018-09-25T19:50:23.819Z</time>
      </trkpt>
      <trkpt lat="43.46837" lon="3.52767">
        <ele>89.5</ele>
        <time>2018-09-25T19:50:26.819Z</time>
      </trkpt>
      <trkpt lat="43.4684" lon="3.52766">
        <ele>89.8</ele>
        <time>2018-09-25T19:50:29.819Z</time>
      </trkpt>
      <trkpt lat="43.46843" lon="3.52764">
        <ele>90</ele>
        <time>2018-09-25T19:50:34.819Z</time>
      </trkpt>
      <trkpt lat="43.46846" lon="3.5276">
        <ele>90.3</ele>
        <time>2018-09-25T19:50:36.819Z</time>
      </trkpt>
      <trkpt lat="43.46849" lon="3.52757">
        <ele>90.7</ele>
        <time>2018-09-25T19:50:37.819Z</time>
      </trkpt>
      <trkpt lat="43.46851" lon="3.52754">
        <ele>91.2</ele>
        <time>2018-09-25T19:50:38.819Z</time>
      </trkpt>
      <trkpt lat="43.46855" lon="3.5275">
        <ele>91.7</ele>
        <time>2018-09-25T19:50:39.819Z</time>
      </trkpt>
      <trkpt lat="43.46859" lon="3.52746">
        <ele>92.3</ele>
        <time>2018-09-25T19:50:40.819Z</time>
      </trkpt>
      <trkpt lat="43.46862" lon="3.52742">
        <ele>93.1</ele>
        <time>2018-09-25T19:50:41.819Z</time>
      </trkpt>
      <trkpt lat="43.46866" lon="3.52737">
        <ele>93.7</ele>
        <time>2018-09-25T19:50:42.819Z</time>
      </trkpt>
      <trkpt lat="43.4687" lon="3.52732">
        <ele>94.2</ele>
        <time>2018-09-25T19:50:43.819Z</time>
      </trkpt>
      <trkpt lat="43.46874" lon="3.52728">
        <ele>94.6</ele>
        <time>2018-09-25T19:50:44.819Z</time>
      </trkpt>
      <trkpt lat="43.46878" lon="3.52724">
        <ele>95.2</ele>
        <time>2018-09-25T19:50:45.819Z</time>
      </trkpt>
      <trkpt lat="43.46882" lon="3.5272">
        <ele>95.5</ele>
        <time>2018-09-25T19:50:46.819Z</time>
      </trkpt>
      <trkpt lat="43.46885" lon="3.52716">
        <ele>95.8</ele>
        <time>2018-09-25T19:50:47.819Z</time>
      </trkpt>
      <trkpt lat="43.46888" lon="3.52713">
        <ele>96.1</ele>
        <time>2018-09-25T19:50:48.819Z</time>
      </trkpt>
      <trkpt lat="43.46891" lon="3.5271">
        <ele>96.3</ele>
        <time>2018-09-25T19:50:49.819Z</time>
      </trkpt>
      <trkpt lat="43.46894" lon="3.52706">
        <ele>96.4</ele>
        <time>2018-09-25T19:50:50.819Z</time>
      </trkpt>
      <trkpt lat="43.46897" lon="3.52702">
        <ele>96.5</ele>
        <time>2018-09-25T19:50:51.819Z</time>
      </trkpt>
      <trkpt lat="43.46899" lon="3.527">
        <ele>96.4</ele>
        <time>2018-09-25T19:50:52.819Z</time>
      </trkpt>
      <trkpt lat="43.46901" lon="3.52697">
        <ele>96.5</ele>
        <time>2018-09-25T19:50:53.819Z</time>
      </trkpt>
      <trkpt lat="43.46904" lon="3.52695">
        <ele>96.6</ele>
        <time>2018-09-25T19:50:54.819Z</time>
      </trkpt>
      <trkpt lat="43.46907" lon="3.52694">
        <ele>96.6</ele>
        <time>2018-09-25T19:50:55.819Z</time>
      </trkpt>
      <trkpt lat="43.4691" lon="3.52692">
        <ele>96.7</ele>
        <time>2018-09-25T19:50:56.819Z</time>
      </trkpt>
      <trkpt lat="43.46913" lon="3.52691">
        <ele>96.8</ele>
        <time>2018-09-25T19:50:57.819Z</time>
      </trkpt>
      <trkpt lat="43.46916" lon="3.52687">
        <ele>96.9</ele>
        <time>2018-09-25T19:50:59.819Z</time>
      </trkpt>
      <trkpt lat="43.46919" lon="3.52685">
        <ele>97</ele>
        <time>2018-09-25T19:51:01.819Z</time>
      </trkpt>
      <trkpt lat="43.46918" lon="3.52679">
        <ele>96.9</ele>
        <time>2018-09-25T19:51:04.819Z</time>
      </trkpt>
      <trkpt lat="43.46916" lon="3.52675">
        <ele>97</ele>
        <time>2018-09-25T19:51:05.819Z</time>
      </trkpt>
      <trkpt lat="43.46915" lon="3.52671">
        <ele>97</ele>
        <time>2018-09-25T19:51:06.819Z</time>
      </trkpt>
      <trkpt lat="43.46914" lon="3.52665">
        <ele>97.1</ele>
        <time>2018-09-25T19:51:08.819Z</time>
      </trkpt>
      <trkpt lat="43.46916" lon="3.52661">
        <ele>97.4</ele>
        <time>2018-09-25T19:51:10.819Z</time>
      </trkpt>
      <trkpt lat="43.46915" lon="3.52655">
        <ele>97.5</ele>
        <time>2018-09-25T19:51:12.819Z</time>
      </trkpt>
      <trkpt lat="43.46916" lon="3.52652">
        <ele>97.6</ele>
        <time>2018-09-25T19:51:13.819Z</time>
      </trkpt>
      <trkpt lat="43.46917" lon="3.52648">
        <ele>97.7</ele>
        <time>2018-09-25T19:51:15.819Z</time>
      </trkpt>
      <trkpt lat="43.46914" lon="3.52644">
        <ele>97.6</ele>
        <time>2018-09-25T19:51:17.819Z</time>
      </trkpt>
      <trkpt lat="43.46912" lon="3.52639">
        <ele>97.7</ele>
        <time>2018-09-25T19:51:19.819Z</time>
      </trkpt>
      <trkpt lat="43.4691" lon="3.52634">
        <ele>97.6</ele>
        <time>2018-09-25T19:51:21.819Z</time>
      </trkpt>
      <trkpt lat="43.46907" lon="3.52633">
        <ele>97.5</ele>
        <time>2018-09-25T19:51:22.819Z</time>
      </trkpt>
      <trkpt lat="43.46903" lon="3.52628">
        <ele>97.4</ele>
        <time>2018-09-25T19:51:24.819Z</time>
      </trkpt>
      <trkpt lat="43.46901" lon="3.52625">
        <ele>97.4</ele>
        <time>2018-09-25T19:51:25.819Z</time>
      </trkpt>
      <trkpt lat="43.46899" lon="3.52622">
        <ele>97.3</ele>
        <time>2018-09-25T19:51:26.819Z</time>
      </trkpt>
      <trkpt lat="43.46896" lon="3.52619">
        <ele>97.3</ele>
        <time>2018-09-25T19:51:29.819Z</time>
      </trkpt>
      <trkpt lat="43.46893" lon="3.52617">
        <ele>97.1</ele>
        <time>2018-09-25T19:51:31.819Z</time>
      </trkpt>
      <trkpt lat="43.4689" lon="3.52616">
        <ele>97.1</ele>
        <time>2018-09-25T19:51:32.819Z</time>
      </trkpt>
      <trkpt lat="43.46886" lon="3.52613">
        <ele>96.7</ele>
        <time>2018-09-25T19:51:34.819Z</time>
      </trkpt>
      <trkpt lat="43.46881" lon="3.52609">
        <ele>96.5</ele>
        <time>2018-09-25T19:51:36.819Z</time>
      </trkpt>
      <trkpt lat="43.46877" lon="3.52606">
        <ele>96.2</ele>
        <time>2018-09-25T19:51:37.819Z</time>
      </trkpt>
      <trkpt lat="43.46874" lon="3.52602">
        <ele>96.1</ele>
        <time>2018-09-25T19:51:38.819Z</time>
      </trkpt>
      <trkpt lat="43.46872" lon="3.526">
        <ele>96.1</ele>
        <time>2018-09-25T19:51:39.819Z</time>
      </trkpt>
      <trkpt lat="43.4687" lon="3.52597">
        <ele>95.9</ele>
        <time>2018-09-25T19:51:40.819Z</time>
      </trkpt>
      <trkpt lat="43.46867" lon="3.52591">
        <ele>95.7</ele>
        <time>2018-09-25T19:51:42.819Z</time>
      </trkpt>
      <trkpt lat="43.46863" lon="3.52583">
        <ele>95.4</ele>
        <time>2018-09-25T19:51:44.819Z</time>
      </trkpt>
      <trkpt lat="43.46863" lon="3.52577">
        <ele>95.3</ele>
        <time>2018-09-25T19:51:45.819Z</time>
      </trkpt>
      <trkpt lat="43.46861" lon="3.52571">
        <ele>95</ele>
        <time>2018-09-25T19:51:46.819Z</time>
      </trkpt>
      <trkpt lat="43.4686" lon="3.52566">
        <ele>94.9</ele>
        <time>2018-09-25T19:51:47.819Z</time>
      </trkpt>
      <trkpt lat="43.46857" lon="3.52561">
        <ele>94.6</ele>
        <time>2018-09-25T19:51:48.819Z</time>
      </trkpt>
      <trkpt lat="43.46854" lon="3.52557">
        <ele>94.3</ele>
        <time>2018-09-25T19:51:49.819Z</time>
      </trkpt>
      <trkpt lat="43.46851" lon="3.52554">
        <ele>94.1</ele>
        <time>2018-09-25T19:51:50.819Z</time>
      </trkpt>
      <trkpt lat="43.46849" lon="3.5255">
        <ele>93.9</ele>
        <time>2018-09-25T19:51:51.819Z</time>
      </trkpt>
      <trkpt lat="43.46847" lon="3.52546">
        <ele>93.8</ele>
        <time>2018-09-25T19:51:52.819Z</time>
      </trkpt>
      <trkpt lat="43.46843" lon="3.52543">
        <ele>93.3</ele>
        <time>2018-09-25T19:51:53.819Z</time>
      </trkpt>
      <trkpt lat="43.46839" lon="3.5254">
        <ele>92.9</ele>
        <time>2018-09-25T19:51:54.819Z</time>
      </trkpt>
      <trkpt lat="43.46836" lon="3.52536">
        <ele>92.6</ele>
        <time>2018-09-25T19:51:55.819Z</time>
      </trkpt>
      <trkpt lat="43.46834" lon="3.5253">
        <ele>92.2</ele>
        <time>2018-09-25T19:51:56.819Z</time>
      </trkpt>
      <trkpt lat="43.46831" lon="3.52526">
        <ele>91.8</ele>
        <time>2018-09-25T19:51:57.819Z</time>
      </trkpt>
      <trkpt lat="43.46827" lon="3.52522">
        <ele>91.4</ele>
        <time>2018-09-25T19:51:58.819Z</time>
      </trkpt>
      <trkpt lat="43.46824" lon="3.52517">
        <ele>91</ele>
        <time>2018-09-25T19:51:59.819Z</time>
      </trkpt>
      <trkpt lat="43.46821" lon="3.52512">
        <ele>90.6</ele>
        <time>2018-09-25T19:52:00.819Z</time>
      </trkpt>
      <trkpt lat="43.46819" lon="3.52507">
        <ele>90.5</ele>
        <time>2018-09-25T19:52:01.819Z</time>
      </trkpt>
      <trkpt lat="43.46818" lon="3.52504">
        <ele>90.1</ele>
        <time>2018-09-25T19:52:02.819Z</time>
      </trkpt>
      <trkpt lat="43.46817" lon="3.525">
        <ele>90.1</ele>
        <time>2018-09-25T19:52:03.819Z</time>
      </trkpt>
      <trkpt lat="43.46812" lon="3.52495">
        <ele>89.2</ele>
        <time>2018-09-25T19:52:05.819Z</time>
      </trkpt>
      <trkpt lat="43.46807" lon="3.52491">
        <ele>88.7</ele>
        <time>2018-09-25T19:52:07.819Z</time>
      </trkpt>
      <trkpt lat="43.46805" lon="3.52487">
        <ele>88.2</ele>
        <time>2018-09-25T19:52:08.819Z</time>
      </trkpt>
      <trkpt lat="43.46802" lon="3.52481">
        <ele>87.8</ele>
        <time>2018-09-25T19:52:09.819Z</time>
      </trkpt>
      <trkpt lat="43.46799" lon="3.52475">
        <ele>87.4</ele>
        <time>2018-09-25T19:52:10.819Z</time>
      </trkpt>
      <trkpt lat="43.46795" lon="3.52469">
        <ele>87</ele>
        <time>2018-09-25T19:52:11.819Z</time>
      </trkpt>
      <trkpt lat="43.46793" lon="3.52463">
        <ele>86.8</ele>
        <time>2018-09-25T19:52:12.819Z</time>
      </trkpt>
      <trkpt lat="43.4679" lon="3.52458">
        <ele>86.6</ele>
        <time>2018-09-25T19:52:13.819Z</time>
      </trkpt>
      <trkpt lat="43.46787" lon="3.52451">
        <ele>86.3</ele>
        <time>2018-09-25T19:52:14.819Z</time>
      </trkpt>
      <trkpt lat="43.46784" lon="3.52446">
        <ele>86.6</ele>
        <time>2018-09-25T19:52:15.819Z</time>
      </trkpt>
      <trkpt lat="43.46782" lon="3.52442">
        <ele>86.4</ele>
        <time>2018-09-25T19:52:16.819Z</time>
      </trkpt>
      <trkpt lat="43.4678" lon="3.52437">
        <ele>86.2</ele>
        <time>2018-09-25T19:52:17.819Z</time>
      </trkpt>
      <trkpt lat="43.46777" lon="3.52432">
        <ele>86</ele>
        <time>2018-09-25T19:52:18.819Z</time>
      </trkpt>
      <trkpt lat="43.46775" lon="3.52427">
        <ele>86.2</ele>
        <time>2018-09-25T19:52:19.819Z</time>
      </trkpt>
      <trkpt lat="43.46773" lon="3.52423">
        <ele>86.1</ele>
        <time>2018-09-25T19:52:20.819Z</time>
      </trkpt>
      <trkpt lat="43.4677" lon="3.5242">
        <ele>85.9</ele>
        <time>2018-09-25T19:52:21.819Z</time>
      </trkpt>
      <trkpt lat="43.46767" lon="3.52418">
        <ele>85.6</ele>
        <time>2018-09-25T19:52:23.819Z</time>
      </trkpt>
      <trkpt lat="43.46766" lon="3.52414">
        <ele>85.8</ele>
        <time>2018-09-25T19:52:25.819Z</time>
      </trkpt>
      <trkpt lat="43.46762" lon="3.52407">
        <ele>85.9</ele>
        <time>2018-09-25T19:52:27.819Z</time>
      </trkpt>
      <trkpt lat="43.46758" lon="3.52403">
        <ele>85.4</ele>
        <time>2018-09-25T19:52:29.819Z</time>
      </trkpt>
      <trkpt lat="43.46755" lon="3.52399">
        <ele>85.1</ele>
        <time>2018-09-25T19:52:30.819Z</time>
      </trkpt>
      <trkpt lat="43.46754" lon="3.52395">
        <ele>85.1</ele>
        <time>2018-09-25T19:52:31.819Z</time>
      </trkpt>
      <trkpt lat="43.46752" lon="3.52391">
        <ele>84.9</ele>
        <time>2018-09-25T19:52:32.819Z</time>
      </trkpt>
      <trkpt lat="43.46751" lon="3.52387">
        <ele>85</ele>
        <time>2018-09-25T19:52:34.819Z</time>
      </trkpt>
      <trkpt lat="43.46746" lon="3.52384">
        <ele>84.4</ele>
        <time>2018-09-25T19:52:36.819Z</time>
      </trkpt>
      <trkpt lat="43.46744" lon="3.52381">
        <ele>84.6</ele>
        <time>2018-09-25T19:52:37.819Z</time>
      </trkpt>
      <trkpt lat="43.46742" lon="3.52377">
        <ele>84.4</ele>
        <time>2018-09-25T19:52:38.819Z</time>
      </trkpt>
      <trkpt lat="43.4674" lon="3.52374">
        <ele>84</ele>
        <time>2018-09-25T19:52:39.819Z</time>
      </trkpt>
      <trkpt lat="43.46737" lon="3.52371">
        <ele>83.9</ele>
        <time>2018-09-25T19:52:40.819Z</time>
      </trkpt>
      <trkpt lat="43.46734" lon="3.52367">
        <ele>84.2</ele>
        <time>2018-09-25T19:52:41.819Z</time>
      </trkpt>
      <trkpt lat="43.46732" lon="3.52362">
        <ele>84.1</ele>
        <time>2018-09-25T19:52:42.819Z</time>
      </trkpt>
      <trkpt lat="43.4673" lon="3.52358">
        <ele>84.1</ele>
        <time>2018-09-25T19:52:43.819Z</time>
      </trkpt>
      <trkpt lat="43.46727" lon="3.52354">
        <ele>84.1</ele>
        <time>2018-09-25T19:52:44.819Z</time>
      </trkpt>
      <trkpt lat="43.46725" lon="3.52351">
        <ele>84.1</ele>
        <time>2018-09-25T19:52:45.819Z</time>
      </trkpt>
      <trkpt lat="43.46722" lon="3.52347">
        <ele>84.4</ele>
        <time>2018-09-25T19:52:46.819Z</time>
      </trkpt>
      <trkpt lat="43.4672" lon="3.52343">
        <ele>84.4</ele>
        <time>2018-09-25T19:52:47.819Z</time>
      </trkpt>
      <trkpt lat="43.46718" lon="3.52338">
        <ele>84.3</ele>
        <time>2018-09-25T19:52:48.819Z</time>
      </trkpt>
      <trkpt lat="43.46716" lon="3.52334">
        <ele>84.6</ele>
        <time>2018-09-25T19:52:49.819Z</time>
      </trkpt>
      <trkpt lat="43.46713" lon="3.5233">
        <ele>84.5</ele>
        <time>2018-09-25T19:52:50.819Z</time>
      </trkpt>
      <trkpt lat="43.46711" lon="3.52324">
        <ele>84.5</ele>
        <time>2018-09-25T19:52:51.819Z</time>
      </trkpt>
      <trkpt lat="43.46709" lon="3.52319">
        <ele>84.5</ele>
        <time>2018-09-25T19:52:52.819Z</time>
      </trkpt>
      <trkpt lat="43.46707" lon="3.52313">
        <ele>84.9</ele>
        <time>2018-09-25T19:52:53.819Z</time>
      </trkpt>
      <trkpt lat="43.46705" lon="3.52308">
        <ele>85</ele>
        <time>2018-09-25T19:52:54.819Z</time>
      </trkpt>
      <trkpt lat="43.46705" lon="3.52303">
        <ele>85.2</ele>
        <time>2018-09-25T19:52:55.819Z</time>
      </trkpt>
      <trkpt lat="43.46705" lon="3.52298">
        <ele>85.4</ele>
        <time>2018-09-25T19:52:56.819Z</time>
      </trkpt>
      <trkpt lat="43.46707" lon="3.52293">
        <ele>85.7</ele>
        <time>2018-09-25T19:52:58.819Z</time>
      </trkpt>
      <trkpt lat="43.46703" lon="3.52289">
        <ele>85.8</ele>
        <time>2018-09-25T19:53:00.819Z</time>
      </trkpt>
      <trkpt lat="43.46701" lon="3.52283">
        <ele>86</ele>
        <time>2018-09-25T19:53:01.819Z</time>
      </trkpt>
      <trkpt lat="43.46698" lon="3.52278">
        <ele>86</ele>
        <time>2018-09-25T19:53:02.819Z</time>
      </trkpt>
      <trkpt lat="43.46696" lon="3.52273">
        <ele>86.1</ele>
        <time>2018-09-25T19:53:03.819Z</time>
      </trkpt>
      <trkpt lat="43.46694" lon="3.5227">
        <ele>86.1</ele>
        <time>2018-09-25T19:53:04.819Z</time>
      </trkpt>
      <trkpt lat="43.46691" lon="3.52267">
        <ele>86.1</ele>
        <time>2018-09-25T19:53:05.819Z</time>
      </trkpt>
      <trkpt lat="43.46689" lon="3.52265">
        <ele>86.2</ele>
        <time>2018-09-25T19:53:06.819Z</time>
      </trkpt>
      <trkpt lat="43.46686" lon="3.52259">
        <ele>86.3</ele>
        <time>2018-09-25T19:53:08.819Z</time>
      </trkpt>
      <trkpt lat="43.46684" lon="3.52256">
        <ele>86.4</ele>
        <time>2018-09-25T19:53:09.819Z</time>
      </trkpt>
      <trkpt lat="43.46682" lon="3.52254">
        <ele>86.4</ele>
        <time>2018-09-25T19:53:10.819Z</time>
      </trkpt>
      <trkpt lat="43.4668" lon="3.52249">
        <ele>86.5</ele>
        <time>2018-09-25T19:53:11.819Z</time>
      </trkpt>
      <trkpt lat="43.46677" lon="3.52246">
        <ele>86.6</ele>
        <time>2018-09-25T19:53:12.819Z</time>
      </trkpt>
      <trkpt lat="43.46674" lon="3.52242">
        <ele>86.7</ele>
        <time>2018-09-25T19:53:13.819Z</time>
      </trkpt>
      <trkpt lat="43.46672" lon="3.52236">
        <ele>86.8</ele>
        <time>2018-09-25T19:53:14.819Z</time>
      </trkpt>
      <trkpt lat="43.46671" lon="3.52231">
        <ele>87</ele>
        <time>2018-09-25T19:53:15.819Z</time>
      </trkpt>
      <trkpt lat="43.4667" lon="3.52227">
        <ele>87.1</ele>
        <time>2018-09-25T19:53:16.819Z</time>
      </trkpt>
      <trkpt lat="43.46668" lon="3.52224">
        <ele>87.1</ele>
        <time>2018-09-25T19:53:17.819Z</time>
      </trkpt>
      <trkpt lat="43.46666" lon="3.5222">
        <ele>87.2</ele>
        <time>2018-09-25T19:53:18.819Z</time>
      </trkpt>
      <trkpt lat="43.46663" lon="3.52215">
        <ele>87.3</ele>
        <time>2018-09-25T19:53:19.819Z</time>
      </trkpt>
      <trkpt lat="43.4666" lon="3.52212">
        <ele>87.4</ele>
        <time>2018-09-25T19:53:20.819Z</time>
      </trkpt>
      <trkpt lat="43.46657" lon="3.5221">
        <ele>87.5</ele>
        <time>2018-09-25T19:53:21.819Z</time>
      </trkpt>
      <trkpt lat="43.46654" lon="3.52208">
        <ele>87.5</ele>
        <time>2018-09-25T19:53:22.819Z</time>
      </trkpt>
      <trkpt lat="43.46651" lon="3.52205">
        <ele>87.6</ele>
        <time>2018-09-25T19:53:23.819Z</time>
      </trkpt>
      <trkpt lat="43.46648" lon="3.522">
        <ele>87.7</ele>
        <time>2018-09-25T19:53:25.819Z</time>
      </trkpt>
      <trkpt lat="43.46644" lon="3.52194">
        <ele>87.8</ele>
        <time>2018-09-25T19:53:27.819Z</time>
      </trkpt>
      <trkpt lat="43.46642" lon="3.52192">
        <ele>87.8</ele>
        <time>2018-09-25T19:53:28.819Z</time>
      </trkpt>
      <trkpt lat="43.4664" lon="3.52189">
        <ele>87.8</ele>
        <time>2018-09-25T19:53:29.819Z</time>
      </trkpt>
      <trkpt lat="43.46636" lon="3.52185">
        <ele>87.8</ele>
        <time>2018-09-25T19:53:31.819Z</time>
      </trkpt>
      <trkpt lat="43.46631" lon="3.52182">
        <ele>87.8</ele>
        <time>2018-09-25T19:53:33.819Z</time>
      </trkpt>
      <trkpt lat="43.46627" lon="3.52179">
        <ele>87.8</ele>
        <time>2018-09-25T19:53:35.819Z</time>
      </trkpt>
      <trkpt lat="43.46622" lon="3.52176">
        <ele>87.7</ele>
        <time>2018-09-25T19:53:37.819Z</time>
      </trkpt>
      <trkpt lat="43.46619" lon="3.52175">
        <ele>87.7</ele>
        <time>2018-09-25T19:53:38.819Z</time>
      </trkpt>
      <trkpt lat="43.46616" lon="3.52173">
        <ele>87.7</ele>
        <time>2018-09-25T19:53:39.819Z</time>
      </trkpt>
      <trkpt lat="43.46612" lon="3.52171">
        <ele>87.8</ele>
        <time>2018-09-25T19:53:41.819Z</time>
      </trkpt>
      <trkpt lat="43.4661" lon="3.52164">
        <ele>87.8</ele>
        <time>2018-09-25T19:53:43.819Z</time>
      </trkpt>
      <trkpt lat="43.4661" lon="3.5216">
        <ele>87.7</ele>
        <time>2018-09-25T19:53:44.819Z</time>
      </trkpt>
      <trkpt lat="43.46608" lon="3.52154">
        <ele>87.7</ele>
        <time>2018-09-25T19:53:46.819Z</time>
      </trkpt>
      <trkpt lat="43.46605" lon="3.52149">
        <ele>87.8</ele>
        <time>2018-09-25T19:53:48.819Z</time>
      </trkpt>
      <trkpt lat="43.46603" lon="3.52146">
        <ele>87.9</ele>
        <time>2018-09-25T19:53:49.819Z</time>
      </trkpt>
      <trkpt lat="43.46599" lon="3.52142">
        <ele>88</ele>
        <time>2018-09-25T19:53:51.819Z</time>
      </trkpt>
      <trkpt lat="43.46594" lon="3.52139">
        <ele>88.3</ele>
        <time>2018-09-25T19:53:53.819Z</time>
      </trkpt>
      <trkpt lat="43.46591" lon="3.52139">
        <ele>88.3</ele>
        <time>2018-09-25T19:53:54.819Z</time>
      </trkpt>
      <trkpt lat="43.46586" lon="3.52137">
        <ele>88.7</ele>
        <time>2018-09-25T19:53:56.819Z</time>
      </trkpt>
      <trkpt lat="43.46583" lon="3.52133">
        <ele>89</ele>
        <time>2018-09-25T19:53:58.819Z</time>
      </trkpt>
      <trkpt lat="43.46578" lon="3.52128">
        <ele>89.5</ele>
        <time>2018-09-25T19:54:00.819Z</time>
      </trkpt>
      <trkpt lat="43.46575" lon="3.52126">
        <ele>89.5</ele>
        <time>2018-09-25T19:54:01.819Z</time>
      </trkpt>
      <trkpt lat="43.46573" lon="3.52124">
        <ele>89.7</ele>
        <time>2018-09-25T19:54:02.819Z</time>
      </trkpt>
      <trkpt lat="43.46569" lon="3.52121">
        <ele>90.2</ele>
        <time>2018-09-25T19:54:04.819Z</time>
      </trkpt>
      <trkpt lat="43.46565" lon="3.52118">
        <ele>90.4</ele>
        <time>2018-09-25T19:54:06.819Z</time>
      </trkpt>
      <trkpt lat="43.46561" lon="3.52116">
        <ele>90.7</ele>
        <time>2018-09-25T19:54:07.819Z</time>
      </trkpt>
      <trkpt lat="43.46559" lon="3.52115">
        <ele>90.9</ele>
        <time>2018-09-25T19:54:08.819Z</time>
      </trkpt>
      <trkpt lat="43.46555" lon="3.52113">
        <ele>91.1</ele>
        <time>2018-09-25T19:54:10.819Z</time>
      </trkpt>
      <trkpt lat="43.46552" lon="3.52111">
        <ele>91.4</ele>
        <time>2018-09-25T19:54:13.819Z</time>
      </trkpt>
      <trkpt lat="43.4655" lon="3.52108">
        <ele>91.6</ele>
        <time>2018-09-25T19:54:18.819Z</time>
      </trkpt>
      <trkpt lat="43.46546" lon="3.52108">
        <ele>91.8</ele>
        <time>2018-09-25T19:54:20.819Z</time>
      </trkpt>
      <trkpt lat="43.46542" lon="3.52107">
        <ele>92</ele>
        <time>2018-09-25T19:54:22.819Z</time>
      </trkpt>
      <trkpt lat="43.4654" lon="3.52106">
        <ele>92.1</ele>
        <time>2018-09-25T19:54:25.819Z</time>
      </trkpt>
      <trkpt lat="43.46536" lon="3.52107">
        <ele>92.3</ele>
        <time>2018-09-25T19:54:27.819Z</time>
      </trkpt>
      <trkpt lat="43.46533" lon="3.52108">
        <ele>92.4</ele>
        <time>2018-09-25T19:54:28.819Z</time>
      </trkpt>
      <trkpt lat="43.4653" lon="3.52108">
        <ele>92.6</ele>
        <time>2018-09-25T19:54:29.819Z</time>
      </trkpt>
      <trkpt lat="43.46526" lon="3.52107">
        <ele>92.8</ele>
        <time>2018-09-25T19:54:30.819Z</time>
      </trkpt>
      <trkpt lat="43.46523" lon="3.52107">
        <ele>93</ele>
        <time>2018-09-25T19:54:31.819Z</time>
      </trkpt>
      <trkpt lat="43.4652" lon="3.52107">
        <ele>93.1</ele>
        <time>2018-09-25T19:54:32.819Z</time>
      </trkpt>
      <trkpt lat="43.46516" lon="3.52106">
        <ele>93.2</ele>
        <time>2018-09-25T19:54:34.819Z</time>
      </trkpt>
      <trkpt lat="43.46513" lon="3.52105">
        <ele>93.3</ele>
        <time>2018-09-25T19:54:36.819Z</time>
      </trkpt>
      <trkpt lat="43.46509" lon="3.52104">
        <ele>93.5</ele>
        <time>2018-09-25T19:54:38.819Z</time>
      </trkpt>
      <trkpt lat="43.46505" lon="3.52103">
        <ele>93.5</ele>
        <time>2018-09-25T19:54:40.819Z</time>
      </trkpt>
      <trkpt lat="43.46502" lon="3.52102">
        <ele>93.6</ele>
        <time>2018-09-25T19:54:41.819Z</time>
      </trkpt>
      <trkpt lat="43.46498" lon="3.521">
        <ele>93.6</ele>
        <time>2018-09-25T19:54:43.819Z</time>
      </trkpt>
      <trkpt lat="43.46494" lon="3.52097">
        <ele>93.7</ele>
        <time>2018-09-25T19:54:45.819Z</time>
      </trkpt>
      <trkpt lat="43.46491" lon="3.52095">
        <ele>93.7</ele>
        <time>2018-09-25T19:54:46.819Z</time>
      </trkpt>
      <trkpt lat="43.46488" lon="3.52092">
        <ele>93.7</ele>
        <time>2018-09-25T19:54:47.819Z</time>
      </trkpt>
      <trkpt lat="43.46484" lon="3.5209">
        <ele>93.7</ele>
        <time>2018-09-25T19:54:48.819Z</time>
      </trkpt>
      <trkpt lat="43.46481" lon="3.52088">
        <ele>93.7</ele>
        <time>2018-09-25T19:54:49.819Z</time>
      </trkpt>
      <trkpt lat="43.46477" lon="3.52086">
        <ele>93.6</ele>
        <time>2018-09-25T19:54:50.819Z</time>
      </trkpt>
      <trkpt lat="43.46473" lon="3.52081">
        <ele>93.6</ele>
        <time>2018-09-25T19:54:51.819Z</time>
      </trkpt>
      <trkpt lat="43.4647" lon="3.52075">
        <ele>93.5</ele>
        <time>2018-09-25T19:54:52.819Z</time>
      </trkpt>
      <trkpt lat="43.46468" lon="3.5207">
        <ele>93.4</ele>
        <time>2018-09-25T19:54:53.819Z</time>
      </trkpt>
      <trkpt lat="43.46466" lon="3.52067">
        <ele>93.3</ele>
        <time>2018-09-25T19:54:54.819Z</time>
      </trkpt>
      <trkpt lat="43.46463" lon="3.52063">
        <ele>93.1</ele>
        <time>2018-09-25T19:54:55.819Z</time>
      </trkpt>
      <trkpt lat="43.4646" lon="3.52058">
        <ele>92.9</ele>
        <time>2018-09-25T19:54:56.819Z</time>
      </trkpt>
      <trkpt lat="43.46457" lon="3.52052">
        <ele>92.8</ele>
        <time>2018-09-25T19:54:58.819Z</time>
      </trkpt>
      <trkpt lat="43.46457" lon="3.52048">
        <ele>92.6</ele>
        <time>2018-09-25T19:54:59.819Z</time>
      </trkpt>
      <trkpt lat="43.46456" lon="3.52043">
        <ele>92.4</ele>
        <time>2018-09-25T19:55:00.819Z</time>
      </trkpt>
      <trkpt lat="43.46455" lon="3.52038">
        <ele>92.2</ele>
        <time>2018-09-25T19:55:01.819Z</time>
      </trkpt>
      <trkpt lat="43.46454" lon="3.52033">
        <ele>92.1</ele>
        <time>2018-09-25T19:55:02.819Z</time>
      </trkpt>
      <trkpt lat="43.46453" lon="3.5203">
        <ele>91.8</ele>
        <time>2018-09-25T19:55:03.819Z</time>
      </trkpt>
      <trkpt lat="43.46452" lon="3.52023">
        <ele>91.7</ele>
        <time>2018-09-25T19:55:05.819Z</time>
      </trkpt>
      <trkpt lat="43.46455" lon="3.52018">
        <ele>91.6</ele>
        <time>2018-09-25T19:55:07.819Z</time>
      </trkpt>
      <trkpt lat="43.46456" lon="3.52013">
        <ele>91.4</ele>
        <time>2018-09-25T19:55:09.819Z</time>
      </trkpt>
      <trkpt lat="43.46455" lon="3.52009">
        <ele>91.1</ele>
        <time>2018-09-25T19:55:10.819Z</time>
      </trkpt>
      <trkpt lat="43.46455" lon="3.52004">
        <ele>90.9</ele>
        <time>2018-09-25T19:55:11.819Z</time>
      </trkpt>
      <trkpt lat="43.46455" lon="3.52">
        <ele>90.7</ele>
        <time>2018-09-25T19:55:12.819Z</time>
      </trkpt>
      <trkpt lat="43.46456" lon="3.51995">
        <ele>90.5</ele>
        <time>2018-09-25T19:55:13.819Z</time>
      </trkpt>
      <trkpt lat="43.46456" lon="3.5199">
        <ele>90.3</ele>
        <time>2018-09-25T19:55:15.819Z</time>
      </trkpt>
      <trkpt lat="43.46454" lon="3.51987">
        <ele>90</ele>
        <time>2018-09-25T19:55:17.819Z</time>
      </trkpt>
      <trkpt lat="43.46449" lon="3.51985">
        <ele>90</ele>
        <time>2018-09-25T19:55:19.819Z</time>
      </trkpt>
      <trkpt lat="43.46445" lon="3.51982">
        <ele>89.7</ele>
        <time>2018-09-25T19:55:21.819Z</time>
      </trkpt>
      <trkpt lat="43.46444" lon="3.51974">
        <ele>89.2</ele>
        <time>2018-09-25T19:55:23.819Z</time>
      </trkpt>
      <trkpt lat="43.46443" lon="3.51969">
        <ele>89</ele>
        <time>2018-09-25T19:55:24.819Z</time>
      </trkpt>
      <trkpt lat="43.46441" lon="3.51965">
        <ele>88.7</ele>
        <time>2018-09-25T19:55:25.819Z</time>
      </trkpt>
      <trkpt lat="43.46439" lon="3.51962">
        <ele>88.7</ele>
        <time>2018-09-25T19:55:26.819Z</time>
      </trkpt>
      <trkpt lat="43.46436" lon="3.51959">
        <ele>88.5</ele>
        <time>2018-09-25T19:55:27.819Z</time>
      </trkpt>
      <trkpt lat="43.46433" lon="3.51955">
        <ele>88.3</ele>
        <time>2018-09-25T19:55:28.819Z</time>
      </trkpt>
      <trkpt lat="43.46432" lon="3.51952">
        <ele>88.2</ele>
        <time>2018-09-25T19:55:29.819Z</time>
      </trkpt>
      <trkpt lat="43.46429" lon="3.51949">
        <ele>88</ele>
        <time>2018-09-25T19:55:30.819Z</time>
      </trkpt>
      <trkpt lat="43.46425" lon="3.51947">
        <ele>88</ele>
        <time>2018-09-25T19:55:31.819Z</time>
      </trkpt>
      <trkpt lat="43.46422" lon="3.51946">
        <ele>87.9</ele>
        <time>2018-09-25T19:55:32.819Z</time>
      </trkpt>
      <trkpt lat="43.46418" lon="3.51945">
        <ele>87.8</ele>
        <time>2018-09-25T19:55:33.819Z</time>
      </trkpt>
      <trkpt lat="43.46414" lon="3.51945">
        <ele>87.7</ele>
        <time>2018-09-25T19:55:34.819Z</time>
      </trkpt>
      <trkpt lat="43.4641" lon="3.51946">
        <ele>87.5</ele>
        <time>2018-09-25T19:55:35.819Z</time>
      </trkpt>
      <trkpt lat="43.46406" lon="3.51946">
        <ele>87.3</ele>
        <time>2018-09-25T19:55:36.819Z</time>
      </trkpt>
      <trkpt lat="43.46403" lon="3.51944">
        <ele>87.1</ele>
        <time>2018-09-25T19:55:37.819Z</time>
      </trkpt>
      <trkpt lat="43.46399" lon="3.51941">
        <ele>86.9</ele>
        <time>2018-09-25T19:55:38.819Z</time>
      </trkpt>
      <trkpt lat="43.46395" lon="3.51936">
        <ele>86.7</ele>
        <time>2018-09-25T19:55:39.819Z</time>
      </trkpt>
      <trkpt lat="43.46392" lon="3.51931">
        <ele>86.4</ele>
        <time>2018-09-25T19:55:40.819Z</time>
      </trkpt>
      <trkpt lat="43.46388" lon="3.51927">
        <ele>85.9</ele>
        <time>2018-09-25T19:55:41.819Z</time>
      </trkpt>
      <trkpt lat="43.46384" lon="3.51923">
        <ele>85.6</ele>
        <time>2018-09-25T19:55:42.819Z</time>
      </trkpt>
      <trkpt lat="43.4638" lon="3.5192">
        <ele>85.4</ele>
        <time>2018-09-25T19:55:43.819Z</time>
      </trkpt>
      <trkpt lat="43.46376" lon="3.51917">
        <ele>85.2</ele>
        <time>2018-09-25T19:55:44.819Z</time>
      </trkpt>
      <trkpt lat="43.46373" lon="3.51913">
        <ele>84.8</ele>
        <time>2018-09-25T19:55:45.819Z</time>
      </trkpt>
      <trkpt lat="43.46369" lon="3.5191">
        <ele>84.7</ele>
        <time>2018-09-25T19:55:46.819Z</time>
      </trkpt>
      <trkpt lat="43.46366" lon="3.51907">
        <ele>84.4</ele>
        <time>2018-09-25T19:55:47.819Z</time>
      </trkpt>
      <trkpt lat="43.46363" lon="3.51903">
        <ele>84.3</ele>
        <time>2018-09-25T19:55:48.819Z</time>
      </trkpt>
      <trkpt lat="43.4636" lon="3.51899">
        <ele>84.2</ele>
        <time>2018-09-25T19:55:49.819Z</time>
      </trkpt>
      <trkpt lat="43.46357" lon="3.51895">
        <ele>84.1</ele>
        <time>2018-09-25T19:55:51.819Z</time>
      </trkpt>
      <trkpt lat="43.46356" lon="3.5189">
        <ele>84.3</ele>
        <time>2018-09-25T19:55:56.819Z</time>
      </trkpt>
      <trkpt lat="43.46355" lon="3.51887">
        <ele>84.5</ele>
        <time>2018-09-25T19:56:45.819Z</time>
      </trkpt>
      <trkpt lat="43.46351" lon="3.51889">
        <ele>84.1</ele>
        <time>2018-09-25T19:57:16.819Z</time>
      </trkpt>
      <trkpt lat="43.46349" lon="3.51891">
        <ele>83.8</ele>
        <time>2018-09-25T19:57:42.819Z</time>
      </trkpt>
      <trkpt lat="43.46352" lon="3.51889">
        <ele>84.1</ele>
        <time>2018-09-25T19:58:47.819Z</time>
      </trkpt>
      <trkpt lat="43.46348" lon="3.51886">
        <ele>83.8</ele>
        <time>2018-09-25T19:58:56.819Z</time>
      </trkpt>
      <trkpt lat="43.46345" lon="3.51884">
        <ele>84</ele>
        <time>2018-09-25T19:58:57.819Z</time>
      </trkpt>
      <trkpt lat="43.46343" lon="3.51881">
        <ele>83.7</ele>
        <time>2018-09-25T19:58:58.819Z</time>
      </trkpt>
      <trkpt lat="43.46341" lon="3.51877">
        <ele>83.7</ele>
        <time>2018-09-25T19:58:59.819Z</time>
      </trkpt>
      <trkpt lat="43.46339" lon="3.51874">
        <ele>83.9</ele>
        <time>2018-09-25T19:59:00.819Z</time>
      </trkpt>
      <trkpt lat="43.46337" lon="3.51871">
        <ele>83.8</ele>
        <time>2018-09-25T19:59:01.819Z</time>
      </trkpt>
      <trkpt lat="43.46334" lon="3.51868">
        <ele>83.6</ele>
        <time>2018-09-25T19:59:02.819Z</time>
      </trkpt>
      <trkpt lat="43.46331" lon="3.51865">
        <ele>83.5</ele>
        <time>2018-09-25T19:59:03.819Z</time>
      </trkpt>
      <trkpt lat="43.46328" lon="3.51862">
        <ele>83.5</ele>
        <time>2018-09-25T19:59:04.819Z</time>
      </trkpt>
      <trkpt lat="43.46325" lon="3.51859">
        <ele>83.3</ele>
        <time>2018-09-25T19:59:05.819Z</time>
      </trkpt>
      <trkpt lat="43.46322" lon="3.51856">
        <ele>83.2</ele>
        <time>2018-09-25T19:59:06.819Z</time>
      </trkpt>
      <trkpt lat="43.4632" lon="3.51853">
        <ele>83.5</ele>
        <time>2018-09-25T19:59:07.819Z</time>
      </trkpt>
      <trkpt lat="43.46317" lon="3.51849">
        <ele>83.4</ele>
        <time>2018-09-25T19:59:08.819Z</time>
      </trkpt>
      <trkpt lat="43.46315" lon="3.51844">
        <ele>83.3</ele>
        <time>2018-09-25T19:59:09.819Z</time>
      </trkpt>
      <trkpt lat="43.46313" lon="3.5184">
        <ele>83.2</ele>
        <time>2018-09-25T19:59:10.819Z</time>
      </trkpt>
      <trkpt lat="43.46311" lon="3.51835">
        <ele>83.4</ele>
        <time>2018-09-25T19:59:11.819Z</time>
      </trkpt>
      <trkpt lat="43.46308" lon="3.51829">
        <ele>83.3</ele>
        <time>2018-09-25T19:59:12.819Z</time>
      </trkpt>
      <trkpt lat="43.46306" lon="3.51824">
        <ele>83.4</ele>
        <time>2018-09-25T19:59:13.819Z</time>
      </trkpt>
      <trkpt lat="43.46303" lon="3.51817">
        <ele>83.3</ele>
        <time>2018-09-25T19:59:14.819Z</time>
      </trkpt>
      <trkpt lat="43.46301" lon="3.51811">
        <ele>83.5</ele>
        <time>2018-09-25T19:59:15.819Z</time>
      </trkpt>
      <trkpt lat="43.463" lon="3.51808">
        <ele>83.5</ele>
        <time>2018-09-25T19:59:16.819Z</time>
      </trkpt>
      <trkpt lat="43.46296" lon="3.51805">
        <ele>83.5</ele>
        <time>2018-09-25T19:59:18.819Z</time>
      </trkpt>
      <trkpt lat="43.46292" lon="3.51806">
        <ele>83.3</ele>
        <time>2018-09-25T19:59:20.819Z</time>
      </trkpt>
      <trkpt lat="43.46289" lon="3.51807">
        <ele>82.8</ele>
        <time>2018-09-25T19:59:21.819Z</time>
      </trkpt>
      <trkpt lat="43.46286" lon="3.5181">
        <ele>82.6</ele>
        <time>2018-09-25T19:59:22.819Z</time>
      </trkpt>
      <trkpt lat="43.46282" lon="3.51814">
        <ele>82</ele>
        <time>2018-09-25T19:59:23.819Z</time>
      </trkpt>
      <trkpt lat="43.46278" lon="3.51816">
        <ele>81.6</ele>
        <time>2018-09-25T19:59:24.819Z</time>
      </trkpt>
      <trkpt lat="43.46275" lon="3.51817">
        <ele>81.5</ele>
        <time>2018-09-25T19:59:25.819Z</time>
      </trkpt>
      <trkpt lat="43.46272" lon="3.51815">
        <ele>81.6</ele>
        <time>2018-09-25T19:59:26.819Z</time>
      </trkpt>
      <trkpt lat="43.46269" lon="3.51813">
        <ele>81.4</ele>
        <time>2018-09-25T19:59:27.819Z</time>
      </trkpt>
      <trkpt lat="43.46266" lon="3.51809">
        <ele>81.5</ele>
        <time>2018-09-25T19:59:28.819Z</time>
      </trkpt>
      <trkpt lat="43.46263" lon="3.51806">
        <ele>81.6</ele>
        <time>2018-09-25T19:59:29.819Z</time>
      </trkpt>
      <trkpt lat="43.46261" lon="3.518">
        <ele>81.6</ele>
        <time>2018-09-25T19:59:30.819Z</time>
      </trkpt>
      <trkpt lat="43.46258" lon="3.51795">
        <ele>81.8</ele>
        <time>2018-09-25T19:59:31.819Z</time>
      </trkpt>
      <trkpt lat="43.46255" lon="3.51789">
        <ele>81.8</ele>
        <time>2018-09-25T19:59:32.819Z</time>
      </trkpt>
      <trkpt lat="43.46252" lon="3.51785">
        <ele>81.7</ele>
        <time>2018-09-25T19:59:33.819Z</time>
      </trkpt>
      <trkpt lat="43.46249" lon="3.51781">
        <ele>81.5</ele>
        <time>2018-09-25T19:59:34.819Z</time>
      </trkpt>
      <trkpt lat="43.46246" lon="3.51778">
        <ele>81.2</ele>
        <time>2018-09-25T19:59:35.819Z</time>
      </trkpt>
      <trkpt lat="43.46243" lon="3.51775">
        <ele>81.1</ele>
        <time>2018-09-25T19:59:36.819Z</time>
      </trkpt>
      <trkpt lat="43.46241" lon="3.51771">
        <ele>81</ele>
        <time>2018-09-25T19:59:37.819Z</time>
      </trkpt>
      <trkpt lat="43.46239" lon="3.51768">
        <ele>81.1</ele>
        <time>2018-09-25T19:59:38.819Z</time>
      </trkpt>
      <trkpt lat="43.46238" lon="3.51764">
        <ele>81</ele>
        <time>2018-09-25T19:59:39.819Z</time>
      </trkpt>
      <trkpt lat="43.46234" lon="3.51762">
        <ele>80.7</ele>
        <time>2018-09-25T19:59:41.819Z</time>
      </trkpt>
      <trkpt lat="43.46231" lon="3.5176">
        <ele>80.5</ele>
        <time>2018-09-25T19:59:43.819Z</time>
      </trkpt>
      <trkpt lat="43.46227" lon="3.51758">
        <ele>80.4</ele>
        <time>2018-09-25T19:59:45.819Z</time>
      </trkpt>
      <trkpt lat="43.46224" lon="3.51755">
        <ele>80.3</ele>
        <time>2018-09-25T19:59:46.819Z</time>
      </trkpt>
      <trkpt lat="43.46222" lon="3.51753">
        <ele>80.1</ele>
        <time>2018-09-25T19:59:47.819Z</time>
      </trkpt>
      <trkpt lat="43.46218" lon="3.51749">
        <ele>79.9</ele>
        <time>2018-09-25T19:59:49.819Z</time>
      </trkpt>
      <trkpt lat="43.46214" lon="3.51745">
        <ele>79.6</ele>
        <time>2018-09-25T19:59:51.819Z</time>
      </trkpt>
      <trkpt lat="43.46208" lon="3.51742">
        <ele>79.4</ele>
        <time>2018-09-25T19:59:53.819Z</time>
      </trkpt>
      <trkpt lat="43.46206" lon="3.5174">
        <ele>79.2</ele>
        <time>2018-09-25T19:59:54.819Z</time>
      </trkpt>
      <trkpt lat="43.46203" lon="3.51738">
        <ele>79.1</ele>
        <time>2018-09-25T19:59:55.819Z</time>
      </trkpt>
      <trkpt lat="43.46199" lon="3.51734">
        <ele>79</ele>
        <time>2018-09-25T19:59:57.819Z</time>
      </trkpt>
      <trkpt lat="43.46196" lon="3.51727">
        <ele>78.9</ele>
        <time>2018-09-25T19:59:59.819Z</time>
      </trkpt>
      <trkpt lat="43.46192" lon="3.51724">
        <ele>78.8</ele>
        <time>2018-09-25T20:00:00.819Z</time>
      </trkpt>
      <trkpt lat="43.46187" lon="3.51722">
        <ele>78.7</ele>
        <time>2018-09-25T20:00:01.819Z</time>
      </trkpt>
      <trkpt lat="43.46184" lon="3.5172">
        <ele>78.7</ele>
        <time>2018-09-25T20:00:02.819Z</time>
      </trkpt>
      <trkpt lat="43.46181" lon="3.51717">
        <ele>78.7</ele>
        <time>2018-09-25T20:00:03.819Z</time>
      </trkpt>
      <trkpt lat="43.46179" lon="3.51713">
        <ele>78.8</ele>
        <time>2018-09-25T20:00:04.819Z</time>
      </trkpt>
      <trkpt lat="43.46177" lon="3.51708">
        <ele>78.9</ele>
        <time>2018-09-25T20:00:05.819Z</time>
      </trkpt>
      <trkpt lat="43.46176" lon="3.51703">
        <ele>78.9</ele>
        <time>2018-09-25T20:00:06.819Z</time>
      </trkpt>
      <trkpt lat="43.46175" lon="3.51695">
        <ele>79</ele>
        <time>2018-09-25T20:00:07.819Z</time>
      </trkpt>
      <trkpt lat="43.46174" lon="3.51689">
        <ele>79.1</ele>
        <time>2018-09-25T20:00:08.819Z</time>
      </trkpt>
      <trkpt lat="43.46174" lon="3.51682">
        <ele>79.1</ele>
        <time>2018-09-25T20:00:09.819Z</time>
      </trkpt>
      <trkpt lat="43.46173" lon="3.51675">
        <ele>79</ele>
        <time>2018-09-25T20:00:10.819Z</time>
      </trkpt>
      <trkpt lat="43.46172" lon="3.51668">
        <ele>79</ele>
        <time>2018-09-25T20:00:11.819Z</time>
      </trkpt>
      <trkpt lat="43.46171" lon="3.51661">
        <ele>79</ele>
        <time>2018-09-25T20:00:12.819Z</time>
      </trkpt>
      <trkpt lat="43.46169" lon="3.51654">
        <ele>78.8</ele>
        <time>2018-09-25T20:00:13.819Z</time>
      </trkpt>
      <trkpt lat="43.46168" lon="3.51648">
        <ele>78.7</ele>
        <time>2018-09-25T20:00:14.819Z</time>
      </trkpt>
      <trkpt lat="43.46167" lon="3.51642">
        <ele>78.5</ele>
        <time>2018-09-25T20:00:15.819Z</time>
      </trkpt>
      <trkpt lat="43.46166" lon="3.51635">
        <ele>78.3</ele>
        <time>2018-09-25T20:00:16.819Z</time>
      </trkpt>
      <trkpt lat="43.46165" lon="3.51629">
        <ele>78.2</ele>
        <time>2018-09-25T20:00:17.819Z</time>
      </trkpt>
      <trkpt lat="43.46165" lon="3.51624">
        <ele>78</ele>
        <time>2018-09-25T20:00:18.819Z</time>
      </trkpt>
      <trkpt lat="43.46164" lon="3.5162">
        <ele>77.6</ele>
        <time>2018-09-25T20:00:19.819Z</time>
      </trkpt>
      <trkpt lat="43.46162" lon="3.51614">
        <ele>77.4</ele>
        <time>2018-09-25T20:00:21.819Z</time>
      </trkpt>
      <trkpt lat="43.4616" lon="3.51611">
        <ele>77.1</ele>
        <time>2018-09-25T20:00:22.819Z</time>
      </trkpt>
      <trkpt lat="43.46158" lon="3.51607">
        <ele>76.9</ele>
        <time>2018-09-25T20:00:23.819Z</time>
      </trkpt>
      <trkpt lat="43.46158" lon="3.51602">
        <ele>76.7</ele>
        <time>2018-09-25T20:00:24.819Z</time>
      </trkpt>
      <trkpt lat="43.46159" lon="3.51598">
        <ele>76.5</ele>
        <time>2018-09-25T20:00:25.819Z</time>
      </trkpt>
      <trkpt lat="43.46157" lon="3.51592">
        <ele>76.1</ele>
        <time>2018-09-25T20:00:27.819Z</time>
      </trkpt>
      <trkpt lat="43.46155" lon="3.51588">
        <ele>75.9</ele>
        <time>2018-09-25T20:00:29.819Z</time>
      </trkpt>
      <trkpt lat="43.4615" lon="3.51582">
        <ele>75.7</ele>
        <time>2018-09-25T20:00:31.819Z</time>
      </trkpt>
      <trkpt lat="43.46148" lon="3.51578">
        <ele>75.5</ele>
        <time>2018-09-25T20:00:32.819Z</time>
      </trkpt>
      <trkpt lat="43.46147" lon="3.51574">
        <ele>75.4</ele>
        <time>2018-09-25T20:00:33.819Z</time>
      </trkpt>
      <trkpt lat="43.46146" lon="3.51569">
        <ele>75.3</ele>
        <time>2018-09-25T20:00:34.819Z</time>
      </trkpt>
      <trkpt lat="43.46144" lon="3.51564">
        <ele>75.1</ele>
        <time>2018-09-25T20:00:35.819Z</time>
      </trkpt>
      <trkpt lat="43.46143" lon="3.5156">
        <ele>75</ele>
        <time>2018-09-25T20:00:36.819Z</time>
      </trkpt>
      <trkpt lat="43.4614" lon="3.51555">
        <ele>74.7</ele>
        <time>2018-09-25T20:00:38.819Z</time>
      </trkpt>
      <trkpt lat="43.46138" lon="3.51552">
        <ele>74.5</ele>
        <time>2018-09-25T20:00:49.819Z</time>
      </trkpt>
      <trkpt lat="43.46134" lon="3.51552">
        <ele>74.2</ele>
        <time>2018-09-25T20:00:52.819Z</time>
      </trkpt>
      <trkpt lat="43.46132" lon="3.51551">
        <ele>73.9</ele>
        <time>2018-09-25T20:00:58.819Z</time>
      </trkpt>
      <trkpt lat="43.46129" lon="3.5155">
        <ele>73.7</ele>
        <time>2018-09-25T20:01:03.819Z</time>
      </trkpt>
      <trkpt lat="43.46125" lon="3.51548">
        <ele>73.5</ele>
        <time>2018-09-25T20:01:05.819Z</time>
      </trkpt>
      <trkpt lat="43.4612" lon="3.51545">
        <ele>72.9</ele>
        <time>2018-09-25T20:01:07.819Z</time>
      </trkpt>
      <trkpt lat="43.46117" lon="3.51544">
        <ele>72.6</ele>
        <time>2018-09-25T20:01:08.819Z</time>
      </trkpt>
      <trkpt lat="43.46114" lon="3.51544">
        <ele>72.3</ele>
        <time>2018-09-25T20:01:09.819Z</time>
      </trkpt>
      <trkpt lat="43.4611" lon="3.51546">
        <ele>72.1</ele>
        <time>2018-09-25T20:01:11.819Z</time>
      </trkpt>
      <trkpt lat="43.46105" lon="3.51545">
        <ele>71.7</ele>
        <time>2018-09-25T20:01:22.819Z</time>
      </trkpt>
      <trkpt lat="43.461" lon="3.51544">
        <ele>71.2</ele>
        <time>2018-09-25T20:01:24.819Z</time>
      </trkpt>
      <trkpt lat="43.46095" lon="3.51544">
        <ele>70.6</ele>
        <time>2018-09-25T20:01:26.819Z</time>
      </trkpt>
      <trkpt lat="43.46091" lon="3.51547">
        <ele>70.4</ele>
        <time>2018-09-25T20:01:28.819Z</time>
      </trkpt>
      <trkpt lat="43.46088" lon="3.51552">
        <ele>70</ele>
        <time>2018-09-25T20:01:30.819Z</time>
      </trkpt>
      <trkpt lat="43.46086" lon="3.51556">
        <ele>69.7</ele>
        <time>2018-09-25T20:01:31.819Z</time>
      </trkpt>
      <trkpt lat="43.46083" lon="3.51559">
        <ele>69.8</ele>
        <time>2018-09-25T20:01:32.819Z</time>
      </trkpt>
      <trkpt lat="43.4608" lon="3.51561">
        <ele>69.4</ele>
        <time>2018-09-25T20:01:33.819Z</time>
      </trkpt>
      <trkpt lat="43.46077" lon="3.51563">
        <ele>69.1</ele>
        <time>2018-09-25T20:01:34.819Z</time>
      </trkpt>
      <trkpt lat="43.46074" lon="3.51566">
        <ele>68.1</ele>
        <time>2018-09-25T20:01:35.819Z</time>
      </trkpt>
      <trkpt lat="43.46071" lon="3.51567">
        <ele>68.2</ele>
        <time>2018-09-25T20:01:36.819Z</time>
      </trkpt>
      <trkpt lat="43.46066" lon="3.51571">
        <ele>67.3</ele>
        <time>2018-09-25T20:01:38.819Z</time>
      </trkpt>
      <trkpt lat="43.46062" lon="3.51568">
        <ele>66.8</ele>
        <time>2018-09-25T20:01:40.819Z</time>
      </trkpt>
      <trkpt lat="43.46059" lon="3.51564">
        <ele>66.3</ele>
        <time>2018-09-25T20:01:42.819Z</time>
      </trkpt>
      <trkpt lat="43.46056" lon="3.51561">
        <ele>65.7</ele>
        <time>2018-09-25T20:01:44.819Z</time>
      </trkpt>
      <trkpt lat="43.46054" lon="3.51559">
        <ele>65.3</ele>
        <time>2018-09-25T20:01:45.819Z</time>
      </trkpt>
      <trkpt lat="43.46051" lon="3.51557">
        <ele>64.8</ele>
        <time>2018-09-25T20:01:46.819Z</time>
      </trkpt>
      <trkpt lat="43.46049" lon="3.51554">
        <ele>64.5</ele>
        <time>2018-09-25T20:01:47.819Z</time>
      </trkpt>
      <trkpt lat="43.46047" lon="3.51551">
        <ele>64.4</ele>
        <time>2018-09-25T20:01:48.819Z</time>
      </trkpt>
      <trkpt lat="43.46045" lon="3.51547">
        <ele>64</ele>
        <time>2018-09-25T20:01:49.819Z</time>
      </trkpt>
      <trkpt lat="43.46043" lon="3.51542">
        <ele>64</ele>
        <time>2018-09-25T20:01:50.819Z</time>
      </trkpt>
      <trkpt lat="43.46041" lon="3.5154">
        <ele>63.6</ele>
        <time>2018-09-25T20:01:51.819Z</time>
      </trkpt>
      <trkpt lat="43.46039" lon="3.51536">
        <ele>63.3</ele>
        <time>2018-09-25T20:01:52.819Z</time>
      </trkpt>
      <trkpt lat="43.46035" lon="3.5153">
        <ele>63</ele>
        <time>2018-09-25T20:01:54.819Z</time>
      </trkpt>
      <trkpt lat="43.46033" lon="3.51527">
        <ele>62.7</ele>
        <time>2018-09-25T20:01:55.819Z</time>
      </trkpt>
      <trkpt lat="43.46031" lon="3.51524">
        <ele>62.7</ele>
        <time>2018-09-25T20:01:56.819Z</time>
      </trkpt>
      <trkpt lat="43.46029" lon="3.51522">
        <ele>62.5</ele>
        <time>2018-09-25T20:01:57.819Z</time>
      </trkpt>
      <trkpt lat="43.46026" lon="3.51519">
        <ele>62.2</ele>
        <time>2018-09-25T20:01:58.819Z</time>
      </trkpt>
      <trkpt lat="43.46024" lon="3.51515">
        <ele>62.1</ele>
        <time>2018-09-25T20:01:59.819Z</time>
      </trkpt>
      <trkpt lat="43.46022" lon="3.51512">
        <ele>62</ele>
        <time>2018-09-25T20:02:00.819Z</time>
      </trkpt>
      <trkpt lat="43.46019" lon="3.51508">
        <ele>61.8</ele>
        <time>2018-09-25T20:02:01.819Z</time>
      </trkpt>
      <trkpt lat="43.46017" lon="3.51504">
        <ele>61.7</ele>
        <time>2018-09-25T20:02:02.819Z</time>
      </trkpt>
      <trkpt lat="43.46015" lon="3.51501">
        <ele>61.6</ele>
        <time>2018-09-25T20:02:03.819Z</time>
      </trkpt>
      <trkpt lat="43.46011" lon="3.51496">
        <ele>61.4</ele>
        <time>2018-09-25T20:02:05.819Z</time>
      </trkpt>
      <trkpt lat="43.46009" lon="3.5149">
        <ele>61.4</ele>
        <time>2018-09-25T20:02:07.819Z</time>
      </trkpt>
      <trkpt lat="43.46009" lon="3.51486">
        <ele>61.3</ele>
        <time>2018-09-25T20:02:08.819Z</time>
      </trkpt>
      <trkpt lat="43.46008" lon="3.51482">
        <ele>61.2</ele>
        <time>2018-09-25T20:02:10.819Z</time>
      </trkpt>
      <trkpt lat="43.46005" lon="3.51475">
        <ele>60.9</ele>
        <time>2018-09-25T20:02:12.819Z</time>
      </trkpt>
      <trkpt lat="43.46004" lon="3.51472">
        <ele>60.8</ele>
        <time>2018-09-25T20:02:13.819Z</time>
      </trkpt>
      <trkpt lat="43.46001" lon="3.51467">
        <ele>60.6</ele>
        <time>2018-09-25T20:02:15.819Z</time>
      </trkpt>
      <trkpt lat="43.45999" lon="3.51462">
        <ele>60.4</ele>
        <time>2018-09-25T20:02:17.819Z</time>
      </trkpt>
      <trkpt lat="43.45997" lon="3.51459">
        <ele>60.4</ele>
        <time>2018-09-25T20:02:20.819Z</time>
      </trkpt>
      <trkpt lat="43.45994" lon="3.51456">
        <ele>60.3</ele>
        <time>2018-09-25T20:02:23.819Z</time>
      </trkpt>
      <trkpt lat="43.45991" lon="3.51453">
        <ele>60.1</ele>
        <time>2018-09-25T20:02:25.819Z</time>
      </trkpt>
      <trkpt lat="43.45989" lon="3.51451">
        <ele>60</ele>
        <time>2018-09-25T20:02:34.819Z</time>
      </trkpt>
      <trkpt lat="43.45986" lon="3.5145">
        <ele>59.9</ele>
        <time>2018-09-25T20:02:41.819Z</time>
      </trkpt>
      <trkpt lat="43.45987" lon="3.51446">
        <ele>60.1</ele>
        <time>2018-09-25T20:02:52.819Z</time>
      </trkpt>
      <trkpt lat="43.45986" lon="3.5144">
        <ele>60</ele>
        <time>2018-09-25T20:03:07.819Z</time>
      </trkpt>
      <trkpt lat="43.45985" lon="3.51436">
        <ele>60.1</ele>
        <time>2018-09-25T20:03:14.819Z</time>
      </trkpt>
      <trkpt lat="43.45986" lon="3.51431">
        <ele>60.2</ele>
        <time>2018-09-25T20:03:17.819Z</time>
      </trkpt>
      <trkpt lat="43.45985" lon="3.51426">
        <ele>60.3</ele>
        <time>2018-09-25T20:03:21.819Z</time>
      </trkpt>
      <trkpt lat="43.45984" lon="3.51421">
        <ele>60.5</ele>
        <time>2018-09-25T20:03:25.819Z</time>
      </trkpt>
      <trkpt lat="43.45985" lon="3.51417">
        <ele>60.7</ele>
        <time>2018-09-25T20:03:30.819Z</time>
      </trkpt>
      <trkpt lat="43.45982" lon="3.51413">
        <ele>60.8</ele>
        <time>2018-09-25T20:03:36.819Z</time>
      </trkpt>
      <trkpt lat="43.45984" lon="3.51409">
        <ele>61.1</ele>
        <time>2018-09-25T20:03:39.819Z</time>
      </trkpt>
      <trkpt lat="43.45982" lon="3.51411">
        <ele>61</ele>
        <time>2018-09-25T20:03:42.819Z</time>
      </trkpt>
      <trkpt lat="43.45978" lon="3.51411">
        <ele>60.9</ele>
        <time>2018-09-25T20:03:45.819Z</time>
      </trkpt>
      <trkpt lat="43.45975" lon="3.5141">
        <ele>60.8</ele>
        <time>2018-09-25T20:03:48.819Z</time>
      </trkpt>
      <trkpt lat="43.4597" lon="3.51411">
        <ele>60.6</ele>
        <time>2018-09-25T20:03:50.819Z</time>
      </trkpt>
      <trkpt lat="43.45967" lon="3.51411">
        <ele>60.6</ele>
        <time>2018-09-25T20:03:52.819Z</time>
      </trkpt>
      <trkpt lat="43.45964" lon="3.51412">
        <ele>60.5</ele>
        <time>2018-09-25T20:03:55.819Z</time>
      </trkpt>
      <trkpt lat="43.45959" lon="3.51414">
        <ele>60.5</ele>
        <time>2018-09-25T20:03:57.819Z</time>
      </trkpt>
      <trkpt lat="43.45956" lon="3.51415">
        <ele>60.4</ele>
        <time>2018-09-25T20:03:58.819Z</time>
      </trkpt>
      <trkpt lat="43.45953" lon="3.51415">
        <ele>60.4</ele>
        <time>2018-09-25T20:04:00.819Z</time>
      </trkpt>
      <trkpt lat="43.45949" lon="3.5141">
        <ele>60.3</ele>
        <time>2018-09-25T20:04:02.819Z</time>
      </trkpt>
      <trkpt lat="43.45947" lon="3.51407">
        <ele>60.3</ele>
        <time>2018-09-25T20:04:05.819Z</time>
      </trkpt>
      <trkpt lat="43.45945" lon="3.51404">
        <ele>60.2</ele>
        <time>2018-09-25T20:04:07.819Z</time>
      </trkpt>
      <trkpt lat="43.45945" lon="3.514">
        <ele>60.2</ele>
        <time>2018-09-25T20:04:12.819Z</time>
      </trkpt>
      <trkpt lat="43.45942" lon="3.51396">
        <ele>60.1</ele>
        <time>2018-09-25T20:04:14.819Z</time>
      </trkpt>
      <trkpt lat="43.4594" lon="3.51392">
        <ele>60.3</ele>
        <time>2018-09-25T20:04:18.819Z</time>
      </trkpt>
      <trkpt lat="43.4594" lon="3.51388">
        <ele>60.6</ele>
        <time>2018-09-25T20:04:23.819Z</time>
      </trkpt>
      <trkpt lat="43.45939" lon="3.51384">
        <ele>60.7</ele>
        <time>2018-09-25T20:04:25.819Z</time>
      </trkpt>
      <trkpt lat="43.45938" lon="3.51379">
        <ele>60.9</ele>
        <time>2018-09-25T20:04:30.819Z</time>
      </trkpt>
      <trkpt lat="43.45937" lon="3.51374">
        <ele>61.3</ele>
        <time>2018-09-25T20:04:33.819Z</time>
      </trkpt>
      <trkpt lat="43.45935" lon="3.51369">
        <ele>61.1</ele>
        <time>2018-09-25T20:04:37.819Z</time>
      </trkpt>
      <trkpt lat="43.45933" lon="3.51365">
        <ele>61.4</ele>
        <time>2018-09-25T20:04:41.819Z</time>
      </trkpt>
      <trkpt lat="43.45931" lon="3.51361">
        <ele>61.6</ele>
        <time>2018-09-25T20:04:44.819Z</time>
      </trkpt>
      <trkpt lat="43.4593" lon="3.51357">
        <ele>61.5</ele>
        <time>2018-09-25T20:04:47.819Z</time>
      </trkpt>
      <trkpt lat="43.45931" lon="3.51353">
        <ele>61.7</ele>
        <time>2018-09-25T20:04:52.819Z</time>
      </trkpt>
      <trkpt lat="43.45935" lon="3.5135">
        <ele>61.9</ele>
        <time>2018-09-25T20:04:58.819Z</time>
      </trkpt>
      <trkpt lat="43.45939" lon="3.51348">
        <ele>61.9</ele>
        <time>2018-09-25T20:05:00.819Z</time>
      </trkpt>
      <trkpt lat="43.45944" lon="3.51347">
        <ele>62.4</ele>
        <time>2018-09-25T20:05:02.819Z</time>
      </trkpt>
      <trkpt lat="43.45947" lon="3.51346">
        <ele>62.5</ele>
        <time>2018-09-25T20:05:05.819Z</time>
      </trkpt>
      <trkpt lat="43.45949" lon="3.51343">
        <ele>62.8</ele>
        <time>2018-09-25T20:05:24.819Z</time>
      </trkpt>
      <trkpt lat="43.45947" lon="3.51341">
        <ele>62.6</ele>
        <time>2018-09-25T20:05:45.819Z</time>
      </trkpt>
      <trkpt lat="43.45944" lon="3.51339">
        <ele>62.7</ele>
        <time>2018-09-25T20:05:47.819Z</time>
      </trkpt>
      <trkpt lat="43.4594" lon="3.51336">
        <ele>62.5</ele>
        <time>2018-09-25T20:05:49.819Z</time>
      </trkpt>
      <trkpt lat="43.45936" lon="3.51331">
        <ele>62.6</ele>
        <time>2018-09-25T20:05:51.819Z</time>
      </trkpt>
      <trkpt lat="43.45934" lon="3.51328">
        <ele>62.7</ele>
        <time>2018-09-25T20:05:53.819Z</time>
      </trkpt>
      <trkpt lat="43.45931" lon="3.51326">
        <ele>62.8</ele>
        <time>2018-09-25T20:05:55.819Z</time>
      </trkpt>
      <trkpt lat="43.45927" lon="3.51324">
        <ele>62.8</ele>
        <time>2018-09-25T20:05:57.819Z</time>
      </trkpt>
      <trkpt lat="43.45923" lon="3.51321">
        <ele>62.9</ele>
        <time>2018-09-25T20:05:59.819Z</time>
      </trkpt>
      <trkpt lat="43.45919" lon="3.51317">
        <ele>63</ele>
        <time>2018-09-25T20:06:01.819Z</time>
      </trkpt>
      <trkpt lat="43.45916" lon="3.51316">
        <ele>63.1</ele>
        <time>2018-09-25T20:06:02.819Z</time>
      </trkpt>
      <trkpt lat="43.45913" lon="3.51315">
        <ele>63.1</ele>
        <time>2018-09-25T20:06:03.819Z</time>
      </trkpt>
      <trkpt lat="43.45909" lon="3.51313">
        <ele>63.2</ele>
        <time>2018-09-25T20:06:05.819Z</time>
      </trkpt>
      <trkpt lat="43.45903" lon="3.51312">
        <ele>63.4</ele>
        <time>2018-09-25T20:06:07.819Z</time>
      </trkpt>
      <trkpt lat="43.459" lon="3.51311">
        <ele>63.4</ele>
        <time>2018-09-25T20:06:08.819Z</time>
      </trkpt>
      <trkpt lat="43.45896" lon="3.5131">
        <ele>63.6</ele>
        <time>2018-09-25T20:06:09.819Z</time>
      </trkpt>
      <trkpt lat="43.45893" lon="3.51308">
        <ele>63.7</ele>
        <time>2018-09-25T20:06:10.819Z</time>
      </trkpt>
      <trkpt lat="43.45888" lon="3.51306">
        <ele>63.8</ele>
        <time>2018-09-25T20:06:11.819Z</time>
      </trkpt>
      <trkpt lat="43.45886" lon="3.51304">
        <ele>64</ele>
        <time>2018-09-25T20:06:12.819Z</time>
      </trkpt>
      <trkpt lat="43.45882" lon="3.513">
        <ele>64.2</ele>
        <time>2018-09-25T20:06:14.819Z</time>
      </trkpt>
      <trkpt lat="43.45877" lon="3.51299">
        <ele>64.3</ele>
        <time>2018-09-25T20:06:16.819Z</time>
      </trkpt>
      <trkpt lat="43.45874" lon="3.51297">
        <ele>64.4</ele>
        <time>2018-09-25T20:06:17.819Z</time>
      </trkpt>
      <trkpt lat="43.45872" lon="3.51294">
        <ele>64.5</ele>
        <time>2018-09-25T20:06:18.819Z</time>
      </trkpt>
      <trkpt lat="43.45869" lon="3.51292">
        <ele>64.7</ele>
        <time>2018-09-25T20:06:19.819Z</time>
      </trkpt>
      <trkpt lat="43.45865" lon="3.5129">
        <ele>64.7</ele>
        <time>2018-09-25T20:06:21.819Z</time>
      </trkpt>
      <trkpt lat="43.4586" lon="3.51287">
        <ele>64.9</ele>
        <time>2018-09-25T20:06:23.819Z</time>
      </trkpt>
      <trkpt lat="43.45857" lon="3.51285">
        <ele>64.9</ele>
        <time>2018-09-25T20:06:24.819Z</time>
      </trkpt>
      <trkpt lat="43.45855" lon="3.51284">
        <ele>64.9</ele>
        <time>2018-09-25T20:06:25.819Z</time>
      </trkpt>
      <trkpt lat="43.45852" lon="3.51282">
        <ele>65</ele>
        <time>2018-09-25T20:06:26.819Z</time>
      </trkpt>
      <trkpt lat="43.45847" lon="3.5128">
        <ele>65</ele>
        <time>2018-09-25T20:06:28.819Z</time>
      </trkpt>
      <trkpt lat="43.45845" lon="3.5128">
        <ele>64.9</ele>
        <time>2018-09-25T20:06:29.819Z</time>
      </trkpt>
      <trkpt lat="43.4584" lon="3.5128">
        <ele>64.8</ele>
        <time>2018-09-25T20:06:31.819Z</time>
      </trkpt>
      <trkpt lat="43.45837" lon="3.5128">
        <ele>64.8</ele>
        <time>2018-09-25T20:06:32.819Z</time>
      </trkpt>
      <trkpt lat="43.45834" lon="3.51279">
        <ele>64.9</ele>
        <time>2018-09-25T20:06:33.819Z</time>
      </trkpt>
      <trkpt lat="43.4583" lon="3.51279">
        <ele>64.8</ele>
        <time>2018-09-25T20:06:34.819Z</time>
      </trkpt>
      <trkpt lat="43.45827" lon="3.51279">
        <ele>64.7</ele>
        <time>2018-09-25T20:06:35.819Z</time>
      </trkpt>
      <trkpt lat="43.45823" lon="3.51278">
        <ele>64.6</ele>
        <time>2018-09-25T20:06:37.819Z</time>
      </trkpt>
      <trkpt lat="43.4582" lon="3.51278">
        <ele>64.5</ele>
        <time>2018-09-25T20:06:38.819Z</time>
      </trkpt>
      <trkpt lat="43.45814" lon="3.51278">
        <ele>64.3</ele>
        <time>2018-09-25T20:06:40.819Z</time>
      </trkpt>
      <trkpt lat="43.45811" lon="3.51278">
        <ele>64.1</ele>
        <time>2018-09-25T20:06:41.819Z</time>
      </trkpt>
      <trkpt lat="43.45806" lon="3.51279">
        <ele>64</ele>
        <time>2018-09-25T20:06:43.819Z</time>
      </trkpt>
      <trkpt lat="43.45803" lon="3.51279">
        <ele>63.9</ele>
        <time>2018-09-25T20:06:45.819Z</time>
      </trkpt>
      <trkpt lat="43.45799" lon="3.5128">
        <ele>63.5</ele>
        <time>2018-09-25T20:06:47.819Z</time>
      </trkpt>
      <trkpt lat="43.45796" lon="3.5128">
        <ele>63.5</ele>
        <time>2018-09-25T20:06:48.819Z</time>
      </trkpt>
      <trkpt lat="43.45793" lon="3.5128">
        <ele>63.4</ele>
        <time>2018-09-25T20:06:49.819Z</time>
      </trkpt>
      <trkpt lat="43.4579" lon="3.51281">
        <ele>63.4</ele>
        <time>2018-09-25T20:06:51.819Z</time>
      </trkpt>
      <trkpt lat="43.45784" lon="3.51283">
        <ele>63.3</ele>
        <time>2018-09-25T20:06:53.819Z</time>
      </trkpt>
      <trkpt lat="43.45781" lon="3.51284">
        <ele>63.1</ele>
        <time>2018-09-25T20:06:54.819Z</time>
      </trkpt>
      <trkpt lat="43.45776" lon="3.51284">
        <ele>63.1</ele>
        <time>2018-09-25T20:06:55.819Z</time>
      </trkpt>
      <trkpt lat="43.45771" lon="3.51284">
        <ele>63.2</ele>
        <time>2018-09-25T20:06:57.819Z</time>
      </trkpt>
      <trkpt lat="43.45768" lon="3.51285">
        <ele>63.2</ele>
        <time>2018-09-25T20:06:59.819Z</time>
      </trkpt>
      <trkpt lat="43.45764" lon="3.51284">
        <ele>63.3</ele>
        <time>2018-09-25T20:07:02.819Z</time>
      </trkpt>
      <trkpt lat="43.45759" lon="3.51283">
        <ele>63.6</ele>
        <time>2018-09-25T20:07:04.819Z</time>
      </trkpt>
      <trkpt lat="43.45755" lon="3.51281">
        <ele>63.6</ele>
        <time>2018-09-25T20:07:05.819Z</time>
      </trkpt>
      <trkpt lat="43.45752" lon="3.51281">
        <ele>63.7</ele>
        <time>2018-09-25T20:07:06.819Z</time>
      </trkpt>
      <trkpt lat="43.45749" lon="3.5128">
        <ele>63.7</ele>
        <time>2018-09-25T20:07:07.819Z</time>
      </trkpt>
      <trkpt lat="43.45745" lon="3.51281">
        <ele>63.7</ele>
        <time>2018-09-25T20:07:09.819Z</time>
      </trkpt>
      <trkpt lat="43.45742" lon="3.51282">
        <ele>63.8</ele>
        <time>2018-09-25T20:07:10.819Z</time>
      </trkpt>
      <trkpt lat="43.45738" lon="3.51285">
        <ele>63.6</ele>
        <time>2018-09-25T20:07:12.819Z</time>
      </trkpt>
      <trkpt lat="43.45735" lon="3.5129">
        <ele>63.5</ele>
        <time>2018-09-25T20:07:14.819Z</time>
      </trkpt>
      <trkpt lat="43.45733" lon="3.51292">
        <ele>63.3</ele>
        <time>2018-09-25T20:07:16.819Z</time>
      </trkpt>
      <trkpt lat="43.45731" lon="3.51296">
        <ele>63.4</ele>
        <time>2018-09-25T20:07:18.819Z</time>
      </trkpt>
      <trkpt lat="43.45728" lon="3.51298">
        <ele>63.2</ele>
        <time>2018-09-25T20:07:20.819Z</time>
      </trkpt>
      <trkpt lat="43.45725" lon="3.513">
        <ele>63.2</ele>
        <time>2018-09-25T20:07:22.819Z</time>
      </trkpt>
      <trkpt lat="43.45722" lon="3.513">
        <ele>63.2</ele>
        <time>2018-09-25T20:07:24.819Z</time>
      </trkpt>
      <trkpt lat="43.45719" lon="3.513">
        <ele>63.4</ele>
        <time>2018-09-25T20:07:26.819Z</time>
      </trkpt>
      <trkpt lat="43.45716" lon="3.513">
        <ele>63.5</ele>
        <time>2018-09-25T20:07:27.819Z</time>
      </trkpt>
      <trkpt lat="43.45709" lon="3.51299">
        <ele>63.7</ele>
        <time>2018-09-25T20:07:29.819Z</time>
      </trkpt>
      <trkpt lat="43.45705" lon="3.513">
        <ele>63.8</ele>
        <time>2018-09-25T20:07:30.819Z</time>
      </trkpt>
      <trkpt lat="43.45702" lon="3.513">
        <ele>63.9</ele>
        <time>2018-09-25T20:07:31.819Z</time>
      </trkpt>
      <trkpt lat="43.45698" lon="3.51301">
        <ele>64</ele>
        <time>2018-09-25T20:07:34.819Z</time>
      </trkpt>
      <trkpt lat="43.45693" lon="3.51301">
        <ele>64</ele>
        <time>2018-09-25T20:07:36.819Z</time>
      </trkpt>
      <trkpt lat="43.4569" lon="3.51299">
        <ele>64.4</ele>
        <time>2018-09-25T20:07:37.819Z</time>
      </trkpt>
      <trkpt lat="43.45687" lon="3.51297">
        <ele>64.5</ele>
        <time>2018-09-25T20:07:38.819Z</time>
      </trkpt>
      <trkpt lat="43.45684" lon="3.51294">
        <ele>64.9</ele>
        <time>2018-09-25T20:07:39.819Z</time>
      </trkpt>
      <trkpt lat="43.45681" lon="3.51292">
        <ele>65.3</ele>
        <time>2018-09-25T20:07:40.819Z</time>
      </trkpt>
      <trkpt lat="43.45678" lon="3.5129">
        <ele>65.3</ele>
        <time>2018-09-25T20:07:41.819Z</time>
      </trkpt>
      <trkpt lat="43.45675" lon="3.51289">
        <ele>65.3</ele>
        <time>2018-09-25T20:07:42.819Z</time>
      </trkpt>
      <trkpt lat="43.45672" lon="3.51288">
        <ele>65.4</ele>
        <time>2018-09-25T20:07:43.819Z</time>
      </trkpt>
      <trkpt lat="43.4567" lon="3.51287">
        <ele>65.7</ele>
        <time>2018-09-25T20:07:44.819Z</time>
      </trkpt>
      <trkpt lat="43.45664" lon="3.51283">
        <ele>66.1</ele>
        <time>2018-09-25T20:07:46.819Z</time>
      </trkpt>
      <trkpt lat="43.45659" lon="3.5128">
        <ele>66.2</ele>
        <time>2018-09-25T20:07:48.819Z</time>
      </trkpt>
      <trkpt lat="43.45654" lon="3.51278">
        <ele>66.4</ele>
        <time>2018-09-25T20:07:50.819Z</time>
      </trkpt>
      <trkpt lat="43.45651" lon="3.51276">
        <ele>66.4</ele>
        <time>2018-09-25T20:07:51.819Z</time>
      </trkpt>
      <trkpt lat="43.45649" lon="3.51273">
        <ele>66.5</ele>
        <time>2018-09-25T20:07:52.819Z</time>
      </trkpt>
      <trkpt lat="43.45646" lon="3.5127">
        <ele>66.5</ele>
        <time>2018-09-25T20:07:53.819Z</time>
      </trkpt>
      <trkpt lat="43.45644" lon="3.51266">
        <ele>66.4</ele>
        <time>2018-09-25T20:07:54.819Z</time>
      </trkpt>
      <trkpt lat="43.45642" lon="3.51264">
        <ele>66.4</ele>
        <time>2018-09-25T20:07:55.819Z</time>
      </trkpt>
      <trkpt lat="43.4564" lon="3.51261">
        <ele>66.3</ele>
        <time>2018-09-25T20:07:56.819Z</time>
      </trkpt>
      <trkpt lat="43.45636" lon="3.5126">
        <ele>66.2</ele>
        <time>2018-09-25T20:07:57.819Z</time>
      </trkpt>
      <trkpt lat="43.4563" lon="3.5126">
        <ele>66.2</ele>
        <time>2018-09-25T20:07:59.819Z</time>
      </trkpt>
      <trkpt lat="43.45627" lon="3.5126">
        <ele>66.1</ele>
        <time>2018-09-25T20:08:00.819Z</time>
      </trkpt>
      <trkpt lat="43.45624" lon="3.5126">
        <ele>66.1</ele>
        <time>2018-09-25T20:08:01.819Z</time>
      </trkpt>
      <trkpt lat="43.45621" lon="3.5126">
        <ele>66.1</ele>
        <time>2018-09-25T20:08:02.819Z</time>
      </trkpt>
      <trkpt lat="43.45618" lon="3.51259">
        <ele>66</ele>
        <time>2018-09-25T20:08:03.819Z</time>
      </trkpt>
      <trkpt lat="43.45613" lon="3.51258">
        <ele>66</ele>
        <time>2018-09-25T20:08:05.819Z</time>
      </trkpt>
      <trkpt lat="43.45609" lon="3.51256">
        <ele>66</ele>
        <time>2018-09-25T20:08:06.819Z</time>
      </trkpt>
      <trkpt lat="43.45607" lon="3.51255">
        <ele>65.9</ele>
        <time>2018-09-25T20:08:07.819Z</time>
      </trkpt>
      <trkpt lat="43.45604" lon="3.51252">
        <ele>65.9</ele>
        <time>2018-09-25T20:08:08.819Z</time>
      </trkpt>
      <trkpt lat="43.45601" lon="3.51251">
        <ele>65.9</ele>
        <time>2018-09-25T20:08:09.819Z</time>
      </trkpt>
      <trkpt lat="43.45598" lon="3.51248">
        <ele>65.8</ele>
        <time>2018-09-25T20:08:10.819Z</time>
      </trkpt>
      <trkpt lat="43.45595" lon="3.51244">
        <ele>65.8</ele>
        <time>2018-09-25T20:08:12.819Z</time>
      </trkpt>
      <trkpt lat="43.45592" lon="3.5124">
        <ele>65.8</ele>
        <time>2018-09-25T20:08:14.819Z</time>
      </trkpt>
      <trkpt lat="43.45589" lon="3.51238">
        <ele>65.7</ele>
        <time>2018-09-25T20:08:15.819Z</time>
      </trkpt>
      <trkpt lat="43.45586" lon="3.51236">
        <ele>65.7</ele>
        <time>2018-09-25T20:08:16.819Z</time>
      </trkpt>
      <trkpt lat="43.45581" lon="3.51233">
        <ele>65.4</ele>
        <time>2018-09-25T20:08:18.819Z</time>
      </trkpt>
      <trkpt lat="43.45579" lon="3.5123">
        <ele>65.4</ele>
        <time>2018-09-25T20:08:19.819Z</time>
      </trkpt>
      <trkpt lat="43.45576" lon="3.51226">
        <ele>65.3</ele>
        <time>2018-09-25T20:08:21.819Z</time>
      </trkpt>
      <trkpt lat="43.45573" lon="3.51219">
        <ele>65.2</ele>
        <time>2018-09-25T20:08:23.819Z</time>
      </trkpt>
      <trkpt lat="43.45571" lon="3.51213">
        <ele>65</ele>
        <time>2018-09-25T20:08:25.819Z</time>
      </trkpt>
      <trkpt lat="43.4557" lon="3.51207">
        <ele>65</ele>
        <time>2018-09-25T20:08:27.819Z</time>
      </trkpt>
      <trkpt lat="43.45568" lon="3.51201">
        <ele>64.7</ele>
        <time>2018-09-25T20:08:29.819Z</time>
      </trkpt>
      <trkpt lat="43.45566" lon="3.51195">
        <ele>64.3</ele>
        <time>2018-09-25T20:08:31.819Z</time>
      </trkpt>
      <trkpt lat="43.45565" lon="3.5119">
        <ele>64.3</ele>
        <time>2018-09-25T20:08:32.819Z</time>
      </trkpt>
      <trkpt lat="43.45563" lon="3.51185">
        <ele>64.2</ele>
        <time>2018-09-25T20:08:33.819Z</time>
      </trkpt>
      <trkpt lat="43.45562" lon="3.51181">
        <ele>63.6</ele>
        <time>2018-09-25T20:08:34.819Z</time>
      </trkpt>
      <trkpt lat="43.4556" lon="3.51177">
        <ele>63.5</ele>
        <time>2018-09-25T20:08:35.819Z</time>
      </trkpt>
      <trkpt lat="43.45559" lon="3.51173">
        <ele>62.7</ele>
        <time>2018-09-25T20:08:36.819Z</time>
      </trkpt>
      <trkpt lat="43.45558" lon="3.51169">
        <ele>62.5</ele>
        <time>2018-09-25T20:08:37.819Z</time>
      </trkpt>
      <trkpt lat="43.45556" lon="3.51165">
        <ele>61.6</ele>
        <time>2018-09-25T20:08:38.819Z</time>
      </trkpt>
      <trkpt lat="43.45555" lon="3.51161">
        <ele>61.4</ele>
        <time>2018-09-25T20:08:39.819Z</time>
      </trkpt>
      <trkpt lat="43.45553" lon="3.51155">
        <ele>60.3</ele>
        <time>2018-09-25T20:08:41.819Z</time>
      </trkpt>
      <trkpt lat="43.45551" lon="3.5115">
        <ele>60.1</ele>
        <time>2018-09-25T20:08:42.819Z</time>
      </trkpt>
      <trkpt lat="43.4555" lon="3.51145">
        <ele>59.3</ele>
        <time>2018-09-25T20:08:44.819Z</time>
      </trkpt>
      <trkpt lat="43.45549" lon="3.51141">
        <ele>59.1</ele>
        <time>2018-09-25T20:08:45.819Z</time>
      </trkpt>
      <trkpt lat="43.45549" lon="3.51134">
        <ele>58.9</ele>
        <time>2018-09-25T20:08:47.819Z</time>
      </trkpt>
      <trkpt lat="43.45549" lon="3.51129">
        <ele>58.7</ele>
        <time>2018-09-25T20:08:48.819Z</time>
      </trkpt>
      <trkpt lat="43.45549" lon="3.51125">
        <ele>58.4</ele>
        <time>2018-09-25T20:08:49.819Z</time>
      </trkpt>
      <trkpt lat="43.4555" lon="3.51121">
        <ele>58.2</ele>
        <time>2018-09-25T20:08:50.819Z</time>
      </trkpt>
      <trkpt lat="43.45551" lon="3.51116">
        <ele>58.1</ele>
        <time>2018-09-25T20:08:51.819Z</time>
      </trkpt>
      <trkpt lat="43.45551" lon="3.5111">
        <ele>57.8</ele>
        <time>2018-09-25T20:08:52.819Z</time>
      </trkpt>
      <trkpt lat="43.45553" lon="3.51104">
        <ele>57.4</ele>
        <time>2018-09-25T20:08:54.819Z</time>
      </trkpt>
      <trkpt lat="43.45554" lon="3.511">
        <ele>57.4</ele>
        <time>2018-09-25T20:08:55.819Z</time>
      </trkpt>
      <trkpt lat="43.45555" lon="3.51097">
        <ele>57</ele>
        <time>2018-09-25T20:08:56.819Z</time>
      </trkpt>
      <trkpt lat="43.45557" lon="3.51093">
        <ele>56.5</ele>
        <time>2018-09-25T20:08:57.819Z</time>
      </trkpt>
      <trkpt lat="43.45558" lon="3.51088">
        <ele>56.4</ele>
        <time>2018-09-25T20:08:58.819Z</time>
      </trkpt>
      <trkpt lat="43.45559" lon="3.51084">
        <ele>55.9</ele>
        <time>2018-09-25T20:08:59.819Z</time>
      </trkpt>
      <trkpt lat="43.45561" lon="3.51079">
        <ele>55.6</ele>
        <time>2018-09-25T20:09:00.819Z</time>
      </trkpt>
      <trkpt lat="43.45561" lon="3.51074">
        <ele>55.1</ele>
        <time>2018-09-25T20:09:02.819Z</time>
      </trkpt>
      <trkpt lat="43.45561" lon="3.5107">
        <ele>54.6</ele>
        <time>2018-09-25T20:09:03.819Z</time>
      </trkpt>
      <trkpt lat="43.4556" lon="3.51065">
        <ele>53.5</ele>
        <time>2018-09-25T20:09:05.819Z</time>
      </trkpt>
      <trkpt lat="43.45556" lon="3.51065">
        <ele>53.6</ele>
        <time>2018-09-25T20:09:08.819Z</time>
      </trkpt>
      <trkpt lat="43.45555" lon="3.5107">
        <ele>53.9</ele>
        <time>2018-09-25T20:09:10.819Z</time>
      </trkpt>
      <trkpt lat="43.45554" lon="3.51073">
        <ele>53.9</ele>
        <time>2018-09-25T20:09:11.819Z</time>
      </trkpt>
      <trkpt lat="43.45552" lon="3.51077">
        <ele>54</ele>
        <time>2018-09-25T20:09:12.819Z</time>
      </trkpt>
      <trkpt lat="43.4555" lon="3.51082">
        <ele>54.5</ele>
        <time>2018-09-25T20:09:13.819Z</time>
      </trkpt>
      <trkpt lat="43.45548" lon="3.51086">
        <ele>54.4</ele>
        <time>2018-09-25T20:09:14.819Z</time>
      </trkpt>
      <trkpt lat="43.45547" lon="3.5109">
        <ele>54.4</ele>
        <time>2018-09-25T20:09:15.819Z</time>
      </trkpt>
      <trkpt lat="43.45545" lon="3.51094">
        <ele>54.8</ele>
        <time>2018-09-25T20:09:16.819Z</time>
      </trkpt>
      <trkpt lat="43.45545" lon="3.51099">
        <ele>55.1</ele>
        <time>2018-09-25T20:09:17.819Z</time>
      </trkpt>
      <trkpt lat="43.45542" lon="3.51106">
        <ele>55.2</ele>
        <time>2018-09-25T20:09:19.819Z</time>
      </trkpt>
      <trkpt lat="43.4554" lon="3.51111">
        <ele>55</ele>
        <time>2018-09-25T20:09:20.819Z</time>
      </trkpt>
      <trkpt lat="43.45538" lon="3.51117">
        <ele>54.9</ele>
        <time>2018-09-25T20:09:21.819Z</time>
      </trkpt>
      <trkpt lat="43.45535" lon="3.51122">
        <ele>55.1</ele>
        <time>2018-09-25T20:09:22.819Z</time>
      </trkpt>
      <trkpt lat="43.45534" lon="3.51126">
        <ele>54.7</ele>
        <time>2018-09-25T20:09:23.819Z</time>
      </trkpt>
      <trkpt lat="43.45532" lon="3.51129">
        <ele>54.6</ele>
        <time>2018-09-25T20:09:24.819Z</time>
      </trkpt>
      <trkpt lat="43.4553" lon="3.51135">
        <ele>54.5</ele>
        <time>2018-09-25T20:09:26.819Z</time>
      </trkpt>
      <trkpt lat="43.45529" lon="3.5114">
        <ele>54.6</ele>
        <time>2018-09-25T20:09:27.819Z</time>
      </trkpt>
      <trkpt lat="43.45528" lon="3.51145">
        <ele>54.2</ele>
        <time>2018-09-25T20:09:28.819Z</time>
      </trkpt>
      <trkpt lat="43.45527" lon="3.5115">
        <ele>54.3</ele>
        <time>2018-09-25T20:09:29.819Z</time>
      </trkpt>
      <trkpt lat="43.45526" lon="3.51155">
        <ele>54.5</ele>
        <time>2018-09-25T20:09:30.819Z</time>
      </trkpt>
      <trkpt lat="43.45525" lon="3.51159">
        <ele>54</ele>
        <time>2018-09-25T20:09:31.819Z</time>
      </trkpt>
      <trkpt lat="43.45523" lon="3.51163">
        <ele>54.1</ele>
        <time>2018-09-25T20:09:32.819Z</time>
      </trkpt>
      <trkpt lat="43.45521" lon="3.51168">
        <ele>53.7</ele>
        <time>2018-09-25T20:09:33.819Z</time>
      </trkpt>
      <trkpt lat="43.4552" lon="3.51173">
        <ele>53.8</ele>
        <time>2018-09-25T20:09:34.819Z</time>
      </trkpt>
      <trkpt lat="43.45518" lon="3.51178">
        <ele>53.3</ele>
        <time>2018-09-25T20:09:35.819Z</time>
      </trkpt>
      <trkpt lat="43.45517" lon="3.51183">
        <ele>53.4</ele>
        <time>2018-09-25T20:09:36.819Z</time>
      </trkpt>
      <trkpt lat="43.45515" lon="3.51188">
        <ele>52.9</ele>
        <time>2018-09-25T20:09:37.819Z</time>
      </trkpt>
      <trkpt lat="43.45514" lon="3.51193">
        <ele>52.9</ele>
        <time>2018-09-25T20:09:38.819Z</time>
      </trkpt>
      <trkpt lat="43.45513" lon="3.51197">
        <ele>52.9</ele>
        <time>2018-09-25T20:09:39.819Z</time>
      </trkpt>
      <trkpt lat="43.45512" lon="3.51202">
        <ele>52.9</ele>
        <time>2018-09-25T20:09:40.819Z</time>
      </trkpt>
      <trkpt lat="43.45511" lon="3.51207">
        <ele>52.9</ele>
        <time>2018-09-25T20:09:41.819Z</time>
      </trkpt>
      <trkpt lat="43.4551" lon="3.51211">
        <ele>52.9</ele>
        <time>2018-09-25T20:09:42.819Z</time>
      </trkpt>
      <trkpt lat="43.45508" lon="3.51215">
        <ele>52.8</ele>
        <time>2018-09-25T20:09:43.819Z</time>
      </trkpt>
      <trkpt lat="43.45507" lon="3.51219">
        <ele>52.8</ele>
        <time>2018-09-25T20:09:44.819Z</time>
      </trkpt>
      <trkpt lat="43.45505" lon="3.51225">
        <ele>52.8</ele>
        <time>2018-09-25T20:09:46.819Z</time>
      </trkpt>
      <trkpt lat="43.45503" lon="3.51232">
        <ele>52.8</ele>
        <time>2018-09-25T20:09:48.819Z</time>
      </trkpt>
      <trkpt lat="43.45501" lon="3.51237">
        <ele>52.7</ele>
        <time>2018-09-25T20:09:50.819Z</time>
      </trkpt>
      <trkpt lat="43.45499" lon="3.51243">
        <ele>52.7</ele>
        <time>2018-09-25T20:09:52.819Z</time>
      </trkpt>
      <trkpt lat="43.45497" lon="3.51248">
        <ele>52.6</ele>
        <time>2018-09-25T20:09:53.819Z</time>
      </trkpt>
      <trkpt lat="43.45495" lon="3.51252">
        <ele>52.5</ele>
        <time>2018-09-25T20:09:54.819Z</time>
      </trkpt>
      <trkpt lat="43.45494" lon="3.51256">
        <ele>52.4</ele>
        <time>2018-09-25T20:09:55.819Z</time>
      </trkpt>
      <trkpt lat="43.45493" lon="3.5126">
        <ele>52.3</ele>
        <time>2018-09-25T20:09:56.819Z</time>
      </trkpt>
      <trkpt lat="43.45492" lon="3.51264">
        <ele>52.1</ele>
        <time>2018-09-25T20:09:57.819Z</time>
      </trkpt>
      <trkpt lat="43.45493" lon="3.51269">
        <ele>51.9</ele>
        <time>2018-09-25T20:09:58.819Z</time>
      </trkpt>
      <trkpt lat="43.45494" lon="3.51275">
        <ele>51.6</ele>
        <time>2018-09-25T20:09:59.819Z</time>
      </trkpt>
      <trkpt lat="43.45493" lon="3.5128">
        <ele>51.4</ele>
        <time>2018-09-25T20:10:00.819Z</time>
      </trkpt>
      <trkpt lat="43.45493" lon="3.51287">
        <ele>51.3</ele>
        <time>2018-09-25T20:10:01.819Z</time>
      </trkpt>
      <trkpt lat="43.45492" lon="3.51294">
        <ele>51.1</ele>
        <time>2018-09-25T20:10:02.819Z</time>
      </trkpt>
      <trkpt lat="43.45491" lon="3.51302">
        <ele>51</ele>
        <time>2018-09-25T20:10:03.819Z</time>
      </trkpt>
      <trkpt lat="43.45489" lon="3.5131">
        <ele>50.9</ele>
        <time>2018-09-25T20:10:04.819Z</time>
      </trkpt>
      <trkpt lat="43.45486" lon="3.51317">
        <ele>50.8</ele>
        <time>2018-09-25T20:10:05.819Z</time>
      </trkpt>
      <trkpt lat="43.45484" lon="3.51324">
        <ele>50.7</ele>
        <time>2018-09-25T20:10:06.819Z</time>
      </trkpt>
      <trkpt lat="43.45482" lon="3.51331">
        <ele>50.6</ele>
        <time>2018-09-25T20:10:07.819Z</time>
      </trkpt>
      <trkpt lat="43.4548" lon="3.51339">
        <ele>50.4</ele>
        <time>2018-09-25T20:10:08.819Z</time>
      </trkpt>
      <trkpt lat="43.45478" lon="3.51346">
        <ele>50.1</ele>
        <time>2018-09-25T20:10:09.819Z</time>
      </trkpt>
      <trkpt lat="43.45476" lon="3.51353">
        <ele>49.8</ele>
        <time>2018-09-25T20:10:10.819Z</time>
      </trkpt>
      <trkpt lat="43.45474" lon="3.5136">
        <ele>49.5</ele>
        <time>2018-09-25T20:10:11.819Z</time>
      </trkpt>
      <trkpt lat="43.45471" lon="3.51367">
        <ele>49.2</ele>
        <time>2018-09-25T20:10:12.819Z</time>
      </trkpt>
      <trkpt lat="43.45469" lon="3.51373">
        <ele>49</ele>
        <time>2018-09-25T20:10:13.819Z</time>
      </trkpt>
      <trkpt lat="43.45467" lon="3.51379">
        <ele>48.9</ele>
        <time>2018-09-25T20:10:14.819Z</time>
      </trkpt>
      <trkpt lat="43.45465" lon="3.51386">
        <ele>48.8</ele>
        <time>2018-09-25T20:10:15.819Z</time>
      </trkpt>
      <trkpt lat="43.45463" lon="3.51392">
        <ele>48.8</ele>
        <time>2018-09-25T20:10:16.819Z</time>
      </trkpt>
      <trkpt lat="43.45462" lon="3.51397">
        <ele>48.7</ele>
        <time>2018-09-25T20:10:17.819Z</time>
      </trkpt>
      <trkpt lat="43.4546" lon="3.51403">
        <ele>48.7</ele>
        <time>2018-09-25T20:10:18.819Z</time>
      </trkpt>
      <trkpt lat="43.45458" lon="3.51409">
        <ele>48.6</ele>
        <time>2018-09-25T20:10:19.819Z</time>
      </trkpt>
      <trkpt lat="43.45456" lon="3.51415">
        <ele>48.5</ele>
        <time>2018-09-25T20:10:20.819Z</time>
      </trkpt>
      <trkpt lat="43.45454" lon="3.51421">
        <ele>48.5</ele>
        <time>2018-09-25T20:10:21.819Z</time>
      </trkpt>
      <trkpt lat="43.45452" lon="3.51427">
        <ele>48.4</ele>
        <time>2018-09-25T20:10:22.819Z</time>
      </trkpt>
      <trkpt lat="43.4545" lon="3.51433">
        <ele>48.4</ele>
        <time>2018-09-25T20:10:23.819Z</time>
      </trkpt>
      <trkpt lat="43.45449" lon="3.51439">
        <ele>48.3</ele>
        <time>2018-09-25T20:10:24.819Z</time>
      </trkpt>
      <trkpt lat="43.45447" lon="3.51444">
        <ele>48.3</ele>
        <time>2018-09-25T20:10:25.819Z</time>
      </trkpt>
      <trkpt lat="43.45445" lon="3.5145">
        <ele>48.2</ele>
        <time>2018-09-25T20:10:26.819Z</time>
      </trkpt>
      <trkpt lat="43.45443" lon="3.51455">
        <ele>48.1</ele>
        <time>2018-09-25T20:10:27.819Z</time>
      </trkpt>
      <trkpt lat="43.45442" lon="3.5146">
        <ele>48.1</ele>
        <time>2018-09-25T20:10:28.819Z</time>
      </trkpt>
      <trkpt lat="43.4544" lon="3.51465">
        <ele>48.1</ele>
        <time>2018-09-25T20:10:29.819Z</time>
      </trkpt>
      <trkpt lat="43.45438" lon="3.51471">
        <ele>48</ele>
        <time>2018-09-25T20:10:30.819Z</time>
      </trkpt>
      <trkpt lat="43.45437" lon="3.51475">
        <ele>47.8</ele>
        <time>2018-09-25T20:10:31.819Z</time>
      </trkpt>
      <trkpt lat="43.45436" lon="3.51481">
        <ele>47.6</ele>
        <time>2018-09-25T20:10:32.819Z</time>
      </trkpt>
      <trkpt lat="43.45434" lon="3.51487">
        <ele>47.4</ele>
        <time>2018-09-25T20:10:33.819Z</time>
      </trkpt>
      <trkpt lat="43.45432" lon="3.51492">
        <ele>47.1</ele>
        <time>2018-09-25T20:10:34.819Z</time>
      </trkpt>
      <trkpt lat="43.4543" lon="3.51498">
        <ele>46.9</ele>
        <time>2018-09-25T20:10:35.819Z</time>
      </trkpt>
      <trkpt lat="43.45428" lon="3.51503">
        <ele>46.8</ele>
        <time>2018-09-25T20:10:36.819Z</time>
      </trkpt>
      <trkpt lat="43.45426" lon="3.51508">
        <ele>46.7</ele>
        <time>2018-09-25T20:10:37.819Z</time>
      </trkpt>
      <trkpt lat="43.45425" lon="3.51513">
        <ele>46.7</ele>
        <time>2018-09-25T20:10:38.819Z</time>
      </trkpt>
      <trkpt lat="43.45423" lon="3.51519">
        <ele>46.6</ele>
        <time>2018-09-25T20:10:39.819Z</time>
      </trkpt>
      <trkpt lat="43.45421" lon="3.51524">
        <ele>46.5</ele>
        <time>2018-09-25T20:10:40.819Z</time>
      </trkpt>
      <trkpt lat="43.4542" lon="3.51529">
        <ele>46.4</ele>
        <time>2018-09-25T20:10:41.819Z</time>
      </trkpt>
      <trkpt lat="43.45418" lon="3.51534">
        <ele>46.4</ele>
        <time>2018-09-25T20:10:42.819Z</time>
      </trkpt>
      <trkpt lat="43.45416" lon="3.51539">
        <ele>46.3</ele>
        <time>2018-09-25T20:10:43.819Z</time>
      </trkpt>
      <trkpt lat="43.45414" lon="3.51544">
        <ele>46.3</ele>
        <time>2018-09-25T20:10:44.819Z</time>
      </trkpt>
      <trkpt lat="43.45412" lon="3.51549">
        <ele>46.3</ele>
        <time>2018-09-25T20:10:45.819Z</time>
      </trkpt>
      <trkpt lat="43.45411" lon="3.51554">
        <ele>46.2</ele>
        <time>2018-09-25T20:10:46.819Z</time>
      </trkpt>
      <trkpt lat="43.45409" lon="3.5156">
        <ele>46.2</ele>
        <time>2018-09-25T20:10:47.819Z</time>
      </trkpt>
      <trkpt lat="43.45407" lon="3.51565">
        <ele>46.1</ele>
        <time>2018-09-25T20:10:48.819Z</time>
      </trkpt>
      <trkpt lat="43.45405" lon="3.5157">
        <ele>46.1</ele>
        <time>2018-09-25T20:10:49.819Z</time>
      </trkpt>
      <trkpt lat="43.45403" lon="3.51576">
        <ele>46</ele>
        <time>2018-09-25T20:10:50.819Z</time>
      </trkpt>
      <trkpt lat="43.454" lon="3.51581">
        <ele>46</ele>
        <time>2018-09-25T20:10:51.819Z</time>
      </trkpt>
      <trkpt lat="43.45398" lon="3.51586">
        <ele>45.9</ele>
        <time>2018-09-25T20:10:52.819Z</time>
      </trkpt>
      <trkpt lat="43.45396" lon="3.51592">
        <ele>45.9</ele>
        <time>2018-09-25T20:10:53.819Z</time>
      </trkpt>
      <trkpt lat="43.45394" lon="3.51598">
        <ele>45.8</ele>
        <time>2018-09-25T20:10:54.819Z</time>
      </trkpt>
      <trkpt lat="43.45393" lon="3.51604">
        <ele>45.8</ele>
        <time>2018-09-25T20:10:55.819Z</time>
      </trkpt>
      <trkpt lat="43.45391" lon="3.51608">
        <ele>45.7</ele>
        <time>2018-09-25T20:10:56.819Z</time>
      </trkpt>
      <trkpt lat="43.45389" lon="3.51614">
        <ele>45.6</ele>
        <time>2018-09-25T20:10:57.819Z</time>
      </trkpt>
      <trkpt lat="43.45387" lon="3.51619">
        <ele>45.6</ele>
        <time>2018-09-25T20:10:58.819Z</time>
      </trkpt>
      <trkpt lat="43.45386" lon="3.51625">
        <ele>45.4</ele>
        <time>2018-09-25T20:10:59.819Z</time>
      </trkpt>
      <trkpt lat="43.45385" lon="3.5163">
        <ele>45.3</ele>
        <time>2018-09-25T20:11:00.819Z</time>
      </trkpt>
      <trkpt lat="43.45383" lon="3.51635">
        <ele>45.1</ele>
        <time>2018-09-25T20:11:01.819Z</time>
      </trkpt>
      <trkpt lat="43.45381" lon="3.5164">
        <ele>44.8</ele>
        <time>2018-09-25T20:11:02.819Z</time>
      </trkpt>
      <trkpt lat="43.4538" lon="3.51645">
        <ele>44.7</ele>
        <time>2018-09-25T20:11:03.819Z</time>
      </trkpt>
      <trkpt lat="43.45378" lon="3.51651">
        <ele>44.6</ele>
        <time>2018-09-25T20:11:04.819Z</time>
      </trkpt>
      <trkpt lat="43.45377" lon="3.51656">
        <ele>44.5</ele>
        <time>2018-09-25T20:11:05.819Z</time>
      </trkpt>
      <trkpt lat="43.45376" lon="3.51662">
        <ele>44.5</ele>
        <time>2018-09-25T20:11:06.819Z</time>
      </trkpt>
      <trkpt lat="43.45374" lon="3.51668">
        <ele>44.4</ele>
        <time>2018-09-25T20:11:07.819Z</time>
      </trkpt>
      <trkpt lat="43.45373" lon="3.51673">
        <ele>44.3</ele>
        <time>2018-09-25T20:11:08.819Z</time>
      </trkpt>
      <trkpt lat="43.45372" lon="3.51679">
        <ele>44.2</ele>
        <time>2018-09-25T20:11:09.819Z</time>
      </trkpt>
      <trkpt lat="43.4537" lon="3.51684">
        <ele>44.1</ele>
        <time>2018-09-25T20:11:10.819Z</time>
      </trkpt>
      <trkpt lat="43.45369" lon="3.51689">
        <ele>44</ele>
        <time>2018-09-25T20:11:11.819Z</time>
      </trkpt>
      <trkpt lat="43.45368" lon="3.51695">
        <ele>43.9</ele>
        <time>2018-09-25T20:11:12.819Z</time>
      </trkpt>
      <trkpt lat="43.45367" lon="3.517">
        <ele>43.8</ele>
        <time>2018-09-25T20:11:13.819Z</time>
      </trkpt>
      <trkpt lat="43.45366" lon="3.51706">
        <ele>43.6</ele>
        <time>2018-09-25T20:11:14.819Z</time>
      </trkpt>
      <trkpt lat="43.45365" lon="3.51712">
        <ele>43.4</ele>
        <time>2018-09-25T20:11:15.819Z</time>
      </trkpt>
      <trkpt lat="43.45364" lon="3.51717">
        <ele>43.1</ele>
        <time>2018-09-25T20:11:16.819Z</time>
      </trkpt>
      <trkpt lat="43.45363" lon="3.51723">
        <ele>42.9</ele>
        <time>2018-09-25T20:11:17.819Z</time>
      </trkpt>
      <trkpt lat="43.45362" lon="3.51728">
        <ele>42.6</ele>
        <time>2018-09-25T20:11:18.819Z</time>
      </trkpt>
      <trkpt lat="43.45361" lon="3.51735">
        <ele>42.4</ele>
        <time>2018-09-25T20:11:19.819Z</time>
      </trkpt>
      <trkpt lat="43.4536" lon="3.51741">
        <ele>42.2</ele>
        <time>2018-09-25T20:11:20.819Z</time>
      </trkpt>
      <trkpt lat="43.45359" lon="3.51746">
        <ele>42</ele>
        <time>2018-09-25T20:11:21.819Z</time>
      </trkpt>
      <trkpt lat="43.45358" lon="3.51752">
        <ele>41.9</ele>
        <time>2018-09-25T20:11:22.819Z</time>
      </trkpt>
      <trkpt lat="43.45357" lon="3.51757">
        <ele>41.8</ele>
        <time>2018-09-25T20:11:23.819Z</time>
      </trkpt>
      <trkpt lat="43.45356" lon="3.51763">
        <ele>41.8</ele>
        <time>2018-09-25T20:11:24.819Z</time>
      </trkpt>
      <trkpt lat="43.45355" lon="3.51769">
        <ele>41.7</ele>
        <time>2018-09-25T20:11:25.819Z</time>
      </trkpt>
      <trkpt lat="43.45354" lon="3.51775">
        <ele>41.7</ele>
        <time>2018-09-25T20:11:26.819Z</time>
      </trkpt>
      <trkpt lat="43.45353" lon="3.51781">
        <ele>41.6</ele>
        <time>2018-09-25T20:11:27.819Z</time>
      </trkpt>
      <trkpt lat="43.45353" lon="3.51787">
        <ele>41.6</ele>
        <time>2018-09-25T20:11:28.819Z</time>
      </trkpt>
      <trkpt lat="43.45352" lon="3.51793">
        <ele>41.5</ele>
        <time>2018-09-25T20:11:29.819Z</time>
      </trkpt>
      <trkpt lat="43.45351" lon="3.51798">
        <ele>41.5</ele>
        <time>2018-09-25T20:11:30.819Z</time>
      </trkpt>
      <trkpt lat="43.4535" lon="3.51804">
        <ele>41.5</ele>
        <time>2018-09-25T20:11:31.819Z</time>
      </trkpt>
      <trkpt lat="43.45349" lon="3.51809">
        <ele>41.4</ele>
        <time>2018-09-25T20:11:32.819Z</time>
      </trkpt>
      <trkpt lat="43.45348" lon="3.51815">
        <ele>41.3</ele>
        <time>2018-09-25T20:11:33.819Z</time>
      </trkpt>
      <trkpt lat="43.45347" lon="3.51822">
        <ele>41.3</ele>
        <time>2018-09-25T20:11:34.819Z</time>
      </trkpt>
      <trkpt lat="43.45347" lon="3.51828">
        <ele>41.2</ele>
        <time>2018-09-25T20:11:35.819Z</time>
      </trkpt>
      <trkpt lat="43.45346" lon="3.51834">
        <ele>41.2</ele>
        <time>2018-09-25T20:11:36.819Z</time>
      </trkpt>
      <trkpt lat="43.45344" lon="3.51839">
        <ele>41.1</ele>
        <time>2018-09-25T20:11:37.819Z</time>
      </trkpt>
      <trkpt lat="43.45343" lon="3.51845">
        <ele>41.1</ele>
        <time>2018-09-25T20:11:38.819Z</time>
      </trkpt>
      <trkpt lat="43.45342" lon="3.5185">
        <ele>41</ele>
        <time>2018-09-25T20:11:39.819Z</time>
      </trkpt>
      <trkpt lat="43.45341" lon="3.51856">
        <ele>40.9</ele>
        <time>2018-09-25T20:11:40.819Z</time>
      </trkpt>
      <trkpt lat="43.45339" lon="3.51862">
        <ele>40.7</ele>
        <time>2018-09-25T20:11:41.819Z</time>
      </trkpt>
      <trkpt lat="43.45338" lon="3.51868">
        <ele>40.5</ele>
        <time>2018-09-25T20:11:42.819Z</time>
      </trkpt>
      <trkpt lat="43.45337" lon="3.51873">
        <ele>40.3</ele>
        <time>2018-09-25T20:11:43.819Z</time>
      </trkpt>
      <trkpt lat="43.45336" lon="3.51879">
        <ele>40.1</ele>
        <time>2018-09-25T20:11:44.819Z</time>
      </trkpt>
      <trkpt lat="43.45335" lon="3.51885">
        <ele>39.9</ele>
        <time>2018-09-25T20:11:45.819Z</time>
      </trkpt>
      <trkpt lat="43.45334" lon="3.51891">
        <ele>39.9</ele>
        <time>2018-09-25T20:11:46.819Z</time>
      </trkpt>
      <trkpt lat="43.45333" lon="3.51897">
        <ele>39.8</ele>
        <time>2018-09-25T20:11:47.819Z</time>
      </trkpt>
      <trkpt lat="43.45332" lon="3.51903">
        <ele>39.7</ele>
        <time>2018-09-25T20:11:48.819Z</time>
      </trkpt>
      <trkpt lat="43.45332" lon="3.51909">
        <ele>39.6</ele>
        <time>2018-09-25T20:11:49.819Z</time>
      </trkpt>
      <trkpt lat="43.45331" lon="3.51915">
        <ele>39.5</ele>
        <time>2018-09-25T20:11:50.819Z</time>
      </trkpt>
      <trkpt lat="43.45329" lon="3.51921">
        <ele>39.5</ele>
        <time>2018-09-25T20:11:51.819Z</time>
      </trkpt>
      <trkpt lat="43.45329" lon="3.51927">
        <ele>39.5</ele>
        <time>2018-09-25T20:11:52.819Z</time>
      </trkpt>
      <trkpt lat="43.45328" lon="3.51933">
        <ele>39.4</ele>
        <time>2018-09-25T20:11:53.819Z</time>
      </trkpt>
      <trkpt lat="43.45327" lon="3.51939">
        <ele>39.4</ele>
        <time>2018-09-25T20:11:54.819Z</time>
      </trkpt>
      <trkpt lat="43.45327" lon="3.51945">
        <ele>39.3</ele>
        <time>2018-09-25T20:11:55.819Z</time>
      </trkpt>
      <trkpt lat="43.45326" lon="3.51951">
        <ele>39.3</ele>
        <time>2018-09-25T20:11:56.819Z</time>
      </trkpt>
      <trkpt lat="43.45325" lon="3.51958">
        <ele>39.2</ele>
        <time>2018-09-25T20:11:57.819Z</time>
      </trkpt>
      <trkpt lat="43.45324" lon="3.51964">
        <ele>39.2</ele>
        <time>2018-09-25T20:11:58.819Z</time>
      </trkpt>
      <trkpt lat="43.45322" lon="3.5197">
        <ele>39.1</ele>
        <time>2018-09-25T20:11:59.819Z</time>
      </trkpt>
      <trkpt lat="43.45322" lon="3.51976">
        <ele>39.1</ele>
        <time>2018-09-25T20:12:00.819Z</time>
      </trkpt>
      <trkpt lat="43.4532" lon="3.51982">
        <ele>38.9</ele>
        <time>2018-09-25T20:12:01.819Z</time>
      </trkpt>
      <trkpt lat="43.4532" lon="3.51988">
        <ele>38.8</ele>
        <time>2018-09-25T20:12:02.819Z</time>
      </trkpt>
      <trkpt lat="43.45319" lon="3.51994">
        <ele>38.6</ele>
        <time>2018-09-25T20:12:03.819Z</time>
      </trkpt>
      <trkpt lat="43.45318" lon="3.52">
        <ele>38.4</ele>
        <time>2018-09-25T20:12:04.819Z</time>
      </trkpt>
      <trkpt lat="43.45317" lon="3.52006">
        <ele>38.2</ele>
        <time>2018-09-25T20:12:05.819Z</time>
      </trkpt>
      <trkpt lat="43.45316" lon="3.52012">
        <ele>38</ele>
        <time>2018-09-25T20:12:06.819Z</time>
      </trkpt>
      <trkpt lat="43.45315" lon="3.52018">
        <ele>37.9</ele>
        <time>2018-09-25T20:12:07.819Z</time>
      </trkpt>
      <trkpt lat="43.45313" lon="3.52024">
        <ele>37.8</ele>
        <time>2018-09-25T20:12:08.819Z</time>
      </trkpt>
      <trkpt lat="43.45312" lon="3.52029">
        <ele>37.8</ele>
        <time>2018-09-25T20:12:09.819Z</time>
      </trkpt>
      <trkpt lat="43.45311" lon="3.52035">
        <ele>37.7</ele>
        <time>2018-09-25T20:12:10.819Z</time>
      </trkpt>
      <trkpt lat="43.45309" lon="3.52042">
        <ele>37.6</ele>
        <time>2018-09-25T20:12:11.819Z</time>
      </trkpt>
      <trkpt lat="43.45308" lon="3.52047">
        <ele>37.5</ele>
        <time>2018-09-25T20:12:12.819Z</time>
      </trkpt>
      <trkpt lat="43.45307" lon="3.52053">
        <ele>37.5</ele>
        <time>2018-09-25T20:12:13.819Z</time>
      </trkpt>
      <trkpt lat="43.45306" lon="3.52059">
        <ele>37.4</ele>
        <time>2018-09-25T20:12:14.819Z</time>
      </trkpt>
      <trkpt lat="43.45304" lon="3.52065">
        <ele>37.4</ele>
        <time>2018-09-25T20:12:15.819Z</time>
      </trkpt>
      <trkpt lat="43.45303" lon="3.52071">
        <ele>37.3</ele>
        <time>2018-09-25T20:12:16.819Z</time>
      </trkpt>
      <trkpt lat="43.45301" lon="3.52077">
        <ele>37.3</ele>
        <time>2018-09-25T20:12:17.819Z</time>
      </trkpt>
      <trkpt lat="43.453" lon="3.52082">
        <ele>37.2</ele>
        <time>2018-09-25T20:12:18.819Z</time>
      </trkpt>
      <trkpt lat="43.45299" lon="3.52087">
        <ele>37.2</ele>
        <time>2018-09-25T20:12:19.819Z</time>
      </trkpt>
      <trkpt lat="43.45298" lon="3.52092">
        <ele>37.2</ele>
        <time>2018-09-25T20:12:20.819Z</time>
      </trkpt>
      <trkpt lat="43.45296" lon="3.52097">
        <ele>37.1</ele>
        <time>2018-09-25T20:12:21.819Z</time>
      </trkpt>
      <trkpt lat="43.45294" lon="3.52102">
        <ele>37.1</ele>
        <time>2018-09-25T20:12:22.819Z</time>
      </trkpt>
      <trkpt lat="43.45292" lon="3.52108">
        <ele>37</ele>
        <time>2018-09-25T20:12:23.819Z</time>
      </trkpt>
      <trkpt lat="43.4529" lon="3.52114">
        <ele>37</ele>
        <time>2018-09-25T20:12:24.819Z</time>
      </trkpt>
      <trkpt lat="43.45288" lon="3.5212">
        <ele>36.9</ele>
        <time>2018-09-25T20:12:25.819Z</time>
      </trkpt>
      <trkpt lat="43.45287" lon="3.52126">
        <ele>36.8</ele>
        <time>2018-09-25T20:12:26.819Z</time>
      </trkpt>
      <trkpt lat="43.45285" lon="3.52132">
        <ele>36.8</ele>
        <time>2018-09-25T20:12:27.819Z</time>
      </trkpt>
      <trkpt lat="43.45283" lon="3.52138">
        <ele>36.7</ele>
        <time>2018-09-25T20:12:28.819Z</time>
      </trkpt>
      <trkpt lat="43.45281" lon="3.52144">
        <ele>36.6</ele>
        <time>2018-09-25T20:12:29.819Z</time>
      </trkpt>
      <trkpt lat="43.4528" lon="3.52151">
        <ele>36.4</ele>
        <time>2018-09-25T20:12:30.819Z</time>
      </trkpt>
      <trkpt lat="43.45278" lon="3.52157">
        <ele>36.1</ele>
        <time>2018-09-25T20:12:31.819Z</time>
      </trkpt>
      <trkpt lat="43.45277" lon="3.52164">
        <ele>35.9</ele>
        <time>2018-09-25T20:12:32.819Z</time>
      </trkpt>
      <trkpt lat="43.45275" lon="3.52169">
        <ele>35.6</ele>
        <time>2018-09-25T20:12:33.819Z</time>
      </trkpt>
      <trkpt lat="43.45274" lon="3.52176">
        <ele>35.5</ele>
        <time>2018-09-25T20:12:34.819Z</time>
      </trkpt>
      <trkpt lat="43.45273" lon="3.52182">
        <ele>35.4</ele>
        <time>2018-09-25T20:12:35.819Z</time>
      </trkpt>
      <trkpt lat="43.45272" lon="3.52188">
        <ele>35.3</ele>
        <time>2018-09-25T20:12:36.819Z</time>
      </trkpt>
      <trkpt lat="43.4527" lon="3.52195">
        <ele>35.2</ele>
        <time>2018-09-25T20:12:37.819Z</time>
      </trkpt>
      <trkpt lat="43.45269" lon="3.52202">
        <ele>35.1</ele>
        <time>2018-09-25T20:12:38.819Z</time>
      </trkpt>
      <trkpt lat="43.45267" lon="3.52209">
        <ele>35.1</ele>
        <time>2018-09-25T20:12:39.819Z</time>
      </trkpt>
      <trkpt lat="43.45266" lon="3.52215">
        <ele>35</ele>
        <time>2018-09-25T20:12:40.819Z</time>
      </trkpt>
      <trkpt lat="43.45263" lon="3.52221">
        <ele>35</ele>
        <time>2018-09-25T20:12:41.819Z</time>
      </trkpt>
      <trkpt lat="43.45261" lon="3.52227">
        <ele>34.9</ele>
        <time>2018-09-25T20:12:42.819Z</time>
      </trkpt>
      <trkpt lat="43.45259" lon="3.52234">
        <ele>34.9</ele>
        <time>2018-09-25T20:12:43.819Z</time>
      </trkpt>
      <trkpt lat="43.45256" lon="3.5224">
        <ele>34.8</ele>
        <time>2018-09-25T20:12:44.819Z</time>
      </trkpt>
      <trkpt lat="43.45254" lon="3.52246">
        <ele>34.8</ele>
        <time>2018-09-25T20:12:45.819Z</time>
      </trkpt>
      <trkpt lat="43.45252" lon="3.52253">
        <ele>34.7</ele>
        <time>2018-09-25T20:12:46.819Z</time>
      </trkpt>
      <trkpt lat="43.4525" lon="3.52258">
        <ele>34.7</ele>
        <time>2018-09-25T20:12:47.819Z</time>
      </trkpt>
      <trkpt lat="43.45247" lon="3.52265">
        <ele>34.7</ele>
        <time>2018-09-25T20:12:48.819Z</time>
      </trkpt>
      <trkpt lat="43.45244" lon="3.52271">
        <ele>34.6</ele>
        <time>2018-09-25T20:12:49.819Z</time>
      </trkpt>
      <trkpt lat="43.45241" lon="3.52278">
        <ele>34.5</ele>
        <time>2018-09-25T20:12:50.819Z</time>
      </trkpt>
      <trkpt lat="43.45239" lon="3.52285">
        <ele>34.5</ele>
        <time>2018-09-25T20:12:51.819Z</time>
      </trkpt>
      <trkpt lat="43.45236" lon="3.52292">
        <ele>34.4</ele>
        <time>2018-09-25T20:12:52.819Z</time>
      </trkpt>
      <trkpt lat="43.45233" lon="3.52299">
        <ele>34.3</ele>
        <time>2018-09-25T20:12:53.819Z</time>
      </trkpt>
      <trkpt lat="43.4523" lon="3.52306">
        <ele>34.1</ele>
        <time>2018-09-25T20:12:54.819Z</time>
      </trkpt>
      <trkpt lat="43.45228" lon="3.52313">
        <ele>33.8</ele>
        <time>2018-09-25T20:12:55.819Z</time>
      </trkpt>
      <trkpt lat="43.45225" lon="3.5232">
        <ele>33.5</ele>
        <time>2018-09-25T20:12:56.819Z</time>
      </trkpt>
      <trkpt lat="43.45223" lon="3.52326">
        <ele>33.2</ele>
        <time>2018-09-25T20:12:57.819Z</time>
      </trkpt>
      <trkpt lat="43.45221" lon="3.52333">
        <ele>33.1</ele>
        <time>2018-09-25T20:12:58.819Z</time>
      </trkpt>
      <trkpt lat="43.45218" lon="3.52339">
        <ele>33</ele>
        <time>2018-09-25T20:12:59.819Z</time>
      </trkpt>
      <trkpt lat="43.45216" lon="3.52347">
        <ele>32.9</ele>
        <time>2018-09-25T20:13:00.819Z</time>
      </trkpt>
      <trkpt lat="43.45214" lon="3.52354">
        <ele>32.8</ele>
        <time>2018-09-25T20:13:01.819Z</time>
      </trkpt>
      <trkpt lat="43.45212" lon="3.52361">
        <ele>32.7</ele>
        <time>2018-09-25T20:13:02.819Z</time>
      </trkpt>
      <trkpt lat="43.4521" lon="3.52368">
        <ele>32.7</ele>
        <time>2018-09-25T20:13:03.819Z</time>
      </trkpt>
      <trkpt lat="43.45207" lon="3.52375">
        <ele>32.6</ele>
        <time>2018-09-25T20:13:04.819Z</time>
      </trkpt>
      <trkpt lat="43.45205" lon="3.52382">
        <ele>32.5</ele>
        <time>2018-09-25T20:13:05.819Z</time>
      </trkpt>
      <trkpt lat="43.45203" lon="3.52389">
        <ele>32.4</ele>
        <time>2018-09-25T20:13:06.819Z</time>
      </trkpt>
      <trkpt lat="43.45201" lon="3.52395">
        <ele>32.3</ele>
        <time>2018-09-25T20:13:07.819Z</time>
      </trkpt>
      <trkpt lat="43.45199" lon="3.52402">
        <ele>32.3</ele>
        <time>2018-09-25T20:13:08.819Z</time>
      </trkpt>
      <trkpt lat="43.45197" lon="3.52409">
        <ele>32.2</ele>
        <time>2018-09-25T20:13:09.819Z</time>
      </trkpt>
      <trkpt lat="43.45195" lon="3.52416">
        <ele>32.2</ele>
        <time>2018-09-25T20:13:10.819Z</time>
      </trkpt>
      <trkpt lat="43.45194" lon="3.52423">
        <ele>32.2</ele>
        <time>2018-09-25T20:13:11.819Z</time>
      </trkpt>
      <trkpt lat="43.45192" lon="3.52429">
        <ele>32.1</ele>
        <time>2018-09-25T20:13:12.819Z</time>
      </trkpt>
      <trkpt lat="43.4519" lon="3.52436">
        <ele>32.1</ele>
        <time>2018-09-25T20:13:13.819Z</time>
      </trkpt>
      <trkpt lat="43.45188" lon="3.52442">
        <ele>32</ele>
        <time>2018-09-25T20:13:14.819Z</time>
      </trkpt>
      <trkpt lat="43.45187" lon="3.52449">
        <ele>32</ele>
        <time>2018-09-25T20:13:15.819Z</time>
      </trkpt>
      <trkpt lat="43.45185" lon="3.52455">
        <ele>31.9</ele>
        <time>2018-09-25T20:13:16.819Z</time>
      </trkpt>
      <trkpt lat="43.45183" lon="3.52462">
        <ele>31.9</ele>
        <time>2018-09-25T20:13:17.819Z</time>
      </trkpt>
      <trkpt lat="43.45182" lon="3.52468">
        <ele>31.8</ele>
        <time>2018-09-25T20:13:18.819Z</time>
      </trkpt>
      <trkpt lat="43.4518" lon="3.52474">
        <ele>31.8</ele>
        <time>2018-09-25T20:13:19.819Z</time>
      </trkpt>
      <trkpt lat="43.45178" lon="3.52481">
        <ele>31.7</ele>
        <time>2018-09-25T20:13:20.819Z</time>
      </trkpt>
      <trkpt lat="43.45177" lon="3.52487">
        <ele>31.6</ele>
        <time>2018-09-25T20:13:21.819Z</time>
      </trkpt>
      <trkpt lat="43.45176" lon="3.52494">
        <ele>31.3</ele>
        <time>2018-09-25T20:13:22.819Z</time>
      </trkpt>
      <trkpt lat="43.45174" lon="3.525">
        <ele>31.1</ele>
        <time>2018-09-25T20:13:23.819Z</time>
      </trkpt>
      <trkpt lat="43.45173" lon="3.52507">
        <ele>30.9</ele>
        <time>2018-09-25T20:13:24.819Z</time>
      </trkpt>
      <trkpt lat="43.45172" lon="3.52513">
        <ele>30.8</ele>
        <time>2018-09-25T20:13:25.819Z</time>
      </trkpt>
      <trkpt lat="43.4517" lon="3.5252">
        <ele>30.7</ele>
        <time>2018-09-25T20:13:26.819Z</time>
      </trkpt>
      <trkpt lat="43.45169" lon="3.52527">
        <ele>30.7</ele>
        <time>2018-09-25T20:13:27.819Z</time>
      </trkpt>
      <trkpt lat="43.45167" lon="3.52533">
        <ele>30.6</ele>
        <time>2018-09-25T20:13:28.819Z</time>
      </trkpt>
      <trkpt lat="43.45166" lon="3.5254">
        <ele>30.6</ele>
        <time>2018-09-25T20:13:29.819Z</time>
      </trkpt>
      <trkpt lat="43.45164" lon="3.52547">
        <ele>30.5</ele>
        <time>2018-09-25T20:13:30.819Z</time>
      </trkpt>
      <trkpt lat="43.45163" lon="3.52553">
        <ele>30.5</ele>
        <time>2018-09-25T20:13:31.819Z</time>
      </trkpt>
      <trkpt lat="43.45162" lon="3.5256">
        <ele>30.4</ele>
        <time>2018-09-25T20:13:32.819Z</time>
      </trkpt>
      <trkpt lat="43.4516" lon="3.52566">
        <ele>30.4</ele>
        <time>2018-09-25T20:13:33.819Z</time>
      </trkpt>
      <trkpt lat="43.45159" lon="3.52572">
        <ele>30.3</ele>
        <time>2018-09-25T20:13:34.819Z</time>
      </trkpt>
      <trkpt lat="43.45158" lon="3.52578">
        <ele>30.3</ele>
        <time>2018-09-25T20:13:35.819Z</time>
      </trkpt>
      <trkpt lat="43.45156" lon="3.52584">
        <ele>30.2</ele>
        <time>2018-09-25T20:13:36.819Z</time>
      </trkpt>
      <trkpt lat="43.45154" lon="3.52591">
        <ele>30.2</ele>
        <time>2018-09-25T20:13:37.819Z</time>
      </trkpt>
      <trkpt lat="43.45153" lon="3.52596">
        <ele>30.2</ele>
        <time>2018-09-25T20:13:38.819Z</time>
      </trkpt>
      <trkpt lat="43.45151" lon="3.52603">
        <ele>30.1</ele>
        <time>2018-09-25T20:13:39.819Z</time>
      </trkpt>
      <trkpt lat="43.4515" lon="3.52609">
        <ele>30.1</ele>
        <time>2018-09-25T20:13:40.819Z</time>
      </trkpt>
      <trkpt lat="43.45148" lon="3.52615">
        <ele>30.1</ele>
        <time>2018-09-25T20:13:41.819Z</time>
      </trkpt>
      <trkpt lat="43.45146" lon="3.52621">
        <ele>30</ele>
        <time>2018-09-25T20:13:42.819Z</time>
      </trkpt>
      <trkpt lat="43.45144" lon="3.52628">
        <ele>30</ele>
        <time>2018-09-25T20:13:43.819Z</time>
      </trkpt>
      <trkpt lat="43.45142" lon="3.52634">
        <ele>30</ele>
        <time>2018-09-25T20:13:44.819Z</time>
      </trkpt>
      <trkpt lat="43.4514" lon="3.52641">
        <ele>29.9</ele>
        <time>2018-09-25T20:13:45.819Z</time>
      </trkpt>
      <trkpt lat="43.45138" lon="3.52648">
        <ele>29.9</ele>
        <time>2018-09-25T20:13:46.819Z</time>
      </trkpt>
      <trkpt lat="43.45136" lon="3.52654">
        <ele>29.8</ele>
        <time>2018-09-25T20:13:47.819Z</time>
      </trkpt>
      <trkpt lat="43.45134" lon="3.52661">
        <ele>29.8</ele>
        <time>2018-09-25T20:13:48.819Z</time>
      </trkpt>
      <trkpt lat="43.45132" lon="3.52668">
        <ele>29.7</ele>
        <time>2018-09-25T20:13:49.819Z</time>
      </trkpt>
      <trkpt lat="43.4513" lon="3.52674">
        <ele>29.7</ele>
        <time>2018-09-25T20:13:50.819Z</time>
      </trkpt>
      <trkpt lat="43.45128" lon="3.52681">
        <ele>29.7</ele>
        <time>2018-09-25T20:13:51.819Z</time>
      </trkpt>
      <trkpt lat="43.45126" lon="3.52687">
        <ele>29.6</ele>
        <time>2018-09-25T20:13:52.819Z</time>
      </trkpt>
      <trkpt lat="43.45124" lon="3.52694">
        <ele>29.6</ele>
        <time>2018-09-25T20:13:53.819Z</time>
      </trkpt>
      <trkpt lat="43.45123" lon="3.52701">
        <ele>29.4</ele>
        <time>2018-09-25T20:13:54.819Z</time>
      </trkpt>
      <trkpt lat="43.45121" lon="3.52707">
        <ele>29.2</ele>
        <time>2018-09-25T20:13:55.819Z</time>
      </trkpt>
      <trkpt lat="43.45119" lon="3.52713">
        <ele>28.9</ele>
        <time>2018-09-25T20:13:56.819Z</time>
      </trkpt>
      <trkpt lat="43.45117" lon="3.5272">
        <ele>28.7</ele>
        <time>2018-09-25T20:13:57.819Z</time>
      </trkpt>
      <trkpt lat="43.45115" lon="3.52726">
        <ele>28.5</ele>
        <time>2018-09-25T20:13:58.819Z</time>
      </trkpt>
      <trkpt lat="43.45114" lon="3.52733">
        <ele>28.4</ele>
        <time>2018-09-25T20:13:59.819Z</time>
      </trkpt>
      <trkpt lat="43.45112" lon="3.5274">
        <ele>28.3</ele>
        <time>2018-09-25T20:14:00.819Z</time>
      </trkpt>
      <trkpt lat="43.45111" lon="3.52746">
        <ele>28.2</ele>
        <time>2018-09-25T20:14:01.819Z</time>
      </trkpt>
      <trkpt lat="43.45109" lon="3.52752">
        <ele>28.1</ele>
        <time>2018-09-25T20:14:02.819Z</time>
      </trkpt>
      <trkpt lat="43.45108" lon="3.52759">
        <ele>28</ele>
        <time>2018-09-25T20:14:03.819Z</time>
      </trkpt>
      <trkpt lat="43.45106" lon="3.52765">
        <ele>28</ele>
        <time>2018-09-25T20:14:04.819Z</time>
      </trkpt>
      <trkpt lat="43.45104" lon="3.52772">
        <ele>27.9</ele>
        <time>2018-09-25T20:14:05.819Z</time>
      </trkpt>
      <trkpt lat="43.45102" lon="3.52779">
        <ele>27.8</ele>
        <time>2018-09-25T20:14:06.819Z</time>
      </trkpt>
      <trkpt lat="43.45101" lon="3.52785">
        <ele>27.8</ele>
        <time>2018-09-25T20:14:07.819Z</time>
      </trkpt>
      <trkpt lat="43.45099" lon="3.52792">
        <ele>27.7</ele>
        <time>2018-09-25T20:14:08.819Z</time>
      </trkpt>
      <trkpt lat="43.45098" lon="3.52799">
        <ele>27.6</ele>
        <time>2018-09-25T20:14:09.819Z</time>
      </trkpt>
      <trkpt lat="43.45097" lon="3.52806">
        <ele>27.6</ele>
        <time>2018-09-25T20:14:10.819Z</time>
      </trkpt>
      <trkpt lat="43.45096" lon="3.52813">
        <ele>27.5</ele>
        <time>2018-09-25T20:14:11.819Z</time>
      </trkpt>
      <trkpt lat="43.45094" lon="3.5282">
        <ele>27.3</ele>
        <time>2018-09-25T20:14:12.819Z</time>
      </trkpt>
      <trkpt lat="43.45093" lon="3.52826">
        <ele>27.1</ele>
        <time>2018-09-25T20:14:13.819Z</time>
      </trkpt>
      <trkpt lat="43.45092" lon="3.52834">
        <ele>26.8</ele>
        <time>2018-09-25T20:14:14.819Z</time>
      </trkpt>
      <trkpt lat="43.4509" lon="3.5284">
        <ele>26.6</ele>
        <time>2018-09-25T20:14:15.819Z</time>
      </trkpt>
      <trkpt lat="43.45089" lon="3.52847">
        <ele>26.4</ele>
        <time>2018-09-25T20:14:16.819Z</time>
      </trkpt>
      <trkpt lat="43.45088" lon="3.52853">
        <ele>26.3</ele>
        <time>2018-09-25T20:14:17.819Z</time>
      </trkpt>
      <trkpt lat="43.45087" lon="3.5286">
        <ele>26.2</ele>
        <time>2018-09-25T20:14:18.819Z</time>
      </trkpt>
      <trkpt lat="43.45085" lon="3.52865">
        <ele>26.1</ele>
        <time>2018-09-25T20:14:19.819Z</time>
      </trkpt>
      <trkpt lat="43.45084" lon="3.52872">
        <ele>26.1</ele>
        <time>2018-09-25T20:14:20.819Z</time>
      </trkpt>
      <trkpt lat="43.45083" lon="3.52878">
        <ele>26</ele>
        <time>2018-09-25T20:14:21.819Z</time>
      </trkpt>
      <trkpt lat="43.45081" lon="3.52885">
        <ele>26</ele>
        <time>2018-09-25T20:14:22.819Z</time>
      </trkpt>
      <trkpt lat="43.4508" lon="3.52891">
        <ele>26</ele>
        <time>2018-09-25T20:14:23.819Z</time>
      </trkpt>
      <trkpt lat="43.45078" lon="3.52897">
        <ele>25.9</ele>
        <time>2018-09-25T20:14:24.819Z</time>
      </trkpt>
      <trkpt lat="43.45077" lon="3.52903">
        <ele>25.9</ele>
        <time>2018-09-25T20:14:25.819Z</time>
      </trkpt>
      <trkpt lat="43.45076" lon="3.5291">
        <ele>25.9</ele>
        <time>2018-09-25T20:14:26.819Z</time>
      </trkpt>
      <trkpt lat="43.45074" lon="3.52915">
        <ele>25.8</ele>
        <time>2018-09-25T20:14:27.819Z</time>
      </trkpt>
      <trkpt lat="43.45072" lon="3.52922">
        <ele>25.8</ele>
        <time>2018-09-25T20:14:28.819Z</time>
      </trkpt>
      <trkpt lat="43.45071" lon="3.52927">
        <ele>25.8</ele>
        <time>2018-09-25T20:14:29.819Z</time>
      </trkpt>
      <trkpt lat="43.45069" lon="3.52933">
        <ele>25.8</ele>
        <time>2018-09-25T20:14:30.819Z</time>
      </trkpt>
      <trkpt lat="43.45068" lon="3.52939">
        <ele>25.8</ele>
        <time>2018-09-25T20:14:31.819Z</time>
      </trkpt>
      <trkpt lat="43.45066" lon="3.52945">
        <ele>25.8</ele>
        <time>2018-09-25T20:14:32.819Z</time>
      </trkpt>
      <trkpt lat="43.45064" lon="3.5295">
        <ele>25.8</ele>
        <time>2018-09-25T20:14:33.819Z</time>
      </trkpt>
      <trkpt lat="43.45062" lon="3.52956">
        <ele>25.7</ele>
        <time>2018-09-25T20:14:34.819Z</time>
      </trkpt>
      <trkpt lat="43.4506" lon="3.52962">
        <ele>25.7</ele>
        <time>2018-09-25T20:14:35.819Z</time>
      </trkpt>
      <trkpt lat="43.45058" lon="3.52967">
        <ele>25.7</ele>
        <time>2018-09-25T20:14:36.819Z</time>
      </trkpt>
      <trkpt lat="43.45056" lon="3.52973">
        <ele>25.7</ele>
        <time>2018-09-25T20:14:37.819Z</time>
      </trkpt>
      <trkpt lat="43.45053" lon="3.52978">
        <ele>25.7</ele>
        <time>2018-09-25T20:14:38.819Z</time>
      </trkpt>
      <trkpt lat="43.45051" lon="3.52984">
        <ele>25.7</ele>
        <time>2018-09-25T20:14:39.819Z</time>
      </trkpt>
      <trkpt lat="43.45048" lon="3.5299">
        <ele>25.7</ele>
        <time>2018-09-25T20:14:40.819Z</time>
      </trkpt>
      <trkpt lat="43.45045" lon="3.52995">
        <ele>25.7</ele>
        <time>2018-09-25T20:14:41.819Z</time>
      </trkpt>
      <trkpt lat="43.45042" lon="3.53">
        <ele>25.6</ele>
        <time>2018-09-25T20:14:42.819Z</time>
      </trkpt>
      <trkpt lat="43.45039" lon="3.53005">
        <ele>25.6</ele>
        <time>2018-09-25T20:14:43.819Z</time>
      </trkpt>
      <trkpt lat="43.45036" lon="3.53011">
        <ele>25.6</ele>
        <time>2018-09-25T20:14:44.819Z</time>
      </trkpt>
      <trkpt lat="43.45033" lon="3.53015">
        <ele>25.6</ele>
        <time>2018-09-25T20:14:45.819Z</time>
      </trkpt>
      <trkpt lat="43.45031" lon="3.5302">
        <ele>25.6</ele>
        <time>2018-09-25T20:14:46.819Z</time>
      </trkpt>
      <trkpt lat="43.45029" lon="3.53025">
        <ele>25.6</ele>
        <time>2018-09-25T20:14:47.819Z</time>
      </trkpt>
      <trkpt lat="43.45027" lon="3.53029">
        <ele>25.6</ele>
        <time>2018-09-25T20:14:48.819Z</time>
      </trkpt>
      <trkpt lat="43.45025" lon="3.53032">
        <ele>25.6</ele>
        <time>2018-09-25T20:14:49.819Z</time>
      </trkpt>
      <trkpt lat="43.45023" lon="3.53036">
        <ele>25.6</ele>
        <time>2018-09-25T20:14:50.819Z</time>
      </trkpt>
      <trkpt lat="43.45021" lon="3.5304">
        <ele>25.6</ele>
        <time>2018-09-25T20:14:51.819Z</time>
      </trkpt>
      <trkpt lat="43.45019" lon="3.53044">
        <ele>25.6</ele>
        <time>2018-09-25T20:14:52.819Z</time>
      </trkpt>
      <trkpt lat="43.45018" lon="3.53047">
        <ele>25.6</ele>
        <time>2018-09-25T20:14:53.819Z</time>
      </trkpt>
      <trkpt lat="43.45015" lon="3.53051">
        <ele>25.6</ele>
        <time>2018-09-25T20:14:54.819Z</time>
      </trkpt>
      <trkpt lat="43.45013" lon="3.53055">
        <ele>25.6</ele>
        <time>2018-09-25T20:14:55.819Z</time>
      </trkpt>
      <trkpt lat="43.45011" lon="3.5306">
        <ele>25.6</ele>
        <time>2018-09-25T20:14:56.819Z</time>
      </trkpt>
      <trkpt lat="43.45009" lon="3.53066">
        <ele>25.5</ele>
        <time>2018-09-25T20:14:57.819Z</time>
      </trkpt>
      <trkpt lat="43.45009" lon="3.53072">
        <ele>25.5</ele>
        <time>2018-09-25T20:14:58.819Z</time>
      </trkpt>
      <trkpt lat="43.4501" lon="3.53078">
        <ele>25.5</ele>
        <time>2018-09-25T20:14:59.819Z</time>
      </trkpt>
      <trkpt lat="43.45012" lon="3.53083">
        <ele>25.5</ele>
        <time>2018-09-25T20:15:00.819Z</time>
      </trkpt>
      <trkpt lat="43.45014" lon="3.53088">
        <ele>25.5</ele>
        <time>2018-09-25T20:15:01.819Z</time>
      </trkpt>
      <trkpt lat="43.45016" lon="3.53093">
        <ele>25.5</ele>
        <time>2018-09-25T20:15:02.819Z</time>
      </trkpt>
      <trkpt lat="43.45018" lon="3.53097">
        <ele>25.5</ele>
        <time>2018-09-25T20:15:03.819Z</time>
      </trkpt>
      <trkpt lat="43.4502" lon="3.53102">
        <ele>25.5</ele>
        <time>2018-09-25T20:15:04.819Z</time>
      </trkpt>
      <trkpt lat="43.45022" lon="3.53107">
        <ele>25.5</ele>
        <time>2018-09-25T20:15:05.819Z</time>
      </trkpt>
      <trkpt lat="43.45024" lon="3.53113">
        <ele>25.4</ele>
        <time>2018-09-25T20:15:06.819Z</time>
      </trkpt>
      <trkpt lat="43.45027" lon="3.53119">
        <ele>25.4</ele>
        <time>2018-09-25T20:15:07.819Z</time>
      </trkpt>
      <trkpt lat="43.45029" lon="3.53126">
        <ele>25.4</ele>
        <time>2018-09-25T20:15:08.819Z</time>
      </trkpt>
      <trkpt lat="43.45029" lon="3.53133">
        <ele>25.4</ele>
        <time>2018-09-25T20:15:09.819Z</time>
      </trkpt>
      <trkpt lat="43.45029" lon="3.5314">
        <ele>25.4</ele>
        <time>2018-09-25T20:15:10.819Z</time>
      </trkpt>
      <trkpt lat="43.45026" lon="3.53147">
        <ele>25.4</ele>
        <time>2018-09-25T20:15:11.819Z</time>
      </trkpt>
      <trkpt lat="43.45023" lon="3.53152">
        <ele>25.4</ele>
        <time>2018-09-25T20:15:12.819Z</time>
      </trkpt>
      <trkpt lat="43.45019" lon="3.53157">
        <ele>25.4</ele>
        <time>2018-09-25T20:15:13.819Z</time>
      </trkpt>
      <trkpt lat="43.45016" lon="3.53162">
        <ele>25.3</ele>
        <time>2018-09-25T20:15:14.819Z</time>
      </trkpt>
      <trkpt lat="43.45013" lon="3.53166">
        <ele>25.3</ele>
        <time>2018-09-25T20:15:15.819Z</time>
      </trkpt>
      <trkpt lat="43.4501" lon="3.53169">
        <ele>25.3</ele>
        <time>2018-09-25T20:15:16.819Z</time>
      </trkpt>
      <trkpt lat="43.45006" lon="3.53174">
        <ele>25.3</ele>
        <time>2018-09-25T20:15:17.819Z</time>
      </trkpt>
      <trkpt lat="43.45003" lon="3.53178">
        <ele>25.3</ele>
        <time>2018-09-25T20:15:18.819Z</time>
      </trkpt>
      <trkpt lat="43.44999" lon="3.53183">
        <ele>25.3</ele>
        <time>2018-09-25T20:15:19.819Z</time>
      </trkpt>
      <trkpt lat="43.44996" lon="3.53187">
        <ele>25.3</ele>
        <time>2018-09-25T20:15:20.819Z</time>
      </trkpt>
      <trkpt lat="43.44992" lon="3.53191">
        <ele>25.3</ele>
        <time>2018-09-25T20:15:21.819Z</time>
      </trkpt>
      <trkpt lat="43.44988" lon="3.53195">
        <ele>25.3</ele>
        <time>2018-09-25T20:15:22.819Z</time>
      </trkpt>
      <trkpt lat="43.44985" lon="3.53199">
        <ele>25.3</ele>
        <time>2018-09-25T20:15:23.819Z</time>
      </trkpt>
      <trkpt lat="43.44981" lon="3.53204">
        <ele>25.3</ele>
        <time>2018-09-25T20:15:24.819Z</time>
      </trkpt>
      <trkpt lat="43.44978" lon="3.53208">
        <ele>25.3</ele>
        <time>2018-09-25T20:15:25.819Z</time>
      </trkpt>
      <trkpt lat="43.44974" lon="3.53212">
        <ele>25.3</ele>
        <time>2018-09-25T20:15:26.819Z</time>
      </trkpt>
      <trkpt lat="43.44971" lon="3.53216">
        <ele>25.3</ele>
        <time>2018-09-25T20:15:27.819Z</time>
      </trkpt>
      <trkpt lat="43.44967" lon="3.5322">
        <ele>25.3</ele>
        <time>2018-09-25T20:15:28.819Z</time>
      </trkpt>
      <trkpt lat="43.44963" lon="3.53225">
        <ele>25.3</ele>
        <time>2018-09-25T20:15:29.819Z</time>
      </trkpt>
      <trkpt lat="43.4496" lon="3.53229">
        <ele>25.3</ele>
        <time>2018-09-25T20:15:30.819Z</time>
      </trkpt>
      <trkpt lat="43.44956" lon="3.53233">
        <ele>25.3</ele>
        <time>2018-09-25T20:15:31.819Z</time>
      </trkpt>
      <trkpt lat="43.44952" lon="3.53237">
        <ele>25.3</ele>
        <time>2018-09-25T20:15:32.819Z</time>
      </trkpt>
      <trkpt lat="43.44949" lon="3.53242">
        <ele>25.3</ele>
        <time>2018-09-25T20:15:33.819Z</time>
      </trkpt>
      <trkpt lat="43.44944" lon="3.53246">
        <ele>25.3</ele>
        <time>2018-09-25T20:15:34.819Z</time>
      </trkpt>
      <trkpt lat="43.4494" lon="3.5325">
        <ele>25.3</ele>
        <time>2018-09-25T20:15:35.819Z</time>
      </trkpt>
      <trkpt lat="43.44936" lon="3.53255">
        <ele>25.3</ele>
        <time>2018-09-25T20:15:36.819Z</time>
      </trkpt>
      <trkpt lat="43.44932" lon="3.53259">
        <ele>25.3</ele>
        <time>2018-09-25T20:15:37.819Z</time>
      </trkpt>
      <trkpt lat="43.44928" lon="3.53264">
        <ele>25.2</ele>
        <time>2018-09-25T20:15:38.819Z</time>
      </trkpt>
      <trkpt lat="43.44924" lon="3.53268">
        <ele>25.2</ele>
        <time>2018-09-25T20:15:39.819Z</time>
      </trkpt>
      <trkpt lat="43.4492" lon="3.53272">
        <ele>25.2</ele>
        <time>2018-09-25T20:15:40.819Z</time>
      </trkpt>
      <trkpt lat="43.44917" lon="3.53277">
        <ele>25.2</ele>
        <time>2018-09-25T20:15:41.819Z</time>
      </trkpt>
      <trkpt lat="43.44913" lon="3.53281">
        <ele>25.2</ele>
        <time>2018-09-25T20:15:42.819Z</time>
      </trkpt>
      <trkpt lat="43.44909" lon="3.53286">
        <ele>25.2</ele>
        <time>2018-09-25T20:15:43.819Z</time>
      </trkpt>
      <trkpt lat="43.44906" lon="3.5329">
        <ele>25.2</ele>
        <time>2018-09-25T20:15:44.819Z</time>
      </trkpt>
      <trkpt lat="43.44902" lon="3.53294">
        <ele>25.2</ele>
        <time>2018-09-25T20:15:45.819Z</time>
      </trkpt>
      <trkpt lat="43.44898" lon="3.53298">
        <ele>25.2</ele>
        <time>2018-09-25T20:15:46.819Z</time>
      </trkpt>
      <trkpt lat="43.44894" lon="3.53303">
        <ele>25.2</ele>
        <time>2018-09-25T20:15:47.819Z</time>
      </trkpt>
      <trkpt lat="43.4489" lon="3.53307">
        <ele>25.2</ele>
        <time>2018-09-25T20:15:48.819Z</time>
      </trkpt>
      <trkpt lat="43.44886" lon="3.53311">
        <ele>25.2</ele>
        <time>2018-09-25T20:15:49.819Z</time>
      </trkpt>
      <trkpt lat="43.44883" lon="3.53315">
        <ele>25.2</ele>
        <time>2018-09-25T20:15:50.819Z</time>
      </trkpt>
      <trkpt lat="43.44879" lon="3.53319">
        <ele>25.2</ele>
        <time>2018-09-25T20:15:51.819Z</time>
      </trkpt>
      <trkpt lat="43.44876" lon="3.53324">
        <ele>25.2</ele>
        <time>2018-09-25T20:15:52.819Z</time>
      </trkpt>
      <trkpt lat="43.44873" lon="3.53328">
        <ele>25.2</ele>
        <time>2018-09-25T20:15:53.819Z</time>
      </trkpt>
      <trkpt lat="43.4487" lon="3.53331">
        <ele>25.2</ele>
        <time>2018-09-25T20:15:54.819Z</time>
      </trkpt>
      <trkpt lat="43.44867" lon="3.53335">
        <ele>25.2</ele>
        <time>2018-09-25T20:15:55.819Z</time>
      </trkpt>
      <trkpt lat="43.44864" lon="3.53338">
        <ele>25.2</ele>
        <time>2018-09-25T20:15:56.819Z</time>
      </trkpt>
      <trkpt lat="43.4486" lon="3.53342">
        <ele>25.2</ele>
        <time>2018-09-25T20:15:57.819Z</time>
      </trkpt>
      <trkpt lat="43.44857" lon="3.53345">
        <ele>25.2</ele>
        <time>2018-09-25T20:15:58.819Z</time>
      </trkpt>
      <trkpt lat="43.44854" lon="3.53348">
        <ele>25.2</ele>
        <time>2018-09-25T20:15:59.819Z</time>
      </trkpt>
      <trkpt lat="43.44851" lon="3.53352">
        <ele>25.2</ele>
        <time>2018-09-25T20:16:00.819Z</time>
      </trkpt>
      <trkpt lat="43.44848" lon="3.53356">
        <ele>25.2</ele>
        <time>2018-09-25T20:16:01.819Z</time>
      </trkpt>
      <trkpt lat="43.44845" lon="3.53359">
        <ele>25.1</ele>
        <time>2018-09-25T20:16:02.819Z</time>
      </trkpt>
      <trkpt lat="43.44841" lon="3.53363">
        <ele>25.1</ele>
        <time>2018-09-25T20:16:03.819Z</time>
      </trkpt>
      <trkpt lat="43.44837" lon="3.53367">
        <ele>25.1</ele>
        <time>2018-09-25T20:16:04.819Z</time>
      </trkpt>
      <trkpt lat="43.44834" lon="3.53371">
        <ele>25.1</ele>
        <time>2018-09-25T20:16:05.819Z</time>
      </trkpt>
      <trkpt lat="43.4483" lon="3.53375">
        <ele>25.1</ele>
        <time>2018-09-25T20:16:06.819Z</time>
      </trkpt>
      <trkpt lat="43.44826" lon="3.5338">
        <ele>25.1</ele>
        <time>2018-09-25T20:16:07.819Z</time>
      </trkpt>
      <trkpt lat="43.44822" lon="3.53384">
        <ele>25.1</ele>
        <time>2018-09-25T20:16:08.819Z</time>
      </trkpt>
      <trkpt lat="43.44819" lon="3.53388">
        <ele>25.1</ele>
        <time>2018-09-25T20:16:09.819Z</time>
      </trkpt>
      <trkpt lat="43.44814" lon="3.53393">
        <ele>25.1</ele>
        <time>2018-09-25T20:16:10.819Z</time>
      </trkpt>
      <trkpt lat="43.44811" lon="3.53397">
        <ele>25.1</ele>
        <time>2018-09-25T20:16:11.819Z</time>
      </trkpt>
      <trkpt lat="43.44807" lon="3.53402">
        <ele>25.1</ele>
        <time>2018-09-25T20:16:12.819Z</time>
      </trkpt>
      <trkpt lat="43.44803" lon="3.53407">
        <ele>25.1</ele>
        <time>2018-09-25T20:16:13.819Z</time>
      </trkpt>
      <trkpt lat="43.44799" lon="3.53411">
        <ele>25.1</ele>
        <time>2018-09-25T20:16:14.819Z</time>
      </trkpt>
      <trkpt lat="43.44795" lon="3.53416">
        <ele>25.1</ele>
        <time>2018-09-25T20:16:15.819Z</time>
      </trkpt>
      <trkpt lat="43.44791" lon="3.5342">
        <ele>25.1</ele>
        <time>2018-09-25T20:16:16.819Z</time>
      </trkpt>
      <trkpt lat="43.44787" lon="3.53424">
        <ele>25.1</ele>
        <time>2018-09-25T20:16:17.819Z</time>
      </trkpt>
      <trkpt lat="43.44783" lon="3.53429">
        <ele>25.1</ele>
        <time>2018-09-25T20:16:18.819Z</time>
      </trkpt>
      <trkpt lat="43.44779" lon="3.53433">
        <ele>25.1</ele>
        <time>2018-09-25T20:16:19.819Z</time>
      </trkpt>
      <trkpt lat="43.44775" lon="3.53437">
        <ele>25.1</ele>
        <time>2018-09-25T20:16:20.819Z</time>
      </trkpt>
      <trkpt lat="43.44771" lon="3.53441">
        <ele>25.1</ele>
        <time>2018-09-25T20:16:21.819Z</time>
      </trkpt>
      <trkpt lat="43.44767" lon="3.53445">
        <ele>25.1</ele>
        <time>2018-09-25T20:16:22.819Z</time>
      </trkpt>
      <trkpt lat="43.44764" lon="3.53449">
        <ele>25.1</ele>
        <time>2018-09-25T20:16:23.819Z</time>
      </trkpt>
      <trkpt lat="43.44761" lon="3.53453">
        <ele>25.1</ele>
        <time>2018-09-25T20:16:24.819Z</time>
      </trkpt>
      <trkpt lat="43.44758" lon="3.53456">
        <ele>25.1</ele>
        <time>2018-09-25T20:16:25.819Z</time>
      </trkpt>
      <trkpt lat="43.44754" lon="3.5346">
        <ele>25.1</ele>
        <time>2018-09-25T20:16:26.819Z</time>
      </trkpt>
      <trkpt lat="43.44752" lon="3.53464">
        <ele>25.1</ele>
        <time>2018-09-25T20:16:27.819Z</time>
      </trkpt>
      <trkpt lat="43.44749" lon="3.53467">
        <ele>25.1</ele>
        <time>2018-09-25T20:16:28.819Z</time>
      </trkpt>
      <trkpt lat="43.44747" lon="3.5347">
        <ele>25.1</ele>
        <time>2018-09-25T20:16:29.819Z</time>
      </trkpt>
      <trkpt lat="43.44744" lon="3.53472">
        <ele>25.1</ele>
        <time>2018-09-25T20:16:30.819Z</time>
      </trkpt>
      <trkpt lat="43.44741" lon="3.53473">
        <ele>25.1</ele>
        <time>2018-09-25T20:16:31.819Z</time>
      </trkpt>
      <trkpt lat="43.44737" lon="3.53471">
        <ele>25.2</ele>
        <time>2018-09-25T20:16:32.819Z</time>
      </trkpt>
      <trkpt lat="43.44733" lon="3.53469">
        <ele>25.2</ele>
        <time>2018-09-25T20:16:33.819Z</time>
      </trkpt>
      <trkpt lat="43.4473" lon="3.53467">
        <ele>25.2</ele>
        <time>2018-09-25T20:16:34.819Z</time>
      </trkpt>
      <trkpt lat="43.44727" lon="3.53465">
        <ele>25.2</ele>
        <time>2018-09-25T20:16:35.819Z</time>
      </trkpt>
      <trkpt lat="43.44724" lon="3.53462">
        <ele>25.1</ele>
        <time>2018-09-25T20:16:36.819Z</time>
      </trkpt>
      <trkpt lat="43.4472" lon="3.5346">
        <ele>25.1</ele>
        <time>2018-09-25T20:16:37.819Z</time>
      </trkpt>
      <trkpt lat="43.44717" lon="3.53458">
        <ele>25</ele>
        <time>2018-09-25T20:16:38.819Z</time>
      </trkpt>
      <trkpt lat="43.44714" lon="3.53457">
        <ele>25</ele>
        <time>2018-09-25T20:16:39.819Z</time>
      </trkpt>
      <trkpt lat="43.4471" lon="3.53455">
        <ele>25</ele>
        <time>2018-09-25T20:16:40.819Z</time>
      </trkpt>
      <trkpt lat="43.44707" lon="3.53454">
        <ele>25</ele>
        <time>2018-09-25T20:16:41.819Z</time>
      </trkpt>
      <trkpt lat="43.44703" lon="3.53454">
        <ele>25</ele>
        <time>2018-09-25T20:16:42.819Z</time>
      </trkpt>
      <trkpt lat="43.44699" lon="3.53453">
        <ele>25.1</ele>
        <time>2018-09-25T20:16:43.819Z</time>
      </trkpt>
      <trkpt lat="43.44695" lon="3.53453">
        <ele>25.1</ele>
        <time>2018-09-25T20:16:44.819Z</time>
      </trkpt>
      <trkpt lat="43.44692" lon="3.53454">
        <ele>25.1</ele>
        <time>2018-09-25T20:16:45.819Z</time>
      </trkpt>
      <trkpt lat="43.44687" lon="3.53456">
        <ele>25.4</ele>
        <time>2018-09-25T20:16:46.819Z</time>
      </trkpt>
      <trkpt lat="43.44682" lon="3.53455">
        <ele>25.3</ele>
        <time>2018-09-25T20:16:47.819Z</time>
      </trkpt>
      <trkpt lat="43.44676" lon="3.53453">
        <ele>25.5</ele>
        <time>2018-09-25T20:16:48.819Z</time>
      </trkpt>
      <trkpt lat="43.4467" lon="3.53456">
        <ele>25.8</ele>
        <time>2018-09-25T20:16:49.819Z</time>
      </trkpt>
      <trkpt lat="43.44665" lon="3.53458">
        <ele>25.9</ele>
        <time>2018-09-25T20:16:50.819Z</time>
      </trkpt>
      <trkpt lat="43.44659" lon="3.53461">
        <ele>26.1</ele>
        <time>2018-09-25T20:16:51.819Z</time>
      </trkpt>
      <trkpt lat="43.44652" lon="3.53458">
        <ele>26</ele>
        <time>2018-09-25T20:16:52.819Z</time>
      </trkpt>
      <trkpt lat="43.44648" lon="3.53455">
        <ele>25.9</ele>
        <time>2018-09-25T20:16:53.819Z</time>
      </trkpt>
      <trkpt lat="43.44645" lon="3.53455">
        <ele>25.7</ele>
        <time>2018-09-25T20:16:54.819Z</time>
      </trkpt>
      <trkpt lat="43.4464" lon="3.53453">
        <ele>25.5</ele>
        <time>2018-09-25T20:16:55.819Z</time>
      </trkpt>
      <trkpt lat="43.44635" lon="3.53452">
        <ele>25.4</ele>
        <time>2018-09-25T20:16:56.819Z</time>
      </trkpt>
      <trkpt lat="43.44627" lon="3.53452">
        <ele>25.1</ele>
        <time>2018-09-25T20:16:57.819Z</time>
      </trkpt>
      <trkpt lat="43.44623" lon="3.53451">
        <ele>25</ele>
        <time>2018-09-25T20:16:58.819Z</time>
      </trkpt>
      <trkpt lat="43.44619" lon="3.53451">
        <ele>24.7</ele>
        <time>2018-09-25T20:16:59.819Z</time>
      </trkpt>
      <trkpt lat="43.44614" lon="3.5345">
        <ele>24.7</ele>
        <time>2018-09-25T20:17:00.819Z</time>
      </trkpt>
      <trkpt lat="43.44609" lon="3.53451">
        <ele>24.9</ele>
        <time>2018-09-25T20:17:01.819Z</time>
      </trkpt>
      <trkpt lat="43.44603" lon="3.53452">
        <ele>24.9</ele>
        <time>2018-09-25T20:17:02.819Z</time>
      </trkpt>
      <trkpt lat="43.44597" lon="3.53452">
        <ele>25.1</ele>
        <time>2018-09-25T20:17:03.819Z</time>
      </trkpt>
      <trkpt lat="43.4459" lon="3.53452">
        <ele>25.3</ele>
        <time>2018-09-25T20:17:04.819Z</time>
      </trkpt>
      <trkpt lat="43.44583" lon="3.53452">
        <ele>25.6</ele>
        <time>2018-09-25T20:17:05.819Z</time>
      </trkpt>
      <trkpt lat="43.44578" lon="3.53453">
        <ele>26</ele>
        <time>2018-09-25T20:17:06.819Z</time>
      </trkpt>
      <trkpt lat="43.44574" lon="3.53454">
        <ele>26.1</ele>
        <time>2018-09-25T20:17:07.819Z</time>
      </trkpt>
      <trkpt lat="43.44568" lon="3.53455">
        <ele>26.4</ele>
        <time>2018-09-25T20:17:08.819Z</time>
      </trkpt>
      <trkpt lat="43.44563" lon="3.53456">
        <ele>26.7</ele>
        <time>2018-09-25T20:17:09.819Z</time>
      </trkpt>
      <trkpt lat="43.44558" lon="3.53458">
        <ele>27</ele>
        <time>2018-09-25T20:17:10.819Z</time>
      </trkpt>
      <trkpt lat="43.44553" lon="3.53458">
        <ele>27.2</ele>
        <time>2018-09-25T20:17:11.819Z</time>
      </trkpt>
      <trkpt lat="43.44548" lon="3.53458">
        <ele>27.3</ele>
        <time>2018-09-25T20:17:12.819Z</time>
      </trkpt>
      <trkpt lat="43.44543" lon="3.53458">
        <ele>27.5</ele>
        <time>2018-09-25T20:17:13.819Z</time>
      </trkpt>
      <trkpt lat="43.44538" lon="3.53459">
        <ele>27.6</ele>
        <time>2018-09-25T20:17:14.819Z</time>
      </trkpt>
      <trkpt lat="43.44533" lon="3.53458">
        <ele>27.9</ele>
        <time>2018-09-25T20:17:15.819Z</time>
      </trkpt>
      <trkpt lat="43.44528" lon="3.53457">
        <ele>28.2</ele>
        <time>2018-09-25T20:17:16.819Z</time>
      </trkpt>
      <trkpt lat="43.44523" lon="3.53457">
        <ele>28.3</ele>
        <time>2018-09-25T20:17:17.819Z</time>
      </trkpt>
      <trkpt lat="43.44518" lon="3.53455">
        <ele>28.4</ele>
        <time>2018-09-25T20:17:18.819Z</time>
      </trkpt>
      <trkpt lat="43.44512" lon="3.53455">
        <ele>28.1</ele>
        <time>2018-09-25T20:17:19.819Z</time>
      </trkpt>
      <trkpt lat="43.44506" lon="3.53455">
        <ele>28</ele>
        <time>2018-09-25T20:17:20.819Z</time>
      </trkpt>
      <trkpt lat="43.44502" lon="3.53456">
        <ele>28.1</ele>
        <time>2018-09-25T20:17:21.819Z</time>
      </trkpt>
      <trkpt lat="43.44498" lon="3.53457">
        <ele>27.9</ele>
        <time>2018-09-25T20:17:22.819Z</time>
      </trkpt>
      <trkpt lat="43.44494" lon="3.53456">
        <ele>27.8</ele>
        <time>2018-09-25T20:17:23.819Z</time>
      </trkpt>
      <trkpt lat="43.44489" lon="3.53457">
        <ele>27.3</ele>
        <time>2018-09-25T20:17:24.819Z</time>
      </trkpt>
      <trkpt lat="43.44484" lon="3.53458">
        <ele>27</ele>
        <time>2018-09-25T20:17:25.819Z</time>
      </trkpt>
      <trkpt lat="43.44479" lon="3.53459">
        <ele>26.9</ele>
        <time>2018-09-25T20:17:26.819Z</time>
      </trkpt>
      <trkpt lat="43.44473" lon="3.53458">
        <ele>26.7</ele>
        <time>2018-09-25T20:17:27.819Z</time>
      </trkpt>
      <trkpt lat="43.44468" lon="3.53459">
        <ele>26.5</ele>
        <time>2018-09-25T20:17:28.819Z</time>
      </trkpt>
      <trkpt lat="43.44463" lon="3.53459">
        <ele>26.4</ele>
        <time>2018-09-25T20:17:29.819Z</time>
      </trkpt>
      <trkpt lat="43.44458" lon="3.5346">
        <ele>26.5</ele>
        <time>2018-09-25T20:17:30.819Z</time>
      </trkpt>
      <trkpt lat="43.44451" lon="3.53461">
        <ele>26.3</ele>
        <time>2018-09-25T20:17:31.819Z</time>
      </trkpt>
      <trkpt lat="43.44445" lon="3.53463">
        <ele>26.1</ele>
        <time>2018-09-25T20:17:32.819Z</time>
      </trkpt>
      <trkpt lat="43.44441" lon="3.53463">
        <ele>25.9</ele>
        <time>2018-09-25T20:17:33.819Z</time>
      </trkpt>
      <trkpt lat="43.44435" lon="3.53464">
        <ele>25.7</ele>
        <time>2018-09-25T20:17:34.819Z</time>
      </trkpt>
      <trkpt lat="43.44429" lon="3.53464">
        <ele>25.9</ele>
        <time>2018-09-25T20:17:35.819Z</time>
      </trkpt>
      <trkpt lat="43.44423" lon="3.53465">
        <ele>25.7</ele>
        <time>2018-09-25T20:17:36.819Z</time>
      </trkpt>
      <trkpt lat="43.44417" lon="3.53465">
        <ele>25.6</ele>
        <time>2018-09-25T20:17:37.819Z</time>
      </trkpt>
      <trkpt lat="43.44412" lon="3.53465">
        <ele>25.5</ele>
        <time>2018-09-25T20:17:38.819Z</time>
      </trkpt>
      <trkpt lat="43.44407" lon="3.53466">
        <ele>25.4</ele>
        <time>2018-09-25T20:17:39.819Z</time>
      </trkpt>
      <trkpt lat="43.44401" lon="3.53467">
        <ele>25.3</ele>
        <time>2018-09-25T20:17:40.819Z</time>
      </trkpt>
      <trkpt lat="43.44397" lon="3.53467">
        <ele>25.2</ele>
        <time>2018-09-25T20:17:41.819Z</time>
      </trkpt>
      <trkpt lat="43.44393" lon="3.53468">
        <ele>25</ele>
        <time>2018-09-25T20:17:42.819Z</time>
      </trkpt>
      <trkpt lat="43.44388" lon="3.53468">
        <ele>24.9</ele>
        <time>2018-09-25T20:17:43.819Z</time>
      </trkpt>
      <trkpt lat="43.44384" lon="3.53468">
        <ele>24.8</ele>
        <time>2018-09-25T20:17:44.819Z</time>
      </trkpt>
      <trkpt lat="43.4438" lon="3.53468">
        <ele>24.6</ele>
        <time>2018-09-25T20:17:45.819Z</time>
      </trkpt>
      <trkpt lat="43.44376" lon="3.53468">
        <ele>24.4</ele>
        <time>2018-09-25T20:17:46.819Z</time>
      </trkpt>
      <trkpt lat="43.44372" lon="3.53468">
        <ele>24.1</ele>
        <time>2018-09-25T20:17:47.819Z</time>
      </trkpt>
      <trkpt lat="43.44368" lon="3.53471">
        <ele>23.9</ele>
        <time>2018-09-25T20:17:48.819Z</time>
      </trkpt>
      <trkpt lat="43.44364" lon="3.53475">
        <ele>23.9</ele>
        <time>2018-09-25T20:17:49.819Z</time>
      </trkpt>
      <trkpt lat="43.44361" lon="3.53481">
        <ele>23.9</ele>
        <time>2018-09-25T20:17:50.819Z</time>
      </trkpt>
      <trkpt lat="43.4436" lon="3.53485">
        <ele>23.9</ele>
        <time>2018-09-25T20:17:51.819Z</time>
      </trkpt>
      <trkpt lat="43.44357" lon="3.53489">
        <ele>24.1</ele>
        <time>2018-09-25T20:17:52.819Z</time>
      </trkpt>
      <trkpt lat="43.44353" lon="3.53494">
        <ele>24.1</ele>
        <time>2018-09-25T20:17:53.819Z</time>
      </trkpt>
      <trkpt lat="43.4435" lon="3.53499">
        <ele>24.1</ele>
        <time>2018-09-25T20:17:54.819Z</time>
      </trkpt>
      <trkpt lat="43.44347" lon="3.53504">
        <ele>24.1</ele>
        <time>2018-09-25T20:17:55.819Z</time>
      </trkpt>
      <trkpt lat="43.44343" lon="3.53509">
        <ele>24.1</ele>
        <time>2018-09-25T20:17:56.819Z</time>
      </trkpt>
      <trkpt lat="43.44339" lon="3.53514">
        <ele>24.1</ele>
        <time>2018-09-25T20:17:57.819Z</time>
      </trkpt>
      <trkpt lat="43.44335" lon="3.53519">
        <ele>23.9</ele>
        <time>2018-09-25T20:17:58.819Z</time>
      </trkpt>
      <trkpt lat="43.44333" lon="3.53523">
        <ele>24</ele>
        <time>2018-09-25T20:17:59.819Z</time>
      </trkpt>
      <trkpt lat="43.44329" lon="3.53528">
        <ele>24</ele>
        <time>2018-09-25T20:18:00.819Z</time>
      </trkpt>
      <trkpt lat="43.44326" lon="3.53532">
        <ele>23.7</ele>
        <time>2018-09-25T20:18:01.819Z</time>
      </trkpt>
      <trkpt lat="43.44322" lon="3.53537">
        <ele>23.7</ele>
        <time>2018-09-25T20:18:02.819Z</time>
      </trkpt>
      <trkpt lat="43.44319" lon="3.53541">
        <ele>23.7</ele>
        <time>2018-09-25T20:18:03.819Z</time>
      </trkpt>
      <trkpt lat="43.44315" lon="3.53547">
        <ele>23.6</ele>
        <time>2018-09-25T20:18:04.819Z</time>
      </trkpt>
      <trkpt lat="43.44312" lon="3.53552">
        <ele>23.5</ele>
        <time>2018-09-25T20:18:05.819Z</time>
      </trkpt>
      <trkpt lat="43.44308" lon="3.53557">
        <ele>23.5</ele>
        <time>2018-09-25T20:18:06.819Z</time>
      </trkpt>
      <trkpt lat="43.44304" lon="3.53562">
        <ele>23.3</ele>
        <time>2018-09-25T20:18:07.819Z</time>
      </trkpt>
      <trkpt lat="43.443" lon="3.53567">
        <ele>23.2</ele>
        <time>2018-09-25T20:18:08.819Z</time>
      </trkpt>
      <trkpt lat="43.44296" lon="3.53571">
        <ele>23.1</ele>
        <time>2018-09-25T20:18:09.819Z</time>
      </trkpt>
      <trkpt lat="43.44292" lon="3.53576">
        <ele>22.9</ele>
        <time>2018-09-25T20:18:10.819Z</time>
      </trkpt>
      <trkpt lat="43.44287" lon="3.53582">
        <ele>22.8</ele>
        <time>2018-09-25T20:18:11.819Z</time>
      </trkpt>
      <trkpt lat="43.44283" lon="3.53586">
        <ele>22.6</ele>
        <time>2018-09-25T20:18:12.819Z</time>
      </trkpt>
      <trkpt lat="43.44278" lon="3.53591">
        <ele>22.3</ele>
        <time>2018-09-25T20:18:13.819Z</time>
      </trkpt>
      <trkpt lat="43.44275" lon="3.53595">
        <ele>22.1</ele>
        <time>2018-09-25T20:18:14.819Z</time>
      </trkpt>
      <trkpt lat="43.44271" lon="3.536">
        <ele>22</ele>
        <time>2018-09-25T20:18:15.819Z</time>
      </trkpt>
      <trkpt lat="43.44266" lon="3.53605">
        <ele>21.8</ele>
        <time>2018-09-25T20:18:16.819Z</time>
      </trkpt>
      <trkpt lat="43.44262" lon="3.53609">
        <ele>21.7</ele>
        <time>2018-09-25T20:18:17.819Z</time>
      </trkpt>
      <trkpt lat="43.44258" lon="3.53613">
        <ele>21.6</ele>
        <time>2018-09-25T20:18:18.819Z</time>
      </trkpt>
      <trkpt lat="43.44254" lon="3.53618">
        <ele>21.4</ele>
        <time>2018-09-25T20:18:19.819Z</time>
      </trkpt>
      <trkpt lat="43.4425" lon="3.53622">
        <ele>21.2</ele>
        <time>2018-09-25T20:18:20.819Z</time>
      </trkpt>
      <trkpt lat="43.44246" lon="3.53627">
        <ele>21.2</ele>
        <time>2018-09-25T20:18:21.819Z</time>
      </trkpt>
      <trkpt lat="43.44242" lon="3.53632">
        <ele>21.1</ele>
        <time>2018-09-25T20:18:22.819Z</time>
      </trkpt>
      <trkpt lat="43.44238" lon="3.53636">
        <ele>20.9</ele>
        <time>2018-09-25T20:18:23.819Z</time>
      </trkpt>
      <trkpt lat="43.44234" lon="3.53641">
        <ele>20.8</ele>
        <time>2018-09-25T20:18:24.819Z</time>
      </trkpt>
      <trkpt lat="43.4423" lon="3.53645">
        <ele>20.8</ele>
        <time>2018-09-25T20:18:25.819Z</time>
      </trkpt>
      <trkpt lat="43.44226" lon="3.5365">
        <ele>20.6</ele>
        <time>2018-09-25T20:18:26.819Z</time>
      </trkpt>
      <trkpt lat="43.44222" lon="3.53655">
        <ele>20.5</ele>
        <time>2018-09-25T20:18:27.819Z</time>
      </trkpt>
      <trkpt lat="43.44218" lon="3.53659">
        <ele>20.4</ele>
        <time>2018-09-25T20:18:28.819Z</time>
      </trkpt>
      <trkpt lat="43.44214" lon="3.53664">
        <ele>20.2</ele>
        <time>2018-09-25T20:18:29.819Z</time>
      </trkpt>
      <trkpt lat="43.4421" lon="3.53668">
        <ele>20.1</ele>
        <time>2018-09-25T20:18:30.819Z</time>
      </trkpt>
      <trkpt lat="43.44206" lon="3.53673">
        <ele>20</ele>
        <time>2018-09-25T20:18:31.819Z</time>
      </trkpt>
      <trkpt lat="43.44202" lon="3.53678">
        <ele>20</ele>
        <time>2018-09-25T20:18:32.819Z</time>
      </trkpt>
      <trkpt lat="43.44198" lon="3.53683">
        <ele>19.9</ele>
        <time>2018-09-25T20:18:33.819Z</time>
      </trkpt>
      <trkpt lat="43.44194" lon="3.53687">
        <ele>19.8</ele>
        <time>2018-09-25T20:18:34.819Z</time>
      </trkpt>
      <trkpt lat="43.4419" lon="3.53692">
        <ele>19.8</ele>
        <time>2018-09-25T20:18:35.819Z</time>
      </trkpt>
      <trkpt lat="43.44186" lon="3.53697">
        <ele>19.6</ele>
        <time>2018-09-25T20:18:36.819Z</time>
      </trkpt>
      <trkpt lat="43.44182" lon="3.53702">
        <ele>19.6</ele>
        <time>2018-09-25T20:18:37.819Z</time>
      </trkpt>
      <trkpt lat="43.44177" lon="3.53707">
        <ele>19.5</ele>
        <time>2018-09-25T20:18:38.819Z</time>
      </trkpt>
      <trkpt lat="43.44173" lon="3.53712">
        <ele>19.5</ele>
        <time>2018-09-25T20:18:39.819Z</time>
      </trkpt>
      <trkpt lat="43.44169" lon="3.53716">
        <ele>19.4</ele>
        <time>2018-09-25T20:18:40.819Z</time>
      </trkpt>
      <trkpt lat="43.44165" lon="3.53721">
        <ele>19.5</ele>
        <time>2018-09-25T20:18:41.819Z</time>
      </trkpt>
      <trkpt lat="43.44161" lon="3.53725">
        <ele>19.6</ele>
        <time>2018-09-25T20:18:42.819Z</time>
      </trkpt>
      <trkpt lat="43.44157" lon="3.53729">
        <ele>19.7</ele>
        <time>2018-09-25T20:18:43.819Z</time>
      </trkpt>
      <trkpt lat="43.44153" lon="3.53734">
        <ele>19.9</ele>
        <time>2018-09-25T20:18:44.819Z</time>
      </trkpt>
      <trkpt lat="43.44148" lon="3.53738">
        <ele>20</ele>
        <time>2018-09-25T20:18:45.819Z</time>
      </trkpt>
      <trkpt lat="43.44143" lon="3.53742">
        <ele>20.1</ele>
        <time>2018-09-25T20:18:46.819Z</time>
      </trkpt>
      <trkpt lat="43.44139" lon="3.53746">
        <ele>20.2</ele>
        <time>2018-09-25T20:18:47.819Z</time>
      </trkpt>
      <trkpt lat="43.44135" lon="3.5375">
        <ele>20.4</ele>
        <time>2018-09-25T20:18:48.819Z</time>
      </trkpt>
      <trkpt lat="43.44131" lon="3.53754">
        <ele>20.5</ele>
        <time>2018-09-25T20:18:49.819Z</time>
      </trkpt>
      <trkpt lat="43.44127" lon="3.53758">
        <ele>20.6</ele>
        <time>2018-09-25T20:18:50.819Z</time>
      </trkpt>
      <trkpt lat="43.44122" lon="3.53762">
        <ele>20.7</ele>
        <time>2018-09-25T20:18:51.819Z</time>
      </trkpt>
      <trkpt lat="43.44116" lon="3.53765">
        <ele>20.8</ele>
        <time>2018-09-25T20:18:52.819Z</time>
      </trkpt>
      <trkpt lat="43.44112" lon="3.53769">
        <ele>20.9</ele>
        <time>2018-09-25T20:18:53.819Z</time>
      </trkpt>
      <trkpt lat="43.44108" lon="3.53772">
        <ele>21.1</ele>
        <time>2018-09-25T20:18:54.819Z</time>
      </trkpt>
      <trkpt lat="43.44104" lon="3.53775">
        <ele>21.1</ele>
        <time>2018-09-25T20:18:55.819Z</time>
      </trkpt>
      <trkpt lat="43.44099" lon="3.53778">
        <ele>21.1</ele>
        <time>2018-09-25T20:18:56.819Z</time>
      </trkpt>
      <trkpt lat="43.44093" lon="3.53782">
        <ele>21.2</ele>
        <time>2018-09-25T20:18:57.819Z</time>
      </trkpt>
      <trkpt lat="43.44088" lon="3.53787">
        <ele>21.2</ele>
        <time>2018-09-25T20:18:58.819Z</time>
      </trkpt>
      <trkpt lat="43.44082" lon="3.5379">
        <ele>21.1</ele>
        <time>2018-09-25T20:18:59.819Z</time>
      </trkpt>
      <trkpt lat="43.44077" lon="3.53794">
        <ele>21.2</ele>
        <time>2018-09-25T20:19:00.819Z</time>
      </trkpt>
      <trkpt lat="43.44073" lon="3.53797">
        <ele>21.1</ele>
        <time>2018-09-25T20:19:01.819Z</time>
      </trkpt>
      <trkpt lat="43.44067" lon="3.538">
        <ele>21</ele>
        <time>2018-09-25T20:19:02.819Z</time>
      </trkpt>
      <trkpt lat="43.44062" lon="3.53804">
        <ele>20.8</ele>
        <time>2018-09-25T20:19:03.819Z</time>
      </trkpt>
      <trkpt lat="43.44057" lon="3.53807">
        <ele>20.7</ele>
        <time>2018-09-25T20:19:04.819Z</time>
      </trkpt>
      <trkpt lat="43.44051" lon="3.53811">
        <ele>20.8</ele>
        <time>2018-09-25T20:19:05.819Z</time>
      </trkpt>
      <trkpt lat="43.44046" lon="3.53814">
        <ele>20.6</ele>
        <time>2018-09-25T20:19:06.819Z</time>
      </trkpt>
      <trkpt lat="43.4404" lon="3.53817">
        <ele>20.5</ele>
        <time>2018-09-25T20:19:07.819Z</time>
      </trkpt>
      <trkpt lat="43.44035" lon="3.5382">
        <ele>20.3</ele>
        <time>2018-09-25T20:19:08.819Z</time>
      </trkpt>
      <trkpt lat="43.44029" lon="3.53823">
        <ele>20.3</ele>
        <time>2018-09-25T20:19:09.819Z</time>
      </trkpt>
      <trkpt lat="43.44023" lon="3.53826">
        <ele>20.2</ele>
        <time>2018-09-25T20:19:10.819Z</time>
      </trkpt>
      <trkpt lat="43.44018" lon="3.53828">
        <ele>20.2</ele>
        <time>2018-09-25T20:19:11.819Z</time>
      </trkpt>
      <trkpt lat="43.44013" lon="3.53831">
        <ele>20</ele>
        <time>2018-09-25T20:19:12.819Z</time>
      </trkpt>
      <trkpt lat="43.44007" lon="3.53834">
        <ele>19.9</ele>
        <time>2018-09-25T20:19:13.819Z</time>
      </trkpt>
      <trkpt lat="43.44001" lon="3.53837">
        <ele>19.8</ele>
        <time>2018-09-25T20:19:14.819Z</time>
      </trkpt>
      <trkpt lat="43.43996" lon="3.5384">
        <ele>19.8</ele>
        <time>2018-09-25T20:19:15.819Z</time>
      </trkpt>
      <trkpt lat="43.43991" lon="3.53842">
        <ele>19.6</ele>
        <time>2018-09-25T20:19:16.819Z</time>
      </trkpt>
      <trkpt lat="43.43985" lon="3.53845">
        <ele>19.6</ele>
        <time>2018-09-25T20:19:17.819Z</time>
      </trkpt>
      <trkpt lat="43.43979" lon="3.53847">
        <ele>19.5</ele>
        <time>2018-09-25T20:19:18.819Z</time>
      </trkpt>
      <trkpt lat="43.43974" lon="3.5385">
        <ele>19.4</ele>
        <time>2018-09-25T20:19:19.819Z</time>
      </trkpt>
      <trkpt lat="43.43968" lon="3.53853">
        <ele>19.4</ele>
        <time>2018-09-25T20:19:20.819Z</time>
      </trkpt>
      <trkpt lat="43.43963" lon="3.53856">
        <ele>19.3</ele>
        <time>2018-09-25T20:19:21.819Z</time>
      </trkpt>
      <trkpt lat="43.43957" lon="3.53859">
        <ele>19.2</ele>
        <time>2018-09-25T20:19:22.819Z</time>
      </trkpt>
      <trkpt lat="43.43951" lon="3.53863">
        <ele>19.2</ele>
        <time>2018-09-25T20:19:23.819Z</time>
      </trkpt>
      <trkpt lat="43.43945" lon="3.53866">
        <ele>19</ele>
        <time>2018-09-25T20:19:24.819Z</time>
      </trkpt>
      <trkpt lat="43.4394" lon="3.53869">
        <ele>19</ele>
        <time>2018-09-25T20:19:25.819Z</time>
      </trkpt>
      <trkpt lat="43.43935" lon="3.53872">
        <ele>18.9</ele>
        <time>2018-09-25T20:19:26.819Z</time>
      </trkpt>
      <trkpt lat="43.4393" lon="3.53876">
        <ele>18.7</ele>
        <time>2018-09-25T20:19:27.819Z</time>
      </trkpt>
      <trkpt lat="43.43924" lon="3.53879">
        <ele>18.7</ele>
        <time>2018-09-25T20:19:28.819Z</time>
      </trkpt>
      <trkpt lat="43.43918" lon="3.53882">
        <ele>18.7</ele>
        <time>2018-09-25T20:19:29.819Z</time>
      </trkpt>
      <trkpt lat="43.43913" lon="3.53885">
        <ele>18.8</ele>
        <time>2018-09-25T20:19:30.819Z</time>
      </trkpt>
      <trkpt lat="43.43908" lon="3.53888">
        <ele>18.7</ele>
        <time>2018-09-25T20:19:31.819Z</time>
      </trkpt>
      <trkpt lat="43.43902" lon="3.53891">
        <ele>18.8</ele>
        <time>2018-09-25T20:19:32.819Z</time>
      </trkpt>
      <trkpt lat="43.43896" lon="3.53894">
        <ele>19</ele>
        <time>2018-09-25T20:19:33.819Z</time>
      </trkpt>
      <trkpt lat="43.4389" lon="3.53897">
        <ele>19.1</ele>
        <time>2018-09-25T20:19:34.819Z</time>
      </trkpt>
      <trkpt lat="43.43885" lon="3.539">
        <ele>19</ele>
        <time>2018-09-25T20:19:35.819Z</time>
      </trkpt>
      <trkpt lat="43.4388" lon="3.53903">
        <ele>19.2</ele>
        <time>2018-09-25T20:19:36.819Z</time>
      </trkpt>
      <trkpt lat="43.43875" lon="3.53906">
        <ele>19.4</ele>
        <time>2018-09-25T20:19:37.819Z</time>
      </trkpt>
      <trkpt lat="43.43869" lon="3.53909">
        <ele>19.4</ele>
        <time>2018-09-25T20:19:38.819Z</time>
      </trkpt>
      <trkpt lat="43.43864" lon="3.53913">
        <ele>19.6</ele>
        <time>2018-09-25T20:19:39.819Z</time>
      </trkpt>
      <trkpt lat="43.43858" lon="3.53916">
        <ele>19.8</ele>
        <time>2018-09-25T20:19:40.819Z</time>
      </trkpt>
      <trkpt lat="43.43853" lon="3.53919">
        <ele>20</ele>
        <time>2018-09-25T20:19:41.819Z</time>
      </trkpt>
      <trkpt lat="43.43848" lon="3.53922">
        <ele>19.9</ele>
        <time>2018-09-25T20:19:42.819Z</time>
      </trkpt>
      <trkpt lat="43.43842" lon="3.53925">
        <ele>20.1</ele>
        <time>2018-09-25T20:19:43.819Z</time>
      </trkpt>
      <trkpt lat="43.43837" lon="3.53928">
        <ele>20.3</ele>
        <time>2018-09-25T20:19:44.819Z</time>
      </trkpt>
      <trkpt lat="43.43831" lon="3.53931">
        <ele>20.3</ele>
        <time>2018-09-25T20:19:45.819Z</time>
      </trkpt>
      <trkpt lat="43.43826" lon="3.53933">
        <ele>20.5</ele>
        <time>2018-09-25T20:19:46.819Z</time>
      </trkpt>
      <trkpt lat="43.43822" lon="3.53935">
        <ele>20.5</ele>
        <time>2018-09-25T20:19:47.819Z</time>
      </trkpt>
      <trkpt lat="43.43816" lon="3.53938">
        <ele>20.7</ele>
        <time>2018-09-25T20:19:48.819Z</time>
      </trkpt>
      <trkpt lat="43.43811" lon="3.5394">
        <ele>20.5</ele>
        <time>2018-09-25T20:19:49.819Z</time>
      </trkpt>
      <trkpt lat="43.43807" lon="3.53943">
        <ele>20.8</ele>
        <time>2018-09-25T20:19:50.819Z</time>
      </trkpt>
      <trkpt lat="43.43804" lon="3.53946">
        <ele>21</ele>
        <time>2018-09-25T20:19:51.819Z</time>
      </trkpt>
      <trkpt lat="43.43801" lon="3.53948">
        <ele>20.8</ele>
        <time>2018-09-25T20:19:52.819Z</time>
      </trkpt>
      <trkpt lat="43.43798" lon="3.5395">
        <ele>21</ele>
        <time>2018-09-25T20:19:53.819Z</time>
      </trkpt>
      <trkpt lat="43.43793" lon="3.53954">
        <ele>21.1</ele>
        <time>2018-09-25T20:19:54.819Z</time>
      </trkpt>
      <trkpt lat="43.43788" lon="3.53957">
        <ele>21.2</ele>
        <time>2018-09-25T20:19:55.819Z</time>
      </trkpt>
      <trkpt lat="43.43781" lon="3.53962">
        <ele>21.2</ele>
        <time>2018-09-25T20:19:56.819Z</time>
      </trkpt>
      <trkpt lat="43.43776" lon="3.53965">
        <ele>21</ele>
        <time>2018-09-25T20:19:57.819Z</time>
      </trkpt>
      <trkpt lat="43.43771" lon="3.53969">
        <ele>20.9</ele>
        <time>2018-09-25T20:19:58.819Z</time>
      </trkpt>
      <trkpt lat="43.43766" lon="3.53971">
        <ele>21</ele>
        <time>2018-09-25T20:19:59.819Z</time>
      </trkpt>
      <trkpt lat="43.43761" lon="3.53973">
        <ele>20.8</ele>
        <time>2018-09-25T20:20:00.819Z</time>
      </trkpt>
      <trkpt lat="43.43755" lon="3.53976">
        <ele>20.9</ele>
        <time>2018-09-25T20:20:01.819Z</time>
      </trkpt>
      <trkpt lat="43.4375" lon="3.53979">
        <ele>21</ele>
        <time>2018-09-25T20:20:02.819Z</time>
      </trkpt>
      <trkpt lat="43.43745" lon="3.53981">
        <ele>20.9</ele>
        <time>2018-09-25T20:20:03.819Z</time>
      </trkpt>
      <trkpt lat="43.43741" lon="3.53985">
        <ele>21.1</ele>
        <time>2018-09-25T20:20:04.819Z</time>
      </trkpt>
      <trkpt lat="43.43736" lon="3.53989">
        <ele>21.3</ele>
        <time>2018-09-25T20:20:05.819Z</time>
      </trkpt>
      <trkpt lat="43.43732" lon="3.53992">
        <ele>21.5</ele>
        <time>2018-09-25T20:20:06.819Z</time>
      </trkpt>
      <trkpt lat="43.43726" lon="3.53996">
        <ele>21.6</ele>
        <time>2018-09-25T20:20:07.819Z</time>
      </trkpt>
      <trkpt lat="43.43721" lon="3.54">
        <ele>21.5</ele>
        <time>2018-09-25T20:20:08.819Z</time>
      </trkpt>
      <trkpt lat="43.43717" lon="3.54003">
        <ele>21.6</ele>
        <time>2018-09-25T20:20:09.819Z</time>
      </trkpt>
      <trkpt lat="43.43712" lon="3.54004">
        <ele>21.7</ele>
        <time>2018-09-25T20:20:10.819Z</time>
      </trkpt>
      <trkpt lat="43.43707" lon="3.54007">
        <ele>21.5</ele>
        <time>2018-09-25T20:20:11.819Z</time>
      </trkpt>
      <trkpt lat="43.43702" lon="3.54009">
        <ele>21.5</ele>
        <time>2018-09-25T20:20:12.819Z</time>
      </trkpt>
      <trkpt lat="43.43698" lon="3.54012">
        <ele>21.3</ele>
        <time>2018-09-25T20:20:13.819Z</time>
      </trkpt>
      <trkpt lat="43.43695" lon="3.54014">
        <ele>21.2</ele>
        <time>2018-09-25T20:20:14.819Z</time>
      </trkpt>
      <trkpt lat="43.43691" lon="3.54016">
        <ele>21.1</ele>
        <time>2018-09-25T20:20:15.819Z</time>
      </trkpt>
      <trkpt lat="43.43687" lon="3.54018">
        <ele>21.1</ele>
        <time>2018-09-25T20:20:16.819Z</time>
      </trkpt>
      <trkpt lat="43.43684" lon="3.5402">
        <ele>20.8</ele>
        <time>2018-09-25T20:20:17.819Z</time>
      </trkpt>
      <trkpt lat="43.43681" lon="3.54021">
        <ele>20.6</ele>
        <time>2018-09-25T20:20:18.819Z</time>
      </trkpt>
      <trkpt lat="43.43678" lon="3.54023">
        <ele>20.7</ele>
        <time>2018-09-25T20:20:19.819Z</time>
      </trkpt>
      <trkpt lat="43.43675" lon="3.54025">
        <ele>20.5</ele>
        <time>2018-09-25T20:20:20.819Z</time>
      </trkpt>
      <trkpt lat="43.43672" lon="3.54026">
        <ele>20.4</ele>
        <time>2018-09-25T20:20:21.819Z</time>
      </trkpt>
      <trkpt lat="43.43668" lon="3.54027">
        <ele>20.4</ele>
        <time>2018-09-25T20:20:22.819Z</time>
      </trkpt>
      <trkpt lat="43.43665" lon="3.54029">
        <ele>20.3</ele>
        <time>2018-09-25T20:20:23.819Z</time>
      </trkpt>
      <trkpt lat="43.43661" lon="3.54032">
        <ele>20.4</ele>
        <time>2018-09-25T20:20:25.819Z</time>
      </trkpt>
      <trkpt lat="43.43658" lon="3.54033">
        <ele>20.2</ele>
        <time>2018-09-25T20:20:27.819Z</time>
      </trkpt>
      <trkpt lat="43.43654" lon="3.54034">
        <ele>20.1</ele>
        <time>2018-09-25T20:20:29.819Z</time>
      </trkpt>
      <trkpt lat="43.4365" lon="3.54036">
        <ele>20.1</ele>
        <time>2018-09-25T20:20:31.819Z</time>
      </trkpt>
      <trkpt lat="43.43648" lon="3.54038">
        <ele>19.9</ele>
        <time>2018-09-25T20:20:33.819Z</time>
      </trkpt>
      <trkpt lat="43.43643" lon="3.54037">
        <ele>19.6</ele>
        <time>2018-09-25T20:20:36.819Z</time>
      </trkpt>
      <trkpt lat="43.4364" lon="3.54037">
        <ele>19.4</ele>
        <time>2018-09-25T20:20:38.819Z</time>
      </trkpt>
      <trkpt lat="43.43637" lon="3.54036">
        <ele>19.2</ele>
        <time>2018-09-25T20:20:45.819Z</time>
      </trkpt>
      <trkpt lat="43.43634" lon="3.54035">
        <ele>19.1</ele>
        <time>2018-09-25T20:21:29.819Z</time>
      </trkpt>
      <trkpt lat="43.43637" lon="3.54034">
        <ele>19</ele>
        <time>2018-09-25T20:26:01.819Z</time>
      </trkpt>
      <trkpt lat="43.43638" lon="3.54038">
        <ele>19.3</ele>
        <time>2018-09-25T20:26:27.819Z</time>
      </trkpt>
      <trkpt lat="43.43635" lon="3.54037">
        <ele>19.1</ele>
        <time>2018-09-25T20:26:55.819Z</time>
      </trkpt>
      <trkpt lat="43.43634" lon="3.54031">
        <ele>18.8</ele>
        <time>2018-09-25T20:27:26.819Z</time>
      </trkpt>
      <trkpt lat="43.43632" lon="3.54027">
        <ele>18.6</ele>
        <time>2018-09-25T20:27:27.819Z</time>
      </trkpt>
      <trkpt lat="43.4363" lon="3.54022">
        <ele>18.3</ele>
        <time>2018-09-25T20:27:28.819Z</time>
      </trkpt>
      <trkpt lat="43.43629" lon="3.54016">
        <ele>17.8</ele>
        <time>2018-09-25T20:27:29.819Z</time>
      </trkpt>
      <trkpt lat="43.43627" lon="3.54011">
        <ele>17.4</ele>
        <time>2018-09-25T20:27:30.819Z</time>
      </trkpt>
      <trkpt lat="43.43625" lon="3.54005">
        <ele>17.1</ele>
        <time>2018-09-25T20:27:31.819Z</time>
      </trkpt>
      <trkpt lat="43.43623" lon="3.53999">
        <ele>16.5</ele>
        <time>2018-09-25T20:27:32.819Z</time>
      </trkpt>
      <trkpt lat="43.4362" lon="3.53993">
        <ele>16.1</ele>
        <time>2018-09-25T20:27:33.819Z</time>
      </trkpt>
      <trkpt lat="43.43617" lon="3.53986">
        <ele>15.6</ele>
        <time>2018-09-25T20:27:34.819Z</time>
      </trkpt>
      <trkpt lat="43.43614" lon="3.5398">
        <ele>15.3</ele>
        <time>2018-09-25T20:27:35.819Z</time>
      </trkpt>
      <trkpt lat="43.43612" lon="3.53975">
        <ele>15.2</ele>
        <time>2018-09-25T20:27:36.819Z</time>
      </trkpt>
      <trkpt lat="43.43609" lon="3.53969">
        <ele>15</ele>
        <time>2018-09-25T20:27:37.819Z</time>
      </trkpt>
      <trkpt lat="43.43607" lon="3.53963">
        <ele>15</ele>
        <time>2018-09-25T20:27:38.819Z</time>
      </trkpt>
      <trkpt lat="43.43604" lon="3.53958">
        <ele>15</ele>
        <time>2018-09-25T20:27:39.819Z</time>
      </trkpt>
      <trkpt lat="43.43602" lon="3.53953">
        <ele>15</ele>
        <time>2018-09-25T20:27:40.819Z</time>
      </trkpt>
      <trkpt lat="43.436" lon="3.53948">
        <ele>14.9</ele>
        <time>2018-09-25T20:27:41.819Z</time>
      </trkpt>
      <trkpt lat="43.43598" lon="3.53944">
        <ele>15</ele>
        <time>2018-09-25T20:27:42.819Z</time>
      </trkpt>
      <trkpt lat="43.43596" lon="3.53941">
        <ele>15</ele>
        <time>2018-09-25T20:27:43.819Z</time>
      </trkpt>
      <trkpt lat="43.43595" lon="3.53937">
        <ele>14.9</ele>
        <time>2018-09-25T20:27:44.819Z</time>
      </trkpt>
      <trkpt lat="43.43593" lon="3.53933">
        <ele>14.9</ele>
        <time>2018-09-25T20:27:45.819Z</time>
      </trkpt>
      <trkpt lat="43.43592" lon="3.53929">
        <ele>14.9</ele>
        <time>2018-09-25T20:27:46.819Z</time>
      </trkpt>
      <trkpt lat="43.4359" lon="3.53924">
        <ele>14.9</ele>
        <time>2018-09-25T20:27:47.819Z</time>
      </trkpt>
      <trkpt lat="43.43588" lon="3.53919">
        <ele>14.8</ele>
        <time>2018-09-25T20:27:48.819Z</time>
      </trkpt>
      <trkpt lat="43.43586" lon="3.53914">
        <ele>14.8</ele>
        <time>2018-09-25T20:27:49.819Z</time>
      </trkpt>
      <trkpt lat="43.43585" lon="3.5391">
        <ele>14.8</ele>
        <time>2018-09-25T20:27:50.819Z</time>
      </trkpt>
      <trkpt lat="43.43583" lon="3.53906">
        <ele>14.7</ele>
        <time>2018-09-25T20:27:51.819Z</time>
      </trkpt>
      <trkpt lat="43.43579" lon="3.53901">
        <ele>14.7</ele>
        <time>2018-09-25T20:27:52.819Z</time>
      </trkpt>
      <trkpt lat="43.43576" lon="3.53897">
        <ele>14.6</ele>
        <time>2018-09-25T20:27:53.819Z</time>
      </trkpt>
      <trkpt lat="43.43573" lon="3.53892">
        <ele>14.5</ele>
        <time>2018-09-25T20:27:54.819Z</time>
      </trkpt>
      <trkpt lat="43.43571" lon="3.53886">
        <ele>14.5</ele>
        <time>2018-09-25T20:27:55.819Z</time>
      </trkpt>
      <trkpt lat="43.43569" lon="3.53881">
        <ele>14.4</ele>
        <time>2018-09-25T20:27:56.819Z</time>
      </trkpt>
      <trkpt lat="43.43567" lon="3.53877">
        <ele>14.3</ele>
        <time>2018-09-25T20:27:57.819Z</time>
      </trkpt>
      <trkpt lat="43.43565" lon="3.53872">
        <ele>14.3</ele>
        <time>2018-09-25T20:27:58.819Z</time>
      </trkpt>
      <trkpt lat="43.43564" lon="3.53868">
        <ele>14.2</ele>
        <time>2018-09-25T20:27:59.819Z</time>
      </trkpt>
      <trkpt lat="43.43563" lon="3.53863">
        <ele>14.1</ele>
        <time>2018-09-25T20:28:00.819Z</time>
      </trkpt>
      <trkpt lat="43.43561" lon="3.53857">
        <ele>14.1</ele>
        <time>2018-09-25T20:28:01.819Z</time>
      </trkpt>
      <trkpt lat="43.4356" lon="3.53852">
        <ele>14.1</ele>
        <time>2018-09-25T20:28:02.819Z</time>
      </trkpt>
      <trkpt lat="43.43558" lon="3.53847">
        <ele>14</ele>
        <time>2018-09-25T20:28:03.819Z</time>
      </trkpt>
      <trkpt lat="43.43557" lon="3.53842">
        <ele>14</ele>
        <time>2018-09-25T20:28:04.819Z</time>
      </trkpt>
      <trkpt lat="43.43555" lon="3.53836">
        <ele>14</ele>
        <time>2018-09-25T20:28:05.819Z</time>
      </trkpt>
      <trkpt lat="43.43553" lon="3.53831">
        <ele>14.1</ele>
        <time>2018-09-25T20:28:06.819Z</time>
      </trkpt>
      <trkpt lat="43.43551" lon="3.53826">
        <ele>14.1</ele>
        <time>2018-09-25T20:28:07.819Z</time>
      </trkpt>
      <trkpt lat="43.43548" lon="3.53821">
        <ele>14.1</ele>
        <time>2018-09-25T20:28:08.819Z</time>
      </trkpt>
      <trkpt lat="43.43546" lon="3.53817">
        <ele>14.2</ele>
        <time>2018-09-25T20:28:09.819Z</time>
      </trkpt>
      <trkpt lat="43.43544" lon="3.53812">
        <ele>14.3</ele>
        <time>2018-09-25T20:28:10.819Z</time>
      </trkpt>
      <trkpt lat="43.43542" lon="3.53807">
        <ele>14.4</ele>
        <time>2018-09-25T20:28:11.819Z</time>
      </trkpt>
      <trkpt lat="43.4354" lon="3.53802">
        <ele>14.7</ele>
        <time>2018-09-25T20:28:12.819Z</time>
      </trkpt>
      <trkpt lat="43.43538" lon="3.53798">
        <ele>14.8</ele>
        <time>2018-09-25T20:28:13.819Z</time>
      </trkpt>
      <trkpt lat="43.43536" lon="3.53794">
        <ele>15</ele>
        <time>2018-09-25T20:28:14.819Z</time>
      </trkpt>
      <trkpt lat="43.43534" lon="3.53789">
        <ele>15.3</ele>
        <time>2018-09-25T20:28:15.819Z</time>
      </trkpt>
      <trkpt lat="43.43532" lon="3.53784">
        <ele>15.5</ele>
        <time>2018-09-25T20:28:16.819Z</time>
      </trkpt>
      <trkpt lat="43.43531" lon="3.53779">
        <ele>15.8</ele>
        <time>2018-09-25T20:28:17.819Z</time>
      </trkpt>
      <trkpt lat="43.43529" lon="3.53774">
        <ele>16</ele>
        <time>2018-09-25T20:28:18.819Z</time>
      </trkpt>
      <trkpt lat="43.43527" lon="3.53769">
        <ele>16.4</ele>
        <time>2018-09-25T20:28:19.819Z</time>
      </trkpt>
      <trkpt lat="43.43525" lon="3.53764">
        <ele>16.9</ele>
        <time>2018-09-25T20:28:20.819Z</time>
      </trkpt>
      <trkpt lat="43.43524" lon="3.53759">
        <ele>17.1</ele>
        <time>2018-09-25T20:28:21.819Z</time>
      </trkpt>
      <trkpt lat="43.43522" lon="3.53754">
        <ele>17.4</ele>
        <time>2018-09-25T20:28:22.819Z</time>
      </trkpt>
      <trkpt lat="43.4352" lon="3.53749">
        <ele>17.5</ele>
        <time>2018-09-25T20:28:23.819Z</time>
      </trkpt>
      <trkpt lat="43.43518" lon="3.53744">
        <ele>17.6</ele>
        <time>2018-09-25T20:28:24.819Z</time>
      </trkpt>
      <trkpt lat="43.43516" lon="3.5374">
        <ele>17.7</ele>
        <time>2018-09-25T20:28:25.819Z</time>
      </trkpt>
      <trkpt lat="43.43515" lon="3.53736">
        <ele>17.8</ele>
        <time>2018-09-25T20:28:26.819Z</time>
      </trkpt>
      <trkpt lat="43.43513" lon="3.53733">
        <ele>17.9</ele>
        <time>2018-09-25T20:28:27.819Z</time>
      </trkpt>
      <trkpt lat="43.43512" lon="3.53729">
        <ele>18.1</ele>
        <time>2018-09-25T20:28:28.819Z</time>
      </trkpt>
      <trkpt lat="43.43511" lon="3.53725">
        <ele>18.2</ele>
        <time>2018-09-25T20:28:29.819Z</time>
      </trkpt>
      <trkpt lat="43.4351" lon="3.53722">
        <ele>18.1</ele>
        <time>2018-09-25T20:28:30.819Z</time>
      </trkpt>
      <trkpt lat="43.43508" lon="3.53715">
        <ele>18.3</ele>
        <time>2018-09-25T20:28:32.819Z</time>
      </trkpt>
      <trkpt lat="43.43506" lon="3.53711">
        <ele>18.4</ele>
        <time>2018-09-25T20:28:33.819Z</time>
      </trkpt>
      <trkpt lat="43.43505" lon="3.53704">
        <ele>18.5</ele>
        <time>2018-09-25T20:28:35.819Z</time>
      </trkpt>
      <trkpt lat="43.43504" lon="3.53699">
        <ele>18.7</ele>
        <time>2018-09-25T20:28:37.819Z</time>
      </trkpt>
      <trkpt lat="43.43503" lon="3.53692">
        <ele>18.9</ele>
        <time>2018-09-25T20:28:39.819Z</time>
      </trkpt>
      <trkpt lat="43.43503" lon="3.53688">
        <ele>19.2</ele>
        <time>2018-09-25T20:28:40.819Z</time>
      </trkpt>
      <trkpt lat="43.43501" lon="3.53684">
        <ele>19.4</ele>
        <time>2018-09-25T20:28:41.819Z</time>
      </trkpt>
      <trkpt lat="43.435" lon="3.53679">
        <ele>19.8</ele>
        <time>2018-09-25T20:28:42.819Z</time>
      </trkpt>
      <trkpt lat="43.43499" lon="3.53675">
        <ele>20.2</ele>
        <time>2018-09-25T20:28:43.819Z</time>
      </trkpt>
      <trkpt lat="43.43498" lon="3.53672">
        <ele>20.6</ele>
        <time>2018-09-25T20:28:44.819Z</time>
      </trkpt>
      <trkpt lat="43.43497" lon="3.53668">
        <ele>21</ele>
        <time>2018-09-25T20:28:45.819Z</time>
      </trkpt>
      <trkpt lat="43.43497" lon="3.53663">
        <ele>21.6</ele>
        <time>2018-09-25T20:28:46.819Z</time>
      </trkpt>
      <trkpt lat="43.43497" lon="3.53659">
        <ele>22.1</ele>
        <time>2018-09-25T20:28:47.819Z</time>
      </trkpt>
      <trkpt lat="43.43496" lon="3.53654">
        <ele>22.6</ele>
        <time>2018-09-25T20:28:48.819Z</time>
      </trkpt>
      <trkpt lat="43.43496" lon="3.53646">
        <ele>23.6</ele>
        <time>2018-09-25T20:28:50.819Z</time>
      </trkpt>
      <trkpt lat="43.43495" lon="3.53641">
        <ele>24.1</ele>
        <time>2018-09-25T20:28:51.819Z</time>
      </trkpt>
      <trkpt lat="43.43493" lon="3.53635">
        <ele>25.3</ele>
        <time>2018-09-25T20:28:52.819Z</time>
      </trkpt>
      <trkpt lat="43.43492" lon="3.5363">
        <ele>25.7</ele>
        <time>2018-09-25T20:28:53.819Z</time>
      </trkpt>
      <trkpt lat="43.4349" lon="3.53625">
        <ele>26.3</ele>
        <time>2018-09-25T20:28:54.819Z</time>
      </trkpt>
      <trkpt lat="43.43487" lon="3.53619">
        <ele>26.8</ele>
        <time>2018-09-25T20:28:55.819Z</time>
      </trkpt>
      <trkpt lat="43.43484" lon="3.53614">
        <ele>27.5</ele>
        <time>2018-09-25T20:28:56.819Z</time>
      </trkpt>
      <trkpt lat="43.43481" lon="3.53608">
        <ele>27.8</ele>
        <time>2018-09-25T20:28:57.819Z</time>
      </trkpt>
      <trkpt lat="43.43478" lon="3.53603">
        <ele>28</ele>
        <time>2018-09-25T20:28:58.819Z</time>
      </trkpt>
      <trkpt lat="43.43476" lon="3.53597">
        <ele>28</ele>
        <time>2018-09-25T20:28:59.819Z</time>
      </trkpt>
      <trkpt lat="43.43473" lon="3.53592">
        <ele>28</ele>
        <time>2018-09-25T20:29:00.819Z</time>
      </trkpt>
      <trkpt lat="43.43471" lon="3.53586">
        <ele>27.8</ele>
        <time>2018-09-25T20:29:01.819Z</time>
      </trkpt>
      <trkpt lat="43.43469" lon="3.53582">
        <ele>27.6</ele>
        <time>2018-09-25T20:29:02.819Z</time>
      </trkpt>
      <trkpt lat="43.43467" lon="3.53579">
        <ele>27.5</ele>
        <time>2018-09-25T20:29:03.819Z</time>
      </trkpt>
      <trkpt lat="43.43465" lon="3.53576">
        <ele>27.4</ele>
        <time>2018-09-25T20:29:04.819Z</time>
      </trkpt>
      <trkpt lat="43.43462" lon="3.53572">
        <ele>27.1</ele>
        <time>2018-09-25T20:29:06.819Z</time>
      </trkpt>
      <trkpt lat="43.43459" lon="3.53566">
        <ele>26.7</ele>
        <time>2018-09-25T20:29:08.819Z</time>
      </trkpt>
      <trkpt lat="43.43457" lon="3.53564">
        <ele>26.6</ele>
        <time>2018-09-25T20:29:09.819Z</time>
      </trkpt>
      <trkpt lat="43.43453" lon="3.53559">
        <ele>26.4</ele>
        <time>2018-09-25T20:29:11.819Z</time>
      </trkpt>
      <trkpt lat="43.43451" lon="3.53556">
        <ele>26.2</ele>
        <time>2018-09-25T20:29:12.819Z</time>
      </trkpt>
      <trkpt lat="43.43448" lon="3.53552">
        <ele>26</ele>
        <time>2018-09-25T20:29:14.819Z</time>
      </trkpt>
      <trkpt lat="43.43445" lon="3.53547">
        <ele>26</ele>
        <time>2018-09-25T20:29:16.819Z</time>
      </trkpt>
      <trkpt lat="43.43442" lon="3.53541">
        <ele>26</ele>
        <time>2018-09-25T20:29:18.819Z</time>
      </trkpt>
      <trkpt lat="43.43439" lon="3.53535">
        <ele>26</ele>
        <time>2018-09-25T20:29:20.819Z</time>
      </trkpt>
      <trkpt lat="43.43437" lon="3.5353">
        <ele>26</ele>
        <time>2018-09-25T20:29:21.819Z</time>
      </trkpt>
      <trkpt lat="43.43435" lon="3.53526">
        <ele>26</ele>
        <time>2018-09-25T20:29:22.819Z</time>
      </trkpt>
      <trkpt lat="43.43433" lon="3.53522">
        <ele>26</ele>
        <time>2018-09-25T20:29:23.819Z</time>
      </trkpt>
      <trkpt lat="43.43432" lon="3.53517">
        <ele>26</ele>
        <time>2018-09-25T20:29:24.819Z</time>
      </trkpt>
      <trkpt lat="43.43429" lon="3.53512">
        <ele>26</ele>
        <time>2018-09-25T20:29:25.819Z</time>
      </trkpt>
      <trkpt lat="43.43427" lon="3.53508">
        <ele>25.9</ele>
        <time>2018-09-25T20:29:26.819Z</time>
      </trkpt>
      <trkpt lat="43.43425" lon="3.53503">
        <ele>25.8</ele>
        <time>2018-09-25T20:29:27.819Z</time>
      </trkpt>
      <trkpt lat="43.43423" lon="3.53498">
        <ele>25.7</ele>
        <time>2018-09-25T20:29:28.819Z</time>
      </trkpt>
      <trkpt lat="43.4342" lon="3.53492">
        <ele>25.6</ele>
        <time>2018-09-25T20:29:29.819Z</time>
      </trkpt>
      <trkpt lat="43.43417" lon="3.53487">
        <ele>25.5</ele>
        <time>2018-09-25T20:29:30.819Z</time>
      </trkpt>
      <trkpt lat="43.43414" lon="3.53482">
        <ele>25.4</ele>
        <time>2018-09-25T20:29:31.819Z</time>
      </trkpt>
      <trkpt lat="43.43412" lon="3.53475">
        <ele>25.3</ele>
        <time>2018-09-25T20:29:32.819Z</time>
      </trkpt>
      <trkpt lat="43.4341" lon="3.53469">
        <ele>25.2</ele>
        <time>2018-09-25T20:29:33.819Z</time>
      </trkpt>
      <trkpt lat="43.43407" lon="3.53464">
        <ele>25.2</ele>
        <time>2018-09-25T20:29:34.819Z</time>
      </trkpt>
      <trkpt lat="43.43405" lon="3.53459">
        <ele>25.1</ele>
        <time>2018-09-25T20:29:35.819Z</time>
      </trkpt>
      <trkpt lat="43.43403" lon="3.53454">
        <ele>25</ele>
        <time>2018-09-25T20:29:36.819Z</time>
      </trkpt>
      <trkpt lat="43.434" lon="3.53448">
        <ele>24.9</ele>
        <time>2018-09-25T20:29:37.819Z</time>
      </trkpt>
      <trkpt lat="43.43398" lon="3.53444">
        <ele>24.9</ele>
        <time>2018-09-25T20:29:38.819Z</time>
      </trkpt>
      <trkpt lat="43.43396" lon="3.53439">
        <ele>24.8</ele>
        <time>2018-09-25T20:29:39.819Z</time>
      </trkpt>
      <trkpt lat="43.43394" lon="3.53435">
        <ele>24.7</ele>
        <time>2018-09-25T20:29:40.819Z</time>
      </trkpt>
      <trkpt lat="43.43392" lon="3.5343">
        <ele>24.7</ele>
        <time>2018-09-25T20:29:41.819Z</time>
      </trkpt>
      <trkpt lat="43.4339" lon="3.53425">
        <ele>24.7</ele>
        <time>2018-09-25T20:29:42.819Z</time>
      </trkpt>
      <trkpt lat="43.43387" lon="3.53419">
        <ele>24.7</ele>
        <time>2018-09-25T20:29:43.819Z</time>
      </trkpt>
      <trkpt lat="43.43385" lon="3.53413">
        <ele>24.6</ele>
        <time>2018-09-25T20:29:44.819Z</time>
      </trkpt>
      <trkpt lat="43.43382" lon="3.53407">
        <ele>24.7</ele>
        <time>2018-09-25T20:29:45.819Z</time>
      </trkpt>
      <trkpt lat="43.4338" lon="3.53402">
        <ele>24.7</ele>
        <time>2018-09-25T20:29:46.819Z</time>
      </trkpt>
      <trkpt lat="43.43378" lon="3.53397">
        <ele>24.8</ele>
        <time>2018-09-25T20:29:47.819Z</time>
      </trkpt>
      <trkpt lat="43.43375" lon="3.53391">
        <ele>24.8</ele>
        <time>2018-09-25T20:29:48.819Z</time>
      </trkpt>
      <trkpt lat="43.43373" lon="3.53385">
        <ele>24.9</ele>
        <time>2018-09-25T20:29:49.819Z</time>
      </trkpt>
      <trkpt lat="43.43371" lon="3.53381">
        <ele>25</ele>
        <time>2018-09-25T20:29:50.819Z</time>
      </trkpt>
      <trkpt lat="43.43369" lon="3.53377">
        <ele>25</ele>
        <time>2018-09-25T20:29:51.819Z</time>
      </trkpt>
      <trkpt lat="43.43367" lon="3.53372">
        <ele>25</ele>
        <time>2018-09-25T20:29:52.819Z</time>
      </trkpt>
      <trkpt lat="43.43365" lon="3.53368">
        <ele>25.1</ele>
        <time>2018-09-25T20:29:53.819Z</time>
      </trkpt>
      <trkpt lat="43.43362" lon="3.53362">
        <ele>25.1</ele>
        <time>2018-09-25T20:29:54.819Z</time>
      </trkpt>
      <trkpt lat="43.4336" lon="3.53357">
        <ele>25.1</ele>
        <time>2018-09-25T20:29:55.819Z</time>
      </trkpt>
      <trkpt lat="43.43357" lon="3.53351">
        <ele>25.1</ele>
        <time>2018-09-25T20:29:56.819Z</time>
      </trkpt>
      <trkpt lat="43.43355" lon="3.53346">
        <ele>25.1</ele>
        <time>2018-09-25T20:29:57.819Z</time>
      </trkpt>
      <trkpt lat="43.43353" lon="3.5334">
        <ele>25</ele>
        <time>2018-09-25T20:29:58.819Z</time>
      </trkpt>
      <trkpt lat="43.4335" lon="3.53334">
        <ele>24.9</ele>
        <time>2018-09-25T20:29:59.819Z</time>
      </trkpt>
      <trkpt lat="43.43348" lon="3.53328">
        <ele>24.8</ele>
        <time>2018-09-25T20:30:00.819Z</time>
      </trkpt>
      <trkpt lat="43.43346" lon="3.53322">
        <ele>24.7</ele>
        <time>2018-09-25T20:30:01.819Z</time>
      </trkpt>
      <trkpt lat="43.43343" lon="3.53315">
        <ele>24.5</ele>
        <time>2018-09-25T20:30:02.819Z</time>
      </trkpt>
      <trkpt lat="43.4334" lon="3.53309">
        <ele>24.4</ele>
        <time>2018-09-25T20:30:03.819Z</time>
      </trkpt>
      <trkpt lat="43.43338" lon="3.53303">
        <ele>24.2</ele>
        <time>2018-09-25T20:30:04.819Z</time>
      </trkpt>
      <trkpt lat="43.43335" lon="3.53297">
        <ele>24.1</ele>
        <time>2018-09-25T20:30:05.819Z</time>
      </trkpt>
      <trkpt lat="43.43332" lon="3.5329">
        <ele>23.9</ele>
        <time>2018-09-25T20:30:06.819Z</time>
      </trkpt>
      <trkpt lat="43.43329" lon="3.53284">
        <ele>23.9</ele>
        <time>2018-09-25T20:30:07.819Z</time>
      </trkpt>
      <trkpt lat="43.43327" lon="3.53278">
        <ele>23.8</ele>
        <time>2018-09-25T20:30:08.819Z</time>
      </trkpt>
      <trkpt lat="43.43325" lon="3.53272">
        <ele>23.7</ele>
        <time>2018-09-25T20:30:09.819Z</time>
      </trkpt>
      <trkpt lat="43.43322" lon="3.53266">
        <ele>23.8</ele>
        <time>2018-09-25T20:30:10.819Z</time>
      </trkpt>
      <trkpt lat="43.43319" lon="3.53261">
        <ele>23.8</ele>
        <time>2018-09-25T20:30:11.819Z</time>
      </trkpt>
      <trkpt lat="43.43317" lon="3.53255">
        <ele>23.9</ele>
        <time>2018-09-25T20:30:12.819Z</time>
      </trkpt>
      <trkpt lat="43.43314" lon="3.53248">
        <ele>24.1</ele>
        <time>2018-09-25T20:30:13.819Z</time>
      </trkpt>
      <trkpt lat="43.4331" lon="3.53242">
        <ele>24.2</ele>
        <time>2018-09-25T20:30:14.819Z</time>
      </trkpt>
      <trkpt lat="43.43308" lon="3.53235">
        <ele>24.5</ele>
        <time>2018-09-25T20:30:15.819Z</time>
      </trkpt>
      <trkpt lat="43.43305" lon="3.5323">
        <ele>24.7</ele>
        <time>2018-09-25T20:30:16.819Z</time>
      </trkpt>
      <trkpt lat="43.43302" lon="3.53224">
        <ele>24.9</ele>
        <time>2018-09-25T20:30:17.819Z</time>
      </trkpt>
      <trkpt lat="43.433" lon="3.53217">
        <ele>25.3</ele>
        <time>2018-09-25T20:30:18.819Z</time>
      </trkpt>
      <trkpt lat="43.43297" lon="3.53211">
        <ele>25.5</ele>
        <time>2018-09-25T20:30:19.819Z</time>
      </trkpt>
      <trkpt lat="43.43294" lon="3.53205">
        <ele>25.9</ele>
        <time>2018-09-25T20:30:20.819Z</time>
      </trkpt>
      <trkpt lat="43.43291" lon="3.532">
        <ele>26.1</ele>
        <time>2018-09-25T20:30:21.819Z</time>
      </trkpt>
      <trkpt lat="43.43289" lon="3.53194">
        <ele>26.3</ele>
        <time>2018-09-25T20:30:22.819Z</time>
      </trkpt>
      <trkpt lat="43.43286" lon="3.53189">
        <ele>26.6</ele>
        <time>2018-09-25T20:30:23.819Z</time>
      </trkpt>
      <trkpt lat="43.43283" lon="3.53183">
        <ele>26.8</ele>
        <time>2018-09-25T20:30:24.819Z</time>
      </trkpt>
      <trkpt lat="43.4328" lon="3.53178">
        <ele>27</ele>
        <time>2018-09-25T20:30:25.819Z</time>
      </trkpt>
      <trkpt lat="43.43278" lon="3.53172">
        <ele>27.1</ele>
        <time>2018-09-25T20:30:26.819Z</time>
      </trkpt>
      <trkpt lat="43.43275" lon="3.53167">
        <ele>27.4</ele>
        <time>2018-09-25T20:30:27.819Z</time>
      </trkpt>
      <trkpt lat="43.43272" lon="3.53162">
        <ele>27.6</ele>
        <time>2018-09-25T20:30:28.819Z</time>
      </trkpt>
      <trkpt lat="43.43269" lon="3.53158">
        <ele>27.8</ele>
        <time>2018-09-25T20:30:29.819Z</time>
      </trkpt>
      <trkpt lat="43.43265" lon="3.53153">
        <ele>27.9</ele>
        <time>2018-09-25T20:30:30.819Z</time>
      </trkpt>
      <trkpt lat="43.43262" lon="3.53149">
        <ele>28.1</ele>
        <time>2018-09-25T20:30:31.819Z</time>
      </trkpt>
      <trkpt lat="43.4326" lon="3.53144">
        <ele>28.2</ele>
        <time>2018-09-25T20:30:32.819Z</time>
      </trkpt>
      <trkpt lat="43.43257" lon="3.53139">
        <ele>28.4</ele>
        <time>2018-09-25T20:30:33.819Z</time>
      </trkpt>
      <trkpt lat="43.43255" lon="3.53135">
        <ele>28.5</ele>
        <time>2018-09-25T20:30:34.819Z</time>
      </trkpt>
      <trkpt lat="43.43252" lon="3.5313">
        <ele>28.6</ele>
        <time>2018-09-25T20:30:35.819Z</time>
      </trkpt>
      <trkpt lat="43.4325" lon="3.53125">
        <ele>28.6</ele>
        <time>2018-09-25T20:30:36.819Z</time>
      </trkpt>
      <trkpt lat="43.43248" lon="3.5312">
        <ele>28.7</ele>
        <time>2018-09-25T20:30:37.819Z</time>
      </trkpt>
      <trkpt lat="43.43246" lon="3.53115">
        <ele>28.8</ele>
        <time>2018-09-25T20:30:38.819Z</time>
      </trkpt>
      <trkpt lat="43.43245" lon="3.53109">
        <ele>28.8</ele>
        <time>2018-09-25T20:30:39.819Z</time>
      </trkpt>
      <trkpt lat="43.43243" lon="3.53103">
        <ele>28.9</ele>
        <time>2018-09-25T20:30:40.819Z</time>
      </trkpt>
      <trkpt lat="43.43241" lon="3.53098">
        <ele>28.9</ele>
        <time>2018-09-25T20:30:41.819Z</time>
      </trkpt>
      <trkpt lat="43.4324" lon="3.53092">
        <ele>28.9</ele>
        <time>2018-09-25T20:30:42.819Z</time>
      </trkpt>
      <trkpt lat="43.43238" lon="3.53088">
        <ele>28.8</ele>
        <time>2018-09-25T20:30:43.819Z</time>
      </trkpt>
      <trkpt lat="43.43236" lon="3.53082">
        <ele>28.9</ele>
        <time>2018-09-25T20:30:44.819Z</time>
      </trkpt>
      <trkpt lat="43.43234" lon="3.53077">
        <ele>28.8</ele>
        <time>2018-09-25T20:30:45.819Z</time>
      </trkpt>
      <trkpt lat="43.43231" lon="3.53072">
        <ele>28.7</ele>
        <time>2018-09-25T20:30:46.819Z</time>
      </trkpt>
      <trkpt lat="43.43229" lon="3.53067">
        <ele>28.7</ele>
        <time>2018-09-25T20:30:47.819Z</time>
      </trkpt>
      <trkpt lat="43.43227" lon="3.53062">
        <ele>28.6</ele>
        <time>2018-09-25T20:30:48.819Z</time>
      </trkpt>
      <trkpt lat="43.43225" lon="3.53056">
        <ele>28.5</ele>
        <time>2018-09-25T20:30:49.819Z</time>
      </trkpt>
      <trkpt lat="43.43222" lon="3.53051">
        <ele>28.4</ele>
        <time>2018-09-25T20:30:50.819Z</time>
      </trkpt>
      <trkpt lat="43.4322" lon="3.53046">
        <ele>28.4</ele>
        <time>2018-09-25T20:30:51.819Z</time>
      </trkpt>
      <trkpt lat="43.43218" lon="3.53041">
        <ele>28.4</ele>
        <time>2018-09-25T20:30:52.819Z</time>
      </trkpt>
      <trkpt lat="43.43216" lon="3.53035">
        <ele>28.3</ele>
        <time>2018-09-25T20:30:53.819Z</time>
      </trkpt>
      <trkpt lat="43.43214" lon="3.53029">
        <ele>28.3</ele>
        <time>2018-09-25T20:30:54.819Z</time>
      </trkpt>
      <trkpt lat="43.43212" lon="3.53025">
        <ele>28.3</ele>
        <time>2018-09-25T20:30:55.819Z</time>
      </trkpt>
      <trkpt lat="43.4321" lon="3.5302">
        <ele>28.2</ele>
        <time>2018-09-25T20:30:56.819Z</time>
      </trkpt>
      <trkpt lat="43.43208" lon="3.53016">
        <ele>28.3</ele>
        <time>2018-09-25T20:30:57.819Z</time>
      </trkpt>
      <trkpt lat="43.43206" lon="3.53012">
        <ele>28.2</ele>
        <time>2018-09-25T20:30:58.819Z</time>
      </trkpt>
      <trkpt lat="43.43204" lon="3.53007">
        <ele>28.2</ele>
        <time>2018-09-25T20:30:59.819Z</time>
      </trkpt>
      <trkpt lat="43.43202" lon="3.53002">
        <ele>28.2</ele>
        <time>2018-09-25T20:31:00.819Z</time>
      </trkpt>
      <trkpt lat="43.43199" lon="3.52998">
        <ele>28.1</ele>
        <time>2018-09-25T20:31:01.819Z</time>
      </trkpt>
      <trkpt lat="43.43196" lon="3.52994">
        <ele>28.1</ele>
        <time>2018-09-25T20:31:02.819Z</time>
      </trkpt>
      <trkpt lat="43.43193" lon="3.5299">
        <ele>28</ele>
        <time>2018-09-25T20:31:03.819Z</time>
      </trkpt>
      <trkpt lat="43.4319" lon="3.52986">
        <ele>27.9</ele>
        <time>2018-09-25T20:31:04.819Z</time>
      </trkpt>
      <trkpt lat="43.43187" lon="3.5298">
        <ele>27.9</ele>
        <time>2018-09-25T20:31:05.819Z</time>
      </trkpt>
      <trkpt lat="43.43185" lon="3.52974">
        <ele>27.8</ele>
        <time>2018-09-25T20:31:06.819Z</time>
      </trkpt>
      <trkpt lat="43.43182" lon="3.52967">
        <ele>27.8</ele>
        <time>2018-09-25T20:31:07.819Z</time>
      </trkpt>
      <trkpt lat="43.43179" lon="3.52961">
        <ele>27.8</ele>
        <time>2018-09-25T20:31:08.819Z</time>
      </trkpt>
      <trkpt lat="43.43176" lon="3.52954">
        <ele>27.8</ele>
        <time>2018-09-25T20:31:09.819Z</time>
      </trkpt>
      <trkpt lat="43.43173" lon="3.52949">
        <ele>27.7</ele>
        <time>2018-09-25T20:31:10.819Z</time>
      </trkpt>
      <trkpt lat="43.4317" lon="3.52943">
        <ele>27.8</ele>
        <time>2018-09-25T20:31:11.819Z</time>
      </trkpt>
      <trkpt lat="43.43167" lon="3.52938">
        <ele>27.8</ele>
        <time>2018-09-25T20:31:12.819Z</time>
      </trkpt>
      <trkpt lat="43.43166" lon="3.52933">
        <ele>27.9</ele>
        <time>2018-09-25T20:31:13.819Z</time>
      </trkpt>
      <trkpt lat="43.43164" lon="3.52928">
        <ele>27.9</ele>
        <time>2018-09-25T20:31:14.819Z</time>
      </trkpt>
      <trkpt lat="43.43161" lon="3.52923">
        <ele>28.2</ele>
        <time>2018-09-25T20:31:15.819Z</time>
      </trkpt>
      <trkpt lat="43.43158" lon="3.52917">
        <ele>28.3</ele>
        <time>2018-09-25T20:31:16.819Z</time>
      </trkpt>
      <trkpt lat="43.43156" lon="3.52911">
        <ele>28.5</ele>
        <time>2018-09-25T20:31:17.819Z</time>
      </trkpt>
      <trkpt lat="43.43154" lon="3.52905">
        <ele>28.8</ele>
        <time>2018-09-25T20:31:18.819Z</time>
      </trkpt>
      <trkpt lat="43.43152" lon="3.52899">
        <ele>28.9</ele>
        <time>2018-09-25T20:31:19.819Z</time>
      </trkpt>
      <trkpt lat="43.43151" lon="3.52893">
        <ele>29.1</ele>
        <time>2018-09-25T20:31:20.819Z</time>
      </trkpt>
      <trkpt lat="43.43149" lon="3.52887">
        <ele>29.4</ele>
        <time>2018-09-25T20:31:21.819Z</time>
      </trkpt>
      <trkpt lat="43.43148" lon="3.52882">
        <ele>29.6</ele>
        <time>2018-09-25T20:31:22.819Z</time>
      </trkpt>
      <trkpt lat="43.43146" lon="3.52876">
        <ele>29.8</ele>
        <time>2018-09-25T20:31:23.819Z</time>
      </trkpt>
      <trkpt lat="43.43144" lon="3.52871">
        <ele>30.1</ele>
        <time>2018-09-25T20:31:24.819Z</time>
      </trkpt>
      <trkpt lat="43.43142" lon="3.52866">
        <ele>30.3</ele>
        <time>2018-09-25T20:31:25.819Z</time>
      </trkpt>
      <trkpt lat="43.4314" lon="3.5286">
        <ele>30.4</ele>
        <time>2018-09-25T20:31:26.819Z</time>
      </trkpt>
      <trkpt lat="43.43138" lon="3.52854">
        <ele>30.7</ele>
        <time>2018-09-25T20:31:27.819Z</time>
      </trkpt>
      <trkpt lat="43.43136" lon="3.52848">
        <ele>30.8</ele>
        <time>2018-09-25T20:31:28.819Z</time>
      </trkpt>
      <trkpt lat="43.43135" lon="3.52842">
        <ele>31</ele>
        <time>2018-09-25T20:31:29.819Z</time>
      </trkpt>
      <trkpt lat="43.43134" lon="3.52836">
        <ele>31.3</ele>
        <time>2018-09-25T20:31:30.819Z</time>
      </trkpt>
      <trkpt lat="43.43133" lon="3.52831">
        <ele>31.4</ele>
        <time>2018-09-25T20:31:31.819Z</time>
      </trkpt>
      <trkpt lat="43.43132" lon="3.52825">
        <ele>31.5</ele>
        <time>2018-09-25T20:31:32.819Z</time>
      </trkpt>
      <trkpt lat="43.4313" lon="3.52818">
        <ele>31.7</ele>
        <time>2018-09-25T20:31:33.819Z</time>
      </trkpt>
      <trkpt lat="43.43128" lon="3.52811">
        <ele>31.9</ele>
        <time>2018-09-25T20:31:34.819Z</time>
      </trkpt>
      <trkpt lat="43.43126" lon="3.52804">
        <ele>32</ele>
        <time>2018-09-25T20:31:35.819Z</time>
      </trkpt>
      <trkpt lat="43.43124" lon="3.52798">
        <ele>32.1</ele>
        <time>2018-09-25T20:31:36.819Z</time>
      </trkpt>
      <trkpt lat="43.43121" lon="3.52792">
        <ele>32.1</ele>
        <time>2018-09-25T20:31:37.819Z</time>
      </trkpt>
      <trkpt lat="43.43119" lon="3.52787">
        <ele>32.2</ele>
        <time>2018-09-25T20:31:38.819Z</time>
      </trkpt>
      <trkpt lat="43.43117" lon="3.52781">
        <ele>32.2</ele>
        <time>2018-09-25T20:31:39.819Z</time>
      </trkpt>
      <trkpt lat="43.43115" lon="3.52777">
        <ele>32.4</ele>
        <time>2018-09-25T20:31:40.819Z</time>
      </trkpt>
      <trkpt lat="43.43113" lon="3.52772">
        <ele>32.4</ele>
        <time>2018-09-25T20:31:41.819Z</time>
      </trkpt>
      <trkpt lat="43.43111" lon="3.52768">
        <ele>32.4</ele>
        <time>2018-09-25T20:31:42.819Z</time>
      </trkpt>
      <trkpt lat="43.43109" lon="3.52763">
        <ele>32.5</ele>
        <time>2018-09-25T20:31:43.819Z</time>
      </trkpt>
      <trkpt lat="43.43107" lon="3.52758">
        <ele>32.5</ele>
        <time>2018-09-25T20:31:44.819Z</time>
      </trkpt>
      <trkpt lat="43.43103" lon="3.52753">
        <ele>32.5</ele>
        <time>2018-09-25T20:31:45.819Z</time>
      </trkpt>
      <trkpt lat="43.431" lon="3.52748">
        <ele>32.6</ele>
        <time>2018-09-25T20:31:46.819Z</time>
      </trkpt>
      <trkpt lat="43.43096" lon="3.52743">
        <ele>32.6</ele>
        <time>2018-09-25T20:31:47.819Z</time>
      </trkpt>
      <trkpt lat="43.43092" lon="3.52738">
        <ele>32.7</ele>
        <time>2018-09-25T20:31:48.819Z</time>
      </trkpt>
      <trkpt lat="43.43088" lon="3.52734">
        <ele>32.8</ele>
        <time>2018-09-25T20:31:49.819Z</time>
      </trkpt>
      <trkpt lat="43.43086" lon="3.52729">
        <ele>32.9</ele>
        <time>2018-09-25T20:31:50.819Z</time>
      </trkpt>
      <trkpt lat="43.43083" lon="3.52724">
        <ele>32.9</ele>
        <time>2018-09-25T20:31:51.819Z</time>
      </trkpt>
      <trkpt lat="43.4308" lon="3.52718">
        <ele>33</ele>
        <time>2018-09-25T20:31:52.819Z</time>
      </trkpt>
      <trkpt lat="43.43076" lon="3.52713">
        <ele>33.2</ele>
        <time>2018-09-25T20:31:53.819Z</time>
      </trkpt>
      <trkpt lat="43.43073" lon="3.52707">
        <ele>33.3</ele>
        <time>2018-09-25T20:31:54.819Z</time>
      </trkpt>
      <trkpt lat="43.4307" lon="3.52703">
        <ele>33.3</ele>
        <time>2018-09-25T20:31:55.819Z</time>
      </trkpt>
      <trkpt lat="43.43067" lon="3.52697">
        <ele>33.4</ele>
        <time>2018-09-25T20:31:56.819Z</time>
      </trkpt>
      <trkpt lat="43.43064" lon="3.52691">
        <ele>33.6</ele>
        <time>2018-09-25T20:31:57.819Z</time>
      </trkpt>
      <trkpt lat="43.43061" lon="3.52685">
        <ele>33.7</ele>
        <time>2018-09-25T20:31:58.819Z</time>
      </trkpt>
      <trkpt lat="43.43059" lon="3.5268">
        <ele>33.8</ele>
        <time>2018-09-25T20:31:59.819Z</time>
      </trkpt>
      <trkpt lat="43.43057" lon="3.52674">
        <ele>33.9</ele>
        <time>2018-09-25T20:32:00.819Z</time>
      </trkpt>
      <trkpt lat="43.43055" lon="3.52668">
        <ele>34</ele>
        <time>2018-09-25T20:32:01.819Z</time>
      </trkpt>
      <trkpt lat="43.43052" lon="3.52663">
        <ele>34.1</ele>
        <time>2018-09-25T20:32:02.819Z</time>
      </trkpt>
      <trkpt lat="43.4305" lon="3.52658">
        <ele>34.2</ele>
        <time>2018-09-25T20:32:03.819Z</time>
      </trkpt>
      <trkpt lat="43.43047" lon="3.52653">
        <ele>34.3</ele>
        <time>2018-09-25T20:32:04.819Z</time>
      </trkpt>
      <trkpt lat="43.43045" lon="3.52647">
        <ele>34.4</ele>
        <time>2018-09-25T20:32:05.819Z</time>
      </trkpt>
      <trkpt lat="43.43042" lon="3.52642">
        <ele>34.5</ele>
        <time>2018-09-25T20:32:06.819Z</time>
      </trkpt>
      <trkpt lat="43.4304" lon="3.52636">
        <ele>34.6</ele>
        <time>2018-09-25T20:32:07.819Z</time>
      </trkpt>
      <trkpt lat="43.43038" lon="3.52631">
        <ele>34.7</ele>
        <time>2018-09-25T20:32:08.819Z</time>
      </trkpt>
      <trkpt lat="43.43035" lon="3.52625">
        <ele>34.8</ele>
        <time>2018-09-25T20:32:09.819Z</time>
      </trkpt>
      <trkpt lat="43.43033" lon="3.52619">
        <ele>34.8</ele>
        <time>2018-09-25T20:32:10.819Z</time>
      </trkpt>
      <trkpt lat="43.43031" lon="3.52614">
        <ele>35</ele>
        <time>2018-09-25T20:32:11.819Z</time>
      </trkpt>
      <trkpt lat="43.43028" lon="3.52608">
        <ele>35.1</ele>
        <time>2018-09-25T20:32:12.819Z</time>
      </trkpt>
      <trkpt lat="43.43026" lon="3.52602">
        <ele>35.2</ele>
        <time>2018-09-25T20:32:13.819Z</time>
      </trkpt>
      <trkpt lat="43.43024" lon="3.52597">
        <ele>35.3</ele>
        <time>2018-09-25T20:32:14.819Z</time>
      </trkpt>
      <trkpt lat="43.43021" lon="3.52592">
        <ele>35.4</ele>
        <time>2018-09-25T20:32:15.819Z</time>
      </trkpt>
      <trkpt lat="43.43019" lon="3.52586">
        <ele>35.6</ele>
        <time>2018-09-25T20:32:16.819Z</time>
      </trkpt>
      <trkpt lat="43.43017" lon="3.52582">
        <ele>35.7</ele>
        <time>2018-09-25T20:32:17.819Z</time>
      </trkpt>
      <trkpt lat="43.43015" lon="3.52577">
        <ele>35.7</ele>
        <time>2018-09-25T20:32:18.819Z</time>
      </trkpt>
      <trkpt lat="43.43013" lon="3.52571">
        <ele>35.9</ele>
        <time>2018-09-25T20:32:19.819Z</time>
      </trkpt>
      <trkpt lat="43.4301" lon="3.52566">
        <ele>36.1</ele>
        <time>2018-09-25T20:32:20.819Z</time>
      </trkpt>
      <trkpt lat="43.43008" lon="3.52561">
        <ele>36.2</ele>
        <time>2018-09-25T20:32:21.819Z</time>
      </trkpt>
      <trkpt lat="43.43006" lon="3.52556">
        <ele>36.3</ele>
        <time>2018-09-25T20:32:22.819Z</time>
      </trkpt>
      <trkpt lat="43.43003" lon="3.52551">
        <ele>36.4</ele>
        <time>2018-09-25T20:32:23.819Z</time>
      </trkpt>
      <trkpt lat="43.43001" lon="3.52546">
        <ele>36.5</ele>
        <time>2018-09-25T20:32:24.819Z</time>
      </trkpt>
      <trkpt lat="43.42998" lon="3.52541">
        <ele>36.7</ele>
        <time>2018-09-25T20:32:25.819Z</time>
      </trkpt>
      <trkpt lat="43.42996" lon="3.52536">
        <ele>36.7</ele>
        <time>2018-09-25T20:32:26.819Z</time>
      </trkpt>
      <trkpt lat="43.42994" lon="3.52531">
        <ele>36.8</ele>
        <time>2018-09-25T20:32:27.819Z</time>
      </trkpt>
      <trkpt lat="43.42992" lon="3.52526">
        <ele>36.9</ele>
        <time>2018-09-25T20:32:28.819Z</time>
      </trkpt>
      <trkpt lat="43.4299" lon="3.52521">
        <ele>37</ele>
        <time>2018-09-25T20:32:29.819Z</time>
      </trkpt>
      <trkpt lat="43.42988" lon="3.52516">
        <ele>37.1</ele>
        <time>2018-09-25T20:32:30.819Z</time>
      </trkpt>
      <trkpt lat="43.42986" lon="3.52512">
        <ele>37.2</ele>
        <time>2018-09-25T20:32:31.819Z</time>
      </trkpt>
      <trkpt lat="43.42983" lon="3.52508">
        <ele>37.3</ele>
        <time>2018-09-25T20:32:32.819Z</time>
      </trkpt>
      <trkpt lat="43.42981" lon="3.52504">
        <ele>37.4</ele>
        <time>2018-09-25T20:32:33.819Z</time>
      </trkpt>
      <trkpt lat="43.42978" lon="3.52499">
        <ele>37.5</ele>
        <time>2018-09-25T20:32:34.819Z</time>
      </trkpt>
      <trkpt lat="43.42976" lon="3.52494">
        <ele>37.6</ele>
        <time>2018-09-25T20:32:35.819Z</time>
      </trkpt>
      <trkpt lat="43.42974" lon="3.5249">
        <ele>37.7</ele>
        <time>2018-09-25T20:32:36.819Z</time>
      </trkpt>
      <trkpt lat="43.42972" lon="3.52485">
        <ele>37.9</ele>
        <time>2018-09-25T20:32:37.819Z</time>
      </trkpt>
      <trkpt lat="43.4297" lon="3.5248">
        <ele>38.1</ele>
        <time>2018-09-25T20:32:38.819Z</time>
      </trkpt>
      <trkpt lat="43.42967" lon="3.52475">
        <ele>38.3</ele>
        <time>2018-09-25T20:32:39.819Z</time>
      </trkpt>
      <trkpt lat="43.42965" lon="3.5247">
        <ele>38.4</ele>
        <time>2018-09-25T20:32:40.819Z</time>
      </trkpt>
      <trkpt lat="43.42962" lon="3.52466">
        <ele>38.6</ele>
        <time>2018-09-25T20:32:41.819Z</time>
      </trkpt>
      <trkpt lat="43.4296" lon="3.5246">
        <ele>38.8</ele>
        <time>2018-09-25T20:32:42.819Z</time>
      </trkpt>
      <trkpt lat="43.42957" lon="3.52455">
        <ele>39.2</ele>
        <time>2018-09-25T20:32:43.819Z</time>
      </trkpt>
      <trkpt lat="43.42955" lon="3.5245">
        <ele>39.4</ele>
        <time>2018-09-25T20:32:44.819Z</time>
      </trkpt>
      <trkpt lat="43.42953" lon="3.52445">
        <ele>39.6</ele>
        <time>2018-09-25T20:32:45.819Z</time>
      </trkpt>
      <trkpt lat="43.4295" lon="3.5244">
        <ele>39.8</ele>
        <time>2018-09-25T20:32:46.819Z</time>
      </trkpt>
      <trkpt lat="43.42948" lon="3.52435">
        <ele>40</ele>
        <time>2018-09-25T20:32:47.819Z</time>
      </trkpt>
      <trkpt lat="43.42946" lon="3.5243">
        <ele>40.2</ele>
        <time>2018-09-25T20:32:48.819Z</time>
      </trkpt>
      <trkpt lat="43.42944" lon="3.52425">
        <ele>40.6</ele>
        <time>2018-09-25T20:32:49.819Z</time>
      </trkpt>
      <trkpt lat="43.42942" lon="3.5242">
        <ele>40.9</ele>
        <time>2018-09-25T20:32:50.819Z</time>
      </trkpt>
      <trkpt lat="43.4294" lon="3.52415">
        <ele>41.1</ele>
        <time>2018-09-25T20:32:51.819Z</time>
      </trkpt>
      <trkpt lat="43.42938" lon="3.5241">
        <ele>41.3</ele>
        <time>2018-09-25T20:32:52.819Z</time>
      </trkpt>
      <trkpt lat="43.42936" lon="3.52405">
        <ele>41.5</ele>
        <time>2018-09-25T20:32:53.819Z</time>
      </trkpt>
      <trkpt lat="43.42934" lon="3.524">
        <ele>41.7</ele>
        <time>2018-09-25T20:32:54.819Z</time>
      </trkpt>
      <trkpt lat="43.42932" lon="3.52396">
        <ele>41.9</ele>
        <time>2018-09-25T20:32:55.819Z</time>
      </trkpt>
      <trkpt lat="43.4293" lon="3.52391">
        <ele>42.2</ele>
        <time>2018-09-25T20:32:56.819Z</time>
      </trkpt>
      <trkpt lat="43.42928" lon="3.52387">
        <ele>42.4</ele>
        <time>2018-09-25T20:32:57.819Z</time>
      </trkpt>
      <trkpt lat="43.42925" lon="3.52383">
        <ele>42.7</ele>
        <time>2018-09-25T20:32:58.819Z</time>
      </trkpt>
      <trkpt lat="43.42923" lon="3.52379">
        <ele>43</ele>
        <time>2018-09-25T20:32:59.819Z</time>
      </trkpt>
      <trkpt lat="43.4292" lon="3.52375">
        <ele>43.2</ele>
        <time>2018-09-25T20:33:00.819Z</time>
      </trkpt>
      <trkpt lat="43.42919" lon="3.52369">
        <ele>43.5</ele>
        <time>2018-09-25T20:33:01.819Z</time>
      </trkpt>
      <trkpt lat="43.42917" lon="3.52364">
        <ele>43.8</ele>
        <time>2018-09-25T20:33:02.819Z</time>
      </trkpt>
      <trkpt lat="43.42915" lon="3.52359">
        <ele>44</ele>
        <time>2018-09-25T20:33:03.819Z</time>
      </trkpt>
      <trkpt lat="43.42913" lon="3.52355">
        <ele>44.2</ele>
        <time>2018-09-25T20:33:04.819Z</time>
      </trkpt>
      <trkpt lat="43.42911" lon="3.5235">
        <ele>44.5</ele>
        <time>2018-09-25T20:33:05.819Z</time>
      </trkpt>
      <trkpt lat="43.42909" lon="3.52345">
        <ele>44.7</ele>
        <time>2018-09-25T20:33:06.819Z</time>
      </trkpt>
      <trkpt lat="43.42906" lon="3.5234">
        <ele>45</ele>
        <time>2018-09-25T20:33:07.819Z</time>
      </trkpt>
      <trkpt lat="43.42904" lon="3.52336">
        <ele>45.3</ele>
        <time>2018-09-25T20:33:08.819Z</time>
      </trkpt>
      <trkpt lat="43.42902" lon="3.52331">
        <ele>45.6</ele>
        <time>2018-09-25T20:33:09.819Z</time>
      </trkpt>
      <trkpt lat="43.42899" lon="3.52327">
        <ele>45.8</ele>
        <time>2018-09-25T20:33:10.819Z</time>
      </trkpt>
      <trkpt lat="43.42897" lon="3.52322">
        <ele>46.2</ele>
        <time>2018-09-25T20:33:11.819Z</time>
      </trkpt>
      <trkpt lat="43.42895" lon="3.52316">
        <ele>46.4</ele>
        <time>2018-09-25T20:33:12.819Z</time>
      </trkpt>
      <trkpt lat="43.42893" lon="3.52312">
        <ele>46.4</ele>
        <time>2018-09-25T20:33:13.819Z</time>
      </trkpt>
      <trkpt lat="43.42891" lon="3.52307">
        <ele>46.6</ele>
        <time>2018-09-25T20:33:14.819Z</time>
      </trkpt>
      <trkpt lat="43.42889" lon="3.52302">
        <ele>46.9</ele>
        <time>2018-09-25T20:33:15.819Z</time>
      </trkpt>
      <trkpt lat="43.42887" lon="3.52297">
        <ele>47</ele>
        <time>2018-09-25T20:33:16.819Z</time>
      </trkpt>
      <trkpt lat="43.42885" lon="3.52292">
        <ele>47.2</ele>
        <time>2018-09-25T20:33:17.819Z</time>
      </trkpt>
      <trkpt lat="43.42884" lon="3.52288">
        <ele>47.5</ele>
        <time>2018-09-25T20:33:18.819Z</time>
      </trkpt>
      <trkpt lat="43.42882" lon="3.52282">
        <ele>47.8</ele>
        <time>2018-09-25T20:33:19.819Z</time>
      </trkpt>
      <trkpt lat="43.4288" lon="3.52277">
        <ele>48.1</ele>
        <time>2018-09-25T20:33:20.819Z</time>
      </trkpt>
      <trkpt lat="43.42879" lon="3.52272">
        <ele>48.2</ele>
        <time>2018-09-25T20:33:21.819Z</time>
      </trkpt>
      <trkpt lat="43.42877" lon="3.52266">
        <ele>48.5</ele>
        <time>2018-09-25T20:33:22.819Z</time>
      </trkpt>
      <trkpt lat="43.42876" lon="3.52261">
        <ele>48.7</ele>
        <time>2018-09-25T20:33:23.819Z</time>
      </trkpt>
      <trkpt lat="43.42874" lon="3.52256">
        <ele>48.9</ele>
        <time>2018-09-25T20:33:24.819Z</time>
      </trkpt>
      <trkpt lat="43.42873" lon="3.52253">
        <ele>49.1</ele>
        <time>2018-09-25T20:33:25.819Z</time>
      </trkpt>
      <trkpt lat="43.4287" lon="3.52249">
        <ele>49.3</ele>
        <time>2018-09-25T20:33:26.819Z</time>
      </trkpt>
      <trkpt lat="43.42868" lon="3.52246">
        <ele>49.3</ele>
        <time>2018-09-25T20:33:27.819Z</time>
      </trkpt>
      <trkpt lat="43.42866" lon="3.52242">
        <ele>49.5</ele>
        <time>2018-09-25T20:33:28.819Z</time>
      </trkpt>
      <trkpt lat="43.42863" lon="3.52237">
        <ele>49.8</ele>
        <time>2018-09-25T20:33:29.819Z</time>
      </trkpt>
      <trkpt lat="43.42861" lon="3.52232">
        <ele>50.2</ele>
        <time>2018-09-25T20:33:30.819Z</time>
      </trkpt>
      <trkpt lat="43.42859" lon="3.52227">
        <ele>50.4</ele>
        <time>2018-09-25T20:33:31.819Z</time>
      </trkpt>
      <trkpt lat="43.42857" lon="3.52224">
        <ele>50.4</ele>
        <time>2018-09-25T20:33:32.819Z</time>
      </trkpt>
      <trkpt lat="43.42855" lon="3.52219">
        <ele>51</ele>
        <time>2018-09-25T20:33:33.819Z</time>
      </trkpt>
      <trkpt lat="43.42853" lon="3.52215">
        <ele>51.2</ele>
        <time>2018-09-25T20:33:34.819Z</time>
      </trkpt>
      <trkpt lat="43.4285" lon="3.5221">
        <ele>51.5</ele>
        <time>2018-09-25T20:33:35.819Z</time>
      </trkpt>
      <trkpt lat="43.42848" lon="3.52206">
        <ele>51.8</ele>
        <time>2018-09-25T20:33:36.819Z</time>
      </trkpt>
      <trkpt lat="43.42846" lon="3.52201">
        <ele>52.1</ele>
        <time>2018-09-25T20:33:37.819Z</time>
      </trkpt>
      <trkpt lat="43.42844" lon="3.52197">
        <ele>52.4</ele>
        <time>2018-09-25T20:33:38.819Z</time>
      </trkpt>
      <trkpt lat="43.42842" lon="3.52192">
        <ele>52.7</ele>
        <time>2018-09-25T20:33:39.819Z</time>
      </trkpt>
      <trkpt lat="43.4284" lon="3.52188">
        <ele>53</ele>
        <time>2018-09-25T20:33:40.819Z</time>
      </trkpt>
      <trkpt lat="43.42838" lon="3.52183">
        <ele>53.3</ele>
        <time>2018-09-25T20:33:41.819Z</time>
      </trkpt>
      <trkpt lat="43.42835" lon="3.52178">
        <ele>53.6</ele>
        <time>2018-09-25T20:33:42.819Z</time>
      </trkpt>
      <trkpt lat="43.42834" lon="3.52174">
        <ele>53.8</ele>
        <time>2018-09-25T20:33:43.819Z</time>
      </trkpt>
      <trkpt lat="43.42831" lon="3.52169">
        <ele>54.1</ele>
        <time>2018-09-25T20:33:44.819Z</time>
      </trkpt>
      <trkpt lat="43.42829" lon="3.52164">
        <ele>54.5</ele>
        <time>2018-09-25T20:33:45.819Z</time>
      </trkpt>
      <trkpt lat="43.42827" lon="3.52159">
        <ele>54.8</ele>
        <time>2018-09-25T20:33:46.819Z</time>
      </trkpt>
      <trkpt lat="43.42824" lon="3.52155">
        <ele>55.3</ele>
        <time>2018-09-25T20:33:47.819Z</time>
      </trkpt>
      <trkpt lat="43.42822" lon="3.5215">
        <ele>55.7</ele>
        <time>2018-09-25T20:33:48.819Z</time>
      </trkpt>
      <trkpt lat="43.42819" lon="3.52145">
        <ele>56</ele>
        <time>2018-09-25T20:33:49.819Z</time>
      </trkpt>
      <trkpt lat="43.42817" lon="3.52141">
        <ele>56.3</ele>
        <time>2018-09-25T20:33:50.819Z</time>
      </trkpt>
      <trkpt lat="43.42815" lon="3.52136">
        <ele>56.6</ele>
        <time>2018-09-25T20:33:51.819Z</time>
      </trkpt>
      <trkpt lat="43.42813" lon="3.52132">
        <ele>56.9</ele>
        <time>2018-09-25T20:33:52.819Z</time>
      </trkpt>
      <trkpt lat="43.42811" lon="3.52126">
        <ele>57.1</ele>
        <time>2018-09-25T20:33:53.819Z</time>
      </trkpt>
      <trkpt lat="43.42809" lon="3.52122">
        <ele>57.4</ele>
        <time>2018-09-25T20:33:54.819Z</time>
      </trkpt>
      <trkpt lat="43.42808" lon="3.52118">
        <ele>57.7</ele>
        <time>2018-09-25T20:33:55.819Z</time>
      </trkpt>
      <trkpt lat="43.42806" lon="3.52113">
        <ele>57.9</ele>
        <time>2018-09-25T20:33:56.819Z</time>
      </trkpt>
      <trkpt lat="43.42805" lon="3.52109">
        <ele>58.2</ele>
        <time>2018-09-25T20:33:57.819Z</time>
      </trkpt>
      <trkpt lat="43.42803" lon="3.52103">
        <ele>58.7</ele>
        <time>2018-09-25T20:33:58.819Z</time>
      </trkpt>
      <trkpt lat="43.42801" lon="3.52098">
        <ele>58.9</ele>
        <time>2018-09-25T20:33:59.819Z</time>
      </trkpt>
      <trkpt lat="43.42799" lon="3.52093">
        <ele>59.1</ele>
        <time>2018-09-25T20:34:00.819Z</time>
      </trkpt>
      <trkpt lat="43.42797" lon="3.52089">
        <ele>59.3</ele>
        <time>2018-09-25T20:34:01.819Z</time>
      </trkpt>
      <trkpt lat="43.42795" lon="3.52085">
        <ele>59.5</ele>
        <time>2018-09-25T20:34:02.819Z</time>
      </trkpt>
      <trkpt lat="43.42793" lon="3.52082">
        <ele>59.6</ele>
        <time>2018-09-25T20:34:03.819Z</time>
      </trkpt>
      <trkpt lat="43.42791" lon="3.52078">
        <ele>59.7</ele>
        <time>2018-09-25T20:34:04.819Z</time>
      </trkpt>
      <trkpt lat="43.42788" lon="3.52074">
        <ele>60</ele>
        <time>2018-09-25T20:34:05.819Z</time>
      </trkpt>
      <trkpt lat="43.42786" lon="3.5207">
        <ele>60.3</ele>
        <time>2018-09-25T20:34:06.819Z</time>
      </trkpt>
      <trkpt lat="43.42784" lon="3.52066">
        <ele>60.5</ele>
        <time>2018-09-25T20:34:07.819Z</time>
      </trkpt>
      <trkpt lat="43.42782" lon="3.52062">
        <ele>60.8</ele>
        <time>2018-09-25T20:34:08.819Z</time>
      </trkpt>
      <trkpt lat="43.4278" lon="3.52059">
        <ele>61.2</ele>
        <time>2018-09-25T20:34:09.819Z</time>
      </trkpt>
      <trkpt lat="43.42778" lon="3.52056">
        <ele>61.4</ele>
        <time>2018-09-25T20:34:10.819Z</time>
      </trkpt>
      <trkpt lat="43.42775" lon="3.52051">
        <ele>61.8</ele>
        <time>2018-09-25T20:34:11.819Z</time>
      </trkpt>
      <trkpt lat="43.42774" lon="3.52047">
        <ele>62.2</ele>
        <time>2018-09-25T20:34:12.819Z</time>
      </trkpt>
      <trkpt lat="43.42772" lon="3.52043">
        <ele>62.4</ele>
        <time>2018-09-25T20:34:13.819Z</time>
      </trkpt>
      <trkpt lat="43.4277" lon="3.52039">
        <ele>62.5</ele>
        <time>2018-09-25T20:34:14.819Z</time>
      </trkpt>
      <trkpt lat="43.42768" lon="3.52035">
        <ele>63</ele>
        <time>2018-09-25T20:34:15.819Z</time>
      </trkpt>
      <trkpt lat="43.42766" lon="3.52031">
        <ele>63.2</ele>
        <time>2018-09-25T20:34:16.819Z</time>
      </trkpt>
      <trkpt lat="43.42765" lon="3.52026">
        <ele>63.7</ele>
        <time>2018-09-25T20:34:17.819Z</time>
      </trkpt>
      <trkpt lat="43.42763" lon="3.52021">
        <ele>64.1</ele>
        <time>2018-09-25T20:34:18.819Z</time>
      </trkpt>
      <trkpt lat="43.42762" lon="3.52016">
        <ele>64.5</ele>
        <time>2018-09-25T20:34:19.819Z</time>
      </trkpt>
      <trkpt lat="43.4276" lon="3.52012">
        <ele>64.7</ele>
        <time>2018-09-25T20:34:20.819Z</time>
      </trkpt>
      <trkpt lat="43.42758" lon="3.52007">
        <ele>65</ele>
        <time>2018-09-25T20:34:21.819Z</time>
      </trkpt>
      <trkpt lat="43.42756" lon="3.52002">
        <ele>65.3</ele>
        <time>2018-09-25T20:34:22.819Z</time>
      </trkpt>
      <trkpt lat="43.42754" lon="3.51997">
        <ele>65.6</ele>
        <time>2018-09-25T20:34:23.819Z</time>
      </trkpt>
      <trkpt lat="43.42753" lon="3.51993">
        <ele>65.8</ele>
        <time>2018-09-25T20:34:24.819Z</time>
      </trkpt>
      <trkpt lat="43.42751" lon="3.51988">
        <ele>66</ele>
        <time>2018-09-25T20:34:25.819Z</time>
      </trkpt>
      <trkpt lat="43.42749" lon="3.51984">
        <ele>66.3</ele>
        <time>2018-09-25T20:34:26.819Z</time>
      </trkpt>
      <trkpt lat="43.42748" lon="3.51979">
        <ele>66.5</ele>
        <time>2018-09-25T20:34:27.819Z</time>
      </trkpt>
      <trkpt lat="43.42746" lon="3.51975">
        <ele>66.7</ele>
        <time>2018-09-25T20:34:28.819Z</time>
      </trkpt>
      <trkpt lat="43.42744" lon="3.51971">
        <ele>66.9</ele>
        <time>2018-09-25T20:34:29.819Z</time>
      </trkpt>
      <trkpt lat="43.42742" lon="3.51966">
        <ele>67</ele>
        <time>2018-09-25T20:34:30.819Z</time>
      </trkpt>
      <trkpt lat="43.4274" lon="3.51962">
        <ele>67</ele>
        <time>2018-09-25T20:34:31.819Z</time>
      </trkpt>
      <trkpt lat="43.42739" lon="3.51958">
        <ele>67</ele>
        <time>2018-09-25T20:34:32.819Z</time>
      </trkpt>
      <trkpt lat="43.42737" lon="3.51954">
        <ele>67</ele>
        <time>2018-09-25T20:34:33.819Z</time>
      </trkpt>
      <trkpt lat="43.42736" lon="3.51949">
        <ele>66.9</ele>
        <time>2018-09-25T20:34:34.819Z</time>
      </trkpt>
      <trkpt lat="43.42734" lon="3.51945">
        <ele>66.9</ele>
        <time>2018-09-25T20:34:35.819Z</time>
      </trkpt>
      <trkpt lat="43.42733" lon="3.51941">
        <ele>66.9</ele>
        <time>2018-09-25T20:34:36.819Z</time>
      </trkpt>
      <trkpt lat="43.42731" lon="3.51937">
        <ele>66.9</ele>
        <time>2018-09-25T20:34:37.819Z</time>
      </trkpt>
      <trkpt lat="43.42729" lon="3.51933">
        <ele>66.9</ele>
        <time>2018-09-25T20:34:38.819Z</time>
      </trkpt>
      <trkpt lat="43.42727" lon="3.51928">
        <ele>66.9</ele>
        <time>2018-09-25T20:34:39.819Z</time>
      </trkpt>
      <trkpt lat="43.42725" lon="3.51925">
        <ele>66.9</ele>
        <time>2018-09-25T20:34:40.819Z</time>
      </trkpt>
      <trkpt lat="43.42723" lon="3.51918">
        <ele>66.9</ele>
        <time>2018-09-25T20:34:42.819Z</time>
      </trkpt>
      <trkpt lat="43.42721" lon="3.51913">
        <ele>66.8</ele>
        <time>2018-09-25T20:34:43.819Z</time>
      </trkpt>
      <trkpt lat="43.4272" lon="3.51909">
        <ele>66.8</ele>
        <time>2018-09-25T20:34:44.819Z</time>
      </trkpt>
      <trkpt lat="43.42718" lon="3.51905">
        <ele>66.8</ele>
        <time>2018-09-25T20:34:45.819Z</time>
      </trkpt>
      <trkpt lat="43.42717" lon="3.51901">
        <ele>66.8</ele>
        <time>2018-09-25T20:34:46.819Z</time>
      </trkpt>
      <trkpt lat="43.42716" lon="3.51897">
        <ele>66.8</ele>
        <time>2018-09-25T20:34:47.819Z</time>
      </trkpt>
      <trkpt lat="43.42714" lon="3.51893">
        <ele>66.8</ele>
        <time>2018-09-25T20:34:48.819Z</time>
      </trkpt>
      <trkpt lat="43.42713" lon="3.51889">
        <ele>66.8</ele>
        <time>2018-09-25T20:34:49.819Z</time>
      </trkpt>
      <trkpt lat="43.42712" lon="3.51885">
        <ele>66.8</ele>
        <time>2018-09-25T20:34:50.819Z</time>
      </trkpt>
      <trkpt lat="43.4271" lon="3.51881">
        <ele>66.8</ele>
        <time>2018-09-25T20:34:51.819Z</time>
      </trkpt>
      <trkpt lat="43.42709" lon="3.51877">
        <ele>66.8</ele>
        <time>2018-09-25T20:34:52.819Z</time>
      </trkpt>
      <trkpt lat="43.42707" lon="3.5187">
        <ele>66.8</ele>
        <time>2018-09-25T20:34:54.819Z</time>
      </trkpt>
      <trkpt lat="43.42706" lon="3.51866">
        <ele>66.8</ele>
        <time>2018-09-25T20:34:55.819Z</time>
      </trkpt>
      <trkpt lat="43.42704" lon="3.51862">
        <ele>66.8</ele>
        <time>2018-09-25T20:34:56.819Z</time>
      </trkpt>
      <trkpt lat="43.42703" lon="3.51858">
        <ele>66.9</ele>
        <time>2018-09-25T20:34:57.819Z</time>
      </trkpt>
      <trkpt lat="43.42701" lon="3.51854">
        <ele>66.9</ele>
        <time>2018-09-25T20:34:58.819Z</time>
      </trkpt>
      <trkpt lat="43.427" lon="3.5185">
        <ele>66.9</ele>
        <time>2018-09-25T20:34:59.819Z</time>
      </trkpt>
      <trkpt lat="43.42698" lon="3.51843">
        <ele>67.1</ele>
        <time>2018-09-25T20:35:01.819Z</time>
      </trkpt>
      <trkpt lat="43.42696" lon="3.51839">
        <ele>67.1</ele>
        <time>2018-09-25T20:35:02.819Z</time>
      </trkpt>
      <trkpt lat="43.42693" lon="3.51834">
        <ele>67.2</ele>
        <time>2018-09-25T20:35:04.819Z</time>
      </trkpt>
      <trkpt lat="43.42695" lon="3.51829">
        <ele>67.3</ele>
        <time>2018-09-25T20:35:06.819Z</time>
      </trkpt>
      <trkpt lat="43.42699" lon="3.51827">
        <ele>67.4</ele>
        <time>2018-09-25T20:35:07.819Z</time>
      </trkpt>
      <trkpt lat="43.42702" lon="3.51824">
        <ele>67.5</ele>
        <time>2018-09-25T20:35:08.819Z</time>
      </trkpt>
      <trkpt lat="43.42706" lon="3.51821">
        <ele>67.5</ele>
        <time>2018-09-25T20:35:09.819Z</time>
      </trkpt>
      <trkpt lat="43.42709" lon="3.51817">
        <ele>67.6</ele>
        <time>2018-09-25T20:35:10.819Z</time>
      </trkpt>
      <trkpt lat="43.42713" lon="3.51813">
        <ele>67.7</ele>
        <time>2018-09-25T20:35:11.819Z</time>
      </trkpt>
      <trkpt lat="43.42717" lon="3.51809">
        <ele>67.8</ele>
        <time>2018-09-25T20:35:12.819Z</time>
      </trkpt>
      <trkpt lat="43.42719" lon="3.51806">
        <ele>67.9</ele>
        <time>2018-09-25T20:35:13.819Z</time>
      </trkpt>
      <trkpt lat="43.42723" lon="3.51803">
        <ele>67.9</ele>
        <time>2018-09-25T20:35:14.819Z</time>
      </trkpt>
      <trkpt lat="43.42726" lon="3.518">
        <ele>68</ele>
        <time>2018-09-25T20:35:15.819Z</time>
      </trkpt>
      <trkpt lat="43.42729" lon="3.51798">
        <ele>68.1</ele>
        <time>2018-09-25T20:35:16.819Z</time>
      </trkpt>
      <trkpt lat="43.42732" lon="3.51795">
        <ele>68.1</ele>
        <time>2018-09-25T20:35:17.819Z</time>
      </trkpt>
      <trkpt lat="43.42735" lon="3.51792">
        <ele>68.2</ele>
        <time>2018-09-25T20:35:18.819Z</time>
      </trkpt>
      <trkpt lat="43.42738" lon="3.5179">
        <ele>68.3</ele>
        <time>2018-09-25T20:35:19.819Z</time>
      </trkpt>
      <trkpt lat="43.42742" lon="3.51787">
        <ele>68.3</ele>
        <time>2018-09-25T20:35:20.819Z</time>
      </trkpt>
      <trkpt lat="43.42746" lon="3.51785">
        <ele>68.4</ele>
        <time>2018-09-25T20:35:21.819Z</time>
      </trkpt>
      <trkpt lat="43.42749" lon="3.51783">
        <ele>68.5</ele>
        <time>2018-09-25T20:35:22.819Z</time>
      </trkpt>
      <trkpt lat="43.42752" lon="3.5178">
        <ele>68.5</ele>
        <time>2018-09-25T20:35:23.819Z</time>
      </trkpt>
      <trkpt lat="43.42755" lon="3.51779">
        <ele>68.6</ele>
        <time>2018-09-25T20:35:24.819Z</time>
      </trkpt>
      <trkpt lat="43.42758" lon="3.51779">
        <ele>68.7</ele>
        <time>2018-09-25T20:35:25.819Z</time>
      </trkpt>
      <trkpt lat="43.42761" lon="3.51778">
        <ele>68.7</ele>
        <time>2018-09-25T20:35:26.819Z</time>
      </trkpt>
      <trkpt lat="43.42764" lon="3.51777">
        <ele>68.8</ele>
        <time>2018-09-25T20:35:27.819Z</time>
      </trkpt>
      <trkpt lat="43.42767" lon="3.51776">
        <ele>68.8</ele>
        <time>2018-09-25T20:35:28.819Z</time>
      </trkpt>
      <trkpt lat="43.42771" lon="3.51774">
        <ele>68.9</ele>
        <time>2018-09-25T20:35:29.819Z</time>
      </trkpt>
      <trkpt lat="43.42775" lon="3.51773">
        <ele>69.1</ele>
        <time>2018-09-25T20:35:30.819Z</time>
      </trkpt>
      <trkpt lat="43.42778" lon="3.51772">
        <ele>69.2</ele>
        <time>2018-09-25T20:35:31.819Z</time>
      </trkpt>
      <trkpt lat="43.42781" lon="3.51771">
        <ele>69.3</ele>
        <time>2018-09-25T20:35:32.819Z</time>
      </trkpt>
      <trkpt lat="43.42787" lon="3.5177">
        <ele>69.6</ele>
        <time>2018-09-25T20:35:34.819Z</time>
      </trkpt>
      <trkpt lat="43.4279" lon="3.51769">
        <ele>69.8</ele>
        <time>2018-09-25T20:35:35.819Z</time>
      </trkpt>
      <trkpt lat="43.42793" lon="3.51768">
        <ele>69.9</ele>
        <time>2018-09-25T20:35:36.819Z</time>
      </trkpt>
      <trkpt lat="43.42796" lon="3.51768">
        <ele>70</ele>
        <time>2018-09-25T20:35:37.819Z</time>
      </trkpt>
      <trkpt lat="43.428" lon="3.51767">
        <ele>70.1</ele>
        <time>2018-09-25T20:35:38.819Z</time>
      </trkpt>
      <trkpt lat="43.42804" lon="3.51766">
        <ele>70.2</ele>
        <time>2018-09-25T20:35:39.819Z</time>
      </trkpt>
      <trkpt lat="43.42807" lon="3.51765">
        <ele>70.3</ele>
        <time>2018-09-25T20:35:40.819Z</time>
      </trkpt>
      <trkpt lat="43.42811" lon="3.51764">
        <ele>70.4</ele>
        <time>2018-09-25T20:35:41.819Z</time>
      </trkpt>
      <trkpt lat="43.42815" lon="3.51763">
        <ele>70.6</ele>
        <time>2018-09-25T20:35:42.819Z</time>
      </trkpt>
      <trkpt lat="43.42818" lon="3.51761">
        <ele>70.7</ele>
        <time>2018-09-25T20:35:43.819Z</time>
      </trkpt>
      <trkpt lat="43.42822" lon="3.5176">
        <ele>70.8</ele>
        <time>2018-09-25T20:35:44.819Z</time>
      </trkpt>
      <trkpt lat="43.42826" lon="3.51759">
        <ele>71</ele>
        <time>2018-09-25T20:35:45.819Z</time>
      </trkpt>
      <trkpt lat="43.42828" lon="3.51758">
        <ele>71.1</ele>
        <time>2018-09-25T20:35:46.819Z</time>
      </trkpt>
      <trkpt lat="43.42834" lon="3.51756">
        <ele>71.5</ele>
        <time>2018-09-25T20:35:48.819Z</time>
      </trkpt>
      <trkpt lat="43.42837" lon="3.51754">
        <ele>71.7</ele>
        <time>2018-09-25T20:35:49.819Z</time>
      </trkpt>
      <trkpt lat="43.42841" lon="3.51753">
        <ele>71.8</ele>
        <time>2018-09-25T20:35:50.819Z</time>
      </trkpt>
      <trkpt lat="43.42844" lon="3.51752">
        <ele>71.9</ele>
        <time>2018-09-25T20:35:51.819Z</time>
      </trkpt>
      <trkpt lat="43.42848" lon="3.51751">
        <ele>72</ele>
        <time>2018-09-25T20:35:52.819Z</time>
      </trkpt>
      <trkpt lat="43.42852" lon="3.5175">
        <ele>72.1</ele>
        <time>2018-09-25T20:35:53.819Z</time>
      </trkpt>
      <trkpt lat="43.42855" lon="3.51749">
        <ele>72.3</ele>
        <time>2018-09-25T20:35:54.819Z</time>
      </trkpt>
      <trkpt lat="43.42859" lon="3.51749">
        <ele>72.4</ele>
        <time>2018-09-25T20:35:55.819Z</time>
      </trkpt>
      <trkpt lat="43.42861" lon="3.51749">
        <ele>72.4</ele>
        <time>2018-09-25T20:35:56.819Z</time>
      </trkpt>
      <trkpt lat="43.42865" lon="3.51747">
        <ele>72.5</ele>
        <time>2018-09-25T20:35:57.819Z</time>
      </trkpt>
      <trkpt lat="43.42868" lon="3.51746">
        <ele>72.6</ele>
        <time>2018-09-25T20:35:58.819Z</time>
      </trkpt>
      <trkpt lat="43.42871" lon="3.51746">
        <ele>72.7</ele>
        <time>2018-09-25T20:35:59.819Z</time>
      </trkpt>
      <trkpt lat="43.42874" lon="3.51746">
        <ele>72.8</ele>
        <time>2018-09-25T20:36:00.819Z</time>
      </trkpt>
      <trkpt lat="43.42878" lon="3.51745">
        <ele>72.9</ele>
        <time>2018-09-25T20:36:01.819Z</time>
      </trkpt>
      <trkpt lat="43.42881" lon="3.51745">
        <ele>73</ele>
        <time>2018-09-25T20:36:02.819Z</time>
      </trkpt>
      <trkpt lat="43.42884" lon="3.51745">
        <ele>73.2</ele>
        <time>2018-09-25T20:36:03.819Z</time>
      </trkpt>
      <trkpt lat="43.4289" lon="3.51745">
        <ele>73.4</ele>
        <time>2018-09-25T20:36:05.819Z</time>
      </trkpt>
      <trkpt lat="43.42893" lon="3.51745">
        <ele>73.6</ele>
        <time>2018-09-25T20:36:06.819Z</time>
      </trkpt>
      <trkpt lat="43.42897" lon="3.51744">
        <ele>73.8</ele>
        <time>2018-09-25T20:36:07.819Z</time>
      </trkpt>
      <trkpt lat="43.429" lon="3.51744">
        <ele>73.9</ele>
        <time>2018-09-25T20:36:08.819Z</time>
      </trkpt>
      <trkpt lat="43.42903" lon="3.51744">
        <ele>73.9</ele>
        <time>2018-09-25T20:36:09.819Z</time>
      </trkpt>
      <trkpt lat="43.42906" lon="3.51743">
        <ele>74</ele>
        <time>2018-09-25T20:36:10.819Z</time>
      </trkpt>
      <trkpt lat="43.42909" lon="3.51743">
        <ele>74.1</ele>
        <time>2018-09-25T20:36:11.819Z</time>
      </trkpt>
      <trkpt lat="43.42912" lon="3.51743">
        <ele>74.1</ele>
        <time>2018-09-25T20:36:12.819Z</time>
      </trkpt>
      <trkpt lat="43.42916" lon="3.51742">
        <ele>74.2</ele>
        <time>2018-09-25T20:36:13.819Z</time>
      </trkpt>
      <trkpt lat="43.42919" lon="3.51741">
        <ele>74.2</ele>
        <time>2018-09-25T20:36:14.819Z</time>
      </trkpt>
      <trkpt lat="43.42922" lon="3.51741">
        <ele>74.3</ele>
        <time>2018-09-25T20:36:15.819Z</time>
      </trkpt>
      <trkpt lat="43.42926" lon="3.5174">
        <ele>74.4</ele>
        <time>2018-09-25T20:36:16.819Z</time>
      </trkpt>
      <trkpt lat="43.42929" lon="3.51739">
        <ele>74.6</ele>
        <time>2018-09-25T20:36:17.819Z</time>
      </trkpt>
      <trkpt lat="43.42932" lon="3.51738">
        <ele>74.7</ele>
        <time>2018-09-25T20:36:18.819Z</time>
      </trkpt>
      <trkpt lat="43.42936" lon="3.51738">
        <ele>74.9</ele>
        <time>2018-09-25T20:36:19.819Z</time>
      </trkpt>
      <trkpt lat="43.42939" lon="3.51737">
        <ele>75.1</ele>
        <time>2018-09-25T20:36:20.819Z</time>
      </trkpt>
      <trkpt lat="43.42943" lon="3.51736">
        <ele>75.2</ele>
        <time>2018-09-25T20:36:21.819Z</time>
      </trkpt>
      <trkpt lat="43.42947" lon="3.51735">
        <ele>75.4</ele>
        <time>2018-09-25T20:36:22.819Z</time>
      </trkpt>
      <trkpt lat="43.42951" lon="3.51735">
        <ele>75.5</ele>
        <time>2018-09-25T20:36:23.819Z</time>
      </trkpt>
      <trkpt lat="43.42954" lon="3.51734">
        <ele>75.6</ele>
        <time>2018-09-25T20:36:24.819Z</time>
      </trkpt>
      <trkpt lat="43.42958" lon="3.51733">
        <ele>75.8</ele>
        <time>2018-09-25T20:36:25.819Z</time>
      </trkpt>
      <trkpt lat="43.42962" lon="3.51733">
        <ele>75.9</ele>
        <time>2018-09-25T20:36:26.819Z</time>
      </trkpt>
      <trkpt lat="43.42966" lon="3.51732">
        <ele>76.1</ele>
        <time>2018-09-25T20:36:27.819Z</time>
      </trkpt>
      <trkpt lat="43.42969" lon="3.51732">
        <ele>76.2</ele>
        <time>2018-09-25T20:36:28.819Z</time>
      </trkpt>
      <trkpt lat="43.42972" lon="3.51731">
        <ele>76.3</ele>
        <time>2018-09-25T20:36:29.819Z</time>
      </trkpt>
      <trkpt lat="43.42976" lon="3.5173">
        <ele>76.5</ele>
        <time>2018-09-25T20:36:30.819Z</time>
      </trkpt>
      <trkpt lat="43.42979" lon="3.51729">
        <ele>76.6</ele>
        <time>2018-09-25T20:36:31.819Z</time>
      </trkpt>
      <trkpt lat="43.42982" lon="3.51728">
        <ele>76.7</ele>
        <time>2018-09-25T20:36:32.819Z</time>
      </trkpt>
      <trkpt lat="43.42985" lon="3.51728">
        <ele>76.8</ele>
        <time>2018-09-25T20:36:33.819Z</time>
      </trkpt>
      <trkpt lat="43.42988" lon="3.51727">
        <ele>77</ele>
        <time>2018-09-25T20:36:34.819Z</time>
      </trkpt>
      <trkpt lat="43.42992" lon="3.51726">
        <ele>77.2</ele>
        <time>2018-09-25T20:36:35.819Z</time>
      </trkpt>
      <trkpt lat="43.42995" lon="3.51725">
        <ele>77.4</ele>
        <time>2018-09-25T20:36:36.819Z</time>
      </trkpt>
      <trkpt lat="43.42998" lon="3.51724">
        <ele>77.7</ele>
        <time>2018-09-25T20:36:37.819Z</time>
      </trkpt>
      <trkpt lat="43.43001" lon="3.51723">
        <ele>77.9</ele>
        <time>2018-09-25T20:36:38.819Z</time>
      </trkpt>
      <trkpt lat="43.43007" lon="3.51721">
        <ele>78.3</ele>
        <time>2018-09-25T20:36:40.819Z</time>
      </trkpt>
      <trkpt lat="43.4301" lon="3.51721">
        <ele>78.4</ele>
        <time>2018-09-25T20:36:41.819Z</time>
      </trkpt>
      <trkpt lat="43.43013" lon="3.51721">
        <ele>78.5</ele>
        <time>2018-09-25T20:36:42.819Z</time>
      </trkpt>
      <trkpt lat="43.43016" lon="3.5172">
        <ele>78.6</ele>
        <time>2018-09-25T20:36:43.819Z</time>
      </trkpt>
      <trkpt lat="43.43019" lon="3.5172">
        <ele>78.7</ele>
        <time>2018-09-25T20:36:44.819Z</time>
      </trkpt>
      <trkpt lat="43.43023" lon="3.5172">
        <ele>79</ele>
        <time>2018-09-25T20:36:45.819Z</time>
      </trkpt>
      <trkpt lat="43.43027" lon="3.51719">
        <ele>79.2</ele>
        <time>2018-09-25T20:36:46.819Z</time>
      </trkpt>
      <trkpt lat="43.4303" lon="3.51719">
        <ele>79.3</ele>
        <time>2018-09-25T20:36:47.819Z</time>
      </trkpt>
      <trkpt lat="43.43034" lon="3.51716">
        <ele>79.4</ele>
        <time>2018-09-25T20:36:48.819Z</time>
      </trkpt>
      <trkpt lat="43.43037" lon="3.51715">
        <ele>79.4</ele>
        <time>2018-09-25T20:36:49.819Z</time>
      </trkpt>
      <trkpt lat="43.43039" lon="3.51712">
        <ele>79.5</ele>
        <time>2018-09-25T20:36:50.819Z</time>
      </trkpt>
      <trkpt lat="43.43042" lon="3.51709">
        <ele>79.5</ele>
        <time>2018-09-25T20:36:51.819Z</time>
      </trkpt>
      <trkpt lat="43.43045" lon="3.51706">
        <ele>79.5</ele>
        <time>2018-09-25T20:36:52.819Z</time>
      </trkpt>
      <trkpt lat="43.43049" lon="3.51702">
        <ele>79.5</ele>
        <time>2018-09-25T20:36:53.819Z</time>
      </trkpt>
      <trkpt lat="43.43053" lon="3.51698">
        <ele>79.5</ele>
        <time>2018-09-25T20:36:54.819Z</time>
      </trkpt>
      <trkpt lat="43.43057" lon="3.51696">
        <ele>79.5</ele>
        <time>2018-09-25T20:36:55.819Z</time>
      </trkpt>
      <trkpt lat="43.43061" lon="3.51692">
        <ele>79.5</ele>
        <time>2018-09-25T20:36:56.819Z</time>
      </trkpt>
      <trkpt lat="43.43065" lon="3.51689">
        <ele>79.5</ele>
        <time>2018-09-25T20:36:57.819Z</time>
      </trkpt>
      <trkpt lat="43.43069" lon="3.51686">
        <ele>79.5</ele>
        <time>2018-09-25T20:36:58.819Z</time>
      </trkpt>
      <trkpt lat="43.43072" lon="3.51683">
        <ele>79.5</ele>
        <time>2018-09-25T20:36:59.819Z</time>
      </trkpt>
      <trkpt lat="43.43076" lon="3.5168">
        <ele>79.5</ele>
        <time>2018-09-25T20:37:00.819Z</time>
      </trkpt>
      <trkpt lat="43.4308" lon="3.51677">
        <ele>79.5</ele>
        <time>2018-09-25T20:37:01.819Z</time>
      </trkpt>
      <trkpt lat="43.43085" lon="3.51673">
        <ele>79.5</ele>
        <time>2018-09-25T20:37:02.819Z</time>
      </trkpt>
      <trkpt lat="43.43088" lon="3.5167">
        <ele>79.5</ele>
        <time>2018-09-25T20:37:03.819Z</time>
      </trkpt>
      <trkpt lat="43.43092" lon="3.51668">
        <ele>79.4</ele>
        <time>2018-09-25T20:37:04.819Z</time>
      </trkpt>
      <trkpt lat="43.43095" lon="3.51665">
        <ele>79.4</ele>
        <time>2018-09-25T20:37:05.819Z</time>
      </trkpt>
      <trkpt lat="43.43099" lon="3.51663">
        <ele>79.4</ele>
        <time>2018-09-25T20:37:06.819Z</time>
      </trkpt>
      <trkpt lat="43.43102" lon="3.51661">
        <ele>79.4</ele>
        <time>2018-09-25T20:37:07.819Z</time>
      </trkpt>
      <trkpt lat="43.43106" lon="3.51659">
        <ele>79.4</ele>
        <time>2018-09-25T20:37:08.819Z</time>
      </trkpt>
      <trkpt lat="43.4311" lon="3.51657">
        <ele>79.4</ele>
        <time>2018-09-25T20:37:09.819Z</time>
      </trkpt>
      <trkpt lat="43.43114" lon="3.51655">
        <ele>79.4</ele>
        <time>2018-09-25T20:37:10.819Z</time>
      </trkpt>
      <trkpt lat="43.43117" lon="3.51654">
        <ele>79.4</ele>
        <time>2018-09-25T20:37:11.819Z</time>
      </trkpt>
      <trkpt lat="43.43121" lon="3.51654">
        <ele>79.4</ele>
        <time>2018-09-25T20:37:12.819Z</time>
      </trkpt>
      <trkpt lat="43.43124" lon="3.51655">
        <ele>79.3</ele>
        <time>2018-09-25T20:37:13.819Z</time>
      </trkpt>
      <trkpt lat="43.43127" lon="3.51655">
        <ele>79.3</ele>
        <time>2018-09-25T20:37:14.819Z</time>
      </trkpt>
      <trkpt lat="43.43132" lon="3.51654">
        <ele>79.3</ele>
        <time>2018-09-25T20:37:16.819Z</time>
      </trkpt>
      <trkpt lat="43.43135" lon="3.51653">
        <ele>79.2</ele>
        <time>2018-09-25T20:37:17.819Z</time>
      </trkpt>
      <trkpt lat="43.43138" lon="3.51651">
        <ele>79.1</ele>
        <time>2018-09-25T20:37:18.819Z</time>
      </trkpt>
      <trkpt lat="43.43142" lon="3.51646">
        <ele>79</ele>
        <time>2018-09-25T20:37:20.819Z</time>
      </trkpt>
      <trkpt lat="43.43146" lon="3.5164">
        <ele>78.8</ele>
        <time>2018-09-25T20:37:22.819Z</time>
      </trkpt>
      <trkpt lat="43.43147" lon="3.51637">
        <ele>78.8</ele>
        <time>2018-09-25T20:37:23.819Z</time>
      </trkpt>
      <trkpt lat="43.43149" lon="3.51633">
        <ele>78.7</ele>
        <time>2018-09-25T20:37:24.819Z</time>
      </trkpt>
      <trkpt lat="43.43151" lon="3.51629">
        <ele>78.7</ele>
        <time>2018-09-25T20:37:25.819Z</time>
      </trkpt>
      <trkpt lat="43.43153" lon="3.51626">
        <ele>78.6</ele>
        <time>2018-09-25T20:37:26.819Z</time>
      </trkpt>
      <trkpt lat="43.43155" lon="3.51623">
        <ele>78.6</ele>
        <time>2018-09-25T20:37:27.819Z</time>
      </trkpt>
      <trkpt lat="43.43158" lon="3.51619">
        <ele>78.5</ele>
        <time>2018-09-25T20:37:28.819Z</time>
      </trkpt>
      <trkpt lat="43.4316" lon="3.51613">
        <ele>78.4</ele>
        <time>2018-09-25T20:37:29.819Z</time>
      </trkpt>
      <trkpt lat="43.43163" lon="3.51607">
        <ele>78.3</ele>
        <time>2018-09-25T20:37:30.819Z</time>
      </trkpt>
      <trkpt lat="43.43166" lon="3.51601">
        <ele>78.3</ele>
        <time>2018-09-25T20:37:31.819Z</time>
      </trkpt>
      <trkpt lat="43.43169" lon="3.51596">
        <ele>78.2</ele>
        <time>2018-09-25T20:37:32.819Z</time>
      </trkpt>
      <trkpt lat="43.43172" lon="3.51591">
        <ele>78.2</ele>
        <time>2018-09-25T20:37:33.819Z</time>
      </trkpt>
      <trkpt lat="43.43175" lon="3.51586">
        <ele>78.1</ele>
        <time>2018-09-25T20:37:34.819Z</time>
      </trkpt>
      <trkpt lat="43.43178" lon="3.51581">
        <ele>78</ele>
        <time>2018-09-25T20:37:35.819Z</time>
      </trkpt>
      <trkpt lat="43.43181" lon="3.51576">
        <ele>77.9</ele>
        <time>2018-09-25T20:37:36.819Z</time>
      </trkpt>
      <trkpt lat="43.43185" lon="3.51571">
        <ele>77.8</ele>
        <time>2018-09-25T20:37:37.819Z</time>
      </trkpt>
      <trkpt lat="43.43188" lon="3.51565">
        <ele>77.6</ele>
        <time>2018-09-25T20:37:38.819Z</time>
      </trkpt>
      <trkpt lat="43.43192" lon="3.5156">
        <ele>77.5</ele>
        <time>2018-09-25T20:37:39.819Z</time>
      </trkpt>
      <trkpt lat="43.43195" lon="3.51554">
        <ele>77.3</ele>
        <time>2018-09-25T20:37:40.819Z</time>
      </trkpt>
      <trkpt lat="43.43198" lon="3.51549">
        <ele>77.2</ele>
        <time>2018-09-25T20:37:41.819Z</time>
      </trkpt>
      <trkpt lat="43.43202" lon="3.51543">
        <ele>77</ele>
        <time>2018-09-25T20:37:42.819Z</time>
      </trkpt>
      <trkpt lat="43.43205" lon="3.51538">
        <ele>77</ele>
        <time>2018-09-25T20:37:43.819Z</time>
      </trkpt>
      <trkpt lat="43.43209" lon="3.51532">
        <ele>76.9</ele>
        <time>2018-09-25T20:37:44.819Z</time>
      </trkpt>
      <trkpt lat="43.43213" lon="3.51527">
        <ele>76.8</ele>
        <time>2018-09-25T20:37:45.819Z</time>
      </trkpt>
      <trkpt lat="43.43216" lon="3.51522">
        <ele>76.7</ele>
        <time>2018-09-25T20:37:46.819Z</time>
      </trkpt>
      <trkpt lat="43.43219" lon="3.51518">
        <ele>76.6</ele>
        <time>2018-09-25T20:37:47.819Z</time>
      </trkpt>
      <trkpt lat="43.43222" lon="3.51514">
        <ele>76.6</ele>
        <time>2018-09-25T20:37:48.819Z</time>
      </trkpt>
      <trkpt lat="43.43225" lon="3.51509">
        <ele>76.5</ele>
        <time>2018-09-25T20:37:49.819Z</time>
      </trkpt>
      <trkpt lat="43.43227" lon="3.51505">
        <ele>76.5</ele>
        <time>2018-09-25T20:37:50.819Z</time>
      </trkpt>
      <trkpt lat="43.4323" lon="3.51501">
        <ele>76.4</ele>
        <time>2018-09-25T20:37:51.819Z</time>
      </trkpt>
      <trkpt lat="43.43233" lon="3.51497">
        <ele>76.4</ele>
        <time>2018-09-25T20:37:52.819Z</time>
      </trkpt>
      <trkpt lat="43.43236" lon="3.51493">
        <ele>76.3</ele>
        <time>2018-09-25T20:37:53.819Z</time>
      </trkpt>
      <trkpt lat="43.43238" lon="3.51488">
        <ele>76.3</ele>
        <time>2018-09-25T20:37:54.819Z</time>
      </trkpt>
      <trkpt lat="43.43241" lon="3.51484">
        <ele>76.2</ele>
        <time>2018-09-25T20:37:55.819Z</time>
      </trkpt>
      <trkpt lat="43.43243" lon="3.51481">
        <ele>76.2</ele>
        <time>2018-09-25T20:37:56.819Z</time>
      </trkpt>
      <trkpt lat="43.43245" lon="3.51477">
        <ele>76.1</ele>
        <time>2018-09-25T20:37:57.819Z</time>
      </trkpt>
      <trkpt lat="43.43247" lon="3.51473">
        <ele>76.1</ele>
        <time>2018-09-25T20:37:58.819Z</time>
      </trkpt>
      <trkpt lat="43.43249" lon="3.5147">
        <ele>76.1</ele>
        <time>2018-09-25T20:37:59.819Z</time>
      </trkpt>
      <trkpt lat="43.43251" lon="3.51466">
        <ele>76</ele>
        <time>2018-09-25T20:38:00.819Z</time>
      </trkpt>
      <trkpt lat="43.43253" lon="3.51463">
        <ele>76</ele>
        <time>2018-09-25T20:38:01.819Z</time>
      </trkpt>
      <trkpt lat="43.43255" lon="3.51459">
        <ele>76</ele>
        <time>2018-09-25T20:38:02.819Z</time>
      </trkpt>
      <trkpt lat="43.43258" lon="3.51455">
        <ele>76.1</ele>
        <time>2018-09-25T20:38:03.819Z</time>
      </trkpt>
      <trkpt lat="43.4326" lon="3.5145">
        <ele>76.1</ele>
        <time>2018-09-25T20:38:04.819Z</time>
      </trkpt>
      <trkpt lat="43.43262" lon="3.51445">
        <ele>76.1</ele>
        <time>2018-09-25T20:38:05.819Z</time>
      </trkpt>
      <trkpt lat="43.43264" lon="3.5144">
        <ele>76.2</ele>
        <time>2018-09-25T20:38:06.819Z</time>
      </trkpt>
      <trkpt lat="43.43266" lon="3.51436">
        <ele>76.2</ele>
        <time>2018-09-25T20:38:07.819Z</time>
      </trkpt>
      <trkpt lat="43.43267" lon="3.51431">
        <ele>76.2</ele>
        <time>2018-09-25T20:38:08.819Z</time>
      </trkpt>
      <trkpt lat="43.43268" lon="3.51427">
        <ele>76.2</ele>
        <time>2018-09-25T20:38:09.819Z</time>
      </trkpt>
      <trkpt lat="43.4327" lon="3.51424">
        <ele>76.3</ele>
        <time>2018-09-25T20:38:10.819Z</time>
      </trkpt>
      <trkpt lat="43.43273" lon="3.51418">
        <ele>76.3</ele>
        <time>2018-09-25T20:38:12.819Z</time>
      </trkpt>
      <trkpt lat="43.43276" lon="3.51412">
        <ele>76.4</ele>
        <time>2018-09-25T20:38:14.819Z</time>
      </trkpt>
      <trkpt lat="43.43279" lon="3.51408">
        <ele>76.4</ele>
        <time>2018-09-25T20:38:15.819Z</time>
      </trkpt>
      <trkpt lat="43.4328" lon="3.51405">
        <ele>76.4</ele>
        <time>2018-09-25T20:38:16.819Z</time>
      </trkpt>
      <trkpt lat="43.43284" lon="3.51399">
        <ele>76.5</ele>
        <time>2018-09-25T20:38:18.819Z</time>
      </trkpt>
      <trkpt lat="43.43287" lon="3.51395">
        <ele>76.6</ele>
        <time>2018-09-25T20:38:19.819Z</time>
      </trkpt>
      <trkpt lat="43.43289" lon="3.51391">
        <ele>76.6</ele>
        <time>2018-09-25T20:38:20.819Z</time>
      </trkpt>
      <trkpt lat="43.43292" lon="3.51388">
        <ele>76.7</ele>
        <time>2018-09-25T20:38:21.819Z</time>
      </trkpt>
      <trkpt lat="43.43295" lon="3.51385">
        <ele>76.8</ele>
        <time>2018-09-25T20:38:22.819Z</time>
      </trkpt>
      <trkpt lat="43.43299" lon="3.5138">
        <ele>76.8</ele>
        <time>2018-09-25T20:38:24.819Z</time>
      </trkpt>
      <trkpt lat="43.43304" lon="3.51378">
        <ele>77.1</ele>
        <time>2018-09-25T20:38:26.819Z</time>
      </trkpt>
      <trkpt lat="43.43309" lon="3.51378">
        <ele>77.4</ele>
        <time>2018-09-25T20:38:28.819Z</time>
      </trkpt>
      <trkpt lat="43.43312" lon="3.51379">
        <ele>77.7</ele>
        <time>2018-09-25T20:38:30.819Z</time>
      </trkpt>
      <trkpt lat="43.43317" lon="3.51381">
        <ele>78.2</ele>
        <time>2018-09-25T20:38:32.819Z</time>
      </trkpt>
      <trkpt lat="43.43323" lon="3.51376">
        <ele>78.6</ele>
        <time>2018-09-25T20:38:34.819Z</time>
      </trkpt>
      <trkpt lat="43.43328" lon="3.51372">
        <ele>78.9</ele>
        <time>2018-09-25T20:38:35.819Z</time>
      </trkpt>
      <trkpt lat="43.43333" lon="3.51368">
        <ele>79</ele>
        <time>2018-09-25T20:38:36.819Z</time>
      </trkpt>
      <trkpt lat="43.43336" lon="3.51362">
        <ele>79.2</ele>
        <time>2018-09-25T20:38:37.819Z</time>
      </trkpt>
      <trkpt lat="43.43339" lon="3.51357">
        <ele>79.3</ele>
        <time>2018-09-25T20:38:38.819Z</time>
      </trkpt>
      <trkpt lat="43.43342" lon="3.51352">
        <ele>79.4</ele>
        <time>2018-09-25T20:38:39.819Z</time>
      </trkpt>
      <trkpt lat="43.43345" lon="3.51348">
        <ele>79.6</ele>
        <time>2018-09-25T20:38:40.819Z</time>
      </trkpt>
      <trkpt lat="43.4335" lon="3.51345">
        <ele>79.8</ele>
        <time>2018-09-25T20:38:41.819Z</time>
      </trkpt>
      <trkpt lat="43.43354" lon="3.51342">
        <ele>80.1</ele>
        <time>2018-09-25T20:38:42.819Z</time>
      </trkpt>
      <trkpt lat="43.43358" lon="3.51338">
        <ele>80.5</ele>
        <time>2018-09-25T20:38:43.819Z</time>
      </trkpt>
      <trkpt lat="43.43362" lon="3.51334">
        <ele>80.8</ele>
        <time>2018-09-25T20:38:44.819Z</time>
      </trkpt>
      <trkpt lat="43.43366" lon="3.51329">
        <ele>81.2</ele>
        <time>2018-09-25T20:38:45.819Z</time>
      </trkpt>
      <trkpt lat="43.4337" lon="3.51324">
        <ele>81.3</ele>
        <time>2018-09-25T20:38:46.819Z</time>
      </trkpt>
      <trkpt lat="43.43374" lon="3.51321">
        <ele>81.4</ele>
        <time>2018-09-25T20:38:47.819Z</time>
      </trkpt>
      <trkpt lat="43.43377" lon="3.51316">
        <ele>81.5</ele>
        <time>2018-09-25T20:38:48.819Z</time>
      </trkpt>
      <trkpt lat="43.4338" lon="3.51312">
        <ele>81.5</ele>
        <time>2018-09-25T20:38:49.819Z</time>
      </trkpt>
      <trkpt lat="43.43382" lon="3.51308">
        <ele>81.6</ele>
        <time>2018-09-25T20:38:50.819Z</time>
      </trkpt>
      <trkpt lat="43.43385" lon="3.51304">
        <ele>81.6</ele>
        <time>2018-09-25T20:38:51.819Z</time>
      </trkpt>
      <trkpt lat="43.4339" lon="3.51299">
        <ele>81.6</ele>
        <time>2018-09-25T20:38:53.819Z</time>
      </trkpt>
      <trkpt lat="43.43392" lon="3.51296">
        <ele>81.7</ele>
        <time>2018-09-25T20:38:54.819Z</time>
      </trkpt>
      <trkpt lat="43.43396" lon="3.51293">
        <ele>81.7</ele>
        <time>2018-09-25T20:38:55.819Z</time>
      </trkpt>
      <trkpt lat="43.434" lon="3.5129">
        <ele>81.8</ele>
        <time>2018-09-25T20:38:56.819Z</time>
      </trkpt>
      <trkpt lat="43.43403" lon="3.51288">
        <ele>81.8</ele>
        <time>2018-09-25T20:38:57.819Z</time>
      </trkpt>
      <trkpt lat="43.43406" lon="3.51285">
        <ele>81.8</ele>
        <time>2018-09-25T20:38:58.819Z</time>
      </trkpt>
      <trkpt lat="43.4341" lon="3.51281">
        <ele>81.8</ele>
        <time>2018-09-25T20:38:59.819Z</time>
      </trkpt>
      <trkpt lat="43.43413" lon="3.51278">
        <ele>81.9</ele>
        <time>2018-09-25T20:39:00.819Z</time>
      </trkpt>
      <trkpt lat="43.43416" lon="3.51274">
        <ele>81.9</ele>
        <time>2018-09-25T20:39:01.819Z</time>
      </trkpt>
      <trkpt lat="43.43418" lon="3.51271">
        <ele>81.9</ele>
        <time>2018-09-25T20:39:02.819Z</time>
      </trkpt>
      <trkpt lat="43.43421" lon="3.51268">
        <ele>81.9</ele>
        <time>2018-09-25T20:39:03.819Z</time>
      </trkpt>
      <trkpt lat="43.43424" lon="3.51266">
        <ele>81.9</ele>
        <time>2018-09-25T20:39:04.819Z</time>
      </trkpt>
      <trkpt lat="43.43425" lon="3.51262">
        <ele>82</ele>
        <time>2018-09-25T20:39:05.819Z</time>
      </trkpt>
      <trkpt lat="43.43426" lon="3.51257">
        <ele>82</ele>
        <time>2018-09-25T20:39:06.819Z</time>
      </trkpt>
      <trkpt lat="43.43428" lon="3.51251">
        <ele>82</ele>
        <time>2018-09-25T20:39:08.819Z</time>
      </trkpt>
      <trkpt lat="43.4343" lon="3.51244">
        <ele>82.1</ele>
        <time>2018-09-25T20:39:09.819Z</time>
      </trkpt>
      <trkpt lat="43.43432" lon="3.51238">
        <ele>82.1</ele>
        <time>2018-09-25T20:39:10.819Z</time>
      </trkpt>
      <trkpt lat="43.43436" lon="3.51233">
        <ele>82.2</ele>
        <time>2018-09-25T20:39:11.819Z</time>
      </trkpt>
      <trkpt lat="43.43441" lon="3.5123">
        <ele>82.2</ele>
        <time>2018-09-25T20:39:12.819Z</time>
      </trkpt>
      <trkpt lat="43.43445" lon="3.51226">
        <ele>82.3</ele>
        <time>2018-09-25T20:39:13.819Z</time>
      </trkpt>
      <trkpt lat="43.43449" lon="3.51222">
        <ele>82.3</ele>
        <time>2018-09-25T20:39:14.819Z</time>
      </trkpt>
      <trkpt lat="43.43453" lon="3.51218">
        <ele>82.4</ele>
        <time>2018-09-25T20:39:15.819Z</time>
      </trkpt>
      <trkpt lat="43.43457" lon="3.51214">
        <ele>82.5</ele>
        <time>2018-09-25T20:39:16.819Z</time>
      </trkpt>
      <trkpt lat="43.43461" lon="3.5121">
        <ele>82.6</ele>
        <time>2018-09-25T20:39:17.819Z</time>
      </trkpt>
      <trkpt lat="43.43463" lon="3.51207">
        <ele>82.6</ele>
        <time>2018-09-25T20:39:18.819Z</time>
      </trkpt>
      <trkpt lat="43.43466" lon="3.51204">
        <ele>82.7</ele>
        <time>2018-09-25T20:39:19.819Z</time>
      </trkpt>
      <trkpt lat="43.43469" lon="3.51201">
        <ele>82.7</ele>
        <time>2018-09-25T20:39:20.819Z</time>
      </trkpt>
      <trkpt lat="43.43471" lon="3.51198">
        <ele>82.8</ele>
        <time>2018-09-25T20:39:21.819Z</time>
      </trkpt>
      <trkpt lat="43.43472" lon="3.51194">
        <ele>82.9</ele>
        <time>2018-09-25T20:39:22.819Z</time>
      </trkpt>
      <trkpt lat="43.43474" lon="3.51191">
        <ele>83</ele>
        <time>2018-09-25T20:39:23.819Z</time>
      </trkpt>
      <trkpt lat="43.43478" lon="3.51187">
        <ele>83.2</ele>
        <time>2018-09-25T20:39:24.819Z</time>
      </trkpt>
      <trkpt lat="43.43481" lon="3.51183">
        <ele>83.5</ele>
        <time>2018-09-25T20:39:25.819Z</time>
      </trkpt>
      <trkpt lat="43.43485" lon="3.51181">
        <ele>83.9</ele>
        <time>2018-09-25T20:39:26.819Z</time>
      </trkpt>
      <trkpt lat="43.43488" lon="3.51178">
        <ele>84.3</ele>
        <time>2018-09-25T20:39:27.819Z</time>
      </trkpt>
      <trkpt lat="43.43492" lon="3.51176">
        <ele>84.6</ele>
        <time>2018-09-25T20:39:28.819Z</time>
      </trkpt>
      <trkpt lat="43.43496" lon="3.51175">
        <ele>84.9</ele>
        <time>2018-09-25T20:39:29.819Z</time>
      </trkpt>
      <trkpt lat="43.435" lon="3.51173">
        <ele>85.1</ele>
        <time>2018-09-25T20:39:30.819Z</time>
      </trkpt>
      <trkpt lat="43.43504" lon="3.51172">
        <ele>85.2</ele>
        <time>2018-09-25T20:39:31.819Z</time>
      </trkpt>
      <trkpt lat="43.43507" lon="3.51171">
        <ele>85.3</ele>
        <time>2018-09-25T20:39:32.819Z</time>
      </trkpt>
      <trkpt lat="43.43511" lon="3.51169">
        <ele>85.3</ele>
        <time>2018-09-25T20:39:33.819Z</time>
      </trkpt>
      <trkpt lat="43.43515" lon="3.51168">
        <ele>85.4</ele>
        <time>2018-09-25T20:39:34.819Z</time>
      </trkpt>
      <trkpt lat="43.43521" lon="3.51166">
        <ele>85.4</ele>
        <time>2018-09-25T20:39:36.819Z</time>
      </trkpt>
      <trkpt lat="43.43524" lon="3.51165">
        <ele>85.4</ele>
        <time>2018-09-25T20:39:37.819Z</time>
      </trkpt>
      <trkpt lat="43.43528" lon="3.51163">
        <ele>85.4</ele>
        <time>2018-09-25T20:39:38.819Z</time>
      </trkpt>
      <trkpt lat="43.43532" lon="3.51162">
        <ele>85.4</ele>
        <time>2018-09-25T20:39:39.819Z</time>
      </trkpt>
      <trkpt lat="43.43535" lon="3.51161">
        <ele>85.4</ele>
        <time>2018-09-25T20:39:40.819Z</time>
      </trkpt>
      <trkpt lat="43.43539" lon="3.51158">
        <ele>85.4</ele>
        <time>2018-09-25T20:39:41.819Z</time>
      </trkpt>
      <trkpt lat="43.43543" lon="3.51157">
        <ele>85.4</ele>
        <time>2018-09-25T20:39:42.819Z</time>
      </trkpt>
      <trkpt lat="43.43547" lon="3.51155">
        <ele>85.4</ele>
        <time>2018-09-25T20:39:43.819Z</time>
      </trkpt>
      <trkpt lat="43.43552" lon="3.51153">
        <ele>85.4</ele>
        <time>2018-09-25T20:39:44.819Z</time>
      </trkpt>
      <trkpt lat="43.43556" lon="3.51152">
        <ele>85.4</ele>
        <time>2018-09-25T20:39:45.819Z</time>
      </trkpt>
      <trkpt lat="43.43561" lon="3.51151">
        <ele>85.4</ele>
        <time>2018-09-25T20:39:46.819Z</time>
      </trkpt>
      <trkpt lat="43.43565" lon="3.5115">
        <ele>85.3</ele>
        <time>2018-09-25T20:39:47.819Z</time>
      </trkpt>
      <trkpt lat="43.4357" lon="3.5115">
        <ele>85.3</ele>
        <time>2018-09-25T20:39:48.819Z</time>
      </trkpt>
      <trkpt lat="43.43574" lon="3.51149">
        <ele>85.3</ele>
        <time>2018-09-25T20:39:49.819Z</time>
      </trkpt>
      <trkpt lat="43.43579" lon="3.51148">
        <ele>85.2</ele>
        <time>2018-09-25T20:39:50.819Z</time>
      </trkpt>
      <trkpt lat="43.43583" lon="3.51146">
        <ele>85.2</ele>
        <time>2018-09-25T20:39:51.819Z</time>
      </trkpt>
      <trkpt lat="43.43587" lon="3.51144">
        <ele>85.1</ele>
        <time>2018-09-25T20:39:52.819Z</time>
      </trkpt>
      <trkpt lat="43.43589" lon="3.51142">
        <ele>85</ele>
        <time>2018-09-25T20:39:53.819Z</time>
      </trkpt>
      <trkpt lat="43.43592" lon="3.5114">
        <ele>85</ele>
        <time>2018-09-25T20:39:54.819Z</time>
      </trkpt>
      <trkpt lat="43.43596" lon="3.51138">
        <ele>84.9</ele>
        <time>2018-09-25T20:39:55.819Z</time>
      </trkpt>
      <trkpt lat="43.43601" lon="3.51135">
        <ele>84.6</ele>
        <time>2018-09-25T20:39:56.819Z</time>
      </trkpt>
      <trkpt lat="43.43605" lon="3.51132">
        <ele>84.3</ele>
        <time>2018-09-25T20:39:57.819Z</time>
      </trkpt>
      <trkpt lat="43.4361" lon="3.51128">
        <ele>83.9</ele>
        <time>2018-09-25T20:39:58.819Z</time>
      </trkpt>
      <trkpt lat="43.43614" lon="3.51126">
        <ele>83.7</ele>
        <time>2018-09-25T20:39:59.819Z</time>
      </trkpt>
      <trkpt lat="43.43618" lon="3.51124">
        <ele>83.6</ele>
        <time>2018-09-25T20:40:00.819Z</time>
      </trkpt>
      <trkpt lat="43.43624" lon="3.51124">
        <ele>83.4</ele>
        <time>2018-09-25T20:40:01.819Z</time>
      </trkpt>
      <trkpt lat="43.43628" lon="3.51122">
        <ele>83.4</ele>
        <time>2018-09-25T20:40:02.819Z</time>
      </trkpt>
      <trkpt lat="43.43633" lon="3.51121">
        <ele>83.4</ele>
        <time>2018-09-25T20:40:03.819Z</time>
      </trkpt>
      <trkpt lat="43.43637" lon="3.5112">
        <ele>83.4</ele>
        <time>2018-09-25T20:40:04.819Z</time>
      </trkpt>
      <trkpt lat="43.43642" lon="3.5112">
        <ele>83.4</ele>
        <time>2018-09-25T20:40:05.819Z</time>
      </trkpt>
      <trkpt lat="43.43646" lon="3.51119">
        <ele>83.4</ele>
        <time>2018-09-25T20:40:06.819Z</time>
      </trkpt>
      <trkpt lat="43.43651" lon="3.51118">
        <ele>83.4</ele>
        <time>2018-09-25T20:40:07.819Z</time>
      </trkpt>
      <trkpt lat="43.43655" lon="3.51117">
        <ele>83.4</ele>
        <time>2018-09-25T20:40:08.819Z</time>
      </trkpt>
      <trkpt lat="43.43659" lon="3.51114">
        <ele>83.4</ele>
        <time>2018-09-25T20:40:09.819Z</time>
      </trkpt>
      <trkpt lat="43.43662" lon="3.51112">
        <ele>83.5</ele>
        <time>2018-09-25T20:40:10.819Z</time>
      </trkpt>
      <trkpt lat="43.43668" lon="3.51112">
        <ele>83.6</ele>
        <time>2018-09-25T20:40:11.819Z</time>
      </trkpt>
      <trkpt lat="43.43672" lon="3.5111">
        <ele>83.6</ele>
        <time>2018-09-25T20:40:12.819Z</time>
      </trkpt>
      <trkpt lat="43.43677" lon="3.51109">
        <ele>83.7</ele>
        <time>2018-09-25T20:40:13.819Z</time>
      </trkpt>
      <trkpt lat="43.43681" lon="3.51107">
        <ele>83.8</ele>
        <time>2018-09-25T20:40:14.819Z</time>
      </trkpt>
      <trkpt lat="43.43685" lon="3.51106">
        <ele>84</ele>
        <time>2018-09-25T20:40:15.819Z</time>
      </trkpt>
      <trkpt lat="43.4369" lon="3.51104">
        <ele>84.1</ele>
        <time>2018-09-25T20:40:16.819Z</time>
      </trkpt>
      <trkpt lat="43.43694" lon="3.51103">
        <ele>84.5</ele>
        <time>2018-09-25T20:40:17.819Z</time>
      </trkpt>
      <trkpt lat="43.43698" lon="3.51101">
        <ele>84.8</ele>
        <time>2018-09-25T20:40:18.819Z</time>
      </trkpt>
      <trkpt lat="43.43701" lon="3.511">
        <ele>84.8</ele>
        <time>2018-09-25T20:40:19.819Z</time>
      </trkpt>
      <trkpt lat="43.43704" lon="3.51099">
        <ele>84.9</ele>
        <time>2018-09-25T20:40:20.819Z</time>
      </trkpt>
      <trkpt lat="43.43708" lon="3.51097">
        <ele>85</ele>
        <time>2018-09-25T20:40:21.819Z</time>
      </trkpt>
      <trkpt lat="43.43712" lon="3.51095">
        <ele>85</ele>
        <time>2018-09-25T20:40:22.819Z</time>
      </trkpt>
      <trkpt lat="43.43716" lon="3.51095">
        <ele>85.1</ele>
        <time>2018-09-25T20:40:23.819Z</time>
      </trkpt>
      <trkpt lat="43.43721" lon="3.51095">
        <ele>85.2</ele>
        <time>2018-09-25T20:40:24.819Z</time>
      </trkpt>
      <trkpt lat="43.43726" lon="3.51094">
        <ele>85.3</ele>
        <time>2018-09-25T20:40:25.819Z</time>
      </trkpt>
      <trkpt lat="43.43731" lon="3.51092">
        <ele>85.3</ele>
        <time>2018-09-25T20:40:26.819Z</time>
      </trkpt>
      <trkpt lat="43.43734" lon="3.51091">
        <ele>85.4</ele>
        <time>2018-09-25T20:40:27.819Z</time>
      </trkpt>
      <trkpt lat="43.43738" lon="3.5109">
        <ele>85.4</ele>
        <time>2018-09-25T20:40:28.819Z</time>
      </trkpt>
      <trkpt lat="43.43742" lon="3.51088">
        <ele>85.5</ele>
        <time>2018-09-25T20:40:29.819Z</time>
      </trkpt>
      <trkpt lat="43.43747" lon="3.51086">
        <ele>85.6</ele>
        <time>2018-09-25T20:40:30.819Z</time>
      </trkpt>
      <trkpt lat="43.43751" lon="3.51084">
        <ele>85.6</ele>
        <time>2018-09-25T20:40:31.819Z</time>
      </trkpt>
      <trkpt lat="43.43754" lon="3.51081">
        <ele>85.7</ele>
        <time>2018-09-25T20:40:32.819Z</time>
      </trkpt>
      <trkpt lat="43.43759" lon="3.5108">
        <ele>85.8</ele>
        <time>2018-09-25T20:40:33.819Z</time>
      </trkpt>
      <trkpt lat="43.43764" lon="3.51078">
        <ele>85.9</ele>
        <time>2018-09-25T20:40:34.819Z</time>
      </trkpt>
      <trkpt lat="43.43768" lon="3.51075">
        <ele>86</ele>
        <time>2018-09-25T20:40:35.819Z</time>
      </trkpt>
      <trkpt lat="43.43772" lon="3.51073">
        <ele>86.2</ele>
        <time>2018-09-25T20:40:36.819Z</time>
      </trkpt>
      <trkpt lat="43.43776" lon="3.51071">
        <ele>86.5</ele>
        <time>2018-09-25T20:40:37.819Z</time>
      </trkpt>
      <trkpt lat="43.4378" lon="3.51069">
        <ele>86.8</ele>
        <time>2018-09-25T20:40:38.819Z</time>
      </trkpt>
      <trkpt lat="43.43784" lon="3.51068">
        <ele>86.9</ele>
        <time>2018-09-25T20:40:39.819Z</time>
      </trkpt>
      <trkpt lat="43.43788" lon="3.51066">
        <ele>86.9</ele>
        <time>2018-09-25T20:40:40.819Z</time>
      </trkpt>
      <trkpt lat="43.43792" lon="3.51064">
        <ele>87</ele>
        <time>2018-09-25T20:40:41.819Z</time>
      </trkpt>
      <trkpt lat="43.43796" lon="3.51063">
        <ele>87.1</ele>
        <time>2018-09-25T20:40:42.819Z</time>
      </trkpt>
      <trkpt lat="43.43799" lon="3.51062">
        <ele>87.1</ele>
        <time>2018-09-25T20:40:43.819Z</time>
      </trkpt>
      <trkpt lat="43.43803" lon="3.51059">
        <ele>87.1</ele>
        <time>2018-09-25T20:40:44.819Z</time>
      </trkpt>
      <trkpt lat="43.43808" lon="3.51058">
        <ele>87.2</ele>
        <time>2018-09-25T20:40:45.819Z</time>
      </trkpt>
      <trkpt lat="43.43813" lon="3.51056">
        <ele>87.2</ele>
        <time>2018-09-25T20:40:46.819Z</time>
      </trkpt>
      <trkpt lat="43.43819" lon="3.51055">
        <ele>87.3</ele>
        <time>2018-09-25T20:40:47.819Z</time>
      </trkpt>
      <trkpt lat="43.43824" lon="3.51053">
        <ele>87.3</ele>
        <time>2018-09-25T20:40:48.819Z</time>
      </trkpt>
      <trkpt lat="43.43829" lon="3.51051">
        <ele>87.4</ele>
        <time>2018-09-25T20:40:49.819Z</time>
      </trkpt>
      <trkpt lat="43.43833" lon="3.51049">
        <ele>87.5</ele>
        <time>2018-09-25T20:40:50.819Z</time>
      </trkpt>
      <trkpt lat="43.43837" lon="3.51048">
        <ele>87.5</ele>
        <time>2018-09-25T20:40:51.819Z</time>
      </trkpt>
      <trkpt lat="43.43842" lon="3.51046">
        <ele>87.7</ele>
        <time>2018-09-25T20:40:52.819Z</time>
      </trkpt>
      <trkpt lat="43.43847" lon="3.51045">
        <ele>88</ele>
        <time>2018-09-25T20:40:53.819Z</time>
      </trkpt>
      <trkpt lat="43.43852" lon="3.51043">
        <ele>88.5</ele>
        <time>2018-09-25T20:40:54.819Z</time>
      </trkpt>
      <trkpt lat="43.43856" lon="3.51041">
        <ele>88.8</ele>
        <time>2018-09-25T20:40:55.819Z</time>
      </trkpt>
      <trkpt lat="43.43861" lon="3.51039">
        <ele>88.9</ele>
        <time>2018-09-25T20:40:56.819Z</time>
      </trkpt>
      <trkpt lat="43.43864" lon="3.51037">
        <ele>89</ele>
        <time>2018-09-25T20:40:57.819Z</time>
      </trkpt>
      <trkpt lat="43.43868" lon="3.51035">
        <ele>89.1</ele>
        <time>2018-09-25T20:40:58.819Z</time>
      </trkpt>
      <trkpt lat="43.43873" lon="3.51033">
        <ele>89.2</ele>
        <time>2018-09-25T20:40:59.819Z</time>
      </trkpt>
      <trkpt lat="43.43877" lon="3.5103">
        <ele>89.2</ele>
        <time>2018-09-25T20:41:00.819Z</time>
      </trkpt>
      <trkpt lat="43.43882" lon="3.51029">
        <ele>89.3</ele>
        <time>2018-09-25T20:41:01.819Z</time>
      </trkpt>
      <trkpt lat="43.43886" lon="3.51027">
        <ele>89.3</ele>
        <time>2018-09-25T20:41:02.819Z</time>
      </trkpt>
      <trkpt lat="43.43891" lon="3.51025">
        <ele>89.3</ele>
        <time>2018-09-25T20:41:03.819Z</time>
      </trkpt>
      <trkpt lat="43.43896" lon="3.51023">
        <ele>89.3</ele>
        <time>2018-09-25T20:41:04.819Z</time>
      </trkpt>
      <trkpt lat="43.43899" lon="3.51022">
        <ele>89.4</ele>
        <time>2018-09-25T20:41:05.819Z</time>
      </trkpt>
      <trkpt lat="43.43902" lon="3.51021">
        <ele>89.4</ele>
        <time>2018-09-25T20:41:06.819Z</time>
      </trkpt>
      <trkpt lat="43.43906" lon="3.51019">
        <ele>89.4</ele>
        <time>2018-09-25T20:41:07.819Z</time>
      </trkpt>
      <trkpt lat="43.43909" lon="3.51019">
        <ele>89.4</ele>
        <time>2018-09-25T20:41:08.819Z</time>
      </trkpt>
      <trkpt lat="43.43912" lon="3.51019">
        <ele>89.4</ele>
        <time>2018-09-25T20:41:09.819Z</time>
      </trkpt>
      <trkpt lat="43.43916" lon="3.51017">
        <ele>89.5</ele>
        <time>2018-09-25T20:41:11.819Z</time>
      </trkpt>
      <trkpt lat="43.43919" lon="3.51018">
        <ele>89.5</ele>
        <time>2018-09-25T20:41:13.819Z</time>
      </trkpt>
      <trkpt lat="43.43923" lon="3.51022">
        <ele>89.5</ele>
        <time>2018-09-25T20:41:15.819Z</time>
      </trkpt>
      <trkpt lat="43.43926" lon="3.51021">
        <ele>89.6</ele>
        <time>2018-09-25T20:41:17.819Z</time>
      </trkpt>
      <trkpt lat="43.43931" lon="3.5102">
        <ele>89.7</ele>
        <time>2018-09-25T20:41:19.819Z</time>
      </trkpt>
      <trkpt lat="43.43934" lon="3.51019">
        <ele>89.7</ele>
        <time>2018-09-25T20:41:20.819Z</time>
      </trkpt>
      <trkpt lat="43.43938" lon="3.51019">
        <ele>89.8</ele>
        <time>2018-09-25T20:41:21.819Z</time>
      </trkpt>
      <trkpt lat="43.43942" lon="3.51019">
        <ele>89.9</ele>
        <time>2018-09-25T20:41:22.819Z</time>
      </trkpt>
      <trkpt lat="43.43946" lon="3.51018">
        <ele>90</ele>
        <time>2018-09-25T20:41:23.819Z</time>
      </trkpt>
      <trkpt lat="43.43951" lon="3.51018">
        <ele>90.2</ele>
        <time>2018-09-25T20:41:24.819Z</time>
      </trkpt>
      <trkpt lat="43.43956" lon="3.51019">
        <ele>90.5</ele>
        <time>2018-09-25T20:41:25.819Z</time>
      </trkpt>
      <trkpt lat="43.43961" lon="3.5102">
        <ele>90.7</ele>
        <time>2018-09-25T20:41:26.819Z</time>
      </trkpt>
      <trkpt lat="43.43965" lon="3.5102">
        <ele>90.9</ele>
        <time>2018-09-25T20:41:27.819Z</time>
      </trkpt>
      <trkpt lat="43.4397" lon="3.51021">
        <ele>91</ele>
        <time>2018-09-25T20:41:28.819Z</time>
      </trkpt>
      <trkpt lat="43.43975" lon="3.51021">
        <ele>91.1</ele>
        <time>2018-09-25T20:41:29.819Z</time>
      </trkpt>
      <trkpt lat="43.43979" lon="3.51021">
        <ele>91.2</ele>
        <time>2018-09-25T20:41:30.819Z</time>
      </trkpt>
      <trkpt lat="43.43985" lon="3.51019">
        <ele>91.3</ele>
        <time>2018-09-25T20:41:32.819Z</time>
      </trkpt>
      <trkpt lat="43.43988" lon="3.51019">
        <ele>91.3</ele>
        <time>2018-09-25T20:41:33.819Z</time>
      </trkpt>
      <trkpt lat="43.43991" lon="3.51018">
        <ele>91.4</ele>
        <time>2018-09-25T20:41:34.819Z</time>
      </trkpt>
      <trkpt lat="43.43994" lon="3.51016">
        <ele>91.4</ele>
        <time>2018-09-25T20:41:35.819Z</time>
      </trkpt>
      <trkpt lat="43.43998" lon="3.51014">
        <ele>91.5</ele>
        <time>2018-09-25T20:41:36.819Z</time>
      </trkpt>
      <trkpt lat="43.44002" lon="3.51013">
        <ele>91.6</ele>
        <time>2018-09-25T20:41:37.819Z</time>
      </trkpt>
      <trkpt lat="43.44006" lon="3.51011">
        <ele>91.7</ele>
        <time>2018-09-25T20:41:38.819Z</time>
      </trkpt>
      <trkpt lat="43.44011" lon="3.51009">
        <ele>91.7</ele>
        <time>2018-09-25T20:41:39.819Z</time>
      </trkpt>
      <trkpt lat="43.44014" lon="3.51007">
        <ele>92</ele>
        <time>2018-09-25T20:41:40.819Z</time>
      </trkpt>
      <trkpt lat="43.44018" lon="3.51006">
        <ele>92.2</ele>
        <time>2018-09-25T20:41:41.819Z</time>
      </trkpt>
      <trkpt lat="43.44022" lon="3.51004">
        <ele>92.5</ele>
        <time>2018-09-25T20:41:42.819Z</time>
      </trkpt>
      <trkpt lat="43.44025" lon="3.51001">
        <ele>92.7</ele>
        <time>2018-09-25T20:41:43.819Z</time>
      </trkpt>
      <trkpt lat="43.44029" lon="3.50999">
        <ele>92.8</ele>
        <time>2018-09-25T20:41:44.819Z</time>
      </trkpt>
      <trkpt lat="43.44033" lon="3.50998">
        <ele>92.8</ele>
        <time>2018-09-25T20:41:45.819Z</time>
      </trkpt>
      <trkpt lat="43.44037" lon="3.50997">
        <ele>92.9</ele>
        <time>2018-09-25T20:41:46.819Z</time>
      </trkpt>
      <trkpt lat="43.44041" lon="3.50996">
        <ele>92.9</ele>
        <time>2018-09-25T20:41:47.819Z</time>
      </trkpt>
      <trkpt lat="43.44044" lon="3.50995">
        <ele>93</ele>
        <time>2018-09-25T20:41:48.819Z</time>
      </trkpt>
      <trkpt lat="43.44049" lon="3.50995">
        <ele>93</ele>
        <time>2018-09-25T20:41:49.819Z</time>
      </trkpt>
      <trkpt lat="43.44051" lon="3.50994">
        <ele>93</ele>
        <time>2018-09-25T20:41:50.819Z</time>
      </trkpt>
      <trkpt lat="43.44054" lon="3.50993">
        <ele>93</ele>
        <time>2018-09-25T20:41:51.819Z</time>
      </trkpt>
      <trkpt lat="43.44057" lon="3.50991">
        <ele>93.1</ele>
        <time>2018-09-25T20:41:52.819Z</time>
      </trkpt>
      <trkpt lat="43.44061" lon="3.50991">
        <ele>93.1</ele>
        <time>2018-09-25T20:41:53.819Z</time>
      </trkpt>
      <trkpt lat="43.44064" lon="3.5099">
        <ele>93.1</ele>
        <time>2018-09-25T20:41:54.819Z</time>
      </trkpt>
      <trkpt lat="43.44069" lon="3.5099">
        <ele>93.1</ele>
        <time>2018-09-25T20:41:56.819Z</time>
      </trkpt>
      <trkpt lat="43.44073" lon="3.50988">
        <ele>93.1</ele>
        <time>2018-09-25T20:41:57.819Z</time>
      </trkpt>
      <trkpt lat="43.44076" lon="3.50986">
        <ele>93.1</ele>
        <time>2018-09-25T20:41:58.819Z</time>
      </trkpt>
      <trkpt lat="43.44081" lon="3.50985">
        <ele>93.1</ele>
        <time>2018-09-25T20:41:59.819Z</time>
      </trkpt>
      <trkpt lat="43.44085" lon="3.50984">
        <ele>93.2</ele>
        <time>2018-09-25T20:42:00.819Z</time>
      </trkpt>
      <trkpt lat="43.44089" lon="3.50982">
        <ele>93.2</ele>
        <time>2018-09-25T20:42:01.819Z</time>
      </trkpt>
      <trkpt lat="43.44093" lon="3.5098">
        <ele>93.2</ele>
        <time>2018-09-25T20:42:02.819Z</time>
      </trkpt>
      <trkpt lat="43.44097" lon="3.50975">
        <ele>93.2</ele>
        <time>2018-09-25T20:42:03.819Z</time>
      </trkpt>
      <trkpt lat="43.44101" lon="3.50973">
        <ele>93.2</ele>
        <time>2018-09-25T20:42:04.819Z</time>
      </trkpt>
      <trkpt lat="43.44105" lon="3.50971">
        <ele>93.2</ele>
        <time>2018-09-25T20:42:05.819Z</time>
      </trkpt>
      <trkpt lat="43.44109" lon="3.50969">
        <ele>93.2</ele>
        <time>2018-09-25T20:42:06.819Z</time>
      </trkpt>
      <trkpt lat="43.44112" lon="3.50967">
        <ele>93.2</ele>
        <time>2018-09-25T20:42:07.819Z</time>
      </trkpt>
      <trkpt lat="43.44116" lon="3.50966">
        <ele>93.3</ele>
        <time>2018-09-25T20:42:08.819Z</time>
      </trkpt>
      <trkpt lat="43.44121" lon="3.50964">
        <ele>93.3</ele>
        <time>2018-09-25T20:42:09.819Z</time>
      </trkpt>
      <trkpt lat="43.44127" lon="3.50963">
        <ele>93.3</ele>
        <time>2018-09-25T20:42:10.819Z</time>
      </trkpt>
      <trkpt lat="43.44132" lon="3.50963">
        <ele>93.4</ele>
        <time>2018-09-25T20:42:11.819Z</time>
      </trkpt>
      <trkpt lat="43.44137" lon="3.50962">
        <ele>93.4</ele>
        <time>2018-09-25T20:42:12.819Z</time>
      </trkpt>
      <trkpt lat="43.44141" lon="3.50958">
        <ele>93.5</ele>
        <time>2018-09-25T20:42:13.819Z</time>
      </trkpt>
      <trkpt lat="43.44146" lon="3.50955">
        <ele>93.5</ele>
        <time>2018-09-25T20:42:14.819Z</time>
      </trkpt>
      <trkpt lat="43.4415" lon="3.50952">
        <ele>93.7</ele>
        <time>2018-09-25T20:42:15.819Z</time>
      </trkpt>
      <trkpt lat="43.44155" lon="3.5095">
        <ele>93.8</ele>
        <time>2018-09-25T20:42:16.819Z</time>
      </trkpt>
      <trkpt lat="43.44161" lon="3.50947">
        <ele>94.1</ele>
        <time>2018-09-25T20:42:17.819Z</time>
      </trkpt>
      <trkpt lat="43.44166" lon="3.50945">
        <ele>94.4</ele>
        <time>2018-09-25T20:42:18.819Z</time>
      </trkpt>
      <trkpt lat="43.44173" lon="3.50943">
        <ele>94.7</ele>
        <time>2018-09-25T20:42:19.819Z</time>
      </trkpt>
      <trkpt lat="43.44179" lon="3.50941">
        <ele>94.7</ele>
        <time>2018-09-25T20:42:20.819Z</time>
      </trkpt>
      <trkpt lat="43.44184" lon="3.50939">
        <ele>94.8</ele>
        <time>2018-09-25T20:42:21.819Z</time>
      </trkpt>
      <trkpt lat="43.44188" lon="3.50937">
        <ele>94.8</ele>
        <time>2018-09-25T20:42:22.819Z</time>
      </trkpt>
      <trkpt lat="43.44194" lon="3.50933">
        <ele>94.9</ele>
        <time>2018-09-25T20:42:23.819Z</time>
      </trkpt>
      <trkpt lat="43.442" lon="3.50927">
        <ele>94.9</ele>
        <time>2018-09-25T20:42:24.819Z</time>
      </trkpt>
      <trkpt lat="43.44204" lon="3.50923">
        <ele>94.9</ele>
        <time>2018-09-25T20:42:25.819Z</time>
      </trkpt>
      <trkpt lat="43.44209" lon="3.5092">
        <ele>95</ele>
        <time>2018-09-25T20:42:26.819Z</time>
      </trkpt>
      <trkpt lat="43.44213" lon="3.50917">
        <ele>95</ele>
        <time>2018-09-25T20:42:27.819Z</time>
      </trkpt>
      <trkpt lat="43.44216" lon="3.50914">
        <ele>95</ele>
        <time>2018-09-25T20:42:28.819Z</time>
      </trkpt>
      <trkpt lat="43.44218" lon="3.5091">
        <ele>95</ele>
        <time>2018-09-25T20:42:29.819Z</time>
      </trkpt>
      <trkpt lat="43.44222" lon="3.50907">
        <ele>95</ele>
        <time>2018-09-25T20:42:30.819Z</time>
      </trkpt>
      <trkpt lat="43.44227" lon="3.50903">
        <ele>95</ele>
        <time>2018-09-25T20:42:31.819Z</time>
      </trkpt>
      <trkpt lat="43.44232" lon="3.50899">
        <ele>95</ele>
        <time>2018-09-25T20:42:32.819Z</time>
      </trkpt>
      <trkpt lat="43.44236" lon="3.50895">
        <ele>95</ele>
        <time>2018-09-25T20:42:33.819Z</time>
      </trkpt>
      <trkpt lat="43.44241" lon="3.50892">
        <ele>95</ele>
        <time>2018-09-25T20:42:34.819Z</time>
      </trkpt>
      <trkpt lat="43.44245" lon="3.50888">
        <ele>95</ele>
        <time>2018-09-25T20:42:35.819Z</time>
      </trkpt>
      <trkpt lat="43.44249" lon="3.50885">
        <ele>95</ele>
        <time>2018-09-25T20:42:36.819Z</time>
      </trkpt>
      <trkpt lat="43.44253" lon="3.50882">
        <ele>95</ele>
        <time>2018-09-25T20:42:37.819Z</time>
      </trkpt>
      <trkpt lat="43.44256" lon="3.50876">
        <ele>95</ele>
        <time>2018-09-25T20:42:38.819Z</time>
      </trkpt>
      <trkpt lat="43.4426" lon="3.50872">
        <ele>95</ele>
        <time>2018-09-25T20:42:39.819Z</time>
      </trkpt>
      <trkpt lat="43.44264" lon="3.50869">
        <ele>95</ele>
        <time>2018-09-25T20:42:40.819Z</time>
      </trkpt>
      <trkpt lat="43.44267" lon="3.50867">
        <ele>95</ele>
        <time>2018-09-25T20:42:41.819Z</time>
      </trkpt>
      <trkpt lat="43.4427" lon="3.50865">
        <ele>95</ele>
        <time>2018-09-25T20:42:42.819Z</time>
      </trkpt>
      <trkpt lat="43.44274" lon="3.50863">
        <ele>95</ele>
        <time>2018-09-25T20:42:43.819Z</time>
      </trkpt>
      <trkpt lat="43.44278" lon="3.50863">
        <ele>95</ele>
        <time>2018-09-25T20:42:44.819Z</time>
      </trkpt>
      <trkpt lat="43.44282" lon="3.50862">
        <ele>95</ele>
        <time>2018-09-25T20:42:45.819Z</time>
      </trkpt>
      <trkpt lat="43.44285" lon="3.5086">
        <ele>95</ele>
        <time>2018-09-25T20:42:46.819Z</time>
      </trkpt>
      <trkpt lat="43.44287" lon="3.50858">
        <ele>95</ele>
        <time>2018-09-25T20:42:47.819Z</time>
      </trkpt>
      <trkpt lat="43.4429" lon="3.50855">
        <ele>95</ele>
        <time>2018-09-25T20:42:48.819Z</time>
      </trkpt>
      <trkpt lat="43.44292" lon="3.50852">
        <ele>95</ele>
        <time>2018-09-25T20:42:49.819Z</time>
      </trkpt>
      <trkpt lat="43.44294" lon="3.50847">
        <ele>95</ele>
        <time>2018-09-25T20:42:50.819Z</time>
      </trkpt>
      <trkpt lat="43.44296" lon="3.50841">
        <ele>95</ele>
        <time>2018-09-25T20:42:51.819Z</time>
      </trkpt>
      <trkpt lat="43.44297" lon="3.50836">
        <ele>95</ele>
        <time>2018-09-25T20:42:52.819Z</time>
      </trkpt>
      <trkpt lat="43.44298" lon="3.5083">
        <ele>95</ele>
        <time>2018-09-25T20:42:53.819Z</time>
      </trkpt>
      <trkpt lat="43.443" lon="3.50825">
        <ele>95</ele>
        <time>2018-09-25T20:42:54.819Z</time>
      </trkpt>
      <trkpt lat="43.44302" lon="3.50821">
        <ele>95</ele>
        <time>2018-09-25T20:42:55.819Z</time>
      </trkpt>
      <trkpt lat="43.44307" lon="3.50817">
        <ele>95</ele>
        <time>2018-09-25T20:42:56.819Z</time>
      </trkpt>
      <trkpt lat="43.44311" lon="3.50812">
        <ele>95</ele>
        <time>2018-09-25T20:42:57.819Z</time>
      </trkpt>
      <trkpt lat="43.44315" lon="3.50807">
        <ele>95</ele>
        <time>2018-09-25T20:42:58.819Z</time>
      </trkpt>
      <trkpt lat="43.4432" lon="3.50802">
        <ele>95</ele>
        <time>2018-09-25T20:42:59.819Z</time>
      </trkpt>
      <trkpt lat="43.44324" lon="3.50795">
        <ele>95</ele>
        <time>2018-09-25T20:43:00.819Z</time>
      </trkpt>
      <trkpt lat="43.44329" lon="3.50788">
        <ele>95</ele>
        <time>2018-09-25T20:43:01.819Z</time>
      </trkpt>
      <trkpt lat="43.44334" lon="3.50784">
        <ele>95</ele>
        <time>2018-09-25T20:43:02.819Z</time>
      </trkpt>
      <trkpt lat="43.44339" lon="3.50779">
        <ele>95</ele>
        <time>2018-09-25T20:43:03.819Z</time>
      </trkpt>
      <trkpt lat="43.44343" lon="3.50775">
        <ele>94.9</ele>
        <time>2018-09-25T20:43:04.819Z</time>
      </trkpt>
      <trkpt lat="43.44345" lon="3.50771">
        <ele>94.9</ele>
        <time>2018-09-25T20:43:05.819Z</time>
      </trkpt>
      <trkpt lat="43.44346" lon="3.50767">
        <ele>94.8</ele>
        <time>2018-09-25T20:43:06.819Z</time>
      </trkpt>
      <trkpt lat="43.44347" lon="3.50762">
        <ele>94.8</ele>
        <time>2018-09-25T20:43:07.819Z</time>
      </trkpt>
      <trkpt lat="43.44349" lon="3.50756">
        <ele>94.8</ele>
        <time>2018-09-25T20:43:08.819Z</time>
      </trkpt>
      <trkpt lat="43.44351" lon="3.50748">
        <ele>94.7</ele>
        <time>2018-09-25T20:43:09.819Z</time>
      </trkpt>
      <trkpt lat="43.44354" lon="3.50741">
        <ele>94.6</ele>
        <time>2018-09-25T20:43:10.819Z</time>
      </trkpt>
      <trkpt lat="43.44359" lon="3.50735">
        <ele>94.6</ele>
        <time>2018-09-25T20:43:11.819Z</time>
      </trkpt>
      <trkpt lat="43.44364" lon="3.5073">
        <ele>94.5</ele>
        <time>2018-09-25T20:43:12.819Z</time>
      </trkpt>
      <trkpt lat="43.44369" lon="3.50725">
        <ele>94.5</ele>
        <time>2018-09-25T20:43:13.819Z</time>
      </trkpt>
      <trkpt lat="43.44371" lon="3.5072">
        <ele>94.4</ele>
        <time>2018-09-25T20:43:14.819Z</time>
      </trkpt>
      <trkpt lat="43.44373" lon="3.50712">
        <ele>94.4</ele>
        <time>2018-09-25T20:43:15.819Z</time>
      </trkpt>
      <trkpt lat="43.44377" lon="3.50704">
        <ele>94.3</ele>
        <time>2018-09-25T20:43:16.819Z</time>
      </trkpt>
      <trkpt lat="43.44381" lon="3.50696">
        <ele>94.3</ele>
        <time>2018-09-25T20:43:17.819Z</time>
      </trkpt>
      <trkpt lat="43.44385" lon="3.50689">
        <ele>94.2</ele>
        <time>2018-09-25T20:43:18.819Z</time>
      </trkpt>
      <trkpt lat="43.44389" lon="3.50682">
        <ele>94.2</ele>
        <time>2018-09-25T20:43:19.819Z</time>
      </trkpt>
      <trkpt lat="43.44394" lon="3.50674">
        <ele>94.1</ele>
        <time>2018-09-25T20:43:20.819Z</time>
      </trkpt>
      <trkpt lat="43.44398" lon="3.50664">
        <ele>94.1</ele>
        <time>2018-09-25T20:43:21.819Z</time>
      </trkpt>
      <trkpt lat="43.44403" lon="3.50655">
        <ele>94</ele>
        <time>2018-09-25T20:43:22.819Z</time>
      </trkpt>
      <trkpt lat="43.44406" lon="3.50647">
        <ele>94</ele>
        <time>2018-09-25T20:43:23.819Z</time>
      </trkpt>
      <trkpt lat="43.4441" lon="3.50641">
        <ele>93.9</ele>
        <time>2018-09-25T20:43:24.819Z</time>
      </trkpt>
      <trkpt lat="43.44413" lon="3.50635">
        <ele>93.9</ele>
        <time>2018-09-25T20:43:25.819Z</time>
      </trkpt>
      <trkpt lat="43.44415" lon="3.5063">
        <ele>93.8</ele>
        <time>2018-09-25T20:43:26.819Z</time>
      </trkpt>
      <trkpt lat="43.44418" lon="3.50624">
        <ele>93.8</ele>
        <time>2018-09-25T20:43:27.819Z</time>
      </trkpt>
      <trkpt lat="43.44421" lon="3.50618">
        <ele>93.8</ele>
        <time>2018-09-25T20:43:28.819Z</time>
      </trkpt>
      <trkpt lat="43.44425" lon="3.50611">
        <ele>93.7</ele>
        <time>2018-09-25T20:43:29.819Z</time>
      </trkpt>
      <trkpt lat="43.44429" lon="3.50604">
        <ele>93.7</ele>
        <time>2018-09-25T20:43:30.819Z</time>
      </trkpt>
      <trkpt lat="43.44431" lon="3.50598">
        <ele>93.6</ele>
        <time>2018-09-25T20:43:31.819Z</time>
      </trkpt>
      <trkpt lat="43.44433" lon="3.50593">
        <ele>93.6</ele>
        <time>2018-09-25T20:43:32.819Z</time>
      </trkpt>
      <trkpt lat="43.44435" lon="3.50588">
        <ele>93.5</ele>
        <time>2018-09-25T20:43:33.819Z</time>
      </trkpt>
      <trkpt lat="43.44438" lon="3.50583">
        <ele>93.4</ele>
        <time>2018-09-25T20:43:34.819Z</time>
      </trkpt>
      <trkpt lat="43.44442" lon="3.50578">
        <ele>93.1</ele>
        <time>2018-09-25T20:43:35.819Z</time>
      </trkpt>
      <trkpt lat="43.44447" lon="3.50573">
        <ele>92.8</ele>
        <time>2018-09-25T20:43:36.819Z</time>
      </trkpt>
      <trkpt lat="43.44452" lon="3.50569">
        <ele>92.4</ele>
        <time>2018-09-25T20:43:37.819Z</time>
      </trkpt>
      <trkpt lat="43.44456" lon="3.50564">
        <ele>91.9</ele>
        <time>2018-09-25T20:43:38.819Z</time>
      </trkpt>
      <trkpt lat="43.4446" lon="3.50557">
        <ele>91.5</ele>
        <time>2018-09-25T20:43:39.819Z</time>
      </trkpt>
      <trkpt lat="43.44464" lon="3.5055">
        <ele>91.2</ele>
        <time>2018-09-25T20:43:40.819Z</time>
      </trkpt>
      <trkpt lat="43.44469" lon="3.50544">
        <ele>91</ele>
        <time>2018-09-25T20:43:41.819Z</time>
      </trkpt>
      <trkpt lat="43.44473" lon="3.50538">
        <ele>90.9</ele>
        <time>2018-09-25T20:43:42.819Z</time>
      </trkpt>
      <trkpt lat="43.44477" lon="3.50532">
        <ele>90.9</ele>
        <time>2018-09-25T20:43:43.819Z</time>
      </trkpt>
      <trkpt lat="43.4448" lon="3.50527">
        <ele>90.8</ele>
        <time>2018-09-25T20:43:44.819Z</time>
      </trkpt>
      <trkpt lat="43.44484" lon="3.50521">
        <ele>90.6</ele>
        <time>2018-09-25T20:43:45.819Z</time>
      </trkpt>
      <trkpt lat="43.44488" lon="3.50516">
        <ele>90.4</ele>
        <time>2018-09-25T20:43:46.819Z</time>
      </trkpt>
      <trkpt lat="43.44491" lon="3.50512">
        <ele>90.1</ele>
        <time>2018-09-25T20:43:47.819Z</time>
      </trkpt>
      <trkpt lat="43.44495" lon="3.50509">
        <ele>89.6</ele>
        <time>2018-09-25T20:43:48.819Z</time>
      </trkpt>
      <trkpt lat="43.445" lon="3.50509">
        <ele>89.2</ele>
        <time>2018-09-25T20:43:49.819Z</time>
      </trkpt>
      <trkpt lat="43.44504" lon="3.50509">
        <ele>88.8</ele>
        <time>2018-09-25T20:43:50.819Z</time>
      </trkpt>
      <trkpt lat="43.44509" lon="3.50509">
        <ele>88.5</ele>
        <time>2018-09-25T20:43:51.819Z</time>
      </trkpt>
      <trkpt lat="43.44513" lon="3.50508">
        <ele>88.3</ele>
        <time>2018-09-25T20:43:52.819Z</time>
      </trkpt>
      <trkpt lat="43.44518" lon="3.50507">
        <ele>88.1</ele>
        <time>2018-09-25T20:43:53.819Z</time>
      </trkpt>
      <trkpt lat="43.44524" lon="3.50506">
        <ele>88</ele>
        <time>2018-09-25T20:43:54.819Z</time>
      </trkpt>
      <trkpt lat="43.4453" lon="3.50507">
        <ele>88</ele>
        <time>2018-09-25T20:43:55.819Z</time>
      </trkpt>
      <trkpt lat="43.44537" lon="3.50507">
        <ele>87.9</ele>
        <time>2018-09-25T20:43:56.819Z</time>
      </trkpt>
      <trkpt lat="43.44543" lon="3.50507">
        <ele>87.8</ele>
        <time>2018-09-25T20:43:57.819Z</time>
      </trkpt>
      <trkpt lat="43.44549" lon="3.50505">
        <ele>87.8</ele>
        <time>2018-09-25T20:43:58.819Z</time>
      </trkpt>
      <trkpt lat="43.44556" lon="3.50503">
        <ele>87.7</ele>
        <time>2018-09-25T20:43:59.819Z</time>
      </trkpt>
      <trkpt lat="43.44561" lon="3.50501">
        <ele>87.7</ele>
        <time>2018-09-25T20:44:00.819Z</time>
      </trkpt>
      <trkpt lat="43.44567" lon="3.50498">
        <ele>87.6</ele>
        <time>2018-09-25T20:44:01.819Z</time>
      </trkpt>
      <trkpt lat="43.44573" lon="3.50495">
        <ele>87.5</ele>
        <time>2018-09-25T20:44:02.819Z</time>
      </trkpt>
      <trkpt lat="43.44579" lon="3.50491">
        <ele>87.3</ele>
        <time>2018-09-25T20:44:03.819Z</time>
      </trkpt>
      <trkpt lat="43.44585" lon="3.50489">
        <ele>87.1</ele>
        <time>2018-09-25T20:44:04.819Z</time>
      </trkpt>
      <trkpt lat="43.4459" lon="3.50487">
        <ele>86.8</ele>
        <time>2018-09-25T20:44:05.819Z</time>
      </trkpt>
      <trkpt lat="43.44594" lon="3.50483">
        <ele>86.5</ele>
        <time>2018-09-25T20:44:06.819Z</time>
      </trkpt>
      <trkpt lat="43.44598" lon="3.50478">
        <ele>86.2</ele>
        <time>2018-09-25T20:44:07.819Z</time>
      </trkpt>
      <trkpt lat="43.44603" lon="3.50474">
        <ele>85.9</ele>
        <time>2018-09-25T20:44:08.819Z</time>
      </trkpt>
      <trkpt lat="43.44607" lon="3.5047">
        <ele>85.7</ele>
        <time>2018-09-25T20:44:09.819Z</time>
      </trkpt>
      <trkpt lat="43.44612" lon="3.50465">
        <ele>85.5</ele>
        <time>2018-09-25T20:44:10.819Z</time>
      </trkpt>
      <trkpt lat="43.44617" lon="3.50461">
        <ele>85.3</ele>
        <time>2018-09-25T20:44:11.819Z</time>
      </trkpt>
      <trkpt lat="43.44621" lon="3.50458">
        <ele>85.2</ele>
        <time>2018-09-25T20:44:12.819Z</time>
      </trkpt>
      <trkpt lat="43.44625" lon="3.50457">
        <ele>85.2</ele>
        <time>2018-09-25T20:44:13.819Z</time>
      </trkpt>
      <trkpt lat="43.44629" lon="3.50455">
        <ele>85.1</ele>
        <time>2018-09-25T20:44:14.819Z</time>
      </trkpt>
      <trkpt lat="43.44632" lon="3.50455">
        <ele>85.1</ele>
        <time>2018-09-25T20:44:15.819Z</time>
      </trkpt>
      <trkpt lat="43.44635" lon="3.50455">
        <ele>85.1</ele>
        <time>2018-09-25T20:44:17.819Z</time>
      </trkpt>
      <trkpt lat="43.44638" lon="3.50455">
        <ele>85</ele>
        <time>2018-09-25T20:44:19.819Z</time>
      </trkpt>
      <trkpt lat="43.44641" lon="3.50453">
        <ele>85</ele>
        <time>2018-09-25T20:44:21.819Z</time>
      </trkpt>
      <trkpt lat="43.44643" lon="3.50449">
        <ele>85.1</ele>
        <time>2018-09-25T20:44:22.819Z</time>
      </trkpt>
      <trkpt lat="43.44647" lon="3.50446">
        <ele>85.1</ele>
        <time>2018-09-25T20:44:23.819Z</time>
      </trkpt>
      <trkpt lat="43.44651" lon="3.50442">
        <ele>85.1</ele>
        <time>2018-09-25T20:44:24.819Z</time>
      </trkpt>
      <trkpt lat="43.44655" lon="3.50439">
        <ele>85.2</ele>
        <time>2018-09-25T20:44:25.819Z</time>
      </trkpt>
      <trkpt lat="43.4466" lon="3.50435">
        <ele>85.3</ele>
        <time>2018-09-25T20:44:26.819Z</time>
      </trkpt>
      <trkpt lat="43.44665" lon="3.50431">
        <ele>85.3</ele>
        <time>2018-09-25T20:44:27.819Z</time>
      </trkpt>
      <trkpt lat="43.44668" lon="3.50426">
        <ele>85.4</ele>
        <time>2018-09-25T20:44:28.819Z</time>
      </trkpt>
      <trkpt lat="43.44672" lon="3.50422">
        <ele>85.4</ele>
        <time>2018-09-25T20:44:29.819Z</time>
      </trkpt>
      <trkpt lat="43.44677" lon="3.50417">
        <ele>85.5</ele>
        <time>2018-09-25T20:44:30.819Z</time>
      </trkpt>
      <trkpt lat="43.44682" lon="3.50413">
        <ele>85.5</ele>
        <time>2018-09-25T20:44:31.819Z</time>
      </trkpt>
      <trkpt lat="43.44687" lon="3.50409">
        <ele>85.6</ele>
        <time>2018-09-25T20:44:32.819Z</time>
      </trkpt>
      <trkpt lat="43.44691" lon="3.50405">
        <ele>85.6</ele>
        <time>2018-09-25T20:44:33.819Z</time>
      </trkpt>
      <trkpt lat="43.44696" lon="3.504">
        <ele>85.7</ele>
        <time>2018-09-25T20:44:34.819Z</time>
      </trkpt>
      <trkpt lat="43.447" lon="3.50395">
        <ele>85.7</ele>
        <time>2018-09-25T20:44:35.819Z</time>
      </trkpt>
      <trkpt lat="43.44703" lon="3.50389">
        <ele>85.8</ele>
        <time>2018-09-25T20:44:36.819Z</time>
      </trkpt>
      <trkpt lat="43.44707" lon="3.50384">
        <ele>85.8</ele>
        <time>2018-09-25T20:44:37.819Z</time>
      </trkpt>
      <trkpt lat="43.44711" lon="3.50379">
        <ele>85.9</ele>
        <time>2018-09-25T20:44:38.819Z</time>
      </trkpt>
      <trkpt lat="43.44715" lon="3.50374">
        <ele>85.9</ele>
        <time>2018-09-25T20:44:39.819Z</time>
      </trkpt>
      <trkpt lat="43.4472" lon="3.50368">
        <ele>86</ele>
        <time>2018-09-25T20:44:40.819Z</time>
      </trkpt>
      <trkpt lat="43.44724" lon="3.50362">
        <ele>86</ele>
        <time>2018-09-25T20:44:41.819Z</time>
      </trkpt>
      <trkpt lat="43.44728" lon="3.50356">
        <ele>86.1</ele>
        <time>2018-09-25T20:44:42.819Z</time>
      </trkpt>
      <trkpt lat="43.44733" lon="3.5035">
        <ele>86.1</ele>
        <time>2018-09-25T20:44:43.819Z</time>
      </trkpt>
      <trkpt lat="43.44736" lon="3.50344">
        <ele>86.2</ele>
        <time>2018-09-25T20:44:44.819Z</time>
      </trkpt>
      <trkpt lat="43.44741" lon="3.50338">
        <ele>86.3</ele>
        <time>2018-09-25T20:44:45.819Z</time>
      </trkpt>
      <trkpt lat="43.44745" lon="3.50332">
        <ele>86.3</ele>
        <time>2018-09-25T20:44:46.819Z</time>
      </trkpt>
      <trkpt lat="43.4475" lon="3.50326">
        <ele>86.4</ele>
        <time>2018-09-25T20:44:47.819Z</time>
      </trkpt>
      <trkpt lat="43.44754" lon="3.5032">
        <ele>86.6</ele>
        <time>2018-09-25T20:44:48.819Z</time>
      </trkpt>
      <trkpt lat="43.4476" lon="3.50314">
        <ele>86.8</ele>
        <time>2018-09-25T20:44:49.819Z</time>
      </trkpt>
      <trkpt lat="43.44764" lon="3.50308">
        <ele>87.1</ele>
        <time>2018-09-25T20:44:50.819Z</time>
      </trkpt>
      <trkpt lat="43.44768" lon="3.50303">
        <ele>87.3</ele>
        <time>2018-09-25T20:44:51.819Z</time>
      </trkpt>
      <trkpt lat="43.44773" lon="3.50298">
        <ele>87.6</ele>
        <time>2018-09-25T20:44:52.819Z</time>
      </trkpt>
      <trkpt lat="43.44778" lon="3.50293">
        <ele>87.9</ele>
        <time>2018-09-25T20:44:53.819Z</time>
      </trkpt>
      <trkpt lat="43.44783" lon="3.50289">
        <ele>88.2</ele>
        <time>2018-09-25T20:44:54.819Z</time>
      </trkpt>
      <trkpt lat="43.44788" lon="3.50284">
        <ele>88.5</ele>
        <time>2018-09-25T20:44:55.819Z</time>
      </trkpt>
      <trkpt lat="43.44793" lon="3.50279">
        <ele>88.7</ele>
        <time>2018-09-25T20:44:56.819Z</time>
      </trkpt>
      <trkpt lat="43.44798" lon="3.50275">
        <ele>88.8</ele>
        <time>2018-09-25T20:44:57.819Z</time>
      </trkpt>
      <trkpt lat="43.44802" lon="3.5027">
        <ele>89</ele>
        <time>2018-09-25T20:44:58.819Z</time>
      </trkpt>
      <trkpt lat="43.44807" lon="3.50265">
        <ele>89.2</ele>
        <time>2018-09-25T20:44:59.819Z</time>
      </trkpt>
      <trkpt lat="43.44812" lon="3.50261">
        <ele>89.4</ele>
        <time>2018-09-25T20:45:00.819Z</time>
      </trkpt>
      <trkpt lat="43.44817" lon="3.50256">
        <ele>89.6</ele>
        <time>2018-09-25T20:45:01.819Z</time>
      </trkpt>
      <trkpt lat="43.44822" lon="3.50252">
        <ele>89.9</ele>
        <time>2018-09-25T20:45:02.819Z</time>
      </trkpt>
      <trkpt lat="43.44827" lon="3.50248">
        <ele>90.3</ele>
        <time>2018-09-25T20:45:03.819Z</time>
      </trkpt>
      <trkpt lat="43.44832" lon="3.50243">
        <ele>90.6</ele>
        <time>2018-09-25T20:45:04.819Z</time>
      </trkpt>
      <trkpt lat="43.44836" lon="3.50238">
        <ele>90.9</ele>
        <time>2018-09-25T20:45:05.819Z</time>
      </trkpt>
      <trkpt lat="43.4484" lon="3.50233">
        <ele>91.1</ele>
        <time>2018-09-25T20:45:06.819Z</time>
      </trkpt>
      <trkpt lat="43.44845" lon="3.50227">
        <ele>91.4</ele>
        <time>2018-09-25T20:45:07.819Z</time>
      </trkpt>
      <trkpt lat="43.44849" lon="3.50222">
        <ele>91.5</ele>
        <time>2018-09-25T20:45:08.819Z</time>
      </trkpt>
      <trkpt lat="43.44853" lon="3.50216">
        <ele>91.7</ele>
        <time>2018-09-25T20:45:09.819Z</time>
      </trkpt>
      <trkpt lat="43.44858" lon="3.50211">
        <ele>91.8</ele>
        <time>2018-09-25T20:45:10.819Z</time>
      </trkpt>
      <trkpt lat="43.44863" lon="3.50207">
        <ele>91.8</ele>
        <time>2018-09-25T20:45:11.819Z</time>
      </trkpt>
      <trkpt lat="43.44868" lon="3.50203">
        <ele>91.9</ele>
        <time>2018-09-25T20:45:12.819Z</time>
      </trkpt>
      <trkpt lat="43.44872" lon="3.502">
        <ele>92</ele>
        <time>2018-09-25T20:45:13.819Z</time>
      </trkpt>
      <trkpt lat="43.44877" lon="3.50197">
        <ele>92</ele>
        <time>2018-09-25T20:45:14.819Z</time>
      </trkpt>
      <trkpt lat="43.44881" lon="3.50194">
        <ele>92.1</ele>
        <time>2018-09-25T20:45:15.819Z</time>
      </trkpt>
      <trkpt lat="43.44885" lon="3.50192">
        <ele>92.1</ele>
        <time>2018-09-25T20:45:16.819Z</time>
      </trkpt>
      <trkpt lat="43.4489" lon="3.50189">
        <ele>92.2</ele>
        <time>2018-09-25T20:45:17.819Z</time>
      </trkpt>
      <trkpt lat="43.44893" lon="3.50187">
        <ele>92.2</ele>
        <time>2018-09-25T20:45:18.819Z</time>
      </trkpt>
      <trkpt lat="43.44898" lon="3.50185">
        <ele>92.3</ele>
        <time>2018-09-25T20:45:19.819Z</time>
      </trkpt>
      <trkpt lat="43.44902" lon="3.50182">
        <ele>92.3</ele>
        <time>2018-09-25T20:45:20.819Z</time>
      </trkpt>
      <trkpt lat="43.44907" lon="3.50177">
        <ele>92.4</ele>
        <time>2018-09-25T20:45:21.819Z</time>
      </trkpt>
      <trkpt lat="43.4491" lon="3.5017">
        <ele>92.4</ele>
        <time>2018-09-25T20:45:22.819Z</time>
      </trkpt>
      <trkpt lat="43.44915" lon="3.50165">
        <ele>92.5</ele>
        <time>2018-09-25T20:45:23.819Z</time>
      </trkpt>
      <trkpt lat="43.44918" lon="3.50159">
        <ele>92.6</ele>
        <time>2018-09-25T20:45:24.819Z</time>
      </trkpt>
      <trkpt lat="43.44922" lon="3.50154">
        <ele>92.6</ele>
        <time>2018-09-25T20:45:25.819Z</time>
      </trkpt>
      <trkpt lat="43.44924" lon="3.50151">
        <ele>92.7</ele>
        <time>2018-09-25T20:45:26.819Z</time>
      </trkpt>
      <trkpt lat="43.44927" lon="3.50148">
        <ele>92.7</ele>
        <time>2018-09-25T20:45:27.819Z</time>
      </trkpt>
      <trkpt lat="43.4493" lon="3.50145">
        <ele>92.8</ele>
        <time>2018-09-25T20:45:28.819Z</time>
      </trkpt>
      <trkpt lat="43.44932" lon="3.50142">
        <ele>92.8</ele>
        <time>2018-09-25T20:45:29.819Z</time>
      </trkpt>
      <trkpt lat="43.44934" lon="3.50139">
        <ele>92.9</ele>
        <time>2018-09-25T20:45:30.819Z</time>
      </trkpt>
      <trkpt lat="43.44938" lon="3.50134">
        <ele>92.9</ele>
        <time>2018-09-25T20:45:32.819Z</time>
      </trkpt>
      <trkpt lat="43.4494" lon="3.50131">
        <ele>93</ele>
        <time>2018-09-25T20:45:33.819Z</time>
      </trkpt>
      <trkpt lat="43.44942" lon="3.50127">
        <ele>93</ele>
        <time>2018-09-25T20:45:34.819Z</time>
      </trkpt>
      <trkpt lat="43.44945" lon="3.50122">
        <ele>93</ele>
        <time>2018-09-25T20:45:35.819Z</time>
      </trkpt>
      <trkpt lat="43.44948" lon="3.50116">
        <ele>93</ele>
        <time>2018-09-25T20:45:36.819Z</time>
      </trkpt>
      <trkpt lat="43.4495" lon="3.50111">
        <ele>93</ele>
        <time>2018-09-25T20:45:37.819Z</time>
      </trkpt>
      <trkpt lat="43.44952" lon="3.50106">
        <ele>93</ele>
        <time>2018-09-25T20:45:38.819Z</time>
      </trkpt>
      <trkpt lat="43.44954" lon="3.50101">
        <ele>93</ele>
        <time>2018-09-25T20:45:39.819Z</time>
      </trkpt>
      <trkpt lat="43.44957" lon="3.50096">
        <ele>93</ele>
        <time>2018-09-25T20:45:40.819Z</time>
      </trkpt>
      <trkpt lat="43.44959" lon="3.50091">
        <ele>93</ele>
        <time>2018-09-25T20:45:41.819Z</time>
      </trkpt>
      <trkpt lat="43.4496" lon="3.50085">
        <ele>93</ele>
        <time>2018-09-25T20:45:42.819Z</time>
      </trkpt>
      <trkpt lat="43.44962" lon="3.5008">
        <ele>93</ele>
        <time>2018-09-25T20:45:43.819Z</time>
      </trkpt>
      <trkpt lat="43.44964" lon="3.50075">
        <ele>93</ele>
        <time>2018-09-25T20:45:44.819Z</time>
      </trkpt>
      <trkpt lat="43.44966" lon="3.50069">
        <ele>92.9</ele>
        <time>2018-09-25T20:45:45.819Z</time>
      </trkpt>
      <trkpt lat="43.44968" lon="3.50064">
        <ele>92.9</ele>
        <time>2018-09-25T20:45:46.819Z</time>
      </trkpt>
      <trkpt lat="43.44969" lon="3.50059">
        <ele>92.9</ele>
        <time>2018-09-25T20:45:47.819Z</time>
      </trkpt>
      <trkpt lat="43.44972" lon="3.50055">
        <ele>92.9</ele>
        <time>2018-09-25T20:45:48.819Z</time>
      </trkpt>
      <trkpt lat="43.44974" lon="3.5005">
        <ele>92.9</ele>
        <time>2018-09-25T20:45:49.819Z</time>
      </trkpt>
      <trkpt lat="43.44975" lon="3.50044">
        <ele>92.9</ele>
        <time>2018-09-25T20:45:50.819Z</time>
      </trkpt>
      <trkpt lat="43.44977" lon="3.50039">
        <ele>92.9</ele>
        <time>2018-09-25T20:45:51.819Z</time>
      </trkpt>
      <trkpt lat="43.44978" lon="3.50033">
        <ele>92.9</ele>
        <time>2018-09-25T20:45:52.819Z</time>
      </trkpt>
      <trkpt lat="43.44979" lon="3.50028">
        <ele>92.9</ele>
        <time>2018-09-25T20:45:53.819Z</time>
      </trkpt>
      <trkpt lat="43.44981" lon="3.50023">
        <ele>92.8</ele>
        <time>2018-09-25T20:45:54.819Z</time>
      </trkpt>
      <trkpt lat="43.44982" lon="3.50017">
        <ele>92.8</ele>
        <time>2018-09-25T20:45:55.819Z</time>
      </trkpt>
      <trkpt lat="43.44983" lon="3.50011">
        <ele>92.8</ele>
        <time>2018-09-25T20:45:56.819Z</time>
      </trkpt>
      <trkpt lat="43.44984" lon="3.50005">
        <ele>92.8</ele>
        <time>2018-09-25T20:45:57.819Z</time>
      </trkpt>
      <trkpt lat="43.44986" lon="3.5">
        <ele>92.8</ele>
        <time>2018-09-25T20:45:58.819Z</time>
      </trkpt>
      <trkpt lat="43.44987" lon="3.49995">
        <ele>92.8</ele>
        <time>2018-09-25T20:45:59.819Z</time>
      </trkpt>
      <trkpt lat="43.44988" lon="3.4999">
        <ele>92.8</ele>
        <time>2018-09-25T20:46:00.819Z</time>
      </trkpt>
      <trkpt lat="43.4499" lon="3.49984">
        <ele>92.8</ele>
        <time>2018-09-25T20:46:01.819Z</time>
      </trkpt>
      <trkpt lat="43.44991" lon="3.4998">
        <ele>92.8</ele>
        <time>2018-09-25T20:46:02.819Z</time>
      </trkpt>
      <trkpt lat="43.44993" lon="3.49975">
        <ele>92.8</ele>
        <time>2018-09-25T20:46:03.819Z</time>
      </trkpt>
      <trkpt lat="43.44994" lon="3.4997">
        <ele>92.8</ele>
        <time>2018-09-25T20:46:04.819Z</time>
      </trkpt>
      <trkpt lat="43.44997" lon="3.49964">
        <ele>92.9</ele>
        <time>2018-09-25T20:46:05.819Z</time>
      </trkpt>
      <trkpt lat="43.44999" lon="3.49959">
        <ele>92.9</ele>
        <time>2018-09-25T20:46:06.819Z</time>
      </trkpt>
      <trkpt lat="43.45" lon="3.49953">
        <ele>92.9</ele>
        <time>2018-09-25T20:46:07.819Z</time>
      </trkpt>
      <trkpt lat="43.45002" lon="3.49947">
        <ele>93</ele>
        <time>2018-09-25T20:46:08.819Z</time>
      </trkpt>
      <trkpt lat="43.45003" lon="3.4994">
        <ele>93</ele>
        <time>2018-09-25T20:46:09.819Z</time>
      </trkpt>
      <trkpt lat="43.45004" lon="3.49934">
        <ele>93.2</ele>
        <time>2018-09-25T20:46:10.819Z</time>
      </trkpt>
      <trkpt lat="43.45005" lon="3.49928">
        <ele>93.3</ele>
        <time>2018-09-25T20:46:11.819Z</time>
      </trkpt>
      <trkpt lat="43.45007" lon="3.49922">
        <ele>93.5</ele>
        <time>2018-09-25T20:46:12.819Z</time>
      </trkpt>
      <trkpt lat="43.4501" lon="3.49916">
        <ele>93.7</ele>
        <time>2018-09-25T20:46:13.819Z</time>
      </trkpt>
      <trkpt lat="43.45011" lon="3.49911">
        <ele>93.8</ele>
        <time>2018-09-25T20:46:14.819Z</time>
      </trkpt>
      <trkpt lat="43.45013" lon="3.49905">
        <ele>93.9</ele>
        <time>2018-09-25T20:46:15.819Z</time>
      </trkpt>
      <trkpt lat="43.45016" lon="3.499">
        <ele>93.9</ele>
        <time>2018-09-25T20:46:16.819Z</time>
      </trkpt>
      <trkpt lat="43.45018" lon="3.49896">
        <ele>93.9</ele>
        <time>2018-09-25T20:46:17.819Z</time>
      </trkpt>
      <trkpt lat="43.4502" lon="3.4989">
        <ele>94</ele>
        <time>2018-09-25T20:46:18.819Z</time>
      </trkpt>
      <trkpt lat="43.45022" lon="3.49885">
        <ele>94</ele>
        <time>2018-09-25T20:46:19.819Z</time>
      </trkpt>
      <trkpt lat="43.45025" lon="3.4988">
        <ele>94</ele>
        <time>2018-09-25T20:46:20.819Z</time>
      </trkpt>
      <trkpt lat="43.45029" lon="3.49875">
        <ele>94</ele>
        <time>2018-09-25T20:46:21.819Z</time>
      </trkpt>
      <trkpt lat="43.45031" lon="3.49868">
        <ele>94</ele>
        <time>2018-09-25T20:46:22.819Z</time>
      </trkpt>
      <trkpt lat="43.45033" lon="3.49862">
        <ele>94</ele>
        <time>2018-09-25T20:46:23.819Z</time>
      </trkpt>
      <trkpt lat="43.45035" lon="3.49856">
        <ele>94</ele>
        <time>2018-09-25T20:46:24.819Z</time>
      </trkpt>
      <trkpt lat="43.45037" lon="3.4985">
        <ele>93.9</ele>
        <time>2018-09-25T20:46:25.819Z</time>
      </trkpt>
      <trkpt lat="43.45039" lon="3.49845">
        <ele>93.9</ele>
        <time>2018-09-25T20:46:26.819Z</time>
      </trkpt>
      <trkpt lat="43.45042" lon="3.49839">
        <ele>93.9</ele>
        <time>2018-09-25T20:46:27.819Z</time>
      </trkpt>
      <trkpt lat="43.45045" lon="3.49835">
        <ele>93.9</ele>
        <time>2018-09-25T20:46:28.819Z</time>
      </trkpt>
      <trkpt lat="43.45048" lon="3.49832">
        <ele>93.9</ele>
        <time>2018-09-25T20:46:29.819Z</time>
      </trkpt>
      <trkpt lat="43.45051" lon="3.49829">
        <ele>93.8</ele>
        <time>2018-09-25T20:46:30.819Z</time>
      </trkpt>
      <trkpt lat="43.45053" lon="3.49824">
        <ele>93.8</ele>
        <time>2018-09-25T20:46:31.819Z</time>
      </trkpt>
      <trkpt lat="43.45055" lon="3.49819">
        <ele>93.8</ele>
        <time>2018-09-25T20:46:32.819Z</time>
      </trkpt>
      <trkpt lat="43.45058" lon="3.49815">
        <ele>93.8</ele>
        <time>2018-09-25T20:46:33.819Z</time>
      </trkpt>
      <trkpt lat="43.45061" lon="3.49808">
        <ele>93.8</ele>
        <time>2018-09-25T20:46:34.819Z</time>
      </trkpt>
      <trkpt lat="43.45064" lon="3.49802">
        <ele>93.8</ele>
        <time>2018-09-25T20:46:35.819Z</time>
      </trkpt>
      <trkpt lat="43.45067" lon="3.49797">
        <ele>93.7</ele>
        <time>2018-09-25T20:46:36.819Z</time>
      </trkpt>
      <trkpt lat="43.4507" lon="3.49791">
        <ele>93.7</ele>
        <time>2018-09-25T20:46:37.819Z</time>
      </trkpt>
      <trkpt lat="43.45073" lon="3.49785">
        <ele>93.7</ele>
        <time>2018-09-25T20:46:38.819Z</time>
      </trkpt>
      <trkpt lat="43.45077" lon="3.4978">
        <ele>93.7</ele>
        <time>2018-09-25T20:46:39.819Z</time>
      </trkpt>
      <trkpt lat="43.45081" lon="3.49776">
        <ele>93.7</ele>
        <time>2018-09-25T20:46:40.819Z</time>
      </trkpt>
      <trkpt lat="43.45085" lon="3.49773">
        <ele>93.7</ele>
        <time>2018-09-25T20:46:41.819Z</time>
      </trkpt>
      <trkpt lat="43.45088" lon="3.49768">
        <ele>93.7</ele>
        <time>2018-09-25T20:46:42.819Z</time>
      </trkpt>
      <trkpt lat="43.45092" lon="3.49764">
        <ele>93.6</ele>
        <time>2018-09-25T20:46:43.819Z</time>
      </trkpt>
      <trkpt lat="43.45096" lon="3.4976">
        <ele>93.6</ele>
        <time>2018-09-25T20:46:44.819Z</time>
      </trkpt>
      <trkpt lat="43.451" lon="3.49757">
        <ele>93.6</ele>
        <time>2018-09-25T20:46:45.819Z</time>
      </trkpt>
      <trkpt lat="43.45104" lon="3.49754">
        <ele>93.6</ele>
        <time>2018-09-25T20:46:46.819Z</time>
      </trkpt>
      <trkpt lat="43.45108" lon="3.49749">
        <ele>93.6</ele>
        <time>2018-09-25T20:46:47.819Z</time>
      </trkpt>
      <trkpt lat="43.45113" lon="3.49745">
        <ele>93.6</ele>
        <time>2018-09-25T20:46:48.819Z</time>
      </trkpt>
      <trkpt lat="43.45118" lon="3.49741">
        <ele>93.6</ele>
        <time>2018-09-25T20:46:49.819Z</time>
      </trkpt>
      <trkpt lat="43.45122" lon="3.49738">
        <ele>93.6</ele>
        <time>2018-09-25T20:46:50.819Z</time>
      </trkpt>
      <trkpt lat="43.45126" lon="3.49733">
        <ele>93.5</ele>
        <time>2018-09-25T20:46:51.819Z</time>
      </trkpt>
      <trkpt lat="43.4513" lon="3.4973">
        <ele>93.5</ele>
        <time>2018-09-25T20:46:52.819Z</time>
      </trkpt>
      <trkpt lat="43.45134" lon="3.49725">
        <ele>93.5</ele>
        <time>2018-09-25T20:46:53.819Z</time>
      </trkpt>
      <trkpt lat="43.45137" lon="3.49721">
        <ele>93.5</ele>
        <time>2018-09-25T20:46:54.819Z</time>
      </trkpt>
      <trkpt lat="43.45141" lon="3.49715">
        <ele>93.5</ele>
        <time>2018-09-25T20:46:55.819Z</time>
      </trkpt>
      <trkpt lat="43.45144" lon="3.4971">
        <ele>93.5</ele>
        <time>2018-09-25T20:46:56.819Z</time>
      </trkpt>
      <trkpt lat="43.45148" lon="3.49705">
        <ele>93.5</ele>
        <time>2018-09-25T20:46:57.819Z</time>
      </trkpt>
      <trkpt lat="43.45151" lon="3.497">
        <ele>93.5</ele>
        <time>2018-09-25T20:46:58.819Z</time>
      </trkpt>
      <trkpt lat="43.45154" lon="3.49695">
        <ele>93.4</ele>
        <time>2018-09-25T20:46:59.819Z</time>
      </trkpt>
      <trkpt lat="43.45156" lon="3.49689">
        <ele>93.4</ele>
        <time>2018-09-25T20:47:00.819Z</time>
      </trkpt>
      <trkpt lat="43.45159" lon="3.49684">
        <ele>93.4</ele>
        <time>2018-09-25T20:47:01.819Z</time>
      </trkpt>
      <trkpt lat="43.45162" lon="3.49678">
        <ele>93.4</ele>
        <time>2018-09-25T20:47:02.819Z</time>
      </trkpt>
      <trkpt lat="43.45165" lon="3.49671">
        <ele>93.4</ele>
        <time>2018-09-25T20:47:03.819Z</time>
      </trkpt>
      <trkpt lat="43.45168" lon="3.49664">
        <ele>93.4</ele>
        <time>2018-09-25T20:47:04.819Z</time>
      </trkpt>
      <trkpt lat="43.45171" lon="3.49658">
        <ele>93.4</ele>
        <time>2018-09-25T20:47:05.819Z</time>
      </trkpt>
      <trkpt lat="43.45175" lon="3.49652">
        <ele>93.3</ele>
        <time>2018-09-25T20:47:06.819Z</time>
      </trkpt>
      <trkpt lat="43.45178" lon="3.49646">
        <ele>93.3</ele>
        <time>2018-09-25T20:47:07.819Z</time>
      </trkpt>
      <trkpt lat="43.45181" lon="3.4964">
        <ele>93.3</ele>
        <time>2018-09-25T20:47:08.819Z</time>
      </trkpt>
      <trkpt lat="43.45184" lon="3.49635">
        <ele>93.3</ele>
        <time>2018-09-25T20:47:09.819Z</time>
      </trkpt>
      <trkpt lat="43.45187" lon="3.4963">
        <ele>93.3</ele>
        <time>2018-09-25T20:47:10.819Z</time>
      </trkpt>
      <trkpt lat="43.4519" lon="3.49625">
        <ele>93.3</ele>
        <time>2018-09-25T20:47:11.819Z</time>
      </trkpt>
      <trkpt lat="43.45193" lon="3.4962">
        <ele>93.3</ele>
        <time>2018-09-25T20:47:12.819Z</time>
      </trkpt>
      <trkpt lat="43.45195" lon="3.49615">
        <ele>93.3</ele>
        <time>2018-09-25T20:47:13.819Z</time>
      </trkpt>
      <trkpt lat="43.45198" lon="3.49609">
        <ele>93.2</ele>
        <time>2018-09-25T20:47:14.819Z</time>
      </trkpt>
      <trkpt lat="43.45201" lon="3.49603">
        <ele>93.2</ele>
        <time>2018-09-25T20:47:15.819Z</time>
      </trkpt>
      <trkpt lat="43.45203" lon="3.49597">
        <ele>93.2</ele>
        <time>2018-09-25T20:47:16.819Z</time>
      </trkpt>
      <trkpt lat="43.45206" lon="3.49592">
        <ele>93.2</ele>
        <time>2018-09-25T20:47:17.819Z</time>
      </trkpt>
      <trkpt lat="43.45208" lon="3.49586">
        <ele>93.2</ele>
        <time>2018-09-25T20:47:18.819Z</time>
      </trkpt>
      <trkpt lat="43.45211" lon="3.49581">
        <ele>93.2</ele>
        <time>2018-09-25T20:47:19.819Z</time>
      </trkpt>
      <trkpt lat="43.45214" lon="3.49574">
        <ele>93.2</ele>
        <time>2018-09-25T20:47:20.819Z</time>
      </trkpt>
      <trkpt lat="43.45217" lon="3.49568">
        <ele>93.2</ele>
        <time>2018-09-25T20:47:21.819Z</time>
      </trkpt>
      <trkpt lat="43.45219" lon="3.49562">
        <ele>93.1</ele>
        <time>2018-09-25T20:47:22.819Z</time>
      </trkpt>
      <trkpt lat="43.45222" lon="3.49557">
        <ele>93.1</ele>
        <time>2018-09-25T20:47:23.819Z</time>
      </trkpt>
      <trkpt lat="43.45225" lon="3.49551">
        <ele>93.1</ele>
        <time>2018-09-25T20:47:24.819Z</time>
      </trkpt>
      <trkpt lat="43.45228" lon="3.49546">
        <ele>93.1</ele>
        <time>2018-09-25T20:47:25.819Z</time>
      </trkpt>
      <trkpt lat="43.45231" lon="3.49541">
        <ele>93.1</ele>
        <time>2018-09-25T20:47:26.819Z</time>
      </trkpt>
      <trkpt lat="43.45234" lon="3.49536">
        <ele>93.1</ele>
        <time>2018-09-25T20:47:27.819Z</time>
      </trkpt>
      <trkpt lat="43.45237" lon="3.49531">
        <ele>93</ele>
        <time>2018-09-25T20:47:28.819Z</time>
      </trkpt>
      <trkpt lat="43.4524" lon="3.49525">
        <ele>93</ele>
        <time>2018-09-25T20:47:29.819Z</time>
      </trkpt>
      <trkpt lat="43.45243" lon="3.4952">
        <ele>93</ele>
        <time>2018-09-25T20:47:30.819Z</time>
      </trkpt>
      <trkpt lat="43.45246" lon="3.49515">
        <ele>93</ele>
        <time>2018-09-25T20:47:31.819Z</time>
      </trkpt>
      <trkpt lat="43.45249" lon="3.4951">
        <ele>93</ele>
        <time>2018-09-25T20:47:32.819Z</time>
      </trkpt>
      <trkpt lat="43.45253" lon="3.49505">
        <ele>92.9</ele>
        <time>2018-09-25T20:47:33.819Z</time>
      </trkpt>
      <trkpt lat="43.45256" lon="3.495">
        <ele>92.9</ele>
        <time>2018-09-25T20:47:34.819Z</time>
      </trkpt>
      <trkpt lat="43.4526" lon="3.49494">
        <ele>92.9</ele>
        <time>2018-09-25T20:47:35.819Z</time>
      </trkpt>
      <trkpt lat="43.45264" lon="3.49489">
        <ele>92.9</ele>
        <time>2018-09-25T20:47:36.819Z</time>
      </trkpt>
      <trkpt lat="43.45267" lon="3.49484">
        <ele>92.9</ele>
        <time>2018-09-25T20:47:37.819Z</time>
      </trkpt>
      <trkpt lat="43.45271" lon="3.49478">
        <ele>92.9</ele>
        <time>2018-09-25T20:47:38.819Z</time>
      </trkpt>
      <trkpt lat="43.45275" lon="3.49473">
        <ele>93.1</ele>
        <time>2018-09-25T20:47:39.819Z</time>
      </trkpt>
      <trkpt lat="43.45278" lon="3.49467">
        <ele>93.2</ele>
        <time>2018-09-25T20:47:40.819Z</time>
      </trkpt>
      <trkpt lat="43.45281" lon="3.49462">
        <ele>93.4</ele>
        <time>2018-09-25T20:47:41.819Z</time>
      </trkpt>
      <trkpt lat="43.45285" lon="3.49456">
        <ele>93.7</ele>
        <time>2018-09-25T20:47:42.819Z</time>
      </trkpt>
      <trkpt lat="43.45288" lon="3.4945">
        <ele>93.8</ele>
        <time>2018-09-25T20:47:43.819Z</time>
      </trkpt>
      <trkpt lat="43.45291" lon="3.49444">
        <ele>93.9</ele>
        <time>2018-09-25T20:47:44.819Z</time>
      </trkpt>
      <trkpt lat="43.45293" lon="3.49438">
        <ele>93.9</ele>
        <time>2018-09-25T20:47:45.819Z</time>
      </trkpt>
      <trkpt lat="43.45296" lon="3.49432">
        <ele>94</ele>
        <time>2018-09-25T20:47:46.819Z</time>
      </trkpt>
      <trkpt lat="43.45299" lon="3.49427">
        <ele>94</ele>
        <time>2018-09-25T20:47:47.819Z</time>
      </trkpt>
      <trkpt lat="43.45301" lon="3.49422">
        <ele>94</ele>
        <time>2018-09-25T20:47:48.819Z</time>
      </trkpt>
      <trkpt lat="43.45304" lon="3.49416">
        <ele>94</ele>
        <time>2018-09-25T20:47:49.819Z</time>
      </trkpt>
      <trkpt lat="43.45306" lon="3.49411">
        <ele>94.1</ele>
        <time>2018-09-25T20:47:50.819Z</time>
      </trkpt>
      <trkpt lat="43.45309" lon="3.49406">
        <ele>94.1</ele>
        <time>2018-09-25T20:47:51.819Z</time>
      </trkpt>
      <trkpt lat="43.45311" lon="3.494">
        <ele>94.1</ele>
        <time>2018-09-25T20:47:52.819Z</time>
      </trkpt>
      <trkpt lat="43.45314" lon="3.49395">
        <ele>94</ele>
        <time>2018-09-25T20:47:53.819Z</time>
      </trkpt>
      <trkpt lat="43.45316" lon="3.49391">
        <ele>94</ele>
        <time>2018-09-25T20:47:54.819Z</time>
      </trkpt>
      <trkpt lat="43.45318" lon="3.49387">
        <ele>94</ele>
        <time>2018-09-25T20:47:55.819Z</time>
      </trkpt>
      <trkpt lat="43.4532" lon="3.49383">
        <ele>94</ele>
        <time>2018-09-25T20:47:56.819Z</time>
      </trkpt>
      <trkpt lat="43.45322" lon="3.49378">
        <ele>94</ele>
        <time>2018-09-25T20:47:57.819Z</time>
      </trkpt>
      <trkpt lat="43.45324" lon="3.49374">
        <ele>94</ele>
        <time>2018-09-25T20:47:58.819Z</time>
      </trkpt>
      <trkpt lat="43.45326" lon="3.49368">
        <ele>93.9</ele>
        <time>2018-09-25T20:47:59.819Z</time>
      </trkpt>
      <trkpt lat="43.45327" lon="3.49363">
        <ele>93.8</ele>
        <time>2018-09-25T20:48:00.819Z</time>
      </trkpt>
      <trkpt lat="43.45329" lon="3.49358">
        <ele>93.7</ele>
        <time>2018-09-25T20:48:01.819Z</time>
      </trkpt>
      <trkpt lat="43.45329" lon="3.49353">
        <ele>93.7</ele>
        <time>2018-09-25T20:48:02.819Z</time>
      </trkpt>
      <trkpt lat="43.4533" lon="3.49348">
        <ele>93.6</ele>
        <time>2018-09-25T20:48:03.819Z</time>
      </trkpt>
      <trkpt lat="43.45333" lon="3.49343">
        <ele>93.5</ele>
        <time>2018-09-25T20:48:04.819Z</time>
      </trkpt>
      <trkpt lat="43.45336" lon="3.49339">
        <ele>93.4</ele>
        <time>2018-09-25T20:48:05.819Z</time>
      </trkpt>
      <trkpt lat="43.45341" lon="3.49334">
        <ele>93.4</ele>
        <time>2018-09-25T20:48:06.819Z</time>
      </trkpt>
      <trkpt lat="43.45344" lon="3.49329">
        <ele>93.3</ele>
        <time>2018-09-25T20:48:07.819Z</time>
      </trkpt>
      <trkpt lat="43.45348" lon="3.49326">
        <ele>93.3</ele>
        <time>2018-09-25T20:48:08.819Z</time>
      </trkpt>
      <trkpt lat="43.45353" lon="3.49322">
        <ele>93.2</ele>
        <time>2018-09-25T20:48:09.819Z</time>
      </trkpt>
      <trkpt lat="43.45357" lon="3.49318">
        <ele>93.1</ele>
        <time>2018-09-25T20:48:10.819Z</time>
      </trkpt>
      <trkpt lat="43.45362" lon="3.49315">
        <ele>93</ele>
        <time>2018-09-25T20:48:11.819Z</time>
      </trkpt>
      <trkpt lat="43.45366" lon="3.49312">
        <ele>93</ele>
        <time>2018-09-25T20:48:12.819Z</time>
      </trkpt>
      <trkpt lat="43.4537" lon="3.49308">
        <ele>93</ele>
        <time>2018-09-25T20:48:13.819Z</time>
      </trkpt>
      <trkpt lat="43.45374" lon="3.49304">
        <ele>92.9</ele>
        <time>2018-09-25T20:48:14.819Z</time>
      </trkpt>
      <trkpt lat="43.45378" lon="3.493">
        <ele>92.9</ele>
        <time>2018-09-25T20:48:15.819Z</time>
      </trkpt>
      <trkpt lat="43.45382" lon="3.49296">
        <ele>92.9</ele>
        <time>2018-09-25T20:48:16.819Z</time>
      </trkpt>
      <trkpt lat="43.45387" lon="3.49292">
        <ele>92.8</ele>
        <time>2018-09-25T20:48:17.819Z</time>
      </trkpt>
      <trkpt lat="43.45391" lon="3.49288">
        <ele>92.8</ele>
        <time>2018-09-25T20:48:18.819Z</time>
      </trkpt>
      <trkpt lat="43.45396" lon="3.49284">
        <ele>92.8</ele>
        <time>2018-09-25T20:48:19.819Z</time>
      </trkpt>
      <trkpt lat="43.454" lon="3.4928">
        <ele>92.8</ele>
        <time>2018-09-25T20:48:20.819Z</time>
      </trkpt>
      <trkpt lat="43.45404" lon="3.49276">
        <ele>92.8</ele>
        <time>2018-09-25T20:48:21.819Z</time>
      </trkpt>
      <trkpt lat="43.45409" lon="3.49272">
        <ele>92.8</ele>
        <time>2018-09-25T20:48:22.819Z</time>
      </trkpt>
      <trkpt lat="43.45413" lon="3.49269">
        <ele>92.8</ele>
        <time>2018-09-25T20:48:23.819Z</time>
      </trkpt>
      <trkpt lat="43.45418" lon="3.49264">
        <ele>92.9</ele>
        <time>2018-09-25T20:48:24.819Z</time>
      </trkpt>
      <trkpt lat="43.45422" lon="3.49261">
        <ele>92.9</ele>
        <time>2018-09-25T20:48:25.819Z</time>
      </trkpt>
      <trkpt lat="43.45427" lon="3.49256">
        <ele>92.9</ele>
        <time>2018-09-25T20:48:26.819Z</time>
      </trkpt>
      <trkpt lat="43.45432" lon="3.49253">
        <ele>93</ele>
        <time>2018-09-25T20:48:27.819Z</time>
      </trkpt>
      <trkpt lat="43.45436" lon="3.49249">
        <ele>93</ele>
        <time>2018-09-25T20:48:28.819Z</time>
      </trkpt>
      <trkpt lat="43.45441" lon="3.49245">
        <ele>93</ele>
        <time>2018-09-25T20:48:29.819Z</time>
      </trkpt>
      <trkpt lat="43.45445" lon="3.49241">
        <ele>93.1</ele>
        <time>2018-09-25T20:48:30.819Z</time>
      </trkpt>
      <trkpt lat="43.4545" lon="3.49238">
        <ele>93.1</ele>
        <time>2018-09-25T20:48:31.819Z</time>
      </trkpt>
      <trkpt lat="43.45455" lon="3.49234">
        <ele>93.3</ele>
        <time>2018-09-25T20:48:32.819Z</time>
      </trkpt>
      <trkpt lat="43.4546" lon="3.49231">
        <ele>93.4</ele>
        <time>2018-09-25T20:48:33.819Z</time>
      </trkpt>
      <trkpt lat="43.45466" lon="3.49227">
        <ele>93.5</ele>
        <time>2018-09-25T20:48:34.819Z</time>
      </trkpt>
      <trkpt lat="43.45471" lon="3.49223">
        <ele>93.6</ele>
        <time>2018-09-25T20:48:35.819Z</time>
      </trkpt>
      <trkpt lat="43.45476" lon="3.4922">
        <ele>93.8</ele>
        <time>2018-09-25T20:48:36.819Z</time>
      </trkpt>
      <trkpt lat="43.45481" lon="3.49217">
        <ele>94</ele>
        <time>2018-09-25T20:48:37.819Z</time>
      </trkpt>
      <trkpt lat="43.45487" lon="3.49214">
        <ele>94.1</ele>
        <time>2018-09-25T20:48:38.819Z</time>
      </trkpt>
      <trkpt lat="43.45491" lon="3.4921">
        <ele>94.2</ele>
        <time>2018-09-25T20:48:39.819Z</time>
      </trkpt>
      <trkpt lat="43.45496" lon="3.49208">
        <ele>94.3</ele>
        <time>2018-09-25T20:48:40.819Z</time>
      </trkpt>
      <trkpt lat="43.45501" lon="3.49205">
        <ele>94.4</ele>
        <time>2018-09-25T20:48:41.819Z</time>
      </trkpt>
      <trkpt lat="43.45506" lon="3.49202">
        <ele>94.5</ele>
        <time>2018-09-25T20:48:42.819Z</time>
      </trkpt>
      <trkpt lat="43.45511" lon="3.49199">
        <ele>94.6</ele>
        <time>2018-09-25T20:48:43.819Z</time>
      </trkpt>
      <trkpt lat="43.45515" lon="3.49195">
        <ele>94.7</ele>
        <time>2018-09-25T20:48:44.819Z</time>
      </trkpt>
      <trkpt lat="43.4552" lon="3.49192">
        <ele>94.8</ele>
        <time>2018-09-25T20:48:45.819Z</time>
      </trkpt>
      <trkpt lat="43.45525" lon="3.49189">
        <ele>94.9</ele>
        <time>2018-09-25T20:48:46.819Z</time>
      </trkpt>
      <trkpt lat="43.4553" lon="3.49187">
        <ele>95</ele>
        <time>2018-09-25T20:48:47.819Z</time>
      </trkpt>
      <trkpt lat="43.45534" lon="3.49184">
        <ele>95.1</ele>
        <time>2018-09-25T20:48:48.819Z</time>
      </trkpt>
      <trkpt lat="43.45539" lon="3.49181">
        <ele>95.2</ele>
        <time>2018-09-25T20:48:49.819Z</time>
      </trkpt>
      <trkpt lat="43.45543" lon="3.49178">
        <ele>95.3</ele>
        <time>2018-09-25T20:48:50.819Z</time>
      </trkpt>
      <trkpt lat="43.45547" lon="3.49175">
        <ele>95.4</ele>
        <time>2018-09-25T20:48:51.819Z</time>
      </trkpt>
      <trkpt lat="43.4555" lon="3.49173">
        <ele>95.5</ele>
        <time>2018-09-25T20:48:52.819Z</time>
      </trkpt>
      <trkpt lat="43.45554" lon="3.49171">
        <ele>95.6</ele>
        <time>2018-09-25T20:48:53.819Z</time>
      </trkpt>
      <trkpt lat="43.45557" lon="3.49168">
        <ele>95.8</ele>
        <time>2018-09-25T20:48:54.819Z</time>
      </trkpt>
      <trkpt lat="43.4556" lon="3.49165">
        <ele>95.9</ele>
        <time>2018-09-25T20:48:55.819Z</time>
      </trkpt>
      <trkpt lat="43.45563" lon="3.49162">
        <ele>96</ele>
        <time>2018-09-25T20:48:56.819Z</time>
      </trkpt>
      <trkpt lat="43.45567" lon="3.4916">
        <ele>96.1</ele>
        <time>2018-09-25T20:48:57.819Z</time>
      </trkpt>
      <trkpt lat="43.45571" lon="3.49156">
        <ele>96.2</ele>
        <time>2018-09-25T20:48:58.819Z</time>
      </trkpt>
      <trkpt lat="43.45575" lon="3.49152">
        <ele>96.3</ele>
        <time>2018-09-25T20:48:59.819Z</time>
      </trkpt>
      <trkpt lat="43.45578" lon="3.49149">
        <ele>96.3</ele>
        <time>2018-09-25T20:49:00.819Z</time>
      </trkpt>
      <trkpt lat="43.45581" lon="3.49145">
        <ele>96.4</ele>
        <time>2018-09-25T20:49:01.819Z</time>
      </trkpt>
      <trkpt lat="43.45585" lon="3.49142">
        <ele>96.5</ele>
        <time>2018-09-25T20:49:02.819Z</time>
      </trkpt>
      <trkpt lat="43.4559" lon="3.49138">
        <ele>96.6</ele>
        <time>2018-09-25T20:49:03.819Z</time>
      </trkpt>
      <trkpt lat="43.45593" lon="3.49134">
        <ele>96.6</ele>
        <time>2018-09-25T20:49:04.819Z</time>
      </trkpt>
      <trkpt lat="43.45597" lon="3.4913">
        <ele>96.7</ele>
        <time>2018-09-25T20:49:05.819Z</time>
      </trkpt>
      <trkpt lat="43.456" lon="3.49127">
        <ele>96.7</ele>
        <time>2018-09-25T20:49:06.819Z</time>
      </trkpt>
      <trkpt lat="43.45604" lon="3.49123">
        <ele>96.7</ele>
        <time>2018-09-25T20:49:07.819Z</time>
      </trkpt>
      <trkpt lat="43.45608" lon="3.49118">
        <ele>96.7</ele>
        <time>2018-09-25T20:49:08.819Z</time>
      </trkpt>
      <trkpt lat="43.45612" lon="3.49114">
        <ele>96.8</ele>
        <time>2018-09-25T20:49:09.819Z</time>
      </trkpt>
      <trkpt lat="43.45616" lon="3.49109">
        <ele>96.8</ele>
        <time>2018-09-25T20:49:10.819Z</time>
      </trkpt>
      <trkpt lat="43.45619" lon="3.49106">
        <ele>96.8</ele>
        <time>2018-09-25T20:49:11.819Z</time>
      </trkpt>
      <trkpt lat="43.45623" lon="3.49103">
        <ele>96.8</ele>
        <time>2018-09-25T20:49:12.819Z</time>
      </trkpt>
      <trkpt lat="43.45626" lon="3.49099">
        <ele>96.9</ele>
        <time>2018-09-25T20:49:13.819Z</time>
      </trkpt>
      <trkpt lat="43.45629" lon="3.49096">
        <ele>96.9</ele>
        <time>2018-09-25T20:49:14.819Z</time>
      </trkpt>
      <trkpt lat="43.45632" lon="3.49094">
        <ele>96.9</ele>
        <time>2018-09-25T20:49:15.819Z</time>
      </trkpt>
      <trkpt lat="43.45634" lon="3.49091">
        <ele>96.9</ele>
        <time>2018-09-25T20:49:16.819Z</time>
      </trkpt>
      <trkpt lat="43.45636" lon="3.49087">
        <ele>96.9</ele>
        <time>2018-09-25T20:49:17.819Z</time>
      </trkpt>
      <trkpt lat="43.45637" lon="3.49083">
        <ele>96.9</ele>
        <time>2018-09-25T20:49:18.819Z</time>
      </trkpt>
      <trkpt lat="43.45638" lon="3.49079">
        <ele>97</ele>
        <time>2018-09-25T20:49:19.819Z</time>
      </trkpt>
      <trkpt lat="43.45639" lon="3.49075">
        <ele>97</ele>
        <time>2018-09-25T20:49:20.819Z</time>
      </trkpt>
      <trkpt lat="43.4564" lon="3.49071">
        <ele>97</ele>
        <time>2018-09-25T20:49:21.819Z</time>
      </trkpt>
      <trkpt lat="43.45642" lon="3.49067">
        <ele>97</ele>
        <time>2018-09-25T20:49:22.819Z</time>
      </trkpt>
      <trkpt lat="43.45642" lon="3.49061">
        <ele>97</ele>
        <time>2018-09-25T20:49:24.819Z</time>
      </trkpt>
      <trkpt lat="43.45641" lon="3.49057">
        <ele>97</ele>
        <time>2018-09-25T20:49:25.819Z</time>
      </trkpt>
      <trkpt lat="43.45639" lon="3.49055">
        <ele>97</ele>
        <time>2018-09-25T20:49:26.819Z</time>
      </trkpt>
      <trkpt lat="43.45635" lon="3.49052">
        <ele>97</ele>
        <time>2018-09-25T20:49:27.819Z</time>
      </trkpt>
      <trkpt lat="43.45632" lon="3.49048">
        <ele>97</ele>
        <time>2018-09-25T20:49:28.819Z</time>
      </trkpt>
      <trkpt lat="43.45629" lon="3.49044">
        <ele>97</ele>
        <time>2018-09-25T20:49:29.819Z</time>
      </trkpt>
      <trkpt lat="43.45625" lon="3.4904">
        <ele>97.1</ele>
        <time>2018-09-25T20:49:30.819Z</time>
      </trkpt>
      <trkpt lat="43.45623" lon="3.49035">
        <ele>97.1</ele>
        <time>2018-09-25T20:49:31.819Z</time>
      </trkpt>
      <trkpt lat="43.45621" lon="3.4903">
        <ele>97.1</ele>
        <time>2018-09-25T20:49:32.819Z</time>
      </trkpt>
      <trkpt lat="43.45618" lon="3.49025">
        <ele>97.2</ele>
        <time>2018-09-25T20:49:33.819Z</time>
      </trkpt>
      <trkpt lat="43.45614" lon="3.49021">
        <ele>97.2</ele>
        <time>2018-09-25T20:49:34.819Z</time>
      </trkpt>
      <trkpt lat="43.45611" lon="3.49017">
        <ele>97.2</ele>
        <time>2018-09-25T20:49:35.819Z</time>
      </trkpt>
      <trkpt lat="43.45609" lon="3.49014">
        <ele>97.2</ele>
        <time>2018-09-25T20:49:36.819Z</time>
      </trkpt>
      <trkpt lat="43.45605" lon="3.4901">
        <ele>97.3</ele>
        <time>2018-09-25T20:49:37.819Z</time>
      </trkpt>
      <trkpt lat="43.45602" lon="3.49005">
        <ele>97.3</ele>
        <time>2018-09-25T20:49:38.819Z</time>
      </trkpt>
      <trkpt lat="43.45599" lon="3.49">
        <ele>97.3</ele>
        <time>2018-09-25T20:49:39.819Z</time>
      </trkpt>
      <trkpt lat="43.45596" lon="3.48996">
        <ele>97.4</ele>
        <time>2018-09-25T20:49:40.819Z</time>
      </trkpt>
      <trkpt lat="43.45593" lon="3.48991">
        <ele>97.4</ele>
        <time>2018-09-25T20:49:41.819Z</time>
      </trkpt>
      <trkpt lat="43.4559" lon="3.48988">
        <ele>97.5</ele>
        <time>2018-09-25T20:49:42.819Z</time>
      </trkpt>
      <trkpt lat="43.45586" lon="3.48983">
        <ele>97.6</ele>
        <time>2018-09-25T20:49:43.819Z</time>
      </trkpt>
      <trkpt lat="43.45583" lon="3.48978">
        <ele>97.6</ele>
        <time>2018-09-25T20:49:44.819Z</time>
      </trkpt>
      <trkpt lat="43.4558" lon="3.48974">
        <ele>97.7</ele>
        <time>2018-09-25T20:49:45.819Z</time>
      </trkpt>
      <trkpt lat="43.45577" lon="3.48969">
        <ele>97.7</ele>
        <time>2018-09-25T20:49:46.819Z</time>
      </trkpt>
      <trkpt lat="43.45575" lon="3.48963">
        <ele>97.8</ele>
        <time>2018-09-25T20:49:47.819Z</time>
      </trkpt>
      <trkpt lat="43.45572" lon="3.48958">
        <ele>97.9</ele>
        <time>2018-09-25T20:49:48.819Z</time>
      </trkpt>
      <trkpt lat="43.4557" lon="3.48952">
        <ele>97.9</ele>
        <time>2018-09-25T20:49:49.819Z</time>
      </trkpt>
      <trkpt lat="43.45568" lon="3.48948">
        <ele>97.9</ele>
        <time>2018-09-25T20:49:50.819Z</time>
      </trkpt>
      <trkpt lat="43.45566" lon="3.48943">
        <ele>98</ele>
        <time>2018-09-25T20:49:51.819Z</time>
      </trkpt>
      <trkpt lat="43.45564" lon="3.48938">
        <ele>98</ele>
        <time>2018-09-25T20:49:52.819Z</time>
      </trkpt>
      <trkpt lat="43.45562" lon="3.48933">
        <ele>98.1</ele>
        <time>2018-09-25T20:49:53.819Z</time>
      </trkpt>
      <trkpt lat="43.4556" lon="3.48928">
        <ele>98.1</ele>
        <time>2018-09-25T20:49:54.819Z</time>
      </trkpt>
      <trkpt lat="43.45558" lon="3.48922">
        <ele>98.2</ele>
        <time>2018-09-25T20:49:55.819Z</time>
      </trkpt>
      <trkpt lat="43.45556" lon="3.48917">
        <ele>98.3</ele>
        <time>2018-09-25T20:49:56.819Z</time>
      </trkpt>
      <trkpt lat="43.45554" lon="3.48912">
        <ele>98.4</ele>
        <time>2018-09-25T20:49:57.819Z</time>
      </trkpt>
      <trkpt lat="43.45551" lon="3.48906">
        <ele>98.4</ele>
        <time>2018-09-25T20:49:58.819Z</time>
      </trkpt>
      <trkpt lat="43.45549" lon="3.489">
        <ele>98.5</ele>
        <time>2018-09-25T20:49:59.819Z</time>
      </trkpt>
      <trkpt lat="43.45546" lon="3.48896">
        <ele>98.5</ele>
        <time>2018-09-25T20:50:00.819Z</time>
      </trkpt>
      <trkpt lat="43.45543" lon="3.48891">
        <ele>98.6</ele>
        <time>2018-09-25T20:50:01.819Z</time>
      </trkpt>
      <trkpt lat="43.4554" lon="3.48886">
        <ele>98.6</ele>
        <time>2018-09-25T20:50:02.819Z</time>
      </trkpt>
      <trkpt lat="43.45538" lon="3.48882">
        <ele>98.7</ele>
        <time>2018-09-25T20:50:03.819Z</time>
      </trkpt>
      <trkpt lat="43.45535" lon="3.48878">
        <ele>98.8</ele>
        <time>2018-09-25T20:50:04.819Z</time>
      </trkpt>
      <trkpt lat="43.45533" lon="3.48873">
        <ele>98.8</ele>
        <time>2018-09-25T20:50:05.819Z</time>
      </trkpt>
      <trkpt lat="43.45531" lon="3.48868">
        <ele>98.9</ele>
        <time>2018-09-25T20:50:06.819Z</time>
      </trkpt>
      <trkpt lat="43.4553" lon="3.48864">
        <ele>98.9</ele>
        <time>2018-09-25T20:50:07.819Z</time>
      </trkpt>
      <trkpt lat="43.45529" lon="3.48859">
        <ele>98.9</ele>
        <time>2018-09-25T20:50:08.819Z</time>
      </trkpt>
      <trkpt lat="43.45528" lon="3.48853">
        <ele>99</ele>
        <time>2018-09-25T20:50:09.819Z</time>
      </trkpt>
      <trkpt lat="43.45528" lon="3.48848">
        <ele>99</ele>
        <time>2018-09-25T20:50:10.819Z</time>
      </trkpt>
      <trkpt lat="43.45526" lon="3.48843">
        <ele>99</ele>
        <time>2018-09-25T20:50:11.819Z</time>
      </trkpt>
      <trkpt lat="43.45525" lon="3.48839">
        <ele>99</ele>
        <time>2018-09-25T20:50:12.819Z</time>
      </trkpt>
      <trkpt lat="43.45523" lon="3.48833">
        <ele>99</ele>
        <time>2018-09-25T20:50:13.819Z</time>
      </trkpt>
      <trkpt lat="43.45521" lon="3.48827">
        <ele>99</ele>
        <time>2018-09-25T20:50:14.819Z</time>
      </trkpt>
      <trkpt lat="43.45518" lon="3.48822">
        <ele>99</ele>
        <time>2018-09-25T20:50:15.819Z</time>
      </trkpt>
      <trkpt lat="43.45516" lon="3.48816">
        <ele>99</ele>
        <time>2018-09-25T20:50:16.819Z</time>
      </trkpt>
      <trkpt lat="43.45513" lon="3.4881">
        <ele>99</ele>
        <time>2018-09-25T20:50:17.819Z</time>
      </trkpt>
      <trkpt lat="43.45511" lon="3.48805">
        <ele>99</ele>
        <time>2018-09-25T20:50:18.819Z</time>
      </trkpt>
      <trkpt lat="43.45509" lon="3.488">
        <ele>99</ele>
        <time>2018-09-25T20:50:19.819Z</time>
      </trkpt>
      <trkpt lat="43.45507" lon="3.48795">
        <ele>99</ele>
        <time>2018-09-25T20:50:20.819Z</time>
      </trkpt>
      <trkpt lat="43.45505" lon="3.48789">
        <ele>99</ele>
        <time>2018-09-25T20:50:21.819Z</time>
      </trkpt>
      <trkpt lat="43.45503" lon="3.48784">
        <ele>99</ele>
        <time>2018-09-25T20:50:22.819Z</time>
      </trkpt>
      <trkpt lat="43.45501" lon="3.48778">
        <ele>99</ele>
        <time>2018-09-25T20:50:23.819Z</time>
      </trkpt>
      <trkpt lat="43.45499" lon="3.48772">
        <ele>98.9</ele>
        <time>2018-09-25T20:50:24.819Z</time>
      </trkpt>
      <trkpt lat="43.45497" lon="3.48767">
        <ele>98.9</ele>
        <time>2018-09-25T20:50:25.819Z</time>
      </trkpt>
      <trkpt lat="43.45495" lon="3.48761">
        <ele>98.9</ele>
        <time>2018-09-25T20:50:26.819Z</time>
      </trkpt>
      <trkpt lat="43.45493" lon="3.48756">
        <ele>98.7</ele>
        <time>2018-09-25T20:50:27.819Z</time>
      </trkpt>
      <trkpt lat="43.4549" lon="3.4875">
        <ele>98.6</ele>
        <time>2018-09-25T20:50:28.819Z</time>
      </trkpt>
      <trkpt lat="43.45488" lon="3.48745">
        <ele>98.6</ele>
        <time>2018-09-25T20:50:29.819Z</time>
      </trkpt>
      <trkpt lat="43.45485" lon="3.4874">
        <ele>98.6</ele>
        <time>2018-09-25T20:50:30.819Z</time>
      </trkpt>
      <trkpt lat="43.45483" lon="3.48735">
        <ele>98.5</ele>
        <time>2018-09-25T20:50:31.819Z</time>
      </trkpt>
      <trkpt lat="43.45481" lon="3.48731">
        <ele>98.5</ele>
        <time>2018-09-25T20:50:32.819Z</time>
      </trkpt>
      <trkpt lat="43.45478" lon="3.48727">
        <ele>98.5</ele>
        <time>2018-09-25T20:50:33.819Z</time>
      </trkpt>
      <trkpt lat="43.45475" lon="3.48723">
        <ele>98.4</ele>
        <time>2018-09-25T20:50:34.819Z</time>
      </trkpt>
      <trkpt lat="43.45473" lon="3.48719">
        <ele>98.3</ele>
        <time>2018-09-25T20:50:35.819Z</time>
      </trkpt>
      <trkpt lat="43.45471" lon="3.48715">
        <ele>98.3</ele>
        <time>2018-09-25T20:50:36.819Z</time>
      </trkpt>
      <trkpt lat="43.45469" lon="3.48711">
        <ele>98.3</ele>
        <time>2018-09-25T20:50:37.819Z</time>
      </trkpt>
      <trkpt lat="43.45468" lon="3.48707">
        <ele>98.2</ele>
        <time>2018-09-25T20:50:38.819Z</time>
      </trkpt>
      <trkpt lat="43.45466" lon="3.48702">
        <ele>98.1</ele>
        <time>2018-09-25T20:50:39.819Z</time>
      </trkpt>
      <trkpt lat="43.45464" lon="3.48698">
        <ele>98.1</ele>
        <time>2018-09-25T20:50:40.819Z</time>
      </trkpt>
      <trkpt lat="43.45462" lon="3.48695">
        <ele>98.1</ele>
        <time>2018-09-25T20:50:41.819Z</time>
      </trkpt>
      <trkpt lat="43.4546" lon="3.48691">
        <ele>98.1</ele>
        <time>2018-09-25T20:50:42.819Z</time>
      </trkpt>
      <trkpt lat="43.45458" lon="3.48688">
        <ele>98.1</ele>
        <time>2018-09-25T20:50:43.819Z</time>
      </trkpt>
      <trkpt lat="43.45456" lon="3.48686">
        <ele>98.1</ele>
        <time>2018-09-25T20:50:44.819Z</time>
      </trkpt>
      <trkpt lat="43.45453" lon="3.48683">
        <ele>98</ele>
        <time>2018-09-25T20:50:45.819Z</time>
      </trkpt>
      <trkpt lat="43.4545" lon="3.48682">
        <ele>98</ele>
        <time>2018-09-25T20:50:46.819Z</time>
      </trkpt>
      <trkpt lat="43.45446" lon="3.48681">
        <ele>98</ele>
        <time>2018-09-25T20:50:47.819Z</time>
      </trkpt>
      <trkpt lat="43.45443" lon="3.48679">
        <ele>98</ele>
        <time>2018-09-25T20:50:48.819Z</time>
      </trkpt>
      <trkpt lat="43.4544" lon="3.48678">
        <ele>97.9</ele>
        <time>2018-09-25T20:50:49.819Z</time>
      </trkpt>
      <trkpt lat="43.45437" lon="3.48677">
        <ele>97.9</ele>
        <time>2018-09-25T20:50:50.819Z</time>
      </trkpt>
      <trkpt lat="43.45434" lon="3.48674">
        <ele>97.8</ele>
        <time>2018-09-25T20:50:51.819Z</time>
      </trkpt>
      <trkpt lat="43.45431" lon="3.48671">
        <ele>97.8</ele>
        <time>2018-09-25T20:50:52.819Z</time>
      </trkpt>
      <trkpt lat="43.45427" lon="3.48669">
        <ele>97.7</ele>
        <time>2018-09-25T20:50:53.819Z</time>
      </trkpt>
      <trkpt lat="43.45424" lon="3.48666">
        <ele>97.6</ele>
        <time>2018-09-25T20:50:54.819Z</time>
      </trkpt>
      <trkpt lat="43.4542" lon="3.48663">
        <ele>97.5</ele>
        <time>2018-09-25T20:50:55.819Z</time>
      </trkpt>
      <trkpt lat="43.45417" lon="3.48659">
        <ele>97.5</ele>
        <time>2018-09-25T20:50:56.819Z</time>
      </trkpt>
      <trkpt lat="43.45414" lon="3.48656">
        <ele>97.5</ele>
        <time>2018-09-25T20:50:57.819Z</time>
      </trkpt>
      <trkpt lat="43.45411" lon="3.48653">
        <ele>97.4</ele>
        <time>2018-09-25T20:50:58.819Z</time>
      </trkpt>
      <trkpt lat="43.45407" lon="3.4865">
        <ele>97.4</ele>
        <time>2018-09-25T20:50:59.819Z</time>
      </trkpt>
      <trkpt lat="43.45404" lon="3.48647">
        <ele>97.3</ele>
        <time>2018-09-25T20:51:00.819Z</time>
      </trkpt>
      <trkpt lat="43.45401" lon="3.48643">
        <ele>97.3</ele>
        <time>2018-09-25T20:51:01.819Z</time>
      </trkpt>
      <trkpt lat="43.45398" lon="3.48639">
        <ele>97.3</ele>
        <time>2018-09-25T20:51:02.819Z</time>
      </trkpt>
      <trkpt lat="43.45395" lon="3.48635">
        <ele>97.2</ele>
        <time>2018-09-25T20:51:03.819Z</time>
      </trkpt>
      <trkpt lat="43.45392" lon="3.48631">
        <ele>97.1</ele>
        <time>2018-09-25T20:51:04.819Z</time>
      </trkpt>
      <trkpt lat="43.45389" lon="3.48628">
        <ele>97.1</ele>
        <time>2018-09-25T20:51:05.819Z</time>
      </trkpt>
      <trkpt lat="43.45386" lon="3.48623">
        <ele>97</ele>
        <time>2018-09-25T20:51:06.819Z</time>
      </trkpt>
      <trkpt lat="43.45383" lon="3.48619">
        <ele>96.9</ele>
        <time>2018-09-25T20:51:07.819Z</time>
      </trkpt>
      <trkpt lat="43.4538" lon="3.48616">
        <ele>96.8</ele>
        <time>2018-09-25T20:51:08.819Z</time>
      </trkpt>
      <trkpt lat="43.45377" lon="3.48612">
        <ele>96.7</ele>
        <time>2018-09-25T20:51:09.819Z</time>
      </trkpt>
      <trkpt lat="43.45374" lon="3.48608">
        <ele>96.6</ele>
        <time>2018-09-25T20:51:10.819Z</time>
      </trkpt>
      <trkpt lat="43.45371" lon="3.48605">
        <ele>96.6</ele>
        <time>2018-09-25T20:51:11.819Z</time>
      </trkpt>
      <trkpt lat="43.45369" lon="3.48602">
        <ele>96.5</ele>
        <time>2018-09-25T20:51:12.819Z</time>
      </trkpt>
      <trkpt lat="43.45366" lon="3.48599">
        <ele>96.5</ele>
        <time>2018-09-25T20:51:13.819Z</time>
      </trkpt>
      <trkpt lat="43.45364" lon="3.48596">
        <ele>96.4</ele>
        <time>2018-09-25T20:51:14.819Z</time>
      </trkpt>
      <trkpt lat="43.45361" lon="3.48593">
        <ele>96.4</ele>
        <time>2018-09-25T20:51:15.819Z</time>
      </trkpt>
      <trkpt lat="43.45357" lon="3.4859">
        <ele>96.4</ele>
        <time>2018-09-25T20:51:16.819Z</time>
      </trkpt>
      <trkpt lat="43.45354" lon="3.48588">
        <ele>96.3</ele>
        <time>2018-09-25T20:51:17.819Z</time>
      </trkpt>
      <trkpt lat="43.45351" lon="3.48585">
        <ele>96.3</ele>
        <time>2018-09-25T20:51:18.819Z</time>
      </trkpt>
      <trkpt lat="43.45347" lon="3.48581">
        <ele>96.2</ele>
        <time>2018-09-25T20:51:19.819Z</time>
      </trkpt>
      <trkpt lat="43.45344" lon="3.48578">
        <ele>96.2</ele>
        <time>2018-09-25T20:51:20.819Z</time>
      </trkpt>
      <trkpt lat="43.45342" lon="3.48574">
        <ele>96.2</ele>
        <time>2018-09-25T20:51:21.819Z</time>
      </trkpt>
      <trkpt lat="43.4534" lon="3.4857">
        <ele>96.1</ele>
        <time>2018-09-25T20:51:22.819Z</time>
      </trkpt>
      <trkpt lat="43.45339" lon="3.48564">
        <ele>96.1</ele>
        <time>2018-09-25T20:51:23.819Z</time>
      </trkpt>
      <trkpt lat="43.45338" lon="3.4856">
        <ele>96</ele>
        <time>2018-09-25T20:51:24.819Z</time>
      </trkpt>
      <trkpt lat="43.45338" lon="3.48554">
        <ele>96</ele>
        <time>2018-09-25T20:51:25.819Z</time>
      </trkpt>
      <trkpt lat="43.45337" lon="3.4855">
        <ele>96</ele>
        <time>2018-09-25T20:51:26.819Z</time>
      </trkpt>
      <trkpt lat="43.45337" lon="3.48546">
        <ele>96</ele>
        <time>2018-09-25T20:51:27.819Z</time>
      </trkpt>
      <trkpt lat="43.45338" lon="3.48538">
        <ele>96</ele>
        <time>2018-09-25T20:51:29.819Z</time>
      </trkpt>
      <trkpt lat="43.45339" lon="3.48534">
        <ele>96</ele>
        <time>2018-09-25T20:51:30.819Z</time>
      </trkpt>
      <trkpt lat="43.4534" lon="3.4853">
        <ele>96</ele>
        <time>2018-09-25T20:51:31.819Z</time>
      </trkpt>
      <trkpt lat="43.45341" lon="3.48525">
        <ele>96</ele>
        <time>2018-09-25T20:51:32.819Z</time>
      </trkpt>
      <trkpt lat="43.45342" lon="3.4852">
        <ele>96</ele>
        <time>2018-09-25T20:51:33.819Z</time>
      </trkpt>
      <trkpt lat="43.45343" lon="3.48515">
        <ele>96</ele>
        <time>2018-09-25T20:51:34.819Z</time>
      </trkpt>
      <trkpt lat="43.45345" lon="3.4851">
        <ele>96</ele>
        <time>2018-09-25T20:51:35.819Z</time>
      </trkpt>
      <trkpt lat="43.45346" lon="3.48506">
        <ele>96</ele>
        <time>2018-09-25T20:51:36.819Z</time>
      </trkpt>
      <trkpt lat="43.45347" lon="3.48502">
        <ele>96</ele>
        <time>2018-09-25T20:51:37.819Z</time>
      </trkpt>
      <trkpt lat="43.45349" lon="3.48497">
        <ele>96</ele>
        <time>2018-09-25T20:51:38.819Z</time>
      </trkpt>
      <trkpt lat="43.4535" lon="3.48492">
        <ele>96.1</ele>
        <time>2018-09-25T20:51:39.819Z</time>
      </trkpt>
      <trkpt lat="43.45352" lon="3.48487">
        <ele>96.1</ele>
        <time>2018-09-25T20:51:40.819Z</time>
      </trkpt>
      <trkpt lat="43.45353" lon="3.48482">
        <ele>96.1</ele>
        <time>2018-09-25T20:51:41.819Z</time>
      </trkpt>
      <trkpt lat="43.45355" lon="3.48477">
        <ele>96.1</ele>
        <time>2018-09-25T20:51:42.819Z</time>
      </trkpt>
      <trkpt lat="43.45356" lon="3.48472">
        <ele>96.1</ele>
        <time>2018-09-25T20:51:43.819Z</time>
      </trkpt>
      <trkpt lat="43.45357" lon="3.48467">
        <ele>96.1</ele>
        <time>2018-09-25T20:51:44.819Z</time>
      </trkpt>
      <trkpt lat="43.45359" lon="3.48461">
        <ele>96.1</ele>
        <time>2018-09-25T20:51:45.819Z</time>
      </trkpt>
      <trkpt lat="43.4536" lon="3.48456">
        <ele>96.2</ele>
        <time>2018-09-25T20:51:46.819Z</time>
      </trkpt>
      <trkpt lat="43.45362" lon="3.48452">
        <ele>96.2</ele>
        <time>2018-09-25T20:51:47.819Z</time>
      </trkpt>
      <trkpt lat="43.45364" lon="3.48448">
        <ele>96.2</ele>
        <time>2018-09-25T20:51:48.819Z</time>
      </trkpt>
      <trkpt lat="43.45365" lon="3.48443">
        <ele>96.2</ele>
        <time>2018-09-25T20:51:49.819Z</time>
      </trkpt>
      <trkpt lat="43.45367" lon="3.48438">
        <ele>96.2</ele>
        <time>2018-09-25T20:51:50.819Z</time>
      </trkpt>
      <trkpt lat="43.45369" lon="3.48434">
        <ele>96.2</ele>
        <time>2018-09-25T20:51:51.819Z</time>
      </trkpt>
      <trkpt lat="43.4537" lon="3.48429">
        <ele>96.2</ele>
        <time>2018-09-25T20:51:52.819Z</time>
      </trkpt>
      <trkpt lat="43.45371" lon="3.48424">
        <ele>96.3</ele>
        <time>2018-09-25T20:51:53.819Z</time>
      </trkpt>
      <trkpt lat="43.45371" lon="3.48419">
        <ele>96.3</ele>
        <time>2018-09-25T20:51:54.819Z</time>
      </trkpt>
      <trkpt lat="43.45372" lon="3.48414">
        <ele>96.3</ele>
        <time>2018-09-25T20:51:55.819Z</time>
      </trkpt>
      <trkpt lat="43.45373" lon="3.4841">
        <ele>96.3</ele>
        <time>2018-09-25T20:51:56.819Z</time>
      </trkpt>
      <trkpt lat="43.45374" lon="3.48405">
        <ele>96.3</ele>
        <time>2018-09-25T20:51:57.819Z</time>
      </trkpt>
      <trkpt lat="43.45375" lon="3.48401">
        <ele>96.3</ele>
        <time>2018-09-25T20:51:58.819Z</time>
      </trkpt>
      <trkpt lat="43.45375" lon="3.48397">
        <ele>96.3</ele>
        <time>2018-09-25T20:51:59.819Z</time>
      </trkpt>
      <trkpt lat="43.45377" lon="3.48392">
        <ele>96.3</ele>
        <time>2018-09-25T20:52:00.819Z</time>
      </trkpt>
      <trkpt lat="43.45378" lon="3.48388">
        <ele>96.3</ele>
        <time>2018-09-25T20:52:01.819Z</time>
      </trkpt>
      <trkpt lat="43.45379" lon="3.48385">
        <ele>96.3</ele>
        <time>2018-09-25T20:52:02.819Z</time>
      </trkpt>
      <trkpt lat="43.4538" lon="3.48381">
        <ele>96.3</ele>
        <time>2018-09-25T20:52:03.819Z</time>
      </trkpt>
      <trkpt lat="43.45381" lon="3.48377">
        <ele>96.3</ele>
        <time>2018-09-25T20:52:04.819Z</time>
      </trkpt>
      <trkpt lat="43.45382" lon="3.48373">
        <ele>96.3</ele>
        <time>2018-09-25T20:52:05.819Z</time>
      </trkpt>
      <trkpt lat="43.45382" lon="3.48369">
        <ele>96.2</ele>
        <time>2018-09-25T20:52:06.819Z</time>
      </trkpt>
      <trkpt lat="43.45382" lon="3.48364">
        <ele>96.2</ele>
        <time>2018-09-25T20:52:07.819Z</time>
      </trkpt>
      <trkpt lat="43.45381" lon="3.48359">
        <ele>96.2</ele>
        <time>2018-09-25T20:52:08.819Z</time>
      </trkpt>
      <trkpt lat="43.45381" lon="3.48355">
        <ele>96.1</ele>
        <time>2018-09-25T20:52:09.819Z</time>
      </trkpt>
      <trkpt lat="43.4538" lon="3.48351">
        <ele>96</ele>
        <time>2018-09-25T20:52:10.819Z</time>
      </trkpt>
      <trkpt lat="43.45377" lon="3.48348">
        <ele>95.9</ele>
        <time>2018-09-25T20:52:12.819Z</time>
      </trkpt>
      <trkpt lat="43.45374" lon="3.48346">
        <ele>94.7</ele>
        <time>2018-09-25T20:52:13.819Z</time>
      </trkpt>
      <trkpt lat="43.4537" lon="3.48344">
        <ele>93.6</ele>
        <time>2018-09-25T20:52:15.819Z</time>
      </trkpt>
      <trkpt lat="43.45366" lon="3.48347">
        <ele>93.6</ele>
        <time>2018-09-25T20:52:17.819Z</time>
      </trkpt>
      <trkpt lat="43.45361" lon="3.48349">
        <ele>93.6</ele>
        <time>2018-09-25T20:52:19.819Z</time>
      </trkpt>
      <trkpt lat="43.45358" lon="3.48349">
        <ele>93.6</ele>
        <time>2018-09-25T20:52:20.819Z</time>
      </trkpt>
      <trkpt lat="43.45354" lon="3.4835">
        <ele>93.6</ele>
        <time>2018-09-25T20:52:21.819Z</time>
      </trkpt>
      <trkpt lat="43.45351" lon="3.48351">
        <ele>93.6</ele>
        <time>2018-09-25T20:52:22.819Z</time>
      </trkpt>
      <trkpt lat="43.45347" lon="3.48352">
        <ele>93.6</ele>
        <time>2018-09-25T20:52:23.819Z</time>
      </trkpt>
      <trkpt lat="43.45344" lon="3.48353">
        <ele>93.6</ele>
        <time>2018-09-25T20:52:24.819Z</time>
      </trkpt>
      <trkpt lat="43.4534" lon="3.48355">
        <ele>93.6</ele>
        <time>2018-09-25T20:52:25.819Z</time>
      </trkpt>
      <trkpt lat="43.45337" lon="3.48356">
        <ele>93.6</ele>
        <time>2018-09-25T20:52:26.819Z</time>
      </trkpt>
      <trkpt lat="43.45333" lon="3.48357">
        <ele>93.6</ele>
        <time>2018-09-25T20:52:27.819Z</time>
      </trkpt>
      <trkpt lat="43.4533" lon="3.48359">
        <ele>93.6</ele>
        <time>2018-09-25T20:52:28.819Z</time>
      </trkpt>
      <trkpt lat="43.45326" lon="3.4836">
        <ele>93.6</ele>
        <time>2018-09-25T20:52:29.819Z</time>
      </trkpt>
      <trkpt lat="43.45322" lon="3.4836">
        <ele>93.7</ele>
        <time>2018-09-25T20:52:30.819Z</time>
      </trkpt>
      <trkpt lat="43.45319" lon="3.48362">
        <ele>93.7</ele>
        <time>2018-09-25T20:52:31.819Z</time>
      </trkpt>
      <trkpt lat="43.45315" lon="3.48362">
        <ele>93.8</ele>
        <time>2018-09-25T20:52:32.819Z</time>
      </trkpt>
      <trkpt lat="43.45311" lon="3.48361">
        <ele>93.9</ele>
        <time>2018-09-25T20:52:33.819Z</time>
      </trkpt>
      <trkpt lat="43.45307" lon="3.48361">
        <ele>93.9</ele>
        <time>2018-09-25T20:52:34.819Z</time>
      </trkpt>
      <trkpt lat="43.45303" lon="3.48363">
        <ele>94.1</ele>
        <time>2018-09-25T20:52:35.819Z</time>
      </trkpt>
      <trkpt lat="43.45299" lon="3.48364">
        <ele>94.2</ele>
        <time>2018-09-25T20:52:36.819Z</time>
      </trkpt>
      <trkpt lat="43.45296" lon="3.48366">
        <ele>94.2</ele>
        <time>2018-09-25T20:52:37.819Z</time>
      </trkpt>
      <trkpt lat="43.45292" lon="3.4837">
        <ele>94.4</ele>
        <time>2018-09-25T20:52:38.819Z</time>
      </trkpt>
      <trkpt lat="43.45288" lon="3.48372">
        <ele>94.4</ele>
        <time>2018-09-25T20:52:39.819Z</time>
      </trkpt>
      <trkpt lat="43.45286" lon="3.48375">
        <ele>94.5</ele>
        <time>2018-09-25T20:52:40.819Z</time>
      </trkpt>
      <trkpt lat="43.45282" lon="3.48378">
        <ele>94.6</ele>
        <time>2018-09-25T20:52:41.819Z</time>
      </trkpt>
      <trkpt lat="43.45279" lon="3.48381">
        <ele>94.7</ele>
        <time>2018-09-25T20:52:42.819Z</time>
      </trkpt>
      <trkpt lat="43.45275" lon="3.48384">
        <ele>94.9</ele>
        <time>2018-09-25T20:52:43.819Z</time>
      </trkpt>
      <trkpt lat="43.45272" lon="3.48386">
        <ele>94.9</ele>
        <time>2018-09-25T20:52:44.819Z</time>
      </trkpt>
      <trkpt lat="43.45268" lon="3.48389">
        <ele>95</ele>
        <time>2018-09-25T20:52:45.819Z</time>
      </trkpt>
      <trkpt lat="43.45264" lon="3.48392">
        <ele>95.1</ele>
        <time>2018-09-25T20:52:46.819Z</time>
      </trkpt>
      <trkpt lat="43.45261" lon="3.48393">
        <ele>95.2</ele>
        <time>2018-09-25T20:52:47.819Z</time>
      </trkpt>
      <trkpt lat="43.45257" lon="3.48395">
        <ele>95.3</ele>
        <time>2018-09-25T20:52:48.819Z</time>
      </trkpt>
      <trkpt lat="43.45253" lon="3.48398">
        <ele>95.4</ele>
        <time>2018-09-25T20:52:49.819Z</time>
      </trkpt>
      <trkpt lat="43.4525" lon="3.48401">
        <ele>95.4</ele>
        <time>2018-09-25T20:52:50.819Z</time>
      </trkpt>
      <trkpt lat="43.45247" lon="3.48404">
        <ele>95.5</ele>
        <time>2018-09-25T20:52:51.819Z</time>
      </trkpt>
      <trkpt lat="43.45244" lon="3.48407">
        <ele>95.6</ele>
        <time>2018-09-25T20:52:52.819Z</time>
      </trkpt>
      <trkpt lat="43.45241" lon="3.4841">
        <ele>95.6</ele>
        <time>2018-09-25T20:52:53.819Z</time>
      </trkpt>
      <trkpt lat="43.45237" lon="3.48413">
        <ele>95.7</ele>
        <time>2018-09-25T20:52:54.819Z</time>
      </trkpt>
      <trkpt lat="43.45234" lon="3.48415">
        <ele>95.7</ele>
        <time>2018-09-25T20:52:55.819Z</time>
      </trkpt>
      <trkpt lat="43.4523" lon="3.48418">
        <ele>95.8</ele>
        <time>2018-09-25T20:52:56.819Z</time>
      </trkpt>
      <trkpt lat="43.45226" lon="3.48422">
        <ele>95.8</ele>
        <time>2018-09-25T20:52:57.819Z</time>
      </trkpt>
      <trkpt lat="43.45223" lon="3.48424">
        <ele>95.8</ele>
        <time>2018-09-25T20:52:58.819Z</time>
      </trkpt>
      <trkpt lat="43.45219" lon="3.48426">
        <ele>95.8</ele>
        <time>2018-09-25T20:52:59.819Z</time>
      </trkpt>
      <trkpt lat="43.45216" lon="3.48428">
        <ele>95.8</ele>
        <time>2018-09-25T20:53:00.819Z</time>
      </trkpt>
      <trkpt lat="43.45212" lon="3.4843">
        <ele>95.9</ele>
        <time>2018-09-25T20:53:01.819Z</time>
      </trkpt>
      <trkpt lat="43.45209" lon="3.48432">
        <ele>95.9</ele>
        <time>2018-09-25T20:53:02.819Z</time>
      </trkpt>
      <trkpt lat="43.45204" lon="3.48435">
        <ele>95.9</ele>
        <time>2018-09-25T20:53:03.819Z</time>
      </trkpt>
      <trkpt lat="43.452" lon="3.48436">
        <ele>95.9</ele>
        <time>2018-09-25T20:53:04.819Z</time>
      </trkpt>
      <trkpt lat="43.45196" lon="3.48438">
        <ele>95.8</ele>
        <time>2018-09-25T20:53:05.819Z</time>
      </trkpt>
      <trkpt lat="43.45192" lon="3.4844">
        <ele>95.8</ele>
        <time>2018-09-25T20:53:06.819Z</time>
      </trkpt>
      <trkpt lat="43.45188" lon="3.48442">
        <ele>95.8</ele>
        <time>2018-09-25T20:53:07.819Z</time>
      </trkpt>
      <trkpt lat="43.45185" lon="3.48443">
        <ele>95.8</ele>
        <time>2018-09-25T20:53:08.819Z</time>
      </trkpt>
      <trkpt lat="43.45181" lon="3.48444">
        <ele>95.8</ele>
        <time>2018-09-25T20:53:09.819Z</time>
      </trkpt>
      <trkpt lat="43.45177" lon="3.48445">
        <ele>95.8</ele>
        <time>2018-09-25T20:53:10.819Z</time>
      </trkpt>
      <trkpt lat="43.45173" lon="3.48446">
        <ele>95.7</ele>
        <time>2018-09-25T20:53:11.819Z</time>
      </trkpt>
      <trkpt lat="43.4517" lon="3.48447">
        <ele>95.7</ele>
        <time>2018-09-25T20:53:12.819Z</time>
      </trkpt>
      <trkpt lat="43.45166" lon="3.48448">
        <ele>95.6</ele>
        <time>2018-09-25T20:53:13.819Z</time>
      </trkpt>
      <trkpt lat="43.45162" lon="3.48449">
        <ele>95.6</ele>
        <time>2018-09-25T20:53:14.819Z</time>
      </trkpt>
      <trkpt lat="43.45158" lon="3.48449">
        <ele>95.5</ele>
        <time>2018-09-25T20:53:15.819Z</time>
      </trkpt>
      <trkpt lat="43.45154" lon="3.4845">
        <ele>95.4</ele>
        <time>2018-09-25T20:53:16.819Z</time>
      </trkpt>
      <trkpt lat="43.4515" lon="3.4845">
        <ele>95.3</ele>
        <time>2018-09-25T20:53:17.819Z</time>
      </trkpt>
      <trkpt lat="43.45146" lon="3.48451">
        <ele>95.2</ele>
        <time>2018-09-25T20:53:18.819Z</time>
      </trkpt>
      <trkpt lat="43.45143" lon="3.48451">
        <ele>95.1</ele>
        <time>2018-09-25T20:53:19.819Z</time>
      </trkpt>
      <trkpt lat="43.45139" lon="3.48452">
        <ele>95</ele>
        <time>2018-09-25T20:53:20.819Z</time>
      </trkpt>
      <trkpt lat="43.45137" lon="3.48451">
        <ele>95</ele>
        <time>2018-09-25T20:53:21.819Z</time>
      </trkpt>
      <trkpt lat="43.45133" lon="3.4845">
        <ele>95</ele>
        <time>2018-09-25T20:53:22.819Z</time>
      </trkpt>
      <trkpt lat="43.4513" lon="3.48447">
        <ele>95</ele>
        <time>2018-09-25T20:53:23.819Z</time>
      </trkpt>
      <trkpt lat="43.45127" lon="3.48444">
        <ele>95</ele>
        <time>2018-09-25T20:53:24.819Z</time>
      </trkpt>
      <trkpt lat="43.45125" lon="3.48442">
        <ele>95</ele>
        <time>2018-09-25T20:53:25.819Z</time>
      </trkpt>
      <trkpt lat="43.45122" lon="3.48438">
        <ele>95</ele>
        <time>2018-09-25T20:53:26.819Z</time>
      </trkpt>
      <trkpt lat="43.4512" lon="3.48435">
        <ele>95</ele>
        <time>2018-09-25T20:53:27.819Z</time>
      </trkpt>
      <trkpt lat="43.45118" lon="3.48432">
        <ele>95</ele>
        <time>2018-09-25T20:53:28.819Z</time>
      </trkpt>
      <trkpt lat="43.45116" lon="3.48429">
        <ele>95</ele>
        <time>2018-09-25T20:53:29.819Z</time>
      </trkpt>
      <trkpt lat="43.45114" lon="3.48427">
        <ele>95</ele>
        <time>2018-09-25T20:53:30.819Z</time>
      </trkpt>
      <trkpt lat="43.45111" lon="3.48425">
        <ele>95</ele>
        <time>2018-09-25T20:53:31.819Z</time>
      </trkpt>
      <trkpt lat="43.45109" lon="3.48423">
        <ele>95</ele>
        <time>2018-09-25T20:53:32.819Z</time>
      </trkpt>
      <trkpt lat="43.45106" lon="3.48421">
        <ele>95</ele>
        <time>2018-09-25T20:53:33.819Z</time>
      </trkpt>
      <trkpt lat="43.45104" lon="3.48419">
        <ele>95</ele>
        <time>2018-09-25T20:53:34.819Z</time>
      </trkpt>
      <trkpt lat="43.45099" lon="3.48416">
        <ele>95</ele>
        <time>2018-09-25T20:53:36.819Z</time>
      </trkpt>
      <trkpt lat="43.45095" lon="3.48412">
        <ele>95</ele>
        <time>2018-09-25T20:53:38.819Z</time>
      </trkpt>
      <trkpt lat="43.45092" lon="3.48408">
        <ele>95</ele>
        <time>2018-09-25T20:53:40.819Z</time>
      </trkpt>
      <trkpt lat="43.45088" lon="3.48407">
        <ele>95</ele>
        <time>2018-09-25T20:53:42.819Z</time>
      </trkpt>
      <trkpt lat="43.45083" lon="3.48408">
        <ele>94.8</ele>
        <time>2018-09-25T20:53:44.819Z</time>
      </trkpt>
      <trkpt lat="43.4508" lon="3.48409">
        <ele>94.5</ele>
        <time>2018-09-25T20:53:45.819Z</time>
      </trkpt>
      <trkpt lat="43.45077" lon="3.4841">
        <ele>94.1</ele>
        <time>2018-09-25T20:53:46.819Z</time>
      </trkpt>
      <trkpt lat="43.45074" lon="3.48412">
        <ele>93.8</ele>
        <time>2018-09-25T20:53:47.819Z</time>
      </trkpt>
      <trkpt lat="43.45072" lon="3.48414">
        <ele>93.5</ele>
        <time>2018-09-25T20:53:48.819Z</time>
      </trkpt>
      <trkpt lat="43.45067" lon="3.48417">
        <ele>93</ele>
        <time>2018-09-25T20:53:50.819Z</time>
      </trkpt>
      <trkpt lat="43.45065" lon="3.48419">
        <ele>92.6</ele>
        <time>2018-09-25T20:53:51.819Z</time>
      </trkpt>
      <trkpt lat="43.45062" lon="3.48422">
        <ele>92.3</ele>
        <time>2018-09-25T20:53:52.819Z</time>
      </trkpt>
      <trkpt lat="43.45058" lon="3.48426">
        <ele>91.8</ele>
        <time>2018-09-25T20:53:54.819Z</time>
      </trkpt>
      <trkpt lat="43.45055" lon="3.4843">
        <ele>91.4</ele>
        <time>2018-09-25T20:53:56.819Z</time>
      </trkpt>
      <trkpt lat="43.45051" lon="3.48433">
        <ele>91</ele>
        <time>2018-09-25T20:53:58.819Z</time>
      </trkpt>
      <trkpt lat="43.45049" lon="3.48435">
        <ele>91</ele>
        <time>2018-09-25T20:53:59.819Z</time>
      </trkpt>
      <trkpt lat="43.45046" lon="3.48439">
        <ele>91</ele>
        <time>2018-09-25T20:54:01.819Z</time>
      </trkpt>
      <trkpt lat="43.45042" lon="3.48444">
        <ele>91</ele>
        <time>2018-09-25T20:54:03.819Z</time>
      </trkpt>
      <trkpt lat="43.45037" lon="3.48447">
        <ele>91</ele>
        <time>2018-09-25T20:54:05.819Z</time>
      </trkpt>
      <trkpt lat="43.45035" lon="3.48449">
        <ele>91</ele>
        <time>2018-09-25T20:54:06.819Z</time>
      </trkpt>
      <trkpt lat="43.45032" lon="3.48453">
        <ele>90.9</ele>
        <time>2018-09-25T20:54:08.819Z</time>
      </trkpt>
      <trkpt lat="43.45029" lon="3.48457">
        <ele>90.6</ele>
        <time>2018-09-25T20:54:10.819Z</time>
      </trkpt>
      <trkpt lat="43.45024" lon="3.48456">
        <ele>90.3</ele>
        <time>2018-09-25T20:54:12.819Z</time>
      </trkpt>
      <trkpt lat="43.45021" lon="3.48455">
        <ele>90.1</ele>
        <time>2018-09-25T20:54:13.819Z</time>
      </trkpt>
      <trkpt lat="43.45018" lon="3.48454">
        <ele>89.9</ele>
        <time>2018-09-25T20:54:14.819Z</time>
      </trkpt>
      <trkpt lat="43.45015" lon="3.48453">
        <ele>89.7</ele>
        <time>2018-09-25T20:54:15.819Z</time>
      </trkpt>
      <trkpt lat="43.4501" lon="3.48452">
        <ele>89.3</ele>
        <time>2018-09-25T20:54:17.819Z</time>
      </trkpt>
      <trkpt lat="43.45007" lon="3.48451">
        <ele>89.2</ele>
        <time>2018-09-25T20:54:18.819Z</time>
      </trkpt>
      <trkpt lat="43.45004" lon="3.4845">
        <ele>89</ele>
        <time>2018-09-25T20:54:19.819Z</time>
      </trkpt>
      <trkpt lat="43.45001" lon="3.48449">
        <ele>88.8</ele>
        <time>2018-09-25T20:54:20.819Z</time>
      </trkpt>
      <trkpt lat="43.44997" lon="3.48448">
        <ele>88.5</ele>
        <time>2018-09-25T20:54:22.819Z</time>
      </trkpt>
      <trkpt lat="43.44992" lon="3.48448">
        <ele>88.2</ele>
        <time>2018-09-25T20:54:24.819Z</time>
      </trkpt>
      <trkpt lat="43.44988" lon="3.48448">
        <ele>87.9</ele>
        <time>2018-09-25T20:54:26.819Z</time>
      </trkpt>
      <trkpt lat="43.44985" lon="3.48447">
        <ele>87.7</ele>
        <time>2018-09-25T20:54:27.819Z</time>
      </trkpt>
      <trkpt lat="43.4498" lon="3.48447">
        <ele>87.3</ele>
        <time>2018-09-25T20:54:29.819Z</time>
      </trkpt>
      <trkpt lat="43.44975" lon="3.48448">
        <ele>87</ele>
        <time>2018-09-25T20:54:31.819Z</time>
      </trkpt>
      <trkpt lat="43.44971" lon="3.48448">
        <ele>86.7</ele>
        <time>2018-09-25T20:54:33.819Z</time>
      </trkpt>
      <trkpt lat="43.44967" lon="3.48448">
        <ele>86.4</ele>
        <time>2018-09-25T20:54:35.819Z</time>
      </trkpt>
      <trkpt lat="43.44963" lon="3.48448">
        <ele>86.1</ele>
        <time>2018-09-25T20:54:37.819Z</time>
      </trkpt>
      <trkpt lat="43.4496" lon="3.48448">
        <ele>85.9</ele>
        <time>2018-09-25T20:54:38.819Z</time>
      </trkpt>
      <trkpt lat="43.44954" lon="3.48448">
        <ele>85.5</ele>
        <time>2018-09-25T20:54:40.819Z</time>
      </trkpt>
      <trkpt lat="43.44951" lon="3.48448">
        <ele>85.3</ele>
        <time>2018-09-25T20:54:41.819Z</time>
      </trkpt>
      <trkpt lat="43.44945" lon="3.48447">
        <ele>84.9</ele>
        <time>2018-09-25T20:54:43.819Z</time>
      </trkpt>
      <trkpt lat="43.44942" lon="3.48448">
        <ele>84.7</ele>
        <time>2018-09-25T20:54:44.819Z</time>
      </trkpt>
      <trkpt lat="43.44939" lon="3.48448">
        <ele>84.5</ele>
        <time>2018-09-25T20:54:45.819Z</time>
      </trkpt>
      <trkpt lat="43.44933" lon="3.4845">
        <ele>84</ele>
        <time>2018-09-25T20:54:47.819Z</time>
      </trkpt>
      <trkpt lat="43.4493" lon="3.48451">
        <ele>83.8</ele>
        <time>2018-09-25T20:54:48.819Z</time>
      </trkpt>
      <trkpt lat="43.44925" lon="3.48452">
        <ele>83.4</ele>
        <time>2018-09-25T20:54:50.819Z</time>
      </trkpt>
      <trkpt lat="43.44922" lon="3.48454">
        <ele>83.2</ele>
        <time>2018-09-25T20:54:51.819Z</time>
      </trkpt>
      <trkpt lat="43.44918" lon="3.48455">
        <ele>82.9</ele>
        <time>2018-09-25T20:54:52.819Z</time>
      </trkpt>
      <trkpt lat="43.44915" lon="3.48457">
        <ele>82.7</ele>
        <time>2018-09-25T20:54:53.819Z</time>
      </trkpt>
      <trkpt lat="43.44909" lon="3.48459">
        <ele>82.2</ele>
        <time>2018-09-25T20:54:55.819Z</time>
      </trkpt>
      <trkpt lat="43.44905" lon="3.4846">
        <ele>82</ele>
        <time>2018-09-25T20:54:56.819Z</time>
      </trkpt>
      <trkpt lat="43.44902" lon="3.48461">
        <ele>81.7</ele>
        <time>2018-09-25T20:54:57.819Z</time>
      </trkpt>
      <trkpt lat="43.44898" lon="3.48462">
        <ele>81.4</ele>
        <time>2018-09-25T20:54:58.819Z</time>
      </trkpt>
      <trkpt lat="43.44894" lon="3.48463">
        <ele>81.1</ele>
        <time>2018-09-25T20:54:59.819Z</time>
      </trkpt>
      <trkpt lat="43.4489" lon="3.48465">
        <ele>80.8</ele>
        <time>2018-09-25T20:55:00.819Z</time>
      </trkpt>
      <trkpt lat="43.44886" lon="3.48467">
        <ele>80.6</ele>
        <time>2018-09-25T20:55:01.819Z</time>
      </trkpt>
      <trkpt lat="43.44882" lon="3.48468">
        <ele>80.3</ele>
        <time>2018-09-25T20:55:02.819Z</time>
      </trkpt>
      <trkpt lat="43.44879" lon="3.48468">
        <ele>80.1</ele>
        <time>2018-09-25T20:55:03.819Z</time>
      </trkpt>
      <trkpt lat="43.44875" lon="3.48468">
        <ele>79.9</ele>
        <time>2018-09-25T20:55:04.819Z</time>
      </trkpt>
      <trkpt lat="43.44872" lon="3.4847">
        <ele>79.6</ele>
        <time>2018-09-25T20:55:05.819Z</time>
      </trkpt>
      <trkpt lat="43.44867" lon="3.48471">
        <ele>79.4</ele>
        <time>2018-09-25T20:55:06.819Z</time>
      </trkpt>
      <trkpt lat="43.44863" lon="3.48472">
        <ele>79.2</ele>
        <time>2018-09-25T20:55:07.819Z</time>
      </trkpt>
      <trkpt lat="43.44859" lon="3.48472">
        <ele>78.9</ele>
        <time>2018-09-25T20:55:08.819Z</time>
      </trkpt>
      <trkpt lat="43.44854" lon="3.48473">
        <ele>78.7</ele>
        <time>2018-09-25T20:55:09.819Z</time>
      </trkpt>
      <trkpt lat="43.4485" lon="3.48474">
        <ele>78.4</ele>
        <time>2018-09-25T20:55:10.819Z</time>
      </trkpt>
      <trkpt lat="43.44845" lon="3.48475">
        <ele>78.2</ele>
        <time>2018-09-25T20:55:11.819Z</time>
      </trkpt>
      <trkpt lat="43.44841" lon="3.48475">
        <ele>78</ele>
        <time>2018-09-25T20:55:12.819Z</time>
      </trkpt>
      <trkpt lat="43.44837" lon="3.48475">
        <ele>77.6</ele>
        <time>2018-09-25T20:55:14.819Z</time>
      </trkpt>
      <trkpt lat="43.44832" lon="3.48476">
        <ele>77.2</ele>
        <time>2018-09-25T20:55:16.819Z</time>
      </trkpt>
      <trkpt lat="43.44827" lon="3.48477">
        <ele>76.8</ele>
        <time>2018-09-25T20:55:18.819Z</time>
      </trkpt>
      <trkpt lat="43.44821" lon="3.48477">
        <ele>76.4</ele>
        <time>2018-09-25T20:55:20.819Z</time>
      </trkpt>
      <trkpt lat="43.44817" lon="3.48477">
        <ele>76.2</ele>
        <time>2018-09-25T20:55:21.819Z</time>
      </trkpt>
      <trkpt lat="43.44814" lon="3.48477">
        <ele>76</ele>
        <time>2018-09-25T20:55:22.819Z</time>
      </trkpt>
      <trkpt lat="43.4481" lon="3.48477">
        <ele>75.8</ele>
        <time>2018-09-25T20:55:23.819Z</time>
      </trkpt>
      <trkpt lat="43.44806" lon="3.48476">
        <ele>75.6</ele>
        <time>2018-09-25T20:55:24.819Z</time>
      </trkpt>
      <trkpt lat="43.44802" lon="3.48477">
        <ele>75.5</ele>
        <time>2018-09-25T20:55:25.819Z</time>
      </trkpt>
      <trkpt lat="43.44798" lon="3.48477">
        <ele>75.4</ele>
        <time>2018-09-25T20:55:26.819Z</time>
      </trkpt>
      <trkpt lat="43.44794" lon="3.48478">
        <ele>75.3</ele>
        <time>2018-09-25T20:55:27.819Z</time>
      </trkpt>
      <trkpt lat="43.4479" lon="3.48479">
        <ele>75.2</ele>
        <time>2018-09-25T20:55:28.819Z</time>
      </trkpt>
      <trkpt lat="43.44787" lon="3.48479">
        <ele>75.2</ele>
        <time>2018-09-25T20:55:29.819Z</time>
      </trkpt>
      <trkpt lat="43.44783" lon="3.4848">
        <ele>75.1</ele>
        <time>2018-09-25T20:55:30.819Z</time>
      </trkpt>
      <trkpt lat="43.4478" lon="3.4848">
        <ele>75.1</ele>
        <time>2018-09-25T20:55:31.819Z</time>
      </trkpt>
      <trkpt lat="43.44777" lon="3.48478">
        <ele>75.1</ele>
        <time>2018-09-25T20:55:32.819Z</time>
      </trkpt>
      <trkpt lat="43.44774" lon="3.48473">
        <ele>75.2</ele>
        <time>2018-09-25T20:55:34.819Z</time>
      </trkpt>
      <trkpt lat="43.44771" lon="3.48466">
        <ele>75.4</ele>
        <time>2018-09-25T20:55:36.819Z</time>
      </trkpt>
      <trkpt lat="43.44769" lon="3.4846">
        <ele>75.5</ele>
        <time>2018-09-25T20:55:37.819Z</time>
      </trkpt>
      <trkpt lat="43.44768" lon="3.48457">
        <ele>75.5</ele>
        <time>2018-09-25T20:55:38.819Z</time>
      </trkpt>
      <trkpt lat="43.44766" lon="3.48452">
        <ele>75.6</ele>
        <time>2018-09-25T20:55:39.819Z</time>
      </trkpt>
      <trkpt lat="43.44765" lon="3.48448">
        <ele>75.7</ele>
        <time>2018-09-25T20:55:40.819Z</time>
      </trkpt>
      <trkpt lat="43.44764" lon="3.48443">
        <ele>75.9</ele>
        <time>2018-09-25T20:55:41.819Z</time>
      </trkpt>
      <trkpt lat="43.44762" lon="3.48437">
        <ele>76</ele>
        <time>2018-09-25T20:55:42.819Z</time>
      </trkpt>
      <trkpt lat="43.4476" lon="3.48433">
        <ele>76.1</ele>
        <time>2018-09-25T20:55:43.819Z</time>
      </trkpt>
      <trkpt lat="43.44759" lon="3.48428">
        <ele>76.2</ele>
        <time>2018-09-25T20:55:44.819Z</time>
      </trkpt>
      <trkpt lat="43.44758" lon="3.48424">
        <ele>76.3</ele>
        <time>2018-09-25T20:55:45.819Z</time>
      </trkpt>
      <trkpt lat="43.44758" lon="3.48421">
        <ele>76.4</ele>
        <time>2018-09-25T20:55:46.819Z</time>
      </trkpt>
      <trkpt lat="43.44758" lon="3.48417">
        <ele>76.5</ele>
        <time>2018-09-25T20:55:47.819Z</time>
      </trkpt>
      <trkpt lat="43.44756" lon="3.48412">
        <ele>76.6</ele>
        <time>2018-09-25T20:55:48.819Z</time>
      </trkpt>
      <trkpt lat="43.44755" lon="3.48408">
        <ele>76.7</ele>
        <time>2018-09-25T20:55:49.819Z</time>
      </trkpt>
      <trkpt lat="43.44753" lon="3.48403">
        <ele>76.8</ele>
        <time>2018-09-25T20:55:50.819Z</time>
      </trkpt>
      <trkpt lat="43.44751" lon="3.48398">
        <ele>76.9</ele>
        <time>2018-09-25T20:55:51.819Z</time>
      </trkpt>
      <trkpt lat="43.4475" lon="3.48394">
        <ele>77</ele>
        <time>2018-09-25T20:55:52.819Z</time>
      </trkpt>
      <trkpt lat="43.44749" lon="3.48389">
        <ele>77.1</ele>
        <time>2018-09-25T20:55:53.819Z</time>
      </trkpt>
      <trkpt lat="43.44749" lon="3.48385">
        <ele>77.2</ele>
        <time>2018-09-25T20:55:54.819Z</time>
      </trkpt>
      <trkpt lat="43.44749" lon="3.4838">
        <ele>77.2</ele>
        <time>2018-09-25T20:55:55.819Z</time>
      </trkpt>
      <trkpt lat="43.44749" lon="3.48375">
        <ele>77.3</ele>
        <time>2018-09-25T20:55:56.819Z</time>
      </trkpt>
      <trkpt lat="43.44747" lon="3.48367">
        <ele>77.5</ele>
        <time>2018-09-25T20:55:58.819Z</time>
      </trkpt>
      <trkpt lat="43.44746" lon="3.48363">
        <ele>77.6</ele>
        <time>2018-09-25T20:55:59.819Z</time>
      </trkpt>
      <trkpt lat="43.44746" lon="3.48358">
        <ele>77.7</ele>
        <time>2018-09-25T20:56:00.819Z</time>
      </trkpt>
      <trkpt lat="43.44745" lon="3.48354">
        <ele>77.8</ele>
        <time>2018-09-25T20:56:01.819Z</time>
      </trkpt>
      <trkpt lat="43.44744" lon="3.4835">
        <ele>77.9</ele>
        <time>2018-09-25T20:56:02.819Z</time>
      </trkpt>
      <trkpt lat="43.44743" lon="3.48345">
        <ele>78.1</ele>
        <time>2018-09-25T20:56:03.819Z</time>
      </trkpt>
      <trkpt lat="43.44744" lon="3.4834">
        <ele>78.2</ele>
        <time>2018-09-25T20:56:04.819Z</time>
      </trkpt>
      <trkpt lat="43.44744" lon="3.48337">
        <ele>78.3</ele>
        <time>2018-09-25T20:56:05.819Z</time>
      </trkpt>
      <trkpt lat="43.44743" lon="3.48333">
        <ele>78.4</ele>
        <time>2018-09-25T20:56:06.819Z</time>
      </trkpt>
      <trkpt lat="43.44743" lon="3.48328">
        <ele>78.5</ele>
        <time>2018-09-25T20:56:07.819Z</time>
      </trkpt>
      <trkpt lat="43.44742" lon="3.48323">
        <ele>78.6</ele>
        <time>2018-09-25T20:56:08.819Z</time>
      </trkpt>
      <trkpt lat="43.44742" lon="3.48319">
        <ele>78.7</ele>
        <time>2018-09-25T20:56:09.819Z</time>
      </trkpt>
      <trkpt lat="43.44741" lon="3.48314">
        <ele>78.8</ele>
        <time>2018-09-25T20:56:10.819Z</time>
      </trkpt>
      <trkpt lat="43.44741" lon="3.4831">
        <ele>78.9</ele>
        <time>2018-09-25T20:56:11.819Z</time>
      </trkpt>
      <trkpt lat="43.4474" lon="3.48305">
        <ele>78.9</ele>
        <time>2018-09-25T20:56:12.819Z</time>
      </trkpt>
      <trkpt lat="43.4474" lon="3.483">
        <ele>79</ele>
        <time>2018-09-25T20:56:13.819Z</time>
      </trkpt>
      <trkpt lat="43.44739" lon="3.48297">
        <ele>79.1</ele>
        <time>2018-09-25T20:56:14.819Z</time>
      </trkpt>
      <trkpt lat="43.44739" lon="3.48292">
        <ele>79.2</ele>
        <time>2018-09-25T20:56:15.819Z</time>
      </trkpt>
      <trkpt lat="43.44738" lon="3.48287">
        <ele>79.3</ele>
        <time>2018-09-25T20:56:16.819Z</time>
      </trkpt>
      <trkpt lat="43.44737" lon="3.48282">
        <ele>79.4</ele>
        <time>2018-09-25T20:56:17.819Z</time>
      </trkpt>
      <trkpt lat="43.44736" lon="3.48277">
        <ele>79.5</ele>
        <time>2018-09-25T20:56:18.819Z</time>
      </trkpt>
      <trkpt lat="43.44736" lon="3.48272">
        <ele>79.6</ele>
        <time>2018-09-25T20:56:19.819Z</time>
      </trkpt>
      <trkpt lat="43.44736" lon="3.48267">
        <ele>79.6</ele>
        <time>2018-09-25T20:56:20.819Z</time>
      </trkpt>
      <trkpt lat="43.44735" lon="3.48261">
        <ele>79.8</ele>
        <time>2018-09-25T20:56:22.819Z</time>
      </trkpt>
      <trkpt lat="43.44735" lon="3.48257">
        <ele>79.9</ele>
        <time>2018-09-25T20:56:23.819Z</time>
      </trkpt>
      <trkpt lat="43.44736" lon="3.48252">
        <ele>80</ele>
        <time>2018-09-25T20:56:25.819Z</time>
      </trkpt>
      <trkpt lat="43.44738" lon="3.48245">
        <ele>80.2</ele>
        <time>2018-09-25T20:56:27.819Z</time>
      </trkpt>
      <trkpt lat="43.4474" lon="3.4824">
        <ele>80.3</ele>
        <time>2018-09-25T20:56:28.819Z</time>
      </trkpt>
      <trkpt lat="43.44741" lon="3.48236">
        <ele>80.5</ele>
        <time>2018-09-25T20:56:29.819Z</time>
      </trkpt>
      <trkpt lat="43.44742" lon="3.4823">
        <ele>80.9</ele>
        <time>2018-09-25T20:56:31.819Z</time>
      </trkpt>
      <trkpt lat="43.44742" lon="3.48226">
        <ele>81</ele>
        <time>2018-09-25T20:56:32.819Z</time>
      </trkpt>
      <trkpt lat="43.44744" lon="3.48222">
        <ele>81.2</ele>
        <time>2018-09-25T20:56:33.819Z</time>
      </trkpt>
      <trkpt lat="43.44746" lon="3.48219">
        <ele>81.3</ele>
        <time>2018-09-25T20:56:34.819Z</time>
      </trkpt>
      <trkpt lat="43.44748" lon="3.48215">
        <ele>81.4</ele>
        <time>2018-09-25T20:56:35.819Z</time>
      </trkpt>
      <trkpt lat="43.44752" lon="3.48211">
        <ele>81.6</ele>
        <time>2018-09-25T20:56:37.819Z</time>
      </trkpt>
      <trkpt lat="43.44755" lon="3.48207">
        <ele>81.8</ele>
        <time>2018-09-25T20:56:39.819Z</time>
      </trkpt>
      <trkpt lat="43.44758" lon="3.482">
        <ele>82</ele>
        <time>2018-09-25T20:56:41.819Z</time>
      </trkpt>
      <trkpt lat="43.4476" lon="3.48198">
        <ele>82.1</ele>
        <time>2018-09-25T20:56:42.819Z</time>
      </trkpt>
      <trkpt lat="43.44764" lon="3.48194">
        <ele>82.3</ele>
        <time>2018-09-25T20:56:44.819Z</time>
      </trkpt>
      <trkpt lat="43.44767" lon="3.48189">
        <ele>82.4</ele>
        <time>2018-09-25T20:56:46.819Z</time>
      </trkpt>
      <trkpt lat="43.44769" lon="3.48186">
        <ele>82.5</ele>
        <time>2018-09-25T20:56:47.819Z</time>
      </trkpt>
      <trkpt lat="43.4477" lon="3.48182">
        <ele>82.7</ele>
        <time>2018-09-25T20:56:48.819Z</time>
      </trkpt>
      <trkpt lat="43.44772" lon="3.48179">
        <ele>82.8</ele>
        <time>2018-09-25T20:56:49.819Z</time>
      </trkpt>
      <trkpt lat="43.44774" lon="3.48176">
        <ele>83</ele>
        <time>2018-09-25T20:56:50.819Z</time>
      </trkpt>
      <trkpt lat="43.44777" lon="3.48174">
        <ele>83.1</ele>
        <time>2018-09-25T20:56:51.819Z</time>
      </trkpt>
      <trkpt lat="43.44779" lon="3.48171">
        <ele>83.2</ele>
        <time>2018-09-25T20:56:52.819Z</time>
      </trkpt>
      <trkpt lat="43.4478" lon="3.48168">
        <ele>83.3</ele>
        <time>2018-09-25T20:56:53.819Z</time>
      </trkpt>
      <trkpt lat="43.44782" lon="3.48163">
        <ele>83.5</ele>
        <time>2018-09-25T20:56:54.819Z</time>
      </trkpt>
      <trkpt lat="43.44784" lon="3.48159">
        <ele>83.7</ele>
        <time>2018-09-25T20:56:55.819Z</time>
      </trkpt>
      <trkpt lat="43.44786" lon="3.48154">
        <ele>83.9</ele>
        <time>2018-09-25T20:56:57.819Z</time>
      </trkpt>
      <trkpt lat="43.44789" lon="3.48149">
        <ele>84.1</ele>
        <time>2018-09-25T20:56:59.819Z</time>
      </trkpt>
      <trkpt lat="43.4479" lon="3.48145">
        <ele>84.2</ele>
        <time>2018-09-25T20:57:01.819Z</time>
      </trkpt>
      <trkpt lat="43.44788" lon="3.48139">
        <ele>84.4</ele>
        <time>2018-09-25T20:57:03.819Z</time>
      </trkpt>
      <trkpt lat="43.44786" lon="3.48136">
        <ele>84.6</ele>
        <time>2018-09-25T20:57:04.819Z</time>
      </trkpt>
      <trkpt lat="43.44783" lon="3.48133">
        <ele>84.8</ele>
        <time>2018-09-25T20:57:05.819Z</time>
      </trkpt>
      <trkpt lat="43.44781" lon="3.48126">
        <ele>84.9</ele>
        <time>2018-09-25T20:57:07.819Z</time>
      </trkpt>
      <trkpt lat="43.44779" lon="3.48122">
        <ele>85</ele>
        <time>2018-09-25T20:57:09.819Z</time>
      </trkpt>
      <trkpt lat="43.44779" lon="3.48118">
        <ele>84.9</ele>
        <time>2018-09-25T20:57:11.819Z</time>
      </trkpt>
      <trkpt lat="43.44779" lon="3.48112">
        <ele>84.8</ele>
        <time>2018-09-25T20:57:13.819Z</time>
      </trkpt>
      <trkpt lat="43.44778" lon="3.48107">
        <ele>84.7</ele>
        <time>2018-09-25T20:57:15.819Z</time>
      </trkpt>
      <trkpt lat="43.44775" lon="3.48106">
        <ele>84.3</ele>
        <time>2018-09-25T20:57:17.819Z</time>
      </trkpt>
      <trkpt lat="43.44772" lon="3.48103">
        <ele>84.1</ele>
        <time>2018-09-25T20:57:20.819Z</time>
      </trkpt>
      <trkpt lat="43.4477" lon="3.48097">
        <ele>83.9</ele>
        <time>2018-09-25T20:57:22.819Z</time>
      </trkpt>
      <trkpt lat="43.44768" lon="3.48094">
        <ele>83.8</ele>
        <time>2018-09-25T20:57:23.819Z</time>
      </trkpt>
      <trkpt lat="43.44765" lon="3.4809">
        <ele>83.7</ele>
        <time>2018-09-25T20:57:25.819Z</time>
      </trkpt>
      <trkpt lat="43.44763" lon="3.48087">
        <ele>83.6</ele>
        <time>2018-09-25T20:57:26.819Z</time>
      </trkpt>
      <trkpt lat="43.44762" lon="3.48083">
        <ele>83.5</ele>
        <time>2018-09-25T20:57:27.819Z</time>
      </trkpt>
      <trkpt lat="43.44762" lon="3.48079">
        <ele>83.5</ele>
        <time>2018-09-25T20:57:28.819Z</time>
      </trkpt>
      <trkpt lat="43.44762" lon="3.48074">
        <ele>83.4</ele>
        <time>2018-09-25T20:57:30.819Z</time>
      </trkpt>
      <trkpt lat="43.44763" lon="3.48069">
        <ele>83.3</ele>
        <time>2018-09-25T20:57:32.819Z</time>
      </trkpt>
      <trkpt lat="43.44763" lon="3.48062">
        <ele>83.2</ele>
        <time>2018-09-25T20:57:34.819Z</time>
      </trkpt>
      <trkpt lat="43.44761" lon="3.48059">
        <ele>83.1</ele>
        <time>2018-09-25T20:57:35.819Z</time>
      </trkpt>
      <trkpt lat="43.44759" lon="3.48052">
        <ele>83</ele>
        <time>2018-09-25T20:57:37.819Z</time>
      </trkpt>
      <trkpt lat="43.44757" lon="3.48048">
        <ele>82.7</ele>
        <time>2018-09-25T20:57:39.819Z</time>
      </trkpt>
      <trkpt lat="43.44753" lon="3.48042">
        <ele>82.4</ele>
        <time>2018-09-25T20:57:41.819Z</time>
      </trkpt>
      <trkpt lat="43.44752" lon="3.48039">
        <ele>82.2</ele>
        <time>2018-09-25T20:57:42.819Z</time>
      </trkpt>
      <trkpt lat="43.44749" lon="3.48034">
        <ele>81.9</ele>
        <time>2018-09-25T20:57:43.819Z</time>
      </trkpt>
      <trkpt lat="43.44748" lon="3.48029">
        <ele>81.8</ele>
        <time>2018-09-25T20:57:44.819Z</time>
      </trkpt>
      <trkpt lat="43.44746" lon="3.48025">
        <ele>81.6</ele>
        <time>2018-09-25T20:57:45.819Z</time>
      </trkpt>
      <trkpt lat="43.44745" lon="3.48021">
        <ele>81.5</ele>
        <time>2018-09-25T20:57:46.819Z</time>
      </trkpt>
      <trkpt lat="43.44744" lon="3.48017">
        <ele>81.3</ele>
        <time>2018-09-25T20:57:47.819Z</time>
      </trkpt>
      <trkpt lat="43.44741" lon="3.48014">
        <ele>81.1</ele>
        <time>2018-09-25T20:57:48.819Z</time>
      </trkpt>
      <trkpt lat="43.44737" lon="3.48009">
        <ele>80.9</ele>
        <time>2018-09-25T20:57:50.819Z</time>
      </trkpt>
      <trkpt lat="43.44737" lon="3.48005">
        <ele>80.7</ele>
        <time>2018-09-25T20:57:51.819Z</time>
      </trkpt>
      <trkpt lat="43.44733" lon="3.48001">
        <ele>80.4</ele>
        <time>2018-09-25T20:57:53.819Z</time>
      </trkpt>
      <trkpt lat="43.4473" lon="3.47996">
        <ele>80</ele>
        <time>2018-09-25T20:57:55.819Z</time>
      </trkpt>
      <trkpt lat="43.44726" lon="3.47995">
        <ele>80</ele>
        <time>2018-09-25T20:57:57.819Z</time>
      </trkpt>
      <trkpt lat="43.44723" lon="3.47996">
        <ele>80</ele>
        <time>2018-09-25T20:57:59.819Z</time>
      </trkpt>
      <trkpt lat="43.44718" lon="3.47998">
        <ele>79.9</ele>
        <time>2018-09-25T20:58:01.819Z</time>
      </trkpt>
      <trkpt lat="43.44713" lon="3.47997">
        <ele>79.9</ele>
        <time>2018-09-25T20:58:03.819Z</time>
      </trkpt>
      <trkpt lat="43.44709" lon="3.47997">
        <ele>79.9</ele>
        <time>2018-09-25T20:58:05.819Z</time>
      </trkpt>
      <trkpt lat="43.44704" lon="3.47996">
        <ele>80</ele>
        <time>2018-09-25T20:58:08.819Z</time>
      </trkpt>
      <trkpt lat="43.44702" lon="3.47992">
        <ele>80</ele>
        <time>2018-09-25T20:58:10.819Z</time>
      </trkpt>
      <trkpt lat="43.44702" lon="3.47987">
        <ele>80</ele>
        <time>2018-09-25T20:58:12.819Z</time>
      </trkpt>
      <trkpt lat="43.447" lon="3.4798">
        <ele>80</ele>
        <time>2018-09-25T20:58:14.819Z</time>
      </trkpt>
      <trkpt lat="43.44699" lon="3.47973">
        <ele>80</ele>
        <time>2018-09-25T20:58:16.819Z</time>
      </trkpt>
      <trkpt lat="43.44698" lon="3.47969">
        <ele>80</ele>
        <time>2018-09-25T20:58:17.819Z</time>
      </trkpt>
      <trkpt lat="43.44697" lon="3.47963">
        <ele>80</ele>
        <time>2018-09-25T20:58:18.819Z</time>
      </trkpt>
      <trkpt lat="43.44696" lon="3.47957">
        <ele>80</ele>
        <time>2018-09-25T20:58:19.819Z</time>
      </trkpt>
      <trkpt lat="43.44695" lon="3.47953">
        <ele>80.1</ele>
        <time>2018-09-25T20:58:20.819Z</time>
      </trkpt>
      <trkpt lat="43.44694" lon="3.47949">
        <ele>80.1</ele>
        <time>2018-09-25T20:58:21.819Z</time>
      </trkpt>
      <trkpt lat="43.44691" lon="3.47946">
        <ele>80.1</ele>
        <time>2018-09-25T20:58:22.819Z</time>
      </trkpt>
      <trkpt lat="43.44688" lon="3.47941">
        <ele>80.1</ele>
        <time>2018-09-25T20:58:23.819Z</time>
      </trkpt>
      <trkpt lat="43.44686" lon="3.47935">
        <ele>80.1</ele>
        <time>2018-09-25T20:58:24.819Z</time>
      </trkpt>
      <trkpt lat="43.44684" lon="3.47929">
        <ele>80.1</ele>
        <time>2018-09-25T20:58:25.819Z</time>
      </trkpt>
      <trkpt lat="43.44681" lon="3.47923">
        <ele>80.1</ele>
        <time>2018-09-25T20:58:26.819Z</time>
      </trkpt>
      <trkpt lat="43.44678" lon="3.47917">
        <ele>80.1</ele>
        <time>2018-09-25T20:58:27.819Z</time>
      </trkpt>
      <trkpt lat="43.44674" lon="3.47912">
        <ele>80.1</ele>
        <time>2018-09-25T20:58:28.819Z</time>
      </trkpt>
      <trkpt lat="43.44671" lon="3.47907">
        <ele>80.1</ele>
        <time>2018-09-25T20:58:29.819Z</time>
      </trkpt>
      <trkpt lat="43.44668" lon="3.47902">
        <ele>80</ele>
        <time>2018-09-25T20:58:30.819Z</time>
      </trkpt>
      <trkpt lat="43.44664" lon="3.47896">
        <ele>79.9</ele>
        <time>2018-09-25T20:58:31.819Z</time>
      </trkpt>
      <trkpt lat="43.44661" lon="3.47889">
        <ele>79.7</ele>
        <time>2018-09-25T20:58:32.819Z</time>
      </trkpt>
      <trkpt lat="43.44659" lon="3.47883">
        <ele>79.4</ele>
        <time>2018-09-25T20:58:33.819Z</time>
      </trkpt>
      <trkpt lat="43.44656" lon="3.47876">
        <ele>79</ele>
        <time>2018-09-25T20:58:34.819Z</time>
      </trkpt>
      <trkpt lat="43.44656" lon="3.4787">
        <ele>78.7</ele>
        <time>2018-09-25T20:58:35.819Z</time>
      </trkpt>
      <trkpt lat="43.44656" lon="3.47863">
        <ele>78.4</ele>
        <time>2018-09-25T20:58:36.819Z</time>
      </trkpt>
      <trkpt lat="43.44657" lon="3.47857">
        <ele>78.1</ele>
        <time>2018-09-25T20:58:37.819Z</time>
      </trkpt>
      <trkpt lat="43.44658" lon="3.47852">
        <ele>77.9</ele>
        <time>2018-09-25T20:58:38.819Z</time>
      </trkpt>
      <trkpt lat="43.4466" lon="3.47848">
        <ele>77.8</ele>
        <time>2018-09-25T20:58:39.819Z</time>
      </trkpt>
      <trkpt lat="43.44661" lon="3.47845">
        <ele>77.7</ele>
        <time>2018-09-25T20:58:40.819Z</time>
      </trkpt>
      <trkpt lat="43.44663" lon="3.4784">
        <ele>77.7</ele>
        <time>2018-09-25T20:58:41.819Z</time>
      </trkpt>
      <trkpt lat="43.44663" lon="3.47835">
        <ele>77.7</ele>
        <time>2018-09-25T20:58:42.819Z</time>
      </trkpt>
      <trkpt lat="43.44662" lon="3.47831">
        <ele>77.6</ele>
        <time>2018-09-25T20:58:43.819Z</time>
      </trkpt>
      <trkpt lat="43.44663" lon="3.47827">
        <ele>77.6</ele>
        <time>2018-09-25T20:58:44.819Z</time>
      </trkpt>
      <trkpt lat="43.44663" lon="3.47823">
        <ele>77.6</ele>
        <time>2018-09-25T20:58:45.819Z</time>
      </trkpt>
      <trkpt lat="43.44661" lon="3.47817">
        <ele>77.6</ele>
        <time>2018-09-25T20:58:47.819Z</time>
      </trkpt>
      <trkpt lat="43.4466" lon="3.47811">
        <ele>77.6</ele>
        <time>2018-09-25T20:58:49.819Z</time>
      </trkpt>
      <trkpt lat="43.4466" lon="3.47807">
        <ele>77.7</ele>
        <time>2018-09-25T20:58:50.819Z</time>
      </trkpt>
      <trkpt lat="43.4466" lon="3.47803">
        <ele>77.7</ele>
        <time>2018-09-25T20:58:51.819Z</time>
      </trkpt>
      <trkpt lat="43.4466" lon="3.47798">
        <ele>77.7</ele>
        <time>2018-09-25T20:58:52.819Z</time>
      </trkpt>
      <trkpt lat="43.44661" lon="3.47793">
        <ele>77.8</ele>
        <time>2018-09-25T20:58:53.819Z</time>
      </trkpt>
      <trkpt lat="43.44662" lon="3.47789">
        <ele>77.8</ele>
        <time>2018-09-25T20:58:54.819Z</time>
      </trkpt>
      <trkpt lat="43.44662" lon="3.47785">
        <ele>77.9</ele>
        <time>2018-09-25T20:58:55.819Z</time>
      </trkpt>
      <trkpt lat="43.44663" lon="3.4778">
        <ele>78.1</ele>
        <time>2018-09-25T20:58:56.819Z</time>
      </trkpt>
      <trkpt lat="43.44664" lon="3.47776">
        <ele>78.3</ele>
        <time>2018-09-25T20:58:57.819Z</time>
      </trkpt>
      <trkpt lat="43.44665" lon="3.47771">
        <ele>78.6</ele>
        <time>2018-09-25T20:58:58.819Z</time>
      </trkpt>
      <trkpt lat="43.44666" lon="3.47764">
        <ele>78.9</ele>
        <time>2018-09-25T20:59:00.819Z</time>
      </trkpt>
      <trkpt lat="43.44665" lon="3.47758">
        <ele>79.2</ele>
        <time>2018-09-25T20:59:02.819Z</time>
      </trkpt>
      <trkpt lat="43.44664" lon="3.47754">
        <ele>79.4</ele>
        <time>2018-09-25T20:59:03.819Z</time>
      </trkpt>
      <trkpt lat="43.44663" lon="3.4775">
        <ele>79.5</ele>
        <time>2018-09-25T20:59:04.819Z</time>
      </trkpt>
      <trkpt lat="43.4466" lon="3.47744">
        <ele>79.7</ele>
        <time>2018-09-25T20:59:06.819Z</time>
      </trkpt>
      <trkpt lat="43.44658" lon="3.47739">
        <ele>79.8</ele>
        <time>2018-09-25T20:59:08.819Z</time>
      </trkpt>
      <trkpt lat="43.44656" lon="3.47735">
        <ele>79.9</ele>
        <time>2018-09-25T20:59:09.819Z</time>
      </trkpt>
      <trkpt lat="43.44654" lon="3.47731">
        <ele>79.9</ele>
        <time>2018-09-25T20:59:10.819Z</time>
      </trkpt>
      <trkpt lat="43.44653" lon="3.47727">
        <ele>79.9</ele>
        <time>2018-09-25T20:59:11.819Z</time>
      </trkpt>
      <trkpt lat="43.44653" lon="3.47721">
        <ele>79.9</ele>
        <time>2018-09-25T20:59:13.819Z</time>
      </trkpt>
      <trkpt lat="43.44654" lon="3.47714">
        <ele>80</ele>
        <time>2018-09-25T20:59:15.819Z</time>
      </trkpt>
      <trkpt lat="43.44655" lon="3.47708">
        <ele>80</ele>
        <time>2018-09-25T20:59:17.819Z</time>
      </trkpt>
      <trkpt lat="43.44656" lon="3.47704">
        <ele>80</ele>
        <time>2018-09-25T20:59:19.819Z</time>
      </trkpt>
      <trkpt lat="43.44656" lon="3.477">
        <ele>80</ele>
        <time>2018-09-25T20:59:21.819Z</time>
      </trkpt>
      <trkpt lat="43.44653" lon="3.47694">
        <ele>80.7</ele>
        <time>2018-09-25T20:59:23.819Z</time>
      </trkpt>
      <trkpt lat="43.44652" lon="3.47691">
        <ele>81.1</ele>
        <time>2018-09-25T20:59:24.819Z</time>
      </trkpt>
      <trkpt lat="43.44649" lon="3.47689">
        <ele>81.1</ele>
        <time>2018-09-25T20:59:25.819Z</time>
      </trkpt>
      <trkpt lat="43.44645" lon="3.47688">
        <ele>81</ele>
        <time>2018-09-25T20:59:26.819Z</time>
      </trkpt>
      <trkpt lat="43.44641" lon="3.47687">
        <ele>80.8</ele>
        <time>2018-09-25T20:59:27.819Z</time>
      </trkpt>
      <trkpt lat="43.44636" lon="3.47686">
        <ele>80.6</ele>
        <time>2018-09-25T20:59:28.819Z</time>
      </trkpt>
      <trkpt lat="43.44632" lon="3.47686">
        <ele>80.5</ele>
        <time>2018-09-25T20:59:29.819Z</time>
      </trkpt>
      <trkpt lat="43.44627" lon="3.47687">
        <ele>80.3</ele>
        <time>2018-09-25T20:59:30.819Z</time>
      </trkpt>
      <trkpt lat="43.44623" lon="3.47689">
        <ele>80.2</ele>
        <time>2018-09-25T20:59:31.819Z</time>
      </trkpt>
      <trkpt lat="43.4462" lon="3.4769">
        <ele>80.1</ele>
        <time>2018-09-25T20:59:32.819Z</time>
      </trkpt>
      <trkpt lat="43.44617" lon="3.47691">
        <ele>80.1</ele>
        <time>2018-09-25T20:59:33.819Z</time>
      </trkpt>
      <trkpt lat="43.44614" lon="3.47692">
        <ele>80</ele>
        <time>2018-09-25T20:59:34.819Z</time>
      </trkpt>
      <trkpt lat="43.44611" lon="3.47693">
        <ele>80</ele>
        <time>2018-09-25T20:59:35.819Z</time>
      </trkpt>
      <trkpt lat="43.44608" lon="3.47694">
        <ele>80</ele>
        <time>2018-09-25T20:59:36.819Z</time>
      </trkpt>
      <trkpt lat="43.44605" lon="3.47694">
        <ele>79.9</ele>
        <time>2018-09-25T20:59:37.819Z</time>
      </trkpt>
      <trkpt lat="43.44601" lon="3.47695">
        <ele>79.9</ele>
        <time>2018-09-25T20:59:38.819Z</time>
      </trkpt>
      <trkpt lat="43.44597" lon="3.47695">
        <ele>79.8</ele>
        <time>2018-09-25T20:59:39.819Z</time>
      </trkpt>
      <trkpt lat="43.44594" lon="3.47695">
        <ele>79.7</ele>
        <time>2018-09-25T20:59:40.819Z</time>
      </trkpt>
      <trkpt lat="43.4459" lon="3.47695">
        <ele>79.7</ele>
        <time>2018-09-25T20:59:41.819Z</time>
      </trkpt>
      <trkpt lat="43.44587" lon="3.47694">
        <ele>79.6</ele>
        <time>2018-09-25T20:59:42.819Z</time>
      </trkpt>
      <trkpt lat="43.44583" lon="3.47693">
        <ele>79.6</ele>
        <time>2018-09-25T20:59:43.819Z</time>
      </trkpt>
      <trkpt lat="43.44579" lon="3.47693">
        <ele>79.5</ele>
        <time>2018-09-25T20:59:44.819Z</time>
      </trkpt>
      <trkpt lat="43.44575" lon="3.47692">
        <ele>79.4</ele>
        <time>2018-09-25T20:59:45.819Z</time>
      </trkpt>
      <trkpt lat="43.44572" lon="3.47691">
        <ele>79.3</ele>
        <time>2018-09-25T20:59:46.819Z</time>
      </trkpt>
      <trkpt lat="43.44568" lon="3.47691">
        <ele>79.3</ele>
        <time>2018-09-25T20:59:47.819Z</time>
      </trkpt>
      <trkpt lat="43.44564" lon="3.4769">
        <ele>79.3</ele>
        <time>2018-09-25T20:59:48.819Z</time>
      </trkpt>
      <trkpt lat="43.44561" lon="3.47689">
        <ele>79.3</ele>
        <time>2018-09-25T20:59:49.819Z</time>
      </trkpt>
      <trkpt lat="43.44557" lon="3.47689">
        <ele>79.3</ele>
        <time>2018-09-25T20:59:50.819Z</time>
      </trkpt>
      <trkpt lat="43.44552" lon="3.47689">
        <ele>79.3</ele>
        <time>2018-09-25T20:59:51.819Z</time>
      </trkpt>
      <trkpt lat="43.44548" lon="3.47688">
        <ele>79.4</ele>
        <time>2018-09-25T20:59:52.819Z</time>
      </trkpt>
      <trkpt lat="43.44544" lon="3.47687">
        <ele>79.5</ele>
        <time>2018-09-25T20:59:53.819Z</time>
      </trkpt>
      <trkpt lat="43.44539" lon="3.47686">
        <ele>79.8</ele>
        <time>2018-09-25T20:59:54.819Z</time>
      </trkpt>
      <trkpt lat="43.44534" lon="3.47684">
        <ele>80.1</ele>
        <time>2018-09-25T20:59:55.819Z</time>
      </trkpt>
      <trkpt lat="43.44531" lon="3.47684">
        <ele>80.3</ele>
        <time>2018-09-25T20:59:56.819Z</time>
      </trkpt>
      <trkpt lat="43.44527" lon="3.47683">
        <ele>80.6</ele>
        <time>2018-09-25T20:59:57.819Z</time>
      </trkpt>
      <trkpt lat="43.44523" lon="3.47681">
        <ele>80.8</ele>
        <time>2018-09-25T20:59:58.819Z</time>
      </trkpt>
      <trkpt lat="43.44518" lon="3.4768">
        <ele>81</ele>
        <time>2018-09-25T20:59:59.819Z</time>
      </trkpt>
      <trkpt lat="43.44514" lon="3.47679">
        <ele>81.1</ele>
        <time>2018-09-25T21:00:00.819Z</time>
      </trkpt>
      <trkpt lat="43.44509" lon="3.47678">
        <ele>81.3</ele>
        <time>2018-09-25T21:00:01.819Z</time>
      </trkpt>
      <trkpt lat="43.44505" lon="3.47677">
        <ele>81.5</ele>
        <time>2018-09-25T21:00:02.819Z</time>
      </trkpt>
      <trkpt lat="43.44501" lon="3.47676">
        <ele>81.6</ele>
        <time>2018-09-25T21:00:03.819Z</time>
      </trkpt>
      <trkpt lat="43.44497" lon="3.47676">
        <ele>81.7</ele>
        <time>2018-09-25T21:00:04.819Z</time>
      </trkpt>
      <trkpt lat="43.44493" lon="3.47677">
        <ele>81.9</ele>
        <time>2018-09-25T21:00:05.819Z</time>
      </trkpt>
      <trkpt lat="43.44489" lon="3.47677">
        <ele>82</ele>
        <time>2018-09-25T21:00:06.819Z</time>
      </trkpt>
      <trkpt lat="43.44484" lon="3.47677">
        <ele>82.2</ele>
        <time>2018-09-25T21:00:07.819Z</time>
      </trkpt>
      <trkpt lat="43.44479" lon="3.47677">
        <ele>82.4</ele>
        <time>2018-09-25T21:00:08.819Z</time>
      </trkpt>
      <trkpt lat="43.44475" lon="3.47678">
        <ele>82.5</ele>
        <time>2018-09-25T21:00:09.819Z</time>
      </trkpt>
      <trkpt lat="43.44471" lon="3.47679">
        <ele>82.6</ele>
        <time>2018-09-25T21:00:10.819Z</time>
      </trkpt>
      <trkpt lat="43.44466" lon="3.4768">
        <ele>82.8</ele>
        <time>2018-09-25T21:00:11.819Z</time>
      </trkpt>
      <trkpt lat="43.44462" lon="3.47682">
        <ele>83</ele>
        <time>2018-09-25T21:00:12.819Z</time>
      </trkpt>
      <trkpt lat="43.44458" lon="3.47683">
        <ele>83.1</ele>
        <time>2018-09-25T21:00:13.819Z</time>
      </trkpt>
      <trkpt lat="43.44454" lon="3.47685">
        <ele>83.2</ele>
        <time>2018-09-25T21:00:14.819Z</time>
      </trkpt>
      <trkpt lat="43.44449" lon="3.47686">
        <ele>83.3</ele>
        <time>2018-09-25T21:00:15.819Z</time>
      </trkpt>
      <trkpt lat="43.44445" lon="3.47687">
        <ele>83.3</ele>
        <time>2018-09-25T21:00:16.819Z</time>
      </trkpt>
      <trkpt lat="43.44441" lon="3.47689">
        <ele>83.4</ele>
        <time>2018-09-25T21:00:17.819Z</time>
      </trkpt>
      <trkpt lat="43.44437" lon="3.47691">
        <ele>83.4</ele>
        <time>2018-09-25T21:00:18.819Z</time>
      </trkpt>
      <trkpt lat="43.44432" lon="3.47693">
        <ele>83.5</ele>
        <time>2018-09-25T21:00:19.819Z</time>
      </trkpt>
      <trkpt lat="43.44429" lon="3.47694">
        <ele>83.5</ele>
        <time>2018-09-25T21:00:20.819Z</time>
      </trkpt>
      <trkpt lat="43.44424" lon="3.47696">
        <ele>83.7</ele>
        <time>2018-09-25T21:00:21.819Z</time>
      </trkpt>
      <trkpt lat="43.4442" lon="3.47697">
        <ele>83.8</ele>
        <time>2018-09-25T21:00:22.819Z</time>
      </trkpt>
      <trkpt lat="43.44416" lon="3.47698">
        <ele>83.9</ele>
        <time>2018-09-25T21:00:23.819Z</time>
      </trkpt>
      <trkpt lat="43.44411" lon="3.477">
        <ele>84</ele>
        <time>2018-09-25T21:00:24.819Z</time>
      </trkpt>
      <trkpt lat="43.44407" lon="3.47701">
        <ele>84</ele>
        <time>2018-09-25T21:00:25.819Z</time>
      </trkpt>
      <trkpt lat="43.44402" lon="3.47703">
        <ele>84.1</ele>
        <time>2018-09-25T21:00:26.819Z</time>
      </trkpt>
      <trkpt lat="43.44397" lon="3.47704">
        <ele>84.2</ele>
        <time>2018-09-25T21:00:27.819Z</time>
      </trkpt>
      <trkpt lat="43.44393" lon="3.47706">
        <ele>84.3</ele>
        <time>2018-09-25T21:00:28.819Z</time>
      </trkpt>
      <trkpt lat="43.44389" lon="3.47707">
        <ele>84.3</ele>
        <time>2018-09-25T21:00:29.819Z</time>
      </trkpt>
      <trkpt lat="43.44385" lon="3.47709">
        <ele>84.4</ele>
        <time>2018-09-25T21:00:30.819Z</time>
      </trkpt>
      <trkpt lat="43.4438" lon="3.4771">
        <ele>84.5</ele>
        <time>2018-09-25T21:00:31.819Z</time>
      </trkpt>
      <trkpt lat="43.44375" lon="3.47711">
        <ele>84.6</ele>
        <time>2018-09-25T21:00:32.819Z</time>
      </trkpt>
      <trkpt lat="43.4437" lon="3.47711">
        <ele>84.7</ele>
        <time>2018-09-25T21:00:33.819Z</time>
      </trkpt>
      <trkpt lat="43.44365" lon="3.47713">
        <ele>84.9</ele>
        <time>2018-09-25T21:00:34.819Z</time>
      </trkpt>
      <trkpt lat="43.4436" lon="3.47714">
        <ele>85</ele>
        <time>2018-09-25T21:00:35.819Z</time>
      </trkpt>
      <trkpt lat="43.44355" lon="3.47716">
        <ele>85.2</ele>
        <time>2018-09-25T21:00:36.819Z</time>
      </trkpt>
      <trkpt lat="43.4435" lon="3.47717">
        <ele>85.3</ele>
        <time>2018-09-25T21:00:37.819Z</time>
      </trkpt>
      <trkpt lat="43.44345" lon="3.47719">
        <ele>85.5</ele>
        <time>2018-09-25T21:00:38.819Z</time>
      </trkpt>
      <trkpt lat="43.4434" lon="3.4772">
        <ele>85.6</ele>
        <time>2018-09-25T21:00:39.819Z</time>
      </trkpt>
      <trkpt lat="43.44334" lon="3.47721">
        <ele>85.8</ele>
        <time>2018-09-25T21:00:40.819Z</time>
      </trkpt>
      <trkpt lat="43.44329" lon="3.47723">
        <ele>85.9</ele>
        <time>2018-09-25T21:00:41.819Z</time>
      </trkpt>
      <trkpt lat="43.44324" lon="3.47725">
        <ele>86</ele>
        <time>2018-09-25T21:00:42.819Z</time>
      </trkpt>
      <trkpt lat="43.4432" lon="3.47727">
        <ele>86.2</ele>
        <time>2018-09-25T21:00:43.819Z</time>
      </trkpt>
      <trkpt lat="43.44315" lon="3.47729">
        <ele>86.3</ele>
        <time>2018-09-25T21:00:44.819Z</time>
      </trkpt>
      <trkpt lat="43.44311" lon="3.47731">
        <ele>86.5</ele>
        <time>2018-09-25T21:00:45.819Z</time>
      </trkpt>
      <trkpt lat="43.44307" lon="3.47732">
        <ele>86.7</ele>
        <time>2018-09-25T21:00:46.819Z</time>
      </trkpt>
      <trkpt lat="43.44302" lon="3.47734">
        <ele>86.9</ele>
        <time>2018-09-25T21:00:47.819Z</time>
      </trkpt>
      <trkpt lat="43.44297" lon="3.47735">
        <ele>87</ele>
        <time>2018-09-25T21:00:48.819Z</time>
      </trkpt>
      <trkpt lat="43.44293" lon="3.47736">
        <ele>87.1</ele>
        <time>2018-09-25T21:00:49.819Z</time>
      </trkpt>
      <trkpt lat="43.44289" lon="3.47737">
        <ele>87.1</ele>
        <time>2018-09-25T21:00:50.819Z</time>
      </trkpt>
      <trkpt lat="43.44286" lon="3.47736">
        <ele>87.1</ele>
        <time>2018-09-25T21:00:51.819Z</time>
      </trkpt>
      <trkpt lat="43.44282" lon="3.47736">
        <ele>87.1</ele>
        <time>2018-09-25T21:00:52.819Z</time>
      </trkpt>
      <trkpt lat="43.44279" lon="3.47736">
        <ele>87.1</ele>
        <time>2018-09-25T21:00:53.819Z</time>
      </trkpt>
      <trkpt lat="43.44275" lon="3.47735">
        <ele>87.1</ele>
        <time>2018-09-25T21:00:54.819Z</time>
      </trkpt>
      <trkpt lat="43.44272" lon="3.47732">
        <ele>87</ele>
        <time>2018-09-25T21:00:55.819Z</time>
      </trkpt>
      <trkpt lat="43.44269" lon="3.47728">
        <ele>87.1</ele>
        <time>2018-09-25T21:00:56.819Z</time>
      </trkpt>
      <trkpt lat="43.44266" lon="3.47723">
        <ele>87.2</ele>
        <time>2018-09-25T21:00:57.819Z</time>
      </trkpt>
      <trkpt lat="43.44265" lon="3.47719">
        <ele>87.3</ele>
        <time>2018-09-25T21:00:58.819Z</time>
      </trkpt>
      <trkpt lat="43.44265" lon="3.47713">
        <ele>87.5</ele>
        <time>2018-09-25T21:01:00.819Z</time>
      </trkpt>
      <trkpt lat="43.44266" lon="3.47709">
        <ele>87.6</ele>
        <time>2018-09-25T21:01:01.819Z</time>
      </trkpt>
      <trkpt lat="43.44268" lon="3.47702">
        <ele>87.8</ele>
        <time>2018-09-25T21:01:03.819Z</time>
      </trkpt>
      <trkpt lat="43.44269" lon="3.47697">
        <ele>87.9</ele>
        <time>2018-09-25T21:01:04.819Z</time>
      </trkpt>
      <trkpt lat="43.4427" lon="3.47693">
        <ele>88</ele>
        <time>2018-09-25T21:01:05.819Z</time>
      </trkpt>
      <trkpt lat="43.44271" lon="3.47687">
        <ele>88.2</ele>
        <time>2018-09-25T21:01:06.819Z</time>
      </trkpt>
      <trkpt lat="43.44273" lon="3.47682">
        <ele>88.4</ele>
        <time>2018-09-25T21:01:07.819Z</time>
      </trkpt>
      <trkpt lat="43.44274" lon="3.47676">
        <ele>88.5</ele>
        <time>2018-09-25T21:01:08.819Z</time>
      </trkpt>
      <trkpt lat="43.44276" lon="3.47671">
        <ele>88.7</ele>
        <time>2018-09-25T21:01:09.819Z</time>
      </trkpt>
      <trkpt lat="43.44278" lon="3.47666">
        <ele>88.8</ele>
        <time>2018-09-25T21:01:10.819Z</time>
      </trkpt>
      <trkpt lat="43.44279" lon="3.47662">
        <ele>89</ele>
        <time>2018-09-25T21:01:11.819Z</time>
      </trkpt>
      <trkpt lat="43.4428" lon="3.47658">
        <ele>89.2</ele>
        <time>2018-09-25T21:01:12.819Z</time>
      </trkpt>
      <trkpt lat="43.44281" lon="3.47653">
        <ele>89.4</ele>
        <time>2018-09-25T21:01:13.819Z</time>
      </trkpt>
      <trkpt lat="43.44283" lon="3.47649">
        <ele>89.5</ele>
        <time>2018-09-25T21:01:14.819Z</time>
      </trkpt>
      <trkpt lat="43.44285" lon="3.47644">
        <ele>89.7</ele>
        <time>2018-09-25T21:01:15.819Z</time>
      </trkpt>
      <trkpt lat="43.44287" lon="3.47639">
        <ele>89.7</ele>
        <time>2018-09-25T21:01:16.819Z</time>
      </trkpt>
      <trkpt lat="43.44289" lon="3.47633">
        <ele>89.8</ele>
        <time>2018-09-25T21:01:17.819Z</time>
      </trkpt>
      <trkpt lat="43.44291" lon="3.47628">
        <ele>89.8</ele>
        <time>2018-09-25T21:01:18.819Z</time>
      </trkpt>
      <trkpt lat="43.44292" lon="3.47622">
        <ele>89.8</ele>
        <time>2018-09-25T21:01:19.819Z</time>
      </trkpt>
      <trkpt lat="43.44293" lon="3.47617">
        <ele>89.8</ele>
        <time>2018-09-25T21:01:20.819Z</time>
      </trkpt>
      <trkpt lat="43.44295" lon="3.47611">
        <ele>89.9</ele>
        <time>2018-09-25T21:01:21.819Z</time>
      </trkpt>
      <trkpt lat="43.44297" lon="3.47607">
        <ele>89.9</ele>
        <time>2018-09-25T21:01:22.819Z</time>
      </trkpt>
      <trkpt lat="43.44298" lon="3.47602">
        <ele>89.9</ele>
        <time>2018-09-25T21:01:23.819Z</time>
      </trkpt>
      <trkpt lat="43.44299" lon="3.47598">
        <ele>89.8</ele>
        <time>2018-09-25T21:01:24.819Z</time>
      </trkpt>
      <trkpt lat="43.443" lon="3.47594">
        <ele>89.8</ele>
        <time>2018-09-25T21:01:25.819Z</time>
      </trkpt>
      <trkpt lat="43.44301" lon="3.4759">
        <ele>89.8</ele>
        <time>2018-09-25T21:01:26.819Z</time>
      </trkpt>
      <trkpt lat="43.44302" lon="3.47586">
        <ele>89.7</ele>
        <time>2018-09-25T21:01:27.819Z</time>
      </trkpt>
      <trkpt lat="43.44303" lon="3.47582">
        <ele>89.7</ele>
        <time>2018-09-25T21:01:28.819Z</time>
      </trkpt>
      <trkpt lat="43.44304" lon="3.47578">
        <ele>89.6</ele>
        <time>2018-09-25T21:01:29.819Z</time>
      </trkpt>
      <trkpt lat="43.44305" lon="3.47574">
        <ele>89.5</ele>
        <time>2018-09-25T21:01:30.819Z</time>
      </trkpt>
      <trkpt lat="43.44307" lon="3.4757">
        <ele>89.4</ele>
        <time>2018-09-25T21:01:31.819Z</time>
      </trkpt>
      <trkpt lat="43.44308" lon="3.47565">
        <ele>89.3</ele>
        <time>2018-09-25T21:01:32.819Z</time>
      </trkpt>
      <trkpt lat="43.4431" lon="3.4756">
        <ele>89.2</ele>
        <time>2018-09-25T21:01:33.819Z</time>
      </trkpt>
      <trkpt lat="43.44311" lon="3.47556">
        <ele>89.2</ele>
        <time>2018-09-25T21:01:34.819Z</time>
      </trkpt>
      <trkpt lat="43.44313" lon="3.47552">
        <ele>89.1</ele>
        <time>2018-09-25T21:01:35.819Z</time>
      </trkpt>
      <trkpt lat="43.44315" lon="3.47548">
        <ele>89.1</ele>
        <time>2018-09-25T21:01:36.819Z</time>
      </trkpt>
      <trkpt lat="43.44317" lon="3.47544">
        <ele>89.1</ele>
        <time>2018-09-25T21:01:37.819Z</time>
      </trkpt>
      <trkpt lat="43.44318" lon="3.4754">
        <ele>89</ele>
        <time>2018-09-25T21:01:38.819Z</time>
      </trkpt>
      <trkpt lat="43.4432" lon="3.47537">
        <ele>88.8</ele>
        <time>2018-09-25T21:01:39.819Z</time>
      </trkpt>
      <trkpt lat="43.44322" lon="3.47534">
        <ele>88.7</ele>
        <time>2018-09-25T21:01:40.819Z</time>
      </trkpt>
      <trkpt lat="43.44324" lon="3.4753">
        <ele>88.6</ele>
        <time>2018-09-25T21:01:41.819Z</time>
      </trkpt>
      <trkpt lat="43.44326" lon="3.47526">
        <ele>88.4</ele>
        <time>2018-09-25T21:01:42.819Z</time>
      </trkpt>
      <trkpt lat="43.4433" lon="3.47521">
        <ele>88.3</ele>
        <time>2018-09-25T21:01:44.819Z</time>
      </trkpt>
      <trkpt lat="43.44332" lon="3.47517">
        <ele>88.2</ele>
        <time>2018-09-25T21:01:45.819Z</time>
      </trkpt>
      <trkpt lat="43.44334" lon="3.47514">
        <ele>88.2</ele>
        <time>2018-09-25T21:01:46.819Z</time>
      </trkpt>
      <trkpt lat="43.44336" lon="3.47511">
        <ele>88.1</ele>
        <time>2018-09-25T21:01:47.819Z</time>
      </trkpt>
      <trkpt lat="43.44341" lon="3.47505">
        <ele>88</ele>
        <time>2018-09-25T21:01:49.819Z</time>
      </trkpt>
      <trkpt lat="43.44344" lon="3.47501">
        <ele>88</ele>
        <time>2018-09-25T21:01:51.819Z</time>
      </trkpt>
      <trkpt lat="43.44347" lon="3.47499">
        <ele>87.9</ele>
        <time>2018-09-25T21:01:52.819Z</time>
      </trkpt>
      <trkpt lat="43.44351" lon="3.47495">
        <ele>87.9</ele>
        <time>2018-09-25T21:01:54.819Z</time>
      </trkpt>
      <trkpt lat="43.44353" lon="3.47493">
        <ele>87.8</ele>
        <time>2018-09-25T21:01:55.819Z</time>
      </trkpt>
      <trkpt lat="43.44356" lon="3.47491">
        <ele>87.8</ele>
        <time>2018-09-25T21:01:56.819Z</time>
      </trkpt>
      <trkpt lat="43.4436" lon="3.4749">
        <ele>87.7</ele>
        <time>2018-09-25T21:01:57.819Z</time>
      </trkpt>
      <trkpt lat="43.44364" lon="3.47488">
        <ele>87.7</ele>
        <time>2018-09-25T21:01:58.819Z</time>
      </trkpt>
      <trkpt lat="43.44368" lon="3.47486">
        <ele>87.6</ele>
        <time>2018-09-25T21:01:59.819Z</time>
      </trkpt>
      <trkpt lat="43.44372" lon="3.47484">
        <ele>87.5</ele>
        <time>2018-09-25T21:02:00.819Z</time>
      </trkpt>
      <trkpt lat="43.44376" lon="3.47482">
        <ele>87.4</ele>
        <time>2018-09-25T21:02:01.819Z</time>
      </trkpt>
      <trkpt lat="43.4438" lon="3.4748">
        <ele>87.3</ele>
        <time>2018-09-25T21:02:02.819Z</time>
      </trkpt>
      <trkpt lat="43.44385" lon="3.47478">
        <ele>87.3</ele>
        <time>2018-09-25T21:02:03.819Z</time>
      </trkpt>
      <trkpt lat="43.44388" lon="3.47476">
        <ele>87.2</ele>
        <time>2018-09-25T21:02:04.819Z</time>
      </trkpt>
      <trkpt lat="43.44392" lon="3.47474">
        <ele>87.1</ele>
        <time>2018-09-25T21:02:05.819Z</time>
      </trkpt>
      <trkpt lat="43.44395" lon="3.47471">
        <ele>87</ele>
        <time>2018-09-25T21:02:06.819Z</time>
      </trkpt>
      <trkpt lat="43.44398" lon="3.47467">
        <ele>86.9</ele>
        <time>2018-09-25T21:02:07.819Z</time>
      </trkpt>
      <trkpt lat="43.44402" lon="3.47464">
        <ele>86.8</ele>
        <time>2018-09-25T21:02:08.819Z</time>
      </trkpt>
      <trkpt lat="43.44404" lon="3.4746">
        <ele>86.7</ele>
        <time>2018-09-25T21:02:09.819Z</time>
      </trkpt>
      <trkpt lat="43.44406" lon="3.47455">
        <ele>86.5</ele>
        <time>2018-09-25T21:02:10.819Z</time>
      </trkpt>
      <trkpt lat="43.44408" lon="3.47451">
        <ele>86.4</ele>
        <time>2018-09-25T21:02:11.819Z</time>
      </trkpt>
      <trkpt lat="43.4441" lon="3.47446">
        <ele>86.3</ele>
        <time>2018-09-25T21:02:12.819Z</time>
      </trkpt>
      <trkpt lat="43.44411" lon="3.47442">
        <ele>86.2</ele>
        <time>2018-09-25T21:02:13.819Z</time>
      </trkpt>
      <trkpt lat="43.44412" lon="3.47437">
        <ele>86.1</ele>
        <time>2018-09-25T21:02:14.819Z</time>
      </trkpt>
      <trkpt lat="43.44412" lon="3.47433">
        <ele>86</ele>
        <time>2018-09-25T21:02:15.819Z</time>
      </trkpt>
      <trkpt lat="43.44412" lon="3.47428">
        <ele>85.8</ele>
        <time>2018-09-25T21:02:16.819Z</time>
      </trkpt>
      <trkpt lat="43.44412" lon="3.47424">
        <ele>85.7</ele>
        <time>2018-09-25T21:02:17.819Z</time>
      </trkpt>
      <trkpt lat="43.44411" lon="3.4742">
        <ele>85.6</ele>
        <time>2018-09-25T21:02:18.819Z</time>
      </trkpt>
      <trkpt lat="43.4441" lon="3.47416">
        <ele>85.5</ele>
        <time>2018-09-25T21:02:19.819Z</time>
      </trkpt>
      <trkpt lat="43.4441" lon="3.47412">
        <ele>85.4</ele>
        <time>2018-09-25T21:02:20.819Z</time>
      </trkpt>
      <trkpt lat="43.4441" lon="3.47408">
        <ele>85.3</ele>
        <time>2018-09-25T21:02:21.819Z</time>
      </trkpt>
      <trkpt lat="43.4441" lon="3.47403">
        <ele>85.2</ele>
        <time>2018-09-25T21:02:22.819Z</time>
      </trkpt>
      <trkpt lat="43.4441" lon="3.47398">
        <ele>85.1</ele>
        <time>2018-09-25T21:02:23.819Z</time>
      </trkpt>
      <trkpt lat="43.44411" lon="3.47392">
        <ele>84.9</ele>
        <time>2018-09-25T21:02:24.819Z</time>
      </trkpt>
      <trkpt lat="43.44412" lon="3.47387">
        <ele>84.8</ele>
        <time>2018-09-25T21:02:25.819Z</time>
      </trkpt>
      <trkpt lat="43.44414" lon="3.47382">
        <ele>84.6</ele>
        <time>2018-09-25T21:02:26.819Z</time>
      </trkpt>
      <trkpt lat="43.44416" lon="3.47379">
        <ele>84.4</ele>
        <time>2018-09-25T21:02:27.819Z</time>
      </trkpt>
      <trkpt lat="43.44416" lon="3.47374">
        <ele>84.3</ele>
        <time>2018-09-25T21:02:28.819Z</time>
      </trkpt>
      <trkpt lat="43.44415" lon="3.4737">
        <ele>84.1</ele>
        <time>2018-09-25T21:02:29.819Z</time>
      </trkpt>
      <trkpt lat="43.44412" lon="3.47367">
        <ele>83.8</ele>
        <time>2018-09-25T21:02:30.819Z</time>
      </trkpt>
      <trkpt lat="43.44408" lon="3.47366">
        <ele>83.7</ele>
        <time>2018-09-25T21:02:31.819Z</time>
      </trkpt>
      <trkpt lat="43.44404" lon="3.47368">
        <ele>83.6</ele>
        <time>2018-09-25T21:02:32.819Z</time>
      </trkpt>
      <trkpt lat="43.44399" lon="3.47368">
        <ele>83.4</ele>
        <time>2018-09-25T21:02:33.819Z</time>
      </trkpt>
      <trkpt lat="43.44395" lon="3.47368">
        <ele>83.3</ele>
        <time>2018-09-25T21:02:34.819Z</time>
      </trkpt>
      <trkpt lat="43.44391" lon="3.47367">
        <ele>83</ele>
        <time>2018-09-25T21:02:35.819Z</time>
      </trkpt>
      <trkpt lat="43.44387" lon="3.47365">
        <ele>82.8</ele>
        <time>2018-09-25T21:02:36.819Z</time>
      </trkpt>
      <trkpt lat="43.44383" lon="3.47364">
        <ele>82.6</ele>
        <time>2018-09-25T21:02:37.819Z</time>
      </trkpt>
      <trkpt lat="43.44378" lon="3.47364">
        <ele>82.4</ele>
        <time>2018-09-25T21:02:38.819Z</time>
      </trkpt>
      <trkpt lat="43.44374" lon="3.47365">
        <ele>82.3</ele>
        <time>2018-09-25T21:02:39.819Z</time>
      </trkpt>
      <trkpt lat="43.44369" lon="3.47366">
        <ele>82.1</ele>
        <time>2018-09-25T21:02:40.819Z</time>
      </trkpt>
      <trkpt lat="43.44364" lon="3.47367">
        <ele>81.8</ele>
        <time>2018-09-25T21:02:41.819Z</time>
      </trkpt>
      <trkpt lat="43.44359" lon="3.47368">
        <ele>81.5</ele>
        <time>2018-09-25T21:02:42.819Z</time>
      </trkpt>
      <trkpt lat="43.44354" lon="3.47366">
        <ele>81.2</ele>
        <time>2018-09-25T21:02:43.819Z</time>
      </trkpt>
      <trkpt lat="43.4435" lon="3.47363">
        <ele>81</ele>
        <time>2018-09-25T21:02:44.819Z</time>
      </trkpt>
      <trkpt lat="43.44346" lon="3.47361">
        <ele>80.8</ele>
        <time>2018-09-25T21:02:45.819Z</time>
      </trkpt>
      <trkpt lat="43.44342" lon="3.47357">
        <ele>80.5</ele>
        <time>2018-09-25T21:02:46.819Z</time>
      </trkpt>
      <trkpt lat="43.44337" lon="3.47353">
        <ele>80.3</ele>
        <time>2018-09-25T21:02:47.819Z</time>
      </trkpt>
      <trkpt lat="43.44333" lon="3.47349">
        <ele>79.8</ele>
        <time>2018-09-25T21:02:48.819Z</time>
      </trkpt>
      <trkpt lat="43.44328" lon="3.47345">
        <ele>79.4</ele>
        <time>2018-09-25T21:02:49.819Z</time>
      </trkpt>
      <trkpt lat="43.44324" lon="3.47342">
        <ele>79.1</ele>
        <time>2018-09-25T21:02:50.819Z</time>
      </trkpt>
      <trkpt lat="43.4432" lon="3.47339">
        <ele>78.8</ele>
        <time>2018-09-25T21:02:51.819Z</time>
      </trkpt>
      <trkpt lat="43.44316" lon="3.47335">
        <ele>78.4</ele>
        <time>2018-09-25T21:02:52.819Z</time>
      </trkpt>
      <trkpt lat="43.44311" lon="3.47332">
        <ele>78.1</ele>
        <time>2018-09-25T21:02:53.819Z</time>
      </trkpt>
      <trkpt lat="43.44306" lon="3.47328">
        <ele>77.7</ele>
        <time>2018-09-25T21:02:54.819Z</time>
      </trkpt>
      <trkpt lat="43.44302" lon="3.47324">
        <ele>77.4</ele>
        <time>2018-09-25T21:02:55.819Z</time>
      </trkpt>
      <trkpt lat="43.44298" lon="3.4732">
        <ele>77.2</ele>
        <time>2018-09-25T21:02:56.819Z</time>
      </trkpt>
      <trkpt lat="43.44294" lon="3.47316">
        <ele>77</ele>
        <time>2018-09-25T21:02:57.819Z</time>
      </trkpt>
      <trkpt lat="43.4429" lon="3.47312">
        <ele>76.8</ele>
        <time>2018-09-25T21:02:58.819Z</time>
      </trkpt>
      <trkpt lat="43.44286" lon="3.47308">
        <ele>76.5</ele>
        <time>2018-09-25T21:02:59.819Z</time>
      </trkpt>
      <trkpt lat="43.44282" lon="3.47302">
        <ele>76.3</ele>
        <time>2018-09-25T21:03:00.819Z</time>
      </trkpt>
      <trkpt lat="43.44279" lon="3.47297">
        <ele>76.2</ele>
        <time>2018-09-25T21:03:01.819Z</time>
      </trkpt>
      <trkpt lat="43.44275" lon="3.47292">
        <ele>76.1</ele>
        <time>2018-09-25T21:03:02.819Z</time>
      </trkpt>
      <trkpt lat="43.44271" lon="3.47287">
        <ele>76</ele>
        <time>2018-09-25T21:03:03.819Z</time>
      </trkpt>
      <trkpt lat="43.44267" lon="3.47281">
        <ele>75.9</ele>
        <time>2018-09-25T21:03:04.819Z</time>
      </trkpt>
      <trkpt lat="43.44264" lon="3.47275">
        <ele>75.8</ele>
        <time>2018-09-25T21:03:05.819Z</time>
      </trkpt>
      <trkpt lat="43.4426" lon="3.47269">
        <ele>75.7</ele>
        <time>2018-09-25T21:03:06.819Z</time>
      </trkpt>
      <trkpt lat="43.44257" lon="3.47262">
        <ele>75.6</ele>
        <time>2018-09-25T21:03:07.819Z</time>
      </trkpt>
      <trkpt lat="43.44253" lon="3.47255">
        <ele>75.4</ele>
        <time>2018-09-25T21:03:08.819Z</time>
      </trkpt>
      <trkpt lat="43.44249" lon="3.47249">
        <ele>75.3</ele>
        <time>2018-09-25T21:03:09.819Z</time>
      </trkpt>
      <trkpt lat="43.44247" lon="3.47242">
        <ele>75.2</ele>
        <time>2018-09-25T21:03:10.819Z</time>
      </trkpt>
      <trkpt lat="43.44244" lon="3.47236">
        <ele>75.1</ele>
        <time>2018-09-25T21:03:11.819Z</time>
      </trkpt>
      <trkpt lat="43.4424" lon="3.4723">
        <ele>75</ele>
        <time>2018-09-25T21:03:12.819Z</time>
      </trkpt>
      <trkpt lat="43.44235" lon="3.47226">
        <ele>74.8</ele>
        <time>2018-09-25T21:03:13.819Z</time>
      </trkpt>
      <trkpt lat="43.4423" lon="3.47224">
        <ele>74.7</ele>
        <time>2018-09-25T21:03:14.819Z</time>
      </trkpt>
      <trkpt lat="43.44224" lon="3.47223">
        <ele>74.5</ele>
        <time>2018-09-25T21:03:15.819Z</time>
      </trkpt>
      <trkpt lat="43.44219" lon="3.47222">
        <ele>74.4</ele>
        <time>2018-09-25T21:03:16.819Z</time>
      </trkpt>
      <trkpt lat="43.44213" lon="3.47219">
        <ele>74.2</ele>
        <time>2018-09-25T21:03:17.819Z</time>
      </trkpt>
      <trkpt lat="43.44208" lon="3.47215">
        <ele>74</ele>
        <time>2018-09-25T21:03:18.819Z</time>
      </trkpt>
      <trkpt lat="43.44203" lon="3.47211">
        <ele>73.8</ele>
        <time>2018-09-25T21:03:19.819Z</time>
      </trkpt>
      <trkpt lat="43.44199" lon="3.47208">
        <ele>73.6</ele>
        <time>2018-09-25T21:03:20.819Z</time>
      </trkpt>
      <trkpt lat="43.44195" lon="3.47204">
        <ele>73.4</ele>
        <time>2018-09-25T21:03:21.819Z</time>
      </trkpt>
      <trkpt lat="43.4419" lon="3.472">
        <ele>73.2</ele>
        <time>2018-09-25T21:03:22.819Z</time>
      </trkpt>
      <trkpt lat="43.44186" lon="3.47196">
        <ele>73.1</ele>
        <time>2018-09-25T21:03:23.819Z</time>
      </trkpt>
      <trkpt lat="43.44183" lon="3.47191">
        <ele>72.9</ele>
        <time>2018-09-25T21:03:24.819Z</time>
      </trkpt>
      <trkpt lat="43.44179" lon="3.47187">
        <ele>72.8</ele>
        <time>2018-09-25T21:03:25.819Z</time>
      </trkpt>
      <trkpt lat="43.44175" lon="3.47182">
        <ele>72.6</ele>
        <time>2018-09-25T21:03:26.819Z</time>
      </trkpt>
      <trkpt lat="43.44172" lon="3.47175">
        <ele>72.4</ele>
        <time>2018-09-25T21:03:27.819Z</time>
      </trkpt>
      <trkpt lat="43.44169" lon="3.47168">
        <ele>72.2</ele>
        <time>2018-09-25T21:03:28.819Z</time>
      </trkpt>
      <trkpt lat="43.44166" lon="3.47161">
        <ele>72</ele>
        <time>2018-09-25T21:03:29.819Z</time>
      </trkpt>
      <trkpt lat="43.44163" lon="3.47154">
        <ele>72</ele>
        <time>2018-09-25T21:03:30.819Z</time>
      </trkpt>
      <trkpt lat="43.44159" lon="3.47148">
        <ele>72</ele>
        <time>2018-09-25T21:03:31.819Z</time>
      </trkpt>
      <trkpt lat="43.44155" lon="3.47143">
        <ele>72</ele>
        <time>2018-09-25T21:03:32.819Z</time>
      </trkpt>
      <trkpt lat="43.4415" lon="3.47138">
        <ele>72</ele>
        <time>2018-09-25T21:03:33.819Z</time>
      </trkpt>
      <trkpt lat="43.44146" lon="3.47134">
        <ele>72</ele>
        <time>2018-09-25T21:03:34.819Z</time>
      </trkpt>
      <trkpt lat="43.44141" lon="3.47129">
        <ele>72</ele>
        <time>2018-09-25T21:03:35.819Z</time>
      </trkpt>
      <trkpt lat="43.44137" lon="3.47124">
        <ele>72</ele>
        <time>2018-09-25T21:03:36.819Z</time>
      </trkpt>
      <trkpt lat="43.44132" lon="3.47119">
        <ele>72</ele>
        <time>2018-09-25T21:03:37.819Z</time>
      </trkpt>
      <trkpt lat="43.44129" lon="3.47112">
        <ele>72</ele>
        <time>2018-09-25T21:03:38.819Z</time>
      </trkpt>
      <trkpt lat="43.44128" lon="3.47106">
        <ele>72</ele>
        <time>2018-09-25T21:03:39.819Z</time>
      </trkpt>
      <trkpt lat="43.44127" lon="3.47101">
        <ele>71.8</ele>
        <time>2018-09-25T21:03:40.819Z</time>
      </trkpt>
      <trkpt lat="43.44126" lon="3.47095">
        <ele>71.6</ele>
        <time>2018-09-25T21:03:41.819Z</time>
      </trkpt>
      <trkpt lat="43.44124" lon="3.4709">
        <ele>71.4</ele>
        <time>2018-09-25T21:03:42.819Z</time>
      </trkpt>
      <trkpt lat="43.44121" lon="3.47084">
        <ele>71.3</ele>
        <time>2018-09-25T21:03:43.819Z</time>
      </trkpt>
      <trkpt lat="43.44118" lon="3.47079">
        <ele>71.1</ele>
        <time>2018-09-25T21:03:44.819Z</time>
      </trkpt>
      <trkpt lat="43.44114" lon="3.47074">
        <ele>71</ele>
        <time>2018-09-25T21:03:45.819Z</time>
      </trkpt>
      <trkpt lat="43.4411" lon="3.47069">
        <ele>70.9</ele>
        <time>2018-09-25T21:03:46.819Z</time>
      </trkpt>
      <trkpt lat="43.44106" lon="3.47064">
        <ele>70.8</ele>
        <time>2018-09-25T21:03:47.819Z</time>
      </trkpt>
      <trkpt lat="43.44102" lon="3.47061">
        <ele>70.8</ele>
        <time>2018-09-25T21:03:48.819Z</time>
      </trkpt>
      <trkpt lat="43.44098" lon="3.47057">
        <ele>70.7</ele>
        <time>2018-09-25T21:03:49.819Z</time>
      </trkpt>
      <trkpt lat="43.44094" lon="3.47053">
        <ele>70.6</ele>
        <time>2018-09-25T21:03:50.819Z</time>
      </trkpt>
      <trkpt lat="43.4409" lon="3.4705">
        <ele>70.5</ele>
        <time>2018-09-25T21:03:51.819Z</time>
      </trkpt>
      <trkpt lat="43.44086" lon="3.47046">
        <ele>70.4</ele>
        <time>2018-09-25T21:03:52.819Z</time>
      </trkpt>
      <trkpt lat="43.44082" lon="3.47043">
        <ele>70.3</ele>
        <time>2018-09-25T21:03:53.819Z</time>
      </trkpt>
      <trkpt lat="43.44077" lon="3.47039">
        <ele>70.2</ele>
        <time>2018-09-25T21:03:54.819Z</time>
      </trkpt>
      <trkpt lat="43.44073" lon="3.47035">
        <ele>70.1</ele>
        <time>2018-09-25T21:03:55.819Z</time>
      </trkpt>
      <trkpt lat="43.44068" lon="3.47031">
        <ele>70</ele>
        <time>2018-09-25T21:03:56.819Z</time>
      </trkpt>
      <trkpt lat="43.44064" lon="3.47027">
        <ele>69.9</ele>
        <time>2018-09-25T21:03:57.819Z</time>
      </trkpt>
      <trkpt lat="43.44059" lon="3.47024">
        <ele>69.9</ele>
        <time>2018-09-25T21:03:58.819Z</time>
      </trkpt>
      <trkpt lat="43.44055" lon="3.47021">
        <ele>69.8</ele>
        <time>2018-09-25T21:03:59.819Z</time>
      </trkpt>
      <trkpt lat="43.44051" lon="3.47019">
        <ele>69.8</ele>
        <time>2018-09-25T21:04:00.819Z</time>
      </trkpt>
      <trkpt lat="43.44047" lon="3.47016">
        <ele>69.7</ele>
        <time>2018-09-25T21:04:01.819Z</time>
      </trkpt>
      <trkpt lat="43.44043" lon="3.47014">
        <ele>69.6</ele>
        <time>2018-09-25T21:04:02.819Z</time>
      </trkpt>
      <trkpt lat="43.44039" lon="3.47011">
        <ele>69.6</ele>
        <time>2018-09-25T21:04:03.819Z</time>
      </trkpt>
      <trkpt lat="43.44036" lon="3.47008">
        <ele>69.5</ele>
        <time>2018-09-25T21:04:04.819Z</time>
      </trkpt>
      <trkpt lat="43.44033" lon="3.47006">
        <ele>69.4</ele>
        <time>2018-09-25T21:04:05.819Z</time>
      </trkpt>
      <trkpt lat="43.4403" lon="3.47003">
        <ele>69.4</ele>
        <time>2018-09-25T21:04:06.819Z</time>
      </trkpt>
      <trkpt lat="43.44027" lon="3.46999">
        <ele>69.3</ele>
        <time>2018-09-25T21:04:07.819Z</time>
      </trkpt>
      <trkpt lat="43.44025" lon="3.46995">
        <ele>69.2</ele>
        <time>2018-09-25T21:04:08.819Z</time>
      </trkpt>
      <trkpt lat="43.44022" lon="3.46991">
        <ele>69.1</ele>
        <time>2018-09-25T21:04:09.819Z</time>
      </trkpt>
      <trkpt lat="43.44019" lon="3.46987">
        <ele>69.1</ele>
        <time>2018-09-25T21:04:10.819Z</time>
      </trkpt>
      <trkpt lat="43.44017" lon="3.46982">
        <ele>69</ele>
        <time>2018-09-25T21:04:11.819Z</time>
      </trkpt>
      <trkpt lat="43.44014" lon="3.46977">
        <ele>68.9</ele>
        <time>2018-09-25T21:04:12.819Z</time>
      </trkpt>
      <trkpt lat="43.44011" lon="3.46972">
        <ele>68.9</ele>
        <time>2018-09-25T21:04:13.819Z</time>
      </trkpt>
      <trkpt lat="43.44009" lon="3.46968">
        <ele>68.8</ele>
        <time>2018-09-25T21:04:14.819Z</time>
      </trkpt>
      <trkpt lat="43.44007" lon="3.46964">
        <ele>68.7</ele>
        <time>2018-09-25T21:04:15.819Z</time>
      </trkpt>
      <trkpt lat="43.44005" lon="3.4696">
        <ele>68.7</ele>
        <time>2018-09-25T21:04:16.819Z</time>
      </trkpt>
      <trkpt lat="43.44003" lon="3.46956">
        <ele>68.6</ele>
        <time>2018-09-25T21:04:17.819Z</time>
      </trkpt>
      <trkpt lat="43.44" lon="3.46951">
        <ele>68.6</ele>
        <time>2018-09-25T21:04:18.819Z</time>
      </trkpt>
      <trkpt lat="43.43998" lon="3.46947">
        <ele>68.5</ele>
        <time>2018-09-25T21:04:19.819Z</time>
      </trkpt>
      <trkpt lat="43.43995" lon="3.46943">
        <ele>68.4</ele>
        <time>2018-09-25T21:04:20.819Z</time>
      </trkpt>
      <trkpt lat="43.43993" lon="3.46941">
        <ele>68.3</ele>
        <time>2018-09-25T21:04:21.819Z</time>
      </trkpt>
      <trkpt lat="43.4399" lon="3.46939">
        <ele>68.2</ele>
        <time>2018-09-25T21:04:22.819Z</time>
      </trkpt>
      <trkpt lat="43.43986" lon="3.46936">
        <ele>68</ele>
        <time>2018-09-25T21:04:24.819Z</time>
      </trkpt>
      <trkpt lat="43.43983" lon="3.46935">
        <ele>67.9</ele>
        <time>2018-09-25T21:04:25.819Z</time>
      </trkpt>
      <trkpt lat="43.4398" lon="3.46934">
        <ele>67.7</ele>
        <time>2018-09-25T21:04:26.819Z</time>
      </trkpt>
      <trkpt lat="43.43977" lon="3.46933">
        <ele>67.6</ele>
        <time>2018-09-25T21:04:27.819Z</time>
      </trkpt>
      <trkpt lat="43.43973" lon="3.46931">
        <ele>67.4</ele>
        <time>2018-09-25T21:04:28.819Z</time>
      </trkpt>
      <trkpt lat="43.4397" lon="3.46927">
        <ele>67.1</ele>
        <time>2018-09-25T21:04:29.819Z</time>
      </trkpt>
      <trkpt lat="43.43967" lon="3.46922">
        <ele>66.8</ele>
        <time>2018-09-25T21:04:30.819Z</time>
      </trkpt>
      <trkpt lat="43.43965" lon="3.46916">
        <ele>66.5</ele>
        <time>2018-09-25T21:04:31.819Z</time>
      </trkpt>
      <trkpt lat="43.43962" lon="3.46911">
        <ele>66.2</ele>
        <time>2018-09-25T21:04:32.819Z</time>
      </trkpt>
      <trkpt lat="43.43961" lon="3.46905">
        <ele>66</ele>
        <time>2018-09-25T21:04:33.819Z</time>
      </trkpt>
      <trkpt lat="43.4396" lon="3.46899">
        <ele>65.7</ele>
        <time>2018-09-25T21:04:34.819Z</time>
      </trkpt>
      <trkpt lat="43.4396" lon="3.46893">
        <ele>65.5</ele>
        <time>2018-09-25T21:04:35.819Z</time>
      </trkpt>
      <trkpt lat="43.43961" lon="3.46888">
        <ele>65.3</ele>
        <time>2018-09-25T21:04:36.819Z</time>
      </trkpt>
      <trkpt lat="43.43963" lon="3.46882">
        <ele>65.1</ele>
        <time>2018-09-25T21:04:37.819Z</time>
      </trkpt>
      <trkpt lat="43.43965" lon="3.46878">
        <ele>64.8</ele>
        <time>2018-09-25T21:04:38.819Z</time>
      </trkpt>
      <trkpt lat="43.43968" lon="3.46876">
        <ele>64.6</ele>
        <time>2018-09-25T21:04:39.819Z</time>
      </trkpt>
      <trkpt lat="43.43971" lon="3.46874">
        <ele>64.4</ele>
        <time>2018-09-25T21:04:40.819Z</time>
      </trkpt>
      <trkpt lat="43.43973" lon="3.46871">
        <ele>64.2</ele>
        <time>2018-09-25T21:04:41.819Z</time>
      </trkpt>
      <trkpt lat="43.43976" lon="3.46867">
        <ele>64</ele>
        <time>2018-09-25T21:04:42.819Z</time>
      </trkpt>
      <trkpt lat="43.43979" lon="3.46865">
        <ele>63.8</ele>
        <time>2018-09-25T21:04:43.819Z</time>
      </trkpt>
      <trkpt lat="43.43983" lon="3.46862">
        <ele>63.7</ele>
        <time>2018-09-25T21:04:44.819Z</time>
      </trkpt>
      <trkpt lat="43.43986" lon="3.46859">
        <ele>63.5</ele>
        <time>2018-09-25T21:04:45.819Z</time>
      </trkpt>
      <trkpt lat="43.43989" lon="3.46857">
        <ele>63.3</ele>
        <time>2018-09-25T21:04:46.819Z</time>
      </trkpt>
      <trkpt lat="43.43991" lon="3.46854">
        <ele>63.1</ele>
        <time>2018-09-25T21:04:47.819Z</time>
      </trkpt>
      <trkpt lat="43.43993" lon="3.46851">
        <ele>63</ele>
        <time>2018-09-25T21:04:48.819Z</time>
      </trkpt>
      <trkpt lat="43.43996" lon="3.46848">
        <ele>62.8</ele>
        <time>2018-09-25T21:04:49.819Z</time>
      </trkpt>
      <trkpt lat="43.43999" lon="3.46845">
        <ele>62.7</ele>
        <time>2018-09-25T21:04:50.819Z</time>
      </trkpt>
      <trkpt lat="43.44002" lon="3.46842">
        <ele>62.6</ele>
        <time>2018-09-25T21:04:51.819Z</time>
      </trkpt>
      <trkpt lat="43.44004" lon="3.46837">
        <ele>62.4</ele>
        <time>2018-09-25T21:04:52.819Z</time>
      </trkpt>
      <trkpt lat="43.44005" lon="3.46832">
        <ele>62.3</ele>
        <time>2018-09-25T21:04:53.819Z</time>
      </trkpt>
      <trkpt lat="43.44006" lon="3.46827">
        <ele>62.2</ele>
        <time>2018-09-25T21:04:54.819Z</time>
      </trkpt>
      <trkpt lat="43.44005" lon="3.46821">
        <ele>61.9</ele>
        <time>2018-09-25T21:04:55.819Z</time>
      </trkpt>
      <trkpt lat="43.44004" lon="3.46816">
        <ele>61.7</ele>
        <time>2018-09-25T21:04:56.819Z</time>
      </trkpt>
      <trkpt lat="43.44002" lon="3.46812">
        <ele>61.5</ele>
        <time>2018-09-25T21:04:57.819Z</time>
      </trkpt>
      <trkpt lat="43.43998" lon="3.4681">
        <ele>61.3</ele>
        <time>2018-09-25T21:04:58.819Z</time>
      </trkpt>
      <trkpt lat="43.43993" lon="3.46808">
        <ele>61</ele>
        <time>2018-09-25T21:04:59.819Z</time>
      </trkpt>
      <trkpt lat="43.43988" lon="3.46808">
        <ele>60.7</ele>
        <time>2018-09-25T21:05:00.819Z</time>
      </trkpt>
      <trkpt lat="43.43983" lon="3.46806">
        <ele>60.4</ele>
        <time>2018-09-25T21:05:01.819Z</time>
      </trkpt>
      <trkpt lat="43.43978" lon="3.46804">
        <ele>60.1</ele>
        <time>2018-09-25T21:05:02.819Z</time>
      </trkpt>
      <trkpt lat="43.43972" lon="3.46802">
        <ele>59.7</ele>
        <time>2018-09-25T21:05:03.819Z</time>
      </trkpt>
      <trkpt lat="43.43968" lon="3.46799">
        <ele>59.4</ele>
        <time>2018-09-25T21:05:04.819Z</time>
      </trkpt>
      <trkpt lat="43.43964" lon="3.46796">
        <ele>59</ele>
        <time>2018-09-25T21:05:05.819Z</time>
      </trkpt>
      <trkpt lat="43.43959" lon="3.46793">
        <ele>58.6</ele>
        <time>2018-09-25T21:05:06.819Z</time>
      </trkpt>
      <trkpt lat="43.43954" lon="3.4679">
        <ele>58.3</ele>
        <time>2018-09-25T21:05:07.819Z</time>
      </trkpt>
      <trkpt lat="43.43949" lon="3.46787">
        <ele>58</ele>
        <time>2018-09-25T21:05:08.819Z</time>
      </trkpt>
      <trkpt lat="43.43943" lon="3.46783">
        <ele>57.6</ele>
        <time>2018-09-25T21:05:09.819Z</time>
      </trkpt>
      <trkpt lat="43.43938" lon="3.46779">
        <ele>57.2</ele>
        <time>2018-09-25T21:05:10.819Z</time>
      </trkpt>
      <trkpt lat="43.43932" lon="3.46775">
        <ele>56.8</ele>
        <time>2018-09-25T21:05:11.819Z</time>
      </trkpt>
      <trkpt lat="43.43925" lon="3.46773">
        <ele>56.4</ele>
        <time>2018-09-25T21:05:12.819Z</time>
      </trkpt>
      <trkpt lat="43.43918" lon="3.46771">
        <ele>55.9</ele>
        <time>2018-09-25T21:05:13.819Z</time>
      </trkpt>
      <trkpt lat="43.4391" lon="3.46766">
        <ele>55.5</ele>
        <time>2018-09-25T21:05:14.819Z</time>
      </trkpt>
      <trkpt lat="43.43904" lon="3.46761">
        <ele>55.2</ele>
        <time>2018-09-25T21:05:15.819Z</time>
      </trkpt>
      <trkpt lat="43.43898" lon="3.46757">
        <ele>54.9</ele>
        <time>2018-09-25T21:05:16.819Z</time>
      </trkpt>
      <trkpt lat="43.43891" lon="3.46752">
        <ele>54.6</ele>
        <time>2018-09-25T21:05:17.819Z</time>
      </trkpt>
      <trkpt lat="43.43885" lon="3.46745">
        <ele>54.3</ele>
        <time>2018-09-25T21:05:18.819Z</time>
      </trkpt>
      <trkpt lat="43.43878" lon="3.46737">
        <ele>54</ele>
        <time>2018-09-25T21:05:19.819Z</time>
      </trkpt>
      <trkpt lat="43.43872" lon="3.46731">
        <ele>53.7</ele>
        <time>2018-09-25T21:05:20.819Z</time>
      </trkpt>
      <trkpt lat="43.43865" lon="3.46725">
        <ele>53.5</ele>
        <time>2018-09-25T21:05:21.819Z</time>
      </trkpt>
      <trkpt lat="43.43859" lon="3.46718">
        <ele>53.2</ele>
        <time>2018-09-25T21:05:22.819Z</time>
      </trkpt>
      <trkpt lat="43.43853" lon="3.46712">
        <ele>53</ele>
        <time>2018-09-25T21:05:23.819Z</time>
      </trkpt>
      <trkpt lat="43.43846" lon="3.46706">
        <ele>52.7</ele>
        <time>2018-09-25T21:05:24.819Z</time>
      </trkpt>
      <trkpt lat="43.4384" lon="3.46701">
        <ele>52.4</ele>
        <time>2018-09-25T21:05:25.819Z</time>
      </trkpt>
      <trkpt lat="43.43834" lon="3.46697">
        <ele>52.2</ele>
        <time>2018-09-25T21:05:26.819Z</time>
      </trkpt>
      <trkpt lat="43.43828" lon="3.46693">
        <ele>51.9</ele>
        <time>2018-09-25T21:05:27.819Z</time>
      </trkpt>
      <trkpt lat="43.43822" lon="3.46688">
        <ele>51.6</ele>
        <time>2018-09-25T21:05:28.819Z</time>
      </trkpt>
      <trkpt lat="43.43816" lon="3.46684">
        <ele>51.3</ele>
        <time>2018-09-25T21:05:29.819Z</time>
      </trkpt>
      <trkpt lat="43.43809" lon="3.4668">
        <ele>51.1</ele>
        <time>2018-09-25T21:05:30.819Z</time>
      </trkpt>
      <trkpt lat="43.43802" lon="3.46677">
        <ele>50.8</ele>
        <time>2018-09-25T21:05:31.819Z</time>
      </trkpt>
      <trkpt lat="43.43795" lon="3.46674">
        <ele>50.6</ele>
        <time>2018-09-25T21:05:32.819Z</time>
      </trkpt>
      <trkpt lat="43.4379" lon="3.46669">
        <ele>50.3</ele>
        <time>2018-09-25T21:05:33.819Z</time>
      </trkpt>
      <trkpt lat="43.43785" lon="3.46663">
        <ele>50.1</ele>
        <time>2018-09-25T21:05:34.819Z</time>
      </trkpt>
      <trkpt lat="43.43781" lon="3.46657">
        <ele>49.9</ele>
        <time>2018-09-25T21:05:35.819Z</time>
      </trkpt>
      <trkpt lat="43.43777" lon="3.46651">
        <ele>49.8</ele>
        <time>2018-09-25T21:05:36.819Z</time>
      </trkpt>
      <trkpt lat="43.43772" lon="3.46648">
        <ele>49.6</ele>
        <time>2018-09-25T21:05:37.819Z</time>
      </trkpt>
      <trkpt lat="43.43766" lon="3.46646">
        <ele>49.5</ele>
        <time>2018-09-25T21:05:38.819Z</time>
      </trkpt>
      <trkpt lat="43.4376" lon="3.46645">
        <ele>49.3</ele>
        <time>2018-09-25T21:05:39.819Z</time>
      </trkpt>
      <trkpt lat="43.43753" lon="3.46643">
        <ele>49.1</ele>
        <time>2018-09-25T21:05:40.819Z</time>
      </trkpt>
      <trkpt lat="43.43746" lon="3.46641">
        <ele>49</ele>
        <time>2018-09-25T21:05:41.819Z</time>
      </trkpt>
      <trkpt lat="43.43741" lon="3.46636">
        <ele>48.8</ele>
        <time>2018-09-25T21:05:42.819Z</time>
      </trkpt>
      <trkpt lat="43.43737" lon="3.4663">
        <ele>48.7</ele>
        <time>2018-09-25T21:05:43.819Z</time>
      </trkpt>
      <trkpt lat="43.43733" lon="3.46625">
        <ele>48.5</ele>
        <time>2018-09-25T21:05:44.819Z</time>
      </trkpt>
      <trkpt lat="43.4373" lon="3.4662">
        <ele>48.4</ele>
        <time>2018-09-25T21:05:45.819Z</time>
      </trkpt>
      <trkpt lat="43.43727" lon="3.46616">
        <ele>48.3</ele>
        <time>2018-09-25T21:05:46.819Z</time>
      </trkpt>
      <trkpt lat="43.43725" lon="3.46609">
        <ele>48.2</ele>
        <time>2018-09-25T21:05:48.819Z</time>
      </trkpt>
      <trkpt lat="43.43727" lon="3.46603">
        <ele>47.8</ele>
        <time>2018-09-25T21:05:50.819Z</time>
      </trkpt>
      <trkpt lat="43.43729" lon="3.46599">
        <ele>47.8</ele>
        <time>2018-09-25T21:05:51.819Z</time>
      </trkpt>
      <trkpt lat="43.4373" lon="3.46595">
        <ele>47.7</ele>
        <time>2018-09-25T21:05:52.819Z</time>
      </trkpt>
      <trkpt lat="43.43731" lon="3.46589">
        <ele>47.7</ele>
        <time>2018-09-25T21:05:53.819Z</time>
      </trkpt>
      <trkpt lat="43.43733" lon="3.46584">
        <ele>47.7</ele>
        <time>2018-09-25T21:05:54.819Z</time>
      </trkpt>
      <trkpt lat="43.43734" lon="3.46579">
        <ele>47.6</ele>
        <time>2018-09-25T21:05:55.819Z</time>
      </trkpt>
      <trkpt lat="43.43736" lon="3.46573">
        <ele>47.6</ele>
        <time>2018-09-25T21:05:56.819Z</time>
      </trkpt>
      <trkpt lat="43.43737" lon="3.46568">
        <ele>47.6</ele>
        <time>2018-09-25T21:05:57.819Z</time>
      </trkpt>
      <trkpt lat="43.43738" lon="3.46563">
        <ele>47.6</ele>
        <time>2018-09-25T21:05:58.819Z</time>
      </trkpt>
      <trkpt lat="43.43739" lon="3.46558">
        <ele>47.5</ele>
        <time>2018-09-25T21:05:59.819Z</time>
      </trkpt>
      <trkpt lat="43.4374" lon="3.46553">
        <ele>47.5</ele>
        <time>2018-09-25T21:06:00.819Z</time>
      </trkpt>
      <trkpt lat="43.43741" lon="3.46548">
        <ele>47.5</ele>
        <time>2018-09-25T21:06:01.819Z</time>
      </trkpt>
      <trkpt lat="43.43742" lon="3.46544">
        <ele>47.5</ele>
        <time>2018-09-25T21:06:02.819Z</time>
      </trkpt>
      <trkpt lat="43.43743" lon="3.4654">
        <ele>47.5</ele>
        <time>2018-09-25T21:06:03.819Z</time>
      </trkpt>
      <trkpt lat="43.43744" lon="3.46537">
        <ele>47.5</ele>
        <time>2018-09-25T21:06:04.819Z</time>
      </trkpt>
      <trkpt lat="43.43745" lon="3.46533">
        <ele>47.6</ele>
        <time>2018-09-25T21:06:05.819Z</time>
      </trkpt>
      <trkpt lat="43.43747" lon="3.46529">
        <ele>47.6</ele>
        <time>2018-09-25T21:06:06.819Z</time>
      </trkpt>
      <trkpt lat="43.43749" lon="3.46523">
        <ele>47.7</ele>
        <time>2018-09-25T21:06:08.819Z</time>
      </trkpt>
      <trkpt lat="43.43752" lon="3.46517">
        <ele>47.8</ele>
        <time>2018-09-25T21:06:10.819Z</time>
      </trkpt>
      <trkpt lat="43.43754" lon="3.46513">
        <ele>47.8</ele>
        <time>2018-09-25T21:06:11.819Z</time>
      </trkpt>
      <trkpt lat="43.43756" lon="3.46509">
        <ele>47.8</ele>
        <time>2018-09-25T21:06:12.819Z</time>
      </trkpt>
      <trkpt lat="43.43759" lon="3.46506">
        <ele>47.9</ele>
        <time>2018-09-25T21:06:13.819Z</time>
      </trkpt>
      <trkpt lat="43.43761" lon="3.46504">
        <ele>47.9</ele>
        <time>2018-09-25T21:06:14.819Z</time>
      </trkpt>
      <trkpt lat="43.43765" lon="3.465">
        <ele>48.1</ele>
        <time>2018-09-25T21:06:16.819Z</time>
      </trkpt>
      <trkpt lat="43.43768" lon="3.46494">
        <ele>48.2</ele>
        <time>2018-09-25T21:06:18.819Z</time>
      </trkpt>
      <trkpt lat="43.4377" lon="3.4649">
        <ele>48.3</ele>
        <time>2018-09-25T21:06:20.819Z</time>
      </trkpt>
      <trkpt lat="43.43772" lon="3.46487">
        <ele>48.4</ele>
        <time>2018-09-25T21:06:22.819Z</time>
      </trkpt>
      <trkpt lat="43.43776" lon="3.46481">
        <ele>48.5</ele>
        <time>2018-09-25T21:06:24.819Z</time>
      </trkpt>
      <trkpt lat="43.43778" lon="3.46475">
        <ele>48.8</ele>
        <time>2018-09-25T21:06:26.819Z</time>
      </trkpt>
      <trkpt lat="43.4378" lon="3.46468">
        <ele>49.2</ele>
        <time>2018-09-25T21:06:28.819Z</time>
      </trkpt>
      <trkpt lat="43.43782" lon="3.46464">
        <ele>49.3</ele>
        <time>2018-09-25T21:06:29.819Z</time>
      </trkpt>
      <trkpt lat="43.43783" lon="3.4646">
        <ele>49.4</ele>
        <time>2018-09-25T21:06:30.819Z</time>
      </trkpt>
      <trkpt lat="43.43785" lon="3.46455">
        <ele>49.6</ele>
        <time>2018-09-25T21:06:31.819Z</time>
      </trkpt>
      <trkpt lat="43.43787" lon="3.4645">
        <ele>49.7</ele>
        <time>2018-09-25T21:06:32.819Z</time>
      </trkpt>
      <trkpt lat="43.43789" lon="3.46445">
        <ele>49.8</ele>
        <time>2018-09-25T21:06:33.819Z</time>
      </trkpt>
      <trkpt lat="43.43791" lon="3.46442">
        <ele>50</ele>
        <time>2018-09-25T21:06:34.819Z</time>
      </trkpt>
      <trkpt lat="43.43793" lon="3.46437">
        <ele>50.1</ele>
        <time>2018-09-25T21:06:35.819Z</time>
      </trkpt>
      <trkpt lat="43.43796" lon="3.46432">
        <ele>50.2</ele>
        <time>2018-09-25T21:06:36.819Z</time>
      </trkpt>
      <trkpt lat="43.43798" lon="3.46427">
        <ele>50.2</ele>
        <time>2018-09-25T21:06:37.819Z</time>
      </trkpt>
      <trkpt lat="43.43799" lon="3.46422">
        <ele>50.3</ele>
        <time>2018-09-25T21:06:38.819Z</time>
      </trkpt>
      <trkpt lat="43.43801" lon="3.46417">
        <ele>50.4</ele>
        <time>2018-09-25T21:06:39.819Z</time>
      </trkpt>
      <trkpt lat="43.43804" lon="3.46414">
        <ele>50.5</ele>
        <time>2018-09-25T21:06:40.819Z</time>
      </trkpt>
      <trkpt lat="43.43807" lon="3.4641">
        <ele>50.6</ele>
        <time>2018-09-25T21:06:41.819Z</time>
      </trkpt>
      <trkpt lat="43.4381" lon="3.46406">
        <ele>50.6</ele>
        <time>2018-09-25T21:06:42.819Z</time>
      </trkpt>
      <trkpt lat="43.43813" lon="3.46402">
        <ele>50.7</ele>
        <time>2018-09-25T21:06:43.819Z</time>
      </trkpt>
      <trkpt lat="43.43817" lon="3.46399">
        <ele>50.8</ele>
        <time>2018-09-25T21:06:44.819Z</time>
      </trkpt>
      <trkpt lat="43.4382" lon="3.46396">
        <ele>50.9</ele>
        <time>2018-09-25T21:06:45.819Z</time>
      </trkpt>
      <trkpt lat="43.43823" lon="3.46394">
        <ele>51</ele>
        <time>2018-09-25T21:06:46.819Z</time>
      </trkpt>
      <trkpt lat="43.43826" lon="3.46392">
        <ele>51.2</ele>
        <time>2018-09-25T21:06:47.819Z</time>
      </trkpt>
      <trkpt lat="43.43828" lon="3.46389">
        <ele>51.3</ele>
        <time>2018-09-25T21:06:48.819Z</time>
      </trkpt>
      <trkpt lat="43.43831" lon="3.46386">
        <ele>51.4</ele>
        <time>2018-09-25T21:06:49.819Z</time>
      </trkpt>
      <trkpt lat="43.43833" lon="3.46382">
        <ele>51.5</ele>
        <time>2018-09-25T21:06:50.819Z</time>
      </trkpt>
      <trkpt lat="43.43835" lon="3.46376">
        <ele>51.6</ele>
        <time>2018-09-25T21:06:52.819Z</time>
      </trkpt>
      <trkpt lat="43.43837" lon="3.46369">
        <ele>51.8</ele>
        <time>2018-09-25T21:06:54.819Z</time>
      </trkpt>
      <trkpt lat="43.43839" lon="3.46365">
        <ele>52</ele>
        <time>2018-09-25T21:06:55.819Z</time>
      </trkpt>
      <trkpt lat="43.4384" lon="3.46362">
        <ele>51.5</ele>
        <time>2018-09-25T21:06:56.819Z</time>
      </trkpt>
      <trkpt lat="43.43841" lon="3.46357">
        <ele>50.9</ele>
        <time>2018-09-25T21:06:58.819Z</time>
      </trkpt>
      <trkpt lat="43.43841" lon="3.46353">
        <ele>50.5</ele>
        <time>2018-09-25T21:07:02.819Z</time>
      </trkpt>
      <trkpt lat="43.43842" lon="3.46348">
        <ele>50</ele>
        <time>2018-09-25T21:07:06.819Z</time>
      </trkpt>
      <trkpt lat="43.43842" lon="3.46341">
        <ele>49.4</ele>
        <time>2018-09-25T21:07:08.819Z</time>
      </trkpt>
      <trkpt lat="43.43841" lon="3.46335">
        <ele>48.8</ele>
        <time>2018-09-25T21:07:10.819Z</time>
      </trkpt>
      <trkpt lat="43.43839" lon="3.4633">
        <ele>48.3</ele>
        <time>2018-09-25T21:07:11.819Z</time>
      </trkpt>
      <trkpt lat="43.43838" lon="3.46326">
        <ele>48</ele>
        <time>2018-09-25T21:07:12.819Z</time>
      </trkpt>
      <trkpt lat="43.43838" lon="3.46322">
        <ele>47.9</ele>
        <time>2018-09-25T21:07:13.819Z</time>
      </trkpt>
      <trkpt lat="43.43839" lon="3.46316">
        <ele>47.7</ele>
        <time>2018-09-25T21:07:15.819Z</time>
      </trkpt>
      <trkpt lat="43.43842" lon="3.46314">
        <ele>47.6</ele>
        <time>2018-09-25T21:07:17.819Z</time>
      </trkpt>
      <trkpt lat="43.43846" lon="3.46308">
        <ele>47.3</ele>
        <time>2018-09-25T21:07:19.819Z</time>
      </trkpt>
      <trkpt lat="43.43848" lon="3.46304">
        <ele>47.1</ele>
        <time>2018-09-25T21:07:20.819Z</time>
      </trkpt>
      <trkpt lat="43.43851" lon="3.46301">
        <ele>46.8</ele>
        <time>2018-09-25T21:07:21.819Z</time>
      </trkpt>
      <trkpt lat="43.43853" lon="3.46298">
        <ele>46.6</ele>
        <time>2018-09-25T21:07:22.819Z</time>
      </trkpt>
      <trkpt lat="43.43856" lon="3.46295">
        <ele>46.4</ele>
        <time>2018-09-25T21:07:23.819Z</time>
      </trkpt>
      <trkpt lat="43.4386" lon="3.46292">
        <ele>46.3</ele>
        <time>2018-09-25T21:07:24.819Z</time>
      </trkpt>
      <trkpt lat="43.43864" lon="3.4629">
        <ele>46.2</ele>
        <time>2018-09-25T21:07:25.819Z</time>
      </trkpt>
      <trkpt lat="43.43867" lon="3.46286">
        <ele>46.1</ele>
        <time>2018-09-25T21:07:26.819Z</time>
      </trkpt>
      <trkpt lat="43.43871" lon="3.46282">
        <ele>46</ele>
        <time>2018-09-25T21:07:27.819Z</time>
      </trkpt>
      <trkpt lat="43.43874" lon="3.46277">
        <ele>46</ele>
        <time>2018-09-25T21:07:28.819Z</time>
      </trkpt>
      <trkpt lat="43.43876" lon="3.46273">
        <ele>46</ele>
        <time>2018-09-25T21:07:29.819Z</time>
      </trkpt>
      <trkpt lat="43.43878" lon="3.46269">
        <ele>45.9</ele>
        <time>2018-09-25T21:07:30.819Z</time>
      </trkpt>
      <trkpt lat="43.4388" lon="3.46265">
        <ele>45.9</ele>
        <time>2018-09-25T21:07:31.819Z</time>
      </trkpt>
      <trkpt lat="43.43882" lon="3.4626">
        <ele>45.9</ele>
        <time>2018-09-25T21:07:32.819Z</time>
      </trkpt>
      <trkpt lat="43.43885" lon="3.46255">
        <ele>45.9</ele>
        <time>2018-09-25T21:07:33.819Z</time>
      </trkpt>
      <trkpt lat="43.43888" lon="3.46249">
        <ele>45.9</ele>
        <time>2018-09-25T21:07:34.819Z</time>
      </trkpt>
      <trkpt lat="43.4389" lon="3.46242">
        <ele>45.9</ele>
        <time>2018-09-25T21:07:35.819Z</time>
      </trkpt>
      <trkpt lat="43.43892" lon="3.46236">
        <ele>45.9</ele>
        <time>2018-09-25T21:07:36.819Z</time>
      </trkpt>
      <trkpt lat="43.43894" lon="3.46229">
        <ele>45.9</ele>
        <time>2018-09-25T21:07:37.819Z</time>
      </trkpt>
      <trkpt lat="43.43896" lon="3.46221">
        <ele>45.9</ele>
        <time>2018-09-25T21:07:38.819Z</time>
      </trkpt>
      <trkpt lat="43.43899" lon="3.46214">
        <ele>45.9</ele>
        <time>2018-09-25T21:07:39.819Z</time>
      </trkpt>
      <trkpt lat="43.43902" lon="3.46208">
        <ele>45.9</ele>
        <time>2018-09-25T21:07:40.819Z</time>
      </trkpt>
      <trkpt lat="43.43906" lon="3.46201">
        <ele>45.9</ele>
        <time>2018-09-25T21:07:41.819Z</time>
      </trkpt>
      <trkpt lat="43.43909" lon="3.46193">
        <ele>45.9</ele>
        <time>2018-09-25T21:07:42.819Z</time>
      </trkpt>
      <trkpt lat="43.43912" lon="3.46186">
        <ele>46</ele>
        <time>2018-09-25T21:07:43.819Z</time>
      </trkpt>
      <trkpt lat="43.43915" lon="3.4618">
        <ele>46</ele>
        <time>2018-09-25T21:07:44.819Z</time>
      </trkpt>
      <trkpt lat="43.43918" lon="3.46173">
        <ele>46</ele>
        <time>2018-09-25T21:07:45.819Z</time>
      </trkpt>
      <trkpt lat="43.43921" lon="3.46166">
        <ele>46</ele>
        <time>2018-09-25T21:07:46.819Z</time>
      </trkpt>
      <trkpt lat="43.43924" lon="3.4616">
        <ele>46</ele>
        <time>2018-09-25T21:07:47.819Z</time>
      </trkpt>
      <trkpt lat="43.43927" lon="3.46155">
        <ele>46</ele>
        <time>2018-09-25T21:07:48.819Z</time>
      </trkpt>
      <trkpt lat="43.43931" lon="3.46151">
        <ele>46</ele>
        <time>2018-09-25T21:07:49.819Z</time>
      </trkpt>
      <trkpt lat="43.43934" lon="3.46148">
        <ele>46</ele>
        <time>2018-09-25T21:07:50.819Z</time>
      </trkpt>
      <trkpt lat="43.43937" lon="3.46146">
        <ele>46</ele>
        <time>2018-09-25T21:07:51.819Z</time>
      </trkpt>
      <trkpt lat="43.43939" lon="3.46142">
        <ele>46</ele>
        <time>2018-09-25T21:07:52.819Z</time>
      </trkpt>
      <trkpt lat="43.43939" lon="3.46136">
        <ele>46</ele>
        <time>2018-09-25T21:07:54.819Z</time>
      </trkpt>
      <trkpt lat="43.43938" lon="3.46132">
        <ele>46</ele>
        <time>2018-09-25T21:07:55.819Z</time>
      </trkpt>
      <trkpt lat="43.43938" lon="3.46128">
        <ele>46</ele>
        <time>2018-09-25T21:07:56.819Z</time>
      </trkpt>
      <trkpt lat="43.43939" lon="3.46124">
        <ele>46</ele>
        <time>2018-09-25T21:07:57.819Z</time>
      </trkpt>
      <trkpt lat="43.4394" lon="3.4612">
        <ele>46</ele>
        <time>2018-09-25T21:07:58.819Z</time>
      </trkpt>
      <trkpt lat="43.43939" lon="3.46114">
        <ele>46</ele>
        <time>2018-09-25T21:07:59.819Z</time>
      </trkpt>
      <trkpt lat="43.43938" lon="3.46108">
        <ele>46</ele>
        <time>2018-09-25T21:08:00.819Z</time>
      </trkpt>
      <trkpt lat="43.43938" lon="3.46102">
        <ele>46</ele>
        <time>2018-09-25T21:08:01.819Z</time>
      </trkpt>
      <trkpt lat="43.43939" lon="3.46096">
        <ele>46</ele>
        <time>2018-09-25T21:08:02.819Z</time>
      </trkpt>
      <trkpt lat="43.4394" lon="3.46089">
        <ele>46</ele>
        <time>2018-09-25T21:08:03.819Z</time>
      </trkpt>
      <trkpt lat="43.43941" lon="3.46083">
        <ele>46.1</ele>
        <time>2018-09-25T21:08:04.819Z</time>
      </trkpt>
      <trkpt lat="43.43942" lon="3.46077">
        <ele>46.1</ele>
        <time>2018-09-25T21:08:05.819Z</time>
      </trkpt>
      <trkpt lat="43.43944" lon="3.46071">
        <ele>46.2</ele>
        <time>2018-09-25T21:08:06.819Z</time>
      </trkpt>
      <trkpt lat="43.43945" lon="3.46065">
        <ele>46.2</ele>
        <time>2018-09-25T21:08:07.819Z</time>
      </trkpt>
      <trkpt lat="43.43946" lon="3.4606">
        <ele>46.3</ele>
        <time>2018-09-25T21:08:08.819Z</time>
      </trkpt>
      <trkpt lat="43.43947" lon="3.46054">
        <ele>46.5</ele>
        <time>2018-09-25T21:08:09.819Z</time>
      </trkpt>
      <trkpt lat="43.43948" lon="3.46048">
        <ele>46.7</ele>
        <time>2018-09-25T21:08:10.819Z</time>
      </trkpt>
      <trkpt lat="43.43949" lon="3.46043">
        <ele>46.9</ele>
        <time>2018-09-25T21:08:11.819Z</time>
      </trkpt>
      <trkpt lat="43.4395" lon="3.46038">
        <ele>47.2</ele>
        <time>2018-09-25T21:08:12.819Z</time>
      </trkpt>
      <trkpt lat="43.43952" lon="3.46033">
        <ele>47.5</ele>
        <time>2018-09-25T21:08:13.819Z</time>
      </trkpt>
      <trkpt lat="43.43953" lon="3.46027">
        <ele>47.8</ele>
        <time>2018-09-25T21:08:14.819Z</time>
      </trkpt>
      <trkpt lat="43.43955" lon="3.46023">
        <ele>48.1</ele>
        <time>2018-09-25T21:08:15.819Z</time>
      </trkpt>
      <trkpt lat="43.43957" lon="3.46017">
        <ele>48.5</ele>
        <time>2018-09-25T21:08:16.819Z</time>
      </trkpt>
      <trkpt lat="43.43959" lon="3.46012">
        <ele>48.9</ele>
        <time>2018-09-25T21:08:17.819Z</time>
      </trkpt>
      <trkpt lat="43.4396" lon="3.46007">
        <ele>49.2</ele>
        <time>2018-09-25T21:08:18.819Z</time>
      </trkpt>
      <trkpt lat="43.43961" lon="3.46001">
        <ele>49.4</ele>
        <time>2018-09-25T21:08:19.819Z</time>
      </trkpt>
      <trkpt lat="43.43963" lon="3.45996">
        <ele>49.5</ele>
        <time>2018-09-25T21:08:20.819Z</time>
      </trkpt>
      <trkpt lat="43.43964" lon="3.4599">
        <ele>49.7</ele>
        <time>2018-09-25T21:08:21.819Z</time>
      </trkpt>
      <trkpt lat="43.43965" lon="3.45986">
        <ele>49.8</ele>
        <time>2018-09-25T21:08:22.819Z</time>
      </trkpt>
      <trkpt lat="43.43966" lon="3.45982">
        <ele>49.9</ele>
        <time>2018-09-25T21:08:23.819Z</time>
      </trkpt>
      <trkpt lat="43.43967" lon="3.45978">
        <ele>50</ele>
        <time>2018-09-25T21:08:24.819Z</time>
      </trkpt>
      <trkpt lat="43.43969" lon="3.45973">
        <ele>50.1</ele>
        <time>2018-09-25T21:08:25.819Z</time>
      </trkpt>
      <trkpt lat="43.43971" lon="3.45969">
        <ele>50.3</ele>
        <time>2018-09-25T21:08:26.819Z</time>
      </trkpt>
      <trkpt lat="43.43972" lon="3.45964">
        <ele>50.6</ele>
        <time>2018-09-25T21:08:27.819Z</time>
      </trkpt>
      <trkpt lat="43.43974" lon="3.45959">
        <ele>50.8</ele>
        <time>2018-09-25T21:08:28.819Z</time>
      </trkpt>
      <trkpt lat="43.43975" lon="3.45955">
        <ele>51</ele>
        <time>2018-09-25T21:08:29.819Z</time>
      </trkpt>
      <trkpt lat="43.43976" lon="3.45951">
        <ele>51.3</ele>
        <time>2018-09-25T21:08:30.819Z</time>
      </trkpt>
      <trkpt lat="43.43978" lon="3.45946">
        <ele>51.5</ele>
        <time>2018-09-25T21:08:31.819Z</time>
      </trkpt>
      <trkpt lat="43.43979" lon="3.45942">
        <ele>51.7</ele>
        <time>2018-09-25T21:08:32.819Z</time>
      </trkpt>
      <trkpt lat="43.43981" lon="3.45937">
        <ele>52</ele>
        <time>2018-09-25T21:08:33.819Z</time>
      </trkpt>
      <trkpt lat="43.43982" lon="3.45933">
        <ele>52.2</ele>
        <time>2018-09-25T21:08:34.819Z</time>
      </trkpt>
      <trkpt lat="43.43984" lon="3.45928">
        <ele>52.4</ele>
        <time>2018-09-25T21:08:35.819Z</time>
      </trkpt>
      <trkpt lat="43.43986" lon="3.45922">
        <ele>52.7</ele>
        <time>2018-09-25T21:08:36.819Z</time>
      </trkpt>
      <trkpt lat="43.43987" lon="3.45918">
        <ele>52.9</ele>
        <time>2018-09-25T21:08:37.819Z</time>
      </trkpt>
      <trkpt lat="43.43989" lon="3.45913">
        <ele>53.1</ele>
        <time>2018-09-25T21:08:38.819Z</time>
      </trkpt>
      <trkpt lat="43.4399" lon="3.45909">
        <ele>53.2</ele>
        <time>2018-09-25T21:08:39.819Z</time>
      </trkpt>
      <trkpt lat="43.43992" lon="3.45905">
        <ele>53.4</ele>
        <time>2018-09-25T21:08:40.819Z</time>
      </trkpt>
      <trkpt lat="43.43993" lon="3.45901">
        <ele>53.6</ele>
        <time>2018-09-25T21:08:41.819Z</time>
      </trkpt>
      <trkpt lat="43.43995" lon="3.45895">
        <ele>53.8</ele>
        <time>2018-09-25T21:08:43.819Z</time>
      </trkpt>
      <trkpt lat="43.43997" lon="3.4589">
        <ele>53.9</ele>
        <time>2018-09-25T21:08:45.819Z</time>
      </trkpt>
      <trkpt lat="43.43998" lon="3.45884">
        <ele>54</ele>
        <time>2018-09-25T21:08:47.819Z</time>
      </trkpt>
      <trkpt lat="43.44" lon="3.45877">
        <ele>54.1</ele>
        <time>2018-09-25T21:08:49.819Z</time>
      </trkpt>
      <trkpt lat="43.44" lon="3.45873">
        <ele>54.1</ele>
        <time>2018-09-25T21:08:50.819Z</time>
      </trkpt>
      <trkpt lat="43.44002" lon="3.45869">
        <ele>54.2</ele>
        <time>2018-09-25T21:08:51.819Z</time>
      </trkpt>
      <trkpt lat="43.44003" lon="3.45866">
        <ele>54.3</ele>
        <time>2018-09-25T21:08:52.819Z</time>
      </trkpt>
      <trkpt lat="43.44004" lon="3.45858">
        <ele>54.4</ele>
        <time>2018-09-25T21:08:54.819Z</time>
      </trkpt>
      <trkpt lat="43.44005" lon="3.4585">
        <ele>54.5</ele>
        <time>2018-09-25T21:08:56.819Z</time>
      </trkpt>
      <trkpt lat="43.44006" lon="3.45844">
        <ele>54.5</ele>
        <time>2018-09-25T21:08:57.819Z</time>
      </trkpt>
      <trkpt lat="43.44006" lon="3.45838">
        <ele>54.5</ele>
        <time>2018-09-25T21:08:58.819Z</time>
      </trkpt>
      <trkpt lat="43.44005" lon="3.45831">
        <ele>54.6</ele>
        <time>2018-09-25T21:08:59.819Z</time>
      </trkpt>
      <trkpt lat="43.44005" lon="3.45826">
        <ele>54.6</ele>
        <time>2018-09-25T21:09:00.819Z</time>
      </trkpt>
      <trkpt lat="43.44005" lon="3.4582">
        <ele>54.6</ele>
        <time>2018-09-25T21:09:01.819Z</time>
      </trkpt>
      <trkpt lat="43.44005" lon="3.45814">
        <ele>54.7</ele>
        <time>2018-09-25T21:09:02.819Z</time>
      </trkpt>
      <trkpt lat="43.44005" lon="3.45808">
        <ele>54.7</ele>
        <time>2018-09-25T21:09:03.819Z</time>
      </trkpt>
      <trkpt lat="43.44006" lon="3.45802">
        <ele>54.7</ele>
        <time>2018-09-25T21:09:04.819Z</time>
      </trkpt>
      <trkpt lat="43.44007" lon="3.45796">
        <ele>54.8</ele>
        <time>2018-09-25T21:09:05.819Z</time>
      </trkpt>
      <trkpt lat="43.44008" lon="3.4579">
        <ele>54.8</ele>
        <time>2018-09-25T21:09:06.819Z</time>
      </trkpt>
      <trkpt lat="43.44009" lon="3.45784">
        <ele>54.8</ele>
        <time>2018-09-25T21:09:07.819Z</time>
      </trkpt>
      <trkpt lat="43.44011" lon="3.4578">
        <ele>54.8</ele>
        <time>2018-09-25T21:09:08.819Z</time>
      </trkpt>
      <trkpt lat="43.44012" lon="3.45775">
        <ele>54.8</ele>
        <time>2018-09-25T21:09:09.819Z</time>
      </trkpt>
      <trkpt lat="43.44014" lon="3.45771">
        <ele>54.8</ele>
        <time>2018-09-25T21:09:10.819Z</time>
      </trkpt>
      <trkpt lat="43.44016" lon="3.45766">
        <ele>54.8</ele>
        <time>2018-09-25T21:09:11.819Z</time>
      </trkpt>
      <trkpt lat="43.44017" lon="3.4576">
        <ele>54.9</ele>
        <time>2018-09-25T21:09:12.819Z</time>
      </trkpt>
      <trkpt lat="43.4402" lon="3.45755">
        <ele>54.9</ele>
        <time>2018-09-25T21:09:13.819Z</time>
      </trkpt>
      <trkpt lat="43.44022" lon="3.4575">
        <ele>54.9</ele>
        <time>2018-09-25T21:09:14.819Z</time>
      </trkpt>
      <trkpt lat="43.44023" lon="3.45746">
        <ele>54.9</ele>
        <time>2018-09-25T21:09:15.819Z</time>
      </trkpt>
      <trkpt lat="43.44023" lon="3.4574">
        <ele>54.9</ele>
        <time>2018-09-25T21:09:16.819Z</time>
      </trkpt>
      <trkpt lat="43.44025" lon="3.45736">
        <ele>55</ele>
        <time>2018-09-25T21:09:17.819Z</time>
      </trkpt>
      <trkpt lat="43.44026" lon="3.45732">
        <ele>55</ele>
        <time>2018-09-25T21:09:18.819Z</time>
      </trkpt>
      <trkpt lat="43.44028" lon="3.45727">
        <ele>55</ele>
        <time>2018-09-25T21:09:19.819Z</time>
      </trkpt>
      <trkpt lat="43.4403" lon="3.45722">
        <ele>55</ele>
        <time>2018-09-25T21:09:20.819Z</time>
      </trkpt>
      <trkpt lat="43.44032" lon="3.45716">
        <ele>55</ele>
        <time>2018-09-25T21:09:21.819Z</time>
      </trkpt>
      <trkpt lat="43.44034" lon="3.4571">
        <ele>55.1</ele>
        <time>2018-09-25T21:09:22.819Z</time>
      </trkpt>
      <trkpt lat="43.44038" lon="3.45704">
        <ele>55.1</ele>
        <time>2018-09-25T21:09:23.819Z</time>
      </trkpt>
      <trkpt lat="43.44041" lon="3.45699">
        <ele>55.1</ele>
        <time>2018-09-25T21:09:24.819Z</time>
      </trkpt>
      <trkpt lat="43.44045" lon="3.45696">
        <ele>55.1</ele>
        <time>2018-09-25T21:09:25.819Z</time>
      </trkpt>
      <trkpt lat="43.44045" lon="3.45691">
        <ele>55.1</ele>
        <time>2018-09-25T21:09:26.819Z</time>
      </trkpt>
      <trkpt lat="43.44042" lon="3.45687">
        <ele>55</ele>
        <time>2018-09-25T21:09:28.819Z</time>
      </trkpt>
      <trkpt lat="43.44037" lon="3.45685">
        <ele>53.4</ele>
        <time>2018-09-25T21:09:30.819Z</time>
      </trkpt>
      <trkpt lat="43.44034" lon="3.45684">
        <ele>53.2</ele>
        <time>2018-09-25T21:09:31.819Z</time>
      </trkpt>
      <trkpt lat="43.4403" lon="3.45683">
        <ele>53</ele>
        <time>2018-09-25T21:09:32.819Z</time>
      </trkpt>
      <trkpt lat="43.44025" lon="3.45683">
        <ele>52.8</ele>
        <time>2018-09-25T21:09:33.819Z</time>
      </trkpt>
      <trkpt lat="43.44019" lon="3.45682">
        <ele>52.4</ele>
        <time>2018-09-25T21:09:34.819Z</time>
      </trkpt>
      <trkpt lat="43.44013" lon="3.45677">
        <ele>52</ele>
        <time>2018-09-25T21:09:35.819Z</time>
      </trkpt>
      <trkpt lat="43.44008" lon="3.45671">
        <ele>51.7</ele>
        <time>2018-09-25T21:09:36.819Z</time>
      </trkpt>
      <trkpt lat="43.44005" lon="3.45662">
        <ele>51.4</ele>
        <time>2018-09-25T21:09:37.819Z</time>
      </trkpt>
      <trkpt lat="43.44002" lon="3.45652">
        <ele>51.1</ele>
        <time>2018-09-25T21:09:38.819Z</time>
      </trkpt>
      <trkpt lat="43.43998" lon="3.45643">
        <ele>50.7</ele>
        <time>2018-09-25T21:09:39.819Z</time>
      </trkpt>
      <trkpt lat="43.43994" lon="3.45635">
        <ele>50.4</ele>
        <time>2018-09-25T21:09:40.819Z</time>
      </trkpt>
      <trkpt lat="43.43988" lon="3.45628">
        <ele>50.1</ele>
        <time>2018-09-25T21:09:41.819Z</time>
      </trkpt>
      <trkpt lat="43.43982" lon="3.45622">
        <ele>49.9</ele>
        <time>2018-09-25T21:09:42.819Z</time>
      </trkpt>
      <trkpt lat="43.43976" lon="3.45616">
        <ele>49.6</ele>
        <time>2018-09-25T21:09:43.819Z</time>
      </trkpt>
      <trkpt lat="43.4397" lon="3.45609">
        <ele>49.4</ele>
        <time>2018-09-25T21:09:44.819Z</time>
      </trkpt>
      <trkpt lat="43.43964" lon="3.45602">
        <ele>49.3</ele>
        <time>2018-09-25T21:09:45.819Z</time>
      </trkpt>
      <trkpt lat="43.43958" lon="3.45595">
        <ele>49.1</ele>
        <time>2018-09-25T21:09:46.819Z</time>
      </trkpt>
      <trkpt lat="43.43953" lon="3.45588">
        <ele>48.9</ele>
        <time>2018-09-25T21:09:47.819Z</time>
      </trkpt>
      <trkpt lat="43.43948" lon="3.4558">
        <ele>48.8</ele>
        <time>2018-09-25T21:09:48.819Z</time>
      </trkpt>
      <trkpt lat="43.43943" lon="3.45573">
        <ele>48.5</ele>
        <time>2018-09-25T21:09:49.819Z</time>
      </trkpt>
      <trkpt lat="43.43937" lon="3.45566">
        <ele>48.2</ele>
        <time>2018-09-25T21:09:50.819Z</time>
      </trkpt>
      <trkpt lat="43.43931" lon="3.45559">
        <ele>47.8</ele>
        <time>2018-09-25T21:09:51.819Z</time>
      </trkpt>
      <trkpt lat="43.43923" lon="3.45552">
        <ele>47.3</ele>
        <time>2018-09-25T21:09:52.819Z</time>
      </trkpt>
      <trkpt lat="43.43917" lon="3.45547">
        <ele>46.8</ele>
        <time>2018-09-25T21:09:53.819Z</time>
      </trkpt>
      <trkpt lat="43.4391" lon="3.45542">
        <ele>46.2</ele>
        <time>2018-09-25T21:09:54.819Z</time>
      </trkpt>
      <trkpt lat="43.43902" lon="3.45537">
        <ele>45.6</ele>
        <time>2018-09-25T21:09:55.819Z</time>
      </trkpt>
      <trkpt lat="43.43895" lon="3.45532">
        <ele>45</ele>
        <time>2018-09-25T21:09:56.819Z</time>
      </trkpt>
      <trkpt lat="43.43888" lon="3.45525">
        <ele>44.4</ele>
        <time>2018-09-25T21:09:57.819Z</time>
      </trkpt>
      <trkpt lat="43.43881" lon="3.45519">
        <ele>43.9</ele>
        <time>2018-09-25T21:09:58.819Z</time>
      </trkpt>
      <trkpt lat="43.43874" lon="3.45512">
        <ele>43.5</ele>
        <time>2018-09-25T21:09:59.819Z</time>
      </trkpt>
      <trkpt lat="43.43867" lon="3.45505">
        <ele>43.2</ele>
        <time>2018-09-25T21:10:00.819Z</time>
      </trkpt>
      <trkpt lat="43.43861" lon="3.45498">
        <ele>42.9</ele>
        <time>2018-09-25T21:10:01.819Z</time>
      </trkpt>
      <trkpt lat="43.43854" lon="3.4549">
        <ele>42.6</ele>
        <time>2018-09-25T21:10:02.819Z</time>
      </trkpt>
      <trkpt lat="43.43848" lon="3.45484">
        <ele>42.4</ele>
        <time>2018-09-25T21:10:03.819Z</time>
      </trkpt>
      <trkpt lat="43.43841" lon="3.45477">
        <ele>42.1</ele>
        <time>2018-09-25T21:10:04.819Z</time>
      </trkpt>
      <trkpt lat="43.43835" lon="3.45469">
        <ele>41.7</ele>
        <time>2018-09-25T21:10:05.819Z</time>
      </trkpt>
      <trkpt lat="43.43831" lon="3.4546">
        <ele>41.4</ele>
        <time>2018-09-25T21:10:06.819Z</time>
      </trkpt>
      <trkpt lat="43.43827" lon="3.45451">
        <ele>41.2</ele>
        <time>2018-09-25T21:10:07.819Z</time>
      </trkpt>
      <trkpt lat="43.43823" lon="3.45443">
        <ele>41</ele>
        <time>2018-09-25T21:10:08.819Z</time>
      </trkpt>
      <trkpt lat="43.43822" lon="3.45434">
        <ele>40.8</ele>
        <time>2018-09-25T21:10:09.819Z</time>
      </trkpt>
      <trkpt lat="43.4382" lon="3.45424">
        <ele>40.7</ele>
        <time>2018-09-25T21:10:10.819Z</time>
      </trkpt>
      <trkpt lat="43.43819" lon="3.45415">
        <ele>40.5</ele>
        <time>2018-09-25T21:10:11.819Z</time>
      </trkpt>
      <trkpt lat="43.43817" lon="3.45406">
        <ele>40.3</ele>
        <time>2018-09-25T21:10:12.819Z</time>
      </trkpt>
      <trkpt lat="43.43814" lon="3.45399">
        <ele>40.1</ele>
        <time>2018-09-25T21:10:13.819Z</time>
      </trkpt>
      <trkpt lat="43.4381" lon="3.45391">
        <ele>39.8</ele>
        <time>2018-09-25T21:10:14.819Z</time>
      </trkpt>
      <trkpt lat="43.43807" lon="3.45382">
        <ele>39.5</ele>
        <time>2018-09-25T21:10:15.819Z</time>
      </trkpt>
      <trkpt lat="43.43803" lon="3.45374">
        <ele>39.2</ele>
        <time>2018-09-25T21:10:16.819Z</time>
      </trkpt>
      <trkpt lat="43.438" lon="3.45366">
        <ele>38.9</ele>
        <time>2018-09-25T21:10:17.819Z</time>
      </trkpt>
      <trkpt lat="43.43795" lon="3.45358">
        <ele>38.8</ele>
        <time>2018-09-25T21:10:18.819Z</time>
      </trkpt>
      <trkpt lat="43.43791" lon="3.45352">
        <ele>38.6</ele>
        <time>2018-09-25T21:10:19.819Z</time>
      </trkpt>
      <trkpt lat="43.43787" lon="3.45345">
        <ele>38.6</ele>
        <time>2018-09-25T21:10:20.819Z</time>
      </trkpt>
      <trkpt lat="43.43783" lon="3.45339">
        <ele>38.6</ele>
        <time>2018-09-25T21:10:21.819Z</time>
      </trkpt>
      <trkpt lat="43.43779" lon="3.45332">
        <ele>38.7</ele>
        <time>2018-09-25T21:10:22.819Z</time>
      </trkpt>
      <trkpt lat="43.43775" lon="3.45325">
        <ele>38.8</ele>
        <time>2018-09-25T21:10:23.819Z</time>
      </trkpt>
      <trkpt lat="43.43772" lon="3.45317">
        <ele>38.9</ele>
        <time>2018-09-25T21:10:24.819Z</time>
      </trkpt>
      <trkpt lat="43.43767" lon="3.45311">
        <ele>39.1</ele>
        <time>2018-09-25T21:10:25.819Z</time>
      </trkpt>
      <trkpt lat="43.4376" lon="3.45305">
        <ele>39.4</ele>
        <time>2018-09-25T21:10:26.819Z</time>
      </trkpt>
      <trkpt lat="43.43754" lon="3.453">
        <ele>39.7</ele>
        <time>2018-09-25T21:10:27.819Z</time>
      </trkpt>
      <trkpt lat="43.43749" lon="3.45292">
        <ele>39.9</ele>
        <time>2018-09-25T21:10:28.819Z</time>
      </trkpt>
      <trkpt lat="43.43747" lon="3.45283">
        <ele>39.9</ele>
        <time>2018-09-25T21:10:29.819Z</time>
      </trkpt>
      <trkpt lat="43.43746" lon="3.45273">
        <ele>39.8</ele>
        <time>2018-09-25T21:10:30.819Z</time>
      </trkpt>
      <trkpt lat="43.43744" lon="3.45263">
        <ele>39.7</ele>
        <time>2018-09-25T21:10:31.819Z</time>
      </trkpt>
      <trkpt lat="43.43742" lon="3.45253">
        <ele>39.6</ele>
        <time>2018-09-25T21:10:32.819Z</time>
      </trkpt>
      <trkpt lat="43.43741" lon="3.45243">
        <ele>39.5</ele>
        <time>2018-09-25T21:10:33.819Z</time>
      </trkpt>
      <trkpt lat="43.43741" lon="3.45234">
        <ele>39.4</ele>
        <time>2018-09-25T21:10:34.819Z</time>
      </trkpt>
      <trkpt lat="43.43741" lon="3.45227">
        <ele>39.3</ele>
        <time>2018-09-25T21:10:35.819Z</time>
      </trkpt>
      <trkpt lat="43.43741" lon="3.4522">
        <ele>39.2</ele>
        <time>2018-09-25T21:10:36.819Z</time>
      </trkpt>
      <trkpt lat="43.4374" lon="3.45215">
        <ele>39.1</ele>
        <time>2018-09-25T21:10:37.819Z</time>
      </trkpt>
      <trkpt lat="43.43738" lon="3.45212">
        <ele>39</ele>
        <time>2018-09-25T21:10:38.819Z</time>
      </trkpt>
      <trkpt lat="43.43735" lon="3.45211">
        <ele>39.1</ele>
        <time>2018-09-25T21:10:39.819Z</time>
      </trkpt>
      <trkpt lat="43.43732" lon="3.45211">
        <ele>39.2</ele>
        <time>2018-09-25T21:10:40.819Z</time>
      </trkpt>
      <trkpt lat="43.43728" lon="3.45212">
        <ele>39.3</ele>
        <time>2018-09-25T21:10:41.819Z</time>
      </trkpt>
      <trkpt lat="43.43725" lon="3.45213">
        <ele>39.4</ele>
        <time>2018-09-25T21:10:42.819Z</time>
      </trkpt>
      <trkpt lat="43.43721" lon="3.45214">
        <ele>39.5</ele>
        <time>2018-09-25T21:10:43.819Z</time>
      </trkpt>
      <trkpt lat="43.43718" lon="3.45215">
        <ele>39.6</ele>
        <time>2018-09-25T21:10:44.819Z</time>
      </trkpt>
      <trkpt lat="43.43714" lon="3.45217">
        <ele>39.7</ele>
        <time>2018-09-25T21:10:46.819Z</time>
      </trkpt>
      <trkpt lat="43.4371" lon="3.45217">
        <ele>39.8</ele>
        <time>2018-09-25T21:10:48.819Z</time>
      </trkpt>
      <trkpt lat="43.43706" lon="3.45217">
        <ele>40</ele>
        <time>2018-09-25T21:10:56.819Z</time>
      </trkpt>
      <trkpt lat="43.43705" lon="3.45213">
        <ele>40.2</ele>
        <time>2018-09-25T21:16:28.819Z</time>
      </trkpt>
      <trkpt lat="43.43704" lon="3.45208">
        <ele>40.3</ele>
        <time>2018-09-25T21:16:37.819Z</time>
      </trkpt>
      <trkpt lat="43.43703" lon="3.45204">
        <ele>40.4</ele>
        <time>2018-09-25T21:16:38.819Z</time>
      </trkpt>
      <trkpt lat="43.43702" lon="3.45199">
        <ele>40.6</ele>
        <time>2018-09-25T21:16:39.819Z</time>
      </trkpt>
      <trkpt lat="43.43701" lon="3.45195">
        <ele>40.7</ele>
        <time>2018-09-25T21:16:40.819Z</time>
      </trkpt>
      <trkpt lat="43.437" lon="3.45191">
        <ele>40.8</ele>
        <time>2018-09-25T21:16:41.819Z</time>
      </trkpt>
      <trkpt lat="43.437" lon="3.45187">
        <ele>40.9</ele>
        <time>2018-09-25T21:16:42.819Z</time>
      </trkpt>
      <trkpt lat="43.437" lon="3.45182">
        <ele>41.1</ele>
        <time>2018-09-25T21:16:44.819Z</time>
      </trkpt>
      <trkpt lat="43.43698" lon="3.45177">
        <ele>41.3</ele>
        <time>2018-09-25T21:16:46.819Z</time>
      </trkpt>
      <trkpt lat="43.43697" lon="3.4517">
        <ele>41.5</ele>
        <time>2018-09-25T21:16:48.819Z</time>
      </trkpt>
      <trkpt lat="43.43696" lon="3.45166">
        <ele>41.6</ele>
        <time>2018-09-25T21:16:49.819Z</time>
      </trkpt>
      <trkpt lat="43.43693" lon="3.45162">
        <ele>41.8</ele>
        <time>2018-09-25T21:16:51.819Z</time>
      </trkpt>
      <trkpt lat="43.4369" lon="3.45156">
        <ele>42</ele>
        <time>2018-09-25T21:16:53.819Z</time>
      </trkpt>
      <trkpt lat="43.43688" lon="3.45151">
        <ele>42.1</ele>
        <time>2018-09-25T21:16:55.819Z</time>
      </trkpt>
      <trkpt lat="43.43686" lon="3.45148">
        <ele>42.2</ele>
        <time>2018-09-25T21:16:56.819Z</time>
      </trkpt>
      <trkpt lat="43.43685" lon="3.45143">
        <ele>42.4</ele>
        <time>2018-09-25T21:16:58.819Z</time>
      </trkpt>
      <trkpt lat="43.43684" lon="3.45137">
        <ele>42.6</ele>
        <time>2018-09-25T21:17:00.819Z</time>
      </trkpt>
      <trkpt lat="43.43683" lon="3.45132">
        <ele>42.7</ele>
        <time>2018-09-25T21:17:02.819Z</time>
      </trkpt>
      <trkpt lat="43.4368" lon="3.45126">
        <ele>42.8</ele>
        <time>2018-09-25T21:17:04.819Z</time>
      </trkpt>
      <trkpt lat="43.43677" lon="3.45121">
        <ele>43</ele>
        <time>2018-09-25T21:17:06.819Z</time>
      </trkpt>
      <trkpt lat="43.43672" lon="3.45118">
        <ele>43.1</ele>
        <time>2018-09-25T21:17:08.819Z</time>
      </trkpt>
      <trkpt lat="43.43668" lon="3.45115">
        <ele>43.2</ele>
        <time>2018-09-25T21:17:10.819Z</time>
      </trkpt>
      <trkpt lat="43.43663" lon="3.45112">
        <ele>43.3</ele>
        <time>2018-09-25T21:17:12.819Z</time>
      </trkpt>
      <trkpt lat="43.43658" lon="3.4511">
        <ele>43.4</ele>
        <time>2018-09-25T21:17:14.819Z</time>
      </trkpt>
      <trkpt lat="43.43655" lon="3.45109">
        <ele>43.5</ele>
        <time>2018-09-25T21:17:15.819Z</time>
      </trkpt>
      <trkpt lat="43.43651" lon="3.45108">
        <ele>43.5</ele>
        <time>2018-09-25T21:17:16.819Z</time>
      </trkpt>
      <trkpt lat="43.43647" lon="3.45108">
        <ele>43.6</ele>
        <time>2018-09-25T21:17:17.819Z</time>
      </trkpt>
      <trkpt lat="43.43643" lon="3.45108">
        <ele>43.6</ele>
        <time>2018-09-25T21:17:18.819Z</time>
      </trkpt>
      <trkpt lat="43.43639" lon="3.45109">
        <ele>43.6</ele>
        <time>2018-09-25T21:17:19.819Z</time>
      </trkpt>
      <trkpt lat="43.43635" lon="3.4511">
        <ele>43.6</ele>
        <time>2018-09-25T21:17:20.819Z</time>
      </trkpt>
      <trkpt lat="43.43632" lon="3.45111">
        <ele>43.6</ele>
        <time>2018-09-25T21:17:21.819Z</time>
      </trkpt>
      <trkpt lat="43.43626" lon="3.45113">
        <ele>43.6</ele>
        <time>2018-09-25T21:17:23.819Z</time>
      </trkpt>
      <trkpt lat="43.43621" lon="3.45116">
        <ele>43.5</ele>
        <time>2018-09-25T21:17:25.819Z</time>
      </trkpt>
      <trkpt lat="43.43617" lon="3.45117">
        <ele>43.5</ele>
        <time>2018-09-25T21:17:26.819Z</time>
      </trkpt>
      <trkpt lat="43.43613" lon="3.45115">
        <ele>43.5</ele>
        <time>2018-09-25T21:17:27.819Z</time>
      </trkpt>
      <trkpt lat="43.4361" lon="3.45113">
        <ele>43.4</ele>
        <time>2018-09-25T21:17:28.819Z</time>
      </trkpt>
      <trkpt lat="43.43607" lon="3.4511">
        <ele>43.2</ele>
        <time>2018-09-25T21:17:29.819Z</time>
      </trkpt>
      <trkpt lat="43.43605" lon="3.45106">
        <ele>43.1</ele>
        <time>2018-09-25T21:17:30.819Z</time>
      </trkpt>
      <trkpt lat="43.43604" lon="3.45101">
        <ele>43</ele>
        <time>2018-09-25T21:17:31.819Z</time>
      </trkpt>
      <trkpt lat="43.43603" lon="3.45097">
        <ele>42.8</ele>
        <time>2018-09-25T21:17:32.819Z</time>
      </trkpt>
      <trkpt lat="43.43601" lon="3.45093">
        <ele>42.6</ele>
        <time>2018-09-25T21:17:33.819Z</time>
      </trkpt>
      <trkpt lat="43.43598" lon="3.45089">
        <ele>42.5</ele>
        <time>2018-09-25T21:17:34.819Z</time>
      </trkpt>
      <trkpt lat="43.43596" lon="3.45087">
        <ele>42.4</ele>
        <time>2018-09-25T21:17:35.819Z</time>
      </trkpt>
      <trkpt lat="43.43591" lon="3.45081">
        <ele>42.1</ele>
        <time>2018-09-25T21:17:37.819Z</time>
      </trkpt>
      <trkpt lat="43.43589" lon="3.45079">
        <ele>42</ele>
        <time>2018-09-25T21:17:38.819Z</time>
      </trkpt>
      <trkpt lat="43.43586" lon="3.45075">
        <ele>41.8</ele>
        <time>2018-09-25T21:17:39.819Z</time>
      </trkpt>
      <trkpt lat="43.43583" lon="3.45071">
        <ele>41.5</ele>
        <time>2018-09-25T21:17:40.819Z</time>
      </trkpt>
      <trkpt lat="43.4358" lon="3.45068">
        <ele>41.2</ele>
        <time>2018-09-25T21:17:41.819Z</time>
      </trkpt>
      <trkpt lat="43.43576" lon="3.45065">
        <ele>41</ele>
        <time>2018-09-25T21:17:42.819Z</time>
      </trkpt>
      <trkpt lat="43.43573" lon="3.45061">
        <ele>40.8</ele>
        <time>2018-09-25T21:17:43.819Z</time>
      </trkpt>
      <trkpt lat="43.4357" lon="3.45055">
        <ele>40.6</ele>
        <time>2018-09-25T21:17:44.819Z</time>
      </trkpt>
      <trkpt lat="43.43566" lon="3.45051">
        <ele>40.5</ele>
        <time>2018-09-25T21:17:45.819Z</time>
      </trkpt>
      <trkpt lat="43.43561" lon="3.45048">
        <ele>40.3</ele>
        <time>2018-09-25T21:17:46.819Z</time>
      </trkpt>
      <trkpt lat="43.43557" lon="3.45046">
        <ele>40.2</ele>
        <time>2018-09-25T21:17:47.819Z</time>
      </trkpt>
      <trkpt lat="43.43553" lon="3.45044">
        <ele>40</ele>
        <time>2018-09-25T21:17:48.819Z</time>
      </trkpt>
      <trkpt lat="43.43549" lon="3.45041">
        <ele>40</ele>
        <time>2018-09-25T21:17:49.819Z</time>
      </trkpt>
      <trkpt lat="43.43545" lon="3.45038">
        <ele>40</ele>
        <time>2018-09-25T21:17:50.819Z</time>
      </trkpt>
      <trkpt lat="43.43541" lon="3.45035">
        <ele>40</ele>
        <time>2018-09-25T21:17:51.819Z</time>
      </trkpt>
      <trkpt lat="43.43536" lon="3.45032">
        <ele>40</ele>
        <time>2018-09-25T21:17:52.819Z</time>
      </trkpt>
      <trkpt lat="43.43533" lon="3.45027">
        <ele>40</ele>
        <time>2018-09-25T21:17:53.819Z</time>
      </trkpt>
      <trkpt lat="43.43531" lon="3.45021">
        <ele>39.8</ele>
        <time>2018-09-25T21:17:54.819Z</time>
      </trkpt>
      <trkpt lat="43.43531" lon="3.45014">
        <ele>39.5</ele>
        <time>2018-09-25T21:17:55.819Z</time>
      </trkpt>
      <trkpt lat="43.43532" lon="3.45007">
        <ele>39.1</ele>
        <time>2018-09-25T21:17:56.819Z</time>
      </trkpt>
      <trkpt lat="43.43533" lon="3.45001">
        <ele>38.9</ele>
        <time>2018-09-25T21:17:57.819Z</time>
      </trkpt>
      <trkpt lat="43.43533" lon="3.44994">
        <ele>38.6</ele>
        <time>2018-09-25T21:17:58.819Z</time>
      </trkpt>
      <trkpt lat="43.43533" lon="3.44986">
        <ele>38.4</ele>
        <time>2018-09-25T21:17:59.819Z</time>
      </trkpt>
      <trkpt lat="43.43533" lon="3.44979">
        <ele>38.2</ele>
        <time>2018-09-25T21:18:00.819Z</time>
      </trkpt>
      <trkpt lat="43.43533" lon="3.44971">
        <ele>38.1</ele>
        <time>2018-09-25T21:18:01.819Z</time>
      </trkpt>
      <trkpt lat="43.43534" lon="3.44963">
        <ele>38</ele>
        <time>2018-09-25T21:18:02.819Z</time>
      </trkpt>
      <trkpt lat="43.43534" lon="3.44957">
        <ele>37.9</ele>
        <time>2018-09-25T21:18:03.819Z</time>
      </trkpt>
      <trkpt lat="43.43534" lon="3.4495">
        <ele>37.9</ele>
        <time>2018-09-25T21:18:04.819Z</time>
      </trkpt>
      <trkpt lat="43.43534" lon="3.44943">
        <ele>37.9</ele>
        <time>2018-09-25T21:18:05.819Z</time>
      </trkpt>
      <trkpt lat="43.43535" lon="3.44936">
        <ele>37.8</ele>
        <time>2018-09-25T21:18:06.819Z</time>
      </trkpt>
      <trkpt lat="43.43534" lon="3.4493">
        <ele>37.8</ele>
        <time>2018-09-25T21:18:07.819Z</time>
      </trkpt>
      <trkpt lat="43.43535" lon="3.44924">
        <ele>37.8</ele>
        <time>2018-09-25T21:18:08.819Z</time>
      </trkpt>
      <trkpt lat="43.43534" lon="3.44917">
        <ele>37.7</ele>
        <time>2018-09-25T21:18:09.819Z</time>
      </trkpt>
      <trkpt lat="43.43535" lon="3.44911">
        <ele>37.7</ele>
        <time>2018-09-25T21:18:10.819Z</time>
      </trkpt>
      <trkpt lat="43.43535" lon="3.44904">
        <ele>37.6</ele>
        <time>2018-09-25T21:18:11.819Z</time>
      </trkpt>
      <trkpt lat="43.43535" lon="3.44897">
        <ele>37.6</ele>
        <time>2018-09-25T21:18:12.819Z</time>
      </trkpt>
      <trkpt lat="43.43535" lon="3.4489">
        <ele>37.5</ele>
        <time>2018-09-25T21:18:13.819Z</time>
      </trkpt>
      <trkpt lat="43.43536" lon="3.44882">
        <ele>37.4</ele>
        <time>2018-09-25T21:18:14.819Z</time>
      </trkpt>
      <trkpt lat="43.43537" lon="3.44875">
        <ele>37.2</ele>
        <time>2018-09-25T21:18:15.819Z</time>
      </trkpt>
      <trkpt lat="43.43538" lon="3.44869">
        <ele>37.1</ele>
        <time>2018-09-25T21:18:16.819Z</time>
      </trkpt>
      <trkpt lat="43.43539" lon="3.44862">
        <ele>36.9</ele>
        <time>2018-09-25T21:18:17.819Z</time>
      </trkpt>
      <trkpt lat="43.43539" lon="3.44856">
        <ele>36.8</ele>
        <time>2018-09-25T21:18:18.819Z</time>
      </trkpt>
      <trkpt lat="43.43542" lon="3.4485">
        <ele>36.6</ele>
        <time>2018-09-25T21:18:19.819Z</time>
      </trkpt>
      <trkpt lat="43.43544" lon="3.44844">
        <ele>36.6</ele>
        <time>2018-09-25T21:18:20.819Z</time>
      </trkpt>
      <trkpt lat="43.43547" lon="3.4484">
        <ele>36.5</ele>
        <time>2018-09-25T21:18:21.819Z</time>
      </trkpt>
      <trkpt lat="43.43549" lon="3.44834">
        <ele>36.5</ele>
        <time>2018-09-25T21:18:22.819Z</time>
      </trkpt>
      <trkpt lat="43.43549" lon="3.44828">
        <ele>36.5</ele>
        <time>2018-09-25T21:18:23.819Z</time>
      </trkpt>
      <trkpt lat="43.4355" lon="3.44822">
        <ele>36.4</ele>
        <time>2018-09-25T21:18:24.819Z</time>
      </trkpt>
      <trkpt lat="43.43551" lon="3.44816">
        <ele>36.4</ele>
        <time>2018-09-25T21:18:25.819Z</time>
      </trkpt>
      <trkpt lat="43.43552" lon="3.4481">
        <ele>36.3</ele>
        <time>2018-09-25T21:18:26.819Z</time>
      </trkpt>
      <trkpt lat="43.43553" lon="3.44804">
        <ele>36.3</ele>
        <time>2018-09-25T21:18:27.819Z</time>
      </trkpt>
      <trkpt lat="43.43553" lon="3.44798">
        <ele>36.2</ele>
        <time>2018-09-25T21:18:28.819Z</time>
      </trkpt>
      <trkpt lat="43.43553" lon="3.44794">
        <ele>36.2</ele>
        <time>2018-09-25T21:18:29.819Z</time>
      </trkpt>
      <trkpt lat="43.43553" lon="3.44788">
        <ele>36.1</ele>
        <time>2018-09-25T21:18:31.819Z</time>
      </trkpt>
      <trkpt lat="43.43554" lon="3.44784">
        <ele>36.1</ele>
        <time>2018-09-25T21:18:32.819Z</time>
      </trkpt>
      <trkpt lat="43.43555" lon="3.4478">
        <ele>36</ele>
        <time>2018-09-25T21:18:33.819Z</time>
      </trkpt>
      <trkpt lat="43.43555" lon="3.44776">
        <ele>36</ele>
        <time>2018-09-25T21:18:34.819Z</time>
      </trkpt>
      <trkpt lat="43.43555" lon="3.44771">
        <ele>35.9</ele>
        <time>2018-09-25T21:18:36.819Z</time>
      </trkpt>
      <trkpt lat="43.43553" lon="3.44764">
        <ele>35.8</ele>
        <time>2018-09-25T21:18:38.819Z</time>
      </trkpt>
      <trkpt lat="43.43552" lon="3.44757">
        <ele>35.5</ele>
        <time>2018-09-25T21:18:40.819Z</time>
      </trkpt>
      <trkpt lat="43.43553" lon="3.44751">
        <ele>35.3</ele>
        <time>2018-09-25T21:18:46.819Z</time>
      </trkpt>
      <trkpt lat="43.43554" lon="3.44747">
        <ele>35.1</ele>
        <time>2018-09-25T21:18:53.819Z</time>
      </trkpt>
      <trkpt lat="43.43557" lon="3.44744">
        <ele>35</ele>
        <time>2018-09-25T21:18:57.819Z</time>
      </trkpt>
      <trkpt lat="43.43558" lon="3.4474">
        <ele>34.8</ele>
        <time>2018-09-25T21:19:03.819Z</time>
      </trkpt>
      <trkpt lat="43.4356" lon="3.44731">
        <ele>34.5</ele>
        <time>2018-09-25T21:19:05.819Z</time>
      </trkpt>
      <trkpt lat="43.43562" lon="3.44727">
        <ele>34.4</ele>
        <time>2018-09-25T21:19:06.819Z</time>
      </trkpt>
      <trkpt lat="43.43563" lon="3.44723">
        <ele>34.1</ele>
        <time>2018-09-25T21:19:07.819Z</time>
      </trkpt>
      <trkpt lat="43.43565" lon="3.4472">
        <ele>33.9</ele>
        <time>2018-09-25T21:19:08.819Z</time>
      </trkpt>
      <trkpt lat="43.43567" lon="3.44716">
        <ele>33.7</ele>
        <time>2018-09-25T21:19:09.819Z</time>
      </trkpt>
      <trkpt lat="43.43569" lon="3.44713">
        <ele>33.5</ele>
        <time>2018-09-25T21:19:10.819Z</time>
      </trkpt>
      <trkpt lat="43.43569" lon="3.44708">
        <ele>33.3</ele>
        <time>2018-09-25T21:19:12.819Z</time>
      </trkpt>
      <trkpt lat="43.43569" lon="3.44703">
        <ele>33.2</ele>
        <time>2018-09-25T21:19:14.819Z</time>
      </trkpt>
      <trkpt lat="43.43569" lon="3.44699">
        <ele>33.1</ele>
        <time>2018-09-25T21:19:16.819Z</time>
      </trkpt>
      <trkpt lat="43.43567" lon="3.44694">
        <ele>33</ele>
        <time>2018-09-25T21:19:18.819Z</time>
      </trkpt>
      <trkpt lat="43.43567" lon="3.44689">
        <ele>32.8</ele>
        <time>2018-09-25T21:19:21.819Z</time>
      </trkpt>
      <trkpt lat="43.43569" lon="3.44686">
        <ele>32.6</ele>
        <time>2018-09-25T21:19:23.819Z</time>
      </trkpt>
      <trkpt lat="43.43572" lon="3.4468">
        <ele>32.4</ele>
        <time>2018-09-25T21:19:25.819Z</time>
      </trkpt>
      <trkpt lat="43.43575" lon="3.44677">
        <ele>32.3</ele>
        <time>2018-09-25T21:19:26.819Z</time>
      </trkpt>
      <trkpt lat="43.43577" lon="3.44674">
        <ele>32.2</ele>
        <time>2018-09-25T21:19:27.819Z</time>
      </trkpt>
      <trkpt lat="43.43579" lon="3.44671">
        <ele>32.1</ele>
        <time>2018-09-25T21:19:28.819Z</time>
      </trkpt>
      <trkpt lat="43.43582" lon="3.44669">
        <ele>31.9</ele>
        <time>2018-09-25T21:19:29.819Z</time>
      </trkpt>
      <trkpt lat="43.43584" lon="3.44666">
        <ele>31.9</ele>
        <time>2018-09-25T21:19:30.819Z</time>
      </trkpt>
      <trkpt lat="43.43587" lon="3.44663">
        <ele>31.8</ele>
        <time>2018-09-25T21:19:31.819Z</time>
      </trkpt>
      <trkpt lat="43.43589" lon="3.44659">
        <ele>31.7</ele>
        <time>2018-09-25T21:19:32.819Z</time>
      </trkpt>
      <trkpt lat="43.43592" lon="3.44656">
        <ele>31.6</ele>
        <time>2018-09-25T21:19:34.819Z</time>
      </trkpt>
      <trkpt lat="43.43592" lon="3.44652">
        <ele>31.5</ele>
        <time>2018-09-25T21:19:38.819Z</time>
      </trkpt>
      <trkpt lat="43.43596" lon="3.44649">
        <ele>31.5</ele>
        <time>2018-09-25T21:19:43.819Z</time>
      </trkpt>
      <trkpt lat="43.43596" lon="3.44645">
        <ele>31.4</ele>
        <time>2018-09-25T21:19:45.819Z</time>
      </trkpt>
      <trkpt lat="43.43596" lon="3.44639">
        <ele>31.4</ele>
        <time>2018-09-25T21:19:49.819Z</time>
      </trkpt>
      <trkpt lat="43.43597" lon="3.44634">
        <ele>31.4</ele>
        <time>2018-09-25T21:19:50.819Z</time>
      </trkpt>
      <trkpt lat="43.43597" lon="3.44629">
        <ele>31.4</ele>
        <time>2018-09-25T21:19:51.819Z</time>
      </trkpt>
      <trkpt lat="43.43596" lon="3.44624">
        <ele>31.2</ele>
        <time>2018-09-25T21:19:52.819Z</time>
      </trkpt>
      <trkpt lat="43.43597" lon="3.44619">
        <ele>31.2</ele>
        <time>2018-09-25T21:19:54.819Z</time>
      </trkpt>
      <trkpt lat="43.43598" lon="3.44615">
        <ele>31.1</ele>
        <time>2018-09-25T21:19:59.819Z</time>
      </trkpt>
      <trkpt lat="43.43601" lon="3.44613">
        <ele>31.1</ele>
        <time>2018-09-25T21:20:01.819Z</time>
      </trkpt>
      <trkpt lat="43.43604" lon="3.4461">
        <ele>31.2</ele>
        <time>2018-09-25T21:20:03.819Z</time>
      </trkpt>
      <trkpt lat="43.43605" lon="3.44606">
        <ele>31.1</ele>
        <time>2018-09-25T21:20:05.819Z</time>
      </trkpt>
      <trkpt lat="43.43606" lon="3.446">
        <ele>31.2</ele>
        <time>2018-09-25T21:20:10.819Z</time>
      </trkpt>
      <trkpt lat="43.43608" lon="3.44596">
        <ele>31.1</ele>
        <time>2018-09-25T21:20:13.819Z</time>
      </trkpt>
      <trkpt lat="43.43612" lon="3.44594">
        <ele>31.2</ele>
        <time>2018-09-25T21:20:16.819Z</time>
      </trkpt>
      <trkpt lat="43.43615" lon="3.44592">
        <ele>31.4</ele>
        <time>2018-09-25T21:20:18.819Z</time>
      </trkpt>
      <trkpt lat="43.43617" lon="3.44587">
        <ele>31.5</ele>
        <time>2018-09-25T21:20:23.819Z</time>
      </trkpt>
      <trkpt lat="43.43617" lon="3.44583">
        <ele>31.4</ele>
        <time>2018-09-25T21:20:28.819Z</time>
      </trkpt>
      <trkpt lat="43.43617" lon="3.44578">
        <ele>31.3</ele>
        <time>2018-09-25T21:20:30.819Z</time>
      </trkpt>
      <trkpt lat="43.43618" lon="3.44572">
        <ele>31.2</ele>
        <time>2018-09-25T21:20:32.819Z</time>
      </trkpt>
      <trkpt lat="43.43619" lon="3.44565">
        <ele>31.4</ele>
        <time>2018-09-25T21:20:34.819Z</time>
      </trkpt>
      <trkpt lat="43.4362" lon="3.44561">
        <ele>31.4</ele>
        <time>2018-09-25T21:20:35.819Z</time>
      </trkpt>
      <trkpt lat="43.43621" lon="3.44557">
        <ele>31.4</ele>
        <time>2018-09-25T21:20:36.819Z</time>
      </trkpt>
      <trkpt lat="43.43621" lon="3.44548">
        <ele>31.4</ele>
        <time>2018-09-25T21:20:38.819Z</time>
      </trkpt>
      <trkpt lat="43.43623" lon="3.44544">
        <ele>31.7</ele>
        <time>2018-09-25T21:20:39.819Z</time>
      </trkpt>
      <trkpt lat="43.43623" lon="3.4454">
        <ele>31.7</ele>
        <time>2018-09-25T21:20:40.819Z</time>
      </trkpt>
      <trkpt lat="43.43625" lon="3.44535">
        <ele>31.8</ele>
        <time>2018-09-25T21:20:41.819Z</time>
      </trkpt>
      <trkpt lat="43.43625" lon="3.44529">
        <ele>32.1</ele>
        <time>2018-09-25T21:20:42.819Z</time>
      </trkpt>
      <trkpt lat="43.43625" lon="3.44526">
        <ele>32.2</ele>
        <time>2018-09-25T21:20:43.819Z</time>
      </trkpt>
      <trkpt lat="43.43626" lon="3.44521">
        <ele>32.2</ele>
        <time>2018-09-25T21:20:44.819Z</time>
      </trkpt>
      <trkpt lat="43.43627" lon="3.44516">
        <ele>32.5</ele>
        <time>2018-09-25T21:20:45.819Z</time>
      </trkpt>
      <trkpt lat="43.43628" lon="3.44511">
        <ele>32.5</ele>
        <time>2018-09-25T21:20:46.819Z</time>
      </trkpt>
      <trkpt lat="43.43629" lon="3.44507">
        <ele>32.9</ele>
        <time>2018-09-25T21:20:47.819Z</time>
      </trkpt>
      <trkpt lat="43.4363" lon="3.44503">
        <ele>32.8</ele>
        <time>2018-09-25T21:20:48.819Z</time>
      </trkpt>
      <trkpt lat="43.43631" lon="3.445">
        <ele>33.3</ele>
        <time>2018-09-25T21:20:49.819Z</time>
      </trkpt>
      <trkpt lat="43.43632" lon="3.44495">
        <ele>33.3</ele>
        <time>2018-09-25T21:20:50.819Z</time>
      </trkpt>
      <trkpt lat="43.43633" lon="3.44491">
        <ele>33.4</ele>
        <time>2018-09-25T21:20:51.819Z</time>
      </trkpt>
      <trkpt lat="43.43632" lon="3.44484">
        <ele>33.6</ele>
        <time>2018-09-25T21:20:53.819Z</time>
      </trkpt>
      <trkpt lat="43.43633" lon="3.44479">
        <ele>33.7</ele>
        <time>2018-09-25T21:20:54.819Z</time>
      </trkpt>
      <trkpt lat="43.43632" lon="3.44474">
        <ele>33.9</ele>
        <time>2018-09-25T21:20:55.819Z</time>
      </trkpt>
      <trkpt lat="43.43629" lon="3.4447">
        <ele>33.6</ele>
        <time>2018-09-25T21:20:56.819Z</time>
      </trkpt>
      <trkpt lat="43.43627" lon="3.44466">
        <ele>33.3</ele>
        <time>2018-09-25T21:20:57.819Z</time>
      </trkpt>
      <trkpt lat="43.43624" lon="3.44463">
        <ele>33</ele>
        <time>2018-09-25T21:20:58.819Z</time>
      </trkpt>
      <trkpt lat="43.43621" lon="3.44459">
        <ele>32.7</ele>
        <time>2018-09-25T21:20:59.819Z</time>
      </trkpt>
      <trkpt lat="43.43618" lon="3.44456">
        <ele>32.6</ele>
        <time>2018-09-25T21:21:00.819Z</time>
      </trkpt>
      <trkpt lat="43.43616" lon="3.44453">
        <ele>32.5</ele>
        <time>2018-09-25T21:21:01.819Z</time>
      </trkpt>
      <trkpt lat="43.43614" lon="3.4445">
        <ele>32.4</ele>
        <time>2018-09-25T21:21:02.819Z</time>
      </trkpt>
      <trkpt lat="43.4361" lon="3.44447">
        <ele>32.4</ele>
        <time>2018-09-25T21:21:03.819Z</time>
      </trkpt>
      <trkpt lat="43.43606" lon="3.44445">
        <ele>32.3</ele>
        <time>2018-09-25T21:21:04.819Z</time>
      </trkpt>
      <trkpt lat="43.43604" lon="3.44444">
        <ele>32.3</ele>
        <time>2018-09-25T21:21:05.819Z</time>
      </trkpt>
      <trkpt lat="43.43601" lon="3.44441">
        <ele>32.3</ele>
        <time>2018-09-25T21:21:06.819Z</time>
      </trkpt>
      <trkpt lat="43.43599" lon="3.44436">
        <ele>32.2</ele>
        <time>2018-09-25T21:21:07.819Z</time>
      </trkpt>
      <trkpt lat="43.43597" lon="3.44432">
        <ele>32.2</ele>
        <time>2018-09-25T21:21:08.819Z</time>
      </trkpt>
      <trkpt lat="43.43593" lon="3.44429">
        <ele>32.1</ele>
        <time>2018-09-25T21:21:09.819Z</time>
      </trkpt>
      <trkpt lat="43.43589" lon="3.44425">
        <ele>32</ele>
        <time>2018-09-25T21:21:10.819Z</time>
      </trkpt>
      <trkpt lat="43.43586" lon="3.44421">
        <ele>31.9</ele>
        <time>2018-09-25T21:21:11.819Z</time>
      </trkpt>
      <trkpt lat="43.43582" lon="3.44418">
        <ele>31.8</ele>
        <time>2018-09-25T21:21:12.819Z</time>
      </trkpt>
      <trkpt lat="43.43577" lon="3.44416">
        <ele>31.6</ele>
        <time>2018-09-25T21:21:13.819Z</time>
      </trkpt>
      <trkpt lat="43.43572" lon="3.44416">
        <ele>31.4</ele>
        <time>2018-09-25T21:21:14.819Z</time>
      </trkpt>
      <trkpt lat="43.43566" lon="3.44416">
        <ele>31.2</ele>
        <time>2018-09-25T21:21:15.819Z</time>
      </trkpt>
      <trkpt lat="43.43563" lon="3.44416">
        <ele>31.1</ele>
        <time>2018-09-25T21:21:16.819Z</time>
      </trkpt>
      <trkpt lat="43.43559" lon="3.44414">
        <ele>31</ele>
        <time>2018-09-25T21:21:18.819Z</time>
      </trkpt>
      <trkpt lat="43.43556" lon="3.44416">
        <ele>31</ele>
        <time>2018-09-25T21:21:20.819Z</time>
      </trkpt>
      <trkpt lat="43.43554" lon="3.44419">
        <ele>31</ele>
        <time>2018-09-25T21:21:24.819Z</time>
      </trkpt>
      <trkpt lat="43.4355" lon="3.44422">
        <ele>31</ele>
        <time>2018-09-25T21:21:27.819Z</time>
      </trkpt>
      <trkpt lat="43.43547" lon="3.44424">
        <ele>30.9</ele>
        <time>2018-09-25T21:21:28.819Z</time>
      </trkpt>
      <trkpt lat="43.43542" lon="3.44427">
        <ele>30.7</ele>
        <time>2018-09-25T21:21:30.819Z</time>
      </trkpt>
      <trkpt lat="43.43539" lon="3.44427">
        <ele>30.7</ele>
        <time>2018-09-25T21:21:31.819Z</time>
      </trkpt>
      <trkpt lat="43.43535" lon="3.44428">
        <ele>30.7</ele>
        <time>2018-09-25T21:21:33.819Z</time>
      </trkpt>
      <trkpt lat="43.43532" lon="3.44428">
        <ele>30.6</ele>
        <time>2018-09-25T21:21:35.819Z</time>
      </trkpt>
      <trkpt lat="43.43529" lon="3.44429">
        <ele>30.5</ele>
        <time>2018-09-25T21:21:37.819Z</time>
      </trkpt>
      <trkpt lat="43.43525" lon="3.4443">
        <ele>30.5</ele>
        <time>2018-09-25T21:21:39.819Z</time>
      </trkpt>
      <trkpt lat="43.43521" lon="3.44432">
        <ele>30.4</ele>
        <time>2018-09-25T21:21:41.819Z</time>
      </trkpt>
      <trkpt lat="43.4352" lon="3.44438">
        <ele>30.6</ele>
        <time>2018-09-25T21:21:45.819Z</time>
      </trkpt>
      <trkpt lat="43.43519" lon="3.44445">
        <ele>30.8</ele>
        <time>2018-09-25T21:21:47.819Z</time>
      </trkpt>
      <trkpt lat="43.43519" lon="3.4445">
        <ele>31</ele>
        <time>2018-09-25T21:21:49.819Z</time>
      </trkpt>
      <trkpt lat="43.43519" lon="3.44455">
        <ele>31.2</ele>
        <time>2018-09-25T21:21:50.819Z</time>
      </trkpt>
      <trkpt lat="43.43517" lon="3.4446">
        <ele>31.5</ele>
        <time>2018-09-25T21:21:52.819Z</time>
      </trkpt>
      <trkpt lat="43.43514" lon="3.44464">
        <ele>31.7</ele>
        <time>2018-09-25T21:21:54.819Z</time>
      </trkpt>
      <trkpt lat="43.43512" lon="3.44467">
        <ele>31.9</ele>
        <time>2018-09-25T21:21:56.819Z</time>
      </trkpt>
      <trkpt lat="43.43509" lon="3.44468">
        <ele>32</ele>
        <time>2018-09-25T21:21:59.819Z</time>
      </trkpt>
      <trkpt lat="43.43506" lon="3.44469">
        <ele>32.2</ele>
        <time>2018-09-25T21:22:02.819Z</time>
      </trkpt>
      <trkpt lat="43.43503" lon="3.44468">
        <ele>32.4</ele>
        <time>2018-09-25T21:22:06.819Z</time>
      </trkpt>
      <trkpt lat="43.435" lon="3.44467">
        <ele>32.6</ele>
        <time>2018-09-25T21:22:09.819Z</time>
      </trkpt>
      <trkpt lat="43.43497" lon="3.44467">
        <ele>32.8</ele>
        <time>2018-09-25T21:22:12.819Z</time>
      </trkpt>
      <trkpt lat="43.43495" lon="3.44462">
        <ele>33.2</ele>
        <time>2018-09-25T21:22:15.819Z</time>
      </trkpt>
      <trkpt lat="43.43492" lon="3.44459">
        <ele>33.6</ele>
        <time>2018-09-25T21:22:18.819Z</time>
      </trkpt>
      <trkpt lat="43.43488" lon="3.44459">
        <ele>33.8</ele>
        <time>2018-09-25T21:22:27.819Z</time>
      </trkpt>
      <trkpt lat="43.43486" lon="3.44458">
        <ele>34.1</ele>
        <time>2018-09-25T21:22:29.819Z</time>
      </trkpt>
      <trkpt lat="43.43484" lon="3.44453">
        <ele>34.3</ele>
        <time>2018-09-25T21:22:31.819Z</time>
      </trkpt>
      <trkpt lat="43.43482" lon="3.4445">
        <ele>34.5</ele>
        <time>2018-09-25T21:22:32.819Z</time>
      </trkpt>
      <trkpt lat="43.43482" lon="3.44444">
        <ele>34.8</ele>
        <time>2018-09-25T21:22:34.819Z</time>
      </trkpt>
      <trkpt lat="43.43482" lon="3.44437">
        <ele>34.3</ele>
        <time>2018-09-25T21:22:36.819Z</time>
      </trkpt>
      <trkpt lat="43.43479" lon="3.44432">
        <ele>33.6</ele>
        <time>2018-09-25T21:22:37.819Z</time>
      </trkpt>
      <trkpt lat="43.43477" lon="3.44428">
        <ele>33</ele>
        <time>2018-09-25T21:22:38.819Z</time>
      </trkpt>
      <trkpt lat="43.43476" lon="3.44424">
        <ele>32.6</ele>
        <time>2018-09-25T21:22:40.819Z</time>
      </trkpt>
      <trkpt lat="43.43475" lon="3.44418">
        <ele>31.9</ele>
        <time>2018-09-25T21:22:42.819Z</time>
      </trkpt>
      <trkpt lat="43.43474" lon="3.44414">
        <ele>31.5</ele>
        <time>2018-09-25T21:22:43.819Z</time>
      </trkpt>
      <trkpt lat="43.43473" lon="3.44409">
        <ele>30.9</ele>
        <time>2018-09-25T21:22:45.819Z</time>
      </trkpt>
      <trkpt lat="43.43472" lon="3.44403">
        <ele>30.4</ele>
        <time>2018-09-25T21:22:48.819Z</time>
      </trkpt>
      <trkpt lat="43.4347" lon="3.44399">
        <ele>29.9</ele>
        <time>2018-09-25T21:22:51.819Z</time>
      </trkpt>
      <trkpt lat="43.43469" lon="3.44395">
        <ele>29.6</ele>
        <time>2018-09-25T21:23:04.819Z</time>
      </trkpt>
      <trkpt lat="43.43468" lon="3.44391">
        <ele>29.2</ele>
        <time>2018-09-25T21:23:06.819Z</time>
      </trkpt>
      <trkpt lat="43.43466" lon="3.44385">
        <ele>28.6</ele>
        <time>2018-09-25T21:23:08.819Z</time>
      </trkpt>
      <trkpt lat="43.43465" lon="3.44379">
        <ele>28.1</ele>
        <time>2018-09-25T21:23:10.819Z</time>
      </trkpt>
      <trkpt lat="43.43464" lon="3.44375">
        <ele>28</ele>
        <time>2018-09-25T21:23:12.819Z</time>
      </trkpt>
      <trkpt lat="43.43463" lon="3.44372">
        <ele>28</ele>
        <time>2018-09-25T21:23:21.819Z</time>
      </trkpt>
      <trkpt lat="43.4346" lon="3.44368">
        <ele>28</ele>
        <time>2018-09-25T21:23:23.819Z</time>
      </trkpt>
      <trkpt lat="43.43457" lon="3.44365">
        <ele>28</ele>
        <time>2018-09-25T21:23:26.819Z</time>
      </trkpt>
      <trkpt lat="43.43454" lon="3.44361">
        <ele>28</ele>
        <time>2018-09-25T21:23:30.819Z</time>
      </trkpt>
      <trkpt lat="43.43453" lon="3.44355">
        <ele>28.2</ele>
        <time>2018-09-25T21:23:32.819Z</time>
      </trkpt>
      <trkpt lat="43.43452" lon="3.44351">
        <ele>28.3</ele>
        <time>2018-09-25T21:23:33.819Z</time>
      </trkpt>
      <trkpt lat="43.4345" lon="3.44344">
        <ele>28.4</ele>
        <time>2018-09-25T21:23:35.819Z</time>
      </trkpt>
      <trkpt lat="43.43449" lon="3.44341">
        <ele>28.4</ele>
        <time>2018-09-25T21:23:36.819Z</time>
      </trkpt>
      <trkpt lat="43.43448" lon="3.44336">
        <ele>28.5</ele>
        <time>2018-09-25T21:23:37.819Z</time>
      </trkpt>
      <trkpt lat="43.43448" lon="3.44332">
        <ele>28.5</ele>
        <time>2018-09-25T21:23:38.819Z</time>
      </trkpt>
      <trkpt lat="43.43447" lon="3.44328">
        <ele>28.5</ele>
        <time>2018-09-25T21:23:39.819Z</time>
      </trkpt>
      <trkpt lat="43.43447" lon="3.44324">
        <ele>28.5</ele>
        <time>2018-09-25T21:23:40.819Z</time>
      </trkpt>
      <trkpt lat="43.43447" lon="3.44319">
        <ele>28.6</ele>
        <time>2018-09-25T21:23:41.819Z</time>
      </trkpt>
      <trkpt lat="43.43447" lon="3.44314">
        <ele>28.6</ele>
        <time>2018-09-25T21:23:42.819Z</time>
      </trkpt>
      <trkpt lat="43.43447" lon="3.44309">
        <ele>28.6</ele>
        <time>2018-09-25T21:23:43.819Z</time>
      </trkpt>
      <trkpt lat="43.43446" lon="3.44305">
        <ele>28.6</ele>
        <time>2018-09-25T21:23:44.819Z</time>
      </trkpt>
      <trkpt lat="43.43446" lon="3.44301">
        <ele>28.7</ele>
        <time>2018-09-25T21:23:45.819Z</time>
      </trkpt>
      <trkpt lat="43.43446" lon="3.44294">
        <ele>28.7</ele>
        <time>2018-09-25T21:23:47.819Z</time>
      </trkpt>
      <trkpt lat="43.43447" lon="3.44289">
        <ele>28.8</ele>
        <time>2018-09-25T21:23:49.819Z</time>
      </trkpt>
      <trkpt lat="43.43449" lon="3.44285">
        <ele>28.9</ele>
        <time>2018-09-25T21:23:51.819Z</time>
      </trkpt>
      <trkpt lat="43.43451" lon="3.44281">
        <ele>28.9</ele>
        <time>2018-09-25T21:23:54.819Z</time>
      </trkpt>
      <trkpt lat="43.43455" lon="3.44279">
        <ele>29</ele>
        <time>2018-09-25T21:23:56.819Z</time>
      </trkpt>
      <trkpt lat="43.43457" lon="3.44274">
        <ele>29.1</ele>
        <time>2018-09-25T21:23:58.819Z</time>
      </trkpt>
      <trkpt lat="43.43457" lon="3.4427">
        <ele>29.3</ele>
        <time>2018-09-25T21:24:01.819Z</time>
      </trkpt>
      <trkpt lat="43.43458" lon="3.44264">
        <ele>29.5</ele>
        <time>2018-09-25T21:24:03.819Z</time>
      </trkpt>
      <trkpt lat="43.43459" lon="3.44259">
        <ele>29.7</ele>
        <time>2018-09-25T21:24:05.819Z</time>
      </trkpt>
      <trkpt lat="43.43459" lon="3.44256">
        <ele>30.1</ele>
        <time>2018-09-25T21:24:07.819Z</time>
      </trkpt>
      <trkpt lat="43.4346" lon="3.4425">
        <ele>30.6</ele>
        <time>2018-09-25T21:24:11.819Z</time>
      </trkpt>
      <trkpt lat="43.43459" lon="3.44247">
        <ele>30.8</ele>
        <time>2018-09-25T21:24:13.819Z</time>
      </trkpt>
      <trkpt lat="43.4346" lon="3.44242">
        <ele>31.1</ele>
        <time>2018-09-25T21:24:16.819Z</time>
      </trkpt>
      <trkpt lat="43.43461" lon="3.44238">
        <ele>31.2</ele>
        <time>2018-09-25T21:24:19.819Z</time>
      </trkpt>
      <trkpt lat="43.4346" lon="3.44234">
        <ele>31.5</ele>
        <time>2018-09-25T21:24:23.819Z</time>
      </trkpt>
      <trkpt lat="43.43459" lon="3.4423">
        <ele>32.5</ele>
        <time>2018-09-25T21:24:26.819Z</time>
      </trkpt>
      <trkpt lat="43.43459" lon="3.44226">
        <ele>32.8</ele>
        <time>2018-09-25T21:24:29.819Z</time>
      </trkpt>
      <trkpt lat="43.43459" lon="3.44222">
        <ele>33.9</ele>
        <time>2018-09-25T21:24:34.819Z</time>
      </trkpt>
      <trkpt lat="43.43457" lon="3.44218">
        <ele>34.2</ele>
        <time>2018-09-25T21:24:38.819Z</time>
      </trkpt>
      <trkpt lat="43.43456" lon="3.44214">
        <ele>34.4</ele>
        <time>2018-09-25T21:24:41.819Z</time>
      </trkpt>
      <trkpt lat="43.43453" lon="3.44212">
        <ele>34.5</ele>
        <time>2018-09-25T21:24:44.819Z</time>
      </trkpt>
      <trkpt lat="43.43452" lon="3.44208">
        <ele>34.9</ele>
        <time>2018-09-25T21:24:47.819Z</time>
      </trkpt>
      <trkpt lat="43.43449" lon="3.44206">
        <ele>35.3</ele>
        <time>2018-09-25T21:24:50.819Z</time>
      </trkpt>
      <trkpt lat="43.43446" lon="3.44203">
        <ele>35.9</ele>
        <time>2018-09-25T21:24:54.819Z</time>
      </trkpt>
      <trkpt lat="43.43445" lon="3.44199">
        <ele>36.2</ele>
        <time>2018-09-25T21:24:59.819Z</time>
      </trkpt>
      <trkpt lat="43.43444" lon="3.44195">
        <ele>36.4</ele>
        <time>2018-09-25T21:25:03.819Z</time>
      </trkpt>
      <trkpt lat="43.43444" lon="3.4419">
        <ele>36.7</ele>
        <time>2018-09-25T21:25:05.819Z</time>
      </trkpt>
      <trkpt lat="43.43444" lon="3.44185">
        <ele>37.1</ele>
        <time>2018-09-25T21:25:07.819Z</time>
      </trkpt>
      <trkpt lat="43.43445" lon="3.44181">
        <ele>37.7</ele>
        <time>2018-09-25T21:25:09.819Z</time>
      </trkpt>
      <trkpt lat="43.43447" lon="3.44175">
        <ele>38.1</ele>
        <time>2018-09-25T21:25:11.819Z</time>
      </trkpt>
      <trkpt lat="43.43447" lon="3.44171">
        <ele>38.3</ele>
        <time>2018-09-25T21:25:13.819Z</time>
      </trkpt>
      <trkpt lat="43.43449" lon="3.44168">
        <ele>39</ele>
        <time>2018-09-25T21:25:17.819Z</time>
      </trkpt>
      <trkpt lat="43.43453" lon="3.44167">
        <ele>39.7</ele>
        <time>2018-09-25T21:25:19.819Z</time>
      </trkpt>
      <trkpt lat="43.43456" lon="3.44162">
        <ele>40.8</ele>
        <time>2018-09-25T21:25:28.819Z</time>
      </trkpt>
      <trkpt lat="43.43454" lon="3.44158">
        <ele>41.1</ele>
        <time>2018-09-25T21:25:30.819Z</time>
      </trkpt>
      <trkpt lat="43.43455" lon="3.44154">
        <ele>41.3</ele>
        <time>2018-09-25T21:26:12.819Z</time>
      </trkpt>
      <trkpt lat="43.43456" lon="3.4415">
        <ele>41.4</ele>
        <time>2018-09-25T21:26:53.819Z</time>
      </trkpt>
      <trkpt lat="43.43457" lon="3.44146">
        <ele>41.5</ele>
        <time>2018-09-25T21:26:59.819Z</time>
      </trkpt>
      <trkpt lat="43.43459" lon="3.44139">
        <ele>41.7</ele>
        <time>2018-09-25T21:27:01.819Z</time>
      </trkpt>
      <trkpt lat="43.4346" lon="3.44134">
        <ele>41.8</ele>
        <time>2018-09-25T21:27:02.819Z</time>
      </trkpt>
      <trkpt lat="43.43462" lon="3.44129">
        <ele>42</ele>
        <time>2018-09-25T21:27:03.819Z</time>
      </trkpt>
      <trkpt lat="43.43463" lon="3.44124">
        <ele>42.4</ele>
        <time>2018-09-25T21:27:04.819Z</time>
      </trkpt>
      <trkpt lat="43.43463" lon="3.44119">
        <ele>42.7</ele>
        <time>2018-09-25T21:27:05.819Z</time>
      </trkpt>
      <trkpt lat="43.43464" lon="3.44113">
        <ele>42.7</ele>
        <time>2018-09-25T21:27:06.819Z</time>
      </trkpt>
      <trkpt lat="43.43465" lon="3.44109">
        <ele>42.8</ele>
        <time>2018-09-25T21:27:07.819Z</time>
      </trkpt>
      <trkpt lat="43.43466" lon="3.44103">
        <ele>42.9</ele>
        <time>2018-09-25T21:27:09.819Z</time>
      </trkpt>
      <trkpt lat="43.43466" lon="3.44097">
        <ele>43</ele>
        <time>2018-09-25T21:27:11.819Z</time>
      </trkpt>
      <trkpt lat="43.43467" lon="3.44093">
        <ele>43</ele>
        <time>2018-09-25T21:27:13.819Z</time>
      </trkpt>
      <trkpt lat="43.43466" lon="3.44086">
        <ele>43.1</ele>
        <time>2018-09-25T21:27:15.819Z</time>
      </trkpt>
      <trkpt lat="43.43464" lon="3.44082">
        <ele>43.2</ele>
        <time>2018-09-25T21:27:17.819Z</time>
      </trkpt>
      <trkpt lat="43.4346" lon="3.44078">
        <ele>43.3</ele>
        <time>2018-09-25T21:27:19.819Z</time>
      </trkpt>
      <trkpt lat="43.43457" lon="3.44075">
        <ele>43.4</ele>
        <time>2018-09-25T21:27:21.819Z</time>
      </trkpt>
      <trkpt lat="43.43456" lon="3.44071">
        <ele>43.5</ele>
        <time>2018-09-25T21:27:33.819Z</time>
      </trkpt>
      <trkpt lat="43.43457" lon="3.44065">
        <ele>43.6</ele>
        <time>2018-09-25T21:27:35.819Z</time>
      </trkpt>
      <trkpt lat="43.43458" lon="3.44061">
        <ele>43.6</ele>
        <time>2018-09-25T21:27:37.819Z</time>
      </trkpt>
      <trkpt lat="43.43459" lon="3.44057">
        <ele>43.7</ele>
        <time>2018-09-25T21:27:39.819Z</time>
      </trkpt>
      <trkpt lat="43.4346" lon="3.44054">
        <ele>43.7</ele>
        <time>2018-09-25T21:27:41.819Z</time>
      </trkpt>
      <trkpt lat="43.43462" lon="3.44049">
        <ele>43.8</ele>
        <time>2018-09-25T21:27:45.819Z</time>
      </trkpt>
      <trkpt lat="43.43464" lon="3.44045">
        <ele>45.2</ele>
        <time>2018-09-25T21:27:47.819Z</time>
      </trkpt>
      <trkpt lat="43.43467" lon="3.44043">
        <ele>45.6</ele>
        <time>2018-09-25T21:27:49.819Z</time>
      </trkpt>
      <trkpt lat="43.43469" lon="3.44041">
        <ele>45.9</ele>
        <time>2018-09-25T21:27:53.819Z</time>
      </trkpt>
      <trkpt lat="43.43472" lon="3.44043">
        <ele>46.3</ele>
        <time>2018-09-25T21:27:55.819Z</time>
      </trkpt>
      <trkpt lat="43.43475" lon="3.44044">
        <ele>46.6</ele>
        <time>2018-09-25T21:27:57.819Z</time>
      </trkpt>
      <trkpt lat="43.43477" lon="3.44049">
        <ele>47.1</ele>
        <time>2018-09-25T21:27:59.819Z</time>
      </trkpt>
      <trkpt lat="43.4348" lon="3.44051">
        <ele>47.4</ele>
        <time>2018-09-25T21:28:00.819Z</time>
      </trkpt>
      <trkpt lat="43.43482" lon="3.44055">
        <ele>47.8</ele>
        <time>2018-09-25T21:28:02.819Z</time>
      </trkpt>
      <trkpt lat="43.43485" lon="3.44058">
        <ele>48.1</ele>
        <time>2018-09-25T21:28:04.819Z</time>
      </trkpt>
      <trkpt lat="43.43487" lon="3.44063">
        <ele>48.5</ele>
        <time>2018-09-25T21:28:06.819Z</time>
      </trkpt>
      <trkpt lat="43.43489" lon="3.44069">
        <ele>48.8</ele>
        <time>2018-09-25T21:28:08.819Z</time>
      </trkpt>
      <trkpt lat="43.43491" lon="3.44074">
        <ele>49.2</ele>
        <time>2018-09-25T21:28:10.819Z</time>
      </trkpt>
      <trkpt lat="43.43493" lon="3.44078">
        <ele>49.5</ele>
        <time>2018-09-25T21:28:12.819Z</time>
      </trkpt>
      <trkpt lat="43.43496" lon="3.44083">
        <ele>49.9</ele>
        <time>2018-09-25T21:28:14.819Z</time>
      </trkpt>
      <trkpt lat="43.43499" lon="3.44087">
        <ele>50.2</ele>
        <time>2018-09-25T21:28:16.819Z</time>
      </trkpt>
      <trkpt lat="43.43502" lon="3.44093">
        <ele>50.4</ele>
        <time>2018-09-25T21:28:18.819Z</time>
      </trkpt>
      <trkpt lat="43.43506" lon="3.44098">
        <ele>50.7</ele>
        <time>2018-09-25T21:28:20.819Z</time>
      </trkpt>
      <trkpt lat="43.43509" lon="3.44103">
        <ele>51</ele>
        <time>2018-09-25T21:28:22.819Z</time>
      </trkpt>
      <trkpt lat="43.43513" lon="3.44107">
        <ele>51.4</ele>
        <time>2018-09-25T21:28:24.819Z</time>
      </trkpt>
      <trkpt lat="43.43516" lon="3.44112">
        <ele>51.7</ele>
        <time>2018-09-25T21:28:26.819Z</time>
      </trkpt>
      <trkpt lat="43.43518" lon="3.44116">
        <ele>51.9</ele>
        <time>2018-09-25T21:28:28.819Z</time>
      </trkpt>
      <trkpt lat="43.43522" lon="3.4412">
        <ele>52.3</ele>
        <time>2018-09-25T21:28:30.819Z</time>
      </trkpt>
      <trkpt lat="43.43524" lon="3.44123">
        <ele>52.5</ele>
        <time>2018-09-25T21:28:33.819Z</time>
      </trkpt>
      <trkpt lat="43.43526" lon="3.44127">
        <ele>52.9</ele>
        <time>2018-09-25T21:28:36.819Z</time>
      </trkpt>
      <trkpt lat="43.43527" lon="3.44122">
        <ele>52.6</ele>
        <time>2018-09-25T21:28:40.819Z</time>
      </trkpt>
      <trkpt lat="43.43525" lon="3.44119">
        <ele>52.3</ele>
        <time>2018-09-25T21:28:41.819Z</time>
      </trkpt>
      <trkpt lat="43.43523" lon="3.44116">
        <ele>52.1</ele>
        <time>2018-09-25T21:28:42.819Z</time>
      </trkpt>
      <trkpt lat="43.43521" lon="3.44113">
        <ele>51.8</ele>
        <time>2018-09-25T21:28:43.819Z</time>
      </trkpt>
      <trkpt lat="43.43518" lon="3.4411">
        <ele>51.6</ele>
        <time>2018-09-25T21:28:44.819Z</time>
      </trkpt>
      <trkpt lat="43.43515" lon="3.44106">
        <ele>51.3</ele>
        <time>2018-09-25T21:28:45.819Z</time>
      </trkpt>
      <trkpt lat="43.43512" lon="3.44101">
        <ele>51</ele>
        <time>2018-09-25T21:28:46.819Z</time>
      </trkpt>
      <trkpt lat="43.4351" lon="3.44096">
        <ele>50.7</ele>
        <time>2018-09-25T21:28:47.819Z</time>
      </trkpt>
      <trkpt lat="43.43507" lon="3.44091">
        <ele>50.5</ele>
        <time>2018-09-25T21:28:48.819Z</time>
      </trkpt>
      <trkpt lat="43.43505" lon="3.44087">
        <ele>50.3</ele>
        <time>2018-09-25T21:28:49.819Z</time>
      </trkpt>
      <trkpt lat="43.43502" lon="3.44082">
        <ele>50</ele>
        <time>2018-09-25T21:28:50.819Z</time>
      </trkpt>
      <trkpt lat="43.43499" lon="3.44077">
        <ele>49.7</ele>
        <time>2018-09-25T21:28:51.819Z</time>
      </trkpt>
      <trkpt lat="43.43496" lon="3.44072">
        <ele>49.3</ele>
        <time>2018-09-25T21:28:52.819Z</time>
      </trkpt>
      <trkpt lat="43.43493" lon="3.44067">
        <ele>48.9</ele>
        <time>2018-09-25T21:28:53.819Z</time>
      </trkpt>
      <trkpt lat="43.43491" lon="3.44062">
        <ele>48.5</ele>
        <time>2018-09-25T21:28:54.819Z</time>
      </trkpt>
      <trkpt lat="43.43489" lon="3.44058">
        <ele>48.3</ele>
        <time>2018-09-25T21:28:55.819Z</time>
      </trkpt>
      <trkpt lat="43.43487" lon="3.44055">
        <ele>48</ele>
        <time>2018-09-25T21:28:56.819Z</time>
      </trkpt>
      <trkpt lat="43.43484" lon="3.44048">
        <ele>47.5</ele>
        <time>2018-09-25T21:28:58.819Z</time>
      </trkpt>
      <trkpt lat="43.43483" lon="3.44045">
        <ele>47.2</ele>
        <time>2018-09-25T21:28:59.819Z</time>
      </trkpt>
      <trkpt lat="43.43481" lon="3.44043">
        <ele>46.9</ele>
        <time>2018-09-25T21:29:00.819Z</time>
      </trkpt>
      <trkpt lat="43.43478" lon="3.44041">
        <ele>46.6</ele>
        <time>2018-09-25T21:29:01.819Z</time>
      </trkpt>
      <trkpt lat="43.43474" lon="3.44038">
        <ele>46.1</ele>
        <time>2018-09-25T21:29:03.819Z</time>
      </trkpt>
      <trkpt lat="43.43471" lon="3.44036">
        <ele>45.6</ele>
        <time>2018-09-25T21:29:05.819Z</time>
      </trkpt>
      <trkpt lat="43.43467" lon="3.44033">
        <ele>45</ele>
        <time>2018-09-25T21:29:07.819Z</time>
      </trkpt>
      <trkpt lat="43.43462" lon="3.44032">
        <ele>44.3</ele>
        <time>2018-09-25T21:29:09.819Z</time>
      </trkpt>
      <trkpt lat="43.43459" lon="3.44032">
        <ele>44</ele>
        <time>2018-09-25T21:29:10.819Z</time>
      </trkpt>
      <trkpt lat="43.43456" lon="3.4403">
        <ele>44</ele>
        <time>2018-09-25T21:29:11.819Z</time>
      </trkpt>
      <trkpt lat="43.43452" lon="3.44027">
        <ele>44</ele>
        <time>2018-09-25T21:29:12.819Z</time>
      </trkpt>
      <trkpt lat="43.43448" lon="3.44023">
        <ele>44</ele>
        <time>2018-09-25T21:29:13.819Z</time>
      </trkpt>
      <trkpt lat="43.43443" lon="3.4402">
        <ele>44</ele>
        <time>2018-09-25T21:29:14.819Z</time>
      </trkpt>
      <trkpt lat="43.43438" lon="3.44017">
        <ele>44</ele>
        <time>2018-09-25T21:29:15.819Z</time>
      </trkpt>
      <trkpt lat="43.43434" lon="3.44015">
        <ele>44</ele>
        <time>2018-09-25T21:29:16.819Z</time>
      </trkpt>
      <trkpt lat="43.4343" lon="3.44014">
        <ele>44</ele>
        <time>2018-09-25T21:29:17.819Z</time>
      </trkpt>
      <trkpt lat="43.43425" lon="3.44013">
        <ele>44</ele>
        <time>2018-09-25T21:29:18.819Z</time>
      </trkpt>
      <trkpt lat="43.43419" lon="3.44013">
        <ele>43.9</ele>
        <time>2018-09-25T21:29:19.819Z</time>
      </trkpt>
      <trkpt lat="43.43413" lon="3.44012">
        <ele>43.9</ele>
        <time>2018-09-25T21:29:20.819Z</time>
      </trkpt>
      <trkpt lat="43.43408" lon="3.44012">
        <ele>43.9</ele>
        <time>2018-09-25T21:29:21.819Z</time>
      </trkpt>
      <trkpt lat="43.43404" lon="3.4401">
        <ele>43.9</ele>
        <time>2018-09-25T21:29:22.819Z</time>
      </trkpt>
      <trkpt lat="43.434" lon="3.44008">
        <ele>43.9</ele>
        <time>2018-09-25T21:29:23.819Z</time>
      </trkpt>
      <trkpt lat="43.43397" lon="3.44006">
        <ele>43.9</ele>
        <time>2018-09-25T21:29:24.819Z</time>
      </trkpt>
      <trkpt lat="43.43393" lon="3.44005">
        <ele>43.9</ele>
        <time>2018-09-25T21:29:25.819Z</time>
      </trkpt>
      <trkpt lat="43.4339" lon="3.44003">
        <ele>43.9</ele>
        <time>2018-09-25T21:29:26.819Z</time>
      </trkpt>
      <trkpt lat="43.43388" lon="3.44">
        <ele>43.9</ele>
        <time>2018-09-25T21:29:28.819Z</time>
      </trkpt>
      <trkpt lat="43.43388" lon="3.43996">
        <ele>43.9</ele>
        <time>2018-09-25T21:29:30.819Z</time>
      </trkpt>
      <trkpt lat="43.43385" lon="3.43996">
        <ele>43.9</ele>
        <time>2018-09-25T21:29:34.819Z</time>
      </trkpt>
      <trkpt lat="43.43379" lon="3.43997">
        <ele>44</ele>
        <time>2018-09-25T21:29:36.819Z</time>
      </trkpt>
      <trkpt lat="43.43376" lon="3.43996">
        <ele>44</ele>
        <time>2018-09-25T21:29:37.819Z</time>
      </trkpt>
      <trkpt lat="43.43372" lon="3.43996">
        <ele>44</ele>
        <time>2018-09-25T21:29:38.819Z</time>
      </trkpt>
      <trkpt lat="43.43368" lon="3.43995">
        <ele>44</ele>
        <time>2018-09-25T21:29:41.819Z</time>
      </trkpt>
      <trkpt lat="43.43365" lon="3.43994">
        <ele>44</ele>
        <time>2018-09-25T21:29:43.819Z</time>
      </trkpt>
      <trkpt lat="43.43361" lon="3.43991">
        <ele>44</ele>
        <time>2018-09-25T21:29:45.819Z</time>
      </trkpt>
      <trkpt lat="43.43358" lon="3.43991">
        <ele>44.1</ele>
        <time>2018-09-25T21:29:47.819Z</time>
      </trkpt>
      <trkpt lat="43.43361" lon="3.43993">
        <ele>44.1</ele>
        <time>2018-09-25T21:29:51.819Z</time>
      </trkpt>
      <trkpt lat="43.43366" lon="3.43993">
        <ele>44.1</ele>
        <time>2018-09-25T21:29:53.819Z</time>
      </trkpt>
      <trkpt lat="43.43369" lon="3.43994">
        <ele>44.1</ele>
        <time>2018-09-25T21:29:54.819Z</time>
      </trkpt>
      <trkpt lat="43.43372" lon="3.43994">
        <ele>44.1</ele>
        <time>2018-09-25T21:29:55.819Z</time>
      </trkpt>
      <trkpt lat="43.43375" lon="3.43995">
        <ele>44.1</ele>
        <time>2018-09-25T21:29:56.819Z</time>
      </trkpt>
      <trkpt lat="43.43379" lon="3.43993">
        <ele>44.1</ele>
        <time>2018-09-25T21:29:57.819Z</time>
      </trkpt>
      <trkpt lat="43.43383" lon="3.43991">
        <ele>44.1</ele>
        <time>2018-09-25T21:29:58.819Z</time>
      </trkpt>
      <trkpt lat="43.43387" lon="3.43989">
        <ele>44.1</ele>
        <time>2018-09-25T21:29:59.819Z</time>
      </trkpt>
      <trkpt lat="43.43389" lon="3.43985">
        <ele>44.1</ele>
        <time>2018-09-25T21:30:00.819Z</time>
      </trkpt>
      <trkpt lat="43.43392" lon="3.43981">
        <ele>44.1</ele>
        <time>2018-09-25T21:30:01.819Z</time>
      </trkpt>
      <trkpt lat="43.43395" lon="3.43976">
        <ele>44.2</ele>
        <time>2018-09-25T21:30:02.819Z</time>
      </trkpt>
      <trkpt lat="43.43397" lon="3.43971">
        <ele>44.2</ele>
        <time>2018-09-25T21:30:03.819Z</time>
      </trkpt>
      <trkpt lat="43.43399" lon="3.43967">
        <ele>44.2</ele>
        <time>2018-09-25T21:30:04.819Z</time>
      </trkpt>
      <trkpt lat="43.43402" lon="3.43963">
        <ele>44.1</ele>
        <time>2018-09-25T21:30:05.819Z</time>
      </trkpt>
      <trkpt lat="43.43407" lon="3.43956">
        <ele>44.1</ele>
        <time>2018-09-25T21:30:07.819Z</time>
      </trkpt>
      <trkpt lat="43.43409" lon="3.43953">
        <ele>44.1</ele>
        <time>2018-09-25T21:30:08.819Z</time>
      </trkpt>
      <trkpt lat="43.43411" lon="3.43949">
        <ele>44.1</ele>
        <time>2018-09-25T21:30:09.819Z</time>
      </trkpt>
      <trkpt lat="43.43414" lon="3.43945">
        <ele>44.1</ele>
        <time>2018-09-25T21:30:10.819Z</time>
      </trkpt>
      <trkpt lat="43.43416" lon="3.4394">
        <ele>44</ele>
        <time>2018-09-25T21:30:11.819Z</time>
      </trkpt>
      <trkpt lat="43.43419" lon="3.43935">
        <ele>44</ele>
        <time>2018-09-25T21:30:12.819Z</time>
      </trkpt>
      <trkpt lat="43.43421" lon="3.4393">
        <ele>44.6</ele>
        <time>2018-09-25T21:30:13.819Z</time>
      </trkpt>
      <trkpt lat="43.43424" lon="3.43926">
        <ele>45.9</ele>
        <time>2018-09-25T21:30:14.819Z</time>
      </trkpt>
      <trkpt lat="43.43428" lon="3.43922">
        <ele>47.5</ele>
        <time>2018-09-25T21:30:15.819Z</time>
      </trkpt>
      <trkpt lat="43.4343" lon="3.43917">
        <ele>48.8</ele>
        <time>2018-09-25T21:30:16.819Z</time>
      </trkpt>
      <trkpt lat="43.43432" lon="3.43911">
        <ele>50.4</ele>
        <time>2018-09-25T21:30:17.819Z</time>
      </trkpt>
      <trkpt lat="43.43434" lon="3.43907">
        <ele>51</ele>
        <time>2018-09-25T21:30:18.819Z</time>
      </trkpt>
      <trkpt lat="43.43436" lon="3.43903">
        <ele>51</ele>
        <time>2018-09-25T21:30:19.819Z</time>
      </trkpt>
      <trkpt lat="43.43439" lon="3.43897">
        <ele>51</ele>
        <time>2018-09-25T21:30:21.819Z</time>
      </trkpt>
      <trkpt lat="43.43441" lon="3.43892">
        <ele>51</ele>
        <time>2018-09-25T21:30:22.819Z</time>
      </trkpt>
      <trkpt lat="43.43443" lon="3.43888">
        <ele>51</ele>
        <time>2018-09-25T21:30:23.819Z</time>
      </trkpt>
      <trkpt lat="43.43445" lon="3.43884">
        <ele>51</ele>
        <time>2018-09-25T21:30:24.819Z</time>
      </trkpt>
      <trkpt lat="43.43447" lon="3.43879">
        <ele>51</ele>
        <time>2018-09-25T21:30:25.819Z</time>
      </trkpt>
      <trkpt lat="43.43449" lon="3.43874">
        <ele>51</ele>
        <time>2018-09-25T21:30:26.819Z</time>
      </trkpt>
      <trkpt lat="43.43451" lon="3.43869">
        <ele>51</ele>
        <time>2018-09-25T21:30:27.819Z</time>
      </trkpt>
      <trkpt lat="43.43453" lon="3.43865">
        <ele>51</ele>
        <time>2018-09-25T21:30:28.819Z</time>
      </trkpt>
      <trkpt lat="43.43454" lon="3.4386">
        <ele>51</ele>
        <time>2018-09-25T21:30:29.819Z</time>
      </trkpt>
      <trkpt lat="43.43456" lon="3.43856">
        <ele>51</ele>
        <time>2018-09-25T21:30:30.819Z</time>
      </trkpt>
      <trkpt lat="43.43458" lon="3.43853">
        <ele>51</ele>
        <time>2018-09-25T21:30:31.819Z</time>
      </trkpt>
      <trkpt lat="43.43459" lon="3.4385">
        <ele>51</ele>
        <time>2018-09-25T21:30:32.819Z</time>
      </trkpt>
      <trkpt lat="43.43459" lon="3.43846">
        <ele>51</ele>
        <time>2018-09-25T21:30:34.819Z</time>
      </trkpt>
      <trkpt lat="43.4346" lon="3.43842">
        <ele>51</ele>
        <time>2018-09-25T21:30:36.819Z</time>
      </trkpt>
      <trkpt lat="43.4346" lon="3.43836">
        <ele>51</ele>
        <time>2018-09-25T21:30:39.819Z</time>
      </trkpt>
      <trkpt lat="43.43459" lon="3.43832">
        <ele>51</ele>
        <time>2018-09-25T21:30:41.819Z</time>
      </trkpt>
      <trkpt lat="43.43457" lon="3.43828">
        <ele>51</ele>
        <time>2018-09-25T21:30:48.819Z</time>
      </trkpt>
      <trkpt lat="43.43454" lon="3.43831">
        <ele>51</ele>
        <time>2018-09-25T21:30:51.819Z</time>
      </trkpt>
      <trkpt lat="43.43453" lon="3.43835">
        <ele>51</ele>
        <time>2018-09-25T21:30:53.819Z</time>
      </trkpt>
      <trkpt lat="43.43452" lon="3.43839">
        <ele>50.9</ele>
        <time>2018-09-25T21:30:58.819Z</time>
      </trkpt>
      <trkpt lat="43.43448" lon="3.43842">
        <ele>50.6</ele>
        <time>2018-09-25T21:31:03.819Z</time>
      </trkpt>
      <trkpt lat="43.43451" lon="3.43844">
        <ele>50.4</ele>
        <time>2018-09-25T21:31:22.819Z</time>
      </trkpt>
      <trkpt lat="43.43451" lon="3.4384">
        <ele>50.1</ele>
        <time>2018-09-25T21:31:33.819Z</time>
      </trkpt>
      <trkpt lat="43.4345" lon="3.43836">
        <ele>49.9</ele>
        <time>2018-09-25T21:31:34.819Z</time>
      </trkpt>
      <trkpt lat="43.43447" lon="3.43833">
        <ele>49.6</ele>
        <time>2018-09-25T21:31:35.819Z</time>
      </trkpt>
      <trkpt lat="43.43445" lon="3.4383">
        <ele>49.1</ele>
        <time>2018-09-25T21:31:36.819Z</time>
      </trkpt>
      <trkpt lat="43.43444" lon="3.43826">
        <ele>48.5</ele>
        <time>2018-09-25T21:31:37.819Z</time>
      </trkpt>
      <trkpt lat="43.43441" lon="3.43823">
        <ele>47.7</ele>
        <time>2018-09-25T21:31:38.819Z</time>
      </trkpt>
      <trkpt lat="43.43439" lon="3.43818">
        <ele>46.8</ele>
        <time>2018-09-25T21:31:39.819Z</time>
      </trkpt>
      <trkpt lat="43.43435" lon="3.43815">
        <ele>45.8</ele>
        <time>2018-09-25T21:31:40.819Z</time>
      </trkpt>
      <trkpt lat="43.43432" lon="3.43811">
        <ele>45.2</ele>
        <time>2018-09-25T21:31:41.819Z</time>
      </trkpt>
      <trkpt lat="43.43432" lon="3.43807">
        <ele>44.8</ele>
        <time>2018-09-25T21:31:42.819Z</time>
      </trkpt>
      <trkpt lat="43.4343" lon="3.43801">
        <ele>44.2</ele>
        <time>2018-09-25T21:31:43.819Z</time>
      </trkpt>
      <trkpt lat="43.43427" lon="3.43795">
        <ele>43.4</ele>
        <time>2018-09-25T21:31:44.819Z</time>
      </trkpt>
      <trkpt lat="43.43423" lon="3.43787">
        <ele>42</ele>
        <time>2018-09-25T21:31:45.819Z</time>
      </trkpt>
      <trkpt lat="43.43421" lon="3.43777">
        <ele>40.7</ele>
        <time>2018-09-25T21:31:46.819Z</time>
      </trkpt>
      <trkpt lat="43.43418" lon="3.43768">
        <ele>39.9</ele>
        <time>2018-09-25T21:31:47.819Z</time>
      </trkpt>
      <trkpt lat="43.43417" lon="3.43755">
        <ele>39</ele>
        <time>2018-09-25T21:31:48.819Z</time>
      </trkpt>
      <trkpt lat="43.43417" lon="3.43744">
        <ele>33.9</ele>
        <time>2018-09-25T21:31:49.819Z</time>
      </trkpt>
      <trkpt lat="43.43416" lon="3.43734">
        <ele>31.3</ele>
        <time>2018-09-25T21:31:50.819Z</time>
      </trkpt>
      <trkpt lat="43.43418" lon="3.43724">
        <ele>32.1</ele>
        <time>2018-09-25T21:31:51.819Z</time>
      </trkpt>
      <trkpt lat="43.4342" lon="3.43715">
        <ele>33.1</ele>
        <time>2018-09-25T21:31:52.819Z</time>
      </trkpt>
      <trkpt lat="43.43424" lon="3.43706">
        <ele>34.2</ele>
        <time>2018-09-25T21:31:53.819Z</time>
      </trkpt>
      <trkpt lat="43.43428" lon="3.43698">
        <ele>35.2</ele>
        <time>2018-09-25T21:31:54.819Z</time>
      </trkpt>
      <trkpt lat="43.43433" lon="3.43691">
        <ele>36</ele>
        <time>2018-09-25T21:31:55.819Z</time>
      </trkpt>
      <trkpt lat="43.43438" lon="3.43686">
        <ele>36.7</ele>
        <time>2018-09-25T21:31:56.819Z</time>
      </trkpt>
      <trkpt lat="43.43443" lon="3.4368">
        <ele>37.4</ele>
        <time>2018-09-25T21:31:57.819Z</time>
      </trkpt>
      <trkpt lat="43.4345" lon="3.43677">
        <ele>38</ele>
        <time>2018-09-25T21:31:58.819Z</time>
      </trkpt>
      <trkpt lat="43.43456" lon="3.43675">
        <ele>38</ele>
        <time>2018-09-25T21:31:59.819Z</time>
      </trkpt>
      <trkpt lat="43.43463" lon="3.43679">
        <ele>38</ele>
        <time>2018-09-25T21:32:00.819Z</time>
      </trkpt>
      <trkpt lat="43.4347" lon="3.43682">
        <ele>38</ele>
        <time>2018-09-25T21:32:01.819Z</time>
      </trkpt>
      <trkpt lat="43.43477" lon="3.43687">
        <ele>38</ele>
        <time>2018-09-25T21:32:02.819Z</time>
      </trkpt>
      <trkpt lat="43.43484" lon="3.43691">
        <ele>38</ele>
        <time>2018-09-25T21:32:03.819Z</time>
      </trkpt>
      <trkpt lat="43.4349" lon="3.43698">
        <ele>38</ele>
        <time>2018-09-25T21:32:04.819Z</time>
      </trkpt>
      <trkpt lat="43.43496" lon="3.43706">
        <ele>38</ele>
        <time>2018-09-25T21:32:05.819Z</time>
      </trkpt>
      <trkpt lat="43.43501" lon="3.4371">
        <ele>38</ele>
        <time>2018-09-25T21:32:06.819Z</time>
      </trkpt>
      <trkpt lat="43.43505" lon="3.43716">
        <ele>38</ele>
        <time>2018-09-25T21:32:07.819Z</time>
      </trkpt>
      <trkpt lat="43.43506" lon="3.4372">
        <ele>38</ele>
        <time>2018-09-25T21:32:08.819Z</time>
      </trkpt>
      <trkpt lat="43.43512" lon="3.43715">
        <ele>38</ele>
        <time>2018-09-25T21:32:11.819Z</time>
      </trkpt>
      <trkpt lat="43.43516" lon="3.43709">
        <ele>38</ele>
        <time>2018-09-25T21:32:12.819Z</time>
      </trkpt>
      <trkpt lat="43.43521" lon="3.43704">
        <ele>38</ele>
        <time>2018-09-25T21:32:13.819Z</time>
      </trkpt>
      <trkpt lat="43.43526" lon="3.43701">
        <ele>38</ele>
        <time>2018-09-25T21:32:14.819Z</time>
      </trkpt>
      <trkpt lat="43.43532" lon="3.437">
        <ele>38</ele>
        <time>2018-09-25T21:32:15.819Z</time>
      </trkpt>
      <trkpt lat="43.43537" lon="3.43701">
        <ele>38</ele>
        <time>2018-09-25T21:32:16.819Z</time>
      </trkpt>
      <trkpt lat="43.43541" lon="3.43702">
        <ele>38</ele>
        <time>2018-09-25T21:32:17.819Z</time>
      </trkpt>
      <trkpt lat="43.43544" lon="3.43702">
        <ele>38</ele>
        <time>2018-09-25T21:32:18.819Z</time>
      </trkpt>
      <trkpt lat="43.43548" lon="3.437">
        <ele>38</ele>
        <time>2018-09-25T21:32:20.819Z</time>
      </trkpt>
      <trkpt lat="43.43553" lon="3.43701">
        <ele>38</ele>
        <time>2018-09-25T21:32:24.819Z</time>
      </trkpt>
      <trkpt lat="43.43556" lon="3.43705">
        <ele>38</ele>
        <time>2018-09-25T21:32:25.819Z</time>
      </trkpt>
      <trkpt lat="43.43557" lon="3.43711">
        <ele>38</ele>
        <time>2018-09-25T21:32:26.819Z</time>
      </trkpt>
      <trkpt lat="43.43559" lon="3.43717">
        <ele>38</ele>
        <time>2018-09-25T21:32:27.819Z</time>
      </trkpt>
      <trkpt lat="43.43561" lon="3.43724">
        <ele>38</ele>
        <time>2018-09-25T21:32:28.819Z</time>
      </trkpt>
      <trkpt lat="43.43564" lon="3.43731">
        <ele>38</ele>
        <time>2018-09-25T21:32:29.819Z</time>
      </trkpt>
      <trkpt lat="43.43567" lon="3.43737">
        <ele>38</ele>
        <time>2018-09-25T21:32:30.819Z</time>
      </trkpt>
      <trkpt lat="43.4357" lon="3.43744">
        <ele>38</ele>
        <time>2018-09-25T21:32:31.819Z</time>
      </trkpt>
      <trkpt lat="43.43573" lon="3.4375">
        <ele>38</ele>
        <time>2018-09-25T21:32:32.819Z</time>
      </trkpt>
      <trkpt lat="43.43575" lon="3.43755">
        <ele>39.1</ele>
        <time>2018-09-25T21:32:33.819Z</time>
      </trkpt>
      <trkpt lat="43.43577" lon="3.43759">
        <ele>40.5</ele>
        <time>2018-09-25T21:32:34.819Z</time>
      </trkpt>
      <trkpt lat="43.43579" lon="3.43764">
        <ele>42</ele>
        <time>2018-09-25T21:32:35.819Z</time>
      </trkpt>
      <trkpt lat="43.43582" lon="3.4377">
        <ele>43</ele>
        <time>2018-09-25T21:32:37.819Z</time>
      </trkpt>
      <trkpt lat="43.43583" lon="3.43775">
        <ele>43</ele>
        <time>2018-09-25T21:32:38.819Z</time>
      </trkpt>
      <trkpt lat="43.43583" lon="3.43779">
        <ele>43</ele>
        <time>2018-09-25T21:32:39.819Z</time>
      </trkpt>
      <trkpt lat="43.43585" lon="3.43785">
        <ele>43</ele>
        <time>2018-09-25T21:32:40.819Z</time>
      </trkpt>
      <trkpt lat="43.43585" lon="3.43789">
        <ele>43</ele>
        <time>2018-09-25T21:32:41.819Z</time>
      </trkpt>
      <trkpt lat="43.43586" lon="3.43793">
        <ele>43</ele>
        <time>2018-09-25T21:32:42.819Z</time>
      </trkpt>
      <trkpt lat="43.43586" lon="3.438">
        <ele>43</ele>
        <time>2018-09-25T21:32:44.819Z</time>
      </trkpt>
      <trkpt lat="43.43586" lon="3.43805">
        <ele>43</ele>
        <time>2018-09-25T21:32:45.819Z</time>
      </trkpt>
      <trkpt lat="43.43586" lon="3.43811">
        <ele>43</ele>
        <time>2018-09-25T21:32:46.819Z</time>
      </trkpt>
      <trkpt lat="43.43587" lon="3.43817">
        <ele>43</ele>
        <time>2018-09-25T21:32:47.819Z</time>
      </trkpt>
      <trkpt lat="43.43588" lon="3.43822">
        <ele>43</ele>
        <time>2018-09-25T21:32:48.819Z</time>
      </trkpt>
      <trkpt lat="43.43588" lon="3.43828">
        <ele>43</ele>
        <time>2018-09-25T21:32:49.819Z</time>
      </trkpt>
      <trkpt lat="43.43587" lon="3.43834">
        <ele>44.1</ele>
        <time>2018-09-25T21:32:50.819Z</time>
      </trkpt>
      <trkpt lat="43.43587" lon="3.43839">
        <ele>46</ele>
        <time>2018-09-25T21:32:51.819Z</time>
      </trkpt>
      <trkpt lat="43.43586" lon="3.43846">
        <ele>46</ele>
        <time>2018-09-25T21:32:52.819Z</time>
      </trkpt>
      <trkpt lat="43.43586" lon="3.43852">
        <ele>46</ele>
        <time>2018-09-25T21:32:53.819Z</time>
      </trkpt>
      <trkpt lat="43.43586" lon="3.43857">
        <ele>46</ele>
        <time>2018-09-25T21:32:54.819Z</time>
      </trkpt>
      <trkpt lat="43.43586" lon="3.43862">
        <ele>46</ele>
        <time>2018-09-25T21:32:55.819Z</time>
      </trkpt>
      <trkpt lat="43.43585" lon="3.43866">
        <ele>46</ele>
        <time>2018-09-25T21:32:56.819Z</time>
      </trkpt>
      <trkpt lat="43.43585" lon="3.43871">
        <ele>46</ele>
        <time>2018-09-25T21:32:57.819Z</time>
      </trkpt>
      <trkpt lat="43.43585" lon="3.43877">
        <ele>46</ele>
        <time>2018-09-25T21:32:58.819Z</time>
      </trkpt>
      <trkpt lat="43.43585" lon="3.43882">
        <ele>46</ele>
        <time>2018-09-25T21:32:59.819Z</time>
      </trkpt>
      <trkpt lat="43.43585" lon="3.43888">
        <ele>46</ele>
        <time>2018-09-25T21:33:00.819Z</time>
      </trkpt>
      <trkpt lat="43.43586" lon="3.43894">
        <ele>46</ele>
        <time>2018-09-25T21:33:01.819Z</time>
      </trkpt>
      <trkpt lat="43.43587" lon="3.43898">
        <ele>46</ele>
        <time>2018-09-25T21:33:02.819Z</time>
      </trkpt>
      <trkpt lat="43.43588" lon="3.43902">
        <ele>46</ele>
        <time>2018-09-25T21:33:03.819Z</time>
      </trkpt>
      <trkpt lat="43.43591" lon="3.43905">
        <ele>46</ele>
        <time>2018-09-25T21:33:04.819Z</time>
      </trkpt>
      <trkpt lat="43.43595" lon="3.4391">
        <ele>45.8</ele>
        <time>2018-09-25T21:33:05.819Z</time>
      </trkpt>
      <trkpt lat="43.43598" lon="3.43913">
        <ele>45.6</ele>
        <time>2018-09-25T21:33:06.819Z</time>
      </trkpt>
      <trkpt lat="43.43603" lon="3.43916">
        <ele>45.4</ele>
        <time>2018-09-25T21:33:07.819Z</time>
      </trkpt>
      <trkpt lat="43.43608" lon="3.43916">
        <ele>45.3</ele>
        <time>2018-09-25T21:33:08.819Z</time>
      </trkpt>
      <trkpt lat="43.43612" lon="3.4392">
        <ele>45.1</ele>
        <time>2018-09-25T21:33:09.819Z</time>
      </trkpt>
      <trkpt lat="43.43615" lon="3.43924">
        <ele>45</ele>
        <time>2018-09-25T21:33:10.819Z</time>
      </trkpt>
      <trkpt lat="43.43619" lon="3.43928">
        <ele>44.8</ele>
        <time>2018-09-25T21:33:11.819Z</time>
      </trkpt>
      <trkpt lat="43.43624" lon="3.4393">
        <ele>44.7</ele>
        <time>2018-09-25T21:33:12.819Z</time>
      </trkpt>
      <trkpt lat="43.43628" lon="3.43932">
        <ele>44.6</ele>
        <time>2018-09-25T21:33:13.819Z</time>
      </trkpt>
      <trkpt lat="43.43632" lon="3.43934">
        <ele>44.5</ele>
        <time>2018-09-25T21:33:14.819Z</time>
      </trkpt>
      <trkpt lat="43.43636" lon="3.43933">
        <ele>44.5</ele>
        <time>2018-09-25T21:33:15.819Z</time>
      </trkpt>
      <trkpt lat="43.43641" lon="3.43934">
        <ele>44.4</ele>
        <time>2018-09-25T21:33:16.819Z</time>
      </trkpt>
      <trkpt lat="43.43644" lon="3.43936">
        <ele>44.4</ele>
        <time>2018-09-25T21:33:17.819Z</time>
      </trkpt>
      <trkpt lat="43.43648" lon="3.43938">
        <ele>44.3</ele>
        <time>2018-09-25T21:33:18.819Z</time>
      </trkpt>
      <trkpt lat="43.43653" lon="3.43942">
        <ele>44.2</ele>
        <time>2018-09-25T21:33:19.819Z</time>
      </trkpt>
      <trkpt lat="43.43656" lon="3.43945">
        <ele>44.2</ele>
        <time>2018-09-25T21:33:20.819Z</time>
      </trkpt>
      <trkpt lat="43.43659" lon="3.43947">
        <ele>44.1</ele>
        <time>2018-09-25T21:33:21.819Z</time>
      </trkpt>
      <trkpt lat="43.43663" lon="3.43947">
        <ele>44.1</ele>
        <time>2018-09-25T21:33:22.819Z</time>
      </trkpt>
      <trkpt lat="43.43666" lon="3.43949">
        <ele>44</ele>
        <time>2018-09-25T21:33:23.819Z</time>
      </trkpt>
      <trkpt lat="43.4367" lon="3.4395">
        <ele>44</ele>
        <time>2018-09-25T21:33:24.819Z</time>
      </trkpt>
      <trkpt lat="43.43674" lon="3.43953">
        <ele>43.8</ele>
        <time>2018-09-25T21:33:25.819Z</time>
      </trkpt>
      <trkpt lat="43.43678" lon="3.43957">
        <ele>43.5</ele>
        <time>2018-09-25T21:33:26.819Z</time>
      </trkpt>
      <trkpt lat="43.43681" lon="3.4396">
        <ele>43.4</ele>
        <time>2018-09-25T21:33:27.819Z</time>
      </trkpt>
      <trkpt lat="43.43684" lon="3.43962">
        <ele>43.3</ele>
        <time>2018-09-25T21:33:28.819Z</time>
      </trkpt>
      <trkpt lat="43.43686" lon="3.43966">
        <ele>43.3</ele>
        <time>2018-09-25T21:33:29.819Z</time>
      </trkpt>
      <trkpt lat="43.43689" lon="3.43973">
        <ele>43.5</ele>
        <time>2018-09-25T21:33:31.819Z</time>
      </trkpt>
      <trkpt lat="43.43693" lon="3.43979">
        <ele>43.4</ele>
        <time>2018-09-25T21:33:33.819Z</time>
      </trkpt>
      <trkpt lat="43.43695" lon="3.43985">
        <ele>43.3</ele>
        <time>2018-09-25T21:33:34.819Z</time>
      </trkpt>
      <trkpt lat="43.43696" lon="3.43989">
        <ele>43.3</ele>
        <time>2018-09-25T21:33:35.819Z</time>
      </trkpt>
      <trkpt lat="43.43698" lon="3.43994">
        <ele>43.6</ele>
        <time>2018-09-25T21:33:36.819Z</time>
      </trkpt>
      <trkpt lat="43.43699" lon="3.44">
        <ele>44.5</ele>
        <time>2018-09-25T21:33:37.819Z</time>
      </trkpt>
      <trkpt lat="43.43699" lon="3.44007">
        <ele>45.8</ele>
        <time>2018-09-25T21:33:38.819Z</time>
      </trkpt>
      <trkpt lat="43.43701" lon="3.44013">
        <ele>46.9</ele>
        <time>2018-09-25T21:33:39.819Z</time>
      </trkpt>
      <trkpt lat="43.43702" lon="3.44017">
        <ele>47.8</ele>
        <time>2018-09-25T21:33:40.819Z</time>
      </trkpt>
      <trkpt lat="43.43702" lon="3.44024">
        <ele>48.8</ele>
        <time>2018-09-25T21:33:41.819Z</time>
      </trkpt>
      <trkpt lat="43.43702" lon="3.44031">
        <ele>49.8</ele>
        <time>2018-09-25T21:33:42.819Z</time>
      </trkpt>
      <trkpt lat="43.43701" lon="3.44037">
        <ele>50.6</ele>
        <time>2018-09-25T21:33:43.819Z</time>
      </trkpt>
      <trkpt lat="43.43701" lon="3.44042">
        <ele>51</ele>
        <time>2018-09-25T21:33:44.819Z</time>
      </trkpt>
      <trkpt lat="43.43702" lon="3.44046">
        <ele>51.4</ele>
        <time>2018-09-25T21:33:45.819Z</time>
      </trkpt>
      <trkpt lat="43.437" lon="3.44051">
        <ele>51.9</ele>
        <time>2018-09-25T21:33:46.819Z</time>
      </trkpt>
      <trkpt lat="43.43698" lon="3.44058">
        <ele>52.6</ele>
        <time>2018-09-25T21:33:47.819Z</time>
      </trkpt>
      <trkpt lat="43.43699" lon="3.44063">
        <ele>53.1</ele>
        <time>2018-09-25T21:33:48.819Z</time>
      </trkpt>
      <trkpt lat="43.43699" lon="3.44068">
        <ele>53.7</ele>
        <time>2018-09-25T21:33:49.819Z</time>
      </trkpt>
      <trkpt lat="43.43698" lon="3.44074">
        <ele>54.4</ele>
        <time>2018-09-25T21:33:50.819Z</time>
      </trkpt>
      <trkpt lat="43.43699" lon="3.44078">
        <ele>54.9</ele>
        <time>2018-09-25T21:33:51.819Z</time>
      </trkpt>
      <trkpt lat="43.43699" lon="3.44082">
        <ele>55.6</ele>
        <time>2018-09-25T21:33:52.819Z</time>
      </trkpt>
      <trkpt lat="43.43702" lon="3.44088">
        <ele>55</ele>
        <time>2018-09-25T21:33:54.819Z</time>
      </trkpt>
      <trkpt lat="43.43705" lon="3.44091">
        <ele>54.6</ele>
        <time>2018-09-25T21:33:55.819Z</time>
      </trkpt>
      <trkpt lat="43.4371" lon="3.4409">
        <ele>54.1</ele>
        <time>2018-09-25T21:33:56.819Z</time>
      </trkpt>
      <trkpt lat="43.43716" lon="3.4409">
        <ele>53.4</ele>
        <time>2018-09-25T21:33:57.819Z</time>
      </trkpt>
      <trkpt lat="43.43721" lon="3.4409">
        <ele>52.8</ele>
        <time>2018-09-25T21:33:58.819Z</time>
      </trkpt>
      <trkpt lat="43.43729" lon="3.4409">
        <ele>52</ele>
        <time>2018-09-25T21:33:59.819Z</time>
      </trkpt>
      <trkpt lat="43.43736" lon="3.4409">
        <ele>51.3</ele>
        <time>2018-09-25T21:34:00.819Z</time>
      </trkpt>
      <trkpt lat="43.43743" lon="3.44091">
        <ele>50.3</ele>
        <time>2018-09-25T21:34:01.819Z</time>
      </trkpt>
      <trkpt lat="43.43752" lon="3.44092">
        <ele>48.4</ele>
        <time>2018-09-25T21:34:02.819Z</time>
      </trkpt>
      <trkpt lat="43.43762" lon="3.44094">
        <ele>48.1</ele>
        <time>2018-09-25T21:34:03.819Z</time>
      </trkpt>
      <trkpt lat="43.43772" lon="3.44097">
        <ele>48.3</ele>
        <time>2018-09-25T21:34:04.819Z</time>
      </trkpt>
      <trkpt lat="43.43784" lon="3.441">
        <ele>48.4</ele>
        <time>2018-09-25T21:34:05.819Z</time>
      </trkpt>
      <trkpt lat="43.43793" lon="3.44104">
        <ele>48.4</ele>
        <time>2018-09-25T21:34:06.819Z</time>
      </trkpt>
      <trkpt lat="43.43802" lon="3.44109">
        <ele>48.3</ele>
        <time>2018-09-25T21:34:07.819Z</time>
      </trkpt>
      <trkpt lat="43.4381" lon="3.44114">
        <ele>48.2</ele>
        <time>2018-09-25T21:34:08.819Z</time>
      </trkpt>
      <trkpt lat="43.43818" lon="3.44118">
        <ele>48.2</ele>
        <time>2018-09-25T21:34:09.819Z</time>
      </trkpt>
      <trkpt lat="43.43825" lon="3.44123">
        <ele>48.1</ele>
        <time>2018-09-25T21:34:10.819Z</time>
      </trkpt>
      <trkpt lat="43.43831" lon="3.44128">
        <ele>47.9</ele>
        <time>2018-09-25T21:34:11.819Z</time>
      </trkpt>
      <trkpt lat="43.43837" lon="3.44133">
        <ele>46.5</ele>
        <time>2018-09-25T21:34:12.819Z</time>
      </trkpt>
      <trkpt lat="43.43843" lon="3.44138">
        <ele>45.2</ele>
        <time>2018-09-25T21:34:13.819Z</time>
      </trkpt>
      <trkpt lat="43.4385" lon="3.44144">
        <ele>43.8</ele>
        <time>2018-09-25T21:34:14.819Z</time>
      </trkpt>
      <trkpt lat="43.43857" lon="3.4415">
        <ele>42.8</ele>
        <time>2018-09-25T21:34:15.819Z</time>
      </trkpt>
      <trkpt lat="43.43864" lon="3.44155">
        <ele>42</ele>
        <time>2018-09-25T21:34:16.819Z</time>
      </trkpt>
      <trkpt lat="43.43872" lon="3.44159">
        <ele>41.2</ele>
        <time>2018-09-25T21:34:17.819Z</time>
      </trkpt>
      <trkpt lat="43.43879" lon="3.44164">
        <ele>40.2</ele>
        <time>2018-09-25T21:34:18.819Z</time>
      </trkpt>
      <trkpt lat="43.43887" lon="3.44166">
        <ele>38.9</ele>
        <time>2018-09-25T21:34:19.819Z</time>
      </trkpt>
      <trkpt lat="43.43897" lon="3.44169">
        <ele>37.4</ele>
        <time>2018-09-25T21:34:20.819Z</time>
      </trkpt>
      <trkpt lat="43.43906" lon="3.44169">
        <ele>35.9</ele>
        <time>2018-09-25T21:34:21.819Z</time>
      </trkpt>
      <trkpt lat="43.43916" lon="3.4417">
        <ele>34.2</ele>
        <time>2018-09-25T21:34:22.819Z</time>
      </trkpt>
      <trkpt lat="43.43926" lon="3.44171">
        <ele>32.5</ele>
        <time>2018-09-25T21:34:23.819Z</time>
      </trkpt>
      <trkpt lat="43.43935" lon="3.44171">
        <ele>30.9</ele>
        <time>2018-09-25T21:34:24.819Z</time>
      </trkpt>
      <trkpt lat="43.43944" lon="3.4417">
        <ele>30</ele>
        <time>2018-09-25T21:34:25.819Z</time>
      </trkpt>
      <trkpt lat="43.43953" lon="3.44169">
        <ele>29.9</ele>
        <time>2018-09-25T21:34:26.819Z</time>
      </trkpt>
      <trkpt lat="43.43962" lon="3.44168">
        <ele>29.9</ele>
        <time>2018-09-25T21:34:27.819Z</time>
      </trkpt>
      <trkpt lat="43.4397" lon="3.44168">
        <ele>29.9</ele>
        <time>2018-09-25T21:34:28.819Z</time>
      </trkpt>
      <trkpt lat="43.43978" lon="3.4417">
        <ele>29.9</ele>
        <time>2018-09-25T21:34:29.819Z</time>
      </trkpt>
      <trkpt lat="43.43985" lon="3.44172">
        <ele>30</ele>
        <time>2018-09-25T21:34:30.819Z</time>
      </trkpt>
      <trkpt lat="43.43992" lon="3.44176">
        <ele>30</ele>
        <time>2018-09-25T21:34:31.819Z</time>
      </trkpt>
      <trkpt lat="43.43999" lon="3.44181">
        <ele>30.1</ele>
        <time>2018-09-25T21:34:32.819Z</time>
      </trkpt>
      <trkpt lat="43.44006" lon="3.44187">
        <ele>30.2</ele>
        <time>2018-09-25T21:34:33.819Z</time>
      </trkpt>
      <trkpt lat="43.44013" lon="3.44192">
        <ele>30.3</ele>
        <time>2018-09-25T21:34:34.819Z</time>
      </trkpt>
      <trkpt lat="43.4402" lon="3.44197">
        <ele>30.5</ele>
        <time>2018-09-25T21:34:35.819Z</time>
      </trkpt>
      <trkpt lat="43.44026" lon="3.44203">
        <ele>30.7</ele>
        <time>2018-09-25T21:34:36.819Z</time>
      </trkpt>
      <trkpt lat="43.44033" lon="3.44206">
        <ele>30.9</ele>
        <time>2018-09-25T21:34:37.819Z</time>
      </trkpt>
      <trkpt lat="43.44041" lon="3.44207">
        <ele>31</ele>
        <time>2018-09-25T21:34:38.819Z</time>
      </trkpt>
      <trkpt lat="43.4405" lon="3.44206">
        <ele>31</ele>
        <time>2018-09-25T21:34:39.819Z</time>
      </trkpt>
      <trkpt lat="43.44058" lon="3.44204">
        <ele>30.3</ele>
        <time>2018-09-25T21:34:40.819Z</time>
      </trkpt>
      <trkpt lat="43.44066" lon="3.44203">
        <ele>29.5</ele>
        <time>2018-09-25T21:34:41.819Z</time>
      </trkpt>
      <trkpt lat="43.44074" lon="3.44202">
        <ele>28.9</ele>
        <time>2018-09-25T21:34:42.819Z</time>
      </trkpt>
      <trkpt lat="43.44081" lon="3.44202">
        <ele>28.2</ele>
        <time>2018-09-25T21:34:43.819Z</time>
      </trkpt>
      <trkpt lat="43.44088" lon="3.44203">
        <ele>27.7</ele>
        <time>2018-09-25T21:34:44.819Z</time>
      </trkpt>
      <trkpt lat="43.44095" lon="3.44204">
        <ele>27.5</ele>
        <time>2018-09-25T21:34:45.819Z</time>
      </trkpt>
      <trkpt lat="43.44101" lon="3.44206">
        <ele>27.3</ele>
        <time>2018-09-25T21:34:46.819Z</time>
      </trkpt>
      <trkpt lat="43.44107" lon="3.44208">
        <ele>27.1</ele>
        <time>2018-09-25T21:34:47.819Z</time>
      </trkpt>
      <trkpt lat="43.44113" lon="3.4421">
        <ele>27.1</ele>
        <time>2018-09-25T21:34:48.819Z</time>
      </trkpt>
      <trkpt lat="43.44118" lon="3.44213">
        <ele>27</ele>
        <time>2018-09-25T21:34:49.819Z</time>
      </trkpt>
      <trkpt lat="43.44125" lon="3.44216">
        <ele>26.9</ele>
        <time>2018-09-25T21:34:50.819Z</time>
      </trkpt>
      <trkpt lat="43.4413" lon="3.44219">
        <ele>27</ele>
        <time>2018-09-25T21:34:51.819Z</time>
      </trkpt>
      <trkpt lat="43.44136" lon="3.44223">
        <ele>27</ele>
        <time>2018-09-25T21:34:52.819Z</time>
      </trkpt>
      <trkpt lat="43.44141" lon="3.44227">
        <ele>27.1</ele>
        <time>2018-09-25T21:34:53.819Z</time>
      </trkpt>
      <trkpt lat="43.44146" lon="3.44232">
        <ele>27.2</ele>
        <time>2018-09-25T21:34:54.819Z</time>
      </trkpt>
      <trkpt lat="43.4415" lon="3.44237">
        <ele>27.4</ele>
        <time>2018-09-25T21:34:55.819Z</time>
      </trkpt>
      <trkpt lat="43.44155" lon="3.44242">
        <ele>27.5</ele>
        <time>2018-09-25T21:34:56.819Z</time>
      </trkpt>
      <trkpt lat="43.44159" lon="3.44246">
        <ele>27.6</ele>
        <time>2018-09-25T21:34:57.819Z</time>
      </trkpt>
      <trkpt lat="43.44163" lon="3.44249">
        <ele>27.7</ele>
        <time>2018-09-25T21:34:58.819Z</time>
      </trkpt>
      <trkpt lat="43.44167" lon="3.44252">
        <ele>27.8</ele>
        <time>2018-09-25T21:34:59.819Z</time>
      </trkpt>
      <trkpt lat="43.44172" lon="3.44255">
        <ele>28</ele>
        <time>2018-09-25T21:35:00.819Z</time>
      </trkpt>
      <trkpt lat="43.44177" lon="3.44257">
        <ele>28</ele>
        <time>2018-09-25T21:35:01.819Z</time>
      </trkpt>
      <trkpt lat="43.44183" lon="3.4426">
        <ele>28</ele>
        <time>2018-09-25T21:35:02.819Z</time>
      </trkpt>
      <trkpt lat="43.44188" lon="3.44262">
        <ele>28</ele>
        <time>2018-09-25T21:35:03.819Z</time>
      </trkpt>
      <trkpt lat="43.44194" lon="3.44263">
        <ele>28</ele>
        <time>2018-09-25T21:35:04.819Z</time>
      </trkpt>
      <trkpt lat="43.44201" lon="3.44266">
        <ele>28</ele>
        <time>2018-09-25T21:35:05.819Z</time>
      </trkpt>
      <trkpt lat="43.44207" lon="3.44269">
        <ele>27.5</ele>
        <time>2018-09-25T21:35:06.819Z</time>
      </trkpt>
      <trkpt lat="43.44212" lon="3.44271">
        <ele>27.1</ele>
        <time>2018-09-25T21:35:07.819Z</time>
      </trkpt>
      <trkpt lat="43.44217" lon="3.44272">
        <ele>26.8</ele>
        <time>2018-09-25T21:35:08.819Z</time>
      </trkpt>
      <trkpt lat="43.44222" lon="3.44274">
        <ele>26.4</ele>
        <time>2018-09-25T21:35:09.819Z</time>
      </trkpt>
      <trkpt lat="43.44227" lon="3.44277">
        <ele>26</ele>
        <time>2018-09-25T21:35:10.819Z</time>
      </trkpt>
      <trkpt lat="43.44232" lon="3.44279">
        <ele>25.7</ele>
        <time>2018-09-25T21:35:11.819Z</time>
      </trkpt>
      <trkpt lat="43.44237" lon="3.4428">
        <ele>25.4</ele>
        <time>2018-09-25T21:35:12.819Z</time>
      </trkpt>
      <trkpt lat="43.44241" lon="3.44281">
        <ele>25.1</ele>
        <time>2018-09-25T21:35:13.819Z</time>
      </trkpt>
      <trkpt lat="43.44244" lon="3.44282">
        <ele>24.9</ele>
        <time>2018-09-25T21:35:14.819Z</time>
      </trkpt>
      <trkpt lat="43.44247" lon="3.44283">
        <ele>24.7</ele>
        <time>2018-09-25T21:35:15.819Z</time>
      </trkpt>
      <trkpt lat="43.4425" lon="3.44284">
        <ele>24.5</ele>
        <time>2018-09-25T21:35:16.819Z</time>
      </trkpt>
      <trkpt lat="43.44253" lon="3.44285">
        <ele>24.3</ele>
        <time>2018-09-25T21:35:17.819Z</time>
      </trkpt>
      <trkpt lat="43.44257" lon="3.44287">
        <ele>24</ele>
        <time>2018-09-25T21:35:18.819Z</time>
      </trkpt>
      <trkpt lat="43.44261" lon="3.44289">
        <ele>23.9</ele>
        <time>2018-09-25T21:35:19.819Z</time>
      </trkpt>
      <trkpt lat="43.44265" lon="3.44291">
        <ele>23.7</ele>
        <time>2018-09-25T21:35:20.819Z</time>
      </trkpt>
      <trkpt lat="43.4427" lon="3.44295">
        <ele>23.5</ele>
        <time>2018-09-25T21:35:21.819Z</time>
      </trkpt>
      <trkpt lat="43.44276" lon="3.443">
        <ele>23.3</ele>
        <time>2018-09-25T21:35:22.819Z</time>
      </trkpt>
      <trkpt lat="43.44282" lon="3.44305">
        <ele>23</ele>
        <time>2018-09-25T21:35:23.819Z</time>
      </trkpt>
      <trkpt lat="43.44288" lon="3.4431">
        <ele>22.7</ele>
        <time>2018-09-25T21:35:24.819Z</time>
      </trkpt>
      <trkpt lat="43.44295" lon="3.44315">
        <ele>22.3</ele>
        <time>2018-09-25T21:35:25.819Z</time>
      </trkpt>
      <trkpt lat="43.44301" lon="3.4432">
        <ele>21.9</ele>
        <time>2018-09-25T21:35:26.819Z</time>
      </trkpt>
      <trkpt lat="43.44309" lon="3.44323">
        <ele>21.4</ele>
        <time>2018-09-25T21:35:27.819Z</time>
      </trkpt>
      <trkpt lat="43.44318" lon="3.44325">
        <ele>20.8</ele>
        <time>2018-09-25T21:35:28.819Z</time>
      </trkpt>
      <trkpt lat="43.44327" lon="3.44327">
        <ele>20.2</ele>
        <time>2018-09-25T21:35:29.819Z</time>
      </trkpt>
      <trkpt lat="43.44336" lon="3.44327">
        <ele>19.3</ele>
        <time>2018-09-25T21:35:30.819Z</time>
      </trkpt>
      <trkpt lat="43.44344" lon="3.44327">
        <ele>18.4</ele>
        <time>2018-09-25T21:35:31.819Z</time>
      </trkpt>
      <trkpt lat="43.44353" lon="3.44325">
        <ele>18</ele>
        <time>2018-09-25T21:35:32.819Z</time>
      </trkpt>
      <trkpt lat="43.44362" lon="3.44322">
        <ele>18</ele>
        <time>2018-09-25T21:35:33.819Z</time>
      </trkpt>
      <trkpt lat="43.4437" lon="3.4432">
        <ele>18</ele>
        <time>2018-09-25T21:35:34.819Z</time>
      </trkpt>
      <trkpt lat="43.44378" lon="3.44318">
        <ele>18</ele>
        <time>2018-09-25T21:35:35.819Z</time>
      </trkpt>
      <trkpt lat="43.44385" lon="3.44317">
        <ele>18.3</ele>
        <time>2018-09-25T21:35:36.819Z</time>
      </trkpt>
      <trkpt lat="43.44392" lon="3.44315">
        <ele>18.6</ele>
        <time>2018-09-25T21:35:37.819Z</time>
      </trkpt>
      <trkpt lat="43.44398" lon="3.44314">
        <ele>18.9</ele>
        <time>2018-09-25T21:35:38.819Z</time>
      </trkpt>
      <trkpt lat="43.44404" lon="3.44312">
        <ele>19.2</ele>
        <time>2018-09-25T21:35:39.819Z</time>
      </trkpt>
      <trkpt lat="43.44409" lon="3.44311">
        <ele>19.4</ele>
        <time>2018-09-25T21:35:40.819Z</time>
      </trkpt>
      <trkpt lat="43.44413" lon="3.4431">
        <ele>19.6</ele>
        <time>2018-09-25T21:35:41.819Z</time>
      </trkpt>
      <trkpt lat="43.44417" lon="3.44309">
        <ele>19.8</ele>
        <time>2018-09-25T21:35:42.819Z</time>
      </trkpt>
      <trkpt lat="43.4442" lon="3.44308">
        <ele>20.1</ele>
        <time>2018-09-25T21:35:43.819Z</time>
      </trkpt>
      <trkpt lat="43.44423" lon="3.44306">
        <ele>20.3</ele>
        <time>2018-09-25T21:35:44.819Z</time>
      </trkpt>
      <trkpt lat="43.44426" lon="3.44305">
        <ele>20.6</ele>
        <time>2018-09-25T21:35:45.819Z</time>
      </trkpt>
      <trkpt lat="43.4443" lon="3.44303">
        <ele>20.8</ele>
        <time>2018-09-25T21:35:46.819Z</time>
      </trkpt>
      <trkpt lat="43.44433" lon="3.44303">
        <ele>21</ele>
        <time>2018-09-25T21:35:47.819Z</time>
      </trkpt>
      <trkpt lat="43.44437" lon="3.44302">
        <ele>21</ele>
        <time>2018-09-25T21:35:48.819Z</time>
      </trkpt>
      <trkpt lat="43.44441" lon="3.44302">
        <ele>21.1</ele>
        <time>2018-09-25T21:35:49.819Z</time>
      </trkpt>
      <trkpt lat="43.44445" lon="3.44302">
        <ele>21.1</ele>
        <time>2018-09-25T21:35:50.819Z</time>
      </trkpt>
      <trkpt lat="43.44448" lon="3.44303">
        <ele>21.1</ele>
        <time>2018-09-25T21:35:51.819Z</time>
      </trkpt>
      <trkpt lat="43.44452" lon="3.44303">
        <ele>21.1</ele>
        <time>2018-09-25T21:35:52.819Z</time>
      </trkpt>
      <trkpt lat="43.44456" lon="3.44304">
        <ele>21.1</ele>
        <time>2018-09-25T21:35:53.819Z</time>
      </trkpt>
      <trkpt lat="43.44459" lon="3.44305">
        <ele>21.1</ele>
        <time>2018-09-25T21:35:54.819Z</time>
      </trkpt>
      <trkpt lat="43.44463" lon="3.44306">
        <ele>21.1</ele>
        <time>2018-09-25T21:35:55.819Z</time>
      </trkpt>
      <trkpt lat="43.44466" lon="3.44308">
        <ele>21.1</ele>
        <time>2018-09-25T21:35:56.819Z</time>
      </trkpt>
      <trkpt lat="43.44469" lon="3.44309">
        <ele>21.1</ele>
        <time>2018-09-25T21:35:57.819Z</time>
      </trkpt>
      <trkpt lat="43.44473" lon="3.44311">
        <ele>21.1</ele>
        <time>2018-09-25T21:35:58.819Z</time>
      </trkpt>
      <trkpt lat="43.44476" lon="3.44313">
        <ele>21.1</ele>
        <time>2018-09-25T21:35:59.819Z</time>
      </trkpt>
      <trkpt lat="43.4448" lon="3.44315">
        <ele>21.1</ele>
        <time>2018-09-25T21:36:00.819Z</time>
      </trkpt>
      <trkpt lat="43.44483" lon="3.44317">
        <ele>21.1</ele>
        <time>2018-09-25T21:36:01.819Z</time>
      </trkpt>
      <trkpt lat="43.44486" lon="3.44319">
        <ele>21</ele>
        <time>2018-09-25T21:36:02.819Z</time>
      </trkpt>
      <trkpt lat="43.44489" lon="3.4432">
        <ele>21</ele>
        <time>2018-09-25T21:36:03.819Z</time>
      </trkpt>
      <trkpt lat="43.44491" lon="3.44323">
        <ele>21</ele>
        <time>2018-09-25T21:36:04.819Z</time>
      </trkpt>
      <trkpt lat="43.44494" lon="3.44325">
        <ele>21.3</ele>
        <time>2018-09-25T21:36:05.819Z</time>
      </trkpt>
      <trkpt lat="43.44497" lon="3.44328">
        <ele>22.2</ele>
        <time>2018-09-25T21:36:06.819Z</time>
      </trkpt>
      <trkpt lat="43.44499" lon="3.44331">
        <ele>22.9</ele>
        <time>2018-09-25T21:36:07.819Z</time>
      </trkpt>
      <trkpt lat="43.445" lon="3.44334">
        <ele>23.7</ele>
        <time>2018-09-25T21:36:08.819Z</time>
      </trkpt>
      <trkpt lat="43.44502" lon="3.44341">
        <ele>25</ele>
        <time>2018-09-25T21:36:10.819Z</time>
      </trkpt>
      <trkpt lat="43.44504" lon="3.44345">
        <ele>26</ele>
        <time>2018-09-25T21:36:12.819Z</time>
      </trkpt>
      <trkpt lat="43.44505" lon="3.4435">
        <ele>26.9</ele>
        <time>2018-09-25T21:36:14.819Z</time>
      </trkpt>
      <trkpt lat="43.44507" lon="3.44355">
        <ele>28</ele>
        <time>2018-09-25T21:36:16.819Z</time>
      </trkpt>
      <trkpt lat="43.44509" lon="3.4436">
        <ele>29.1</ele>
        <time>2018-09-25T21:36:18.819Z</time>
      </trkpt>
      <trkpt lat="43.4451" lon="3.44366">
        <ele>30.3</ele>
        <time>2018-09-25T21:36:20.819Z</time>
      </trkpt>
      <trkpt lat="43.44511" lon="3.44371">
        <ele>31</ele>
        <time>2018-09-25T21:36:21.819Z</time>
      </trkpt>
      <trkpt lat="43.4451" lon="3.44375">
        <ele>31</ele>
        <time>2018-09-25T21:36:22.819Z</time>
      </trkpt>
      <trkpt lat="43.4451" lon="3.4438">
        <ele>31.1</ele>
        <time>2018-09-25T21:36:23.819Z</time>
      </trkpt>
      <trkpt lat="43.44509" lon="3.44383">
        <ele>31.1</ele>
        <time>2018-09-25T21:36:24.819Z</time>
      </trkpt>
      <trkpt lat="43.44508" lon="3.44387">
        <ele>31.2</ele>
        <time>2018-09-25T21:36:25.819Z</time>
      </trkpt>
      <trkpt lat="43.44508" lon="3.44392">
        <ele>31.2</ele>
        <time>2018-09-25T21:36:26.819Z</time>
      </trkpt>
      <trkpt lat="43.44507" lon="3.44396">
        <ele>31.2</ele>
        <time>2018-09-25T21:36:27.819Z</time>
      </trkpt>
      <trkpt lat="43.44506" lon="3.44401">
        <ele>31.3</ele>
        <time>2018-09-25T21:36:28.819Z</time>
      </trkpt>
      <trkpt lat="43.44504" lon="3.44407">
        <ele>31.4</ele>
        <time>2018-09-25T21:36:29.819Z</time>
      </trkpt>
      <trkpt lat="43.44503" lon="3.44413">
        <ele>31.5</ele>
        <time>2018-09-25T21:36:30.819Z</time>
      </trkpt>
      <trkpt lat="43.44502" lon="3.44418">
        <ele>31.5</ele>
        <time>2018-09-25T21:36:31.819Z</time>
      </trkpt>
      <trkpt lat="43.44502" lon="3.44423">
        <ele>31.5</ele>
        <time>2018-09-25T21:36:32.819Z</time>
      </trkpt>
      <trkpt lat="43.44501" lon="3.44429">
        <ele>31.5</ele>
        <time>2018-09-25T21:36:33.819Z</time>
      </trkpt>
      <trkpt lat="43.445" lon="3.44436">
        <ele>31.5</ele>
        <time>2018-09-25T21:36:34.819Z</time>
      </trkpt>
      <trkpt lat="43.445" lon="3.44442">
        <ele>31.4</ele>
        <time>2018-09-25T21:36:35.819Z</time>
      </trkpt>
      <trkpt lat="43.44499" lon="3.44449">
        <ele>31.4</ele>
        <time>2018-09-25T21:36:36.819Z</time>
      </trkpt>
      <trkpt lat="43.44499" lon="3.44457">
        <ele>31.4</ele>
        <time>2018-09-25T21:36:37.819Z</time>
      </trkpt>
      <trkpt lat="43.44499" lon="3.44465">
        <ele>31.4</ele>
        <time>2018-09-25T21:36:38.819Z</time>
      </trkpt>
      <trkpt lat="43.44498" lon="3.44471">
        <ele>31.3</ele>
        <time>2018-09-25T21:36:39.819Z</time>
      </trkpt>
      <trkpt lat="43.44498" lon="3.44478">
        <ele>31.3</ele>
        <time>2018-09-25T21:36:40.819Z</time>
      </trkpt>
      <trkpt lat="43.44497" lon="3.44485">
        <ele>31.3</ele>
        <time>2018-09-25T21:36:41.819Z</time>
      </trkpt>
      <trkpt lat="43.44496" lon="3.44491">
        <ele>31.3</ele>
        <time>2018-09-25T21:36:42.819Z</time>
      </trkpt>
      <trkpt lat="43.44495" lon="3.44497">
        <ele>31.3</ele>
        <time>2018-09-25T21:36:43.819Z</time>
      </trkpt>
      <trkpt lat="43.44495" lon="3.44502">
        <ele>31.3</ele>
        <time>2018-09-25T21:36:44.819Z</time>
      </trkpt>
      <trkpt lat="43.44494" lon="3.44508">
        <ele>31.2</ele>
        <time>2018-09-25T21:36:45.819Z</time>
      </trkpt>
      <trkpt lat="43.44494" lon="3.44513">
        <ele>31.2</ele>
        <time>2018-09-25T21:36:46.819Z</time>
      </trkpt>
      <trkpt lat="43.44493" lon="3.44518">
        <ele>31.2</ele>
        <time>2018-09-25T21:36:47.819Z</time>
      </trkpt>
      <trkpt lat="43.44493" lon="3.44523">
        <ele>31.2</ele>
        <time>2018-09-25T21:36:48.819Z</time>
      </trkpt>
      <trkpt lat="43.44492" lon="3.44529">
        <ele>31.2</ele>
        <time>2018-09-25T21:36:49.819Z</time>
      </trkpt>
      <trkpt lat="43.44491" lon="3.44535">
        <ele>31.2</ele>
        <time>2018-09-25T21:36:50.819Z</time>
      </trkpt>
      <trkpt lat="43.4449" lon="3.4454">
        <ele>31.2</ele>
        <time>2018-09-25T21:36:51.819Z</time>
      </trkpt>
      <trkpt lat="43.44489" lon="3.44545">
        <ele>31.1</ele>
        <time>2018-09-25T21:36:52.819Z</time>
      </trkpt>
      <trkpt lat="43.44488" lon="3.4455">
        <ele>31.1</ele>
        <time>2018-09-25T21:36:53.819Z</time>
      </trkpt>
      <trkpt lat="43.44487" lon="3.44557">
        <ele>31.1</ele>
        <time>2018-09-25T21:36:54.819Z</time>
      </trkpt>
      <trkpt lat="43.44487" lon="3.44563">
        <ele>31.1</ele>
        <time>2018-09-25T21:36:55.819Z</time>
      </trkpt>
      <trkpt lat="43.44487" lon="3.44569">
        <ele>31.1</ele>
        <time>2018-09-25T21:36:56.819Z</time>
      </trkpt>
      <trkpt lat="43.44487" lon="3.44574">
        <ele>31.1</ele>
        <time>2018-09-25T21:36:57.819Z</time>
      </trkpt>
      <trkpt lat="43.44487" lon="3.4458">
        <ele>31.1</ele>
        <time>2018-09-25T21:36:58.819Z</time>
      </trkpt>
      <trkpt lat="43.44486" lon="3.44586">
        <ele>31.1</ele>
        <time>2018-09-25T21:36:59.819Z</time>
      </trkpt>
      <trkpt lat="43.44485" lon="3.4459">
        <ele>31.1</ele>
        <time>2018-09-25T21:37:00.819Z</time>
      </trkpt>
      <trkpt lat="43.44485" lon="3.44594">
        <ele>31.1</ele>
        <time>2018-09-25T21:37:01.819Z</time>
      </trkpt>
      <trkpt lat="43.44485" lon="3.44599">
        <ele>31.1</ele>
        <time>2018-09-25T21:37:02.819Z</time>
      </trkpt>
      <trkpt lat="43.44484" lon="3.44603">
        <ele>31.1</ele>
        <time>2018-09-25T21:37:03.819Z</time>
      </trkpt>
      <trkpt lat="43.44484" lon="3.44609">
        <ele>31.1</ele>
        <time>2018-09-25T21:37:04.819Z</time>
      </trkpt>
      <trkpt lat="43.44484" lon="3.44614">
        <ele>31</ele>
        <time>2018-09-25T21:37:05.819Z</time>
      </trkpt>
      <trkpt lat="43.44484" lon="3.44619">
        <ele>31</ele>
        <time>2018-09-25T21:37:06.819Z</time>
      </trkpt>
      <trkpt lat="43.44486" lon="3.44625">
        <ele>31.2</ele>
        <time>2018-09-25T21:37:07.819Z</time>
      </trkpt>
      <trkpt lat="43.44487" lon="3.4463">
        <ele>31.4</ele>
        <time>2018-09-25T21:37:08.819Z</time>
      </trkpt>
      <trkpt lat="43.4449" lon="3.44634">
        <ele>31.8</ele>
        <time>2018-09-25T21:37:09.819Z</time>
      </trkpt>
      <trkpt lat="43.44492" lon="3.44639">
        <ele>32.2</ele>
        <time>2018-09-25T21:37:10.819Z</time>
      </trkpt>
      <trkpt lat="43.44495" lon="3.44643">
        <ele>32.6</ele>
        <time>2018-09-25T21:37:11.819Z</time>
      </trkpt>
      <trkpt lat="43.44497" lon="3.44647">
        <ele>33.1</ele>
        <time>2018-09-25T21:37:12.819Z</time>
      </trkpt>
      <trkpt lat="43.44499" lon="3.44652">
        <ele>33.5</ele>
        <time>2018-09-25T21:37:13.819Z</time>
      </trkpt>
      <trkpt lat="43.44501" lon="3.44657">
        <ele>33.9</ele>
        <time>2018-09-25T21:37:14.819Z</time>
      </trkpt>
      <trkpt lat="43.44503" lon="3.44663">
        <ele>34.1</ele>
        <time>2018-09-25T21:37:15.819Z</time>
      </trkpt>
      <trkpt lat="43.44504" lon="3.44668">
        <ele>34.3</ele>
        <time>2018-09-25T21:37:16.819Z</time>
      </trkpt>
      <trkpt lat="43.44505" lon="3.44672">
        <ele>34.5</ele>
        <time>2018-09-25T21:37:17.819Z</time>
      </trkpt>
      <trkpt lat="43.44507" lon="3.44677">
        <ele>34.7</ele>
        <time>2018-09-25T21:37:18.819Z</time>
      </trkpt>
      <trkpt lat="43.44509" lon="3.44681">
        <ele>35</ele>
        <time>2018-09-25T21:37:19.819Z</time>
      </trkpt>
      <trkpt lat="43.44511" lon="3.44686">
        <ele>35.4</ele>
        <time>2018-09-25T21:37:20.819Z</time>
      </trkpt>
      <trkpt lat="43.44513" lon="3.4469">
        <ele>35.8</ele>
        <time>2018-09-25T21:37:21.819Z</time>
      </trkpt>
      <trkpt lat="43.44514" lon="3.44695">
        <ele>36.2</ele>
        <time>2018-09-25T21:37:22.819Z</time>
      </trkpt>
      <trkpt lat="43.44515" lon="3.447">
        <ele>36.6</ele>
        <time>2018-09-25T21:37:23.819Z</time>
      </trkpt>
      <trkpt lat="43.44517" lon="3.44705">
        <ele>36.8</ele>
        <time>2018-09-25T21:37:24.819Z</time>
      </trkpt>
      <trkpt lat="43.44518" lon="3.44709">
        <ele>37.1</ele>
        <time>2018-09-25T21:37:25.819Z</time>
      </trkpt>
      <trkpt lat="43.4452" lon="3.44712">
        <ele>37.2</ele>
        <time>2018-09-25T21:37:26.819Z</time>
      </trkpt>
      <trkpt lat="43.44521" lon="3.44717">
        <ele>37.5</ele>
        <time>2018-09-25T21:37:27.819Z</time>
      </trkpt>
      <trkpt lat="43.44523" lon="3.44721">
        <ele>37.7</ele>
        <time>2018-09-25T21:37:28.819Z</time>
      </trkpt>
      <trkpt lat="43.44524" lon="3.44725">
        <ele>37.9</ele>
        <time>2018-09-25T21:37:29.819Z</time>
      </trkpt>
      <trkpt lat="43.44526" lon="3.4473">
        <ele>38.1</ele>
        <time>2018-09-25T21:37:30.819Z</time>
      </trkpt>
      <trkpt lat="43.44527" lon="3.44733">
        <ele>38.4</ele>
        <time>2018-09-25T21:37:31.819Z</time>
      </trkpt>
      <trkpt lat="43.44528" lon="3.44738">
        <ele>38.9</ele>
        <time>2018-09-25T21:37:32.819Z</time>
      </trkpt>
      <trkpt lat="43.44529" lon="3.44742">
        <ele>39.3</ele>
        <time>2018-09-25T21:37:33.819Z</time>
      </trkpt>
      <trkpt lat="43.4453" lon="3.44747">
        <ele>39.7</ele>
        <time>2018-09-25T21:37:34.819Z</time>
      </trkpt>
      <trkpt lat="43.44531" lon="3.44751">
        <ele>40.1</ele>
        <time>2018-09-25T21:37:35.819Z</time>
      </trkpt>
      <trkpt lat="43.44532" lon="3.44755">
        <ele>40.3</ele>
        <time>2018-09-25T21:37:36.819Z</time>
      </trkpt>
      <trkpt lat="43.44532" lon="3.44761">
        <ele>40.5</ele>
        <time>2018-09-25T21:37:37.819Z</time>
      </trkpt>
      <trkpt lat="43.44533" lon="3.44766">
        <ele>40.7</ele>
        <time>2018-09-25T21:37:38.819Z</time>
      </trkpt>
      <trkpt lat="43.44534" lon="3.44771">
        <ele>40.9</ele>
        <time>2018-09-25T21:37:39.819Z</time>
      </trkpt>
      <trkpt lat="43.44534" lon="3.44775">
        <ele>41.1</ele>
        <time>2018-09-25T21:37:40.819Z</time>
      </trkpt>
      <trkpt lat="43.44535" lon="3.4478">
        <ele>41.6</ele>
        <time>2018-09-25T21:37:41.819Z</time>
      </trkpt>
      <trkpt lat="43.44537" lon="3.44785">
        <ele>42</ele>
        <time>2018-09-25T21:37:42.819Z</time>
      </trkpt>
      <trkpt lat="43.44538" lon="3.44789">
        <ele>42.4</ele>
        <time>2018-09-25T21:37:43.819Z</time>
      </trkpt>
      <trkpt lat="43.44539" lon="3.44792">
        <ele>42.8</ele>
        <time>2018-09-25T21:37:44.819Z</time>
      </trkpt>
      <trkpt lat="43.44541" lon="3.44797">
        <ele>43.1</ele>
        <time>2018-09-25T21:37:45.819Z</time>
      </trkpt>
      <trkpt lat="43.44543" lon="3.44801">
        <ele>43.4</ele>
        <time>2018-09-25T21:37:46.819Z</time>
      </trkpt>
      <trkpt lat="43.44545" lon="3.44806">
        <ele>43.6</ele>
        <time>2018-09-25T21:37:47.819Z</time>
      </trkpt>
      <trkpt lat="43.44546" lon="3.4481">
        <ele>43.8</ele>
        <time>2018-09-25T21:37:48.819Z</time>
      </trkpt>
      <trkpt lat="43.44548" lon="3.44814">
        <ele>44.1</ele>
        <time>2018-09-25T21:37:49.819Z</time>
      </trkpt>
      <trkpt lat="43.4455" lon="3.44818">
        <ele>44.5</ele>
        <time>2018-09-25T21:37:50.819Z</time>
      </trkpt>
      <trkpt lat="43.44554" lon="3.44824">
        <ele>45.3</ele>
        <time>2018-09-25T21:37:52.819Z</time>
      </trkpt>
      <trkpt lat="43.44557" lon="3.44827">
        <ele>45.8</ele>
        <time>2018-09-25T21:37:53.819Z</time>
      </trkpt>
      <trkpt lat="43.44559" lon="3.44831">
        <ele>46</ele>
        <time>2018-09-25T21:37:54.819Z</time>
      </trkpt>
      <trkpt lat="43.44561" lon="3.44836">
        <ele>46.3</ele>
        <time>2018-09-25T21:37:55.819Z</time>
      </trkpt>
      <trkpt lat="43.44563" lon="3.44839">
        <ele>46.5</ele>
        <time>2018-09-25T21:37:56.819Z</time>
      </trkpt>
      <trkpt lat="43.44565" lon="3.44843">
        <ele>46.8</ele>
        <time>2018-09-25T21:37:57.819Z</time>
      </trkpt>
      <trkpt lat="43.44567" lon="3.44847">
        <ele>47</ele>
        <time>2018-09-25T21:37:58.819Z</time>
      </trkpt>
      <trkpt lat="43.44569" lon="3.44851">
        <ele>47.2</ele>
        <time>2018-09-25T21:37:59.819Z</time>
      </trkpt>
      <trkpt lat="43.44571" lon="3.44855">
        <ele>47.6</ele>
        <time>2018-09-25T21:38:00.819Z</time>
      </trkpt>
      <trkpt lat="43.44573" lon="3.44859">
        <ele>48.1</ele>
        <time>2018-09-25T21:38:01.819Z</time>
      </trkpt>
      <trkpt lat="43.44575" lon="3.44864">
        <ele>48.6</ele>
        <time>2018-09-25T21:38:02.819Z</time>
      </trkpt>
      <trkpt lat="43.44576" lon="3.44868">
        <ele>49.1</ele>
        <time>2018-09-25T21:38:03.819Z</time>
      </trkpt>
      <trkpt lat="43.44578" lon="3.44872">
        <ele>49.4</ele>
        <time>2018-09-25T21:38:04.819Z</time>
      </trkpt>
      <trkpt lat="43.4458" lon="3.44877">
        <ele>49.6</ele>
        <time>2018-09-25T21:38:05.819Z</time>
      </trkpt>
      <trkpt lat="43.44583" lon="3.44881">
        <ele>49.8</ele>
        <time>2018-09-25T21:38:06.819Z</time>
      </trkpt>
      <trkpt lat="43.44585" lon="3.44885">
        <ele>50</ele>
        <time>2018-09-25T21:38:07.819Z</time>
      </trkpt>
      <trkpt lat="43.44587" lon="3.4489">
        <ele>50.2</ele>
        <time>2018-09-25T21:38:08.819Z</time>
      </trkpt>
      <trkpt lat="43.4459" lon="3.44895">
        <ele>50.4</ele>
        <time>2018-09-25T21:38:09.819Z</time>
      </trkpt>
      <trkpt lat="43.44592" lon="3.44899">
        <ele>50.9</ele>
        <time>2018-09-25T21:38:10.819Z</time>
      </trkpt>
      <trkpt lat="43.44594" lon="3.44903">
        <ele>51.3</ele>
        <time>2018-09-25T21:38:11.819Z</time>
      </trkpt>
      <trkpt lat="43.44596" lon="3.44907">
        <ele>51.8</ele>
        <time>2018-09-25T21:38:12.819Z</time>
      </trkpt>
      <trkpt lat="43.44598" lon="3.44912">
        <ele>52.1</ele>
        <time>2018-09-25T21:38:13.819Z</time>
      </trkpt>
      <trkpt lat="43.446" lon="3.44916">
        <ele>52.4</ele>
        <time>2018-09-25T21:38:14.819Z</time>
      </trkpt>
      <trkpt lat="43.44601" lon="3.44921">
        <ele>52.7</ele>
        <time>2018-09-25T21:38:15.819Z</time>
      </trkpt>
      <trkpt lat="43.44603" lon="3.44925">
        <ele>52.9</ele>
        <time>2018-09-25T21:38:16.819Z</time>
      </trkpt>
      <trkpt lat="43.44605" lon="3.44928">
        <ele>53.1</ele>
        <time>2018-09-25T21:38:17.819Z</time>
      </trkpt>
      <trkpt lat="43.44608" lon="3.44932">
        <ele>53.3</ele>
        <time>2018-09-25T21:38:18.819Z</time>
      </trkpt>
      <trkpt lat="43.4461" lon="3.44936">
        <ele>53.6</ele>
        <time>2018-09-25T21:38:19.819Z</time>
      </trkpt>
      <trkpt lat="43.44612" lon="3.4494">
        <ele>53.9</ele>
        <time>2018-09-25T21:38:20.819Z</time>
      </trkpt>
      <trkpt lat="43.44614" lon="3.44945">
        <ele>54.4</ele>
        <time>2018-09-25T21:38:21.819Z</time>
      </trkpt>
      <trkpt lat="43.44616" lon="3.4495">
        <ele>54.9</ele>
        <time>2018-09-25T21:38:22.819Z</time>
      </trkpt>
      <trkpt lat="43.44618" lon="3.44955">
        <ele>55.2</ele>
        <time>2018-09-25T21:38:23.819Z</time>
      </trkpt>
      <trkpt lat="43.4462" lon="3.4496">
        <ele>55.4</ele>
        <time>2018-09-25T21:38:24.819Z</time>
      </trkpt>
      <trkpt lat="43.44622" lon="3.44965">
        <ele>55.6</ele>
        <time>2018-09-25T21:38:25.819Z</time>
      </trkpt>
      <trkpt lat="43.44623" lon="3.44969">
        <ele>55.7</ele>
        <time>2018-09-25T21:38:26.819Z</time>
      </trkpt>
      <trkpt lat="43.44625" lon="3.44973">
        <ele>55.8</ele>
        <time>2018-09-25T21:38:27.819Z</time>
      </trkpt>
      <trkpt lat="43.44626" lon="3.44976">
        <ele>56</ele>
        <time>2018-09-25T21:38:28.819Z</time>
      </trkpt>
      <trkpt lat="43.44628" lon="3.4498">
        <ele>56.1</ele>
        <time>2018-09-25T21:38:29.819Z</time>
      </trkpt>
      <trkpt lat="43.44629" lon="3.44984">
        <ele>56.4</ele>
        <time>2018-09-25T21:38:30.819Z</time>
      </trkpt>
      <trkpt lat="43.44631" lon="3.44989">
        <ele>56.6</ele>
        <time>2018-09-25T21:38:31.819Z</time>
      </trkpt>
      <trkpt lat="43.44632" lon="3.44994">
        <ele>57.1</ele>
        <time>2018-09-25T21:38:32.819Z</time>
      </trkpt>
      <trkpt lat="43.44633" lon="3.44998">
        <ele>57.6</ele>
        <time>2018-09-25T21:38:33.819Z</time>
      </trkpt>
      <trkpt lat="43.44634" lon="3.45003">
        <ele>58</ele>
        <time>2018-09-25T21:38:34.819Z</time>
      </trkpt>
      <trkpt lat="43.44636" lon="3.45007">
        <ele>58.5</ele>
        <time>2018-09-25T21:38:35.819Z</time>
      </trkpt>
      <trkpt lat="43.44637" lon="3.45012">
        <ele>58.8</ele>
        <time>2018-09-25T21:38:36.819Z</time>
      </trkpt>
      <trkpt lat="43.44637" lon="3.45016">
        <ele>59.1</ele>
        <time>2018-09-25T21:38:37.819Z</time>
      </trkpt>
      <trkpt lat="43.44638" lon="3.4502">
        <ele>59.3</ele>
        <time>2018-09-25T21:38:38.819Z</time>
      </trkpt>
      <trkpt lat="43.44639" lon="3.45024">
        <ele>59.6</ele>
        <time>2018-09-25T21:38:39.819Z</time>
      </trkpt>
      <trkpt lat="43.44642" lon="3.45029">
        <ele>60.1</ele>
        <time>2018-09-25T21:38:41.819Z</time>
      </trkpt>
      <trkpt lat="43.44643" lon="3.45032">
        <ele>60.3</ele>
        <time>2018-09-25T21:38:43.819Z</time>
      </trkpt>
      <trkpt lat="43.44643" lon="3.45036">
        <ele>60.5</ele>
        <time>2018-09-25T21:38:45.819Z</time>
      </trkpt>
      <trkpt lat="43.44643" lon="3.45042">
        <ele>60.8</ele>
        <time>2018-09-25T21:38:56.819Z</time>
      </trkpt>
      <trkpt lat="43.44644" lon="3.45048">
        <ele>61.1</ele>
        <time>2018-09-25T21:38:58.819Z</time>
      </trkpt>
      <trkpt lat="43.44646" lon="3.45052">
        <ele>61.3</ele>
        <time>2018-09-25T21:38:59.819Z</time>
      </trkpt>
      <trkpt lat="43.44648" lon="3.45059">
        <ele>61.6</ele>
        <time>2018-09-25T21:39:01.819Z</time>
      </trkpt>
      <trkpt lat="43.44649" lon="3.45065">
        <ele>61.9</ele>
        <time>2018-09-25T21:39:03.819Z</time>
      </trkpt>
      <trkpt lat="43.4465" lon="3.45068">
        <ele>62</ele>
        <time>2018-09-25T21:39:04.819Z</time>
      </trkpt>
      <trkpt lat="43.4465" lon="3.45072">
        <ele>62.2</ele>
        <time>2018-09-25T21:39:05.819Z</time>
      </trkpt>
      <trkpt lat="43.4465" lon="3.45077">
        <ele>62.5</ele>
        <time>2018-09-25T21:39:06.819Z</time>
      </trkpt>
      <trkpt lat="43.4465" lon="3.45082">
        <ele>62.7</ele>
        <time>2018-09-25T21:39:07.819Z</time>
      </trkpt>
      <trkpt lat="43.4465" lon="3.45087">
        <ele>62.9</ele>
        <time>2018-09-25T21:39:08.819Z</time>
      </trkpt>
      <trkpt lat="43.44649" lon="3.45091">
        <ele>63.1</ele>
        <time>2018-09-25T21:39:09.819Z</time>
      </trkpt>
      <trkpt lat="43.44648" lon="3.45098">
        <ele>63.5</ele>
        <time>2018-09-25T21:39:11.819Z</time>
      </trkpt>
      <trkpt lat="43.44649" lon="3.45102">
        <ele>63.7</ele>
        <time>2018-09-25T21:39:12.819Z</time>
      </trkpt>
      <trkpt lat="43.4465" lon="3.45106">
        <ele>63.9</ele>
        <time>2018-09-25T21:39:13.819Z</time>
      </trkpt>
      <trkpt lat="43.44651" lon="3.45111">
        <ele>63.6</ele>
        <time>2018-09-25T21:39:14.819Z</time>
      </trkpt>
      <trkpt lat="43.44652" lon="3.45115">
        <ele>63.1</ele>
        <time>2018-09-25T21:39:15.819Z</time>
      </trkpt>
      <trkpt lat="43.44653" lon="3.4512">
        <ele>62.6</ele>
        <time>2018-09-25T21:39:16.819Z</time>
      </trkpt>
      <trkpt lat="43.44654" lon="3.45125">
        <ele>62.1</ele>
        <time>2018-09-25T21:39:17.819Z</time>
      </trkpt>
      <trkpt lat="43.44655" lon="3.45129">
        <ele>61.8</ele>
        <time>2018-09-25T21:39:18.819Z</time>
      </trkpt>
      <trkpt lat="43.44656" lon="3.45135">
        <ele>61.4</ele>
        <time>2018-09-25T21:39:19.819Z</time>
      </trkpt>
      <trkpt lat="43.44656" lon="3.45139">
        <ele>61</ele>
        <time>2018-09-25T21:39:20.819Z</time>
      </trkpt>
      <trkpt lat="43.44657" lon="3.45144">
        <ele>60.8</ele>
        <time>2018-09-25T21:39:21.819Z</time>
      </trkpt>
      <trkpt lat="43.44658" lon="3.45148">
        <ele>60.6</ele>
        <time>2018-09-25T21:39:22.819Z</time>
      </trkpt>
      <trkpt lat="43.44659" lon="3.45153">
        <ele>60.4</ele>
        <time>2018-09-25T21:39:23.819Z</time>
      </trkpt>
      <trkpt lat="43.4466" lon="3.45157">
        <ele>60.2</ele>
        <time>2018-09-25T21:39:24.819Z</time>
      </trkpt>
      <trkpt lat="43.44661" lon="3.45162">
        <ele>60.1</ele>
        <time>2018-09-25T21:39:25.819Z</time>
      </trkpt>
      <trkpt lat="43.44662" lon="3.45168">
        <ele>59.9</ele>
        <time>2018-09-25T21:39:26.819Z</time>
      </trkpt>
      <trkpt lat="43.44664" lon="3.45173">
        <ele>59.7</ele>
        <time>2018-09-25T21:39:27.819Z</time>
      </trkpt>
      <trkpt lat="43.44665" lon="3.45178">
        <ele>59.6</ele>
        <time>2018-09-25T21:39:28.819Z</time>
      </trkpt>
      <trkpt lat="43.44667" lon="3.45184">
        <ele>59.4</ele>
        <time>2018-09-25T21:39:29.819Z</time>
      </trkpt>
      <trkpt lat="43.44668" lon="3.4519">
        <ele>59.2</ele>
        <time>2018-09-25T21:39:30.819Z</time>
      </trkpt>
      <trkpt lat="43.4467" lon="3.45195">
        <ele>59.1</ele>
        <time>2018-09-25T21:39:31.819Z</time>
      </trkpt>
      <trkpt lat="43.44672" lon="3.452">
        <ele>58.9</ele>
        <time>2018-09-25T21:39:32.819Z</time>
      </trkpt>
      <trkpt lat="43.44674" lon="3.45205">
        <ele>58.8</ele>
        <time>2018-09-25T21:39:33.819Z</time>
      </trkpt>
      <trkpt lat="43.44675" lon="3.45209">
        <ele>58.7</ele>
        <time>2018-09-25T21:39:34.819Z</time>
      </trkpt>
      <trkpt lat="43.44676" lon="3.45212">
        <ele>58.6</ele>
        <time>2018-09-25T21:39:35.819Z</time>
      </trkpt>
      <trkpt lat="43.44678" lon="3.45217">
        <ele>58.4</ele>
        <time>2018-09-25T21:39:36.819Z</time>
      </trkpt>
      <trkpt lat="43.4468" lon="3.45221">
        <ele>58.3</ele>
        <time>2018-09-25T21:39:37.819Z</time>
      </trkpt>
      <trkpt lat="43.44682" lon="3.45225">
        <ele>58.2</ele>
        <time>2018-09-25T21:39:38.819Z</time>
      </trkpt>
      <trkpt lat="43.44683" lon="3.4523">
        <ele>58</ele>
        <time>2018-09-25T21:39:39.819Z</time>
      </trkpt>
      <trkpt lat="43.44685" lon="3.45236">
        <ele>57.8</ele>
        <time>2018-09-25T21:39:40.819Z</time>
      </trkpt>
      <trkpt lat="43.44686" lon="3.4524">
        <ele>57.7</ele>
        <time>2018-09-25T21:39:41.819Z</time>
      </trkpt>
      <trkpt lat="43.44687" lon="3.45246">
        <ele>57.5</ele>
        <time>2018-09-25T21:39:42.819Z</time>
      </trkpt>
      <trkpt lat="43.44688" lon="3.4525">
        <ele>57.4</ele>
        <time>2018-09-25T21:39:43.819Z</time>
      </trkpt>
      <trkpt lat="43.44689" lon="3.45254">
        <ele>57.2</ele>
        <time>2018-09-25T21:39:44.819Z</time>
      </trkpt>
      <trkpt lat="43.4469" lon="3.45258">
        <ele>57.1</ele>
        <time>2018-09-25T21:39:45.819Z</time>
      </trkpt>
      <trkpt lat="43.44691" lon="3.45264">
        <ele>56.9</ele>
        <time>2018-09-25T21:39:46.819Z</time>
      </trkpt>
      <trkpt lat="43.44691" lon="3.45269">
        <ele>56.8</ele>
        <time>2018-09-25T21:39:47.819Z</time>
      </trkpt>
      <trkpt lat="43.44691" lon="3.45274">
        <ele>56.6</ele>
        <time>2018-09-25T21:39:48.819Z</time>
      </trkpt>
      <trkpt lat="43.44692" lon="3.45279">
        <ele>56.5</ele>
        <time>2018-09-25T21:39:49.819Z</time>
      </trkpt>
      <trkpt lat="43.44692" lon="3.45284">
        <ele>56.3</ele>
        <time>2018-09-25T21:39:50.819Z</time>
      </trkpt>
      <trkpt lat="43.44693" lon="3.45289">
        <ele>56.2</ele>
        <time>2018-09-25T21:39:51.819Z</time>
      </trkpt>
      <trkpt lat="43.44693" lon="3.45296">
        <ele>55.9</ele>
        <time>2018-09-25T21:39:53.819Z</time>
      </trkpt>
      <trkpt lat="43.44694" lon="3.45301">
        <ele>55.8</ele>
        <time>2018-09-25T21:39:55.819Z</time>
      </trkpt>
      <trkpt lat="43.44695" lon="3.45307">
        <ele>55.6</ele>
        <time>2018-09-25T21:39:57.819Z</time>
      </trkpt>
      <trkpt lat="43.44696" lon="3.45312">
        <ele>55.4</ele>
        <time>2018-09-25T21:39:59.819Z</time>
      </trkpt>
      <trkpt lat="43.44696" lon="3.45316">
        <ele>55.2</ele>
        <time>2018-09-25T21:40:01.819Z</time>
      </trkpt>
      <trkpt lat="43.44696" lon="3.45321">
        <ele>55</ele>
        <time>2018-09-25T21:40:03.819Z</time>
      </trkpt>
      <trkpt lat="43.44699" lon="3.45325">
        <ele>55</ele>
        <time>2018-09-25T21:40:06.819Z</time>
      </trkpt>
      <trkpt lat="43.44702" lon="3.45328">
        <ele>55</ele>
        <time>2018-09-25T21:40:08.819Z</time>
      </trkpt>
      <trkpt lat="43.44705" lon="3.45329">
        <ele>54.8</ele>
        <time>2018-09-25T21:40:09.819Z</time>
      </trkpt>
      <trkpt lat="43.44709" lon="3.4533">
        <ele>54.5</ele>
        <time>2018-09-25T21:40:10.819Z</time>
      </trkpt>
      <trkpt lat="43.44713" lon="3.45332">
        <ele>54.3</ele>
        <time>2018-09-25T21:40:11.819Z</time>
      </trkpt>
      <trkpt lat="43.44717" lon="3.45332">
        <ele>54</ele>
        <time>2018-09-25T21:40:12.819Z</time>
      </trkpt>
      <trkpt lat="43.44721" lon="3.45333">
        <ele>53.7</ele>
        <time>2018-09-25T21:40:13.819Z</time>
      </trkpt>
      <trkpt lat="43.44725" lon="3.45334">
        <ele>53.4</ele>
        <time>2018-09-25T21:40:14.819Z</time>
      </trkpt>
      <trkpt lat="43.44728" lon="3.45334">
        <ele>53.2</ele>
        <time>2018-09-25T21:40:15.819Z</time>
      </trkpt>
      <trkpt lat="43.44734" lon="3.45334">
        <ele>52.8</ele>
        <time>2018-09-25T21:40:16.819Z</time>
      </trkpt>
      <trkpt lat="43.44738" lon="3.45334">
        <ele>52.5</ele>
        <time>2018-09-25T21:40:17.819Z</time>
      </trkpt>
      <trkpt lat="43.44743" lon="3.45334">
        <ele>52.2</ele>
        <time>2018-09-25T21:40:18.819Z</time>
      </trkpt>
      <trkpt lat="43.44747" lon="3.45334">
        <ele>52</ele>
        <time>2018-09-25T21:40:19.819Z</time>
      </trkpt>
      <trkpt lat="43.44751" lon="3.45335">
        <ele>51.8</ele>
        <time>2018-09-25T21:40:20.819Z</time>
      </trkpt>
      <trkpt lat="43.44755" lon="3.45335">
        <ele>51.6</ele>
        <time>2018-09-25T21:40:21.819Z</time>
      </trkpt>
      <trkpt lat="43.44759" lon="3.45335">
        <ele>51.5</ele>
        <time>2018-09-25T21:40:22.819Z</time>
      </trkpt>
      <trkpt lat="43.44764" lon="3.45336">
        <ele>51.4</ele>
        <time>2018-09-25T21:40:23.819Z</time>
      </trkpt>
      <trkpt lat="43.44767" lon="3.45337">
        <ele>51.3</ele>
        <time>2018-09-25T21:40:24.819Z</time>
      </trkpt>
      <trkpt lat="43.44771" lon="3.45338">
        <ele>51.2</ele>
        <time>2018-09-25T21:40:25.819Z</time>
      </trkpt>
      <trkpt lat="43.44775" lon="3.45338">
        <ele>51.1</ele>
        <time>2018-09-25T21:40:26.819Z</time>
      </trkpt>
      <trkpt lat="43.44779" lon="3.4534">
        <ele>51</ele>
        <time>2018-09-25T21:40:27.819Z</time>
      </trkpt>
      <trkpt lat="43.44783" lon="3.45341">
        <ele>50.9</ele>
        <time>2018-09-25T21:40:28.819Z</time>
      </trkpt>
      <trkpt lat="43.44787" lon="3.45342">
        <ele>50.8</ele>
        <time>2018-09-25T21:40:29.819Z</time>
      </trkpt>
      <trkpt lat="43.44791" lon="3.45342">
        <ele>50.7</ele>
        <time>2018-09-25T21:40:30.819Z</time>
      </trkpt>
      <trkpt lat="43.44795" lon="3.45343">
        <ele>50.6</ele>
        <time>2018-09-25T21:40:31.819Z</time>
      </trkpt>
      <trkpt lat="43.44799" lon="3.45344">
        <ele>50.5</ele>
        <time>2018-09-25T21:40:32.819Z</time>
      </trkpt>
      <trkpt lat="43.44802" lon="3.45346">
        <ele>50.4</ele>
        <time>2018-09-25T21:40:33.819Z</time>
      </trkpt>
      <trkpt lat="43.44806" lon="3.45347">
        <ele>50.4</ele>
        <time>2018-09-25T21:40:34.819Z</time>
      </trkpt>
      <trkpt lat="43.44809" lon="3.45348">
        <ele>50.3</ele>
        <time>2018-09-25T21:40:35.819Z</time>
      </trkpt>
      <trkpt lat="43.44811" lon="3.45349">
        <ele>50.2</ele>
        <time>2018-09-25T21:40:36.819Z</time>
      </trkpt>
      <trkpt lat="43.44816" lon="3.45351">
        <ele>50.1</ele>
        <time>2018-09-25T21:40:38.819Z</time>
      </trkpt>
      <trkpt lat="43.44819" lon="3.45352">
        <ele>50.1</ele>
        <time>2018-09-25T21:40:39.819Z</time>
      </trkpt>
      <trkpt lat="43.44825" lon="3.45353">
        <ele>50</ele>
        <time>2018-09-25T21:40:41.819Z</time>
      </trkpt>
      <trkpt lat="43.44828" lon="3.45355">
        <ele>49.9</ele>
        <time>2018-09-25T21:40:42.819Z</time>
      </trkpt>
      <trkpt lat="43.4483" lon="3.45355">
        <ele>49.8</ele>
        <time>2018-09-25T21:40:43.819Z</time>
      </trkpt>
      <trkpt lat="43.44834" lon="3.45356">
        <ele>49.8</ele>
        <time>2018-09-25T21:40:44.819Z</time>
      </trkpt>
      <trkpt lat="43.44837" lon="3.45357">
        <ele>49.7</ele>
        <time>2018-09-25T21:40:45.819Z</time>
      </trkpt>
      <trkpt lat="43.44841" lon="3.45358">
        <ele>49.7</ele>
        <time>2018-09-25T21:40:46.819Z</time>
      </trkpt>
      <trkpt lat="43.44844" lon="3.45359">
        <ele>49.6</ele>
        <time>2018-09-25T21:40:47.819Z</time>
      </trkpt>
      <trkpt lat="43.44847" lon="3.4536">
        <ele>49.6</ele>
        <time>2018-09-25T21:40:48.819Z</time>
      </trkpt>
      <trkpt lat="43.44851" lon="3.45362">
        <ele>49.5</ele>
        <time>2018-09-25T21:40:49.819Z</time>
      </trkpt>
      <trkpt lat="43.44854" lon="3.45362">
        <ele>49.5</ele>
        <time>2018-09-25T21:40:50.819Z</time>
      </trkpt>
      <trkpt lat="43.44858" lon="3.45364">
        <ele>49.5</ele>
        <time>2018-09-25T21:40:51.819Z</time>
      </trkpt>
      <trkpt lat="43.44861" lon="3.45366">
        <ele>49.5</ele>
        <time>2018-09-25T21:40:52.819Z</time>
      </trkpt>
      <trkpt lat="43.44864" lon="3.45367">
        <ele>49.5</ele>
        <time>2018-09-25T21:40:53.819Z</time>
      </trkpt>
      <trkpt lat="43.44867" lon="3.45368">
        <ele>49.5</ele>
        <time>2018-09-25T21:40:54.819Z</time>
      </trkpt>
      <trkpt lat="43.4487" lon="3.4537">
        <ele>49.6</ele>
        <time>2018-09-25T21:40:55.819Z</time>
      </trkpt>
      <trkpt lat="43.44873" lon="3.45371">
        <ele>49.6</ele>
        <time>2018-09-25T21:40:56.819Z</time>
      </trkpt>
      <trkpt lat="43.44876" lon="3.45372">
        <ele>49.7</ele>
        <time>2018-09-25T21:40:57.819Z</time>
      </trkpt>
      <trkpt lat="43.44879" lon="3.45373">
        <ele>49.8</ele>
        <time>2018-09-25T21:40:58.819Z</time>
      </trkpt>
      <trkpt lat="43.44882" lon="3.45374">
        <ele>49.9</ele>
        <time>2018-09-25T21:40:59.819Z</time>
      </trkpt>
      <trkpt lat="43.44886" lon="3.45375">
        <ele>50</ele>
        <time>2018-09-25T21:41:00.819Z</time>
      </trkpt>
      <trkpt lat="43.44889" lon="3.45376">
        <ele>50.1</ele>
        <time>2018-09-25T21:41:01.819Z</time>
      </trkpt>
      <trkpt lat="43.44893" lon="3.45377">
        <ele>50.2</ele>
        <time>2018-09-25T21:41:02.819Z</time>
      </trkpt>
      <trkpt lat="43.44896" lon="3.45377">
        <ele>50.4</ele>
        <time>2018-09-25T21:41:03.819Z</time>
      </trkpt>
      <trkpt lat="43.449" lon="3.45378">
        <ele>50.5</ele>
        <time>2018-09-25T21:41:04.819Z</time>
      </trkpt>
      <trkpt lat="43.44904" lon="3.45379">
        <ele>50.7</ele>
        <time>2018-09-25T21:41:05.819Z</time>
      </trkpt>
      <trkpt lat="43.44908" lon="3.45381">
        <ele>50.8</ele>
        <time>2018-09-25T21:41:06.819Z</time>
      </trkpt>
      <trkpt lat="43.44912" lon="3.45382">
        <ele>51</ele>
        <time>2018-09-25T21:41:07.819Z</time>
      </trkpt>
      <trkpt lat="43.44916" lon="3.45383">
        <ele>51.1</ele>
        <time>2018-09-25T21:41:08.819Z</time>
      </trkpt>
      <trkpt lat="43.44919" lon="3.45385">
        <ele>51.2</ele>
        <time>2018-09-25T21:41:09.819Z</time>
      </trkpt>
      <trkpt lat="43.44922" lon="3.45386">
        <ele>51.3</ele>
        <time>2018-09-25T21:41:10.819Z</time>
      </trkpt>
      <trkpt lat="43.44926" lon="3.45387">
        <ele>51.4</ele>
        <time>2018-09-25T21:41:11.819Z</time>
      </trkpt>
      <trkpt lat="43.4493" lon="3.45388">
        <ele>51.5</ele>
        <time>2018-09-25T21:41:12.819Z</time>
      </trkpt>
      <trkpt lat="43.44933" lon="3.45389">
        <ele>51.6</ele>
        <time>2018-09-25T21:41:13.819Z</time>
      </trkpt>
      <trkpt lat="43.44937" lon="3.4539">
        <ele>51.7</ele>
        <time>2018-09-25T21:41:14.819Z</time>
      </trkpt>
      <trkpt lat="43.44941" lon="3.4539">
        <ele>51.8</ele>
        <time>2018-09-25T21:41:15.819Z</time>
      </trkpt>
      <trkpt lat="43.44944" lon="3.45391">
        <ele>51.9</ele>
        <time>2018-09-25T21:41:16.819Z</time>
      </trkpt>
      <trkpt lat="43.44948" lon="3.45392">
        <ele>51.9</ele>
        <time>2018-09-25T21:41:17.819Z</time>
      </trkpt>
      <trkpt lat="43.44951" lon="3.45393">
        <ele>52</ele>
        <time>2018-09-25T21:41:18.819Z</time>
      </trkpt>
      <trkpt lat="43.44955" lon="3.45394">
        <ele>52.1</ele>
        <time>2018-09-25T21:41:19.819Z</time>
      </trkpt>
      <trkpt lat="43.44959" lon="3.45395">
        <ele>52.2</ele>
        <time>2018-09-25T21:41:20.819Z</time>
      </trkpt>
      <trkpt lat="43.44962" lon="3.45395">
        <ele>52.3</ele>
        <time>2018-09-25T21:41:21.819Z</time>
      </trkpt>
      <trkpt lat="43.44966" lon="3.45397">
        <ele>52.5</ele>
        <time>2018-09-25T21:41:22.819Z</time>
      </trkpt>
      <trkpt lat="43.44969" lon="3.45398">
        <ele>52.6</ele>
        <time>2018-09-25T21:41:23.819Z</time>
      </trkpt>
      <trkpt lat="43.44973" lon="3.45399">
        <ele>52.8</ele>
        <time>2018-09-25T21:41:24.819Z</time>
      </trkpt>
      <trkpt lat="43.44977" lon="3.454">
        <ele>53.1</ele>
        <time>2018-09-25T21:41:25.819Z</time>
      </trkpt>
      <trkpt lat="43.4498" lon="3.45401">
        <ele>53.3</ele>
        <time>2018-09-25T21:41:26.819Z</time>
      </trkpt>
      <trkpt lat="43.44983" lon="3.45401">
        <ele>53.6</ele>
        <time>2018-09-25T21:41:27.819Z</time>
      </trkpt>
      <trkpt lat="43.44986" lon="3.45403">
        <ele>53.8</ele>
        <time>2018-09-25T21:41:28.819Z</time>
      </trkpt>
      <trkpt lat="43.4499" lon="3.45404">
        <ele>54.1</ele>
        <time>2018-09-25T21:41:29.819Z</time>
      </trkpt>
      <trkpt lat="43.44993" lon="3.45405">
        <ele>54.4</ele>
        <time>2018-09-25T21:41:30.819Z</time>
      </trkpt>
      <trkpt lat="43.44996" lon="3.45406">
        <ele>54.6</ele>
        <time>2018-09-25T21:41:31.819Z</time>
      </trkpt>
      <trkpt lat="43.45" lon="3.45407">
        <ele>54.9</ele>
        <time>2018-09-25T21:41:32.819Z</time>
      </trkpt>
      <trkpt lat="43.45003" lon="3.45407">
        <ele>55.1</ele>
        <time>2018-09-25T21:41:33.819Z</time>
      </trkpt>
      <trkpt lat="43.45006" lon="3.45408">
        <ele>55.4</ele>
        <time>2018-09-25T21:41:34.819Z</time>
      </trkpt>
      <trkpt lat="43.45009" lon="3.45409">
        <ele>55.6</ele>
        <time>2018-09-25T21:41:35.819Z</time>
      </trkpt>
      <trkpt lat="43.45012" lon="3.4541">
        <ele>55.8</ele>
        <time>2018-09-25T21:41:36.819Z</time>
      </trkpt>
      <trkpt lat="43.45015" lon="3.45411">
        <ele>56</ele>
        <time>2018-09-25T21:41:37.819Z</time>
      </trkpt>
      <trkpt lat="43.45019" lon="3.45411">
        <ele>56.2</ele>
        <time>2018-09-25T21:41:38.819Z</time>
      </trkpt>
      <trkpt lat="43.45023" lon="3.45412">
        <ele>56.4</ele>
        <time>2018-09-25T21:41:40.819Z</time>
      </trkpt>
      <trkpt lat="43.45026" lon="3.45414">
        <ele>56.5</ele>
        <time>2018-09-25T21:41:42.819Z</time>
      </trkpt>
      <trkpt lat="43.45031" lon="3.45416">
        <ele>56.7</ele>
        <time>2018-09-25T21:41:44.819Z</time>
      </trkpt>
      <trkpt lat="43.45034" lon="3.45417">
        <ele>56.9</ele>
        <time>2018-09-25T21:41:45.819Z</time>
      </trkpt>
      <trkpt lat="43.45037" lon="3.45418">
        <ele>57</ele>
        <time>2018-09-25T21:41:46.819Z</time>
      </trkpt>
      <trkpt lat="43.4504" lon="3.45419">
        <ele>57.1</ele>
        <time>2018-09-25T21:41:47.819Z</time>
      </trkpt>
      <trkpt lat="43.45043" lon="3.45419">
        <ele>57.3</ele>
        <time>2018-09-25T21:41:48.819Z</time>
      </trkpt>
      <trkpt lat="43.45046" lon="3.4542">
        <ele>57.4</ele>
        <time>2018-09-25T21:41:49.819Z</time>
      </trkpt>
      <trkpt lat="43.45051" lon="3.45421">
        <ele>57.7</ele>
        <time>2018-09-25T21:41:51.819Z</time>
      </trkpt>
      <trkpt lat="43.45056" lon="3.45425">
        <ele>58.2</ele>
        <time>2018-09-25T21:41:53.819Z</time>
      </trkpt>
      <trkpt lat="43.45059" lon="3.45426">
        <ele>58.4</ele>
        <time>2018-09-25T21:41:54.819Z</time>
      </trkpt>
      <trkpt lat="43.45063" lon="3.45427">
        <ele>58.6</ele>
        <time>2018-09-25T21:41:55.819Z</time>
      </trkpt>
      <trkpt lat="43.45067" lon="3.45428">
        <ele>58.7</ele>
        <time>2018-09-25T21:41:56.819Z</time>
      </trkpt>
      <trkpt lat="43.4507" lon="3.45429">
        <ele>58.8</ele>
        <time>2018-09-25T21:41:57.819Z</time>
      </trkpt>
      <trkpt lat="43.45074" lon="3.4543">
        <ele>58.9</ele>
        <time>2018-09-25T21:41:58.819Z</time>
      </trkpt>
      <trkpt lat="43.45078" lon="3.45432">
        <ele>59.1</ele>
        <time>2018-09-25T21:41:59.819Z</time>
      </trkpt>
      <trkpt lat="43.45082" lon="3.45433">
        <ele>59.2</ele>
        <time>2018-09-25T21:42:00.819Z</time>
      </trkpt>
      <trkpt lat="43.45086" lon="3.45434">
        <ele>59.3</ele>
        <time>2018-09-25T21:42:01.819Z</time>
      </trkpt>
      <trkpt lat="43.4509" lon="3.45435">
        <ele>59.5</ele>
        <time>2018-09-25T21:42:02.819Z</time>
      </trkpt>
      <trkpt lat="43.45095" lon="3.45437">
        <ele>59.7</ele>
        <time>2018-09-25T21:42:03.819Z</time>
      </trkpt>
      <trkpt lat="43.451" lon="3.45439">
        <ele>59.9</ele>
        <time>2018-09-25T21:42:04.819Z</time>
      </trkpt>
      <trkpt lat="43.45106" lon="3.4544">
        <ele>60</ele>
        <time>2018-09-25T21:42:05.819Z</time>
      </trkpt>
      <trkpt lat="43.45111" lon="3.45441">
        <ele>60.1</ele>
        <time>2018-09-25T21:42:06.819Z</time>
      </trkpt>
      <trkpt lat="43.45116" lon="3.45442">
        <ele>60.2</ele>
        <time>2018-09-25T21:42:07.819Z</time>
      </trkpt>
      <trkpt lat="43.45121" lon="3.45443">
        <ele>60.2</ele>
        <time>2018-09-25T21:42:08.819Z</time>
      </trkpt>
      <trkpt lat="43.45126" lon="3.45443">
        <ele>60.3</ele>
        <time>2018-09-25T21:42:09.819Z</time>
      </trkpt>
      <trkpt lat="43.45131" lon="3.45443">
        <ele>60.3</ele>
        <time>2018-09-25T21:42:10.819Z</time>
      </trkpt>
      <trkpt lat="43.45135" lon="3.45442">
        <ele>60.4</ele>
        <time>2018-09-25T21:42:11.819Z</time>
      </trkpt>
      <trkpt lat="43.4514" lon="3.45442">
        <ele>60.4</ele>
        <time>2018-09-25T21:42:12.819Z</time>
      </trkpt>
      <trkpt lat="43.45145" lon="3.45442">
        <ele>60.5</ele>
        <time>2018-09-25T21:42:13.819Z</time>
      </trkpt>
      <trkpt lat="43.4515" lon="3.45442">
        <ele>60.5</ele>
        <time>2018-09-25T21:42:14.819Z</time>
      </trkpt>
      <trkpt lat="43.45154" lon="3.45442">
        <ele>60.5</ele>
        <time>2018-09-25T21:42:15.819Z</time>
      </trkpt>
      <trkpt lat="43.45159" lon="3.45442">
        <ele>60.6</ele>
        <time>2018-09-25T21:42:16.819Z</time>
      </trkpt>
      <trkpt lat="43.45164" lon="3.45442">
        <ele>60.6</ele>
        <time>2018-09-25T21:42:17.819Z</time>
      </trkpt>
      <trkpt lat="43.45169" lon="3.45442">
        <ele>60.6</ele>
        <time>2018-09-25T21:42:18.819Z</time>
      </trkpt>
      <trkpt lat="43.45174" lon="3.45441">
        <ele>60.7</ele>
        <time>2018-09-25T21:42:19.819Z</time>
      </trkpt>
      <trkpt lat="43.45179" lon="3.45441">
        <ele>60.7</ele>
        <time>2018-09-25T21:42:20.819Z</time>
      </trkpt>
      <trkpt lat="43.45184" lon="3.45441">
        <ele>60.7</ele>
        <time>2018-09-25T21:42:21.819Z</time>
      </trkpt>
      <trkpt lat="43.45188" lon="3.4544">
        <ele>60.7</ele>
        <time>2018-09-25T21:42:22.819Z</time>
      </trkpt>
      <trkpt lat="43.45193" lon="3.4544">
        <ele>60.7</ele>
        <time>2018-09-25T21:42:23.819Z</time>
      </trkpt>
      <trkpt lat="43.45198" lon="3.4544">
        <ele>60.8</ele>
        <time>2018-09-25T21:42:24.819Z</time>
      </trkpt>
      <trkpt lat="43.45203" lon="3.4544">
        <ele>60.8</ele>
        <time>2018-09-25T21:42:25.819Z</time>
      </trkpt>
      <trkpt lat="43.45207" lon="3.45439">
        <ele>60.8</ele>
        <time>2018-09-25T21:42:26.819Z</time>
      </trkpt>
      <trkpt lat="43.4521" lon="3.45439">
        <ele>60.8</ele>
        <time>2018-09-25T21:42:27.819Z</time>
      </trkpt>
      <trkpt lat="43.45214" lon="3.45438">
        <ele>60.7</ele>
        <time>2018-09-25T21:42:28.819Z</time>
      </trkpt>
      <trkpt lat="43.45218" lon="3.45436">
        <ele>60.7</ele>
        <time>2018-09-25T21:42:30.819Z</time>
      </trkpt>
      <trkpt lat="43.45221" lon="3.45434">
        <ele>60.7</ele>
        <time>2018-09-25T21:42:32.819Z</time>
      </trkpt>
      <trkpt lat="43.45225" lon="3.45432">
        <ele>60.7</ele>
        <time>2018-09-25T21:42:34.819Z</time>
      </trkpt>
      <trkpt lat="43.45229" lon="3.45431">
        <ele>60.6</ele>
        <time>2018-09-25T21:42:36.819Z</time>
      </trkpt>
      <trkpt lat="43.45233" lon="3.4543">
        <ele>60.5</ele>
        <time>2018-09-25T21:42:37.819Z</time>
      </trkpt>
      <trkpt lat="43.45237" lon="3.4543">
        <ele>60.5</ele>
        <time>2018-09-25T21:42:38.819Z</time>
      </trkpt>
      <trkpt lat="43.45242" lon="3.45429">
        <ele>60.4</ele>
        <time>2018-09-25T21:42:39.819Z</time>
      </trkpt>
      <trkpt lat="43.45248" lon="3.45427">
        <ele>60.3</ele>
        <time>2018-09-25T21:42:40.819Z</time>
      </trkpt>
      <trkpt lat="43.45254" lon="3.45425">
        <ele>60.3</ele>
        <time>2018-09-25T21:42:41.819Z</time>
      </trkpt>
      <trkpt lat="43.45259" lon="3.45424">
        <ele>60.2</ele>
        <time>2018-09-25T21:42:42.819Z</time>
      </trkpt>
      <trkpt lat="43.45265" lon="3.45422">
        <ele>60.2</ele>
        <time>2018-09-25T21:42:43.819Z</time>
      </trkpt>
      <trkpt lat="43.4527" lon="3.4542">
        <ele>60.1</ele>
        <time>2018-09-25T21:42:44.819Z</time>
      </trkpt>
      <trkpt lat="43.45275" lon="3.45419">
        <ele>60</ele>
        <time>2018-09-25T21:42:45.819Z</time>
      </trkpt>
      <trkpt lat="43.45279" lon="3.45418">
        <ele>59.9</ele>
        <time>2018-09-25T21:42:46.819Z</time>
      </trkpt>
      <trkpt lat="43.45283" lon="3.45416">
        <ele>59.8</ele>
        <time>2018-09-25T21:42:47.819Z</time>
      </trkpt>
      <trkpt lat="43.45287" lon="3.45415">
        <ele>59.6</ele>
        <time>2018-09-25T21:42:48.819Z</time>
      </trkpt>
      <trkpt lat="43.45291" lon="3.45414">
        <ele>59.3</ele>
        <time>2018-09-25T21:42:49.819Z</time>
      </trkpt>
      <trkpt lat="43.45294" lon="3.45414">
        <ele>59.1</ele>
        <time>2018-09-25T21:42:50.819Z</time>
      </trkpt>
      <trkpt lat="43.45298" lon="3.45413">
        <ele>58.7</ele>
        <time>2018-09-25T21:42:51.819Z</time>
      </trkpt>
      <trkpt lat="43.45302" lon="3.45411">
        <ele>58.3</ele>
        <time>2018-09-25T21:42:52.819Z</time>
      </trkpt>
      <trkpt lat="43.45306" lon="3.4541">
        <ele>57.8</ele>
        <time>2018-09-25T21:42:53.819Z</time>
      </trkpt>
      <trkpt lat="43.4531" lon="3.4541">
        <ele>57.3</ele>
        <time>2018-09-25T21:42:54.819Z</time>
      </trkpt>
      <trkpt lat="43.45314" lon="3.4541">
        <ele>56.9</ele>
        <time>2018-09-25T21:42:55.819Z</time>
      </trkpt>
      <trkpt lat="43.45317" lon="3.45411">
        <ele>56.6</ele>
        <time>2018-09-25T21:42:56.819Z</time>
      </trkpt>
      <trkpt lat="43.4532" lon="3.45414">
        <ele>56.3</ele>
        <time>2018-09-25T21:42:57.819Z</time>
      </trkpt>
      <trkpt lat="43.45323" lon="3.45418">
        <ele>55.8</ele>
        <time>2018-09-25T21:42:58.819Z</time>
      </trkpt>
      <trkpt lat="43.45326" lon="3.45421">
        <ele>55.3</ele>
        <time>2018-09-25T21:42:59.819Z</time>
      </trkpt>
      <trkpt lat="43.4533" lon="3.45425">
        <ele>54.7</ele>
        <time>2018-09-25T21:43:00.819Z</time>
      </trkpt>
      <trkpt lat="43.45333" lon="3.45428">
        <ele>54.2</ele>
        <time>2018-09-25T21:43:01.819Z</time>
      </trkpt>
      <trkpt lat="43.45335" lon="3.45432">
        <ele>53.8</ele>
        <time>2018-09-25T21:43:02.819Z</time>
      </trkpt>
      <trkpt lat="43.45338" lon="3.45435">
        <ele>53.4</ele>
        <time>2018-09-25T21:43:03.819Z</time>
      </trkpt>
      <trkpt lat="43.45342" lon="3.45435">
        <ele>53</ele>
        <time>2018-09-25T21:43:04.819Z</time>
      </trkpt>
      <trkpt lat="43.45345" lon="3.45436">
        <ele>52.7</ele>
        <time>2018-09-25T21:43:05.819Z</time>
      </trkpt>
      <trkpt lat="43.45349" lon="3.45436">
        <ele>52.4</ele>
        <time>2018-09-25T21:43:06.819Z</time>
      </trkpt>
      <trkpt lat="43.45353" lon="3.45437">
        <ele>52.2</ele>
        <time>2018-09-25T21:43:07.819Z</time>
      </trkpt>
      <trkpt lat="43.45357" lon="3.45438">
        <ele>51.9</ele>
        <time>2018-09-25T21:43:08.819Z</time>
      </trkpt>
      <trkpt lat="43.45361" lon="3.45437">
        <ele>51.6</ele>
        <time>2018-09-25T21:43:09.819Z</time>
      </trkpt>
      <trkpt lat="43.45365" lon="3.45436">
        <ele>51.2</ele>
        <time>2018-09-25T21:43:10.819Z</time>
      </trkpt>
      <trkpt lat="43.45369" lon="3.45434">
        <ele>50.8</ele>
        <time>2018-09-25T21:43:11.819Z</time>
      </trkpt>
      <trkpt lat="43.45372" lon="3.45433">
        <ele>50.7</ele>
        <time>2018-09-25T21:43:12.819Z</time>
      </trkpt>
      <trkpt lat="43.45375" lon="3.45432">
        <ele>50.5</ele>
        <time>2018-09-25T21:43:13.819Z</time>
      </trkpt>
      <trkpt lat="43.45379" lon="3.45431">
        <ele>50.4</ele>
        <time>2018-09-25T21:43:14.819Z</time>
      </trkpt>
      <trkpt lat="43.45382" lon="3.45431">
        <ele>50.3</ele>
        <time>2018-09-25T21:43:16.819Z</time>
      </trkpt>
      <trkpt lat="43.45385" lon="3.4543">
        <ele>50.1</ele>
        <time>2018-09-25T21:43:19.819Z</time>
      </trkpt>
      <trkpt lat="43.45389" lon="3.45428">
        <ele>50</ele>
        <time>2018-09-25T21:43:21.819Z</time>
      </trkpt>
      <trkpt lat="43.45392" lon="3.45427">
        <ele>49.9</ele>
        <time>2018-09-25T21:43:22.819Z</time>
      </trkpt>
      <trkpt lat="43.45396" lon="3.45426">
        <ele>49.8</ele>
        <time>2018-09-25T21:43:23.819Z</time>
      </trkpt>
      <trkpt lat="43.454" lon="3.45424">
        <ele>49.5</ele>
        <time>2018-09-25T21:43:24.819Z</time>
      </trkpt>
      <trkpt lat="43.45404" lon="3.45423">
        <ele>49.4</ele>
        <time>2018-09-25T21:43:25.819Z</time>
      </trkpt>
      <trkpt lat="43.45408" lon="3.45422">
        <ele>49.2</ele>
        <time>2018-09-25T21:43:26.819Z</time>
      </trkpt>
      <trkpt lat="43.45411" lon="3.45422">
        <ele>49.2</ele>
        <time>2018-09-25T21:43:27.819Z</time>
      </trkpt>
      <trkpt lat="43.45416" lon="3.45423">
        <ele>49.2</ele>
        <time>2018-09-25T21:43:29.819Z</time>
      </trkpt>
      <trkpt lat="43.4542" lon="3.45427">
        <ele>49.2</ele>
        <time>2018-09-25T21:43:31.819Z</time>
      </trkpt>
      <trkpt lat="43.45423" lon="3.45429">
        <ele>49.1</ele>
        <time>2018-09-25T21:43:33.819Z</time>
      </trkpt>
      <trkpt lat="43.45426" lon="3.4543">
        <ele>49</ele>
        <time>2018-09-25T21:43:40.819Z</time>
      </trkpt>
      <trkpt lat="43.45429" lon="3.45432">
        <ele>48.8</ele>
        <time>2018-09-25T21:43:43.819Z</time>
      </trkpt>
      <trkpt lat="43.45432" lon="3.45433">
        <ele>48.6</ele>
        <time>2018-09-25T21:43:46.819Z</time>
      </trkpt>
      <trkpt lat="43.45436" lon="3.45437">
        <ele>48.3</ele>
        <time>2018-09-25T21:43:52.819Z</time>
      </trkpt>
      <trkpt lat="43.4544" lon="3.45441">
        <ele>48</ele>
        <time>2018-09-25T21:43:54.819Z</time>
      </trkpt>
      <trkpt lat="43.45445" lon="3.45443">
        <ele>47.7</ele>
        <time>2018-09-25T21:43:56.819Z</time>
      </trkpt>
      <trkpt lat="43.45447" lon="3.45444">
        <ele>47.6</ele>
        <time>2018-09-25T21:43:57.819Z</time>
      </trkpt>
      <trkpt lat="43.4545" lon="3.45445">
        <ele>47.5</ele>
        <time>2018-09-25T21:43:58.819Z</time>
      </trkpt>
      <trkpt lat="43.45453" lon="3.45446">
        <ele>47.3</ele>
        <time>2018-09-25T21:43:59.819Z</time>
      </trkpt>
      <trkpt lat="43.45456" lon="3.45448">
        <ele>47.1</ele>
        <time>2018-09-25T21:44:00.819Z</time>
      </trkpt>
      <trkpt lat="43.45459" lon="3.4545">
        <ele>47</ele>
        <time>2018-09-25T21:44:01.819Z</time>
      </trkpt>
      <trkpt lat="43.45462" lon="3.45452">
        <ele>46.9</ele>
        <time>2018-09-25T21:44:02.819Z</time>
      </trkpt>
      <trkpt lat="43.45464" lon="3.45454">
        <ele>46.8</ele>
        <time>2018-09-25T21:44:03.819Z</time>
      </trkpt>
      <trkpt lat="43.45468" lon="3.45458">
        <ele>47</ele>
        <time>2018-09-25T21:44:05.819Z</time>
      </trkpt>
      <trkpt lat="43.45472" lon="3.45459">
        <ele>47.4</ele>
        <time>2018-09-25T21:44:07.819Z</time>
      </trkpt>
      <trkpt lat="43.45474" lon="3.4546">
        <ele>47.7</ele>
        <time>2018-09-25T21:44:08.819Z</time>
      </trkpt>
      <trkpt lat="43.45477" lon="3.45462">
        <ele>48</ele>
        <time>2018-09-25T21:44:09.819Z</time>
      </trkpt>
      <trkpt lat="43.4548" lon="3.45464">
        <ele>48.2</ele>
        <time>2018-09-25T21:44:10.819Z</time>
      </trkpt>
      <trkpt lat="43.45484" lon="3.45467">
        <ele>48.6</ele>
        <time>2018-09-25T21:44:12.819Z</time>
      </trkpt>
      <trkpt lat="43.45486" lon="3.4547">
        <ele>48.8</ele>
        <time>2018-09-25T21:44:13.819Z</time>
      </trkpt>
      <trkpt lat="43.45488" lon="3.45473">
        <ele>49</ele>
        <time>2018-09-25T21:44:14.819Z</time>
      </trkpt>
      <trkpt lat="43.4549" lon="3.45477">
        <ele>49.3</ele>
        <time>2018-09-25T21:44:15.819Z</time>
      </trkpt>
      <trkpt lat="43.45492" lon="3.4548">
        <ele>49.5</ele>
        <time>2018-09-25T21:44:16.819Z</time>
      </trkpt>
      <trkpt lat="43.45495" lon="3.45484">
        <ele>49.8</ele>
        <time>2018-09-25T21:44:17.819Z</time>
      </trkpt>
      <trkpt lat="43.45498" lon="3.45488">
        <ele>50.2</ele>
        <time>2018-09-25T21:44:18.819Z</time>
      </trkpt>
      <trkpt lat="43.455" lon="3.45492">
        <ele>50.6</ele>
        <time>2018-09-25T21:44:19.819Z</time>
      </trkpt>
      <trkpt lat="43.45502" lon="3.45495">
        <ele>51</ele>
        <time>2018-09-25T21:44:20.819Z</time>
      </trkpt>
      <trkpt lat="43.45504" lon="3.45498">
        <ele>51.2</ele>
        <time>2018-09-25T21:44:21.819Z</time>
      </trkpt>
      <trkpt lat="43.45508" lon="3.45501">
        <ele>51.6</ele>
        <time>2018-09-25T21:44:23.819Z</time>
      </trkpt>
      <trkpt lat="43.45513" lon="3.455">
        <ele>52</ele>
        <time>2018-09-25T21:44:25.819Z</time>
      </trkpt>
      <trkpt lat="43.45516" lon="3.45499">
        <ele>52.4</ele>
        <time>2018-09-25T21:44:26.819Z</time>
      </trkpt>
      <trkpt lat="43.45519" lon="3.45499">
        <ele>53</ele>
        <time>2018-09-25T21:44:27.819Z</time>
      </trkpt>
      <trkpt lat="43.45523" lon="3.45499">
        <ele>53.6</ele>
        <time>2018-09-25T21:44:28.819Z</time>
      </trkpt>
      <trkpt lat="43.45527" lon="3.455">
        <ele>54</ele>
        <time>2018-09-25T21:44:29.819Z</time>
      </trkpt>
      <trkpt lat="43.4553" lon="3.45499">
        <ele>54.3</ele>
        <time>2018-09-25T21:44:30.819Z</time>
      </trkpt>
      <trkpt lat="43.45537" lon="3.45498">
        <ele>54.6</ele>
        <time>2018-09-25T21:44:32.819Z</time>
      </trkpt>
      <trkpt lat="43.4554" lon="3.45498">
        <ele>54.7</ele>
        <time>2018-09-25T21:44:33.819Z</time>
      </trkpt>
      <trkpt lat="43.45543" lon="3.45498">
        <ele>54.9</ele>
        <time>2018-09-25T21:44:34.819Z</time>
      </trkpt>
      <trkpt lat="43.45546" lon="3.45497">
        <ele>55</ele>
        <time>2018-09-25T21:44:35.819Z</time>
      </trkpt>
      <trkpt lat="43.4555" lon="3.45497">
        <ele>55.2</ele>
        <time>2018-09-25T21:44:36.819Z</time>
      </trkpt>
      <trkpt lat="43.45553" lon="3.45496">
        <ele>55.4</ele>
        <time>2018-09-25T21:44:37.819Z</time>
      </trkpt>
      <trkpt lat="43.45557" lon="3.45496">
        <ele>55.7</ele>
        <time>2018-09-25T21:44:38.819Z</time>
      </trkpt>
      <trkpt lat="43.4556" lon="3.45496">
        <ele>56</ele>
        <time>2018-09-25T21:44:39.819Z</time>
      </trkpt>
      <trkpt lat="43.45563" lon="3.45497">
        <ele>56.4</ele>
        <time>2018-09-25T21:44:40.819Z</time>
      </trkpt>
      <trkpt lat="43.45569" lon="3.45498">
        <ele>57</ele>
        <time>2018-09-25T21:44:42.819Z</time>
      </trkpt>
      <trkpt lat="43.45572" lon="3.45499">
        <ele>57.2</ele>
        <time>2018-09-25T21:44:43.819Z</time>
      </trkpt>
      <trkpt lat="43.45575" lon="3.45498">
        <ele>57.3</ele>
        <time>2018-09-25T21:44:44.819Z</time>
      </trkpt>
      <trkpt lat="43.45578" lon="3.45498">
        <ele>57.5</ele>
        <time>2018-09-25T21:44:45.819Z</time>
      </trkpt>
      <trkpt lat="43.45582" lon="3.45498">
        <ele>57.7</ele>
        <time>2018-09-25T21:44:46.819Z</time>
      </trkpt>
      <trkpt lat="43.45585" lon="3.45497">
        <ele>57.9</ele>
        <time>2018-09-25T21:44:47.819Z</time>
      </trkpt>
      <trkpt lat="43.45588" lon="3.45497">
        <ele>58.2</ele>
        <time>2018-09-25T21:44:48.819Z</time>
      </trkpt>
      <trkpt lat="43.45593" lon="3.45496">
        <ele>58.8</ele>
        <time>2018-09-25T21:44:50.819Z</time>
      </trkpt>
      <trkpt lat="43.45597" lon="3.45495">
        <ele>59</ele>
        <time>2018-09-25T21:44:51.819Z</time>
      </trkpt>
      <trkpt lat="43.456" lon="3.45496">
        <ele>59.2</ele>
        <time>2018-09-25T21:44:52.819Z</time>
      </trkpt>
      <trkpt lat="43.45605" lon="3.45497">
        <ele>59.5</ele>
        <time>2018-09-25T21:44:53.819Z</time>
      </trkpt>
      <trkpt lat="43.45608" lon="3.45498">
        <ele>59.9</ele>
        <time>2018-09-25T21:44:54.819Z</time>
      </trkpt>
      <trkpt lat="43.45612" lon="3.45498">
        <ele>60.2</ele>
        <time>2018-09-25T21:44:55.819Z</time>
      </trkpt>
      <trkpt lat="43.45616" lon="3.45498">
        <ele>60.5</ele>
        <time>2018-09-25T21:44:56.819Z</time>
      </trkpt>
      <trkpt lat="43.4562" lon="3.45499">
        <ele>60.8</ele>
        <time>2018-09-25T21:44:57.819Z</time>
      </trkpt>
      <trkpt lat="43.45624" lon="3.45501">
        <ele>61.1</ele>
        <time>2018-09-25T21:44:58.819Z</time>
      </trkpt>
      <trkpt lat="43.45627" lon="3.45503">
        <ele>61.5</ele>
        <time>2018-09-25T21:44:59.819Z</time>
      </trkpt>
      <trkpt lat="43.45632" lon="3.45504">
        <ele>61.8</ele>
        <time>2018-09-25T21:45:01.819Z</time>
      </trkpt>
      <trkpt lat="43.45635" lon="3.45504">
        <ele>62</ele>
        <time>2018-09-25T21:45:06.819Z</time>
      </trkpt>
      <trkpt lat="43.45637" lon="3.45503">
        <ele>62.2</ele>
        <time>2018-09-25T21:45:26.819Z</time>
      </trkpt>
      <trkpt lat="43.45641" lon="3.45502">
        <ele>62.3</ele>
        <time>2018-09-25T21:45:36.819Z</time>
      </trkpt>
      <trkpt lat="43.45644" lon="3.45503">
        <ele>62.4</ele>
        <time>2018-09-25T21:45:37.819Z</time>
      </trkpt>
      <trkpt lat="43.45647" lon="3.45503">
        <ele>62.5</ele>
        <time>2018-09-25T21:45:38.819Z</time>
      </trkpt>
      <trkpt lat="43.4565" lon="3.45503">
        <ele>62.4</ele>
        <time>2018-09-25T21:45:39.819Z</time>
      </trkpt>
      <trkpt lat="43.45653" lon="3.45502">
        <ele>62.4</ele>
        <time>2018-09-25T21:45:40.819Z</time>
      </trkpt>
      <trkpt lat="43.45658" lon="3.45503">
        <ele>62.3</ele>
        <time>2018-09-25T21:45:42.819Z</time>
      </trkpt>
      <trkpt lat="43.45663" lon="3.45503">
        <ele>62</ele>
        <time>2018-09-25T21:45:44.819Z</time>
      </trkpt>
      <trkpt lat="43.45667" lon="3.45502">
        <ele>61.9</ele>
        <time>2018-09-25T21:45:45.819Z</time>
      </trkpt>
      <trkpt lat="43.45671" lon="3.45501">
        <ele>61.6</ele>
        <time>2018-09-25T21:45:46.819Z</time>
      </trkpt>
      <trkpt lat="43.45674" lon="3.455">
        <ele>61.4</ele>
        <time>2018-09-25T21:45:47.819Z</time>
      </trkpt>
      <trkpt lat="43.45677" lon="3.45499">
        <ele>61.3</ele>
        <time>2018-09-25T21:45:48.819Z</time>
      </trkpt>
      <trkpt lat="43.4568" lon="3.45498">
        <ele>61.1</ele>
        <time>2018-09-25T21:45:49.819Z</time>
      </trkpt>
      <trkpt lat="43.45683" lon="3.45497">
        <ele>60.8</ele>
        <time>2018-09-25T21:45:50.819Z</time>
      </trkpt>
      <trkpt lat="43.45687" lon="3.45495">
        <ele>60.6</ele>
        <time>2018-09-25T21:45:51.819Z</time>
      </trkpt>
      <trkpt lat="43.45691" lon="3.45494">
        <ele>60.4</ele>
        <time>2018-09-25T21:45:52.819Z</time>
      </trkpt>
      <trkpt lat="43.45696" lon="3.45493">
        <ele>60</ele>
        <time>2018-09-25T21:45:53.819Z</time>
      </trkpt>
      <trkpt lat="43.45701" lon="3.45494">
        <ele>59.8</ele>
        <time>2018-09-25T21:45:54.819Z</time>
      </trkpt>
      <trkpt lat="43.45706" lon="3.45495">
        <ele>59.5</ele>
        <time>2018-09-25T21:45:55.819Z</time>
      </trkpt>
      <trkpt lat="43.4571" lon="3.45499">
        <ele>59.3</ele>
        <time>2018-09-25T21:45:56.819Z</time>
      </trkpt>
      <trkpt lat="43.45714" lon="3.45502">
        <ele>59.2</ele>
        <time>2018-09-25T21:45:57.819Z</time>
      </trkpt>
      <trkpt lat="43.45719" lon="3.45504">
        <ele>59</ele>
        <time>2018-09-25T21:45:58.819Z</time>
      </trkpt>
      <trkpt lat="43.45724" lon="3.45506">
        <ele>58.9</ele>
        <time>2018-09-25T21:45:59.819Z</time>
      </trkpt>
      <trkpt lat="43.45727" lon="3.45509">
        <ele>58.8</ele>
        <time>2018-09-25T21:46:00.819Z</time>
      </trkpt>
      <trkpt lat="43.45731" lon="3.45512">
        <ele>58.8</ele>
        <time>2018-09-25T21:46:01.819Z</time>
      </trkpt>
      <trkpt lat="43.45735" lon="3.45513">
        <ele>58.7</ele>
        <time>2018-09-25T21:46:02.819Z</time>
      </trkpt>
      <trkpt lat="43.4574" lon="3.45513">
        <ele>58.6</ele>
        <time>2018-09-25T21:46:03.819Z</time>
      </trkpt>
      <trkpt lat="43.45746" lon="3.45514">
        <ele>58.4</ele>
        <time>2018-09-25T21:46:04.819Z</time>
      </trkpt>
      <trkpt lat="43.45752" lon="3.45515">
        <ele>58.4</ele>
        <time>2018-09-25T21:46:05.819Z</time>
      </trkpt>
      <trkpt lat="43.4576" lon="3.45516">
        <ele>58.4</ele>
        <time>2018-09-25T21:46:06.819Z</time>
      </trkpt>
      <trkpt lat="43.45766" lon="3.45516">
        <ele>58.5</ele>
        <time>2018-09-25T21:46:07.819Z</time>
      </trkpt>
      <trkpt lat="43.45771" lon="3.45514">
        <ele>58.7</ele>
        <time>2018-09-25T21:46:08.819Z</time>
      </trkpt>
      <trkpt lat="43.45775" lon="3.45512">
        <ele>58.9</ele>
        <time>2018-09-25T21:46:09.819Z</time>
      </trkpt>
      <trkpt lat="43.4578" lon="3.45509">
        <ele>59.1</ele>
        <time>2018-09-25T21:46:10.819Z</time>
      </trkpt>
      <trkpt lat="43.45786" lon="3.45509">
        <ele>59.6</ele>
        <time>2018-09-25T21:46:11.819Z</time>
      </trkpt>
      <trkpt lat="43.45793" lon="3.45508">
        <ele>60.2</ele>
        <time>2018-09-25T21:46:12.819Z</time>
      </trkpt>
      <trkpt lat="43.45801" lon="3.45508">
        <ele>61.2</ele>
        <time>2018-09-25T21:46:13.819Z</time>
      </trkpt>
      <trkpt lat="43.45809" lon="3.45507">
        <ele>61.9</ele>
        <time>2018-09-25T21:46:14.819Z</time>
      </trkpt>
      <trkpt lat="43.45817" lon="3.45508">
        <ele>61.7</ele>
        <time>2018-09-25T21:46:15.819Z</time>
      </trkpt>
      <trkpt lat="43.45825" lon="3.45507">
        <ele>61.3</ele>
        <time>2018-09-25T21:46:16.819Z</time>
      </trkpt>
      <trkpt lat="43.45833" lon="3.45508">
        <ele>60.9</ele>
        <time>2018-09-25T21:46:17.819Z</time>
      </trkpt>
      <trkpt lat="43.45839" lon="3.45509">
        <ele>60.4</ele>
        <time>2018-09-25T21:46:18.819Z</time>
      </trkpt>
      <trkpt lat="43.45846" lon="3.45508">
        <ele>59.8</ele>
        <time>2018-09-25T21:46:19.819Z</time>
      </trkpt>
      <trkpt lat="43.4585" lon="3.45507">
        <ele>59.4</ele>
        <time>2018-09-25T21:46:20.819Z</time>
      </trkpt>
      <trkpt lat="43.45854" lon="3.45506">
        <ele>59</ele>
        <time>2018-09-25T21:46:21.819Z</time>
      </trkpt>
      <trkpt lat="43.45858" lon="3.45504">
        <ele>58.6</ele>
        <time>2018-09-25T21:46:22.819Z</time>
      </trkpt>
      <trkpt lat="43.45863" lon="3.45502">
        <ele>58.2</ele>
        <time>2018-09-25T21:46:23.819Z</time>
      </trkpt>
      <trkpt lat="43.4587" lon="3.455">
        <ele>57.7</ele>
        <time>2018-09-25T21:46:24.819Z</time>
      </trkpt>
      <trkpt lat="43.45878" lon="3.455">
        <ele>57.1</ele>
        <time>2018-09-25T21:46:25.819Z</time>
      </trkpt>
      <trkpt lat="43.45885" lon="3.45499">
        <ele>56.8</ele>
        <time>2018-09-25T21:46:26.819Z</time>
      </trkpt>
      <trkpt lat="43.45891" lon="3.45501">
        <ele>56.5</ele>
        <time>2018-09-25T21:46:27.819Z</time>
      </trkpt>
      <trkpt lat="43.45896" lon="3.45504">
        <ele>56.2</ele>
        <time>2018-09-25T21:46:28.819Z</time>
      </trkpt>
      <trkpt lat="43.45902" lon="3.45505">
        <ele>55.9</ele>
        <time>2018-09-25T21:46:29.819Z</time>
      </trkpt>
      <trkpt lat="43.45907" lon="3.45505">
        <ele>55.7</ele>
        <time>2018-09-25T21:46:30.819Z</time>
      </trkpt>
      <trkpt lat="43.45913" lon="3.45507">
        <ele>55.3</ele>
        <time>2018-09-25T21:46:31.819Z</time>
      </trkpt>
      <trkpt lat="43.45919" lon="3.45509">
        <ele>55</ele>
        <time>2018-09-25T21:46:32.819Z</time>
      </trkpt>
      <trkpt lat="43.45925" lon="3.45512">
        <ele>54.7</ele>
        <time>2018-09-25T21:46:33.819Z</time>
      </trkpt>
      <trkpt lat="43.4593" lon="3.45515">
        <ele>54.4</ele>
        <time>2018-09-25T21:46:34.819Z</time>
      </trkpt>
      <trkpt lat="43.45935" lon="3.45519">
        <ele>54.2</ele>
        <time>2018-09-25T21:46:35.819Z</time>
      </trkpt>
      <trkpt lat="43.45939" lon="3.45522">
        <ele>54.1</ele>
        <time>2018-09-25T21:46:36.819Z</time>
      </trkpt>
      <trkpt lat="43.45942" lon="3.45523">
        <ele>53.9</ele>
        <time>2018-09-25T21:46:37.819Z</time>
      </trkpt>
      <trkpt lat="43.45947" lon="3.45524">
        <ele>53.8</ele>
        <time>2018-09-25T21:46:38.819Z</time>
      </trkpt>
      <trkpt lat="43.45952" lon="3.45525">
        <ele>53.6</ele>
        <time>2018-09-25T21:46:39.819Z</time>
      </trkpt>
      <trkpt lat="43.45956" lon="3.45527">
        <ele>53.5</ele>
        <time>2018-09-25T21:46:40.819Z</time>
      </trkpt>
      <trkpt lat="43.45961" lon="3.45528">
        <ele>53.4</ele>
        <time>2018-09-25T21:46:41.819Z</time>
      </trkpt>
      <trkpt lat="43.45964" lon="3.45529">
        <ele>53.3</ele>
        <time>2018-09-25T21:46:42.819Z</time>
      </trkpt>
      <trkpt lat="43.45968" lon="3.4553">
        <ele>53.2</ele>
        <time>2018-09-25T21:46:43.819Z</time>
      </trkpt>
      <trkpt lat="43.45971" lon="3.45532">
        <ele>53.1</ele>
        <time>2018-09-25T21:46:44.819Z</time>
      </trkpt>
      <trkpt lat="43.45975" lon="3.45534">
        <ele>53</ele>
        <time>2018-09-25T21:46:45.819Z</time>
      </trkpt>
      <trkpt lat="43.4598" lon="3.45537">
        <ele>53</ele>
        <time>2018-09-25T21:46:46.819Z</time>
      </trkpt>
      <trkpt lat="43.45985" lon="3.45541">
        <ele>53</ele>
        <time>2018-09-25T21:46:47.819Z</time>
      </trkpt>
      <trkpt lat="43.45989" lon="3.45547">
        <ele>53.1</ele>
        <time>2018-09-25T21:46:48.819Z</time>
      </trkpt>
      <trkpt lat="43.45993" lon="3.45551">
        <ele>53.2</ele>
        <time>2018-09-25T21:46:49.819Z</time>
      </trkpt>
      <trkpt lat="43.45997" lon="3.45552">
        <ele>53.2</ele>
        <time>2018-09-25T21:46:50.819Z</time>
      </trkpt>
      <trkpt lat="43.46001" lon="3.45554">
        <ele>53.3</ele>
        <time>2018-09-25T21:46:51.819Z</time>
      </trkpt>
      <trkpt lat="43.46005" lon="3.45556">
        <ele>53.4</ele>
        <time>2018-09-25T21:46:52.819Z</time>
      </trkpt>
      <trkpt lat="43.4601" lon="3.45558">
        <ele>53.5</ele>
        <time>2018-09-25T21:46:53.819Z</time>
      </trkpt>
      <trkpt lat="43.46015" lon="3.45559">
        <ele>53.6</ele>
        <time>2018-09-25T21:46:54.819Z</time>
      </trkpt>
      <trkpt lat="43.46019" lon="3.45562">
        <ele>53.6</ele>
        <time>2018-09-25T21:46:55.819Z</time>
      </trkpt>
      <trkpt lat="43.46023" lon="3.45564">
        <ele>53.7</ele>
        <time>2018-09-25T21:46:56.819Z</time>
      </trkpt>
      <trkpt lat="43.46027" lon="3.45567">
        <ele>53.7</ele>
        <time>2018-09-25T21:46:57.819Z</time>
      </trkpt>
      <trkpt lat="43.46031" lon="3.4557">
        <ele>53.8</ele>
        <time>2018-09-25T21:46:58.819Z</time>
      </trkpt>
      <trkpt lat="43.46035" lon="3.45574">
        <ele>53.8</ele>
        <time>2018-09-25T21:46:59.819Z</time>
      </trkpt>
      <trkpt lat="43.4604" lon="3.45578">
        <ele>53.8</ele>
        <time>2018-09-25T21:47:00.819Z</time>
      </trkpt>
      <trkpt lat="43.46046" lon="3.45582">
        <ele>53.8</ele>
        <time>2018-09-25T21:47:01.819Z</time>
      </trkpt>
      <trkpt lat="43.46051" lon="3.45586">
        <ele>53.8</ele>
        <time>2018-09-25T21:47:02.819Z</time>
      </trkpt>
      <trkpt lat="43.46055" lon="3.4559">
        <ele>53.8</ele>
        <time>2018-09-25T21:47:03.819Z</time>
      </trkpt>
      <trkpt lat="43.46059" lon="3.45594">
        <ele>53.8</ele>
        <time>2018-09-25T21:47:04.819Z</time>
      </trkpt>
      <trkpt lat="43.46062" lon="3.45598">
        <ele>53.8</ele>
        <time>2018-09-25T21:47:05.819Z</time>
      </trkpt>
      <trkpt lat="43.46065" lon="3.456">
        <ele>53.8</ele>
        <time>2018-09-25T21:47:06.819Z</time>
      </trkpt>
      <trkpt lat="43.46068" lon="3.45603">
        <ele>53.8</ele>
        <time>2018-09-25T21:47:07.819Z</time>
      </trkpt>
      <trkpt lat="43.46071" lon="3.45606">
        <ele>53.7</ele>
        <time>2018-09-25T21:47:08.819Z</time>
      </trkpt>
      <trkpt lat="43.46076" lon="3.45608">
        <ele>53.7</ele>
        <time>2018-09-25T21:47:09.819Z</time>
      </trkpt>
      <trkpt lat="43.46081" lon="3.45612">
        <ele>53.6</ele>
        <time>2018-09-25T21:47:10.819Z</time>
      </trkpt>
      <trkpt lat="43.46085" lon="3.45616">
        <ele>53.5</ele>
        <time>2018-09-25T21:47:11.819Z</time>
      </trkpt>
      <trkpt lat="43.46089" lon="3.45621">
        <ele>53.5</ele>
        <time>2018-09-25T21:47:12.819Z</time>
      </trkpt>
      <trkpt lat="43.46092" lon="3.45625">
        <ele>53.4</ele>
        <time>2018-09-25T21:47:13.819Z</time>
      </trkpt>
      <trkpt lat="43.46096" lon="3.45629">
        <ele>53.4</ele>
        <time>2018-09-25T21:47:14.819Z</time>
      </trkpt>
      <trkpt lat="43.461" lon="3.45636">
        <ele>53.2</ele>
        <time>2018-09-25T21:47:15.819Z</time>
      </trkpt>
      <trkpt lat="43.46104" lon="3.45643">
        <ele>52.9</ele>
        <time>2018-09-25T21:47:16.819Z</time>
      </trkpt>
      <trkpt lat="43.46108" lon="3.4565">
        <ele>52.6</ele>
        <time>2018-09-25T21:47:17.819Z</time>
      </trkpt>
      <trkpt lat="43.46112" lon="3.45655">
        <ele>52.3</ele>
        <time>2018-09-25T21:47:18.819Z</time>
      </trkpt>
      <trkpt lat="43.46117" lon="3.4566">
        <ele>52</ele>
        <time>2018-09-25T21:47:19.819Z</time>
      </trkpt>
      <trkpt lat="43.46121" lon="3.45666">
        <ele>51.7</ele>
        <time>2018-09-25T21:47:20.819Z</time>
      </trkpt>
      <trkpt lat="43.46123" lon="3.45674">
        <ele>51.4</ele>
        <time>2018-09-25T21:47:21.819Z</time>
      </trkpt>
      <trkpt lat="43.46127" lon="3.45682">
        <ele>51</ele>
        <time>2018-09-25T21:47:22.819Z</time>
      </trkpt>
      <trkpt lat="43.4613" lon="3.45689">
        <ele>50.7</ele>
        <time>2018-09-25T21:47:23.819Z</time>
      </trkpt>
      <trkpt lat="43.46134" lon="3.45697">
        <ele>50.3</ele>
        <time>2018-09-25T21:47:24.819Z</time>
      </trkpt>
      <trkpt lat="43.46137" lon="3.45704">
        <ele>50</ele>
        <time>2018-09-25T21:47:25.819Z</time>
      </trkpt>
      <trkpt lat="43.46139" lon="3.45711">
        <ele>49.2</ele>
        <time>2018-09-25T21:47:26.819Z</time>
      </trkpt>
      <trkpt lat="43.46143" lon="3.45716">
        <ele>48.5</ele>
        <time>2018-09-25T21:47:27.819Z</time>
      </trkpt>
      <trkpt lat="43.46147" lon="3.45722">
        <ele>47.7</ele>
        <time>2018-09-25T21:47:28.819Z</time>
      </trkpt>
      <trkpt lat="43.46151" lon="3.45727">
        <ele>47</ele>
        <time>2018-09-25T21:47:29.819Z</time>
      </trkpt>
      <trkpt lat="43.46155" lon="3.45733">
        <ele>46.4</ele>
        <time>2018-09-25T21:47:30.819Z</time>
      </trkpt>
      <trkpt lat="43.46158" lon="3.45737">
        <ele>45.9</ele>
        <time>2018-09-25T21:47:31.819Z</time>
      </trkpt>
      <trkpt lat="43.46163" lon="3.45741">
        <ele>45.4</ele>
        <time>2018-09-25T21:47:32.819Z</time>
      </trkpt>
      <trkpt lat="43.46168" lon="3.45744">
        <ele>45</ele>
        <time>2018-09-25T21:47:33.819Z</time>
      </trkpt>
      <trkpt lat="43.46172" lon="3.45747">
        <ele>44.6</ele>
        <time>2018-09-25T21:47:34.819Z</time>
      </trkpt>
      <trkpt lat="43.46175" lon="3.4575">
        <ele>44.3</ele>
        <time>2018-09-25T21:47:35.819Z</time>
      </trkpt>
      <trkpt lat="43.46179" lon="3.45754">
        <ele>43.9</ele>
        <time>2018-09-25T21:47:36.819Z</time>
      </trkpt>
      <trkpt lat="43.46183" lon="3.45758">
        <ele>43.5</ele>
        <time>2018-09-25T21:47:37.819Z</time>
      </trkpt>
      <trkpt lat="43.46188" lon="3.45762">
        <ele>43.1</ele>
        <time>2018-09-25T21:47:38.819Z</time>
      </trkpt>
      <trkpt lat="43.46191" lon="3.45765">
        <ele>42.8</ele>
        <time>2018-09-25T21:47:39.819Z</time>
      </trkpt>
      <trkpt lat="43.46195" lon="3.45768">
        <ele>42.5</ele>
        <time>2018-09-25T21:47:40.819Z</time>
      </trkpt>
      <trkpt lat="43.46199" lon="3.45772">
        <ele>42.1</ele>
        <time>2018-09-25T21:47:41.819Z</time>
      </trkpt>
      <trkpt lat="43.46204" lon="3.45777">
        <ele>41.6</ele>
        <time>2018-09-25T21:47:42.819Z</time>
      </trkpt>
      <trkpt lat="43.46209" lon="3.45783">
        <ele>41.1</ele>
        <time>2018-09-25T21:47:43.819Z</time>
      </trkpt>
      <trkpt lat="43.46216" lon="3.45788">
        <ele>40.6</ele>
        <time>2018-09-25T21:47:44.819Z</time>
      </trkpt>
      <trkpt lat="43.46222" lon="3.45793">
        <ele>40</ele>
        <time>2018-09-25T21:47:45.819Z</time>
      </trkpt>
      <trkpt lat="43.46228" lon="3.45798">
        <ele>39.4</ele>
        <time>2018-09-25T21:47:46.819Z</time>
      </trkpt>
      <trkpt lat="43.46234" lon="3.45803">
        <ele>38.8</ele>
        <time>2018-09-25T21:47:47.819Z</time>
      </trkpt>
      <trkpt lat="43.46239" lon="3.45807">
        <ele>38.2</ele>
        <time>2018-09-25T21:47:48.819Z</time>
      </trkpt>
      <trkpt lat="43.46246" lon="3.4581">
        <ele>37.5</ele>
        <time>2018-09-25T21:47:49.819Z</time>
      </trkpt>
      <trkpt lat="43.46253" lon="3.45811">
        <ele>36.5</ele>
        <time>2018-09-25T21:47:50.819Z</time>
      </trkpt>
      <trkpt lat="43.4626" lon="3.45813">
        <ele>36.2</ele>
        <time>2018-09-25T21:47:51.819Z</time>
      </trkpt>
      <trkpt lat="43.46266" lon="3.45813">
        <ele>35.9</ele>
        <time>2018-09-25T21:47:52.819Z</time>
      </trkpt>
      <trkpt lat="43.46274" lon="3.45814">
        <ele>35.5</ele>
        <time>2018-09-25T21:47:53.819Z</time>
      </trkpt>
      <trkpt lat="43.46281" lon="3.45816">
        <ele>35.2</ele>
        <time>2018-09-25T21:47:54.819Z</time>
      </trkpt>
      <trkpt lat="43.46289" lon="3.45818">
        <ele>34.9</ele>
        <time>2018-09-25T21:47:55.819Z</time>
      </trkpt>
      <trkpt lat="43.46298" lon="3.45819">
        <ele>34.6</ele>
        <time>2018-09-25T21:47:56.819Z</time>
      </trkpt>
      <trkpt lat="43.46307" lon="3.45821">
        <ele>34.3</ele>
        <time>2018-09-25T21:47:57.819Z</time>
      </trkpt>
      <trkpt lat="43.46315" lon="3.45822">
        <ele>34.1</ele>
        <time>2018-09-25T21:47:58.819Z</time>
      </trkpt>
      <trkpt lat="43.46324" lon="3.45824">
        <ele>33.8</ele>
        <time>2018-09-25T21:47:59.819Z</time>
      </trkpt>
      <trkpt lat="43.46333" lon="3.45826">
        <ele>33.6</ele>
        <time>2018-09-25T21:48:00.819Z</time>
      </trkpt>
      <trkpt lat="43.46342" lon="3.4583">
        <ele>33.3</ele>
        <time>2018-09-25T21:48:01.819Z</time>
      </trkpt>
      <trkpt lat="43.46351" lon="3.45835">
        <ele>33.1</ele>
        <time>2018-09-25T21:48:02.819Z</time>
      </trkpt>
      <trkpt lat="43.46359" lon="3.45841">
        <ele>32.8</ele>
        <time>2018-09-25T21:48:03.819Z</time>
      </trkpt>
      <trkpt lat="43.46368" lon="3.45847">
        <ele>32.5</ele>
        <time>2018-09-25T21:48:04.819Z</time>
      </trkpt>
      <trkpt lat="43.46376" lon="3.45853">
        <ele>32.2</ele>
        <time>2018-09-25T21:48:05.819Z</time>
      </trkpt>
      <trkpt lat="43.46385" lon="3.45857">
        <ele>31.8</ele>
        <time>2018-09-25T21:48:06.819Z</time>
      </trkpt>
      <trkpt lat="43.46392" lon="3.4586">
        <ele>31.5</ele>
        <time>2018-09-25T21:48:07.819Z</time>
      </trkpt>
      <trkpt lat="43.46399" lon="3.45863">
        <ele>31.1</ele>
        <time>2018-09-25T21:48:08.819Z</time>
      </trkpt>
      <trkpt lat="43.46405" lon="3.45866">
        <ele>30.8</ele>
        <time>2018-09-25T21:48:09.819Z</time>
      </trkpt>
      <trkpt lat="43.4641" lon="3.45871">
        <ele>30.5</ele>
        <time>2018-09-25T21:48:10.819Z</time>
      </trkpt>
      <trkpt lat="43.46414" lon="3.45878">
        <ele>30.3</ele>
        <time>2018-09-25T21:48:11.819Z</time>
      </trkpt>
      <trkpt lat="43.46417" lon="3.45884">
        <ele>30.1</ele>
        <time>2018-09-25T21:48:12.819Z</time>
      </trkpt>
      <trkpt lat="43.46421" lon="3.45891">
        <ele>30</ele>
        <time>2018-09-25T21:48:13.819Z</time>
      </trkpt>
      <trkpt lat="43.46425" lon="3.45896">
        <ele>30</ele>
        <time>2018-09-25T21:48:14.819Z</time>
      </trkpt>
      <trkpt lat="43.46429" lon="3.45901">
        <ele>30</ele>
        <time>2018-09-25T21:48:15.819Z</time>
      </trkpt>
      <trkpt lat="43.46433" lon="3.45905">
        <ele>30</ele>
        <time>2018-09-25T21:48:16.819Z</time>
      </trkpt>
      <trkpt lat="43.46436" lon="3.45909">
        <ele>30</ele>
        <time>2018-09-25T21:48:17.819Z</time>
      </trkpt>
      <trkpt lat="43.4644" lon="3.45913">
        <ele>30</ele>
        <time>2018-09-25T21:48:18.819Z</time>
      </trkpt>
      <trkpt lat="43.46443" lon="3.45918">
        <ele>30.1</ele>
        <time>2018-09-25T21:48:19.819Z</time>
      </trkpt>
      <trkpt lat="43.46446" lon="3.45921">
        <ele>30.1</ele>
        <time>2018-09-25T21:48:20.819Z</time>
      </trkpt>
      <trkpt lat="43.4645" lon="3.45925">
        <ele>30.1</ele>
        <time>2018-09-25T21:48:21.819Z</time>
      </trkpt>
      <trkpt lat="43.46453" lon="3.4593">
        <ele>30.2</ele>
        <time>2018-09-25T21:48:22.819Z</time>
      </trkpt>
      <trkpt lat="43.46457" lon="3.45934">
        <ele>30.2</ele>
        <time>2018-09-25T21:48:23.819Z</time>
      </trkpt>
      <trkpt lat="43.4646" lon="3.45939">
        <ele>30.2</ele>
        <time>2018-09-25T21:48:24.819Z</time>
      </trkpt>
      <trkpt lat="43.46462" lon="3.45945">
        <ele>30.3</ele>
        <time>2018-09-25T21:48:25.819Z</time>
      </trkpt>
      <trkpt lat="43.46465" lon="3.45952">
        <ele>30.5</ele>
        <time>2018-09-25T21:48:26.819Z</time>
      </trkpt>
      <trkpt lat="43.46468" lon="3.45958">
        <ele>30.8</ele>
        <time>2018-09-25T21:48:27.819Z</time>
      </trkpt>
      <trkpt lat="43.46471" lon="3.45965">
        <ele>31.2</ele>
        <time>2018-09-25T21:48:28.819Z</time>
      </trkpt>
      <trkpt lat="43.46473" lon="3.45972">
        <ele>31.5</ele>
        <time>2018-09-25T21:48:29.819Z</time>
      </trkpt>
      <trkpt lat="43.46475" lon="3.4598">
        <ele>32</ele>
        <time>2018-09-25T21:48:30.819Z</time>
      </trkpt>
      <trkpt lat="43.46477" lon="3.45988">
        <ele>32.4</ele>
        <time>2018-09-25T21:48:31.819Z</time>
      </trkpt>
      <trkpt lat="43.4648" lon="3.45997">
        <ele>32.9</ele>
        <time>2018-09-25T21:48:32.819Z</time>
      </trkpt>
      <trkpt lat="43.46482" lon="3.46005">
        <ele>33.3</ele>
        <time>2018-09-25T21:48:33.819Z</time>
      </trkpt>
      <trkpt lat="43.46484" lon="3.46014">
        <ele>33.8</ele>
        <time>2018-09-25T21:48:34.819Z</time>
      </trkpt>
      <trkpt lat="43.46486" lon="3.46022">
        <ele>34.2</ele>
        <time>2018-09-25T21:48:35.819Z</time>
      </trkpt>
      <trkpt lat="43.46489" lon="3.46031">
        <ele>34.7</ele>
        <time>2018-09-25T21:48:36.819Z</time>
      </trkpt>
      <trkpt lat="43.46491" lon="3.46038">
        <ele>35.1</ele>
        <time>2018-09-25T21:48:37.819Z</time>
      </trkpt>
      <trkpt lat="43.46493" lon="3.46047">
        <ele>35.5</ele>
        <time>2018-09-25T21:48:38.819Z</time>
      </trkpt>
      <trkpt lat="43.46495" lon="3.46054">
        <ele>35.9</ele>
        <time>2018-09-25T21:48:39.819Z</time>
      </trkpt>
      <trkpt lat="43.46498" lon="3.46061">
        <ele>36.4</ele>
        <time>2018-09-25T21:48:40.819Z</time>
      </trkpt>
      <trkpt lat="43.46501" lon="3.46067">
        <ele>36.8</ele>
        <time>2018-09-25T21:48:41.819Z</time>
      </trkpt>
      <trkpt lat="43.46504" lon="3.46074">
        <ele>37.2</ele>
        <time>2018-09-25T21:48:42.819Z</time>
      </trkpt>
      <trkpt lat="43.46507" lon="3.46081">
        <ele>37.6</ele>
        <time>2018-09-25T21:48:43.819Z</time>
      </trkpt>
      <trkpt lat="43.4651" lon="3.46088">
        <ele>38.1</ele>
        <time>2018-09-25T21:48:44.819Z</time>
      </trkpt>
      <trkpt lat="43.46513" lon="3.46094">
        <ele>38.5</ele>
        <time>2018-09-25T21:48:45.819Z</time>
      </trkpt>
      <trkpt lat="43.46517" lon="3.46099">
        <ele>39</ele>
        <time>2018-09-25T21:48:46.819Z</time>
      </trkpt>
      <trkpt lat="43.46521" lon="3.46104">
        <ele>39.5</ele>
        <time>2018-09-25T21:48:47.819Z</time>
      </trkpt>
      <trkpt lat="43.46524" lon="3.46109">
        <ele>40</ele>
        <time>2018-09-25T21:48:48.819Z</time>
      </trkpt>
      <trkpt lat="43.46527" lon="3.46115">
        <ele>40.8</ele>
        <time>2018-09-25T21:48:49.819Z</time>
      </trkpt>
      <trkpt lat="43.46531" lon="3.46121">
        <ele>41.6</ele>
        <time>2018-09-25T21:48:50.819Z</time>
      </trkpt>
      <trkpt lat="43.46534" lon="3.46126">
        <ele>42.4</ele>
        <time>2018-09-25T21:48:51.819Z</time>
      </trkpt>
      <trkpt lat="43.46537" lon="3.46131">
        <ele>43.1</ele>
        <time>2018-09-25T21:48:52.819Z</time>
      </trkpt>
      <trkpt lat="43.46541" lon="3.46137">
        <ele>43.9</ele>
        <time>2018-09-25T21:48:53.819Z</time>
      </trkpt>
      <trkpt lat="43.46545" lon="3.46142">
        <ele>44.7</ele>
        <time>2018-09-25T21:48:54.819Z</time>
      </trkpt>
      <trkpt lat="43.46549" lon="3.46146">
        <ele>45.4</ele>
        <time>2018-09-25T21:48:55.819Z</time>
      </trkpt>
      <trkpt lat="43.46553" lon="3.46151">
        <ele>46.1</ele>
        <time>2018-09-25T21:48:56.819Z</time>
      </trkpt>
      <trkpt lat="43.46557" lon="3.46155">
        <ele>46.8</ele>
        <time>2018-09-25T21:48:57.819Z</time>
      </trkpt>
      <trkpt lat="43.46561" lon="3.4616">
        <ele>47.5</ele>
        <time>2018-09-25T21:48:58.819Z</time>
      </trkpt>
      <trkpt lat="43.46565" lon="3.46164">
        <ele>48.2</ele>
        <time>2018-09-25T21:48:59.819Z</time>
      </trkpt>
      <trkpt lat="43.46569" lon="3.46168">
        <ele>48.9</ele>
        <time>2018-09-25T21:49:00.819Z</time>
      </trkpt>
      <trkpt lat="43.46574" lon="3.46172">
        <ele>49.5</ele>
        <time>2018-09-25T21:49:01.819Z</time>
      </trkpt>
      <trkpt lat="43.46577" lon="3.46175">
        <ele>50.1</ele>
        <time>2018-09-25T21:49:02.819Z</time>
      </trkpt>
      <trkpt lat="43.4658" lon="3.46179">
        <ele>50.6</ele>
        <time>2018-09-25T21:49:03.819Z</time>
      </trkpt>
      <trkpt lat="43.46583" lon="3.46183">
        <ele>51</ele>
        <time>2018-09-25T21:49:04.819Z</time>
      </trkpt>
      <trkpt lat="43.46585" lon="3.46187">
        <ele>51.5</ele>
        <time>2018-09-25T21:49:05.819Z</time>
      </trkpt>
      <trkpt lat="43.46586" lon="3.46192">
        <ele>51</ele>
        <time>2018-09-25T21:49:06.819Z</time>
      </trkpt>
      <trkpt lat="43.46584" lon="3.46197">
        <ele>49.7</ele>
        <time>2018-09-25T21:49:07.819Z</time>
      </trkpt>
      <trkpt lat="43.46582" lon="3.46201">
        <ele>48.4</ele>
        <time>2018-09-25T21:49:08.819Z</time>
      </trkpt>
      <trkpt lat="43.4658" lon="3.46207">
        <ele>46.9</ele>
        <time>2018-09-25T21:49:09.819Z</time>
      </trkpt>
      <trkpt lat="43.46578" lon="3.46212">
        <ele>45.6</ele>
        <time>2018-09-25T21:49:10.819Z</time>
      </trkpt>
      <trkpt lat="43.46577" lon="3.46217">
        <ele>44.4</ele>
        <time>2018-09-25T21:49:11.819Z</time>
      </trkpt>
      <trkpt lat="43.46574" lon="3.46223">
        <ele>42.6</ele>
        <time>2018-09-25T21:49:12.819Z</time>
      </trkpt>
      <trkpt lat="43.46574" lon="3.4623">
        <ele>40</ele>
        <time>2018-09-25T21:49:13.819Z</time>
      </trkpt>
      <trkpt lat="43.46576" lon="3.46236">
        <ele>40</ele>
        <time>2018-09-25T21:49:14.819Z</time>
      </trkpt>
      <trkpt lat="43.46581" lon="3.46239">
        <ele>40</ele>
        <time>2018-09-25T21:49:15.819Z</time>
      </trkpt>
      <trkpt lat="43.46584" lon="3.46241">
        <ele>40.4</ele>
        <time>2018-09-25T21:49:16.819Z</time>
      </trkpt>
      <trkpt lat="43.46587" lon="3.46244">
        <ele>41.5</ele>
        <time>2018-09-25T21:49:17.819Z</time>
      </trkpt>
      <trkpt lat="43.46588" lon="3.46248">
        <ele>42.5</ele>
        <time>2018-09-25T21:49:18.819Z</time>
      </trkpt>
      <trkpt lat="43.46592" lon="3.4625">
        <ele>43.5</ele>
        <time>2018-09-25T21:49:19.819Z</time>
      </trkpt>
      <trkpt lat="43.46596" lon="3.4625">
        <ele>44.8</ele>
        <time>2018-09-25T21:49:20.819Z</time>
      </trkpt>
      <trkpt lat="43.466" lon="3.46253">
        <ele>46.1</ele>
        <time>2018-09-25T21:49:21.819Z</time>
      </trkpt>
      <trkpt lat="43.46603" lon="3.46255">
        <ele>47.1</ele>
        <time>2018-09-25T21:49:22.819Z</time>
      </trkpt>
      <trkpt lat="43.46606" lon="3.46255">
        <ele>47.9</ele>
        <time>2018-09-25T21:49:23.819Z</time>
      </trkpt>
      <trkpt lat="43.46609" lon="3.46256">
        <ele>49</ele>
        <time>2018-09-25T21:49:24.819Z</time>
      </trkpt>
      <trkpt lat="43.46613" lon="3.46258">
        <ele>50</ele>
        <time>2018-09-25T21:49:25.819Z</time>
      </trkpt>
      <trkpt lat="43.46617" lon="3.46258">
        <ele>51.3</ele>
        <time>2018-09-25T21:49:27.819Z</time>
      </trkpt>
      <trkpt lat="43.4662" lon="3.46259">
        <ele>53</ele>
        <time>2018-09-25T21:49:29.819Z</time>
      </trkpt>
      <trkpt lat="43.46624" lon="3.4626">
        <ele>53</ele>
        <time>2018-09-25T21:49:31.819Z</time>
      </trkpt>
      <trkpt lat="43.46629" lon="3.46259">
        <ele>53</ele>
        <time>2018-09-25T21:49:34.819Z</time>
      </trkpt>
      <trkpt lat="43.46633" lon="3.46257">
        <ele>53</ele>
        <time>2018-09-25T21:49:36.819Z</time>
      </trkpt>
      <trkpt lat="43.46637" lon="3.46257">
        <ele>53</ele>
        <time>2018-09-25T21:49:38.819Z</time>
      </trkpt>
      <trkpt lat="43.4664" lon="3.46253">
        <ele>53</ele>
        <time>2018-09-25T21:49:40.819Z</time>
      </trkpt>
      <trkpt lat="43.4664" lon="3.46247">
        <ele>52.9</ele>
        <time>2018-09-25T21:49:41.819Z</time>
      </trkpt>
      <trkpt lat="43.46639" lon="3.46242">
        <ele>52.7</ele>
        <time>2018-09-25T21:49:42.819Z</time>
      </trkpt>
      <trkpt lat="43.46639" lon="3.46237">
        <ele>52.6</ele>
        <time>2018-09-25T21:49:43.819Z</time>
      </trkpt>
      <trkpt lat="43.46639" lon="3.46233">
        <ele>52.4</ele>
        <time>2018-09-25T21:49:44.819Z</time>
      </trkpt>
      <trkpt lat="43.46638" lon="3.46229">
        <ele>52.3</ele>
        <time>2018-09-25T21:49:45.819Z</time>
      </trkpt>
      <trkpt lat="43.46637" lon="3.46223">
        <ele>52.1</ele>
        <time>2018-09-25T21:49:47.819Z</time>
      </trkpt>
      <trkpt lat="43.46638" lon="3.46219">
        <ele>52</ele>
        <time>2018-09-25T21:49:48.819Z</time>
      </trkpt>
      <trkpt lat="43.46639" lon="3.46215">
        <ele>52</ele>
        <time>2018-09-25T21:49:49.819Z</time>
      </trkpt>
      <trkpt lat="43.4664" lon="3.46211">
        <ele>52</ele>
        <time>2018-09-25T21:49:50.819Z</time>
      </trkpt>
      <trkpt lat="43.46641" lon="3.46206">
        <ele>52</ele>
        <time>2018-09-25T21:49:51.819Z</time>
      </trkpt>
      <trkpt lat="43.46642" lon="3.46203">
        <ele>52</ele>
        <time>2018-09-25T21:49:52.819Z</time>
      </trkpt>
      <trkpt lat="43.46642" lon="3.46198">
        <ele>52</ele>
        <time>2018-09-25T21:49:53.819Z</time>
      </trkpt>
      <trkpt lat="43.46644" lon="3.46193">
        <ele>52</ele>
        <time>2018-09-25T21:49:55.819Z</time>
      </trkpt>
      <trkpt lat="43.46646" lon="3.4619">
        <ele>52</ele>
        <time>2018-09-25T21:49:56.819Z</time>
      </trkpt>
      <trkpt lat="43.46647" lon="3.46185">
        <ele>52</ele>
        <time>2018-09-25T21:49:58.819Z</time>
      </trkpt>
      <trkpt lat="43.46648" lon="3.4618">
        <ele>52</ele>
        <time>2018-09-25T21:50:00.819Z</time>
      </trkpt>
      <trkpt lat="43.4665" lon="3.46176">
        <ele>52</ele>
        <time>2018-09-25T21:50:02.819Z</time>
      </trkpt>
      <trkpt lat="43.4665" lon="3.46169">
        <ele>52</ele>
        <time>2018-09-25T21:50:04.819Z</time>
      </trkpt>
      <trkpt lat="43.46652" lon="3.46161">
        <ele>51.8</ele>
        <time>2018-09-25T21:50:06.819Z</time>
      </trkpt>
      <trkpt lat="43.46653" lon="3.46157">
        <ele>51.7</ele>
        <time>2018-09-25T21:50:07.819Z</time>
      </trkpt>
      <trkpt lat="43.46654" lon="3.46153">
        <ele>51.7</ele>
        <time>2018-09-25T21:50:08.819Z</time>
      </trkpt>
      <trkpt lat="43.46655" lon="3.4615">
        <ele>51.6</ele>
        <time>2018-09-25T21:50:09.819Z</time>
      </trkpt>
      <trkpt lat="43.46658" lon="3.46147">
        <ele>51.5</ele>
        <time>2018-09-25T21:50:10.819Z</time>
      </trkpt>
      <trkpt lat="43.4666" lon="3.46143">
        <ele>51.4</ele>
        <time>2018-09-25T21:50:11.819Z</time>
      </trkpt>
      <trkpt lat="43.4666" lon="3.46137">
        <ele>51.3</ele>
        <time>2018-09-25T21:50:12.819Z</time>
      </trkpt>
      <trkpt lat="43.46661" lon="3.46131">
        <ele>51.1</ele>
        <time>2018-09-25T21:50:13.819Z</time>
      </trkpt>
      <trkpt lat="43.46662" lon="3.46126">
        <ele>51</ele>
        <time>2018-09-25T21:50:14.819Z</time>
      </trkpt>
      <trkpt lat="43.46664" lon="3.46122">
        <ele>50.8</ele>
        <time>2018-09-25T21:50:15.819Z</time>
      </trkpt>
      <trkpt lat="43.46666" lon="3.46116">
        <ele>50.7</ele>
        <time>2018-09-25T21:50:16.819Z</time>
      </trkpt>
      <trkpt lat="43.46668" lon="3.46111">
        <ele>50.6</ele>
        <time>2018-09-25T21:50:17.819Z</time>
      </trkpt>
      <trkpt lat="43.46669" lon="3.46106">
        <ele>50.5</ele>
        <time>2018-09-25T21:50:18.819Z</time>
      </trkpt>
      <trkpt lat="43.46668" lon="3.46098">
        <ele>50.4</ele>
        <time>2018-09-25T21:50:19.819Z</time>
      </trkpt>
      <trkpt lat="43.46669" lon="3.46093">
        <ele>50.3</ele>
        <time>2018-09-25T21:50:20.819Z</time>
      </trkpt>
      <trkpt lat="43.4667" lon="3.46088">
        <ele>50.2</ele>
        <time>2018-09-25T21:50:21.819Z</time>
      </trkpt>
      <trkpt lat="43.46671" lon="3.46083">
        <ele>50.1</ele>
        <time>2018-09-25T21:50:22.819Z</time>
      </trkpt>
      <trkpt lat="43.4667" lon="3.46076">
        <ele>49.8</ele>
        <time>2018-09-25T21:50:23.819Z</time>
      </trkpt>
      <trkpt lat="43.46669" lon="3.4607">
        <ele>49.7</ele>
        <time>2018-09-25T21:50:24.819Z</time>
      </trkpt>
      <trkpt lat="43.46669" lon="3.46063">
        <ele>49.5</ele>
        <time>2018-09-25T21:50:25.819Z</time>
      </trkpt>
      <trkpt lat="43.46669" lon="3.46057">
        <ele>49.4</ele>
        <time>2018-09-25T21:50:26.819Z</time>
      </trkpt>
      <trkpt lat="43.4667" lon="3.46052">
        <ele>49.4</ele>
        <time>2018-09-25T21:50:27.819Z</time>
      </trkpt>
      <trkpt lat="43.4667" lon="3.46048">
        <ele>49.3</ele>
        <time>2018-09-25T21:50:28.819Z</time>
      </trkpt>
      <trkpt lat="43.4667" lon="3.46043">
        <ele>49.2</ele>
        <time>2018-09-25T21:50:29.819Z</time>
      </trkpt>
      <trkpt lat="43.46669" lon="3.46037">
        <ele>49.1</ele>
        <time>2018-09-25T21:50:30.819Z</time>
      </trkpt>
      <trkpt lat="43.4667" lon="3.46032">
        <ele>49</ele>
        <time>2018-09-25T21:50:31.819Z</time>
      </trkpt>
      <trkpt lat="43.4667" lon="3.46027">
        <ele>48.9</ele>
        <time>2018-09-25T21:50:32.819Z</time>
      </trkpt>
      <trkpt lat="43.4667" lon="3.46023">
        <ele>48.8</ele>
        <time>2018-09-25T21:50:33.819Z</time>
      </trkpt>
      <trkpt lat="43.46671" lon="3.46018">
        <ele>48.7</ele>
        <time>2018-09-25T21:50:34.819Z</time>
      </trkpt>
      <trkpt lat="43.46671" lon="3.46012">
        <ele>48.5</ele>
        <time>2018-09-25T21:50:35.819Z</time>
      </trkpt>
      <trkpt lat="43.46671" lon="3.46008">
        <ele>48.4</ele>
        <time>2018-09-25T21:50:36.819Z</time>
      </trkpt>
      <trkpt lat="43.46671" lon="3.46001">
        <ele>48.3</ele>
        <time>2018-09-25T21:50:37.819Z</time>
      </trkpt>
      <trkpt lat="43.46671" lon="3.45995">
        <ele>48.1</ele>
        <time>2018-09-25T21:50:38.819Z</time>
      </trkpt>
      <trkpt lat="43.46672" lon="3.45989">
        <ele>48</ele>
        <time>2018-09-25T21:50:39.819Z</time>
      </trkpt>
      <trkpt lat="43.46672" lon="3.45983">
        <ele>47.9</ele>
        <time>2018-09-25T21:50:40.819Z</time>
      </trkpt>
      <trkpt lat="43.46672" lon="3.45976">
        <ele>47.9</ele>
        <time>2018-09-25T21:50:41.819Z</time>
      </trkpt>
      <trkpt lat="43.46673" lon="3.45971">
        <ele>47.8</ele>
        <time>2018-09-25T21:50:42.819Z</time>
      </trkpt>
      <trkpt lat="43.46675" lon="3.45966">
        <ele>47.8</ele>
        <time>2018-09-25T21:50:43.819Z</time>
      </trkpt>
      <trkpt lat="43.46678" lon="3.45961">
        <ele>47.7</ele>
        <time>2018-09-25T21:50:44.819Z</time>
      </trkpt>
      <trkpt lat="43.46678" lon="3.45954">
        <ele>47.7</ele>
        <time>2018-09-25T21:50:45.819Z</time>
      </trkpt>
      <trkpt lat="43.46679" lon="3.45946">
        <ele>47.5</ele>
        <time>2018-09-25T21:50:46.819Z</time>
      </trkpt>
      <trkpt lat="43.4668" lon="3.45938">
        <ele>47.4</ele>
        <time>2018-09-25T21:50:47.819Z</time>
      </trkpt>
      <trkpt lat="43.46681" lon="3.45929">
        <ele>47.3</ele>
        <time>2018-09-25T21:50:48.819Z</time>
      </trkpt>
      <trkpt lat="43.46682" lon="3.4592">
        <ele>47.2</ele>
        <time>2018-09-25T21:50:49.819Z</time>
      </trkpt>
      <trkpt lat="43.46684" lon="3.45911">
        <ele>47.1</ele>
        <time>2018-09-25T21:50:50.819Z</time>
      </trkpt>
      <trkpt lat="43.46684" lon="3.459">
        <ele>47</ele>
        <time>2018-09-25T21:50:51.819Z</time>
      </trkpt>
      <trkpt lat="43.46685" lon="3.45889">
        <ele>46.8</ele>
        <time>2018-09-25T21:50:52.819Z</time>
      </trkpt>
      <trkpt lat="43.46687" lon="3.4588">
        <ele>46.6</ele>
        <time>2018-09-25T21:50:53.819Z</time>
      </trkpt>
      <trkpt lat="43.46689" lon="3.4587">
        <ele>46.2</ele>
        <time>2018-09-25T21:50:54.819Z</time>
      </trkpt>
      <trkpt lat="43.46691" lon="3.45859">
        <ele>45.8</ele>
        <time>2018-09-25T21:50:55.819Z</time>
      </trkpt>
      <trkpt lat="43.46692" lon="3.45849">
        <ele>45.6</ele>
        <time>2018-09-25T21:50:56.819Z</time>
      </trkpt>
      <trkpt lat="43.46694" lon="3.45838">
        <ele>45.3</ele>
        <time>2018-09-25T21:50:57.819Z</time>
      </trkpt>
      <trkpt lat="43.46696" lon="3.45827">
        <ele>44.9</ele>
        <time>2018-09-25T21:50:58.819Z</time>
      </trkpt>
      <trkpt lat="43.46697" lon="3.45815">
        <ele>44.3</ele>
        <time>2018-09-25T21:50:59.819Z</time>
      </trkpt>
      <trkpt lat="43.46698" lon="3.45804">
        <ele>43.9</ele>
        <time>2018-09-25T21:51:00.819Z</time>
      </trkpt>
      <trkpt lat="43.46699" lon="3.45793">
        <ele>43.5</ele>
        <time>2018-09-25T21:51:01.819Z</time>
      </trkpt>
      <trkpt lat="43.467" lon="3.45782">
        <ele>43.2</ele>
        <time>2018-09-25T21:51:02.819Z</time>
      </trkpt>
      <trkpt lat="43.46702" lon="3.45771">
        <ele>42.9</ele>
        <time>2018-09-25T21:51:03.819Z</time>
      </trkpt>
      <trkpt lat="43.46702" lon="3.4576">
        <ele>42.4</ele>
        <time>2018-09-25T21:51:04.819Z</time>
      </trkpt>
      <trkpt lat="43.46703" lon="3.45749">
        <ele>42</ele>
        <time>2018-09-25T21:51:05.819Z</time>
      </trkpt>
      <trkpt lat="43.46704" lon="3.45739">
        <ele>41.9</ele>
        <time>2018-09-25T21:51:06.819Z</time>
      </trkpt>
      <trkpt lat="43.46704" lon="3.45728">
        <ele>41.7</ele>
        <time>2018-09-25T21:51:07.819Z</time>
      </trkpt>
      <trkpt lat="43.46705" lon="3.45718">
        <ele>41.5</ele>
        <time>2018-09-25T21:51:08.819Z</time>
      </trkpt>
      <trkpt lat="43.46705" lon="3.45708">
        <ele>41.3</ele>
        <time>2018-09-25T21:51:09.819Z</time>
      </trkpt>
      <trkpt lat="43.46706" lon="3.45698">
        <ele>40.9</ele>
        <time>2018-09-25T21:51:10.819Z</time>
      </trkpt>
      <trkpt lat="43.46707" lon="3.45687">
        <ele>40.5</ele>
        <time>2018-09-25T21:51:11.819Z</time>
      </trkpt>
      <trkpt lat="43.46708" lon="3.45676">
        <ele>40.1</ele>
        <time>2018-09-25T21:51:12.819Z</time>
      </trkpt>
      <trkpt lat="43.46708" lon="3.45666">
        <ele>39.9</ele>
        <time>2018-09-25T21:51:13.819Z</time>
      </trkpt>
      <trkpt lat="43.46709" lon="3.45655">
        <ele>39.6</ele>
        <time>2018-09-25T21:51:14.819Z</time>
      </trkpt>
      <trkpt lat="43.46709" lon="3.45643">
        <ele>39.1</ele>
        <time>2018-09-25T21:51:15.819Z</time>
      </trkpt>
      <trkpt lat="43.4671" lon="3.45632">
        <ele>38.7</ele>
        <time>2018-09-25T21:51:16.819Z</time>
      </trkpt>
      <trkpt lat="43.46711" lon="3.4562">
        <ele>38.2</ele>
        <time>2018-09-25T21:51:17.819Z</time>
      </trkpt>
      <trkpt lat="43.46712" lon="3.45607">
        <ele>37.7</ele>
        <time>2018-09-25T21:51:18.819Z</time>
      </trkpt>
      <trkpt lat="43.46712" lon="3.45594">
        <ele>37.1</ele>
        <time>2018-09-25T21:51:19.819Z</time>
      </trkpt>
      <trkpt lat="43.46712" lon="3.45582">
        <ele>36.3</ele>
        <time>2018-09-25T21:51:20.819Z</time>
      </trkpt>
      <trkpt lat="43.46713" lon="3.45569">
        <ele>35.5</ele>
        <time>2018-09-25T21:51:21.819Z</time>
      </trkpt>
      <trkpt lat="43.46712" lon="3.45556">
        <ele>34.7</ele>
        <time>2018-09-25T21:51:22.819Z</time>
      </trkpt>
      <trkpt lat="43.46712" lon="3.45542">
        <ele>33.7</ele>
        <time>2018-09-25T21:51:23.819Z</time>
      </trkpt>
      <trkpt lat="43.46711" lon="3.45527">
        <ele>32.8</ele>
        <time>2018-09-25T21:51:24.819Z</time>
      </trkpt>
      <trkpt lat="43.46711" lon="3.45515">
        <ele>32</ele>
        <time>2018-09-25T21:51:25.819Z</time>
      </trkpt>
      <trkpt lat="43.4671" lon="3.45502">
        <ele>31.3</ele>
        <time>2018-09-25T21:51:26.819Z</time>
      </trkpt>
      <trkpt lat="43.4671" lon="3.45488">
        <ele>30.5</ele>
        <time>2018-09-25T21:51:27.819Z</time>
      </trkpt>
      <trkpt lat="43.4671" lon="3.45474">
        <ele>29.8</ele>
        <time>2018-09-25T21:51:28.819Z</time>
      </trkpt>
      <trkpt lat="43.4671" lon="3.4546">
        <ele>29</ele>
        <time>2018-09-25T21:51:29.819Z</time>
      </trkpt>
      <trkpt lat="43.4671" lon="3.45447">
        <ele>28.2</ele>
        <time>2018-09-25T21:51:30.819Z</time>
      </trkpt>
      <trkpt lat="43.4671" lon="3.45432">
        <ele>27.5</ele>
        <time>2018-09-25T21:51:31.819Z</time>
      </trkpt>
      <trkpt lat="43.46711" lon="3.45417">
        <ele>26.9</ele>
        <time>2018-09-25T21:51:32.819Z</time>
      </trkpt>
      <trkpt lat="43.46711" lon="3.45402">
        <ele>26.6</ele>
        <time>2018-09-25T21:51:33.819Z</time>
      </trkpt>
      <trkpt lat="43.46712" lon="3.45386">
        <ele>26.4</ele>
        <time>2018-09-25T21:51:34.819Z</time>
      </trkpt>
      <trkpt lat="43.46712" lon="3.45369">
        <ele>26.3</ele>
        <time>2018-09-25T21:51:35.819Z</time>
      </trkpt>
      <trkpt lat="43.46712" lon="3.45352">
        <ele>26.3</ele>
        <time>2018-09-25T21:51:36.819Z</time>
      </trkpt>
      <trkpt lat="43.46713" lon="3.45336">
        <ele>26.2</ele>
        <time>2018-09-25T21:51:37.819Z</time>
      </trkpt>
      <trkpt lat="43.46713" lon="3.45319">
        <ele>25.9</ele>
        <time>2018-09-25T21:51:38.819Z</time>
      </trkpt>
      <trkpt lat="43.46714" lon="3.45303">
        <ele>25.6</ele>
        <time>2018-09-25T21:51:39.819Z</time>
      </trkpt>
      <trkpt lat="43.46715" lon="3.45288">
        <ele>25.3</ele>
        <time>2018-09-25T21:51:40.819Z</time>
      </trkpt>
      <trkpt lat="43.46715" lon="3.45274">
        <ele>25.1</ele>
        <time>2018-09-25T21:51:41.819Z</time>
      </trkpt>
      <trkpt lat="43.46716" lon="3.45261">
        <ele>25</ele>
        <time>2018-09-25T21:51:42.819Z</time>
      </trkpt>
      <trkpt lat="43.46718" lon="3.45248">
        <ele>25</ele>
        <time>2018-09-25T21:51:43.819Z</time>
      </trkpt>
      <trkpt lat="43.46721" lon="3.45236">
        <ele>25</ele>
        <time>2018-09-25T21:51:44.819Z</time>
      </trkpt>
      <trkpt lat="43.46725" lon="3.45226">
        <ele>25</ele>
        <time>2018-09-25T21:51:45.819Z</time>
      </trkpt>
      <trkpt lat="43.46729" lon="3.45215">
        <ele>25</ele>
        <time>2018-09-25T21:51:46.819Z</time>
      </trkpt>
      <trkpt lat="43.46733" lon="3.45205">
        <ele>25</ele>
        <time>2018-09-25T21:51:47.819Z</time>
      </trkpt>
      <trkpt lat="43.46736" lon="3.45195">
        <ele>25</ele>
        <time>2018-09-25T21:51:48.819Z</time>
      </trkpt>
      <trkpt lat="43.46741" lon="3.45185">
        <ele>25</ele>
        <time>2018-09-25T21:51:49.819Z</time>
      </trkpt>
      <trkpt lat="43.46745" lon="3.45175">
        <ele>25</ele>
        <time>2018-09-25T21:51:50.819Z</time>
      </trkpt>
      <trkpt lat="43.46749" lon="3.45167">
        <ele>25</ele>
        <time>2018-09-25T21:51:51.819Z</time>
      </trkpt>
      <trkpt lat="43.46753" lon="3.45158">
        <ele>25.1</ele>
        <time>2018-09-25T21:51:52.819Z</time>
      </trkpt>
      <trkpt lat="43.46758" lon="3.45149">
        <ele>25.1</ele>
        <time>2018-09-25T21:51:53.819Z</time>
      </trkpt>
      <trkpt lat="43.46763" lon="3.45141">
        <ele>25.1</ele>
        <time>2018-09-25T21:51:54.819Z</time>
      </trkpt>
      <trkpt lat="43.46767" lon="3.45132">
        <ele>25.1</ele>
        <time>2018-09-25T21:51:55.819Z</time>
      </trkpt>
      <trkpt lat="43.46772" lon="3.45124">
        <ele>25.1</ele>
        <time>2018-09-25T21:51:56.819Z</time>
      </trkpt>
      <trkpt lat="43.46777" lon="3.45116">
        <ele>25.2</ele>
        <time>2018-09-25T21:51:57.819Z</time>
      </trkpt>
      <trkpt lat="43.46782" lon="3.45107">
        <ele>25.2</ele>
        <time>2018-09-25T21:51:58.819Z</time>
      </trkpt>
      <trkpt lat="43.46786" lon="3.45099">
        <ele>25.2</ele>
        <time>2018-09-25T21:51:59.819Z</time>
      </trkpt>
      <trkpt lat="43.4679" lon="3.45091">
        <ele>25.3</ele>
        <time>2018-09-25T21:52:00.819Z</time>
      </trkpt>
      <trkpt lat="43.46794" lon="3.45083">
        <ele>25.3</ele>
        <time>2018-09-25T21:52:01.819Z</time>
      </trkpt>
      <trkpt lat="43.46798" lon="3.45075">
        <ele>25.3</ele>
        <time>2018-09-25T21:52:02.819Z</time>
      </trkpt>
      <trkpt lat="43.46803" lon="3.45068">
        <ele>25.4</ele>
        <time>2018-09-25T21:52:03.819Z</time>
      </trkpt>
      <trkpt lat="43.46807" lon="3.4506">
        <ele>25.4</ele>
        <time>2018-09-25T21:52:04.819Z</time>
      </trkpt>
      <trkpt lat="43.4681" lon="3.45053">
        <ele>25.4</ele>
        <time>2018-09-25T21:52:05.819Z</time>
      </trkpt>
      <trkpt lat="43.46814" lon="3.45045">
        <ele>25.4</ele>
        <time>2018-09-25T21:52:06.819Z</time>
      </trkpt>
      <trkpt lat="43.46817" lon="3.45036">
        <ele>25.4</ele>
        <time>2018-09-25T21:52:07.819Z</time>
      </trkpt>
      <trkpt lat="43.4682" lon="3.45029">
        <ele>25.5</ele>
        <time>2018-09-25T21:52:08.819Z</time>
      </trkpt>
      <trkpt lat="43.46823" lon="3.45021">
        <ele>25.5</ele>
        <time>2018-09-25T21:52:09.819Z</time>
      </trkpt>
      <trkpt lat="43.46827" lon="3.45013">
        <ele>25.5</ele>
        <time>2018-09-25T21:52:10.819Z</time>
      </trkpt>
      <trkpt lat="43.4683" lon="3.45006">
        <ele>25.5</ele>
        <time>2018-09-25T21:52:11.819Z</time>
      </trkpt>
      <trkpt lat="43.46834" lon="3.44998">
        <ele>25.5</ele>
        <time>2018-09-25T21:52:12.819Z</time>
      </trkpt>
      <trkpt lat="43.46837" lon="3.4499">
        <ele>25.6</ele>
        <time>2018-09-25T21:52:13.819Z</time>
      </trkpt>
      <trkpt lat="43.4684" lon="3.44983">
        <ele>25.6</ele>
        <time>2018-09-25T21:52:14.819Z</time>
      </trkpt>
      <trkpt lat="43.46843" lon="3.44975">
        <ele>25.6</ele>
        <time>2018-09-25T21:52:15.819Z</time>
      </trkpt>
      <trkpt lat="43.46847" lon="3.44969">
        <ele>25.6</ele>
        <time>2018-09-25T21:52:16.819Z</time>
      </trkpt>
      <trkpt lat="43.4685" lon="3.44961">
        <ele>25.6</ele>
        <time>2018-09-25T21:52:17.819Z</time>
      </trkpt>
      <trkpt lat="43.46854" lon="3.44955">
        <ele>25.6</ele>
        <time>2018-09-25T21:52:18.819Z</time>
      </trkpt>
      <trkpt lat="43.46858" lon="3.44948">
        <ele>25.7</ele>
        <time>2018-09-25T21:52:19.819Z</time>
      </trkpt>
      <trkpt lat="43.46864" lon="3.44942">
        <ele>25.7</ele>
        <time>2018-09-25T21:52:20.819Z</time>
      </trkpt>
      <trkpt lat="43.46868" lon="3.44935">
        <ele>25.7</ele>
        <time>2018-09-25T21:52:21.819Z</time>
      </trkpt>
      <trkpt lat="43.46873" lon="3.44929">
        <ele>25.7</ele>
        <time>2018-09-25T21:52:22.819Z</time>
      </trkpt>
      <trkpt lat="43.46878" lon="3.44924">
        <ele>25.7</ele>
        <time>2018-09-25T21:52:23.819Z</time>
      </trkpt>
      <trkpt lat="43.46883" lon="3.44918">
        <ele>25.7</ele>
        <time>2018-09-25T21:52:24.819Z</time>
      </trkpt>
      <trkpt lat="43.46887" lon="3.44913">
        <ele>25.8</ele>
        <time>2018-09-25T21:52:25.819Z</time>
      </trkpt>
      <trkpt lat="43.46893" lon="3.44907">
        <ele>25.8</ele>
        <time>2018-09-25T21:52:26.819Z</time>
      </trkpt>
      <trkpt lat="43.46898" lon="3.44901">
        <ele>25.8</ele>
        <time>2018-09-25T21:52:27.819Z</time>
      </trkpt>
      <trkpt lat="43.46903" lon="3.44897">
        <ele>25.8</ele>
        <time>2018-09-25T21:52:28.819Z</time>
      </trkpt>
      <trkpt lat="43.46907" lon="3.44893">
        <ele>25.8</ele>
        <time>2018-09-25T21:52:29.819Z</time>
      </trkpt>
      <trkpt lat="43.46912" lon="3.4489">
        <ele>25.8</ele>
        <time>2018-09-25T21:52:30.819Z</time>
      </trkpt>
      <trkpt lat="43.46918" lon="3.44887">
        <ele>25.8</ele>
        <time>2018-09-25T21:52:31.819Z</time>
      </trkpt>
      <trkpt lat="43.46925" lon="3.44882">
        <ele>25.9</ele>
        <time>2018-09-25T21:52:32.819Z</time>
      </trkpt>
      <trkpt lat="43.4693" lon="3.44877">
        <ele>25.9</ele>
        <time>2018-09-25T21:52:33.819Z</time>
      </trkpt>
      <trkpt lat="43.46936" lon="3.44872">
        <ele>25.9</ele>
        <time>2018-09-25T21:52:34.819Z</time>
      </trkpt>
      <trkpt lat="43.46942" lon="3.44868">
        <ele>25.9</ele>
        <time>2018-09-25T21:52:35.819Z</time>
      </trkpt>
      <trkpt lat="43.46946" lon="3.44864">
        <ele>25.9</ele>
        <time>2018-09-25T21:52:36.819Z</time>
      </trkpt>
      <trkpt lat="43.46951" lon="3.44858">
        <ele>25.9</ele>
        <time>2018-09-25T21:52:37.819Z</time>
      </trkpt>
      <trkpt lat="43.46957" lon="3.44853">
        <ele>25.9</ele>
        <time>2018-09-25T21:52:38.819Z</time>
      </trkpt>
      <trkpt lat="43.46962" lon="3.44848">
        <ele>25.9</ele>
        <time>2018-09-25T21:52:39.819Z</time>
      </trkpt>
      <trkpt lat="43.46968" lon="3.44843">
        <ele>26</ele>
        <time>2018-09-25T21:52:40.819Z</time>
      </trkpt>
      <trkpt lat="43.46972" lon="3.44838">
        <ele>26</ele>
        <time>2018-09-25T21:52:41.819Z</time>
      </trkpt>
      <trkpt lat="43.46977" lon="3.44833">
        <ele>26</ele>
        <time>2018-09-25T21:52:42.819Z</time>
      </trkpt>
      <trkpt lat="43.46981" lon="3.44828">
        <ele>26</ele>
        <time>2018-09-25T21:52:43.819Z</time>
      </trkpt>
      <trkpt lat="43.46985" lon="3.44824">
        <ele>26</ele>
        <time>2018-09-25T21:52:44.819Z</time>
      </trkpt>
      <trkpt lat="43.46991" lon="3.44819">
        <ele>26.1</ele>
        <time>2018-09-25T21:52:45.819Z</time>
      </trkpt>
      <trkpt lat="43.46996" lon="3.44815">
        <ele>26.1</ele>
        <time>2018-09-25T21:52:46.819Z</time>
      </trkpt>
      <trkpt lat="43.47" lon="3.44813">
        <ele>26.1</ele>
        <time>2018-09-25T21:52:47.819Z</time>
      </trkpt>
      <trkpt lat="43.47004" lon="3.44809">
        <ele>26.1</ele>
        <time>2018-09-25T21:52:48.819Z</time>
      </trkpt>
      <trkpt lat="43.47009" lon="3.44805">
        <ele>26.2</ele>
        <time>2018-09-25T21:52:49.819Z</time>
      </trkpt>
      <trkpt lat="43.47013" lon="3.448">
        <ele>26.2</ele>
        <time>2018-09-25T21:52:50.819Z</time>
      </trkpt>
      <trkpt lat="43.47018" lon="3.44795">
        <ele>26.2</ele>
        <time>2018-09-25T21:52:51.819Z</time>
      </trkpt>
      <trkpt lat="43.47024" lon="3.44789">
        <ele>26.3</ele>
        <time>2018-09-25T21:52:52.819Z</time>
      </trkpt>
      <trkpt lat="43.47029" lon="3.44784">
        <ele>26.3</ele>
        <time>2018-09-25T21:52:53.819Z</time>
      </trkpt>
      <trkpt lat="43.47033" lon="3.44779">
        <ele>26.3</ele>
        <time>2018-09-25T21:52:54.819Z</time>
      </trkpt>
      <trkpt lat="43.47038" lon="3.44775">
        <ele>26.3</ele>
        <time>2018-09-25T21:52:55.819Z</time>
      </trkpt>
      <trkpt lat="43.47043" lon="3.44769">
        <ele>26.3</ele>
        <time>2018-09-25T21:52:56.819Z</time>
      </trkpt>
      <trkpt lat="43.47047" lon="3.44765">
        <ele>26.4</ele>
        <time>2018-09-25T21:52:57.819Z</time>
      </trkpt>
      <trkpt lat="43.47052" lon="3.4476">
        <ele>26.4</ele>
        <time>2018-09-25T21:52:58.819Z</time>
      </trkpt>
      <trkpt lat="43.47057" lon="3.44754">
        <ele>26.4</ele>
        <time>2018-09-25T21:52:59.819Z</time>
      </trkpt>
      <trkpt lat="43.47062" lon="3.44748">
        <ele>26.4</ele>
        <time>2018-09-25T21:53:00.819Z</time>
      </trkpt>
      <trkpt lat="43.47067" lon="3.44743">
        <ele>26.4</ele>
        <time>2018-09-25T21:53:01.819Z</time>
      </trkpt>
      <trkpt lat="43.47071" lon="3.44737">
        <ele>26.4</ele>
        <time>2018-09-25T21:53:02.819Z</time>
      </trkpt>
      <trkpt lat="43.47076" lon="3.44732">
        <ele>26.5</ele>
        <time>2018-09-25T21:53:03.819Z</time>
      </trkpt>
      <trkpt lat="43.47081" lon="3.44727">
        <ele>26.5</ele>
        <time>2018-09-25T21:53:04.819Z</time>
      </trkpt>
      <trkpt lat="43.47085" lon="3.44722">
        <ele>26.5</ele>
        <time>2018-09-25T21:53:05.819Z</time>
      </trkpt>
      <trkpt lat="43.47089" lon="3.44717">
        <ele>26.5</ele>
        <time>2018-09-25T21:53:06.819Z</time>
      </trkpt>
      <trkpt lat="43.47093" lon="3.44712">
        <ele>26.5</ele>
        <time>2018-09-25T21:53:07.819Z</time>
      </trkpt>
      <trkpt lat="43.47097" lon="3.44707">
        <ele>26.5</ele>
        <time>2018-09-25T21:53:08.819Z</time>
      </trkpt>
      <trkpt lat="43.47101" lon="3.44702">
        <ele>26.5</ele>
        <time>2018-09-25T21:53:09.819Z</time>
      </trkpt>
      <trkpt lat="43.47106" lon="3.44696">
        <ele>26.5</ele>
        <time>2018-09-25T21:53:10.819Z</time>
      </trkpt>
      <trkpt lat="43.47111" lon="3.4469">
        <ele>26.6</ele>
        <time>2018-09-25T21:53:11.819Z</time>
      </trkpt>
      <trkpt lat="43.47116" lon="3.44684">
        <ele>26.6</ele>
        <time>2018-09-25T21:53:12.819Z</time>
      </trkpt>
      <trkpt lat="43.47121" lon="3.44679">
        <ele>26.6</ele>
        <time>2018-09-25T21:53:13.819Z</time>
      </trkpt>
      <trkpt lat="43.47127" lon="3.44674">
        <ele>26.6</ele>
        <time>2018-09-25T21:53:14.819Z</time>
      </trkpt>
      <trkpt lat="43.47132" lon="3.4467">
        <ele>26.6</ele>
        <time>2018-09-25T21:53:15.819Z</time>
      </trkpt>
      <trkpt lat="43.47136" lon="3.44665">
        <ele>26.6</ele>
        <time>2018-09-25T21:53:16.819Z</time>
      </trkpt>
      <trkpt lat="43.4714" lon="3.44661">
        <ele>26.6</ele>
        <time>2018-09-25T21:53:17.819Z</time>
      </trkpt>
      <trkpt lat="43.47144" lon="3.44656">
        <ele>26.6</ele>
        <time>2018-09-25T21:53:18.819Z</time>
      </trkpt>
      <trkpt lat="43.47148" lon="3.44652">
        <ele>26.6</ele>
        <time>2018-09-25T21:53:19.819Z</time>
      </trkpt>
      <trkpt lat="43.47153" lon="3.44647">
        <ele>26.7</ele>
        <time>2018-09-25T21:53:20.819Z</time>
      </trkpt>
      <trkpt lat="43.47158" lon="3.44642">
        <ele>26.7</ele>
        <time>2018-09-25T21:53:21.819Z</time>
      </trkpt>
      <trkpt lat="43.47163" lon="3.44638">
        <ele>26.7</ele>
        <time>2018-09-25T21:53:22.819Z</time>
      </trkpt>
      <trkpt lat="43.47168" lon="3.44632">
        <ele>26.7</ele>
        <time>2018-09-25T21:53:23.819Z</time>
      </trkpt>
      <trkpt lat="43.47172" lon="3.44628">
        <ele>26.8</ele>
        <time>2018-09-25T21:53:24.819Z</time>
      </trkpt>
      <trkpt lat="43.47175" lon="3.44626">
        <ele>26.8</ele>
        <time>2018-09-25T21:53:25.819Z</time>
      </trkpt>
      <trkpt lat="43.47179" lon="3.44624">
        <ele>26.8</ele>
        <time>2018-09-25T21:53:26.819Z</time>
      </trkpt>
      <trkpt lat="43.47184" lon="3.44621">
        <ele>26.9</ele>
        <time>2018-09-25T21:53:27.819Z</time>
      </trkpt>
      <trkpt lat="43.47191" lon="3.44618">
        <ele>26.9</ele>
        <time>2018-09-25T21:53:28.819Z</time>
      </trkpt>
      <trkpt lat="43.47196" lon="3.44615">
        <ele>26.9</ele>
        <time>2018-09-25T21:53:29.819Z</time>
      </trkpt>
      <trkpt lat="43.47203" lon="3.44614">
        <ele>26.9</ele>
        <time>2018-09-25T21:53:30.819Z</time>
      </trkpt>
      <trkpt lat="43.47208" lon="3.44613">
        <ele>27</ele>
        <time>2018-09-25T21:53:31.819Z</time>
      </trkpt>
      <trkpt lat="43.47213" lon="3.44612">
        <ele>27</ele>
        <time>2018-09-25T21:53:32.819Z</time>
      </trkpt>
      <trkpt lat="43.47219" lon="3.44612">
        <ele>26.9</ele>
        <time>2018-09-25T21:53:33.819Z</time>
      </trkpt>
      <trkpt lat="43.47224" lon="3.44614">
        <ele>26.8</ele>
        <time>2018-09-25T21:53:34.819Z</time>
      </trkpt>
      <trkpt lat="43.4723" lon="3.44615">
        <ele>26.7</ele>
        <time>2018-09-25T21:53:35.819Z</time>
      </trkpt>
      <trkpt lat="43.47237" lon="3.44616">
        <ele>26.6</ele>
        <time>2018-09-25T21:53:36.819Z</time>
      </trkpt>
      <trkpt lat="43.47243" lon="3.44617">
        <ele>26.4</ele>
        <time>2018-09-25T21:53:37.819Z</time>
      </trkpt>
      <trkpt lat="43.4725" lon="3.44619">
        <ele>26.3</ele>
        <time>2018-09-25T21:53:38.819Z</time>
      </trkpt>
      <trkpt lat="43.47257" lon="3.4462">
        <ele>26.1</ele>
        <time>2018-09-25T21:53:39.819Z</time>
      </trkpt>
      <trkpt lat="43.47263" lon="3.44621">
        <ele>25.9</ele>
        <time>2018-09-25T21:53:40.819Z</time>
      </trkpt>
      <trkpt lat="43.47269" lon="3.44622">
        <ele>25.8</ele>
        <time>2018-09-25T21:53:41.819Z</time>
      </trkpt>
      <trkpt lat="43.47274" lon="3.44624">
        <ele>25.7</ele>
        <time>2018-09-25T21:53:42.819Z</time>
      </trkpt>
      <trkpt lat="43.47282" lon="3.44625">
        <ele>25.5</ele>
        <time>2018-09-25T21:53:43.819Z</time>
      </trkpt>
      <trkpt lat="43.47288" lon="3.44626">
        <ele>25.4</ele>
        <time>2018-09-25T21:53:44.819Z</time>
      </trkpt>
      <trkpt lat="43.47294" lon="3.44628">
        <ele>25.3</ele>
        <time>2018-09-25T21:53:45.819Z</time>
      </trkpt>
      <trkpt lat="43.473" lon="3.44629">
        <ele>25.2</ele>
        <time>2018-09-25T21:53:46.819Z</time>
      </trkpt>
      <trkpt lat="43.47306" lon="3.44631">
        <ele>25.1</ele>
        <time>2018-09-25T21:53:47.819Z</time>
      </trkpt>
      <trkpt lat="43.47312" lon="3.44632">
        <ele>25</ele>
        <time>2018-09-25T21:53:48.819Z</time>
      </trkpt>
      <trkpt lat="43.47319" lon="3.44633">
        <ele>24.9</ele>
        <time>2018-09-25T21:53:49.819Z</time>
      </trkpt>
      <trkpt lat="43.47324" lon="3.44635">
        <ele>24.9</ele>
        <time>2018-09-25T21:53:50.819Z</time>
      </trkpt>
      <trkpt lat="43.4733" lon="3.44636">
        <ele>24.8</ele>
        <time>2018-09-25T21:53:51.819Z</time>
      </trkpt>
      <trkpt lat="43.47336" lon="3.44638">
        <ele>24.7</ele>
        <time>2018-09-25T21:53:52.819Z</time>
      </trkpt>
      <trkpt lat="43.47342" lon="3.4464">
        <ele>24.6</ele>
        <time>2018-09-25T21:53:53.819Z</time>
      </trkpt>
      <trkpt lat="43.47348" lon="3.44641">
        <ele>24.5</ele>
        <time>2018-09-25T21:53:54.819Z</time>
      </trkpt>
      <trkpt lat="43.47355" lon="3.44643">
        <ele>24.4</ele>
        <time>2018-09-25T21:53:55.819Z</time>
      </trkpt>
      <trkpt lat="43.47361" lon="3.44645">
        <ele>24.3</ele>
        <time>2018-09-25T21:53:56.819Z</time>
      </trkpt>
      <trkpt lat="43.47367" lon="3.44647">
        <ele>24.2</ele>
        <time>2018-09-25T21:53:57.819Z</time>
      </trkpt>
      <trkpt lat="43.47373" lon="3.44649">
        <ele>24</ele>
        <time>2018-09-25T21:53:58.819Z</time>
      </trkpt>
      <trkpt lat="43.47379" lon="3.44653">
        <ele>23.9</ele>
        <time>2018-09-25T21:53:59.819Z</time>
      </trkpt>
      <trkpt lat="43.47384" lon="3.44657">
        <ele>23.7</ele>
        <time>2018-09-25T21:54:00.819Z</time>
      </trkpt>
      <trkpt lat="43.47389" lon="3.44661">
        <ele>23.5</ele>
        <time>2018-09-25T21:54:01.819Z</time>
      </trkpt>
      <trkpt lat="43.47395" lon="3.44664">
        <ele>23.3</ele>
        <time>2018-09-25T21:54:02.819Z</time>
      </trkpt>
      <trkpt lat="43.47399" lon="3.44668">
        <ele>23.1</ele>
        <time>2018-09-25T21:54:03.819Z</time>
      </trkpt>
      <trkpt lat="43.47404" lon="3.44672">
        <ele>23</ele>
        <time>2018-09-25T21:54:04.819Z</time>
      </trkpt>
      <trkpt lat="43.47408" lon="3.44677">
        <ele>22.8</ele>
        <time>2018-09-25T21:54:05.819Z</time>
      </trkpt>
      <trkpt lat="43.47413" lon="3.4468">
        <ele>22.6</ele>
        <time>2018-09-25T21:54:06.819Z</time>
      </trkpt>
      <trkpt lat="43.47418" lon="3.44683">
        <ele>22.5</ele>
        <time>2018-09-25T21:54:07.819Z</time>
      </trkpt>
      <trkpt lat="43.47422" lon="3.44685">
        <ele>22.3</ele>
        <time>2018-09-25T21:54:08.819Z</time>
      </trkpt>
      <trkpt lat="43.47426" lon="3.44685">
        <ele>22.2</ele>
        <time>2018-09-25T21:54:09.819Z</time>
      </trkpt>
      <trkpt lat="43.47431" lon="3.44683">
        <ele>22</ele>
        <time>2018-09-25T21:54:10.819Z</time>
      </trkpt>
      <trkpt lat="43.47436" lon="3.4468">
        <ele>21.8</ele>
        <time>2018-09-25T21:54:11.819Z</time>
      </trkpt>
      <trkpt lat="43.4744" lon="3.44676">
        <ele>21.6</ele>
        <time>2018-09-25T21:54:12.819Z</time>
      </trkpt>
      <trkpt lat="43.47445" lon="3.44672">
        <ele>21</ele>
        <time>2018-09-25T21:54:13.819Z</time>
      </trkpt>
      <trkpt lat="43.47449" lon="3.44667">
        <ele>21.2</ele>
        <time>2018-09-25T21:54:14.819Z</time>
      </trkpt>
      <trkpt lat="43.47452" lon="3.44662">
        <ele>21.3</ele>
        <time>2018-09-25T21:54:15.819Z</time>
      </trkpt>
      <trkpt lat="43.47453" lon="3.44657">
        <ele>21.4</ele>
        <time>2018-09-25T21:54:16.819Z</time>
      </trkpt>
      <trkpt lat="43.47455" lon="3.44651">
        <ele>21.6</ele>
        <time>2018-09-25T21:54:17.819Z</time>
      </trkpt>
      <trkpt lat="43.47455" lon="3.44646">
        <ele>21.7</ele>
        <time>2018-09-25T21:54:18.819Z</time>
      </trkpt>
      <trkpt lat="43.47456" lon="3.44641">
        <ele>21.8</ele>
        <time>2018-09-25T21:54:19.819Z</time>
      </trkpt>
      <trkpt lat="43.47457" lon="3.44636">
        <ele>21.9</ele>
        <time>2018-09-25T21:54:20.819Z</time>
      </trkpt>
      <trkpt lat="43.47459" lon="3.44631">
        <ele>21.9</ele>
        <time>2018-09-25T21:54:21.819Z</time>
      </trkpt>
      <trkpt lat="43.4746" lon="3.44626">
        <ele>21.6</ele>
        <time>2018-09-25T21:54:22.819Z</time>
      </trkpt>
      <trkpt lat="43.47461" lon="3.44621">
        <ele>21.3</ele>
        <time>2018-09-25T21:54:23.819Z</time>
      </trkpt>
      <trkpt lat="43.47462" lon="3.44615">
        <ele>21</ele>
        <time>2018-09-25T21:54:24.819Z</time>
      </trkpt>
      <trkpt lat="43.47463" lon="3.44609">
        <ele>20.7</ele>
        <time>2018-09-25T21:54:25.819Z</time>
      </trkpt>
      <trkpt lat="43.47464" lon="3.44603">
        <ele>20.3</ele>
        <time>2018-09-25T21:54:26.819Z</time>
      </trkpt>
      <trkpt lat="43.47466" lon="3.44597">
        <ele>20</ele>
        <time>2018-09-25T21:54:27.819Z</time>
      </trkpt>
      <trkpt lat="43.47468" lon="3.44592">
        <ele>19.7</ele>
        <time>2018-09-25T21:54:28.819Z</time>
      </trkpt>
      <trkpt lat="43.4747" lon="3.44586">
        <ele>19.4</ele>
        <time>2018-09-25T21:54:29.819Z</time>
      </trkpt>
      <trkpt lat="43.47471" lon="3.4458">
        <ele>19.1</ele>
        <time>2018-09-25T21:54:30.819Z</time>
      </trkpt>
      <trkpt lat="43.47472" lon="3.44576">
        <ele>18.8</ele>
        <time>2018-09-25T21:54:31.819Z</time>
      </trkpt>
      <trkpt lat="43.47473" lon="3.44571">
        <ele>18.5</ele>
        <time>2018-09-25T21:54:32.819Z</time>
      </trkpt>
      <trkpt lat="43.47474" lon="3.44566">
        <ele>18.3</ele>
        <time>2018-09-25T21:54:33.819Z</time>
      </trkpt>
      <trkpt lat="43.47475" lon="3.44562">
        <ele>18</ele>
        <time>2018-09-25T21:54:34.819Z</time>
      </trkpt>
      <trkpt lat="43.47476" lon="3.44557">
        <ele>17.8</ele>
        <time>2018-09-25T21:54:35.819Z</time>
      </trkpt>
      <trkpt lat="43.47478" lon="3.44553">
        <ele>17.5</ele>
        <time>2018-09-25T21:54:36.819Z</time>
      </trkpt>
      <trkpt lat="43.47479" lon="3.44548">
        <ele>17.3</ele>
        <time>2018-09-25T21:54:37.819Z</time>
      </trkpt>
      <trkpt lat="43.47479" lon="3.44542">
        <ele>16.9</ele>
        <time>2018-09-25T21:54:38.819Z</time>
      </trkpt>
      <trkpt lat="43.4748" lon="3.44535">
        <ele>16.6</ele>
        <time>2018-09-25T21:54:39.819Z</time>
      </trkpt>
      <trkpt lat="43.47481" lon="3.4453">
        <ele>16.3</ele>
        <time>2018-09-25T21:54:40.819Z</time>
      </trkpt>
      <trkpt lat="43.47481" lon="3.44526">
        <ele>16.1</ele>
        <time>2018-09-25T21:54:41.819Z</time>
      </trkpt>
      <trkpt lat="43.47482" lon="3.44521">
        <ele>15.9</ele>
        <time>2018-09-25T21:54:42.819Z</time>
      </trkpt>
      <trkpt lat="43.47483" lon="3.44518">
        <ele>15.7</ele>
        <time>2018-09-25T21:54:43.819Z</time>
      </trkpt>
      <trkpt lat="43.47484" lon="3.44513">
        <ele>15.4</ele>
        <time>2018-09-25T21:54:44.819Z</time>
      </trkpt>
      <trkpt lat="43.47485" lon="3.44509">
        <ele>15.2</ele>
        <time>2018-09-25T21:54:45.819Z</time>
      </trkpt>
      <trkpt lat="43.47486" lon="3.44505">
        <ele>15</ele>
        <time>2018-09-25T21:54:46.819Z</time>
      </trkpt>
      <trkpt lat="43.47488" lon="3.44502">
        <ele>14.8</ele>
        <time>2018-09-25T21:54:47.819Z</time>
      </trkpt>
      <trkpt lat="43.47489" lon="3.44493">
        <ele>14.3</ele>
        <time>2018-09-25T21:54:49.819Z</time>
      </trkpt>
      <trkpt lat="43.4749" lon="3.44488">
        <ele>14</ele>
        <time>2018-09-25T21:54:50.819Z</time>
      </trkpt>
      <trkpt lat="43.4749" lon="3.44482">
        <ele>14</ele>
        <time>2018-09-25T21:54:51.819Z</time>
      </trkpt>
      <trkpt lat="43.47491" lon="3.44477">
        <ele>14</ele>
        <time>2018-09-25T21:54:52.819Z</time>
      </trkpt>
      <trkpt lat="43.47491" lon="3.44471">
        <ele>14</ele>
        <time>2018-09-25T21:54:53.819Z</time>
      </trkpt>
      <trkpt lat="43.47492" lon="3.44466">
        <ele>14</ele>
        <time>2018-09-25T21:54:54.819Z</time>
      </trkpt>
      <trkpt lat="43.47493" lon="3.44461">
        <ele>14</ele>
        <time>2018-09-25T21:54:55.819Z</time>
      </trkpt>
      <trkpt lat="43.47494" lon="3.44458">
        <ele>14</ele>
        <time>2018-09-25T21:54:56.819Z</time>
      </trkpt>
      <trkpt lat="43.47494" lon="3.44454">
        <ele>14</ele>
        <time>2018-09-25T21:54:57.819Z</time>
      </trkpt>
      <trkpt lat="43.47497" lon="3.44448">
        <ele>14</ele>
        <time>2018-09-25T21:54:59.819Z</time>
      </trkpt>
      <trkpt lat="43.47495" lon="3.44442">
        <ele>14</ele>
        <time>2018-09-25T21:55:02.819Z</time>
      </trkpt>
      <trkpt lat="43.47495" lon="3.44437">
        <ele>14</ele>
        <time>2018-09-25T21:55:04.819Z</time>
      </trkpt>
      <trkpt lat="43.47497" lon="3.44439">
        <ele>14</ele>
        <time>2018-09-25T21:55:21.819Z</time>
      </trkpt>
      <trkpt lat="43.47501" lon="3.44439">
        <ele>14</ele>
        <time>2018-09-25T21:55:23.819Z</time>
      </trkpt>
      <trkpt lat="43.47506" lon="3.44439">
        <ele>14.1</ele>
        <time>2018-09-25T21:55:25.819Z</time>
      </trkpt>
      <trkpt lat="43.47511" lon="3.44438">
        <ele>14.1</ele>
        <time>2018-09-25T21:55:27.819Z</time>
      </trkpt>
      <trkpt lat="43.47514" lon="3.44439">
        <ele>14.2</ele>
        <time>2018-09-25T21:55:28.819Z</time>
      </trkpt>
      <trkpt lat="43.47518" lon="3.4444">
        <ele>14.4</ele>
        <time>2018-09-25T21:55:29.819Z</time>
      </trkpt>
      <trkpt lat="43.47523" lon="3.44442">
        <ele>14.5</ele>
        <time>2018-09-25T21:55:30.819Z</time>
      </trkpt>
      <trkpt lat="43.47528" lon="3.44443">
        <ele>14.5</ele>
        <time>2018-09-25T21:55:31.819Z</time>
      </trkpt>
      <trkpt lat="43.47534" lon="3.44445">
        <ele>14.6</ele>
        <time>2018-09-25T21:55:32.819Z</time>
      </trkpt>
      <trkpt lat="43.4754" lon="3.44446">
        <ele>14.7</ele>
        <time>2018-09-25T21:55:33.819Z</time>
      </trkpt>
      <trkpt lat="43.47547" lon="3.44449">
        <ele>14.9</ele>
        <time>2018-09-25T21:55:34.819Z</time>
      </trkpt>
      <trkpt lat="43.47554" lon="3.4445">
        <ele>14.9</ele>
        <time>2018-09-25T21:55:35.819Z</time>
      </trkpt>
      <trkpt lat="43.47559" lon="3.44451">
        <ele>15</ele>
        <time>2018-09-25T21:55:36.819Z</time>
      </trkpt>
      <trkpt lat="43.47566" lon="3.4445">
        <ele>15.2</ele>
        <time>2018-09-25T21:55:37.819Z</time>
      </trkpt>
      <trkpt lat="43.47573" lon="3.44448">
        <ele>15.2</ele>
        <time>2018-09-25T21:55:38.819Z</time>
      </trkpt>
      <trkpt lat="43.47579" lon="3.44446">
        <ele>15.3</ele>
        <time>2018-09-25T21:55:39.819Z</time>
      </trkpt>
      <trkpt lat="43.47585" lon="3.44443">
        <ele>15.4</ele>
        <time>2018-09-25T21:55:40.819Z</time>
      </trkpt>
      <trkpt lat="43.4759" lon="3.44439">
        <ele>15.5</ele>
        <time>2018-09-25T21:55:41.819Z</time>
      </trkpt>
      <trkpt lat="43.47596" lon="3.44435">
        <ele>15.5</ele>
        <time>2018-09-25T21:55:42.819Z</time>
      </trkpt>
      <trkpt lat="43.476" lon="3.44431">
        <ele>15.5</ele>
        <time>2018-09-25T21:55:43.819Z</time>
      </trkpt>
      <trkpt lat="43.47605" lon="3.44427">
        <ele>15.5</ele>
        <time>2018-09-25T21:55:44.819Z</time>
      </trkpt>
      <trkpt lat="43.47611" lon="3.44423">
        <ele>15.4</ele>
        <time>2018-09-25T21:55:45.819Z</time>
      </trkpt>
      <trkpt lat="43.47615" lon="3.4442">
        <ele>15.4</ele>
        <time>2018-09-25T21:55:46.819Z</time>
      </trkpt>
      <trkpt lat="43.4762" lon="3.44416">
        <ele>15.4</ele>
        <time>2018-09-25T21:55:47.819Z</time>
      </trkpt>
      <trkpt lat="43.47624" lon="3.44413">
        <ele>15.4</ele>
        <time>2018-09-25T21:55:48.819Z</time>
      </trkpt>
      <trkpt lat="43.47627" lon="3.4441">
        <ele>15.3</ele>
        <time>2018-09-25T21:55:49.819Z</time>
      </trkpt>
      <trkpt lat="43.47632" lon="3.44407">
        <ele>15.3</ele>
        <time>2018-09-25T21:55:50.819Z</time>
      </trkpt>
      <trkpt lat="43.47636" lon="3.44404">
        <ele>15.2</ele>
        <time>2018-09-25T21:55:51.819Z</time>
      </trkpt>
      <trkpt lat="43.4764" lon="3.44401">
        <ele>15.2</ele>
        <time>2018-09-25T21:55:52.819Z</time>
      </trkpt>
      <trkpt lat="43.47645" lon="3.44397">
        <ele>15.2</ele>
        <time>2018-09-25T21:55:53.819Z</time>
      </trkpt>
      <trkpt lat="43.47649" lon="3.44394">
        <ele>15.1</ele>
        <time>2018-09-25T21:55:54.819Z</time>
      </trkpt>
      <trkpt lat="43.47653" lon="3.44391">
        <ele>15.1</ele>
        <time>2018-09-25T21:55:55.819Z</time>
      </trkpt>
      <trkpt lat="43.47657" lon="3.44388">
        <ele>15.1</ele>
        <time>2018-09-25T21:55:56.819Z</time>
      </trkpt>
      <trkpt lat="43.47662" lon="3.44386">
        <ele>15</ele>
        <time>2018-09-25T21:55:57.819Z</time>
      </trkpt>
      <trkpt lat="43.47667" lon="3.44384">
        <ele>15</ele>
        <time>2018-09-25T21:55:58.819Z</time>
      </trkpt>
      <trkpt lat="43.47672" lon="3.44382">
        <ele>15</ele>
        <time>2018-09-25T21:55:59.819Z</time>
      </trkpt>
      <trkpt lat="43.47677" lon="3.4438">
        <ele>14.9</ele>
        <time>2018-09-25T21:56:00.819Z</time>
      </trkpt>
      <trkpt lat="43.47681" lon="3.44378">
        <ele>14.9</ele>
        <time>2018-09-25T21:56:01.819Z</time>
      </trkpt>
      <trkpt lat="43.47685" lon="3.44377">
        <ele>14.9</ele>
        <time>2018-09-25T21:56:02.819Z</time>
      </trkpt>
      <trkpt lat="43.4769" lon="3.44376">
        <ele>14.9</ele>
        <time>2018-09-25T21:56:03.819Z</time>
      </trkpt>
      <trkpt lat="43.47695" lon="3.44375">
        <ele>14.8</ele>
        <time>2018-09-25T21:56:04.819Z</time>
      </trkpt>
      <trkpt lat="43.477" lon="3.44374">
        <ele>14.8</ele>
        <time>2018-09-25T21:56:05.819Z</time>
      </trkpt>
      <trkpt lat="43.47705" lon="3.44374">
        <ele>14.8</ele>
        <time>2018-09-25T21:56:06.819Z</time>
      </trkpt>
      <trkpt lat="43.47711" lon="3.44375">
        <ele>14.7</ele>
        <time>2018-09-25T21:56:07.819Z</time>
      </trkpt>
      <trkpt lat="43.47716" lon="3.44375">
        <ele>14.7</ele>
        <time>2018-09-25T21:56:08.819Z</time>
      </trkpt>
      <trkpt lat="43.47721" lon="3.44376">
        <ele>14.7</ele>
        <time>2018-09-25T21:56:09.819Z</time>
      </trkpt>
      <trkpt lat="43.47727" lon="3.44376">
        <ele>14.6</ele>
        <time>2018-09-25T21:56:10.819Z</time>
      </trkpt>
      <trkpt lat="43.47731" lon="3.44376">
        <ele>14.6</ele>
        <time>2018-09-25T21:56:11.819Z</time>
      </trkpt>
      <trkpt lat="43.47736" lon="3.44377">
        <ele>14.6</ele>
        <time>2018-09-25T21:56:12.819Z</time>
      </trkpt>
      <trkpt lat="43.47741" lon="3.44377">
        <ele>14.6</ele>
        <time>2018-09-25T21:56:13.819Z</time>
      </trkpt>
      <trkpt lat="43.47746" lon="3.44378">
        <ele>14.6</ele>
        <time>2018-09-25T21:56:14.819Z</time>
      </trkpt>
      <trkpt lat="43.47751" lon="3.44378">
        <ele>14.6</ele>
        <time>2018-09-25T21:56:15.819Z</time>
      </trkpt>
      <trkpt lat="43.47756" lon="3.44377">
        <ele>14.6</ele>
        <time>2018-09-25T21:56:16.819Z</time>
      </trkpt>
      <trkpt lat="43.47761" lon="3.44378">
        <ele>14.6</ele>
        <time>2018-09-25T21:56:17.819Z</time>
      </trkpt>
      <trkpt lat="43.47765" lon="3.44378">
        <ele>14.6</ele>
        <time>2018-09-25T21:56:18.819Z</time>
      </trkpt>
      <trkpt lat="43.47771" lon="3.44379">
        <ele>14.5</ele>
        <time>2018-09-25T21:56:19.819Z</time>
      </trkpt>
      <trkpt lat="43.47776" lon="3.44379">
        <ele>14.5</ele>
        <time>2018-09-25T21:56:20.819Z</time>
      </trkpt>
      <trkpt lat="43.47781" lon="3.4438">
        <ele>14.5</ele>
        <time>2018-09-25T21:56:21.819Z</time>
      </trkpt>
      <trkpt lat="43.47787" lon="3.4438">
        <ele>14.5</ele>
        <time>2018-09-25T21:56:22.819Z</time>
      </trkpt>
      <trkpt lat="43.47792" lon="3.44381">
        <ele>14.5</ele>
        <time>2018-09-25T21:56:23.819Z</time>
      </trkpt>
      <trkpt lat="43.47798" lon="3.44381">
        <ele>14.5</ele>
        <time>2018-09-25T21:56:24.819Z</time>
      </trkpt>
      <trkpt lat="43.47804" lon="3.44382">
        <ele>14.5</ele>
        <time>2018-09-25T21:56:25.819Z</time>
      </trkpt>
      <trkpt lat="43.4781" lon="3.44384">
        <ele>14.5</ele>
        <time>2018-09-25T21:56:26.819Z</time>
      </trkpt>
      <trkpt lat="43.47814" lon="3.44386">
        <ele>14.5</ele>
        <time>2018-09-25T21:56:27.819Z</time>
      </trkpt>
      <trkpt lat="43.4782" lon="3.44386">
        <ele>14.5</ele>
        <time>2018-09-25T21:56:28.819Z</time>
      </trkpt>
      <trkpt lat="43.47824" lon="3.44388">
        <ele>14.5</ele>
        <time>2018-09-25T21:56:29.819Z</time>
      </trkpt>
      <trkpt lat="43.47828" lon="3.44389">
        <ele>14.5</ele>
        <time>2018-09-25T21:56:30.819Z</time>
      </trkpt>
      <trkpt lat="43.47834" lon="3.4439">
        <ele>14.5</ele>
        <time>2018-09-25T21:56:31.819Z</time>
      </trkpt>
      <trkpt lat="43.47839" lon="3.4439">
        <ele>14.5</ele>
        <time>2018-09-25T21:56:32.819Z</time>
      </trkpt>
      <trkpt lat="43.47843" lon="3.44391">
        <ele>14.5</ele>
        <time>2018-09-25T21:56:33.819Z</time>
      </trkpt>
      <trkpt lat="43.47847" lon="3.44392">
        <ele>14.5</ele>
        <time>2018-09-25T21:56:34.819Z</time>
      </trkpt>
      <trkpt lat="43.47851" lon="3.44393">
        <ele>14.5</ele>
        <time>2018-09-25T21:56:35.819Z</time>
      </trkpt>
      <trkpt lat="43.47855" lon="3.44393">
        <ele>14.5</ele>
        <time>2018-09-25T21:56:36.819Z</time>
      </trkpt>
      <trkpt lat="43.47859" lon="3.44394">
        <ele>14.5</ele>
        <time>2018-09-25T21:56:37.819Z</time>
      </trkpt>
      <trkpt lat="43.47863" lon="3.44395">
        <ele>14.5</ele>
        <time>2018-09-25T21:56:38.819Z</time>
      </trkpt>
      <trkpt lat="43.47867" lon="3.44396">
        <ele>14.5</ele>
        <time>2018-09-25T21:56:39.819Z</time>
      </trkpt>
      <trkpt lat="43.47871" lon="3.44396">
        <ele>14.6</ele>
        <time>2018-09-25T21:56:40.819Z</time>
      </trkpt>
      <trkpt lat="43.47875" lon="3.44396">
        <ele>14.6</ele>
        <time>2018-09-25T21:56:41.819Z</time>
      </trkpt>
      <trkpt lat="43.4788" lon="3.44397">
        <ele>14.6</ele>
        <time>2018-09-25T21:56:42.819Z</time>
      </trkpt>
      <trkpt lat="43.47884" lon="3.44397">
        <ele>14.6</ele>
        <time>2018-09-25T21:56:43.819Z</time>
      </trkpt>
      <trkpt lat="43.47888" lon="3.44398">
        <ele>14.6</ele>
        <time>2018-09-25T21:56:44.819Z</time>
      </trkpt>
      <trkpt lat="43.47892" lon="3.44399">
        <ele>14.6</ele>
        <time>2018-09-25T21:56:45.819Z</time>
      </trkpt>
      <trkpt lat="43.47897" lon="3.44399">
        <ele>14.6</ele>
        <time>2018-09-25T21:56:46.819Z</time>
      </trkpt>
      <trkpt lat="43.47902" lon="3.44398">
        <ele>14.6</ele>
        <time>2018-09-25T21:56:47.819Z</time>
      </trkpt>
      <trkpt lat="43.47906" lon="3.44399">
        <ele>14.5</ele>
        <time>2018-09-25T21:56:48.819Z</time>
      </trkpt>
      <trkpt lat="43.47911" lon="3.44399">
        <ele>14.5</ele>
        <time>2018-09-25T21:56:49.819Z</time>
      </trkpt>
      <trkpt lat="43.47915" lon="3.44399">
        <ele>14.5</ele>
        <time>2018-09-25T21:56:50.819Z</time>
      </trkpt>
      <trkpt lat="43.4792" lon="3.44399">
        <ele>14.5</ele>
        <time>2018-09-25T21:56:51.819Z</time>
      </trkpt>
      <trkpt lat="43.47924" lon="3.444">
        <ele>14.4</ele>
        <time>2018-09-25T21:56:52.819Z</time>
      </trkpt>
      <trkpt lat="43.47929" lon="3.44401">
        <ele>14.4</ele>
        <time>2018-09-25T21:56:53.819Z</time>
      </trkpt>
      <trkpt lat="43.47933" lon="3.44401">
        <ele>14.3</ele>
        <time>2018-09-25T21:56:54.819Z</time>
      </trkpt>
      <trkpt lat="43.47938" lon="3.44401">
        <ele>14.3</ele>
        <time>2018-09-25T21:56:55.819Z</time>
      </trkpt>
      <trkpt lat="43.47942" lon="3.44402">
        <ele>14.2</ele>
        <time>2018-09-25T21:56:56.819Z</time>
      </trkpt>
      <trkpt lat="43.47946" lon="3.44402">
        <ele>14.2</ele>
        <time>2018-09-25T21:56:57.819Z</time>
      </trkpt>
      <trkpt lat="43.47951" lon="3.44402">
        <ele>14.2</ele>
        <time>2018-09-25T21:56:58.819Z</time>
      </trkpt>
      <trkpt lat="43.47956" lon="3.44402">
        <ele>14.1</ele>
        <time>2018-09-25T21:56:59.819Z</time>
      </trkpt>
      <trkpt lat="43.47961" lon="3.44403">
        <ele>14.1</ele>
        <time>2018-09-25T21:57:00.819Z</time>
      </trkpt>
      <trkpt lat="43.47965" lon="3.44403">
        <ele>14</ele>
        <time>2018-09-25T21:57:01.819Z</time>
      </trkpt>
      <trkpt lat="43.4797" lon="3.44403">
        <ele>14</ele>
        <time>2018-09-25T21:57:02.819Z</time>
      </trkpt>
      <trkpt lat="43.47974" lon="3.44402">
        <ele>14</ele>
        <time>2018-09-25T21:57:03.819Z</time>
      </trkpt>
      <trkpt lat="43.4798" lon="3.44401">
        <ele>14</ele>
        <time>2018-09-25T21:57:04.819Z</time>
      </trkpt>
      <trkpt lat="43.47984" lon="3.44399">
        <ele>14</ele>
        <time>2018-09-25T21:57:05.819Z</time>
      </trkpt>
      <trkpt lat="43.47989" lon="3.44399">
        <ele>14.1</ele>
        <time>2018-09-25T21:57:06.819Z</time>
      </trkpt>
      <trkpt lat="43.47993" lon="3.44399">
        <ele>14.1</ele>
        <time>2018-09-25T21:57:07.819Z</time>
      </trkpt>
      <trkpt lat="43.47998" lon="3.44399">
        <ele>14.1</ele>
        <time>2018-09-25T21:57:08.819Z</time>
      </trkpt>
      <trkpt lat="43.48004" lon="3.44399">
        <ele>14.2</ele>
        <time>2018-09-25T21:57:09.819Z</time>
      </trkpt>
      <trkpt lat="43.48009" lon="3.44399">
        <ele>14.3</ele>
        <time>2018-09-25T21:57:10.819Z</time>
      </trkpt>
      <trkpt lat="43.48014" lon="3.44399">
        <ele>14.4</ele>
        <time>2018-09-25T21:57:11.819Z</time>
      </trkpt>
      <trkpt lat="43.48019" lon="3.44399">
        <ele>14.5</ele>
        <time>2018-09-25T21:57:12.819Z</time>
      </trkpt>
      <trkpt lat="43.48025" lon="3.44399">
        <ele>14.6</ele>
        <time>2018-09-25T21:57:13.819Z</time>
      </trkpt>
      <trkpt lat="43.4803" lon="3.44399">
        <ele>14.8</ele>
        <time>2018-09-25T21:57:14.819Z</time>
      </trkpt>
      <trkpt lat="43.48036" lon="3.44399">
        <ele>14.9</ele>
        <time>2018-09-25T21:57:15.819Z</time>
      </trkpt>
      <trkpt lat="43.48041" lon="3.44399">
        <ele>15</ele>
        <time>2018-09-25T21:57:16.819Z</time>
      </trkpt>
      <trkpt lat="43.48047" lon="3.44399">
        <ele>15.1</ele>
        <time>2018-09-25T21:57:17.819Z</time>
      </trkpt>
      <trkpt lat="43.48053" lon="3.44399">
        <ele>15.2</ele>
        <time>2018-09-25T21:57:18.819Z</time>
      </trkpt>
      <trkpt lat="43.48058" lon="3.44399">
        <ele>15.3</ele>
        <time>2018-09-25T21:57:19.819Z</time>
      </trkpt>
      <trkpt lat="43.48063" lon="3.44399">
        <ele>15.3</ele>
        <time>2018-09-25T21:57:20.819Z</time>
      </trkpt>
      <trkpt lat="43.48068" lon="3.44398">
        <ele>15.4</ele>
        <time>2018-09-25T21:57:21.819Z</time>
      </trkpt>
      <trkpt lat="43.48073" lon="3.44398">
        <ele>15.4</ele>
        <time>2018-09-25T21:57:22.819Z</time>
      </trkpt>
      <trkpt lat="43.48078" lon="3.44398">
        <ele>15.4</ele>
        <time>2018-09-25T21:57:23.819Z</time>
      </trkpt>
      <trkpt lat="43.48084" lon="3.44398">
        <ele>15.4</ele>
        <time>2018-09-25T21:57:24.819Z</time>
      </trkpt>
      <trkpt lat="43.48089" lon="3.44398">
        <ele>15.3</ele>
        <time>2018-09-25T21:57:25.819Z</time>
      </trkpt>
      <trkpt lat="43.48094" lon="3.44398">
        <ele>15.3</ele>
        <time>2018-09-25T21:57:26.819Z</time>
      </trkpt>
      <trkpt lat="43.48099" lon="3.44398">
        <ele>15.3</ele>
        <time>2018-09-25T21:57:27.819Z</time>
      </trkpt>
      <trkpt lat="43.48106" lon="3.44397">
        <ele>15.2</ele>
        <time>2018-09-25T21:57:28.819Z</time>
      </trkpt>
      <trkpt lat="43.48111" lon="3.44398">
        <ele>15.2</ele>
        <time>2018-09-25T21:57:29.819Z</time>
      </trkpt>
      <trkpt lat="43.48116" lon="3.44398">
        <ele>15.1</ele>
        <time>2018-09-25T21:57:30.819Z</time>
      </trkpt>
      <trkpt lat="43.48121" lon="3.44398">
        <ele>15.1</ele>
        <time>2018-09-25T21:57:31.819Z</time>
      </trkpt>
      <trkpt lat="43.48127" lon="3.44398">
        <ele>15</ele>
        <time>2018-09-25T21:57:32.819Z</time>
      </trkpt>
      <trkpt lat="43.48132" lon="3.44397">
        <ele>14.9</ele>
        <time>2018-09-25T21:57:33.819Z</time>
      </trkpt>
      <trkpt lat="43.48138" lon="3.44396">
        <ele>14.9</ele>
        <time>2018-09-25T21:57:34.819Z</time>
      </trkpt>
      <trkpt lat="43.48144" lon="3.44395">
        <ele>14.9</ele>
        <time>2018-09-25T21:57:35.819Z</time>
      </trkpt>
      <trkpt lat="43.48149" lon="3.44394">
        <ele>14.9</ele>
        <time>2018-09-25T21:57:36.819Z</time>
      </trkpt>
      <trkpt lat="43.48154" lon="3.44393">
        <ele>14.9</ele>
        <time>2018-09-25T21:57:37.819Z</time>
      </trkpt>
      <trkpt lat="43.48159" lon="3.44392">
        <ele>14.9</ele>
        <time>2018-09-25T21:57:38.819Z</time>
      </trkpt>
      <trkpt lat="43.48164" lon="3.44391">
        <ele>15</ele>
        <time>2018-09-25T21:57:39.819Z</time>
      </trkpt>
      <trkpt lat="43.4817" lon="3.4439">
        <ele>15</ele>
        <time>2018-09-25T21:57:40.819Z</time>
      </trkpt>
      <trkpt lat="43.48176" lon="3.44388">
        <ele>15.1</ele>
        <time>2018-09-25T21:57:41.819Z</time>
      </trkpt>
      <trkpt lat="43.48181" lon="3.44387">
        <ele>15.2</ele>
        <time>2018-09-25T21:57:42.819Z</time>
      </trkpt>
      <trkpt lat="43.48186" lon="3.44386">
        <ele>15.3</ele>
        <time>2018-09-25T21:57:43.819Z</time>
      </trkpt>
      <trkpt lat="43.48192" lon="3.44384">
        <ele>15.4</ele>
        <time>2018-09-25T21:57:44.819Z</time>
      </trkpt>
      <trkpt lat="43.48198" lon="3.44384">
        <ele>15.5</ele>
        <time>2018-09-25T21:57:45.819Z</time>
      </trkpt>
      <trkpt lat="43.48203" lon="3.44383">
        <ele>15.6</ele>
        <time>2018-09-25T21:57:46.819Z</time>
      </trkpt>
      <trkpt lat="43.48208" lon="3.44382">
        <ele>15.7</ele>
        <time>2018-09-25T21:57:47.819Z</time>
      </trkpt>
      <trkpt lat="43.48213" lon="3.4438">
        <ele>15.8</ele>
        <time>2018-09-25T21:57:48.819Z</time>
      </trkpt>
      <trkpt lat="43.48217" lon="3.4438">
        <ele>15.9</ele>
        <time>2018-09-25T21:57:49.819Z</time>
      </trkpt>
      <trkpt lat="43.48222" lon="3.44379">
        <ele>15.9</ele>
        <time>2018-09-25T21:57:50.819Z</time>
      </trkpt>
      <trkpt lat="43.48227" lon="3.44377">
        <ele>16</ele>
        <time>2018-09-25T21:57:51.819Z</time>
      </trkpt>
      <trkpt lat="43.48231" lon="3.44376">
        <ele>16</ele>
        <time>2018-09-25T21:57:52.819Z</time>
      </trkpt>
      <trkpt lat="43.48236" lon="3.44375">
        <ele>16.1</ele>
        <time>2018-09-25T21:57:53.819Z</time>
      </trkpt>
      <trkpt lat="43.4824" lon="3.44374">
        <ele>16.1</ele>
        <time>2018-09-25T21:57:54.819Z</time>
      </trkpt>
      <trkpt lat="43.48245" lon="3.44372">
        <ele>16.1</ele>
        <time>2018-09-25T21:57:55.819Z</time>
      </trkpt>
      <trkpt lat="43.48249" lon="3.4437">
        <ele>16.1</ele>
        <time>2018-09-25T21:57:56.819Z</time>
      </trkpt>
      <trkpt lat="43.48254" lon="3.44368">
        <ele>16.1</ele>
        <time>2018-09-25T21:57:57.819Z</time>
      </trkpt>
      <trkpt lat="43.48257" lon="3.44366">
        <ele>16.1</ele>
        <time>2018-09-25T21:57:58.819Z</time>
      </trkpt>
      <trkpt lat="43.48261" lon="3.44364">
        <ele>16.1</ele>
        <time>2018-09-25T21:57:59.819Z</time>
      </trkpt>
      <trkpt lat="43.48264" lon="3.44362">
        <ele>16.1</ele>
        <time>2018-09-25T21:58:00.819Z</time>
      </trkpt>
      <trkpt lat="43.48267" lon="3.44361">
        <ele>16</ele>
        <time>2018-09-25T21:58:01.819Z</time>
      </trkpt>
      <trkpt lat="43.48272" lon="3.4436">
        <ele>16</ele>
        <time>2018-09-25T21:58:02.819Z</time>
      </trkpt>
      <trkpt lat="43.48276" lon="3.44363">
        <ele>16</ele>
        <time>2018-09-25T21:58:03.819Z</time>
      </trkpt>
      <trkpt lat="43.48279" lon="3.44368">
        <ele>16</ele>
        <time>2018-09-25T21:58:04.819Z</time>
      </trkpt>
      <trkpt lat="43.48281" lon="3.44373">
        <ele>15.9</ele>
        <time>2018-09-25T21:58:05.819Z</time>
      </trkpt>
      <trkpt lat="43.48283" lon="3.44378">
        <ele>15.9</ele>
        <time>2018-09-25T21:58:06.819Z</time>
      </trkpt>
      <trkpt lat="43.48287" lon="3.44383">
        <ele>15.9</ele>
        <time>2018-09-25T21:58:07.819Z</time>
      </trkpt>
      <trkpt lat="43.48289" lon="3.44389">
        <ele>15.9</ele>
        <time>2018-09-25T21:58:08.819Z</time>
      </trkpt>
      <trkpt lat="43.48292" lon="3.44394">
        <ele>15.9</ele>
        <time>2018-09-25T21:58:09.819Z</time>
      </trkpt>
      <trkpt lat="43.48296" lon="3.44398">
        <ele>15.9</ele>
        <time>2018-09-25T21:58:10.819Z</time>
      </trkpt>
      <trkpt lat="43.48299" lon="3.44403">
        <ele>15.9</ele>
        <time>2018-09-25T21:58:11.819Z</time>
      </trkpt>
      <trkpt lat="43.48302" lon="3.44407">
        <ele>15.9</ele>
        <time>2018-09-25T21:58:12.819Z</time>
      </trkpt>
      <trkpt lat="43.48305" lon="3.44411">
        <ele>15.8</ele>
        <time>2018-09-25T21:58:13.819Z</time>
      </trkpt>
      <trkpt lat="43.48307" lon="3.44415">
        <ele>15.8</ele>
        <time>2018-09-25T21:58:14.819Z</time>
      </trkpt>
      <trkpt lat="43.4831" lon="3.4442">
        <ele>15.8</ele>
        <time>2018-09-25T21:58:15.819Z</time>
      </trkpt>
      <trkpt lat="43.48314" lon="3.44424">
        <ele>15.8</ele>
        <time>2018-09-25T21:58:16.819Z</time>
      </trkpt>
      <trkpt lat="43.48317" lon="3.44428">
        <ele>15.8</ele>
        <time>2018-09-25T21:58:17.819Z</time>
      </trkpt>
      <trkpt lat="43.4832" lon="3.44432">
        <ele>15.8</ele>
        <time>2018-09-25T21:58:18.819Z</time>
      </trkpt>
      <trkpt lat="43.48324" lon="3.44437">
        <ele>15.8</ele>
        <time>2018-09-25T21:58:19.819Z</time>
      </trkpt>
      <trkpt lat="43.48328" lon="3.44441">
        <ele>15.8</ele>
        <time>2018-09-25T21:58:20.819Z</time>
      </trkpt>
      <trkpt lat="43.48331" lon="3.44446">
        <ele>15.8</ele>
        <time>2018-09-25T21:58:21.819Z</time>
      </trkpt>
      <trkpt lat="43.48334" lon="3.4445">
        <ele>15.7</ele>
        <time>2018-09-25T21:58:22.819Z</time>
      </trkpt>
      <trkpt lat="43.48338" lon="3.44454">
        <ele>15.7</ele>
        <time>2018-09-25T21:58:23.819Z</time>
      </trkpt>
      <trkpt lat="43.48341" lon="3.44459">
        <ele>15.7</ele>
        <time>2018-09-25T21:58:24.819Z</time>
      </trkpt>
      <trkpt lat="43.48344" lon="3.44463">
        <ele>15.7</ele>
        <time>2018-09-25T21:58:25.819Z</time>
      </trkpt>
      <trkpt lat="43.48347" lon="3.44467">
        <ele>15.7</ele>
        <time>2018-09-25T21:58:26.819Z</time>
      </trkpt>
      <trkpt lat="43.4835" lon="3.44472">
        <ele>15.7</ele>
        <time>2018-09-25T21:58:27.819Z</time>
      </trkpt>
      <trkpt lat="43.48353" lon="3.44476">
        <ele>15.7</ele>
        <time>2018-09-25T21:58:28.819Z</time>
      </trkpt>
      <trkpt lat="43.48356" lon="3.4448">
        <ele>15.7</ele>
        <time>2018-09-25T21:58:29.819Z</time>
      </trkpt>
      <trkpt lat="43.48359" lon="3.44484">
        <ele>15.7</ele>
        <time>2018-09-25T21:58:30.819Z</time>
      </trkpt>
      <trkpt lat="43.48362" lon="3.44488">
        <ele>15.7</ele>
        <time>2018-09-25T21:58:31.819Z</time>
      </trkpt>
      <trkpt lat="43.48365" lon="3.44493">
        <ele>15.6</ele>
        <time>2018-09-25T21:58:32.819Z</time>
      </trkpt>
      <trkpt lat="43.48369" lon="3.44497">
        <ele>15.6</ele>
        <time>2018-09-25T21:58:33.819Z</time>
      </trkpt>
      <trkpt lat="43.48373" lon="3.44501">
        <ele>15.6</ele>
        <time>2018-09-25T21:58:34.819Z</time>
      </trkpt>
      <trkpt lat="43.48377" lon="3.44505">
        <ele>15.6</ele>
        <time>2018-09-25T21:58:35.819Z</time>
      </trkpt>
      <trkpt lat="43.4838" lon="3.44509">
        <ele>15.6</ele>
        <time>2018-09-25T21:58:36.819Z</time>
      </trkpt>
      <trkpt lat="43.48384" lon="3.44513">
        <ele>15.6</ele>
        <time>2018-09-25T21:58:37.819Z</time>
      </trkpt>
      <trkpt lat="43.48387" lon="3.44517">
        <ele>15.6</ele>
        <time>2018-09-25T21:58:38.819Z</time>
      </trkpt>
      <trkpt lat="43.48391" lon="3.44521">
        <ele>15.5</ele>
        <time>2018-09-25T21:58:39.819Z</time>
      </trkpt>
      <trkpt lat="43.48395" lon="3.44525">
        <ele>15.5</ele>
        <time>2018-09-25T21:58:40.819Z</time>
      </trkpt>
      <trkpt lat="43.48399" lon="3.44528">
        <ele>15.5</ele>
        <time>2018-09-25T21:58:41.819Z</time>
      </trkpt>
      <trkpt lat="43.48402" lon="3.44531">
        <ele>15.5</ele>
        <time>2018-09-25T21:58:42.819Z</time>
      </trkpt>
      <trkpt lat="43.48406" lon="3.44535">
        <ele>15.5</ele>
        <time>2018-09-25T21:58:43.819Z</time>
      </trkpt>
      <trkpt lat="43.4841" lon="3.44539">
        <ele>15.5</ele>
        <time>2018-09-25T21:58:44.819Z</time>
      </trkpt>
      <trkpt lat="43.48413" lon="3.44541">
        <ele>15.4</ele>
        <time>2018-09-25T21:58:45.819Z</time>
      </trkpt>
      <trkpt lat="43.48418" lon="3.44545">
        <ele>15.4</ele>
        <time>2018-09-25T21:58:46.819Z</time>
      </trkpt>
      <trkpt lat="43.48422" lon="3.44547">
        <ele>15.4</ele>
        <time>2018-09-25T21:58:47.819Z</time>
      </trkpt>
      <trkpt lat="43.48425" lon="3.4455">
        <ele>15.4</ele>
        <time>2018-09-25T21:58:48.819Z</time>
      </trkpt>
      <trkpt lat="43.4843" lon="3.44552">
        <ele>15.4</ele>
        <time>2018-09-25T21:58:49.819Z</time>
      </trkpt>
      <trkpt lat="43.48434" lon="3.44555">
        <ele>15.4</ele>
        <time>2018-09-25T21:58:50.819Z</time>
      </trkpt>
      <trkpt lat="43.48439" lon="3.44559">
        <ele>15.4</ele>
        <time>2018-09-25T21:58:51.819Z</time>
      </trkpt>
      <trkpt lat="43.48442" lon="3.44562">
        <ele>15.4</ele>
        <time>2018-09-25T21:58:52.819Z</time>
      </trkpt>
      <trkpt lat="43.48446" lon="3.44566">
        <ele>15.3</ele>
        <time>2018-09-25T21:58:53.819Z</time>
      </trkpt>
      <trkpt lat="43.4845" lon="3.4457">
        <ele>15.3</ele>
        <time>2018-09-25T21:58:54.819Z</time>
      </trkpt>
      <trkpt lat="43.48455" lon="3.44574">
        <ele>15.3</ele>
        <time>2018-09-25T21:58:55.819Z</time>
      </trkpt>
      <trkpt lat="43.48459" lon="3.44577">
        <ele>15.3</ele>
        <time>2018-09-25T21:58:56.819Z</time>
      </trkpt>
      <trkpt lat="43.48464" lon="3.44582">
        <ele>15.3</ele>
        <time>2018-09-25T21:58:57.819Z</time>
      </trkpt>
      <trkpt lat="43.48468" lon="3.44586">
        <ele>15.3</ele>
        <time>2018-09-25T21:58:58.819Z</time>
      </trkpt>
      <trkpt lat="43.48472" lon="3.4459">
        <ele>15.3</ele>
        <time>2018-09-25T21:58:59.819Z</time>
      </trkpt>
      <trkpt lat="43.48476" lon="3.44593">
        <ele>15.3</ele>
        <time>2018-09-25T21:59:00.819Z</time>
      </trkpt>
      <trkpt lat="43.4848" lon="3.44597">
        <ele>15.2</ele>
        <time>2018-09-25T21:59:01.819Z</time>
      </trkpt>
      <trkpt lat="43.48484" lon="3.44602">
        <ele>15.2</ele>
        <time>2018-09-25T21:59:02.819Z</time>
      </trkpt>
      <trkpt lat="43.48488" lon="3.44605">
        <ele>15.2</ele>
        <time>2018-09-25T21:59:03.819Z</time>
      </trkpt>
      <trkpt lat="43.48492" lon="3.44609">
        <ele>15.2</ele>
        <time>2018-09-25T21:59:04.819Z</time>
      </trkpt>
      <trkpt lat="43.48496" lon="3.44613">
        <ele>15.2</ele>
        <time>2018-09-25T21:59:05.819Z</time>
      </trkpt>
      <trkpt lat="43.485" lon="3.44617">
        <ele>15.2</ele>
        <time>2018-09-25T21:59:06.819Z</time>
      </trkpt>
      <trkpt lat="43.48504" lon="3.44621">
        <ele>15.2</ele>
        <time>2018-09-25T21:59:07.819Z</time>
      </trkpt>
      <trkpt lat="43.48507" lon="3.44624">
        <ele>15.2</ele>
        <time>2018-09-25T21:59:08.819Z</time>
      </trkpt>
      <trkpt lat="43.48511" lon="3.44628">
        <ele>15.1</ele>
        <time>2018-09-25T21:59:09.819Z</time>
      </trkpt>
      <trkpt lat="43.48515" lon="3.44633">
        <ele>15.1</ele>
        <time>2018-09-25T21:59:10.819Z</time>
      </trkpt>
      <trkpt lat="43.48518" lon="3.44637">
        <ele>15.1</ele>
        <time>2018-09-25T21:59:11.819Z</time>
      </trkpt>
      <trkpt lat="43.48521" lon="3.44642">
        <ele>15.1</ele>
        <time>2018-09-25T21:59:12.819Z</time>
      </trkpt>
      <trkpt lat="43.48524" lon="3.44646">
        <ele>15.1</ele>
        <time>2018-09-25T21:59:13.819Z</time>
      </trkpt>
      <trkpt lat="43.48526" lon="3.4465">
        <ele>15</ele>
        <time>2018-09-25T21:59:14.819Z</time>
      </trkpt>
      <trkpt lat="43.4853" lon="3.44656">
        <ele>15</ele>
        <time>2018-09-25T21:59:15.819Z</time>
      </trkpt>
      <trkpt lat="43.48533" lon="3.44661">
        <ele>15</ele>
        <time>2018-09-25T21:59:16.819Z</time>
      </trkpt>
      <trkpt lat="43.48537" lon="3.44665">
        <ele>15</ele>
        <time>2018-09-25T21:59:17.819Z</time>
      </trkpt>
      <trkpt lat="43.48541" lon="3.4467">
        <ele>15</ele>
        <time>2018-09-25T21:59:18.819Z</time>
      </trkpt>
      <trkpt lat="43.48546" lon="3.44673">
        <ele>15</ele>
        <time>2018-09-25T21:59:19.819Z</time>
      </trkpt>
      <trkpt lat="43.4855" lon="3.44677">
        <ele>15.1</ele>
        <time>2018-09-25T21:59:20.819Z</time>
      </trkpt>
      <trkpt lat="43.48555" lon="3.44681">
        <ele>15.1</ele>
        <time>2018-09-25T21:59:21.819Z</time>
      </trkpt>
      <trkpt lat="43.48559" lon="3.44686">
        <ele>15.1</ele>
        <time>2018-09-25T21:59:22.819Z</time>
      </trkpt>
      <trkpt lat="43.48564" lon="3.4469">
        <ele>15.1</ele>
        <time>2018-09-25T21:59:23.819Z</time>
      </trkpt>
      <trkpt lat="43.48569" lon="3.44694">
        <ele>15.1</ele>
        <time>2018-09-25T21:59:24.819Z</time>
      </trkpt>
      <trkpt lat="43.48574" lon="3.44698">
        <ele>15</ele>
        <time>2018-09-25T21:59:25.819Z</time>
      </trkpt>
      <trkpt lat="43.48578" lon="3.44702">
        <ele>15</ele>
        <time>2018-09-25T21:59:26.819Z</time>
      </trkpt>
      <trkpt lat="43.48584" lon="3.44705">
        <ele>15</ele>
        <time>2018-09-25T21:59:27.819Z</time>
      </trkpt>
      <trkpt lat="43.48589" lon="3.44709">
        <ele>15</ele>
        <time>2018-09-25T21:59:28.819Z</time>
      </trkpt>
      <trkpt lat="43.48593" lon="3.44713">
        <ele>15</ele>
        <time>2018-09-25T21:59:29.819Z</time>
      </trkpt>
      <trkpt lat="43.48598" lon="3.44717">
        <ele>15</ele>
        <time>2018-09-25T21:59:30.819Z</time>
      </trkpt>
      <trkpt lat="43.48603" lon="3.4472">
        <ele>15</ele>
        <time>2018-09-25T21:59:31.819Z</time>
      </trkpt>
      <trkpt lat="43.48607" lon="3.44723">
        <ele>15</ele>
        <time>2018-09-25T21:59:32.819Z</time>
      </trkpt>
      <trkpt lat="43.48611" lon="3.44726">
        <ele>15</ele>
        <time>2018-09-25T21:59:33.819Z</time>
      </trkpt>
      <trkpt lat="43.48615" lon="3.4473">
        <ele>15</ele>
        <time>2018-09-25T21:59:34.819Z</time>
      </trkpt>
      <trkpt lat="43.48621" lon="3.44733">
        <ele>15</ele>
        <time>2018-09-25T21:59:35.819Z</time>
      </trkpt>
      <trkpt lat="43.48627" lon="3.44735">
        <ele>15</ele>
        <time>2018-09-25T21:59:36.819Z</time>
      </trkpt>
      <trkpt lat="43.48632" lon="3.44738">
        <ele>15</ele>
        <time>2018-09-25T21:59:37.819Z</time>
      </trkpt>
      <trkpt lat="43.48637" lon="3.44741">
        <ele>15.1</ele>
        <time>2018-09-25T21:59:38.819Z</time>
      </trkpt>
      <trkpt lat="43.48641" lon="3.44744">
        <ele>15.1</ele>
        <time>2018-09-25T21:59:39.819Z</time>
      </trkpt>
      <trkpt lat="43.48647" lon="3.44747">
        <ele>15.1</ele>
        <time>2018-09-25T21:59:40.819Z</time>
      </trkpt>
      <trkpt lat="43.48651" lon="3.44751">
        <ele>15.1</ele>
        <time>2018-09-25T21:59:41.819Z</time>
      </trkpt>
      <trkpt lat="43.48657" lon="3.44753">
        <ele>15.1</ele>
        <time>2018-09-25T21:59:42.819Z</time>
      </trkpt>
      <trkpt lat="43.48662" lon="3.44756">
        <ele>15.1</ele>
        <time>2018-09-25T21:59:43.819Z</time>
      </trkpt>
      <trkpt lat="43.48667" lon="3.44759">
        <ele>15.2</ele>
        <time>2018-09-25T21:59:44.819Z</time>
      </trkpt>
      <trkpt lat="43.48672" lon="3.44763">
        <ele>15.2</ele>
        <time>2018-09-25T21:59:45.819Z</time>
      </trkpt>
      <trkpt lat="43.48677" lon="3.44766">
        <ele>15.3</ele>
        <time>2018-09-25T21:59:46.819Z</time>
      </trkpt>
      <trkpt lat="43.48682" lon="3.4477">
        <ele>15.4</ele>
        <time>2018-09-25T21:59:47.819Z</time>
      </trkpt>
      <trkpt lat="43.48686" lon="3.44774">
        <ele>15.5</ele>
        <time>2018-09-25T21:59:48.819Z</time>
      </trkpt>
      <trkpt lat="43.48691" lon="3.4478">
        <ele>15.8</ele>
        <time>2018-09-25T21:59:49.819Z</time>
      </trkpt>
      <trkpt lat="43.48696" lon="3.44784">
        <ele>16.1</ele>
        <time>2018-09-25T21:59:50.819Z</time>
      </trkpt>
      <trkpt lat="43.48701" lon="3.44788">
        <ele>16.3</ele>
        <time>2018-09-25T21:59:51.819Z</time>
      </trkpt>
      <trkpt lat="43.48705" lon="3.44793">
        <ele>16.3</ele>
        <time>2018-09-25T21:59:52.819Z</time>
      </trkpt>
      <trkpt lat="43.4871" lon="3.44798">
        <ele>16.4</ele>
        <time>2018-09-25T21:59:53.819Z</time>
      </trkpt>
      <trkpt lat="43.48714" lon="3.44804">
        <ele>16.5</ele>
        <time>2018-09-25T21:59:54.819Z</time>
      </trkpt>
      <trkpt lat="43.48717" lon="3.44809">
        <ele>16.5</ele>
        <time>2018-09-25T21:59:55.819Z</time>
      </trkpt>
      <trkpt lat="43.48721" lon="3.44815">
        <ele>16.6</ele>
        <time>2018-09-25T21:59:56.819Z</time>
      </trkpt>
      <trkpt lat="43.48724" lon="3.44821">
        <ele>16.7</ele>
        <time>2018-09-25T21:59:57.819Z</time>
      </trkpt>
      <trkpt lat="43.48728" lon="3.44827">
        <ele>16.7</ele>
        <time>2018-09-25T21:59:58.819Z</time>
      </trkpt>
      <trkpt lat="43.48731" lon="3.44833">
        <ele>16.8</ele>
        <time>2018-09-25T21:59:59.819Z</time>
      </trkpt>
      <trkpt lat="43.48734" lon="3.44839">
        <ele>16.8</ele>
        <time>2018-09-25T22:00:00.819Z</time>
      </trkpt>
      <trkpt lat="43.48737" lon="3.44846">
        <ele>16.8</ele>
        <time>2018-09-25T22:00:01.819Z</time>
      </trkpt>
      <trkpt lat="43.48741" lon="3.44852">
        <ele>16.9</ele>
        <time>2018-09-25T22:00:02.819Z</time>
      </trkpt>
      <trkpt lat="43.48745" lon="3.44858">
        <ele>16.9</ele>
        <time>2018-09-25T22:00:03.819Z</time>
      </trkpt>
      <trkpt lat="43.48749" lon="3.44864">
        <ele>17</ele>
        <time>2018-09-25T22:00:04.819Z</time>
      </trkpt>
      <trkpt lat="43.48753" lon="3.44871">
        <ele>17</ele>
        <time>2018-09-25T22:00:05.819Z</time>
      </trkpt>
      <trkpt lat="43.48756" lon="3.44877">
        <ele>17</ele>
        <time>2018-09-25T22:00:06.819Z</time>
      </trkpt>
      <trkpt lat="43.4876" lon="3.44883">
        <ele>17</ele>
        <time>2018-09-25T22:00:07.819Z</time>
      </trkpt>
      <trkpt lat="43.48763" lon="3.44888">
        <ele>17</ele>
        <time>2018-09-25T22:00:08.819Z</time>
      </trkpt>
      <trkpt lat="43.48766" lon="3.44894">
        <ele>17</ele>
        <time>2018-09-25T22:00:09.819Z</time>
      </trkpt>
      <trkpt lat="43.4877" lon="3.449">
        <ele>17</ele>
        <time>2018-09-25T22:00:10.819Z</time>
      </trkpt>
      <trkpt lat="43.48773" lon="3.44906">
        <ele>17</ele>
        <time>2018-09-25T22:00:11.819Z</time>
      </trkpt>
      <trkpt lat="43.48776" lon="3.44912">
        <ele>17</ele>
        <time>2018-09-25T22:00:12.819Z</time>
      </trkpt>
      <trkpt lat="43.4878" lon="3.44918">
        <ele>17</ele>
        <time>2018-09-25T22:00:13.819Z</time>
      </trkpt>
      <trkpt lat="43.48783" lon="3.44923">
        <ele>17</ele>
        <time>2018-09-25T22:00:14.819Z</time>
      </trkpt>
      <trkpt lat="43.48786" lon="3.44929">
        <ele>17</ele>
        <time>2018-09-25T22:00:15.819Z</time>
      </trkpt>
      <trkpt lat="43.48789" lon="3.44936">
        <ele>17</ele>
        <time>2018-09-25T22:00:16.819Z</time>
      </trkpt>
      <trkpt lat="43.48792" lon="3.44942">
        <ele>17</ele>
        <time>2018-09-25T22:00:17.819Z</time>
      </trkpt>
      <trkpt lat="43.48795" lon="3.44948">
        <ele>17</ele>
        <time>2018-09-25T22:00:18.819Z</time>
      </trkpt>
      <trkpt lat="43.48798" lon="3.44953">
        <ele>17</ele>
        <time>2018-09-25T22:00:19.819Z</time>
      </trkpt>
      <trkpt lat="43.48801" lon="3.44959">
        <ele>17</ele>
        <time>2018-09-25T22:00:20.819Z</time>
      </trkpt>
      <trkpt lat="43.48804" lon="3.44964">
        <ele>17</ele>
        <time>2018-09-25T22:00:21.819Z</time>
      </trkpt>
      <trkpt lat="43.48807" lon="3.44968">
        <ele>17</ele>
        <time>2018-09-25T22:00:22.819Z</time>
      </trkpt>
      <trkpt lat="43.4881" lon="3.44973">
        <ele>17</ele>
        <time>2018-09-25T22:00:23.819Z</time>
      </trkpt>
      <trkpt lat="43.48813" lon="3.44978">
        <ele>17</ele>
        <time>2018-09-25T22:00:24.819Z</time>
      </trkpt>
      <trkpt lat="43.48815" lon="3.44982">
        <ele>17</ele>
        <time>2018-09-25T22:00:25.819Z</time>
      </trkpt>
      <trkpt lat="43.48818" lon="3.44986">
        <ele>17</ele>
        <time>2018-09-25T22:00:26.819Z</time>
      </trkpt>
      <trkpt lat="43.4882" lon="3.4499">
        <ele>17</ele>
        <time>2018-09-25T22:00:27.819Z</time>
      </trkpt>
      <trkpt lat="43.48823" lon="3.44993">
        <ele>17</ele>
        <time>2018-09-25T22:00:29.819Z</time>
      </trkpt>
      <trkpt lat="43.48826" lon="3.44994">
        <ele>17</ele>
        <time>2018-09-25T22:00:31.819Z</time>
      </trkpt>
      <trkpt lat="43.48829" lon="3.44997">
        <ele>17</ele>
        <time>2018-09-25T22:00:33.819Z</time>
      </trkpt>
      <trkpt lat="43.48833" lon="3.45002">
        <ele>17</ele>
        <time>2018-09-25T22:00:35.819Z</time>
      </trkpt>
      <trkpt lat="43.48836" lon="3.45004">
        <ele>17</ele>
        <time>2018-09-25T22:00:36.819Z</time>
      </trkpt>
      <trkpt lat="43.4884" lon="3.45007">
        <ele>16.9</ele>
        <time>2018-09-25T22:00:37.819Z</time>
      </trkpt>
      <trkpt lat="43.48846" lon="3.4501">
        <ele>16.9</ele>
        <time>2018-09-25T22:00:38.819Z</time>
      </trkpt>
      <trkpt lat="43.4885" lon="3.45015">
        <ele>16.8</ele>
        <time>2018-09-25T22:00:39.819Z</time>
      </trkpt>
      <trkpt lat="43.48854" lon="3.45019">
        <ele>16.7</ele>
        <time>2018-09-25T22:00:40.819Z</time>
      </trkpt>
      <trkpt lat="43.48857" lon="3.45023">
        <ele>16.7</ele>
        <time>2018-09-25T22:00:41.819Z</time>
      </trkpt>
      <trkpt lat="43.48861" lon="3.45026">
        <ele>16.6</ele>
        <time>2018-09-25T22:00:42.819Z</time>
      </trkpt>
      <trkpt lat="43.48866" lon="3.45029">
        <ele>16.6</ele>
        <time>2018-09-25T22:00:43.819Z</time>
      </trkpt>
      <trkpt lat="43.48869" lon="3.45031">
        <ele>16.5</ele>
        <time>2018-09-25T22:00:44.819Z</time>
      </trkpt>
      <trkpt lat="43.48873" lon="3.45035">
        <ele>16.5</ele>
        <time>2018-09-25T22:00:45.819Z</time>
      </trkpt>
      <trkpt lat="43.48877" lon="3.45038">
        <ele>16.5</ele>
        <time>2018-09-25T22:00:46.819Z</time>
      </trkpt>
      <trkpt lat="43.48882" lon="3.45042">
        <ele>16.5</ele>
        <time>2018-09-25T22:00:47.819Z</time>
      </trkpt>
      <trkpt lat="43.48887" lon="3.45046">
        <ele>16.5</ele>
        <time>2018-09-25T22:00:48.819Z</time>
      </trkpt>
      <trkpt lat="43.48891" lon="3.4505">
        <ele>16.5</ele>
        <time>2018-09-25T22:00:49.819Z</time>
      </trkpt>
      <trkpt lat="43.48895" lon="3.45053">
        <ele>16.5</ele>
        <time>2018-09-25T22:00:50.819Z</time>
      </trkpt>
      <trkpt lat="43.48899" lon="3.45057">
        <ele>16.6</ele>
        <time>2018-09-25T22:00:51.819Z</time>
      </trkpt>
      <trkpt lat="43.48904" lon="3.4506">
        <ele>16.6</ele>
        <time>2018-09-25T22:00:52.819Z</time>
      </trkpt>
      <trkpt lat="43.48908" lon="3.45063">
        <ele>16.7</ele>
        <time>2018-09-25T22:00:53.819Z</time>
      </trkpt>
      <trkpt lat="43.48913" lon="3.45066">
        <ele>16.7</ele>
        <time>2018-09-25T22:00:54.819Z</time>
      </trkpt>
      <trkpt lat="43.48917" lon="3.45069">
        <ele>16.7</ele>
        <time>2018-09-25T22:00:55.819Z</time>
      </trkpt>
      <trkpt lat="43.48922" lon="3.45071">
        <ele>16.8</ele>
        <time>2018-09-25T22:00:56.819Z</time>
      </trkpt>
      <trkpt lat="43.48927" lon="3.45075">
        <ele>16.8</ele>
        <time>2018-09-25T22:00:57.819Z</time>
      </trkpt>
      <trkpt lat="43.48932" lon="3.4508">
        <ele>16.8</ele>
        <time>2018-09-25T22:00:58.819Z</time>
      </trkpt>
      <trkpt lat="43.48936" lon="3.45084">
        <ele>16.9</ele>
        <time>2018-09-25T22:00:59.819Z</time>
      </trkpt>
      <trkpt lat="43.48941" lon="3.45087">
        <ele>16.9</ele>
        <time>2018-09-25T22:01:00.819Z</time>
      </trkpt>
      <trkpt lat="43.48946" lon="3.4509">
        <ele>16.9</ele>
        <time>2018-09-25T22:01:01.819Z</time>
      </trkpt>
      <trkpt lat="43.4895" lon="3.45094">
        <ele>16.8</ele>
        <time>2018-09-25T22:01:02.819Z</time>
      </trkpt>
      <trkpt lat="43.48954" lon="3.45097">
        <ele>16.8</ele>
        <time>2018-09-25T22:01:03.819Z</time>
      </trkpt>
      <trkpt lat="43.4896" lon="3.45099">
        <ele>16.8</ele>
        <time>2018-09-25T22:01:04.819Z</time>
      </trkpt>
      <trkpt lat="43.48965" lon="3.45102">
        <ele>16.8</ele>
        <time>2018-09-25T22:01:05.819Z</time>
      </trkpt>
      <trkpt lat="43.4897" lon="3.45106">
        <ele>16.7</ele>
        <time>2018-09-25T22:01:06.819Z</time>
      </trkpt>
      <trkpt lat="43.48975" lon="3.45109">
        <ele>16.7</ele>
        <time>2018-09-25T22:01:07.819Z</time>
      </trkpt>
      <trkpt lat="43.48979" lon="3.45112">
        <ele>16.7</ele>
        <time>2018-09-25T22:01:08.819Z</time>
      </trkpt>
      <trkpt lat="43.48984" lon="3.45115">
        <ele>16.6</ele>
        <time>2018-09-25T22:01:09.819Z</time>
      </trkpt>
      <trkpt lat="43.48989" lon="3.45118">
        <ele>16.6</ele>
        <time>2018-09-25T22:01:10.819Z</time>
      </trkpt>
      <trkpt lat="43.48994" lon="3.4512">
        <ele>16.6</ele>
        <time>2018-09-25T22:01:11.819Z</time>
      </trkpt>
      <trkpt lat="43.48999" lon="3.45122">
        <ele>16.5</ele>
        <time>2018-09-25T22:01:12.819Z</time>
      </trkpt>
      <trkpt lat="43.49005" lon="3.45125">
        <ele>16.5</ele>
        <time>2018-09-25T22:01:13.819Z</time>
      </trkpt>
      <trkpt lat="43.4901" lon="3.45128">
        <ele>16.4</ele>
        <time>2018-09-25T22:01:14.819Z</time>
      </trkpt>
      <trkpt lat="43.49015" lon="3.4513">
        <ele>16.4</ele>
        <time>2018-09-25T22:01:15.819Z</time>
      </trkpt>
      <trkpt lat="43.4902" lon="3.45133">
        <ele>16.3</ele>
        <time>2018-09-25T22:01:16.819Z</time>
      </trkpt>
      <trkpt lat="43.49025" lon="3.45137">
        <ele>16.3</ele>
        <time>2018-09-25T22:01:17.819Z</time>
      </trkpt>
      <trkpt lat="43.4903" lon="3.4514">
        <ele>16.2</ele>
        <time>2018-09-25T22:01:18.819Z</time>
      </trkpt>
      <trkpt lat="43.49036" lon="3.45142">
        <ele>16.1</ele>
        <time>2018-09-25T22:01:19.819Z</time>
      </trkpt>
      <trkpt lat="43.49042" lon="3.45144">
        <ele>16.1</ele>
        <time>2018-09-25T22:01:20.819Z</time>
      </trkpt>
      <trkpt lat="43.49047" lon="3.45146">
        <ele>16.1</ele>
        <time>2018-09-25T22:01:21.819Z</time>
      </trkpt>
      <trkpt lat="43.49051" lon="3.45148">
        <ele>16</ele>
        <time>2018-09-25T22:01:22.819Z</time>
      </trkpt>
      <trkpt lat="43.49056" lon="3.45152">
        <ele>16</ele>
        <time>2018-09-25T22:01:23.819Z</time>
      </trkpt>
      <trkpt lat="43.49061" lon="3.45155">
        <ele>16</ele>
        <time>2018-09-25T22:01:24.819Z</time>
      </trkpt>
      <trkpt lat="43.49066" lon="3.45159">
        <ele>16</ele>
        <time>2018-09-25T22:01:25.819Z</time>
      </trkpt>
      <trkpt lat="43.49071" lon="3.45162">
        <ele>16</ele>
        <time>2018-09-25T22:01:26.819Z</time>
      </trkpt>
      <trkpt lat="43.49076" lon="3.45165">
        <ele>16</ele>
        <time>2018-09-25T22:01:27.819Z</time>
      </trkpt>
      <trkpt lat="43.49081" lon="3.45168">
        <ele>16</ele>
        <time>2018-09-25T22:01:28.819Z</time>
      </trkpt>
      <trkpt lat="43.49086" lon="3.45172">
        <ele>16</ele>
        <time>2018-09-25T22:01:29.819Z</time>
      </trkpt>
      <trkpt lat="43.49091" lon="3.45175">
        <ele>16.1</ele>
        <time>2018-09-25T22:01:30.819Z</time>
      </trkpt>
      <trkpt lat="43.49097" lon="3.45179">
        <ele>16.1</ele>
        <time>2018-09-25T22:01:31.819Z</time>
      </trkpt>
      <trkpt lat="43.49102" lon="3.45182">
        <ele>16.2</ele>
        <time>2018-09-25T22:01:32.819Z</time>
      </trkpt>
      <trkpt lat="43.49107" lon="3.45187">
        <ele>16.3</ele>
        <time>2018-09-25T22:01:33.819Z</time>
      </trkpt>
      <trkpt lat="43.49112" lon="3.45191">
        <ele>16.3</ele>
        <time>2018-09-25T22:01:34.819Z</time>
      </trkpt>
      <trkpt lat="43.49117" lon="3.45194">
        <ele>16.4</ele>
        <time>2018-09-25T22:01:35.819Z</time>
      </trkpt>
      <trkpt lat="43.49123" lon="3.45198">
        <ele>16.5</ele>
        <time>2018-09-25T22:01:36.819Z</time>
      </trkpt>
      <trkpt lat="43.49128" lon="3.45201">
        <ele>16.6</ele>
        <time>2018-09-25T22:01:37.819Z</time>
      </trkpt>
      <trkpt lat="43.49133" lon="3.45204">
        <ele>16.6</ele>
        <time>2018-09-25T22:01:38.819Z</time>
      </trkpt>
      <trkpt lat="43.49137" lon="3.45206">
        <ele>16.6</ele>
        <time>2018-09-25T22:01:39.819Z</time>
      </trkpt>
      <trkpt lat="43.49141" lon="3.4521">
        <ele>16.7</ele>
        <time>2018-09-25T22:01:40.819Z</time>
      </trkpt>
      <trkpt lat="43.49146" lon="3.45213">
        <ele>16.8</ele>
        <time>2018-09-25T22:01:41.819Z</time>
      </trkpt>
      <trkpt lat="43.49151" lon="3.45216">
        <ele>16.8</ele>
        <time>2018-09-25T22:01:42.819Z</time>
      </trkpt>
      <trkpt lat="43.49156" lon="3.45219">
        <ele>16.9</ele>
        <time>2018-09-25T22:01:43.819Z</time>
      </trkpt>
      <trkpt lat="43.49161" lon="3.45222">
        <ele>16.9</ele>
        <time>2018-09-25T22:01:44.819Z</time>
      </trkpt>
      <trkpt lat="43.49166" lon="3.45225">
        <ele>16.9</ele>
        <time>2018-09-25T22:01:45.819Z</time>
      </trkpt>
      <trkpt lat="43.49172" lon="3.45227">
        <ele>17</ele>
        <time>2018-09-25T22:01:46.819Z</time>
      </trkpt>
      <trkpt lat="43.49178" lon="3.4523">
        <ele>17</ele>
        <time>2018-09-25T22:01:47.819Z</time>
      </trkpt>
      <trkpt lat="43.49183" lon="3.45233">
        <ele>17</ele>
        <time>2018-09-25T22:01:48.819Z</time>
      </trkpt>
      <trkpt lat="43.49189" lon="3.45235">
        <ele>17</ele>
        <time>2018-09-25T22:01:49.819Z</time>
      </trkpt>
      <trkpt lat="43.49194" lon="3.45237">
        <ele>16.9</ele>
        <time>2018-09-25T22:01:50.819Z</time>
      </trkpt>
      <trkpt lat="43.49199" lon="3.4524">
        <ele>16.8</ele>
        <time>2018-09-25T22:01:51.819Z</time>
      </trkpt>
      <trkpt lat="43.49204" lon="3.45244">
        <ele>16.7</ele>
        <time>2018-09-25T22:01:52.819Z</time>
      </trkpt>
      <trkpt lat="43.49208" lon="3.45249">
        <ele>16.7</ele>
        <time>2018-09-25T22:01:53.819Z</time>
      </trkpt>
      <trkpt lat="43.49214" lon="3.45254">
        <ele>16.6</ele>
        <time>2018-09-25T22:01:54.819Z</time>
      </trkpt>
      <trkpt lat="43.49219" lon="3.45257">
        <ele>16.6</ele>
        <time>2018-09-25T22:01:55.819Z</time>
      </trkpt>
      <trkpt lat="43.49224" lon="3.45262">
        <ele>16.5</ele>
        <time>2018-09-25T22:01:56.819Z</time>
      </trkpt>
      <trkpt lat="43.49229" lon="3.45264">
        <ele>16.5</ele>
        <time>2018-09-25T22:01:57.819Z</time>
      </trkpt>
      <trkpt lat="43.49234" lon="3.45268">
        <ele>16.5</ele>
        <time>2018-09-25T22:01:58.819Z</time>
      </trkpt>
      <trkpt lat="43.4924" lon="3.45268">
        <ele>16.4</ele>
        <time>2018-09-25T22:01:59.819Z</time>
      </trkpt>
      <trkpt lat="43.49245" lon="3.45271">
        <ele>16.4</ele>
        <time>2018-09-25T22:02:00.819Z</time>
      </trkpt>
      <trkpt lat="43.4925" lon="3.45275">
        <ele>16.3</ele>
        <time>2018-09-25T22:02:01.819Z</time>
      </trkpt>
      <trkpt lat="43.49255" lon="3.4528">
        <ele>16.3</ele>
        <time>2018-09-25T22:02:02.819Z</time>
      </trkpt>
      <trkpt lat="43.49261" lon="3.45284">
        <ele>16.2</ele>
        <time>2018-09-25T22:02:03.819Z</time>
      </trkpt>
      <trkpt lat="43.49267" lon="3.45286">
        <ele>16.2</ele>
        <time>2018-09-25T22:02:04.819Z</time>
      </trkpt>
      <trkpt lat="43.49272" lon="3.45288">
        <ele>16.2</ele>
        <time>2018-09-25T22:02:05.819Z</time>
      </trkpt>
      <trkpt lat="43.49277" lon="3.45291">
        <ele>16.1</ele>
        <time>2018-09-25T22:02:06.819Z</time>
      </trkpt>
      <trkpt lat="43.49282" lon="3.45293">
        <ele>16.1</ele>
        <time>2018-09-25T22:02:07.819Z</time>
      </trkpt>
      <trkpt lat="43.49288" lon="3.45295">
        <ele>16</ele>
        <time>2018-09-25T22:02:08.819Z</time>
      </trkpt>
      <trkpt lat="43.49294" lon="3.45298">
        <ele>16</ele>
        <time>2018-09-25T22:02:09.819Z</time>
      </trkpt>
      <trkpt lat="43.49299" lon="3.453">
        <ele>15.9</ele>
        <time>2018-09-25T22:02:10.819Z</time>
      </trkpt>
      <trkpt lat="43.49304" lon="3.45305">
        <ele>15.9</ele>
        <time>2018-09-25T22:02:11.819Z</time>
      </trkpt>
      <trkpt lat="43.49309" lon="3.45308">
        <ele>15.8</ele>
        <time>2018-09-25T22:02:12.819Z</time>
      </trkpt>
      <trkpt lat="43.49315" lon="3.4531">
        <ele>15.8</ele>
        <time>2018-09-25T22:02:13.819Z</time>
      </trkpt>
      <trkpt lat="43.49321" lon="3.45313">
        <ele>15.8</ele>
        <time>2018-09-25T22:02:14.819Z</time>
      </trkpt>
      <trkpt lat="43.49326" lon="3.45317">
        <ele>15.7</ele>
        <time>2018-09-25T22:02:15.819Z</time>
      </trkpt>
      <trkpt lat="43.49332" lon="3.45319">
        <ele>15.7</ele>
        <time>2018-09-25T22:02:16.819Z</time>
      </trkpt>
      <trkpt lat="43.49336" lon="3.45323">
        <ele>15.7</ele>
        <time>2018-09-25T22:02:17.819Z</time>
      </trkpt>
      <trkpt lat="43.49341" lon="3.45326">
        <ele>15.7</ele>
        <time>2018-09-25T22:02:18.819Z</time>
      </trkpt>
      <trkpt lat="43.49347" lon="3.45328">
        <ele>15.7</ele>
        <time>2018-09-25T22:02:19.819Z</time>
      </trkpt>
      <trkpt lat="43.49352" lon="3.45331">
        <ele>15.7</ele>
        <time>2018-09-25T22:02:20.819Z</time>
      </trkpt>
      <trkpt lat="43.49358" lon="3.45335">
        <ele>15.6</ele>
        <time>2018-09-25T22:02:21.819Z</time>
      </trkpt>
      <trkpt lat="43.49363" lon="3.45339">
        <ele>15.6</ele>
        <time>2018-09-25T22:02:22.819Z</time>
      </trkpt>
      <trkpt lat="43.49368" lon="3.45343">
        <ele>15.6</ele>
        <time>2018-09-25T22:02:23.819Z</time>
      </trkpt>
      <trkpt lat="43.49374" lon="3.45346">
        <ele>15.6</ele>
        <time>2018-09-25T22:02:24.819Z</time>
      </trkpt>
      <trkpt lat="43.49379" lon="3.45347">
        <ele>15.6</ele>
        <time>2018-09-25T22:02:25.819Z</time>
      </trkpt>
      <trkpt lat="43.49384" lon="3.45349">
        <ele>15.6</ele>
        <time>2018-09-25T22:02:26.819Z</time>
      </trkpt>
      <trkpt lat="43.49389" lon="3.45352">
        <ele>15.6</ele>
        <time>2018-09-25T22:02:27.819Z</time>
      </trkpt>
      <trkpt lat="43.49393" lon="3.45355">
        <ele>15.6</ele>
        <time>2018-09-25T22:02:28.819Z</time>
      </trkpt>
      <trkpt lat="43.49398" lon="3.45356">
        <ele>15.5</ele>
        <time>2018-09-25T22:02:29.819Z</time>
      </trkpt>
      <trkpt lat="43.49403" lon="3.45359">
        <ele>15.5</ele>
        <time>2018-09-25T22:02:30.819Z</time>
      </trkpt>
      <trkpt lat="43.49407" lon="3.45362">
        <ele>15.5</ele>
        <time>2018-09-25T22:02:31.819Z</time>
      </trkpt>
      <trkpt lat="43.49413" lon="3.45365">
        <ele>15.5</ele>
        <time>2018-09-25T22:02:32.819Z</time>
      </trkpt>
      <trkpt lat="43.49418" lon="3.45367">
        <ele>15.5</ele>
        <time>2018-09-25T22:02:33.819Z</time>
      </trkpt>
      <trkpt lat="43.49424" lon="3.45369">
        <ele>15.5</ele>
        <time>2018-09-25T22:02:34.819Z</time>
      </trkpt>
      <trkpt lat="43.4943" lon="3.45371">
        <ele>15.5</ele>
        <time>2018-09-25T22:02:35.819Z</time>
      </trkpt>
      <trkpt lat="43.49435" lon="3.45373">
        <ele>15.5</ele>
        <time>2018-09-25T22:02:36.819Z</time>
      </trkpt>
      <trkpt lat="43.49441" lon="3.45374">
        <ele>15.5</ele>
        <time>2018-09-25T22:02:37.819Z</time>
      </trkpt>
      <trkpt lat="43.49446" lon="3.45376">
        <ele>15.4</ele>
        <time>2018-09-25T22:02:38.819Z</time>
      </trkpt>
      <trkpt lat="43.49452" lon="3.45378">
        <ele>15.4</ele>
        <time>2018-09-25T22:02:39.819Z</time>
      </trkpt>
      <trkpt lat="43.49457" lon="3.4538">
        <ele>15.4</ele>
        <time>2018-09-25T22:02:40.819Z</time>
      </trkpt>
      <trkpt lat="43.49464" lon="3.45383">
        <ele>15.4</ele>
        <time>2018-09-25T22:02:41.819Z</time>
      </trkpt>
      <trkpt lat="43.49469" lon="3.45384">
        <ele>15.4</ele>
        <time>2018-09-25T22:02:42.819Z</time>
      </trkpt>
      <trkpt lat="43.49475" lon="3.45385">
        <ele>15.4</ele>
        <time>2018-09-25T22:02:43.819Z</time>
      </trkpt>
      <trkpt lat="43.49481" lon="3.45385">
        <ele>15.4</ele>
        <time>2018-09-25T22:02:44.819Z</time>
      </trkpt>
      <trkpt lat="43.49487" lon="3.45385">
        <ele>15.4</ele>
        <time>2018-09-25T22:02:45.819Z</time>
      </trkpt>
      <trkpt lat="43.49493" lon="3.45386">
        <ele>15.4</ele>
        <time>2018-09-25T22:02:46.819Z</time>
      </trkpt>
      <trkpt lat="43.49498" lon="3.45387">
        <ele>15.3</ele>
        <time>2018-09-25T22:02:47.819Z</time>
      </trkpt>
      <trkpt lat="43.49504" lon="3.45388">
        <ele>15.3</ele>
        <time>2018-09-25T22:02:48.819Z</time>
      </trkpt>
      <trkpt lat="43.4951" lon="3.45389">
        <ele>15.3</ele>
        <time>2018-09-25T22:02:49.819Z</time>
      </trkpt>
      <trkpt lat="43.49515" lon="3.45391">
        <ele>15.3</ele>
        <time>2018-09-25T22:02:50.819Z</time>
      </trkpt>
      <trkpt lat="43.4952" lon="3.45393">
        <ele>15.3</ele>
        <time>2018-09-25T22:02:51.819Z</time>
      </trkpt>
      <trkpt lat="43.49526" lon="3.45394">
        <ele>15.3</ele>
        <time>2018-09-25T22:02:52.819Z</time>
      </trkpt>
      <trkpt lat="43.49531" lon="3.45396">
        <ele>15.3</ele>
        <time>2018-09-25T22:02:53.819Z</time>
      </trkpt>
      <trkpt lat="43.49537" lon="3.45396">
        <ele>15.3</ele>
        <time>2018-09-25T22:02:54.819Z</time>
      </trkpt>
      <trkpt lat="43.49543" lon="3.45397">
        <ele>15.3</ele>
        <time>2018-09-25T22:02:55.819Z</time>
      </trkpt>
      <trkpt lat="43.49549" lon="3.454">
        <ele>15.3</ele>
        <time>2018-09-25T22:02:56.819Z</time>
      </trkpt>
      <trkpt lat="43.49556" lon="3.45399">
        <ele>15.2</ele>
        <time>2018-09-25T22:02:57.819Z</time>
      </trkpt>
      <trkpt lat="43.49561" lon="3.45401">
        <ele>15.2</ele>
        <time>2018-09-25T22:02:58.819Z</time>
      </trkpt>
      <trkpt lat="43.49567" lon="3.45403">
        <ele>15.2</ele>
        <time>2018-09-25T22:02:59.819Z</time>
      </trkpt>
      <trkpt lat="43.49572" lon="3.45405">
        <ele>15.2</ele>
        <time>2018-09-25T22:03:00.819Z</time>
      </trkpt>
      <trkpt lat="43.49577" lon="3.45408">
        <ele>15.2</ele>
        <time>2018-09-25T22:03:01.819Z</time>
      </trkpt>
      <trkpt lat="43.49582" lon="3.4541">
        <ele>15.2</ele>
        <time>2018-09-25T22:03:02.819Z</time>
      </trkpt>
      <trkpt lat="43.49587" lon="3.45413">
        <ele>15.1</ele>
        <time>2018-09-25T22:03:03.819Z</time>
      </trkpt>
      <trkpt lat="43.49593" lon="3.45416">
        <ele>15.1</ele>
        <time>2018-09-25T22:03:04.819Z</time>
      </trkpt>
      <trkpt lat="43.49599" lon="3.45418">
        <ele>15.1</ele>
        <time>2018-09-25T22:03:05.819Z</time>
      </trkpt>
      <trkpt lat="43.49605" lon="3.45421">
        <ele>15.1</ele>
        <time>2018-09-25T22:03:06.819Z</time>
      </trkpt>
      <trkpt lat="43.49611" lon="3.45423">
        <ele>15.1</ele>
        <time>2018-09-25T22:03:07.819Z</time>
      </trkpt>
      <trkpt lat="43.49616" lon="3.45426">
        <ele>15.1</ele>
        <time>2018-09-25T22:03:08.819Z</time>
      </trkpt>
      <trkpt lat="43.49621" lon="3.45429">
        <ele>15.1</ele>
        <time>2018-09-25T22:03:09.819Z</time>
      </trkpt>
      <trkpt lat="43.49627" lon="3.45432">
        <ele>15.1</ele>
        <time>2018-09-25T22:03:10.819Z</time>
      </trkpt>
      <trkpt lat="43.49632" lon="3.45435">
        <ele>15</ele>
        <time>2018-09-25T22:03:11.819Z</time>
      </trkpt>
      <trkpt lat="43.49639" lon="3.45438">
        <ele>15</ele>
        <time>2018-09-25T22:03:12.819Z</time>
      </trkpt>
      <trkpt lat="43.49644" lon="3.45441">
        <ele>15</ele>
        <time>2018-09-25T22:03:13.819Z</time>
      </trkpt>
      <trkpt lat="43.4965" lon="3.45444">
        <ele>15</ele>
        <time>2018-09-25T22:03:14.819Z</time>
      </trkpt>
      <trkpt lat="43.49656" lon="3.45448">
        <ele>15</ele>
        <time>2018-09-25T22:03:15.819Z</time>
      </trkpt>
      <trkpt lat="43.49662" lon="3.45451">
        <ele>15</ele>
        <time>2018-09-25T22:03:16.819Z</time>
      </trkpt>
      <trkpt lat="43.49667" lon="3.45455">
        <ele>15</ele>
        <time>2018-09-25T22:03:17.819Z</time>
      </trkpt>
      <trkpt lat="43.49673" lon="3.45458">
        <ele>15</ele>
        <time>2018-09-25T22:03:18.819Z</time>
      </trkpt>
      <trkpt lat="43.49678" lon="3.45462">
        <ele>15</ele>
        <time>2018-09-25T22:03:19.819Z</time>
      </trkpt>
      <trkpt lat="43.49683" lon="3.45466">
        <ele>14.9</ele>
        <time>2018-09-25T22:03:20.819Z</time>
      </trkpt>
      <trkpt lat="43.49687" lon="3.4547">
        <ele>14.9</ele>
        <time>2018-09-25T22:03:21.819Z</time>
      </trkpt>
      <trkpt lat="43.49692" lon="3.45474">
        <ele>14.9</ele>
        <time>2018-09-25T22:03:22.819Z</time>
      </trkpt>
      <trkpt lat="43.49696" lon="3.45478">
        <ele>14.9</ele>
        <time>2018-09-25T22:03:23.819Z</time>
      </trkpt>
      <trkpt lat="43.497" lon="3.45481">
        <ele>14.9</ele>
        <time>2018-09-25T22:03:24.819Z</time>
      </trkpt>
      <trkpt lat="43.49704" lon="3.45485">
        <ele>14.9</ele>
        <time>2018-09-25T22:03:25.819Z</time>
      </trkpt>
      <trkpt lat="43.49709" lon="3.45488">
        <ele>14.9</ele>
        <time>2018-09-25T22:03:26.819Z</time>
      </trkpt>
      <trkpt lat="43.49714" lon="3.45492">
        <ele>14.9</ele>
        <time>2018-09-25T22:03:27.819Z</time>
      </trkpt>
      <trkpt lat="43.49719" lon="3.45496">
        <ele>14.9</ele>
        <time>2018-09-25T22:03:28.819Z</time>
      </trkpt>
      <trkpt lat="43.49724" lon="3.455">
        <ele>14.9</ele>
        <time>2018-09-25T22:03:29.819Z</time>
      </trkpt>
      <trkpt lat="43.49729" lon="3.45504">
        <ele>14.8</ele>
        <time>2018-09-25T22:03:30.819Z</time>
      </trkpt>
      <trkpt lat="43.49734" lon="3.45508">
        <ele>14.8</ele>
        <time>2018-09-25T22:03:31.819Z</time>
      </trkpt>
      <trkpt lat="43.49739" lon="3.45512">
        <ele>14.8</ele>
        <time>2018-09-25T22:03:32.819Z</time>
      </trkpt>
      <trkpt lat="43.49743" lon="3.45515">
        <ele>14.8</ele>
        <time>2018-09-25T22:03:33.819Z</time>
      </trkpt>
      <trkpt lat="43.49748" lon="3.45519">
        <ele>14.8</ele>
        <time>2018-09-25T22:03:34.819Z</time>
      </trkpt>
      <trkpt lat="43.49752" lon="3.45522">
        <ele>14.8</ele>
        <time>2018-09-25T22:03:35.819Z</time>
      </trkpt>
      <trkpt lat="43.49756" lon="3.45525">
        <ele>14.8</ele>
        <time>2018-09-25T22:03:36.819Z</time>
      </trkpt>
      <trkpt lat="43.4976" lon="3.45528">
        <ele>14.8</ele>
        <time>2018-09-25T22:03:37.819Z</time>
      </trkpt>
      <trkpt lat="43.49764" lon="3.45532">
        <ele>14.8</ele>
        <time>2018-09-25T22:03:38.819Z</time>
      </trkpt>
      <trkpt lat="43.49768" lon="3.45535">
        <ele>14.8</ele>
        <time>2018-09-25T22:03:39.819Z</time>
      </trkpt>
      <trkpt lat="43.49773" lon="3.45539">
        <ele>14.8</ele>
        <time>2018-09-25T22:03:40.819Z</time>
      </trkpt>
      <trkpt lat="43.49778" lon="3.45542">
        <ele>14.8</ele>
        <time>2018-09-25T22:03:41.819Z</time>
      </trkpt>
      <trkpt lat="43.49782" lon="3.45546">
        <ele>14.8</ele>
        <time>2018-09-25T22:03:42.819Z</time>
      </trkpt>
      <trkpt lat="43.49787" lon="3.45549">
        <ele>14.8</ele>
        <time>2018-09-25T22:03:43.819Z</time>
      </trkpt>
      <trkpt lat="43.49792" lon="3.45553">
        <ele>14.8</ele>
        <time>2018-09-25T22:03:44.819Z</time>
      </trkpt>
      <trkpt lat="43.49796" lon="3.45556">
        <ele>14.8</ele>
        <time>2018-09-25T22:03:45.819Z</time>
      </trkpt>
      <trkpt lat="43.49801" lon="3.45559">
        <ele>14.8</ele>
        <time>2018-09-25T22:03:46.819Z</time>
      </trkpt>
      <trkpt lat="43.49806" lon="3.45562">
        <ele>14.8</ele>
        <time>2018-09-25T22:03:47.819Z</time>
      </trkpt>
      <trkpt lat="43.49811" lon="3.45565">
        <ele>14.8</ele>
        <time>2018-09-25T22:03:48.819Z</time>
      </trkpt>
      <trkpt lat="43.49815" lon="3.45568">
        <ele>14.8</ele>
        <time>2018-09-25T22:03:49.819Z</time>
      </trkpt>
      <trkpt lat="43.4982" lon="3.45571">
        <ele>14.8</ele>
        <time>2018-09-25T22:03:50.819Z</time>
      </trkpt>
      <trkpt lat="43.49824" lon="3.45573">
        <ele>14.8</ele>
        <time>2018-09-25T22:03:51.819Z</time>
      </trkpt>
      <trkpt lat="43.49828" lon="3.45576">
        <ele>14.8</ele>
        <time>2018-09-25T22:03:52.819Z</time>
      </trkpt>
      <trkpt lat="43.49832" lon="3.45579">
        <ele>14.8</ele>
        <time>2018-09-25T22:03:53.819Z</time>
      </trkpt>
      <trkpt lat="43.49837" lon="3.45582">
        <ele>14.8</ele>
        <time>2018-09-25T22:03:54.819Z</time>
      </trkpt>
      <trkpt lat="43.49841" lon="3.45584">
        <ele>14.8</ele>
        <time>2018-09-25T22:03:55.819Z</time>
      </trkpt>
      <trkpt lat="43.49845" lon="3.45587">
        <ele>14.8</ele>
        <time>2018-09-25T22:03:56.819Z</time>
      </trkpt>
      <trkpt lat="43.49849" lon="3.45589">
        <ele>14.8</ele>
        <time>2018-09-25T22:03:57.819Z</time>
      </trkpt>
      <trkpt lat="43.49852" lon="3.45592">
        <ele>14.9</ele>
        <time>2018-09-25T22:03:58.819Z</time>
      </trkpt>
      <trkpt lat="43.49856" lon="3.45595">
        <ele>14.9</ele>
        <time>2018-09-25T22:03:59.819Z</time>
      </trkpt>
      <trkpt lat="43.4986" lon="3.45598">
        <ele>14.9</ele>
        <time>2018-09-25T22:04:00.819Z</time>
      </trkpt>
      <trkpt lat="43.49865" lon="3.45602">
        <ele>15</ele>
        <time>2018-09-25T22:04:01.819Z</time>
      </trkpt>
      <trkpt lat="43.49868" lon="3.45605">
        <ele>15</ele>
        <time>2018-09-25T22:04:02.819Z</time>
      </trkpt>
      <trkpt lat="43.49872" lon="3.45609">
        <ele>15.1</ele>
        <time>2018-09-25T22:04:03.819Z</time>
      </trkpt>
      <trkpt lat="43.49876" lon="3.45612">
        <ele>15.3</ele>
        <time>2018-09-25T22:04:04.819Z</time>
      </trkpt>
      <trkpt lat="43.4988" lon="3.45616">
        <ele>15.4</ele>
        <time>2018-09-25T22:04:05.819Z</time>
      </trkpt>
      <trkpt lat="43.49883" lon="3.45621">
        <ele>15.6</ele>
        <time>2018-09-25T22:04:06.819Z</time>
      </trkpt>
      <trkpt lat="43.49887" lon="3.45625">
        <ele>15.6</ele>
        <time>2018-09-25T22:04:07.819Z</time>
      </trkpt>
      <trkpt lat="43.4989" lon="3.45629">
        <ele>15.7</ele>
        <time>2018-09-25T22:04:08.819Z</time>
      </trkpt>
      <trkpt lat="43.49893" lon="3.45633">
        <ele>15.8</ele>
        <time>2018-09-25T22:04:09.819Z</time>
      </trkpt>
      <trkpt lat="43.49897" lon="3.45637">
        <ele>15.9</ele>
        <time>2018-09-25T22:04:10.819Z</time>
      </trkpt>
      <trkpt lat="43.499" lon="3.45641">
        <ele>15.9</ele>
        <time>2018-09-25T22:04:11.819Z</time>
      </trkpt>
      <trkpt lat="43.49902" lon="3.45645">
        <ele>15.9</ele>
        <time>2018-09-25T22:04:12.819Z</time>
      </trkpt>
      <trkpt lat="43.49905" lon="3.45649">
        <ele>15.9</ele>
        <time>2018-09-25T22:04:13.819Z</time>
      </trkpt>
      <trkpt lat="43.49908" lon="3.45653">
        <ele>16</ele>
        <time>2018-09-25T22:04:14.819Z</time>
      </trkpt>
      <trkpt lat="43.49912" lon="3.45657">
        <ele>16</ele>
        <time>2018-09-25T22:04:15.819Z</time>
      </trkpt>
      <trkpt lat="43.49915" lon="3.4566">
        <ele>16</ele>
        <time>2018-09-25T22:04:16.819Z</time>
      </trkpt>
      <trkpt lat="43.49918" lon="3.45664">
        <ele>16</ele>
        <time>2018-09-25T22:04:17.819Z</time>
      </trkpt>
      <trkpt lat="43.49921" lon="3.45667">
        <ele>16</ele>
        <time>2018-09-25T22:04:18.819Z</time>
      </trkpt>
      <trkpt lat="43.49925" lon="3.4567">
        <ele>16.1</ele>
        <time>2018-09-25T22:04:19.819Z</time>
      </trkpt>
      <trkpt lat="43.49928" lon="3.45674">
        <ele>16.1</ele>
        <time>2018-09-25T22:04:20.819Z</time>
      </trkpt>
      <trkpt lat="43.49932" lon="3.45676">
        <ele>16.1</ele>
        <time>2018-09-25T22:04:21.819Z</time>
      </trkpt>
      <trkpt lat="43.49935" lon="3.45679">
        <ele>16.1</ele>
        <time>2018-09-25T22:04:22.819Z</time>
      </trkpt>
      <trkpt lat="43.49939" lon="3.45682">
        <ele>16.1</ele>
        <time>2018-09-25T22:04:23.819Z</time>
      </trkpt>
      <trkpt lat="43.49942" lon="3.45685">
        <ele>16.1</ele>
        <time>2018-09-25T22:04:24.819Z</time>
      </trkpt>
      <trkpt lat="43.49946" lon="3.45688">
        <ele>16.1</ele>
        <time>2018-09-25T22:04:25.819Z</time>
      </trkpt>
      <trkpt lat="43.49949" lon="3.45691">
        <ele>16.1</ele>
        <time>2018-09-25T22:04:26.819Z</time>
      </trkpt>
      <trkpt lat="43.49952" lon="3.45694">
        <ele>16.1</ele>
        <time>2018-09-25T22:04:27.819Z</time>
      </trkpt>
      <trkpt lat="43.49957" lon="3.45698">
        <ele>16.1</ele>
        <time>2018-09-25T22:04:28.819Z</time>
      </trkpt>
      <trkpt lat="43.49961" lon="3.45701">
        <ele>16.1</ele>
        <time>2018-09-25T22:04:29.819Z</time>
      </trkpt>
      <trkpt lat="43.49964" lon="3.45704">
        <ele>16</ele>
        <time>2018-09-25T22:04:30.819Z</time>
      </trkpt>
      <trkpt lat="43.49968" lon="3.45707">
        <ele>16</ele>
        <time>2018-09-25T22:04:31.819Z</time>
      </trkpt>
      <trkpt lat="43.49972" lon="3.45709">
        <ele>16</ele>
        <time>2018-09-25T22:04:32.819Z</time>
      </trkpt>
      <trkpt lat="43.49976" lon="3.45712">
        <ele>16</ele>
        <time>2018-09-25T22:04:33.819Z</time>
      </trkpt>
      <trkpt lat="43.49979" lon="3.45715">
        <ele>16</ele>
        <time>2018-09-25T22:04:34.819Z</time>
      </trkpt>
      <trkpt lat="43.49982" lon="3.45718">
        <ele>16.1</ele>
        <time>2018-09-25T22:04:35.819Z</time>
      </trkpt>
      <trkpt lat="43.49986" lon="3.45721">
        <ele>16.1</ele>
        <time>2018-09-25T22:04:36.819Z</time>
      </trkpt>
      <trkpt lat="43.4999" lon="3.45723">
        <ele>16.2</ele>
        <time>2018-09-25T22:04:37.819Z</time>
      </trkpt>
      <trkpt lat="43.49993" lon="3.45725">
        <ele>16.2</ele>
        <time>2018-09-25T22:04:38.819Z</time>
      </trkpt>
      <trkpt lat="43.49996" lon="3.45727">
        <ele>16.2</ele>
        <time>2018-09-25T22:04:39.819Z</time>
      </trkpt>
      <trkpt lat="43.5" lon="3.45729">
        <ele>16.2</ele>
        <time>2018-09-25T22:04:40.819Z</time>
      </trkpt>
      <trkpt lat="43.50003" lon="3.45731">
        <ele>16.2</ele>
        <time>2018-09-25T22:04:41.819Z</time>
      </trkpt>
      <trkpt lat="43.50008" lon="3.45732">
        <ele>16.1</ele>
        <time>2018-09-25T22:04:42.819Z</time>
      </trkpt>
      <trkpt lat="43.50011" lon="3.45733">
        <ele>16.1</ele>
        <time>2018-09-25T22:04:43.819Z</time>
      </trkpt>
      <trkpt lat="43.50016" lon="3.45734">
        <ele>16.1</ele>
        <time>2018-09-25T22:04:44.819Z</time>
      </trkpt>
      <trkpt lat="43.5002" lon="3.45734">
        <ele>16</ele>
        <time>2018-09-25T22:04:45.819Z</time>
      </trkpt>
      <trkpt lat="43.50024" lon="3.45735">
        <ele>15.9</ele>
        <time>2018-09-25T22:04:46.819Z</time>
      </trkpt>
      <trkpt lat="43.50028" lon="3.45735">
        <ele>15.9</ele>
        <time>2018-09-25T22:04:47.819Z</time>
      </trkpt>
      <trkpt lat="43.50031" lon="3.45735">
        <ele>15.8</ele>
        <time>2018-09-25T22:04:48.819Z</time>
      </trkpt>
      <trkpt lat="43.50035" lon="3.45735">
        <ele>15.8</ele>
        <time>2018-09-25T22:04:49.819Z</time>
      </trkpt>
      <trkpt lat="43.50038" lon="3.45735">
        <ele>15.7</ele>
        <time>2018-09-25T22:04:50.819Z</time>
      </trkpt>
      <trkpt lat="43.50041" lon="3.45736">
        <ele>15.7</ele>
        <time>2018-09-25T22:04:51.819Z</time>
      </trkpt>
      <trkpt lat="43.50046" lon="3.45736">
        <ele>15.6</ele>
        <time>2018-09-25T22:04:52.819Z</time>
      </trkpt>
      <trkpt lat="43.5005" lon="3.45736">
        <ele>15.5</ele>
        <time>2018-09-25T22:04:53.819Z</time>
      </trkpt>
      <trkpt lat="43.50055" lon="3.45736">
        <ele>15.5</ele>
        <time>2018-09-25T22:04:54.819Z</time>
      </trkpt>
      <trkpt lat="43.50059" lon="3.45736">
        <ele>15.4</ele>
        <time>2018-09-25T22:04:55.819Z</time>
      </trkpt>
      <trkpt lat="43.50061" lon="3.45736">
        <ele>15.4</ele>
        <time>2018-09-25T22:04:56.819Z</time>
      </trkpt>
      <trkpt lat="43.50065" lon="3.45736">
        <ele>15.4</ele>
        <time>2018-09-25T22:04:57.819Z</time>
      </trkpt>
      <trkpt lat="43.5007" lon="3.45736">
        <ele>15.4</ele>
        <time>2018-09-25T22:04:58.819Z</time>
      </trkpt>
      <trkpt lat="43.50075" lon="3.45736">
        <ele>15.5</ele>
        <time>2018-09-25T22:04:59.819Z</time>
      </trkpt>
      <trkpt lat="43.50079" lon="3.45737">
        <ele>15.5</ele>
        <time>2018-09-25T22:05:00.819Z</time>
      </trkpt>
      <trkpt lat="43.50082" lon="3.45737">
        <ele>15.5</ele>
        <time>2018-09-25T22:05:01.819Z</time>
      </trkpt>
      <trkpt lat="43.50086" lon="3.45738">
        <ele>15.5</ele>
        <time>2018-09-25T22:05:02.819Z</time>
      </trkpt>
      <trkpt lat="43.5009" lon="3.45738">
        <ele>15.6</ele>
        <time>2018-09-25T22:05:03.819Z</time>
      </trkpt>
      <trkpt lat="43.50093" lon="3.45738">
        <ele>15.6</ele>
        <time>2018-09-25T22:05:04.819Z</time>
      </trkpt>
      <trkpt lat="43.50096" lon="3.45738">
        <ele>15.7</ele>
        <time>2018-09-25T22:05:05.819Z</time>
      </trkpt>
      <trkpt lat="43.50099" lon="3.45739">
        <ele>15.8</ele>
        <time>2018-09-25T22:05:06.819Z</time>
      </trkpt>
      <trkpt lat="43.50104" lon="3.45739">
        <ele>15.9</ele>
        <time>2018-09-25T22:05:07.819Z</time>
      </trkpt>
      <trkpt lat="43.50108" lon="3.4574">
        <ele>15.9</ele>
        <time>2018-09-25T22:05:08.819Z</time>
      </trkpt>
      <trkpt lat="43.50111" lon="3.4574">
        <ele>16</ele>
        <time>2018-09-25T22:05:09.819Z</time>
      </trkpt>
      <trkpt lat="43.50113" lon="3.4574">
        <ele>16</ele>
        <time>2018-09-25T22:05:10.819Z</time>
      </trkpt>
      <trkpt lat="43.50119" lon="3.45741">
        <ele>16.2</ele>
        <time>2018-09-25T22:05:12.819Z</time>
      </trkpt>
      <trkpt lat="43.50125" lon="3.45741">
        <ele>16.4</ele>
        <time>2018-09-25T22:05:14.819Z</time>
      </trkpt>
      <trkpt lat="43.50128" lon="3.45741">
        <ele>16.5</ele>
        <time>2018-09-25T22:05:15.819Z</time>
      </trkpt>
      <trkpt lat="43.50132" lon="3.45741">
        <ele>16.6</ele>
        <time>2018-09-25T22:05:16.819Z</time>
      </trkpt>
      <trkpt lat="43.50137" lon="3.45741">
        <ele>16.6</ele>
        <time>2018-09-25T22:05:18.819Z</time>
      </trkpt>
      <trkpt lat="43.50139" lon="3.45741">
        <ele>16.7</ele>
        <time>2018-09-25T22:05:19.819Z</time>
      </trkpt>
      <trkpt lat="43.50145" lon="3.45742">
        <ele>16.8</ele>
        <time>2018-09-25T22:05:21.819Z</time>
      </trkpt>
      <trkpt lat="43.50148" lon="3.45743">
        <ele>16.9</ele>
        <time>2018-09-25T22:05:22.819Z</time>
      </trkpt>
      <trkpt lat="43.50151" lon="3.45744">
        <ele>17</ele>
        <time>2018-09-25T22:05:23.819Z</time>
      </trkpt>
      <trkpt lat="43.50154" lon="3.45747">
        <ele>17</ele>
        <time>2018-09-25T22:05:24.819Z</time>
      </trkpt>
      <trkpt lat="43.50158" lon="3.45749">
        <ele>17.1</ele>
        <time>2018-09-25T22:05:25.819Z</time>
      </trkpt>
      <trkpt lat="43.50161" lon="3.45752">
        <ele>17.1</ele>
        <time>2018-09-25T22:05:26.819Z</time>
      </trkpt>
      <trkpt lat="43.50163" lon="3.45755">
        <ele>17.2</ele>
        <time>2018-09-25T22:05:27.819Z</time>
      </trkpt>
      <trkpt lat="43.50162" lon="3.45764">
        <ele>17.3</ele>
        <time>2018-09-25T22:05:29.819Z</time>
      </trkpt>
      <trkpt lat="43.50161" lon="3.45768">
        <ele>17.2</ele>
        <time>2018-09-25T22:05:30.819Z</time>
      </trkpt>
      <trkpt lat="43.50158" lon="3.45771">
        <ele>17.1</ele>
        <time>2018-09-25T22:05:31.819Z</time>
      </trkpt>
      <trkpt lat="43.50155" lon="3.45775">
        <ele>17.1</ele>
        <time>2018-09-25T22:05:32.819Z</time>
      </trkpt>
      <trkpt lat="43.50151" lon="3.45778">
        <ele>17</ele>
        <time>2018-09-25T22:05:33.819Z</time>
      </trkpt>
      <trkpt lat="43.50147" lon="3.45783">
        <ele>16.9</ele>
        <time>2018-09-25T22:05:34.819Z</time>
      </trkpt>
      <trkpt lat="43.50143" lon="3.45788">
        <ele>16.8</ele>
        <time>2018-09-25T22:05:35.819Z</time>
      </trkpt>
      <trkpt lat="43.50139" lon="3.45792">
        <ele>16.8</ele>
        <time>2018-09-25T22:05:36.819Z</time>
      </trkpt>
      <trkpt lat="43.50135" lon="3.45796">
        <ele>16.8</ele>
        <time>2018-09-25T22:05:37.819Z</time>
      </trkpt>
      <trkpt lat="43.50131" lon="3.45799">
        <ele>16.8</ele>
        <time>2018-09-25T22:05:38.819Z</time>
      </trkpt>
      <trkpt lat="43.50127" lon="3.45802">
        <ele>16.7</ele>
        <time>2018-09-25T22:05:39.819Z</time>
      </trkpt>
      <trkpt lat="43.50123" lon="3.45804">
        <ele>16.7</ele>
        <time>2018-09-25T22:05:40.819Z</time>
      </trkpt>
      <trkpt lat="43.5012" lon="3.45807">
        <ele>16.7</ele>
        <time>2018-09-25T22:05:41.819Z</time>
      </trkpt>
      <trkpt lat="43.50117" lon="3.45809">
        <ele>16.7</ele>
        <time>2018-09-25T22:05:42.819Z</time>
      </trkpt>
      <trkpt lat="43.50113" lon="3.45812">
        <ele>16.8</ele>
        <time>2018-09-25T22:05:43.819Z</time>
      </trkpt>
      <trkpt lat="43.5011" lon="3.45814">
        <ele>16.8</ele>
        <time>2018-09-25T22:05:44.819Z</time>
      </trkpt>
      <trkpt lat="43.50107" lon="3.45817">
        <ele>16.8</ele>
        <time>2018-09-25T22:05:45.819Z</time>
      </trkpt>
      <trkpt lat="43.50103" lon="3.45819">
        <ele>16.8</ele>
        <time>2018-09-25T22:05:46.819Z</time>
      </trkpt>
      <trkpt lat="43.501" lon="3.45821">
        <ele>16.9</ele>
        <time>2018-09-25T22:05:47.819Z</time>
      </trkpt>
      <trkpt lat="43.50096" lon="3.45823">
        <ele>16.9</ele>
        <time>2018-09-25T22:05:48.819Z</time>
      </trkpt>
      <trkpt lat="43.50092" lon="3.45825">
        <ele>17</ele>
        <time>2018-09-25T22:05:49.819Z</time>
      </trkpt>
      <trkpt lat="43.50088" lon="3.45828">
        <ele>17</ele>
        <time>2018-09-25T22:05:50.819Z</time>
      </trkpt>
      <trkpt lat="43.50085" lon="3.45831">
        <ele>17.1</ele>
        <time>2018-09-25T22:05:51.819Z</time>
      </trkpt>
      <trkpt lat="43.50081" lon="3.45832">
        <ele>17.1</ele>
        <time>2018-09-25T22:05:52.819Z</time>
      </trkpt>
      <trkpt lat="43.50077" lon="3.45835">
        <ele>17.3</ele>
        <time>2018-09-25T22:05:53.819Z</time>
      </trkpt>
      <trkpt lat="43.50073" lon="3.45839">
        <ele>17.4</ele>
        <time>2018-09-25T22:05:54.819Z</time>
      </trkpt>
      <trkpt lat="43.50069" lon="3.45842">
        <ele>17.5</ele>
        <time>2018-09-25T22:05:55.819Z</time>
      </trkpt>
      <trkpt lat="43.50065" lon="3.45844">
        <ele>17.5</ele>
        <time>2018-09-25T22:05:56.819Z</time>
      </trkpt>
      <trkpt lat="43.50061" lon="3.45847">
        <ele>17.6</ele>
        <time>2018-09-25T22:05:57.819Z</time>
      </trkpt>
      <trkpt lat="43.50057" lon="3.4585">
        <ele>17.6</ele>
        <time>2018-09-25T22:05:58.819Z</time>
      </trkpt>
      <trkpt lat="43.50053" lon="3.45852">
        <ele>17.7</ele>
        <time>2018-09-25T22:05:59.819Z</time>
      </trkpt>
      <trkpt lat="43.50048" lon="3.45856">
        <ele>17.8</ele>
        <time>2018-09-25T22:06:00.819Z</time>
      </trkpt>
      <trkpt lat="43.50044" lon="3.45859">
        <ele>17.8</ele>
        <time>2018-09-25T22:06:01.819Z</time>
      </trkpt>
      <trkpt lat="43.50039" lon="3.45862">
        <ele>17.9</ele>
        <time>2018-09-25T22:06:02.819Z</time>
      </trkpt>
      <trkpt lat="43.50035" lon="3.45865">
        <ele>18</ele>
        <time>2018-09-25T22:06:03.819Z</time>
      </trkpt>
      <trkpt lat="43.5003" lon="3.45868">
        <ele>18</ele>
        <time>2018-09-25T22:06:04.819Z</time>
      </trkpt>
      <trkpt lat="43.50026" lon="3.4587">
        <ele>18.1</ele>
        <time>2018-09-25T22:06:05.819Z</time>
      </trkpt>
      <trkpt lat="43.50022" lon="3.45873">
        <ele>18.3</ele>
        <time>2018-09-25T22:06:06.819Z</time>
      </trkpt>
      <trkpt lat="43.50018" lon="3.45876">
        <ele>18.3</ele>
        <time>2018-09-25T22:06:07.819Z</time>
      </trkpt>
      <trkpt lat="43.50014" lon="3.45879">
        <ele>18.4</ele>
        <time>2018-09-25T22:06:08.819Z</time>
      </trkpt>
      <trkpt lat="43.50012" lon="3.45881">
        <ele>18.6</ele>
        <time>2018-09-25T22:06:09.819Z</time>
      </trkpt>
      <trkpt lat="43.50007" lon="3.45885">
        <ele>18.6</ele>
        <time>2018-09-25T22:06:11.819Z</time>
      </trkpt>
      <trkpt lat="43.50003" lon="3.45887">
        <ele>18.8</ele>
        <time>2018-09-25T22:06:12.819Z</time>
      </trkpt>
      <trkpt lat="43.5" lon="3.45889">
        <ele>18.9</ele>
        <time>2018-09-25T22:06:13.819Z</time>
      </trkpt>
      <trkpt lat="43.49997" lon="3.45892">
        <ele>18.9</ele>
        <time>2018-09-25T22:06:14.819Z</time>
      </trkpt>
      <trkpt lat="43.49994" lon="3.45894">
        <ele>19.1</ele>
        <time>2018-09-25T22:06:15.819Z</time>
      </trkpt>
      <trkpt lat="43.4999" lon="3.45896">
        <ele>19.1</ele>
        <time>2018-09-25T22:06:16.819Z</time>
      </trkpt>
      <trkpt lat="43.49986" lon="3.45899">
        <ele>19.2</ele>
        <time>2018-09-25T22:06:17.819Z</time>
      </trkpt>
      <trkpt lat="43.49982" lon="3.45904">
        <ele>19.3</ele>
        <time>2018-09-25T22:06:18.819Z</time>
      </trkpt>
      <trkpt lat="43.49978" lon="3.45908">
        <ele>19.4</ele>
        <time>2018-09-25T22:06:19.819Z</time>
      </trkpt>
      <trkpt lat="43.49975" lon="3.45912">
        <ele>19.4</ele>
        <time>2018-09-25T22:06:20.819Z</time>
      </trkpt>
      <trkpt lat="43.49971" lon="3.45916">
        <ele>19.5</ele>
        <time>2018-09-25T22:06:21.819Z</time>
      </trkpt>
      <trkpt lat="43.49969" lon="3.45921">
        <ele>19.5</ele>
        <time>2018-09-25T22:06:22.819Z</time>
      </trkpt>
      <trkpt lat="43.49966" lon="3.45927">
        <ele>19.5</ele>
        <time>2018-09-25T22:06:23.819Z</time>
      </trkpt>
      <trkpt lat="43.49963" lon="3.45932">
        <ele>19.4</ele>
        <time>2018-09-25T22:06:24.819Z</time>
      </trkpt>
      <trkpt lat="43.49961" lon="3.45937">
        <ele>19.4</ele>
        <time>2018-09-25T22:06:25.819Z</time>
      </trkpt>
      <trkpt lat="43.49958" lon="3.45941">
        <ele>19.3</ele>
        <time>2018-09-25T22:06:26.819Z</time>
      </trkpt>
      <trkpt lat="43.49953" lon="3.45944">
        <ele>19.1</ele>
        <time>2018-09-25T22:06:27.819Z</time>
      </trkpt>
      <trkpt lat="43.4995" lon="3.45947">
        <ele>19</ele>
        <time>2018-09-25T22:06:28.819Z</time>
      </trkpt>
      <trkpt lat="43.49947" lon="3.4595">
        <ele>18.9</ele>
        <time>2018-09-25T22:06:29.819Z</time>
      </trkpt>
      <trkpt lat="43.49943" lon="3.45952">
        <ele>18.8</ele>
        <time>2018-09-25T22:06:30.819Z</time>
      </trkpt>
      <trkpt lat="43.4994" lon="3.45954">
        <ele>18.7</ele>
        <time>2018-09-25T22:06:31.819Z</time>
      </trkpt>
      <trkpt lat="43.49937" lon="3.45957">
        <ele>18.6</ele>
        <time>2018-09-25T22:06:32.819Z</time>
      </trkpt>
      <trkpt lat="43.49933" lon="3.45961">
        <ele>18.5</ele>
        <time>2018-09-25T22:06:33.819Z</time>
      </trkpt>
      <trkpt lat="43.4993" lon="3.45964">
        <ele>18.3</ele>
        <time>2018-09-25T22:06:34.819Z</time>
      </trkpt>
      <trkpt lat="43.49926" lon="3.45966">
        <ele>18.2</ele>
        <time>2018-09-25T22:06:35.819Z</time>
      </trkpt>
      <trkpt lat="43.49923" lon="3.45967">
        <ele>18.1</ele>
        <time>2018-09-25T22:06:36.819Z</time>
      </trkpt>
      <trkpt lat="43.49919" lon="3.45969">
        <ele>18</ele>
        <time>2018-09-25T22:06:37.819Z</time>
      </trkpt>
      <trkpt lat="43.49916" lon="3.45971">
        <ele>17.9</ele>
        <time>2018-09-25T22:06:38.819Z</time>
      </trkpt>
      <trkpt lat="43.49912" lon="3.45973">
        <ele>17.9</ele>
        <time>2018-09-25T22:06:39.819Z</time>
      </trkpt>
      <trkpt lat="43.49909" lon="3.45976">
        <ele>17.8</ele>
        <time>2018-09-25T22:06:40.819Z</time>
      </trkpt>
      <trkpt lat="43.49903" lon="3.4598">
        <ele>17.7</ele>
        <time>2018-09-25T22:06:41.819Z</time>
      </trkpt>
      <trkpt lat="43.49898" lon="3.45984">
        <ele>17.6</ele>
        <time>2018-09-25T22:06:42.819Z</time>
      </trkpt>
      <trkpt lat="43.49894" lon="3.45988">
        <ele>17.6</ele>
        <time>2018-09-25T22:06:43.819Z</time>
      </trkpt>
      <trkpt lat="43.4989" lon="3.45991">
        <ele>17.6</ele>
        <time>2018-09-25T22:06:44.819Z</time>
      </trkpt>
      <trkpt lat="43.49886" lon="3.45995">
        <ele>17.6</ele>
        <time>2018-09-25T22:06:45.819Z</time>
      </trkpt>
      <trkpt lat="43.49882" lon="3.45998">
        <ele>17.6</ele>
        <time>2018-09-25T22:06:46.819Z</time>
      </trkpt>
      <trkpt lat="43.49878" lon="3.46001">
        <ele>17.6</ele>
        <time>2018-09-25T22:06:47.819Z</time>
      </trkpt>
      <trkpt lat="43.49874" lon="3.46005">
        <ele>17.7</ele>
        <time>2018-09-25T22:06:48.819Z</time>
      </trkpt>
      <trkpt lat="43.49871" lon="3.46009">
        <ele>17.8</ele>
        <time>2018-09-25T22:06:49.819Z</time>
      </trkpt>
      <trkpt lat="43.49867" lon="3.46014">
        <ele>17.9</ele>
        <time>2018-09-25T22:06:50.819Z</time>
      </trkpt>
      <trkpt lat="43.49864" lon="3.46018">
        <ele>18</ele>
        <time>2018-09-25T22:06:51.819Z</time>
      </trkpt>
      <trkpt lat="43.4986" lon="3.46023">
        <ele>18.3</ele>
        <time>2018-09-25T22:06:52.819Z</time>
      </trkpt>
      <trkpt lat="43.49856" lon="3.46027">
        <ele>18.5</ele>
        <time>2018-09-25T22:06:53.819Z</time>
      </trkpt>
      <trkpt lat="43.49853" lon="3.46031">
        <ele>18.7</ele>
        <time>2018-09-25T22:06:54.819Z</time>
      </trkpt>
      <trkpt lat="43.49851" lon="3.46035">
        <ele>18.8</ele>
        <time>2018-09-25T22:06:55.819Z</time>
      </trkpt>
      <trkpt lat="43.49848" lon="3.46039">
        <ele>18.9</ele>
        <time>2018-09-25T22:06:56.819Z</time>
      </trkpt>
      <trkpt lat="43.49846" lon="3.46043">
        <ele>19.1</ele>
        <time>2018-09-25T22:06:57.819Z</time>
      </trkpt>
      <trkpt lat="43.49842" lon="3.46045">
        <ele>19.4</ele>
        <time>2018-09-25T22:06:58.819Z</time>
      </trkpt>
      <trkpt lat="43.49839" lon="3.46048">
        <ele>19.6</ele>
        <time>2018-09-25T22:06:59.819Z</time>
      </trkpt>
      <trkpt lat="43.49836" lon="3.46051">
        <ele>19.7</ele>
        <time>2018-09-25T22:07:00.819Z</time>
      </trkpt>
      <trkpt lat="43.49835" lon="3.46055">
        <ele>19.9</ele>
        <time>2018-09-25T22:07:01.819Z</time>
      </trkpt>
      <trkpt lat="43.49831" lon="3.46058">
        <ele>20.2</ele>
        <time>2018-09-25T22:07:03.819Z</time>
      </trkpt>
      <trkpt lat="43.49827" lon="3.4606">
        <ele>20.2</ele>
        <time>2018-09-25T22:07:04.819Z</time>
      </trkpt>
      <trkpt lat="43.49824" lon="3.46062">
        <ele>20.5</ele>
        <time>2018-09-25T22:07:05.819Z</time>
      </trkpt>
      <trkpt lat="43.49821" lon="3.46066">
        <ele>20.7</ele>
        <time>2018-09-25T22:07:06.819Z</time>
      </trkpt>
      <trkpt lat="43.49819" lon="3.4607">
        <ele>21</ele>
        <time>2018-09-25T22:07:07.819Z</time>
      </trkpt>
      <trkpt lat="43.49815" lon="3.46071">
        <ele>21.1</ele>
        <time>2018-09-25T22:07:08.819Z</time>
      </trkpt>
      <trkpt lat="43.49812" lon="3.46073">
        <ele>21.1</ele>
        <time>2018-09-25T22:07:09.819Z</time>
      </trkpt>
      <trkpt lat="43.49808" lon="3.46077">
        <ele>21.4</ele>
        <time>2018-09-25T22:07:10.819Z</time>
      </trkpt>
      <trkpt lat="43.49805" lon="3.46082">
        <ele>21.6</ele>
        <time>2018-09-25T22:07:11.819Z</time>
      </trkpt>
      <trkpt lat="43.49803" lon="3.46085">
        <ele>21.7</ele>
        <time>2018-09-25T22:07:12.819Z</time>
      </trkpt>
      <trkpt lat="43.498" lon="3.46087">
        <ele>21.9</ele>
        <time>2018-09-25T22:07:14.819Z</time>
      </trkpt>
      <trkpt lat="43.49802" lon="3.46091">
        <ele>21.8</ele>
        <time>2018-09-25T22:07:18.819Z</time>
      </trkpt>
      <trkpt lat="43.49807" lon="3.46093">
        <ele>21.6</ele>
        <time>2018-09-25T22:07:20.819Z</time>
      </trkpt>
      <trkpt lat="43.49811" lon="3.46092">
        <ele>21.5</ele>
        <time>2018-09-25T22:07:21.819Z</time>
      </trkpt>
      <trkpt lat="43.49816" lon="3.46092">
        <ele>21.3</ele>
        <time>2018-09-25T22:07:22.819Z</time>
      </trkpt>
      <trkpt lat="43.49819" lon="3.46091">
        <ele>21.2</ele>
        <time>2018-09-25T22:07:23.819Z</time>
      </trkpt>
      <trkpt lat="43.49822" lon="3.46088">
        <ele>21.1</ele>
        <time>2018-09-25T22:07:24.819Z</time>
      </trkpt>
      <trkpt lat="43.49825" lon="3.46086">
        <ele>21.1</ele>
        <time>2018-09-25T22:07:25.819Z</time>
      </trkpt>
      <trkpt lat="43.49829" lon="3.46084">
        <ele>21</ele>
        <time>2018-09-25T22:07:26.819Z</time>
      </trkpt>
      <trkpt lat="43.49835" lon="3.46081">
        <ele>20.8</ele>
        <time>2018-09-25T22:07:27.819Z</time>
      </trkpt>
      <trkpt lat="43.49839" lon="3.4608">
        <ele>20.7</ele>
        <time>2018-09-25T22:07:28.819Z</time>
      </trkpt>
      <trkpt lat="43.49842" lon="3.46081">
        <ele>20.6</ele>
        <time>2018-09-25T22:07:29.819Z</time>
      </trkpt>
      <trkpt lat="43.49846" lon="3.46081">
        <ele>20.5</ele>
        <time>2018-09-25T22:07:31.819Z</time>
      </trkpt>
      <trkpt lat="43.49853" lon="3.4608">
        <ele>20.2</ele>
        <time>2018-09-25T22:07:33.819Z</time>
      </trkpt>
      <trkpt lat="43.49858" lon="3.46079">
        <ele>20</ele>
        <time>2018-09-25T22:07:34.819Z</time>
      </trkpt>
      <trkpt lat="43.49862" lon="3.46077">
        <ele>19.7</ele>
        <time>2018-09-25T22:07:35.819Z</time>
      </trkpt>
      <trkpt lat="43.49867" lon="3.46074">
        <ele>19.4</ele>
        <time>2018-09-25T22:07:36.819Z</time>
      </trkpt>
      <trkpt lat="43.4987" lon="3.4607">
        <ele>19.2</ele>
        <time>2018-09-25T22:07:37.819Z</time>
      </trkpt>
      <trkpt lat="43.49873" lon="3.46068">
        <ele>19.1</ele>
        <time>2018-09-25T22:07:38.819Z</time>
      </trkpt>
      <trkpt lat="43.49876" lon="3.46067">
        <ele>18.9</ele>
        <time>2018-09-25T22:07:39.819Z</time>
      </trkpt>
      <trkpt lat="43.49882" lon="3.46064">
        <ele>18.4</ele>
        <time>2018-09-25T22:07:40.819Z</time>
      </trkpt>
      <trkpt lat="43.49887" lon="3.4606">
        <ele>18</ele>
        <time>2018-09-25T22:07:41.819Z</time>
      </trkpt>
      <trkpt lat="43.49892" lon="3.46056">
        <ele>17.6</ele>
        <time>2018-09-25T22:07:42.819Z</time>
      </trkpt>
      <trkpt lat="43.49896" lon="3.46054">
        <ele>17.3</ele>
        <time>2018-09-25T22:07:43.819Z</time>
      </trkpt>
      <trkpt lat="43.49898" lon="3.4605">
        <ele>17.1</ele>
        <time>2018-09-25T22:07:44.819Z</time>
      </trkpt>
      <trkpt lat="43.49901" lon="3.46046">
        <ele>16.8</ele>
        <time>2018-09-25T22:07:45.819Z</time>
      </trkpt>
      <trkpt lat="43.49905" lon="3.46045">
        <ele>16.6</ele>
        <time>2018-09-25T22:07:46.819Z</time>
      </trkpt>
      <trkpt lat="43.4991" lon="3.46045">
        <ele>16.5</ele>
        <time>2018-09-25T22:07:47.819Z</time>
      </trkpt>
      <trkpt lat="43.49914" lon="3.46043">
        <ele>16.3</ele>
        <time>2018-09-25T22:07:48.819Z</time>
      </trkpt>
      <trkpt lat="43.4992" lon="3.4604">
        <ele>16.1</ele>
        <time>2018-09-25T22:07:49.819Z</time>
      </trkpt>
      <trkpt lat="43.49925" lon="3.46036">
        <ele>16.1</ele>
        <time>2018-09-25T22:07:50.819Z</time>
      </trkpt>
      <trkpt lat="43.49929" lon="3.46034">
        <ele>16.1</ele>
        <time>2018-09-25T22:07:51.819Z</time>
      </trkpt>
      <trkpt lat="43.49934" lon="3.46032">
        <ele>16</ele>
        <time>2018-09-25T22:07:52.819Z</time>
      </trkpt>
      <trkpt lat="43.49938" lon="3.4603">
        <ele>16.1</ele>
        <time>2018-09-25T22:07:53.819Z</time>
      </trkpt>
      <trkpt lat="43.49942" lon="3.46027">
        <ele>16.1</ele>
        <time>2018-09-25T22:07:54.819Z</time>
      </trkpt>
      <trkpt lat="43.49946" lon="3.46025">
        <ele>16.2</ele>
        <time>2018-09-25T22:07:55.819Z</time>
      </trkpt>
      <trkpt lat="43.4995" lon="3.46023">
        <ele>16.2</ele>
        <time>2018-09-25T22:07:56.819Z</time>
      </trkpt>
      <trkpt lat="43.49954" lon="3.4602">
        <ele>16.3</ele>
        <time>2018-09-25T22:07:57.819Z</time>
      </trkpt>
      <trkpt lat="43.4996" lon="3.46016">
        <ele>16.4</ele>
        <time>2018-09-25T22:07:58.819Z</time>
      </trkpt>
      <trkpt lat="43.49964" lon="3.46013">
        <ele>16.5</ele>
        <time>2018-09-25T22:07:59.819Z</time>
      </trkpt>
      <trkpt lat="43.49969" lon="3.46009">
        <ele>16.6</ele>
        <time>2018-09-25T22:08:00.819Z</time>
      </trkpt>
      <trkpt lat="43.49974" lon="3.46006">
        <ele>16.6</ele>
        <time>2018-09-25T22:08:01.819Z</time>
      </trkpt>
      <trkpt lat="43.49978" lon="3.46004">
        <ele>16.6</ele>
        <time>2018-09-25T22:08:02.819Z</time>
      </trkpt>
      <trkpt lat="43.49981" lon="3.46002">
        <ele>16.7</ele>
        <time>2018-09-25T22:08:03.819Z</time>
      </trkpt>
      <trkpt lat="43.49985" lon="3.45999">
        <ele>16.8</ele>
        <time>2018-09-25T22:08:04.819Z</time>
      </trkpt>
      <trkpt lat="43.49989" lon="3.45997">
        <ele>16.9</ele>
        <time>2018-09-25T22:08:05.819Z</time>
      </trkpt>
      <trkpt lat="43.49992" lon="3.45994">
        <ele>16.9</ele>
        <time>2018-09-25T22:08:06.819Z</time>
      </trkpt>
      <trkpt lat="43.49996" lon="3.45992">
        <ele>16.9</ele>
        <time>2018-09-25T22:08:07.819Z</time>
      </trkpt>
      <trkpt lat="43.49999" lon="3.4599">
        <ele>17</ele>
        <time>2018-09-25T22:08:08.819Z</time>
      </trkpt>
      <trkpt lat="43.50002" lon="3.45988">
        <ele>17</ele>
        <time>2018-09-25T22:08:09.819Z</time>
      </trkpt>
      <trkpt lat="43.50006" lon="3.45984">
        <ele>17.1</ele>
        <time>2018-09-25T22:08:10.819Z</time>
      </trkpt>
      <trkpt lat="43.50011" lon="3.45981">
        <ele>17.2</ele>
        <time>2018-09-25T22:08:11.819Z</time>
      </trkpt>
      <trkpt lat="43.50016" lon="3.45979">
        <ele>17.2</ele>
        <time>2018-09-25T22:08:12.819Z</time>
      </trkpt>
      <trkpt lat="43.50021" lon="3.45978">
        <ele>17.2</ele>
        <time>2018-09-25T22:08:13.819Z</time>
      </trkpt>
      <trkpt lat="43.50024" lon="3.45977">
        <ele>17.2</ele>
        <time>2018-09-25T22:08:14.819Z</time>
      </trkpt>
      <trkpt lat="43.50027" lon="3.45975">
        <ele>17.2</ele>
        <time>2018-09-25T22:08:15.819Z</time>
      </trkpt>
      <trkpt lat="43.5003" lon="3.45973">
        <ele>17.2</ele>
        <time>2018-09-25T22:08:16.819Z</time>
      </trkpt>
      <trkpt lat="43.50033" lon="3.4597">
        <ele>17.1</ele>
        <time>2018-09-25T22:08:17.819Z</time>
      </trkpt>
      <trkpt lat="43.50038" lon="3.45967">
        <ele>17.1</ele>
        <time>2018-09-25T22:08:18.819Z</time>
      </trkpt>
      <trkpt lat="43.50042" lon="3.45965">
        <ele>17.1</ele>
        <time>2018-09-25T22:08:19.819Z</time>
      </trkpt>
      <trkpt lat="43.50047" lon="3.45961">
        <ele>17.1</ele>
        <time>2018-09-25T22:08:20.819Z</time>
      </trkpt>
      <trkpt lat="43.50051" lon="3.45959">
        <ele>17</ele>
        <time>2018-09-25T22:08:21.819Z</time>
      </trkpt>
      <trkpt lat="43.50055" lon="3.45957">
        <ele>17</ele>
        <time>2018-09-25T22:08:22.819Z</time>
      </trkpt>
      <trkpt lat="43.50059" lon="3.45957">
        <ele>17</ele>
        <time>2018-09-25T22:08:23.819Z</time>
      </trkpt>
      <trkpt lat="43.50062" lon="3.45957">
        <ele>17</ele>
        <time>2018-09-25T22:08:24.819Z</time>
      </trkpt>
      <trkpt lat="43.50066" lon="3.45955">
        <ele>16.9</ele>
        <time>2018-09-25T22:08:25.819Z</time>
      </trkpt>
      <trkpt lat="43.50069" lon="3.45953">
        <ele>16.9</ele>
        <time>2018-09-25T22:08:26.819Z</time>
      </trkpt>
      <trkpt lat="43.50074" lon="3.4595">
        <ele>17</ele>
        <time>2018-09-25T22:08:27.819Z</time>
      </trkpt>
      <trkpt lat="43.50078" lon="3.45947">
        <ele>17</ele>
        <time>2018-09-25T22:08:28.819Z</time>
      </trkpt>
      <trkpt lat="43.5008" lon="3.45944">
        <ele>16.9</ele>
        <time>2018-09-25T22:08:29.819Z</time>
      </trkpt>
      <trkpt lat="43.50083" lon="3.45941">
        <ele>16.9</ele>
        <time>2018-09-25T22:08:30.819Z</time>
      </trkpt>
      <trkpt lat="43.50087" lon="3.45939">
        <ele>17</ele>
        <time>2018-09-25T22:08:31.819Z</time>
      </trkpt>
      <trkpt lat="43.50091" lon="3.45936">
        <ele>17</ele>
        <time>2018-09-25T22:08:32.819Z</time>
      </trkpt>
      <trkpt lat="43.50096" lon="3.45931">
        <ele>17</ele>
        <time>2018-09-25T22:08:33.819Z</time>
      </trkpt>
      <trkpt lat="43.501" lon="3.45928">
        <ele>17</ele>
        <time>2018-09-25T22:08:34.819Z</time>
      </trkpt>
      <trkpt lat="43.50105" lon="3.45923">
        <ele>16.9</ele>
        <time>2018-09-25T22:08:35.819Z</time>
      </trkpt>
      <trkpt lat="43.50108" lon="3.4592">
        <ele>16.9</ele>
        <time>2018-09-25T22:08:36.819Z</time>
      </trkpt>
      <trkpt lat="43.50112" lon="3.45917">
        <ele>16.9</ele>
        <time>2018-09-25T22:08:37.819Z</time>
      </trkpt>
      <trkpt lat="43.50115" lon="3.45914">
        <ele>16.8</ele>
        <time>2018-09-25T22:08:38.819Z</time>
      </trkpt>
      <trkpt lat="43.50119" lon="3.45911">
        <ele>16.8</ele>
        <time>2018-09-25T22:08:39.819Z</time>
      </trkpt>
      <trkpt lat="43.50122" lon="3.45908">
        <ele>16.8</ele>
        <time>2018-09-25T22:08:40.819Z</time>
      </trkpt>
      <trkpt lat="43.50126" lon="3.45905">
        <ele>16.7</ele>
        <time>2018-09-25T22:08:41.819Z</time>
      </trkpt>
      <trkpt lat="43.50131" lon="3.45902">
        <ele>16.6</ele>
        <time>2018-09-25T22:08:42.819Z</time>
      </trkpt>
      <trkpt lat="43.50136" lon="3.459">
        <ele>16.5</ele>
        <time>2018-09-25T22:08:43.819Z</time>
      </trkpt>
      <trkpt lat="43.5014" lon="3.45896">
        <ele>16.4</ele>
        <time>2018-09-25T22:08:44.819Z</time>
      </trkpt>
      <trkpt lat="43.50144" lon="3.45894">
        <ele>16.3</ele>
        <time>2018-09-25T22:08:45.819Z</time>
      </trkpt>
      <trkpt lat="43.50147" lon="3.45891">
        <ele>16.2</ele>
        <time>2018-09-25T22:08:46.819Z</time>
      </trkpt>
      <trkpt lat="43.50153" lon="3.4589">
        <ele>16.1</ele>
        <time>2018-09-25T22:08:47.819Z</time>
      </trkpt>
      <trkpt lat="43.50159" lon="3.45888">
        <ele>16</ele>
        <time>2018-09-25T22:08:48.819Z</time>
      </trkpt>
      <trkpt lat="43.50163" lon="3.45887">
        <ele>15.9</ele>
        <time>2018-09-25T22:08:49.819Z</time>
      </trkpt>
      <trkpt lat="43.50166" lon="3.45884">
        <ele>15.9</ele>
        <time>2018-09-25T22:08:50.819Z</time>
      </trkpt>
      <trkpt lat="43.50169" lon="3.45882">
        <ele>15.8</ele>
        <time>2018-09-25T22:08:51.819Z</time>
      </trkpt>
      <trkpt lat="43.50172" lon="3.45882">
        <ele>15.7</ele>
        <time>2018-09-25T22:08:52.819Z</time>
      </trkpt>
      <trkpt lat="43.50176" lon="3.45881">
        <ele>15.7</ele>
        <time>2018-09-25T22:08:53.819Z</time>
      </trkpt>
      <trkpt lat="43.5018" lon="3.45879">
        <ele>15.5</ele>
        <time>2018-09-25T22:08:54.819Z</time>
      </trkpt>
      <trkpt lat="43.50185" lon="3.45876">
        <ele>15.4</ele>
        <time>2018-09-25T22:08:55.819Z</time>
      </trkpt>
      <trkpt lat="43.50189" lon="3.45875">
        <ele>15.3</ele>
        <time>2018-09-25T22:08:56.819Z</time>
      </trkpt>
      <trkpt lat="43.50192" lon="3.45873">
        <ele>15.3</ele>
        <time>2018-09-25T22:08:57.819Z</time>
      </trkpt>
      <trkpt lat="43.50197" lon="3.45872">
        <ele>15.2</ele>
        <time>2018-09-25T22:08:58.819Z</time>
      </trkpt>
      <trkpt lat="43.502" lon="3.45871">
        <ele>15.1</ele>
        <time>2018-09-25T22:08:59.819Z</time>
      </trkpt>
      <trkpt lat="43.50205" lon="3.4587">
        <ele>15</ele>
        <time>2018-09-25T22:09:00.819Z</time>
      </trkpt>
      <trkpt lat="43.50209" lon="3.45869">
        <ele>15</ele>
        <time>2018-09-25T22:09:01.819Z</time>
      </trkpt>
      <trkpt lat="43.50213" lon="3.45868">
        <ele>14.9</ele>
        <time>2018-09-25T22:09:02.819Z</time>
      </trkpt>
      <trkpt lat="43.50217" lon="3.45867">
        <ele>14.8</ele>
        <time>2018-09-25T22:09:03.819Z</time>
      </trkpt>
      <trkpt lat="43.50221" lon="3.45865">
        <ele>14.8</ele>
        <time>2018-09-25T22:09:04.819Z</time>
      </trkpt>
      <trkpt lat="43.50225" lon="3.45864">
        <ele>14.7</ele>
        <time>2018-09-25T22:09:05.819Z</time>
      </trkpt>
      <trkpt lat="43.50228" lon="3.45863">
        <ele>14.7</ele>
        <time>2018-09-25T22:09:06.819Z</time>
      </trkpt>
      <trkpt lat="43.50231" lon="3.45863">
        <ele>14.6</ele>
        <time>2018-09-25T22:09:07.819Z</time>
      </trkpt>
      <trkpt lat="43.50235" lon="3.45861">
        <ele>14.5</ele>
        <time>2018-09-25T22:09:08.819Z</time>
      </trkpt>
      <trkpt lat="43.50238" lon="3.45859">
        <ele>14.5</ele>
        <time>2018-09-25T22:09:09.819Z</time>
      </trkpt>
      <trkpt lat="43.50242" lon="3.45857">
        <ele>14.4</ele>
        <time>2018-09-25T22:09:10.819Z</time>
      </trkpt>
      <trkpt lat="43.50246" lon="3.45856">
        <ele>14.4</ele>
        <time>2018-09-25T22:09:11.819Z</time>
      </trkpt>
      <trkpt lat="43.5025" lon="3.45853">
        <ele>14.3</ele>
        <time>2018-09-25T22:09:12.819Z</time>
      </trkpt>
      <trkpt lat="43.50253" lon="3.45852">
        <ele>14.2</ele>
        <time>2018-09-25T22:09:13.819Z</time>
      </trkpt>
      <trkpt lat="43.50257" lon="3.4585">
        <ele>14.2</ele>
        <time>2018-09-25T22:09:14.819Z</time>
      </trkpt>
      <trkpt lat="43.50261" lon="3.45849">
        <ele>14.1</ele>
        <time>2018-09-25T22:09:15.819Z</time>
      </trkpt>
      <trkpt lat="43.50263" lon="3.45848">
        <ele>14.1</ele>
        <time>2018-09-25T22:09:16.819Z</time>
      </trkpt>
      <trkpt lat="43.50267" lon="3.45848">
        <ele>14</ele>
        <time>2018-09-25T22:09:17.819Z</time>
      </trkpt>
      <trkpt lat="43.50272" lon="3.45847">
        <ele>13.9</ele>
        <time>2018-09-25T22:09:18.819Z</time>
      </trkpt>
      <trkpt lat="43.50277" lon="3.45845">
        <ele>13.9</ele>
        <time>2018-09-25T22:09:19.819Z</time>
      </trkpt>
      <trkpt lat="43.5028" lon="3.45845">
        <ele>13.8</ele>
        <time>2018-09-25T22:09:20.819Z</time>
      </trkpt>
      <trkpt lat="43.50283" lon="3.45844">
        <ele>13.8</ele>
        <time>2018-09-25T22:09:21.819Z</time>
      </trkpt>
      <trkpt lat="43.50287" lon="3.45843">
        <ele>13.7</ele>
        <time>2018-09-25T22:09:22.819Z</time>
      </trkpt>
      <trkpt lat="43.50292" lon="3.45842">
        <ele>13.6</ele>
        <time>2018-09-25T22:09:23.819Z</time>
      </trkpt>
      <trkpt lat="43.50296" lon="3.45842">
        <ele>13.6</ele>
        <time>2018-09-25T22:09:24.819Z</time>
      </trkpt>
      <trkpt lat="43.50301" lon="3.45841">
        <ele>13.5</ele>
        <time>2018-09-25T22:09:25.819Z</time>
      </trkpt>
      <trkpt lat="43.50306" lon="3.4584">
        <ele>13.5</ele>
        <time>2018-09-25T22:09:26.819Z</time>
      </trkpt>
      <trkpt lat="43.5031" lon="3.45839">
        <ele>13.5</ele>
        <time>2018-09-25T22:09:27.819Z</time>
      </trkpt>
      <trkpt lat="43.50314" lon="3.45838">
        <ele>13.5</ele>
        <time>2018-09-25T22:09:28.819Z</time>
      </trkpt>
      <trkpt lat="43.50318" lon="3.45838">
        <ele>13.6</ele>
        <time>2018-09-25T22:09:29.819Z</time>
      </trkpt>
      <trkpt lat="43.50322" lon="3.45837">
        <ele>13.8</ele>
        <time>2018-09-25T22:09:30.819Z</time>
      </trkpt>
      <trkpt lat="43.50327" lon="3.45836">
        <ele>14</ele>
        <time>2018-09-25T22:09:31.819Z</time>
      </trkpt>
      <trkpt lat="43.50332" lon="3.45835">
        <ele>14.2</ele>
        <time>2018-09-25T22:09:32.819Z</time>
      </trkpt>
      <trkpt lat="43.50335" lon="3.45833">
        <ele>14.4</ele>
        <time>2018-09-25T22:09:33.819Z</time>
      </trkpt>
      <trkpt lat="43.50339" lon="3.45832">
        <ele>14.7</ele>
        <time>2018-09-25T22:09:34.819Z</time>
      </trkpt>
      <trkpt lat="43.50343" lon="3.4583">
        <ele>15</ele>
        <time>2018-09-25T22:09:35.819Z</time>
      </trkpt>
      <trkpt lat="43.50346" lon="3.45828">
        <ele>15.2</ele>
        <time>2018-09-25T22:09:36.819Z</time>
      </trkpt>
      <trkpt lat="43.50349" lon="3.45827">
        <ele>15.3</ele>
        <time>2018-09-25T22:09:37.819Z</time>
      </trkpt>
      <trkpt lat="43.50352" lon="3.45826">
        <ele>15.5</ele>
        <time>2018-09-25T22:09:38.819Z</time>
      </trkpt>
      <trkpt lat="43.50356" lon="3.45824">
        <ele>15.7</ele>
        <time>2018-09-25T22:09:39.819Z</time>
      </trkpt>
      <trkpt lat="43.5036" lon="3.45823">
        <ele>15.9</ele>
        <time>2018-09-25T22:09:40.819Z</time>
      </trkpt>
      <trkpt lat="43.50365" lon="3.45822">
        <ele>16.1</ele>
        <time>2018-09-25T22:09:41.819Z</time>
      </trkpt>
      <trkpt lat="43.5037" lon="3.45821">
        <ele>16.3</ele>
        <time>2018-09-25T22:09:42.819Z</time>
      </trkpt>
      <trkpt lat="43.50374" lon="3.45819">
        <ele>16.4</ele>
        <time>2018-09-25T22:09:43.819Z</time>
      </trkpt>
      <trkpt lat="43.50379" lon="3.45816">
        <ele>16.6</ele>
        <time>2018-09-25T22:09:44.819Z</time>
      </trkpt>
      <trkpt lat="43.50383" lon="3.45814">
        <ele>16.8</ele>
        <time>2018-09-25T22:09:45.819Z</time>
      </trkpt>
      <trkpt lat="43.50388" lon="3.45812">
        <ele>17</ele>
        <time>2018-09-25T22:09:46.819Z</time>
      </trkpt>
      <trkpt lat="43.50392" lon="3.45811">
        <ele>17.7</ele>
        <time>2018-09-25T22:09:47.819Z</time>
      </trkpt>
      <trkpt lat="43.50397" lon="3.45808">
        <ele>18.3</ele>
        <time>2018-09-25T22:09:48.819Z</time>
      </trkpt>
      <trkpt lat="43.504" lon="3.45806">
        <ele>18.8</ele>
        <time>2018-09-25T22:09:49.819Z</time>
      </trkpt>
      <trkpt lat="43.50403" lon="3.45804">
        <ele>19.3</ele>
        <time>2018-09-25T22:09:50.819Z</time>
      </trkpt>
      <trkpt lat="43.50407" lon="3.45801">
        <ele>19.6</ele>
        <time>2018-09-25T22:09:51.819Z</time>
      </trkpt>
      <trkpt lat="43.50411" lon="3.45799">
        <ele>19.8</ele>
        <time>2018-09-25T22:09:52.819Z</time>
      </trkpt>
      <trkpt lat="43.50416" lon="3.45796">
        <ele>20</ele>
        <time>2018-09-25T22:09:53.819Z</time>
      </trkpt>
      <trkpt lat="43.5042" lon="3.45794">
        <ele>20.3</ele>
        <time>2018-09-25T22:09:54.819Z</time>
      </trkpt>
      <trkpt lat="43.50424" lon="3.4579">
        <ele>20.5</ele>
        <time>2018-09-25T22:09:55.819Z</time>
      </trkpt>
      <trkpt lat="43.50428" lon="3.45787">
        <ele>20.8</ele>
        <time>2018-09-25T22:09:56.819Z</time>
      </trkpt>
      <trkpt lat="43.50432" lon="3.45784">
        <ele>21</ele>
        <time>2018-09-25T22:09:57.819Z</time>
      </trkpt>
      <trkpt lat="43.50437" lon="3.45781">
        <ele>21.3</ele>
        <time>2018-09-25T22:09:58.819Z</time>
      </trkpt>
      <trkpt lat="43.50441" lon="3.45778">
        <ele>21.7</ele>
        <time>2018-09-25T22:09:59.819Z</time>
      </trkpt>
      <trkpt lat="43.50444" lon="3.45775">
        <ele>22</ele>
        <time>2018-09-25T22:10:00.819Z</time>
      </trkpt>
      <trkpt lat="43.50447" lon="3.45773">
        <ele>22</ele>
        <time>2018-09-25T22:10:01.819Z</time>
      </trkpt>
      <trkpt lat="43.5045" lon="3.45771">
        <ele>22</ele>
        <time>2018-09-25T22:10:02.819Z</time>
      </trkpt>
      <trkpt lat="43.50454" lon="3.45768">
        <ele>22</ele>
        <time>2018-09-25T22:10:03.819Z</time>
      </trkpt>
      <trkpt lat="43.50457" lon="3.45766">
        <ele>21.9</ele>
        <time>2018-09-25T22:10:04.819Z</time>
      </trkpt>
      <trkpt lat="43.50461" lon="3.45762">
        <ele>21.9</ele>
        <time>2018-09-25T22:10:05.819Z</time>
      </trkpt>
      <trkpt lat="43.50464" lon="3.4576">
        <ele>21.8</ele>
        <time>2018-09-25T22:10:06.819Z</time>
      </trkpt>
      <trkpt lat="43.50468" lon="3.45758">
        <ele>21.8</ele>
        <time>2018-09-25T22:10:07.819Z</time>
      </trkpt>
      <trkpt lat="43.50472" lon="3.45755">
        <ele>21.7</ele>
        <time>2018-09-25T22:10:08.819Z</time>
      </trkpt>
      <trkpt lat="43.50476" lon="3.4575">
        <ele>21.7</ele>
        <time>2018-09-25T22:10:09.819Z</time>
      </trkpt>
      <trkpt lat="43.50481" lon="3.45746">
        <ele>21.7</ele>
        <time>2018-09-25T22:10:10.819Z</time>
      </trkpt>
      <trkpt lat="43.50487" lon="3.4574">
        <ele>21.7</ele>
        <time>2018-09-25T22:10:11.819Z</time>
      </trkpt>
      <trkpt lat="43.50492" lon="3.45737">
        <ele>21.7</ele>
        <time>2018-09-25T22:10:12.819Z</time>
      </trkpt>
      <trkpt lat="43.50496" lon="3.45734">
        <ele>21.7</ele>
        <time>2018-09-25T22:10:13.819Z</time>
      </trkpt>
      <trkpt lat="43.50499" lon="3.45732">
        <ele>21.7</ele>
        <time>2018-09-25T22:10:14.819Z</time>
      </trkpt>
      <trkpt lat="43.50502" lon="3.45731">
        <ele>21.8</ele>
        <time>2018-09-25T22:10:15.819Z</time>
      </trkpt>
      <trkpt lat="43.50504" lon="3.45729">
        <ele>21.8</ele>
        <time>2018-09-25T22:10:16.819Z</time>
      </trkpt>
      <trkpt lat="43.50507" lon="3.45725">
        <ele>21.8</ele>
        <time>2018-09-25T22:10:17.819Z</time>
      </trkpt>
      <trkpt lat="43.5051" lon="3.45722">
        <ele>21.8</ele>
        <time>2018-09-25T22:10:18.819Z</time>
      </trkpt>
      <trkpt lat="43.50512" lon="3.45719">
        <ele>21.9</ele>
        <time>2018-09-25T22:10:19.819Z</time>
      </trkpt>
      <trkpt lat="43.50517" lon="3.45715">
        <ele>21.9</ele>
        <time>2018-09-25T22:10:21.819Z</time>
      </trkpt>
      <trkpt lat="43.5052" lon="3.45712">
        <ele>21.9</ele>
        <time>2018-09-25T22:10:22.819Z</time>
      </trkpt>
      <trkpt lat="43.50523" lon="3.45709">
        <ele>22</ele>
        <time>2018-09-25T22:10:23.819Z</time>
      </trkpt>
      <trkpt lat="43.50528" lon="3.45706">
        <ele>22</ele>
        <time>2018-09-25T22:10:25.819Z</time>
      </trkpt>
      <trkpt lat="43.50532" lon="3.45701">
        <ele>22</ele>
        <time>2018-09-25T22:10:27.819Z</time>
      </trkpt>
      <trkpt lat="43.50535" lon="3.45698">
        <ele>22</ele>
        <time>2018-09-25T22:10:28.819Z</time>
      </trkpt>
      <trkpt lat="43.50539" lon="3.45695">
        <ele>22</ele>
        <time>2018-09-25T22:10:29.819Z</time>
      </trkpt>
      <trkpt lat="43.50542" lon="3.45694">
        <ele>22</ele>
        <time>2018-09-25T22:10:30.819Z</time>
      </trkpt>
      <trkpt lat="43.50545" lon="3.45693">
        <ele>22</ele>
        <time>2018-09-25T22:10:31.819Z</time>
      </trkpt>
      <trkpt lat="43.50548" lon="3.45694">
        <ele>22</ele>
        <time>2018-09-25T22:10:32.819Z</time>
      </trkpt>
      <trkpt lat="43.50552" lon="3.45696">
        <ele>22</ele>
        <time>2018-09-25T22:10:33.819Z</time>
      </trkpt>
      <trkpt lat="43.50555" lon="3.45699">
        <ele>22</ele>
        <time>2018-09-25T22:10:34.819Z</time>
      </trkpt>
      <trkpt lat="43.50559" lon="3.45701">
        <ele>22</ele>
        <time>2018-09-25T22:10:35.819Z</time>
      </trkpt>
      <trkpt lat="43.50565" lon="3.45702">
        <ele>22</ele>
        <time>2018-09-25T22:10:36.819Z</time>
      </trkpt>
      <trkpt lat="43.50568" lon="3.45702">
        <ele>22</ele>
        <time>2018-09-25T22:10:37.819Z</time>
      </trkpt>
      <trkpt lat="43.50572" lon="3.45703">
        <ele>22</ele>
        <time>2018-09-25T22:10:38.819Z</time>
      </trkpt>
      <trkpt lat="43.50576" lon="3.45703">
        <ele>22.1</ele>
        <time>2018-09-25T22:10:39.819Z</time>
      </trkpt>
      <trkpt lat="43.5058" lon="3.45703">
        <ele>22.2</ele>
        <time>2018-09-25T22:10:41.819Z</time>
      </trkpt>
      <trkpt lat="43.50583" lon="3.45706">
        <ele>22.3</ele>
        <time>2018-09-25T22:10:42.819Z</time>
      </trkpt>
      <trkpt lat="43.50587" lon="3.45708">
        <ele>22.4</ele>
        <time>2018-09-25T22:10:44.819Z</time>
      </trkpt>
      <trkpt lat="43.50592" lon="3.45711">
        <ele>22.5</ele>
        <time>2018-09-25T22:10:46.819Z</time>
      </trkpt>
      <trkpt lat="43.50597" lon="3.45712">
        <ele>22.6</ele>
        <time>2018-09-25T22:10:47.819Z</time>
      </trkpt>
      <trkpt lat="43.50602" lon="3.45711">
        <ele>22.7</ele>
        <time>2018-09-25T22:10:48.819Z</time>
      </trkpt>
      <trkpt lat="43.50605" lon="3.4571">
        <ele>22.8</ele>
        <time>2018-09-25T22:10:49.819Z</time>
      </trkpt>
      <trkpt lat="43.50609" lon="3.45709">
        <ele>22.9</ele>
        <time>2018-09-25T22:10:50.819Z</time>
      </trkpt>
      <trkpt lat="43.50612" lon="3.45709">
        <ele>23</ele>
        <time>2018-09-25T22:10:51.819Z</time>
      </trkpt>
      <trkpt lat="43.50615" lon="3.45709">
        <ele>23</ele>
        <time>2018-09-25T22:10:52.819Z</time>
      </trkpt>
      <trkpt lat="43.5062" lon="3.45708">
        <ele>23</ele>
        <time>2018-09-25T22:10:53.819Z</time>
      </trkpt>
      <trkpt lat="43.50624" lon="3.45709">
        <ele>23</ele>
        <time>2018-09-25T22:10:54.819Z</time>
      </trkpt>
      <trkpt lat="43.50627" lon="3.4571">
        <ele>23</ele>
        <time>2018-09-25T22:10:55.819Z</time>
      </trkpt>
      <trkpt lat="43.5063" lon="3.4571">
        <ele>23</ele>
        <time>2018-09-25T22:10:56.819Z</time>
      </trkpt>
      <trkpt lat="43.50634" lon="3.45709">
        <ele>23</ele>
        <time>2018-09-25T22:10:57.819Z</time>
      </trkpt>
      <trkpt lat="43.50639" lon="3.4571">
        <ele>23</ele>
        <time>2018-09-25T22:10:58.819Z</time>
      </trkpt>
      <trkpt lat="43.50642" lon="3.45713">
        <ele>23</ele>
        <time>2018-09-25T22:10:59.819Z</time>
      </trkpt>
      <trkpt lat="43.50644" lon="3.45718">
        <ele>23</ele>
        <time>2018-09-25T22:11:00.819Z</time>
      </trkpt>
      <trkpt lat="43.50647" lon="3.45725">
        <ele>23</ele>
        <time>2018-09-25T22:11:01.819Z</time>
      </trkpt>
      <trkpt lat="43.5065" lon="3.45728">
        <ele>23</ele>
        <time>2018-09-25T22:11:02.819Z</time>
      </trkpt>
      <trkpt lat="43.50655" lon="3.4573">
        <ele>23</ele>
        <time>2018-09-25T22:11:03.819Z</time>
      </trkpt>
      <trkpt lat="43.50658" lon="3.45734">
        <ele>23</ele>
        <time>2018-09-25T22:11:04.819Z</time>
      </trkpt>
      <trkpt lat="43.50662" lon="3.45739">
        <ele>23</ele>
        <time>2018-09-25T22:11:05.819Z</time>
      </trkpt>
      <trkpt lat="43.50664" lon="3.45746">
        <ele>23</ele>
        <time>2018-09-25T22:11:06.819Z</time>
      </trkpt>
      <trkpt lat="43.50666" lon="3.45751">
        <ele>23</ele>
        <time>2018-09-25T22:11:07.819Z</time>
      </trkpt>
      <trkpt lat="43.50669" lon="3.45756">
        <ele>23</ele>
        <time>2018-09-25T22:11:08.819Z</time>
      </trkpt>
      <trkpt lat="43.50673" lon="3.45761">
        <ele>23</ele>
        <time>2018-09-25T22:11:09.819Z</time>
      </trkpt>
      <trkpt lat="43.50676" lon="3.45765">
        <ele>23</ele>
        <time>2018-09-25T22:11:10.819Z</time>
      </trkpt>
      <trkpt lat="43.50679" lon="3.45768">
        <ele>23</ele>
        <time>2018-09-25T22:11:11.819Z</time>
      </trkpt>
      <trkpt lat="43.50682" lon="3.45772">
        <ele>23</ele>
        <time>2018-09-25T22:11:13.819Z</time>
      </trkpt>
      <trkpt lat="43.50685" lon="3.45775">
        <ele>23</ele>
        <time>2018-09-25T22:11:16.819Z</time>
      </trkpt>
      <trkpt lat="43.50688" lon="3.45772">
        <ele>23</ele>
        <time>2018-09-25T22:11:18.819Z</time>
      </trkpt>
      <trkpt lat="43.50691" lon="3.45769">
        <ele>23</ele>
        <time>2018-09-25T22:11:19.819Z</time>
      </trkpt>
      <trkpt lat="43.50691" lon="3.45763">
        <ele>23</ele>
        <time>2018-09-25T22:11:20.819Z</time>
      </trkpt>
      <trkpt lat="43.50688" lon="3.45757">
        <ele>23.4</ele>
        <time>2018-09-25T22:11:21.819Z</time>
      </trkpt>
      <trkpt lat="43.50689" lon="3.4575">
        <ele>23.5</ele>
        <time>2018-09-25T22:11:23.819Z</time>
      </trkpt>
      <trkpt lat="43.50695" lon="3.45747">
        <ele>23.7</ele>
        <time>2018-09-25T22:11:25.819Z</time>
      </trkpt>
      <trkpt lat="43.50699" lon="3.4574">
        <ele>23.9</ele>
        <time>2018-09-25T22:11:26.819Z</time>
      </trkpt>
      <trkpt lat="43.50701" lon="3.45737">
        <ele>23.9</ele>
        <time>2018-09-25T22:11:27.819Z</time>
      </trkpt>
      <trkpt lat="43.50706" lon="3.45733">
        <ele>24.1</ele>
        <time>2018-09-25T22:11:29.819Z</time>
      </trkpt>
      <trkpt lat="43.50709" lon="3.45728">
        <ele>24.1</ele>
        <time>2018-09-25T22:11:30.819Z</time>
      </trkpt>
      <trkpt lat="43.50712" lon="3.45725">
        <ele>24.2</ele>
        <time>2018-09-25T22:11:31.819Z</time>
      </trkpt>
      <trkpt lat="43.50716" lon="3.45723">
        <ele>24.2</ele>
        <time>2018-09-25T22:11:32.819Z</time>
      </trkpt>
      <trkpt lat="43.50719" lon="3.4572">
        <ele>24.3</ele>
        <time>2018-09-25T22:11:33.819Z</time>
      </trkpt>
      <trkpt lat="43.50721" lon="3.45717">
        <ele>24.3</ele>
        <time>2018-09-25T22:11:34.819Z</time>
      </trkpt>
      <trkpt lat="43.50723" lon="3.45713">
        <ele>24.3</ele>
        <time>2018-09-25T22:11:35.819Z</time>
      </trkpt>
      <trkpt lat="43.50725" lon="3.4571">
        <ele>24.4</ele>
        <time>2018-09-25T22:11:36.819Z</time>
      </trkpt>
      <trkpt lat="43.50726" lon="3.45705">
        <ele>24.4</ele>
        <time>2018-09-25T22:11:37.819Z</time>
      </trkpt>
      <trkpt lat="43.50727" lon="3.45701">
        <ele>24.5</ele>
        <time>2018-09-25T22:11:38.819Z</time>
      </trkpt>
      <trkpt lat="43.5073" lon="3.45697">
        <ele>24.5</ele>
        <time>2018-09-25T22:11:39.819Z</time>
      </trkpt>
      <trkpt lat="43.50733" lon="3.45692">
        <ele>24.6</ele>
        <time>2018-09-25T22:11:40.819Z</time>
      </trkpt>
      <trkpt lat="43.50734" lon="3.45688">
        <ele>24.6</ele>
        <time>2018-09-25T22:11:41.819Z</time>
      </trkpt>
      <trkpt lat="43.50736" lon="3.45684">
        <ele>24.6</ele>
        <time>2018-09-25T22:11:42.819Z</time>
      </trkpt>
      <trkpt lat="43.50739" lon="3.4568">
        <ele>24.7</ele>
        <time>2018-09-25T22:11:43.819Z</time>
      </trkpt>
      <trkpt lat="43.50743" lon="3.45677">
        <ele>24.7</ele>
        <time>2018-09-25T22:11:45.819Z</time>
      </trkpt>
      <trkpt lat="43.50748" lon="3.45678">
        <ele>24.8</ele>
        <time>2018-09-25T22:11:47.819Z</time>
      </trkpt>
      <trkpt lat="43.50751" lon="3.45679">
        <ele>24.9</ele>
        <time>2018-09-25T22:11:48.819Z</time>
      </trkpt>
      <trkpt lat="43.50754" lon="3.4568">
        <ele>24.8</ele>
        <time>2018-09-25T22:11:49.819Z</time>
      </trkpt>
      <trkpt lat="43.50757" lon="3.45681">
        <ele>24.8</ele>
        <time>2018-09-25T22:11:50.819Z</time>
      </trkpt>
      <trkpt lat="43.50761" lon="3.45681">
        <ele>24.7</ele>
        <time>2018-09-25T22:11:51.819Z</time>
      </trkpt>
      <trkpt lat="43.50765" lon="3.45682">
        <ele>24.6</ele>
        <time>2018-09-25T22:11:52.819Z</time>
      </trkpt>
      <trkpt lat="43.50769" lon="3.45686">
        <ele>24.5</ele>
        <time>2018-09-25T22:11:53.819Z</time>
      </trkpt>
      <trkpt lat="43.50775" lon="3.4569">
        <ele>24.4</ele>
        <time>2018-09-25T22:11:54.819Z</time>
      </trkpt>
      <trkpt lat="43.50779" lon="3.45694">
        <ele>24.2</ele>
        <time>2018-09-25T22:11:55.819Z</time>
      </trkpt>
      <trkpt lat="43.50784" lon="3.45698">
        <ele>24.1</ele>
        <time>2018-09-25T22:11:56.819Z</time>
      </trkpt>
      <trkpt lat="43.50789" lon="3.45702">
        <ele>24</ele>
        <time>2018-09-25T22:11:57.819Z</time>
      </trkpt>
      <trkpt lat="43.50794" lon="3.45704">
        <ele>23.9</ele>
        <time>2018-09-25T22:11:58.819Z</time>
      </trkpt>
      <trkpt lat="43.50798" lon="3.45706">
        <ele>23.8</ele>
        <time>2018-09-25T22:11:59.819Z</time>
      </trkpt>
      <trkpt lat="43.50802" lon="3.4571">
        <ele>23.6</ele>
        <time>2018-09-25T22:12:00.819Z</time>
      </trkpt>
      <trkpt lat="43.50806" lon="3.45713">
        <ele>23.5</ele>
        <time>2018-09-25T22:12:01.819Z</time>
      </trkpt>
      <trkpt lat="43.50808" lon="3.45716">
        <ele>23.4</ele>
        <time>2018-09-25T22:12:02.819Z</time>
      </trkpt>
      <trkpt lat="43.50811" lon="3.45718">
        <ele>23.3</ele>
        <time>2018-09-25T22:12:03.819Z</time>
      </trkpt>
      <trkpt lat="43.50816" lon="3.45721">
        <ele>23.2</ele>
        <time>2018-09-25T22:12:04.819Z</time>
      </trkpt>
      <trkpt lat="43.5082" lon="3.45724">
        <ele>23.1</ele>
        <time>2018-09-25T22:12:05.819Z</time>
      </trkpt>
      <trkpt lat="43.50824" lon="3.45728">
        <ele>23</ele>
        <time>2018-09-25T22:12:07.819Z</time>
      </trkpt>
      <trkpt lat="43.50827" lon="3.45731">
        <ele>22.9</ele>
        <time>2018-09-25T22:12:08.819Z</time>
      </trkpt>
      <trkpt lat="43.5083" lon="3.45733">
        <ele>22.8</ele>
        <time>2018-09-25T22:12:09.819Z</time>
      </trkpt>
      <trkpt lat="43.50833" lon="3.45737">
        <ele>22.7</ele>
        <time>2018-09-25T22:12:10.819Z</time>
      </trkpt>
      <trkpt lat="43.50837" lon="3.45742">
        <ele>22.2</ele>
        <time>2018-09-25T22:12:12.819Z</time>
      </trkpt>
      <trkpt lat="43.5084" lon="3.45746">
        <ele>21.7</ele>
        <time>2018-09-25T22:12:13.819Z</time>
      </trkpt>
      <trkpt lat="43.50842" lon="3.45751">
        <ele>21.3</ele>
        <time>2018-09-25T22:12:14.819Z</time>
      </trkpt>
      <trkpt lat="43.50845" lon="3.45757">
        <ele>21.2</ele>
        <time>2018-09-25T22:12:15.819Z</time>
      </trkpt>
      <trkpt lat="43.50848" lon="3.45763">
        <ele>21.7</ele>
        <time>2018-09-25T22:12:16.819Z</time>
      </trkpt>
      <trkpt lat="43.50851" lon="3.45769">
        <ele>22.1</ele>
        <time>2018-09-25T22:12:17.819Z</time>
      </trkpt>
      <trkpt lat="43.50855" lon="3.45775">
        <ele>22.5</ele>
        <time>2018-09-25T22:12:18.819Z</time>
      </trkpt>
      <trkpt lat="43.50858" lon="3.45782">
        <ele>23</ele>
        <time>2018-09-25T22:12:19.819Z</time>
      </trkpt>
      <trkpt lat="43.50861" lon="3.45787">
        <ele>23</ele>
        <time>2018-09-25T22:12:20.819Z</time>
      </trkpt>
      <trkpt lat="43.50864" lon="3.45793">
        <ele>23</ele>
        <time>2018-09-25T22:12:21.819Z</time>
      </trkpt>
      <trkpt lat="43.50868" lon="3.45798">
        <ele>23</ele>
        <time>2018-09-25T22:12:22.819Z</time>
      </trkpt>
      <trkpt lat="43.50871" lon="3.45803">
        <ele>23</ele>
        <time>2018-09-25T22:12:23.819Z</time>
      </trkpt>
      <trkpt lat="43.50875" lon="3.45807">
        <ele>23</ele>
        <time>2018-09-25T22:12:24.819Z</time>
      </trkpt>
      <trkpt lat="43.50879" lon="3.45812">
        <ele>23</ele>
        <time>2018-09-25T22:12:25.819Z</time>
      </trkpt>
      <trkpt lat="43.50883" lon="3.45816">
        <ele>23</ele>
        <time>2018-09-25T22:12:26.819Z</time>
      </trkpt>
      <trkpt lat="43.50887" lon="3.45818">
        <ele>23</ele>
        <time>2018-09-25T22:12:27.819Z</time>
      </trkpt>
      <trkpt lat="43.50892" lon="3.45821">
        <ele>22.9</ele>
        <time>2018-09-25T22:12:28.819Z</time>
      </trkpt>
      <trkpt lat="43.50898" lon="3.45823">
        <ele>22.5</ele>
        <time>2018-09-25T22:12:29.819Z</time>
      </trkpt>
      <trkpt lat="43.50905" lon="3.45825">
        <ele>22</ele>
        <time>2018-09-25T22:12:30.819Z</time>
      </trkpt>
      <trkpt lat="43.5091" lon="3.45828">
        <ele>21.7</ele>
        <time>2018-09-25T22:12:31.819Z</time>
      </trkpt>
      <trkpt lat="43.50916" lon="3.45832">
        <ele>21.2</ele>
        <time>2018-09-25T22:12:32.819Z</time>
      </trkpt>
      <trkpt lat="43.50923" lon="3.45835">
        <ele>20.7</ele>
        <time>2018-09-25T22:12:33.819Z</time>
      </trkpt>
      <trkpt lat="43.50929" lon="3.45839">
        <ele>20</ele>
        <time>2018-09-25T22:12:34.819Z</time>
      </trkpt>
      <trkpt lat="43.50935" lon="3.45842">
        <ele>19.4</ele>
        <time>2018-09-25T22:12:35.819Z</time>
      </trkpt>
      <trkpt lat="43.50943" lon="3.45845">
        <ele>19</ele>
        <time>2018-09-25T22:12:36.819Z</time>
      </trkpt>
      <trkpt lat="43.5095" lon="3.45848">
        <ele>19</ele>
        <time>2018-09-25T22:12:37.819Z</time>
      </trkpt>
      <trkpt lat="43.50955" lon="3.45851">
        <ele>19</ele>
        <time>2018-09-25T22:12:38.819Z</time>
      </trkpt>
      <trkpt lat="43.50961" lon="3.45853">
        <ele>19</ele>
        <time>2018-09-25T22:12:39.819Z</time>
      </trkpt>
      <trkpt lat="43.50966" lon="3.45856">
        <ele>19.1</ele>
        <time>2018-09-25T22:12:40.819Z</time>
      </trkpt>
      <trkpt lat="43.50972" lon="3.45859">
        <ele>19.1</ele>
        <time>2018-09-25T22:12:41.819Z</time>
      </trkpt>
      <trkpt lat="43.50976" lon="3.45861">
        <ele>19.1</ele>
        <time>2018-09-25T22:12:42.819Z</time>
      </trkpt>
      <trkpt lat="43.5098" lon="3.45864">
        <ele>19.1</ele>
        <time>2018-09-25T22:12:43.819Z</time>
      </trkpt>
      <trkpt lat="43.50985" lon="3.45867">
        <ele>19.1</ele>
        <time>2018-09-25T22:12:44.819Z</time>
      </trkpt>
      <trkpt lat="43.5099" lon="3.4587">
        <ele>19.1</ele>
        <time>2018-09-25T22:12:45.819Z</time>
      </trkpt>
      <trkpt lat="43.50995" lon="3.45874">
        <ele>19.1</ele>
        <time>2018-09-25T22:12:46.819Z</time>
      </trkpt>
      <trkpt lat="43.50999" lon="3.45879">
        <ele>19.2</ele>
        <time>2018-09-25T22:12:47.819Z</time>
      </trkpt>
      <trkpt lat="43.51003" lon="3.45883">
        <ele>19.2</ele>
        <time>2018-09-25T22:12:48.819Z</time>
      </trkpt>
      <trkpt lat="43.51007" lon="3.45888">
        <ele>19.2</ele>
        <time>2018-09-25T22:12:49.819Z</time>
      </trkpt>
      <trkpt lat="43.51012" lon="3.45892">
        <ele>19.2</ele>
        <time>2018-09-25T22:12:50.819Z</time>
      </trkpt>
      <trkpt lat="43.51017" lon="3.45898">
        <ele>19.2</ele>
        <time>2018-09-25T22:12:51.819Z</time>
      </trkpt>
      <trkpt lat="43.51021" lon="3.45904">
        <ele>19.2</ele>
        <time>2018-09-25T22:12:52.819Z</time>
      </trkpt>
      <trkpt lat="43.51026" lon="3.4591">
        <ele>19.2</ele>
        <time>2018-09-25T22:12:53.819Z</time>
      </trkpt>
      <trkpt lat="43.5103" lon="3.45916">
        <ele>19.3</ele>
        <time>2018-09-25T22:12:54.819Z</time>
      </trkpt>
      <trkpt lat="43.51035" lon="3.45921">
        <ele>19.3</ele>
        <time>2018-09-25T22:12:55.819Z</time>
      </trkpt>
      <trkpt lat="43.51039" lon="3.45927">
        <ele>19.3</ele>
        <time>2018-09-25T22:12:56.819Z</time>
      </trkpt>
      <trkpt lat="43.51044" lon="3.45933">
        <ele>19.3</ele>
        <time>2018-09-25T22:12:57.819Z</time>
      </trkpt>
      <trkpt lat="43.51049" lon="3.45939">
        <ele>19.3</ele>
        <time>2018-09-25T22:12:58.819Z</time>
      </trkpt>
      <trkpt lat="43.51053" lon="3.45945">
        <ele>19.3</ele>
        <time>2018-09-25T22:12:59.819Z</time>
      </trkpt>
      <trkpt lat="43.51058" lon="3.45951">
        <ele>19.3</ele>
        <time>2018-09-25T22:13:00.819Z</time>
      </trkpt>
      <trkpt lat="43.51062" lon="3.45957">
        <ele>19.3</ele>
        <time>2018-09-25T22:13:01.819Z</time>
      </trkpt>
      <trkpt lat="43.51067" lon="3.45962">
        <ele>19.4</ele>
        <time>2018-09-25T22:13:02.819Z</time>
      </trkpt>
      <trkpt lat="43.51071" lon="3.45967">
        <ele>19.4</ele>
        <time>2018-09-25T22:13:03.819Z</time>
      </trkpt>
      <trkpt lat="43.51076" lon="3.45973">
        <ele>19.4</ele>
        <time>2018-09-25T22:13:04.819Z</time>
      </trkpt>
      <trkpt lat="43.5108" lon="3.4598">
        <ele>19.4</ele>
        <time>2018-09-25T22:13:05.819Z</time>
      </trkpt>
      <trkpt lat="43.51085" lon="3.45986">
        <ele>19.4</ele>
        <time>2018-09-25T22:13:06.819Z</time>
      </trkpt>
      <trkpt lat="43.51089" lon="3.45992">
        <ele>19.4</ele>
        <time>2018-09-25T22:13:07.819Z</time>
      </trkpt>
      <trkpt lat="43.51094" lon="3.45998">
        <ele>19.4</ele>
        <time>2018-09-25T22:13:08.819Z</time>
      </trkpt>
      <trkpt lat="43.51098" lon="3.46004">
        <ele>19.4</ele>
        <time>2018-09-25T22:13:09.819Z</time>
      </trkpt>
      <trkpt lat="43.51102" lon="3.4601">
        <ele>19.5</ele>
        <time>2018-09-25T22:13:10.819Z</time>
      </trkpt>
      <trkpt lat="43.51107" lon="3.46016">
        <ele>19.5</ele>
        <time>2018-09-25T22:13:11.819Z</time>
      </trkpt>
      <trkpt lat="43.51111" lon="3.46022">
        <ele>19.5</ele>
        <time>2018-09-25T22:13:12.819Z</time>
      </trkpt>
      <trkpt lat="43.51116" lon="3.46029">
        <ele>19.5</ele>
        <time>2018-09-25T22:13:13.819Z</time>
      </trkpt>
      <trkpt lat="43.51121" lon="3.46035">
        <ele>19.5</ele>
        <time>2018-09-25T22:13:14.819Z</time>
      </trkpt>
      <trkpt lat="43.51125" lon="3.4604">
        <ele>19.5</ele>
        <time>2018-09-25T22:13:15.819Z</time>
      </trkpt>
      <trkpt lat="43.5113" lon="3.46045">
        <ele>19.5</ele>
        <time>2018-09-25T22:13:16.819Z</time>
      </trkpt>
      <trkpt lat="43.51135" lon="3.4605">
        <ele>19.5</ele>
        <time>2018-09-25T22:13:17.819Z</time>
      </trkpt>
      <trkpt lat="43.51141" lon="3.46055">
        <ele>19.6</ele>
        <time>2018-09-25T22:13:18.819Z</time>
      </trkpt>
      <trkpt lat="43.51146" lon="3.4606">
        <ele>19.6</ele>
        <time>2018-09-25T22:13:19.819Z</time>
      </trkpt>
      <trkpt lat="43.51151" lon="3.46064">
        <ele>19.6</ele>
        <time>2018-09-25T22:13:20.819Z</time>
      </trkpt>
      <trkpt lat="43.51156" lon="3.46069">
        <ele>19.6</ele>
        <time>2018-09-25T22:13:21.819Z</time>
      </trkpt>
      <trkpt lat="43.51161" lon="3.46073">
        <ele>19.6</ele>
        <time>2018-09-25T22:13:22.819Z</time>
      </trkpt>
      <trkpt lat="43.51166" lon="3.46077">
        <ele>19.6</ele>
        <time>2018-09-25T22:13:23.819Z</time>
      </trkpt>
      <trkpt lat="43.5117" lon="3.46081">
        <ele>19.6</ele>
        <time>2018-09-25T22:13:24.819Z</time>
      </trkpt>
      <trkpt lat="43.51175" lon="3.46085">
        <ele>19.7</ele>
        <time>2018-09-25T22:13:25.819Z</time>
      </trkpt>
      <trkpt lat="43.5118" lon="3.46089">
        <ele>19.7</ele>
        <time>2018-09-25T22:13:26.819Z</time>
      </trkpt>
      <trkpt lat="43.51185" lon="3.46093">
        <ele>19.7</ele>
        <time>2018-09-25T22:13:27.819Z</time>
      </trkpt>
      <trkpt lat="43.51191" lon="3.46098">
        <ele>19.7</ele>
        <time>2018-09-25T22:13:28.819Z</time>
      </trkpt>
      <trkpt lat="43.51195" lon="3.46102">
        <ele>19.7</ele>
        <time>2018-09-25T22:13:29.819Z</time>
      </trkpt>
      <trkpt lat="43.512" lon="3.46107">
        <ele>19.8</ele>
        <time>2018-09-25T22:13:30.819Z</time>
      </trkpt>
      <trkpt lat="43.51205" lon="3.46111">
        <ele>19.8</ele>
        <time>2018-09-25T22:13:31.819Z</time>
      </trkpt>
      <trkpt lat="43.5121" lon="3.46114">
        <ele>19.8</ele>
        <time>2018-09-25T22:13:32.819Z</time>
      </trkpt>
      <trkpt lat="43.51215" lon="3.46119">
        <ele>19.8</ele>
        <time>2018-09-25T22:13:33.819Z</time>
      </trkpt>
      <trkpt lat="43.5122" lon="3.46123">
        <ele>19.8</ele>
        <time>2018-09-25T22:13:34.819Z</time>
      </trkpt>
      <trkpt lat="43.51225" lon="3.46127">
        <ele>19.8</ele>
        <time>2018-09-25T22:13:35.819Z</time>
      </trkpt>
      <trkpt lat="43.5123" lon="3.46132">
        <ele>19.9</ele>
        <time>2018-09-25T22:13:36.819Z</time>
      </trkpt>
      <trkpt lat="43.51236" lon="3.46136">
        <ele>19.9</ele>
        <time>2018-09-25T22:13:37.819Z</time>
      </trkpt>
      <trkpt lat="43.51241" lon="3.4614">
        <ele>19.9</ele>
        <time>2018-09-25T22:13:38.819Z</time>
      </trkpt>
      <trkpt lat="43.51246" lon="3.46144">
        <ele>19.9</ele>
        <time>2018-09-25T22:13:39.819Z</time>
      </trkpt>
      <trkpt lat="43.51251" lon="3.46148">
        <ele>19.9</ele>
        <time>2018-09-25T22:13:40.819Z</time>
      </trkpt>
      <trkpt lat="43.51256" lon="3.46152">
        <ele>19.9</ele>
        <time>2018-09-25T22:13:41.819Z</time>
      </trkpt>
      <trkpt lat="43.51261" lon="3.46156">
        <ele>20</ele>
        <time>2018-09-25T22:13:42.819Z</time>
      </trkpt>
      <trkpt lat="43.51266" lon="3.4616">
        <ele>20</ele>
        <time>2018-09-25T22:13:43.819Z</time>
      </trkpt>
      <trkpt lat="43.51272" lon="3.46164">
        <ele>20</ele>
        <time>2018-09-25T22:13:44.819Z</time>
      </trkpt>
      <trkpt lat="43.51277" lon="3.46168">
        <ele>20</ele>
        <time>2018-09-25T22:13:45.819Z</time>
      </trkpt>
      <trkpt lat="43.51282" lon="3.46173">
        <ele>20</ele>
        <time>2018-09-25T22:13:46.819Z</time>
      </trkpt>
      <trkpt lat="43.51287" lon="3.46177">
        <ele>20.1</ele>
        <time>2018-09-25T22:13:47.819Z</time>
      </trkpt>
      <trkpt lat="43.51293" lon="3.46182">
        <ele>20.1</ele>
        <time>2018-09-25T22:13:48.819Z</time>
      </trkpt>
      <trkpt lat="43.51299" lon="3.46186">
        <ele>20.2</ele>
        <time>2018-09-25T22:13:49.819Z</time>
      </trkpt>
      <trkpt lat="43.51305" lon="3.4619">
        <ele>20.2</ele>
        <time>2018-09-25T22:13:50.819Z</time>
      </trkpt>
      <trkpt lat="43.5131" lon="3.46194">
        <ele>20.3</ele>
        <time>2018-09-25T22:13:51.819Z</time>
      </trkpt>
      <trkpt lat="43.51316" lon="3.46198">
        <ele>20.3</ele>
        <time>2018-09-25T22:13:52.819Z</time>
      </trkpt>
      <trkpt lat="43.51321" lon="3.46202">
        <ele>20.4</ele>
        <time>2018-09-25T22:13:53.819Z</time>
      </trkpt>
      <trkpt lat="43.51326" lon="3.46206">
        <ele>20.4</ele>
        <time>2018-09-25T22:13:54.819Z</time>
      </trkpt>
      <trkpt lat="43.51332" lon="3.46211">
        <ele>20.5</ele>
        <time>2018-09-25T22:13:55.819Z</time>
      </trkpt>
      <trkpt lat="43.51337" lon="3.46215">
        <ele>20.6</ele>
        <time>2018-09-25T22:13:56.819Z</time>
      </trkpt>
      <trkpt lat="43.51342" lon="3.46221">
        <ele>20.6</ele>
        <time>2018-09-25T22:13:57.819Z</time>
      </trkpt>
      <trkpt lat="43.51347" lon="3.46227">
        <ele>20.7</ele>
        <time>2018-09-25T22:13:58.819Z</time>
      </trkpt>
      <trkpt lat="43.51351" lon="3.46232">
        <ele>20.8</ele>
        <time>2018-09-25T22:13:59.819Z</time>
      </trkpt>
      <trkpt lat="43.51354" lon="3.46239">
        <ele>20.8</ele>
        <time>2018-09-25T22:14:00.819Z</time>
      </trkpt>
      <trkpt lat="43.51358" lon="3.46245">
        <ele>20.9</ele>
        <time>2018-09-25T22:14:01.819Z</time>
      </trkpt>
      <trkpt lat="43.51361" lon="3.46251">
        <ele>21</ele>
        <time>2018-09-25T22:14:02.819Z</time>
      </trkpt>
      <trkpt lat="43.51364" lon="3.46257">
        <ele>21</ele>
        <time>2018-09-25T22:14:03.819Z</time>
      </trkpt>
      <trkpt lat="43.51368" lon="3.46263">
        <ele>21</ele>
        <time>2018-09-25T22:14:04.819Z</time>
      </trkpt>
      <trkpt lat="43.51371" lon="3.46269">
        <ele>21.1</ele>
        <time>2018-09-25T22:14:05.819Z</time>
      </trkpt>
      <trkpt lat="43.51375" lon="3.46275">
        <ele>21.1</ele>
        <time>2018-09-25T22:14:06.819Z</time>
      </trkpt>
      <trkpt lat="43.51378" lon="3.46281">
        <ele>21.2</ele>
        <time>2018-09-25T22:14:07.819Z</time>
      </trkpt>
      <trkpt lat="43.51382" lon="3.46286">
        <ele>21.4</ele>
        <time>2018-09-25T22:14:08.819Z</time>
      </trkpt>
      <trkpt lat="43.51386" lon="3.4629">
        <ele>21.4</ele>
        <time>2018-09-25T22:14:09.819Z</time>
      </trkpt>
      <trkpt lat="43.5139" lon="3.46294">
        <ele>21.5</ele>
        <time>2018-09-25T22:14:10.819Z</time>
      </trkpt>
      <trkpt lat="43.51395" lon="3.46296">
        <ele>21.6</ele>
        <time>2018-09-25T22:14:11.819Z</time>
      </trkpt>
      <trkpt lat="43.514" lon="3.46298">
        <ele>21.6</ele>
        <time>2018-09-25T22:14:12.819Z</time>
      </trkpt>
      <trkpt lat="43.51405" lon="3.46299">
        <ele>21.7</ele>
        <time>2018-09-25T22:14:13.819Z</time>
      </trkpt>
      <trkpt lat="43.5141" lon="3.46301">
        <ele>21.7</ele>
        <time>2018-09-25T22:14:14.819Z</time>
      </trkpt>
      <trkpt lat="43.51414" lon="3.46302">
        <ele>21.7</ele>
        <time>2018-09-25T22:14:15.819Z</time>
      </trkpt>
      <trkpt lat="43.51418" lon="3.46304">
        <ele>21.7</ele>
        <time>2018-09-25T22:14:16.819Z</time>
      </trkpt>
      <trkpt lat="43.51423" lon="3.46306">
        <ele>21.6</ele>
        <time>2018-09-25T22:14:17.819Z</time>
      </trkpt>
      <trkpt lat="43.51428" lon="3.46308">
        <ele>21.5</ele>
        <time>2018-09-25T22:14:18.819Z</time>
      </trkpt>
      <trkpt lat="43.51432" lon="3.4631">
        <ele>21.5</ele>
        <time>2018-09-25T22:14:19.819Z</time>
      </trkpt>
      <trkpt lat="43.51436" lon="3.46312">
        <ele>21.5</ele>
        <time>2018-09-25T22:14:20.819Z</time>
      </trkpt>
      <trkpt lat="43.51441" lon="3.46314">
        <ele>21.4</ele>
        <time>2018-09-25T22:14:21.819Z</time>
      </trkpt>
      <trkpt lat="43.51447" lon="3.46317">
        <ele>21.3</ele>
        <time>2018-09-25T22:14:22.819Z</time>
      </trkpt>
      <trkpt lat="43.51452" lon="3.46321">
        <ele>21.2</ele>
        <time>2018-09-25T22:14:23.819Z</time>
      </trkpt>
      <trkpt lat="43.51456" lon="3.46323">
        <ele>21.2</ele>
        <time>2018-09-25T22:14:24.819Z</time>
      </trkpt>
      <trkpt lat="43.51461" lon="3.46326">
        <ele>21.1</ele>
        <time>2018-09-25T22:14:25.819Z</time>
      </trkpt>
      <trkpt lat="43.51467" lon="3.46329">
        <ele>21</ele>
        <time>2018-09-25T22:14:26.819Z</time>
      </trkpt>
      <trkpt lat="43.51472" lon="3.46333">
        <ele>20.9</ele>
        <time>2018-09-25T22:14:27.819Z</time>
      </trkpt>
      <trkpt lat="43.51478" lon="3.46337">
        <ele>20.8</ele>
        <time>2018-09-25T22:14:28.819Z</time>
      </trkpt>
      <trkpt lat="43.51483" lon="3.4634">
        <ele>20.7</ele>
        <time>2018-09-25T22:14:29.819Z</time>
      </trkpt>
      <trkpt lat="43.51488" lon="3.46343">
        <ele>20.7</ele>
        <time>2018-09-25T22:14:30.819Z</time>
      </trkpt>
      <trkpt lat="43.51493" lon="3.46346">
        <ele>20.6</ele>
        <time>2018-09-25T22:14:31.819Z</time>
      </trkpt>
      <trkpt lat="43.51499" lon="3.4635">
        <ele>20.6</ele>
        <time>2018-09-25T22:14:32.819Z</time>
      </trkpt>
      <trkpt lat="43.51505" lon="3.46354">
        <ele>20.5</ele>
        <time>2018-09-25T22:14:33.819Z</time>
      </trkpt>
      <trkpt lat="43.5151" lon="3.46357">
        <ele>20.5</ele>
        <time>2018-09-25T22:14:34.819Z</time>
      </trkpt>
      <trkpt lat="43.51516" lon="3.4636">
        <ele>20.4</ele>
        <time>2018-09-25T22:14:35.819Z</time>
      </trkpt>
      <trkpt lat="43.51521" lon="3.46363">
        <ele>20.4</ele>
        <time>2018-09-25T22:14:36.819Z</time>
      </trkpt>
      <trkpt lat="43.51526" lon="3.46366">
        <ele>20.4</ele>
        <time>2018-09-25T22:14:37.819Z</time>
      </trkpt>
      <trkpt lat="43.51531" lon="3.4637">
        <ele>20.5</ele>
        <time>2018-09-25T22:14:38.819Z</time>
      </trkpt>
      <trkpt lat="43.51535" lon="3.46373">
        <ele>20.5</ele>
        <time>2018-09-25T22:14:39.819Z</time>
      </trkpt>
      <trkpt lat="43.5154" lon="3.46376">
        <ele>20.6</ele>
        <time>2018-09-25T22:14:40.819Z</time>
      </trkpt>
      <trkpt lat="43.51545" lon="3.46378">
        <ele>20.6</ele>
        <time>2018-09-25T22:14:41.819Z</time>
      </trkpt>
      <trkpt lat="43.5155" lon="3.46381">
        <ele>20.7</ele>
        <time>2018-09-25T22:14:42.819Z</time>
      </trkpt>
      <trkpt lat="43.51556" lon="3.46385">
        <ele>20.8</ele>
        <time>2018-09-25T22:14:43.819Z</time>
      </trkpt>
      <trkpt lat="43.51561" lon="3.46387">
        <ele>20.8</ele>
        <time>2018-09-25T22:14:44.819Z</time>
      </trkpt>
      <trkpt lat="43.51566" lon="3.4639">
        <ele>20.9</ele>
        <time>2018-09-25T22:14:45.819Z</time>
      </trkpt>
      <trkpt lat="43.51571" lon="3.46395">
        <ele>21</ele>
        <time>2018-09-25T22:14:46.819Z</time>
      </trkpt>
      <trkpt lat="43.51575" lon="3.46397">
        <ele>21</ele>
        <time>2018-09-25T22:14:47.819Z</time>
      </trkpt>
      <trkpt lat="43.5158" lon="3.464">
        <ele>21.1</ele>
        <time>2018-09-25T22:14:48.819Z</time>
      </trkpt>
      <trkpt lat="43.51585" lon="3.46407">
        <ele>21.1</ele>
        <time>2018-09-25T22:14:49.819Z</time>
      </trkpt>
      <trkpt lat="43.5159" lon="3.46409">
        <ele>21.1</ele>
        <time>2018-09-25T22:14:50.819Z</time>
      </trkpt>
      <trkpt lat="43.51595" lon="3.46411">
        <ele>21.1</ele>
        <time>2018-09-25T22:14:51.819Z</time>
      </trkpt>
      <trkpt lat="43.51601" lon="3.46417">
        <ele>21</ele>
        <time>2018-09-25T22:14:52.819Z</time>
      </trkpt>
      <trkpt lat="43.51607" lon="3.4642">
        <ele>21</ele>
        <time>2018-09-25T22:14:53.819Z</time>
      </trkpt>
      <trkpt lat="43.51614" lon="3.46422">
        <ele>21</ele>
        <time>2018-09-25T22:14:54.819Z</time>
      </trkpt>
      <trkpt lat="43.5162" lon="3.46424">
        <ele>21</ele>
        <time>2018-09-25T22:14:55.819Z</time>
      </trkpt>
      <trkpt lat="43.51625" lon="3.46427">
        <ele>21</ele>
        <time>2018-09-25T22:14:56.819Z</time>
      </trkpt>
      <trkpt lat="43.51632" lon="3.46429">
        <ele>21</ele>
        <time>2018-09-25T22:14:57.819Z</time>
      </trkpt>
      <trkpt lat="43.51639" lon="3.46433">
        <ele>21</ele>
        <time>2018-09-25T22:14:58.819Z</time>
      </trkpt>
      <trkpt lat="43.51647" lon="3.46436">
        <ele>21</ele>
        <time>2018-09-25T22:14:59.819Z</time>
      </trkpt>
      <trkpt lat="43.51654" lon="3.46439">
        <ele>21</ele>
        <time>2018-09-25T22:15:00.819Z</time>
      </trkpt>
      <trkpt lat="43.5166" lon="3.46441">
        <ele>21.1</ele>
        <time>2018-09-25T22:15:01.819Z</time>
      </trkpt>
      <trkpt lat="43.51667" lon="3.46443">
        <ele>21.2</ele>
        <time>2018-09-25T22:15:02.819Z</time>
      </trkpt>
      <trkpt lat="43.51672" lon="3.46445">
        <ele>21.2</ele>
        <time>2018-09-25T22:15:03.819Z</time>
      </trkpt>
      <trkpt lat="43.51676" lon="3.46446">
        <ele>21.3</ele>
        <time>2018-09-25T22:15:04.819Z</time>
      </trkpt>
      <trkpt lat="43.5168" lon="3.46448">
        <ele>21.4</ele>
        <time>2018-09-25T22:15:05.819Z</time>
      </trkpt>
      <trkpt lat="43.51686" lon="3.46449">
        <ele>21.6</ele>
        <time>2018-09-25T22:15:06.819Z</time>
      </trkpt>
      <trkpt lat="43.51692" lon="3.46451">
        <ele>21.7</ele>
        <time>2018-09-25T22:15:07.819Z</time>
      </trkpt>
      <trkpt lat="43.51698" lon="3.46453">
        <ele>21.9</ele>
        <time>2018-09-25T22:15:08.819Z</time>
      </trkpt>
      <trkpt lat="43.51705" lon="3.46456">
        <ele>22</ele>
        <time>2018-09-25T22:15:09.819Z</time>
      </trkpt>
      <trkpt lat="43.51711" lon="3.46459">
        <ele>22.1</ele>
        <time>2018-09-25T22:15:10.819Z</time>
      </trkpt>
      <trkpt lat="43.51718" lon="3.46462">
        <ele>22.2</ele>
        <time>2018-09-25T22:15:11.819Z</time>
      </trkpt>
      <trkpt lat="43.51724" lon="3.46464">
        <ele>22.2</ele>
        <time>2018-09-25T22:15:12.819Z</time>
      </trkpt>
      <trkpt lat="43.51729" lon="3.46468">
        <ele>22.3</ele>
        <time>2018-09-25T22:15:13.819Z</time>
      </trkpt>
      <trkpt lat="43.51734" lon="3.46473">
        <ele>22.4</ele>
        <time>2018-09-25T22:15:14.819Z</time>
      </trkpt>
      <trkpt lat="43.51736" lon="3.4648">
        <ele>22.4</ele>
        <time>2018-09-25T22:15:15.819Z</time>
      </trkpt>
      <trkpt lat="43.51737" lon="3.46486">
        <ele>22.4</ele>
        <time>2018-09-25T22:15:16.819Z</time>
      </trkpt>
      <trkpt lat="43.51737" lon="3.46493">
        <ele>22.4</ele>
        <time>2018-09-25T22:15:17.819Z</time>
      </trkpt>
      <trkpt lat="43.51737" lon="3.46499">
        <ele>22.4</ele>
        <time>2018-09-25T22:15:18.819Z</time>
      </trkpt>
      <trkpt lat="43.51736" lon="3.46506">
        <ele>22.3</ele>
        <time>2018-09-25T22:15:19.819Z</time>
      </trkpt>
      <trkpt lat="43.51736" lon="3.46514">
        <ele>22.3</ele>
        <time>2018-09-25T22:15:20.819Z</time>
      </trkpt>
      <trkpt lat="43.51735" lon="3.46521">
        <ele>22.2</ele>
        <time>2018-09-25T22:15:21.819Z</time>
      </trkpt>
      <trkpt lat="43.51736" lon="3.4653">
        <ele>22.1</ele>
        <time>2018-09-25T22:15:22.819Z</time>
      </trkpt>
      <trkpt lat="43.51736" lon="3.46538">
        <ele>22</ele>
        <time>2018-09-25T22:15:23.819Z</time>
      </trkpt>
      <trkpt lat="43.51737" lon="3.46546">
        <ele>21.9</ele>
        <time>2018-09-25T22:15:24.819Z</time>
      </trkpt>
      <trkpt lat="43.51737" lon="3.46554">
        <ele>21.8</ele>
        <time>2018-09-25T22:15:25.819Z</time>
      </trkpt>
      <trkpt lat="43.51738" lon="3.46562">
        <ele>21.7</ele>
        <time>2018-09-25T22:15:26.819Z</time>
      </trkpt>
      <trkpt lat="43.51739" lon="3.4657">
        <ele>21.6</ele>
        <time>2018-09-25T22:15:27.819Z</time>
      </trkpt>
      <trkpt lat="43.51741" lon="3.46577">
        <ele>21.5</ele>
        <time>2018-09-25T22:15:28.819Z</time>
      </trkpt>
      <trkpt lat="43.51742" lon="3.46584">
        <ele>21.4</ele>
        <time>2018-09-25T22:15:29.819Z</time>
      </trkpt>
      <trkpt lat="43.51744" lon="3.46592">
        <ele>21.3</ele>
        <time>2018-09-25T22:15:30.819Z</time>
      </trkpt>
      <trkpt lat="43.51745" lon="3.466">
        <ele>21.3</ele>
        <time>2018-09-25T22:15:31.819Z</time>
      </trkpt>
      <trkpt lat="43.51747" lon="3.46608">
        <ele>21.4</ele>
        <time>2018-09-25T22:15:32.819Z</time>
      </trkpt>
      <trkpt lat="43.5175" lon="3.46616">
        <ele>21.4</ele>
        <time>2018-09-25T22:15:33.819Z</time>
      </trkpt>
      <trkpt lat="43.51754" lon="3.46623">
        <ele>21.5</ele>
        <time>2018-09-25T22:15:34.819Z</time>
      </trkpt>
      <trkpt lat="43.51757" lon="3.46631">
        <ele>21.6</ele>
        <time>2018-09-25T22:15:35.819Z</time>
      </trkpt>
      <trkpt lat="43.5176" lon="3.46637">
        <ele>21.6</ele>
        <time>2018-09-25T22:15:36.819Z</time>
      </trkpt>
      <trkpt lat="43.51764" lon="3.46643">
        <ele>21.7</ele>
        <time>2018-09-25T22:15:37.819Z</time>
      </trkpt>
      <trkpt lat="43.51767" lon="3.46649">
        <ele>21.8</ele>
        <time>2018-09-25T22:15:38.819Z</time>
      </trkpt>
      <trkpt lat="43.5177" lon="3.46654">
        <ele>21.9</ele>
        <time>2018-09-25T22:15:39.819Z</time>
      </trkpt>
      <trkpt lat="43.51774" lon="3.46659">
        <ele>21.9</ele>
        <time>2018-09-25T22:15:40.819Z</time>
      </trkpt>
      <trkpt lat="43.51777" lon="3.46664">
        <ele>21.9</ele>
        <time>2018-09-25T22:15:41.819Z</time>
      </trkpt>
      <trkpt lat="43.5178" lon="3.46669">
        <ele>21.9</ele>
        <time>2018-09-25T22:15:42.819Z</time>
      </trkpt>
      <trkpt lat="43.51783" lon="3.46673">
        <ele>21.9</ele>
        <time>2018-09-25T22:15:43.819Z</time>
      </trkpt>
      <trkpt lat="43.51787" lon="3.46677">
        <ele>22</ele>
        <time>2018-09-25T22:15:44.819Z</time>
      </trkpt>
      <trkpt lat="43.51789" lon="3.4668">
        <ele>22</ele>
        <time>2018-09-25T22:15:45.819Z</time>
      </trkpt>
      <trkpt lat="43.51791" lon="3.46683">
        <ele>22</ele>
        <time>2018-09-25T22:15:46.819Z</time>
      </trkpt>
      <trkpt lat="43.51794" lon="3.46689">
        <ele>22</ele>
        <time>2018-09-25T22:15:48.819Z</time>
      </trkpt>
      <trkpt lat="43.51794" lon="3.46692">
        <ele>22</ele>
        <time>2018-09-25T22:15:49.819Z</time>
      </trkpt>
      <trkpt lat="43.51793" lon="3.46697">
        <ele>22</ele>
        <time>2018-09-25T22:15:50.819Z</time>
      </trkpt>
      <trkpt lat="43.51792" lon="3.46702">
        <ele>22</ele>
        <time>2018-09-25T22:15:51.819Z</time>
      </trkpt>
      <trkpt lat="43.51792" lon="3.46707">
        <ele>22</ele>
        <time>2018-09-25T22:15:52.819Z</time>
      </trkpt>
      <trkpt lat="43.51791" lon="3.46712">
        <ele>21.9</ele>
        <time>2018-09-25T22:15:53.819Z</time>
      </trkpt>
      <trkpt lat="43.51789" lon="3.46717">
        <ele>21.8</ele>
        <time>2018-09-25T22:15:54.819Z</time>
      </trkpt>
      <trkpt lat="43.51787" lon="3.46722">
        <ele>21.7</ele>
        <time>2018-09-25T22:15:55.819Z</time>
      </trkpt>
      <trkpt lat="43.51785" lon="3.46728">
        <ele>21.7</ele>
        <time>2018-09-25T22:15:56.819Z</time>
      </trkpt>
      <trkpt lat="43.51784" lon="3.46734">
        <ele>21.6</ele>
        <time>2018-09-25T22:15:57.819Z</time>
      </trkpt>
      <trkpt lat="43.51783" lon="3.46741">
        <ele>21.5</ele>
        <time>2018-09-25T22:15:58.819Z</time>
      </trkpt>
      <trkpt lat="43.51782" lon="3.46748">
        <ele>21.4</ele>
        <time>2018-09-25T22:15:59.819Z</time>
      </trkpt>
      <trkpt lat="43.51782" lon="3.46756">
        <ele>21.4</ele>
        <time>2018-09-25T22:16:00.819Z</time>
      </trkpt>
      <trkpt lat="43.51783" lon="3.46764">
        <ele>21.3</ele>
        <time>2018-09-25T22:16:01.819Z</time>
      </trkpt>
      <trkpt lat="43.51785" lon="3.4677">
        <ele>21.2</ele>
        <time>2018-09-25T22:16:02.819Z</time>
      </trkpt>
      <trkpt lat="43.51787" lon="3.46777">
        <ele>21.1</ele>
        <time>2018-09-25T22:16:03.819Z</time>
      </trkpt>
      <trkpt lat="43.51789" lon="3.46783">
        <ele>21.1</ele>
        <time>2018-09-25T22:16:04.819Z</time>
      </trkpt>
      <trkpt lat="43.5179" lon="3.4679">
        <ele>21.1</ele>
        <time>2018-09-25T22:16:05.819Z</time>
      </trkpt>
      <trkpt lat="43.51792" lon="3.46795">
        <ele>21</ele>
        <time>2018-09-25T22:16:06.819Z</time>
      </trkpt>
      <trkpt lat="43.51795" lon="3.468">
        <ele>21</ele>
        <time>2018-09-25T22:16:07.819Z</time>
      </trkpt>
      <trkpt lat="43.51797" lon="3.46806">
        <ele>21</ele>
        <time>2018-09-25T22:16:08.819Z</time>
      </trkpt>
      <trkpt lat="43.51799" lon="3.46812">
        <ele>20.6</ele>
        <time>2018-09-25T22:16:09.819Z</time>
      </trkpt>
      <trkpt lat="43.51801" lon="3.46817">
        <ele>20.2</ele>
        <time>2018-09-25T22:16:10.819Z</time>
      </trkpt>
      <trkpt lat="43.51803" lon="3.46823">
        <ele>19.8</ele>
        <time>2018-09-25T22:16:11.819Z</time>
      </trkpt>
      <trkpt lat="43.51805" lon="3.46829">
        <ele>19.5</ele>
        <time>2018-09-25T22:16:12.819Z</time>
      </trkpt>
      <trkpt lat="43.51806" lon="3.46834">
        <ele>19.2</ele>
        <time>2018-09-25T22:16:13.819Z</time>
      </trkpt>
      <trkpt lat="43.51807" lon="3.4684">
        <ele>18.8</ele>
        <time>2018-09-25T22:16:14.819Z</time>
      </trkpt>
      <trkpt lat="43.51808" lon="3.46845">
        <ele>18.5</ele>
        <time>2018-09-25T22:16:15.819Z</time>
      </trkpt>
      <trkpt lat="43.5181" lon="3.46851">
        <ele>18.2</ele>
        <time>2018-09-25T22:16:16.819Z</time>
      </trkpt>
      <trkpt lat="43.51813" lon="3.46858">
        <ele>18</ele>
        <time>2018-09-25T22:16:17.819Z</time>
      </trkpt>
      <trkpt lat="43.51816" lon="3.46864">
        <ele>18</ele>
        <time>2018-09-25T22:16:18.819Z</time>
      </trkpt>
      <trkpt lat="43.51818" lon="3.46869">
        <ele>18</ele>
        <time>2018-09-25T22:16:19.819Z</time>
      </trkpt>
      <trkpt lat="43.51821" lon="3.46874">
        <ele>18</ele>
        <time>2018-09-25T22:16:20.819Z</time>
      </trkpt>
      <trkpt lat="43.51824" lon="3.46878">
        <ele>18</ele>
        <time>2018-09-25T22:16:21.819Z</time>
      </trkpt>
      <trkpt lat="43.51828" lon="3.46883">
        <ele>18.1</ele>
        <time>2018-09-25T22:16:22.819Z</time>
      </trkpt>
      <trkpt lat="43.51833" lon="3.46887">
        <ele>18.1</ele>
        <time>2018-09-25T22:16:23.819Z</time>
      </trkpt>
      <trkpt lat="43.51837" lon="3.46891">
        <ele>18.2</ele>
        <time>2018-09-25T22:16:24.819Z</time>
      </trkpt>
      <trkpt lat="43.51842" lon="3.46895">
        <ele>18.2</ele>
        <time>2018-09-25T22:16:25.819Z</time>
      </trkpt>
      <trkpt lat="43.51845" lon="3.46898">
        <ele>18.3</ele>
        <time>2018-09-25T22:16:26.819Z</time>
      </trkpt>
      <trkpt lat="43.5185" lon="3.46902">
        <ele>18.4</ele>
        <time>2018-09-25T22:16:27.819Z</time>
      </trkpt>
      <trkpt lat="43.51854" lon="3.46906">
        <ele>18.5</ele>
        <time>2018-09-25T22:16:28.819Z</time>
      </trkpt>
      <trkpt lat="43.51857" lon="3.46909">
        <ele>18.5</ele>
        <time>2018-09-25T22:16:29.819Z</time>
      </trkpt>
      <trkpt lat="43.51861" lon="3.46912">
        <ele>18.6</ele>
        <time>2018-09-25T22:16:30.819Z</time>
      </trkpt>
      <trkpt lat="43.51865" lon="3.46915">
        <ele>18.7</ele>
        <time>2018-09-25T22:16:31.819Z</time>
      </trkpt>
      <trkpt lat="43.51869" lon="3.46918">
        <ele>18.7</ele>
        <time>2018-09-25T22:16:32.819Z</time>
      </trkpt>
      <trkpt lat="43.51873" lon="3.46922">
        <ele>18.8</ele>
        <time>2018-09-25T22:16:33.819Z</time>
      </trkpt>
      <trkpt lat="43.51877" lon="3.46925">
        <ele>18.9</ele>
        <time>2018-09-25T22:16:34.819Z</time>
      </trkpt>
      <trkpt lat="43.51881" lon="3.46928">
        <ele>18.9</ele>
        <time>2018-09-25T22:16:35.819Z</time>
      </trkpt>
      <trkpt lat="43.51884" lon="3.46932">
        <ele>19</ele>
        <time>2018-09-25T22:16:36.819Z</time>
      </trkpt>
      <trkpt lat="43.51888" lon="3.46936">
        <ele>19</ele>
        <time>2018-09-25T22:16:37.819Z</time>
      </trkpt>
      <trkpt lat="43.51891" lon="3.4694">
        <ele>19</ele>
        <time>2018-09-25T22:16:38.819Z</time>
      </trkpt>
      <trkpt lat="43.51894" lon="3.46945">
        <ele>19.1</ele>
        <time>2018-09-25T22:16:39.819Z</time>
      </trkpt>
      <trkpt lat="43.51897" lon="3.46949">
        <ele>19.1</ele>
        <time>2018-09-25T22:16:40.819Z</time>
      </trkpt>
      <trkpt lat="43.51899" lon="3.46955">
        <ele>19.1</ele>
        <time>2018-09-25T22:16:41.819Z</time>
      </trkpt>
      <trkpt lat="43.51902" lon="3.46959">
        <ele>19.1</ele>
        <time>2018-09-25T22:16:42.819Z</time>
      </trkpt>
      <trkpt lat="43.51904" lon="3.46964">
        <ele>19.1</ele>
        <time>2018-09-25T22:16:43.819Z</time>
      </trkpt>
      <trkpt lat="43.51907" lon="3.46969">
        <ele>19.1</ele>
        <time>2018-09-25T22:16:44.819Z</time>
      </trkpt>
      <trkpt lat="43.51909" lon="3.46973">
        <ele>19.1</ele>
        <time>2018-09-25T22:16:45.819Z</time>
      </trkpt>
      <trkpt lat="43.51911" lon="3.46978">
        <ele>19.1</ele>
        <time>2018-09-25T22:16:46.819Z</time>
      </trkpt>
      <trkpt lat="43.51914" lon="3.46983">
        <ele>19.1</ele>
        <time>2018-09-25T22:16:47.819Z</time>
      </trkpt>
      <trkpt lat="43.51916" lon="3.46987">
        <ele>19.1</ele>
        <time>2018-09-25T22:16:48.819Z</time>
      </trkpt>
      <trkpt lat="43.51918" lon="3.46991">
        <ele>19</ele>
        <time>2018-09-25T22:16:49.819Z</time>
      </trkpt>
      <trkpt lat="43.5192" lon="3.46996">
        <ele>19</ele>
        <time>2018-09-25T22:16:50.819Z</time>
      </trkpt>
      <trkpt lat="43.51923" lon="3.47001">
        <ele>18.9</ele>
        <time>2018-09-25T22:16:51.819Z</time>
      </trkpt>
      <trkpt lat="43.51925" lon="3.47007">
        <ele>18.8</ele>
        <time>2018-09-25T22:16:52.819Z</time>
      </trkpt>
      <trkpt lat="43.51927" lon="3.47012">
        <ele>18.7</ele>
        <time>2018-09-25T22:16:53.819Z</time>
      </trkpt>
      <trkpt lat="43.51929" lon="3.47017">
        <ele>18.6</ele>
        <time>2018-09-25T22:16:54.819Z</time>
      </trkpt>
      <trkpt lat="43.51931" lon="3.47022">
        <ele>18.5</ele>
        <time>2018-09-25T22:16:55.819Z</time>
      </trkpt>
      <trkpt lat="43.51932" lon="3.47028">
        <ele>18.3</ele>
        <time>2018-09-25T22:16:56.819Z</time>
      </trkpt>
      <trkpt lat="43.51934" lon="3.47033">
        <ele>18.1</ele>
        <time>2018-09-25T22:16:57.819Z</time>
      </trkpt>
      <trkpt lat="43.51936" lon="3.47039">
        <ele>17.9</ele>
        <time>2018-09-25T22:16:58.819Z</time>
      </trkpt>
      <trkpt lat="43.51937" lon="3.47044">
        <ele>17.8</ele>
        <time>2018-09-25T22:16:59.819Z</time>
      </trkpt>
      <trkpt lat="43.51939" lon="3.47048">
        <ele>17.6</ele>
        <time>2018-09-25T22:17:00.819Z</time>
      </trkpt>
      <trkpt lat="43.5194" lon="3.47053">
        <ele>17.5</ele>
        <time>2018-09-25T22:17:01.819Z</time>
      </trkpt>
      <trkpt lat="43.51942" lon="3.47058">
        <ele>17.4</ele>
        <time>2018-09-25T22:17:02.819Z</time>
      </trkpt>
      <trkpt lat="43.51943" lon="3.47064">
        <ele>17.2</ele>
        <time>2018-09-25T22:17:03.819Z</time>
      </trkpt>
      <trkpt lat="43.51944" lon="3.47069">
        <ele>17.1</ele>
        <time>2018-09-25T22:17:04.819Z</time>
      </trkpt>
      <trkpt lat="43.51946" lon="3.47074">
        <ele>17</ele>
        <time>2018-09-25T22:17:05.819Z</time>
      </trkpt>
      <trkpt lat="43.51947" lon="3.47079">
        <ele>16.9</ele>
        <time>2018-09-25T22:17:06.819Z</time>
      </trkpt>
      <trkpt lat="43.51948" lon="3.47083">
        <ele>16.8</ele>
        <time>2018-09-25T22:17:07.819Z</time>
      </trkpt>
      <trkpt lat="43.51949" lon="3.47088">
        <ele>16.8</ele>
        <time>2018-09-25T22:17:08.819Z</time>
      </trkpt>
      <trkpt lat="43.51951" lon="3.47093">
        <ele>16.7</ele>
        <time>2018-09-25T22:17:09.819Z</time>
      </trkpt>
      <trkpt lat="43.51953" lon="3.47098">
        <ele>16.7</ele>
        <time>2018-09-25T22:17:10.819Z</time>
      </trkpt>
      <trkpt lat="43.51954" lon="3.47103">
        <ele>16.7</ele>
        <time>2018-09-25T22:17:11.819Z</time>
      </trkpt>
      <trkpt lat="43.51956" lon="3.47108">
        <ele>16.7</ele>
        <time>2018-09-25T22:17:12.819Z</time>
      </trkpt>
      <trkpt lat="43.51958" lon="3.47112">
        <ele>16.8</ele>
        <time>2018-09-25T22:17:13.819Z</time>
      </trkpt>
      <trkpt lat="43.51959" lon="3.47117">
        <ele>16.8</ele>
        <time>2018-09-25T22:17:14.819Z</time>
      </trkpt>
      <trkpt lat="43.51961" lon="3.47122">
        <ele>16.9</ele>
        <time>2018-09-25T22:17:15.819Z</time>
      </trkpt>
      <trkpt lat="43.51962" lon="3.47127">
        <ele>16.9</ele>
        <time>2018-09-25T22:17:16.819Z</time>
      </trkpt>
      <trkpt lat="43.51964" lon="3.47133">
        <ele>17.1</ele>
        <time>2018-09-25T22:17:17.819Z</time>
      </trkpt>
      <trkpt lat="43.51966" lon="3.47139">
        <ele>17.2</ele>
        <time>2018-09-25T22:17:18.819Z</time>
      </trkpt>
      <trkpt lat="43.51968" lon="3.47144">
        <ele>17.3</ele>
        <time>2018-09-25T22:17:19.819Z</time>
      </trkpt>
      <trkpt lat="43.5197" lon="3.47149">
        <ele>17.5</ele>
        <time>2018-09-25T22:17:20.819Z</time>
      </trkpt>
      <trkpt lat="43.51971" lon="3.47154">
        <ele>17.6</ele>
        <time>2018-09-25T22:17:21.819Z</time>
      </trkpt>
      <trkpt lat="43.51973" lon="3.47159">
        <ele>17.6</ele>
        <time>2018-09-25T22:17:22.819Z</time>
      </trkpt>
      <trkpt lat="43.51974" lon="3.47164">
        <ele>17.7</ele>
        <time>2018-09-25T22:17:23.819Z</time>
      </trkpt>
      <trkpt lat="43.51975" lon="3.47169">
        <ele>17.8</ele>
        <time>2018-09-25T22:17:24.819Z</time>
      </trkpt>
      <trkpt lat="43.51977" lon="3.47173">
        <ele>17.9</ele>
        <time>2018-09-25T22:17:25.819Z</time>
      </trkpt>
      <trkpt lat="43.51979" lon="3.47179">
        <ele>18</ele>
        <time>2018-09-25T22:17:26.819Z</time>
      </trkpt>
      <trkpt lat="43.5198" lon="3.47184">
        <ele>18.1</ele>
        <time>2018-09-25T22:17:27.819Z</time>
      </trkpt>
      <trkpt lat="43.51982" lon="3.4719">
        <ele>18.1</ele>
        <time>2018-09-25T22:17:28.819Z</time>
      </trkpt>
      <trkpt lat="43.51983" lon="3.47194">
        <ele>18.1</ele>
        <time>2018-09-25T22:17:29.819Z</time>
      </trkpt>
      <trkpt lat="43.51985" lon="3.47198">
        <ele>18.1</ele>
        <time>2018-09-25T22:17:30.819Z</time>
      </trkpt>
      <trkpt lat="43.51987" lon="3.47203">
        <ele>18.2</ele>
        <time>2018-09-25T22:17:31.819Z</time>
      </trkpt>
      <trkpt lat="43.51988" lon="3.47207">
        <ele>18.2</ele>
        <time>2018-09-25T22:17:32.819Z</time>
      </trkpt>
      <trkpt lat="43.5199" lon="3.47211">
        <ele>18.2</ele>
        <time>2018-09-25T22:17:33.819Z</time>
      </trkpt>
      <trkpt lat="43.51991" lon="3.47215">
        <ele>18.2</ele>
        <time>2018-09-25T22:17:34.819Z</time>
      </trkpt>
      <trkpt lat="43.51993" lon="3.47219">
        <ele>18.2</ele>
        <time>2018-09-25T22:17:35.819Z</time>
      </trkpt>
      <trkpt lat="43.51994" lon="3.47224">
        <ele>18.2</ele>
        <time>2018-09-25T22:17:36.819Z</time>
      </trkpt>
      <trkpt lat="43.51996" lon="3.4723">
        <ele>18.2</ele>
        <time>2018-09-25T22:17:37.819Z</time>
      </trkpt>
      <trkpt lat="43.51998" lon="3.47234">
        <ele>18.2</ele>
        <time>2018-09-25T22:17:38.819Z</time>
      </trkpt>
      <trkpt lat="43.51999" lon="3.4724">
        <ele>18.3</ele>
        <time>2018-09-25T22:17:39.819Z</time>
      </trkpt>
      <trkpt lat="43.52001" lon="3.47244">
        <ele>18.3</ele>
        <time>2018-09-25T22:17:40.819Z</time>
      </trkpt>
      <trkpt lat="43.52003" lon="3.47249">
        <ele>18.3</ele>
        <time>2018-09-25T22:17:41.819Z</time>
      </trkpt>
      <trkpt lat="43.52005" lon="3.47253">
        <ele>18.3</ele>
        <time>2018-09-25T22:17:42.819Z</time>
      </trkpt>
      <trkpt lat="43.52008" lon="3.47258">
        <ele>18.4</ele>
        <time>2018-09-25T22:17:43.819Z</time>
      </trkpt>
      <trkpt lat="43.5201" lon="3.47263">
        <ele>18.4</ele>
        <time>2018-09-25T22:17:44.819Z</time>
      </trkpt>
      <trkpt lat="43.52013" lon="3.47267">
        <ele>18.5</ele>
        <time>2018-09-25T22:17:45.819Z</time>
      </trkpt>
      <trkpt lat="43.52015" lon="3.47273">
        <ele>18.5</ele>
        <time>2018-09-25T22:17:46.819Z</time>
      </trkpt>
      <trkpt lat="43.52017" lon="3.47277">
        <ele>18.5</ele>
        <time>2018-09-25T22:17:47.819Z</time>
      </trkpt>
      <trkpt lat="43.52019" lon="3.47282">
        <ele>18.6</ele>
        <time>2018-09-25T22:17:48.819Z</time>
      </trkpt>
      <trkpt lat="43.52022" lon="3.47286">
        <ele>18.6</ele>
        <time>2018-09-25T22:17:49.819Z</time>
      </trkpt>
      <trkpt lat="43.52024" lon="3.47291">
        <ele>18.7</ele>
        <time>2018-09-25T22:17:50.819Z</time>
      </trkpt>
      <trkpt lat="43.52026" lon="3.47296">
        <ele>18.7</ele>
        <time>2018-09-25T22:17:51.819Z</time>
      </trkpt>
      <trkpt lat="43.52029" lon="3.473">
        <ele>18.8</ele>
        <time>2018-09-25T22:17:52.819Z</time>
      </trkpt>
      <trkpt lat="43.52031" lon="3.47305">
        <ele>18.8</ele>
        <time>2018-09-25T22:17:53.819Z</time>
      </trkpt>
      <trkpt lat="43.52034" lon="3.47309">
        <ele>18.9</ele>
        <time>2018-09-25T22:17:54.819Z</time>
      </trkpt>
      <trkpt lat="43.52036" lon="3.47315">
        <ele>19</ele>
        <time>2018-09-25T22:17:55.819Z</time>
      </trkpt>
      <trkpt lat="43.52039" lon="3.4732">
        <ele>19</ele>
        <time>2018-09-25T22:17:56.819Z</time>
      </trkpt>
      <trkpt lat="43.52041" lon="3.47325">
        <ele>19.1</ele>
        <time>2018-09-25T22:17:57.819Z</time>
      </trkpt>
      <trkpt lat="43.52043" lon="3.47329">
        <ele>19.1</ele>
        <time>2018-09-25T22:17:58.819Z</time>
      </trkpt>
      <trkpt lat="43.52046" lon="3.47334">
        <ele>19.2</ele>
        <time>2018-09-25T22:17:59.819Z</time>
      </trkpt>
      <trkpt lat="43.52049" lon="3.47339">
        <ele>19.2</ele>
        <time>2018-09-25T22:18:00.819Z</time>
      </trkpt>
      <trkpt lat="43.52051" lon="3.47345">
        <ele>19.3</ele>
        <time>2018-09-25T22:18:01.819Z</time>
      </trkpt>
      <trkpt lat="43.52054" lon="3.4735">
        <ele>19.3</ele>
        <time>2018-09-25T22:18:02.819Z</time>
      </trkpt>
      <trkpt lat="43.52057" lon="3.47356">
        <ele>19.3</ele>
        <time>2018-09-25T22:18:03.819Z</time>
      </trkpt>
      <trkpt lat="43.52059" lon="3.47361">
        <ele>19.4</ele>
        <time>2018-09-25T22:18:04.819Z</time>
      </trkpt>
      <trkpt lat="43.52062" lon="3.47367">
        <ele>19.4</ele>
        <time>2018-09-25T22:18:05.819Z</time>
      </trkpt>
      <trkpt lat="43.52064" lon="3.47372">
        <ele>19.4</ele>
        <time>2018-09-25T22:18:06.819Z</time>
      </trkpt>
      <trkpt lat="43.52066" lon="3.47376">
        <ele>19.4</ele>
        <time>2018-09-25T22:18:07.819Z</time>
      </trkpt>
      <trkpt lat="43.52069" lon="3.47381">
        <ele>19.4</ele>
        <time>2018-09-25T22:18:08.819Z</time>
      </trkpt>
      <trkpt lat="43.52072" lon="3.47386">
        <ele>19.4</ele>
        <time>2018-09-25T22:18:09.819Z</time>
      </trkpt>
      <trkpt lat="43.52075" lon="3.47391">
        <ele>19.3</ele>
        <time>2018-09-25T22:18:10.819Z</time>
      </trkpt>
      <trkpt lat="43.52078" lon="3.47396">
        <ele>19.3</ele>
        <time>2018-09-25T22:18:11.819Z</time>
      </trkpt>
      <trkpt lat="43.52082" lon="3.47401">
        <ele>19.3</ele>
        <time>2018-09-25T22:18:12.819Z</time>
      </trkpt>
      <trkpt lat="43.52085" lon="3.47406">
        <ele>19.2</ele>
        <time>2018-09-25T22:18:13.819Z</time>
      </trkpt>
      <trkpt lat="43.52088" lon="3.4741">
        <ele>19.2</ele>
        <time>2018-09-25T22:18:14.819Z</time>
      </trkpt>
      <trkpt lat="43.52091" lon="3.47414">
        <ele>19.2</ele>
        <time>2018-09-25T22:18:15.819Z</time>
      </trkpt>
      <trkpt lat="43.52094" lon="3.47418">
        <ele>19.1</ele>
        <time>2018-09-25T22:18:16.819Z</time>
      </trkpt>
      <trkpt lat="43.52098" lon="3.47423">
        <ele>19.1</ele>
        <time>2018-09-25T22:18:17.819Z</time>
      </trkpt>
      <trkpt lat="43.52102" lon="3.47427">
        <ele>19</ele>
        <time>2018-09-25T22:18:18.819Z</time>
      </trkpt>
      <trkpt lat="43.52106" lon="3.47432">
        <ele>19</ele>
        <time>2018-09-25T22:18:19.819Z</time>
      </trkpt>
      <trkpt lat="43.52109" lon="3.47437">
        <ele>19</ele>
        <time>2018-09-25T22:18:20.819Z</time>
      </trkpt>
      <trkpt lat="43.52112" lon="3.47441">
        <ele>18.9</ele>
        <time>2018-09-25T22:18:21.819Z</time>
      </trkpt>
      <trkpt lat="43.52116" lon="3.47445">
        <ele>18.9</ele>
        <time>2018-09-25T22:18:22.819Z</time>
      </trkpt>
      <trkpt lat="43.52119" lon="3.47449">
        <ele>18.8</ele>
        <time>2018-09-25T22:18:23.819Z</time>
      </trkpt>
      <trkpt lat="43.52122" lon="3.47453">
        <ele>18.8</ele>
        <time>2018-09-25T22:18:24.819Z</time>
      </trkpt>
      <trkpt lat="43.52125" lon="3.47457">
        <ele>18.8</ele>
        <time>2018-09-25T22:18:25.819Z</time>
      </trkpt>
      <trkpt lat="43.52129" lon="3.47462">
        <ele>18.7</ele>
        <time>2018-09-25T22:18:26.819Z</time>
      </trkpt>
      <trkpt lat="43.52133" lon="3.47466">
        <ele>18.7</ele>
        <time>2018-09-25T22:18:27.819Z</time>
      </trkpt>
      <trkpt lat="43.52138" lon="3.47471">
        <ele>18.7</ele>
        <time>2018-09-25T22:18:28.819Z</time>
      </trkpt>
      <trkpt lat="43.52141" lon="3.47476">
        <ele>18.6</ele>
        <time>2018-09-25T22:18:29.819Z</time>
      </trkpt>
      <trkpt lat="43.52145" lon="3.47481">
        <ele>18.6</ele>
        <time>2018-09-25T22:18:30.819Z</time>
      </trkpt>
      <trkpt lat="43.52149" lon="3.47485">
        <ele>18.6</ele>
        <time>2018-09-25T22:18:31.819Z</time>
      </trkpt>
      <trkpt lat="43.52152" lon="3.47489">
        <ele>18.6</ele>
        <time>2018-09-25T22:18:32.819Z</time>
      </trkpt>
      <trkpt lat="43.52155" lon="3.47493">
        <ele>18.6</ele>
        <time>2018-09-25T22:18:33.819Z</time>
      </trkpt>
      <trkpt lat="43.52159" lon="3.47498">
        <ele>18.6</ele>
        <time>2018-09-25T22:18:34.819Z</time>
      </trkpt>
      <trkpt lat="43.52163" lon="3.47503">
        <ele>18.6</ele>
        <time>2018-09-25T22:18:35.819Z</time>
      </trkpt>
      <trkpt lat="43.52166" lon="3.47508">
        <ele>18.7</ele>
        <time>2018-09-25T22:18:36.819Z</time>
      </trkpt>
      <trkpt lat="43.5217" lon="3.47513">
        <ele>18.7</ele>
        <time>2018-09-25T22:18:37.819Z</time>
      </trkpt>
      <trkpt lat="43.52174" lon="3.47518">
        <ele>18.7</ele>
        <time>2018-09-25T22:18:38.819Z</time>
      </trkpt>
      <trkpt lat="43.52178" lon="3.47523">
        <ele>18.8</ele>
        <time>2018-09-25T22:18:39.819Z</time>
      </trkpt>
      <trkpt lat="43.52181" lon="3.47528">
        <ele>18.8</ele>
        <time>2018-09-25T22:18:40.819Z</time>
      </trkpt>
      <trkpt lat="43.52184" lon="3.47533">
        <ele>18.8</ele>
        <time>2018-09-25T22:18:41.819Z</time>
      </trkpt>
      <trkpt lat="43.52188" lon="3.47536">
        <ele>18.9</ele>
        <time>2018-09-25T22:18:42.819Z</time>
      </trkpt>
      <trkpt lat="43.52191" lon="3.47541">
        <ele>18.9</ele>
        <time>2018-09-25T22:18:43.819Z</time>
      </trkpt>
      <trkpt lat="43.52194" lon="3.47545">
        <ele>18.9</ele>
        <time>2018-09-25T22:18:44.819Z</time>
      </trkpt>
      <trkpt lat="43.52197" lon="3.47549">
        <ele>18.9</ele>
        <time>2018-09-25T22:18:45.819Z</time>
      </trkpt>
      <trkpt lat="43.522" lon="3.47552">
        <ele>19</ele>
        <time>2018-09-25T22:18:46.819Z</time>
      </trkpt>
      <trkpt lat="43.52203" lon="3.47557">
        <ele>19</ele>
        <time>2018-09-25T22:18:47.819Z</time>
      </trkpt>
      <trkpt lat="43.52207" lon="3.47561">
        <ele>19.1</ele>
        <time>2018-09-25T22:18:48.819Z</time>
      </trkpt>
      <trkpt lat="43.5221" lon="3.47565">
        <ele>19.1</ele>
        <time>2018-09-25T22:18:49.819Z</time>
      </trkpt>
      <trkpt lat="43.52213" lon="3.47568">
        <ele>19.1</ele>
        <time>2018-09-25T22:18:50.819Z</time>
      </trkpt>
      <trkpt lat="43.52216" lon="3.47572">
        <ele>19.1</ele>
        <time>2018-09-25T22:18:51.819Z</time>
      </trkpt>
      <trkpt lat="43.52218" lon="3.47575">
        <ele>19.1</ele>
        <time>2018-09-25T22:18:52.819Z</time>
      </trkpt>
      <trkpt lat="43.52221" lon="3.47578">
        <ele>19.1</ele>
        <time>2018-09-25T22:18:53.819Z</time>
      </trkpt>
      <trkpt lat="43.52223" lon="3.47581">
        <ele>19.1</ele>
        <time>2018-09-25T22:18:54.819Z</time>
      </trkpt>
      <trkpt lat="43.52228" lon="3.47585">
        <ele>19</ele>
        <time>2018-09-25T22:18:56.819Z</time>
      </trkpt>
      <trkpt lat="43.52231" lon="3.4759">
        <ele>19</ele>
        <time>2018-09-25T22:18:58.819Z</time>
      </trkpt>
      <trkpt lat="43.52234" lon="3.47594">
        <ele>19</ele>
        <time>2018-09-25T22:19:00.819Z</time>
      </trkpt>
      <trkpt lat="43.52236" lon="3.47597">
        <ele>19</ele>
        <time>2018-09-25T22:19:01.819Z</time>
      </trkpt>
      <trkpt lat="43.52239" lon="3.47601">
        <ele>18.9</ele>
        <time>2018-09-25T22:19:02.819Z</time>
      </trkpt>
      <trkpt lat="43.52242" lon="3.47605">
        <ele>18.8</ele>
        <time>2018-09-25T22:19:03.819Z</time>
      </trkpt>
      <trkpt lat="43.52245" lon="3.47609">
        <ele>18.7</ele>
        <time>2018-09-25T22:19:04.819Z</time>
      </trkpt>
      <trkpt lat="43.52248" lon="3.47614">
        <ele>18.6</ele>
        <time>2018-09-25T22:19:05.819Z</time>
      </trkpt>
      <trkpt lat="43.52251" lon="3.47619">
        <ele>18.4</ele>
        <time>2018-09-25T22:19:06.819Z</time>
      </trkpt>
      <trkpt lat="43.52254" lon="3.47624">
        <ele>18.3</ele>
        <time>2018-09-25T22:19:07.819Z</time>
      </trkpt>
      <trkpt lat="43.52257" lon="3.47628">
        <ele>18.1</ele>
        <time>2018-09-25T22:19:08.819Z</time>
      </trkpt>
      <trkpt lat="43.52259" lon="3.47634">
        <ele>18</ele>
        <time>2018-09-25T22:19:09.819Z</time>
      </trkpt>
      <trkpt lat="43.52263" lon="3.4764">
        <ele>17.8</ele>
        <time>2018-09-25T22:19:10.819Z</time>
      </trkpt>
      <trkpt lat="43.52266" lon="3.47646">
        <ele>17.6</ele>
        <time>2018-09-25T22:19:11.819Z</time>
      </trkpt>
      <trkpt lat="43.52269" lon="3.47651">
        <ele>17.5</ele>
        <time>2018-09-25T22:19:12.819Z</time>
      </trkpt>
      <trkpt lat="43.52272" lon="3.47656">
        <ele>17.3</ele>
        <time>2018-09-25T22:19:13.819Z</time>
      </trkpt>
      <trkpt lat="43.52275" lon="3.47661">
        <ele>17.1</ele>
        <time>2018-09-25T22:19:14.819Z</time>
      </trkpt>
      <trkpt lat="43.52278" lon="3.47666">
        <ele>16.9</ele>
        <time>2018-09-25T22:19:15.819Z</time>
      </trkpt>
      <trkpt lat="43.52281" lon="3.47672">
        <ele>16.8</ele>
        <time>2018-09-25T22:19:16.819Z</time>
      </trkpt>
      <trkpt lat="43.52285" lon="3.47678">
        <ele>16.7</ele>
        <time>2018-09-25T22:19:17.819Z</time>
      </trkpt>
      <trkpt lat="43.52289" lon="3.47683">
        <ele>16.6</ele>
        <time>2018-09-25T22:19:18.819Z</time>
      </trkpt>
      <trkpt lat="43.52292" lon="3.47688">
        <ele>16.5</ele>
        <time>2018-09-25T22:19:19.819Z</time>
      </trkpt>
      <trkpt lat="43.52295" lon="3.47693">
        <ele>16.5</ele>
        <time>2018-09-25T22:19:20.819Z</time>
      </trkpt>
      <trkpt lat="43.52298" lon="3.47697">
        <ele>16.5</ele>
        <time>2018-09-25T22:19:21.819Z</time>
      </trkpt>
      <trkpt lat="43.52302" lon="3.47702">
        <ele>16.5</ele>
        <time>2018-09-25T22:19:22.819Z</time>
      </trkpt>
      <trkpt lat="43.52305" lon="3.47707">
        <ele>16.5</ele>
        <time>2018-09-25T22:19:23.819Z</time>
      </trkpt>
      <trkpt lat="43.52309" lon="3.47711">
        <ele>16.6</ele>
        <time>2018-09-25T22:19:24.819Z</time>
      </trkpt>
      <trkpt lat="43.52313" lon="3.47715">
        <ele>16.8</ele>
        <time>2018-09-25T22:19:25.819Z</time>
      </trkpt>
      <trkpt lat="43.52317" lon="3.47719">
        <ele>16.9</ele>
        <time>2018-09-25T22:19:26.819Z</time>
      </trkpt>
      <trkpt lat="43.5232" lon="3.47723">
        <ele>17.1</ele>
        <time>2018-09-25T22:19:27.819Z</time>
      </trkpt>
      <trkpt lat="43.52324" lon="3.47726">
        <ele>17.2</ele>
        <time>2018-09-25T22:19:28.819Z</time>
      </trkpt>
      <trkpt lat="43.52328" lon="3.4773">
        <ele>17.3</ele>
        <time>2018-09-25T22:19:29.819Z</time>
      </trkpt>
      <trkpt lat="43.52333" lon="3.47733">
        <ele>17.4</ele>
        <time>2018-09-25T22:19:30.819Z</time>
      </trkpt>
      <trkpt lat="43.52337" lon="3.47737">
        <ele>17.5</ele>
        <time>2018-09-25T22:19:31.819Z</time>
      </trkpt>
      <trkpt lat="43.52342" lon="3.47741">
        <ele>17.7</ele>
        <time>2018-09-25T22:19:32.819Z</time>
      </trkpt>
      <trkpt lat="43.52347" lon="3.47746">
        <ele>17.9</ele>
        <time>2018-09-25T22:19:33.819Z</time>
      </trkpt>
      <trkpt lat="43.52353" lon="3.4775">
        <ele>18</ele>
        <time>2018-09-25T22:19:34.819Z</time>
      </trkpt>
      <trkpt lat="43.52356" lon="3.47753">
        <ele>18</ele>
        <time>2018-09-25T22:19:35.819Z</time>
      </trkpt>
      <trkpt lat="43.52361" lon="3.47757">
        <ele>18.1</ele>
        <time>2018-09-25T22:19:36.819Z</time>
      </trkpt>
      <trkpt lat="43.52366" lon="3.47759">
        <ele>18.2</ele>
        <time>2018-09-25T22:19:37.819Z</time>
      </trkpt>
      <trkpt lat="43.52371" lon="3.47761">
        <ele>18.3</ele>
        <time>2018-09-25T22:19:38.819Z</time>
      </trkpt>
      <trkpt lat="43.52375" lon="3.47763">
        <ele>18.4</ele>
        <time>2018-09-25T22:19:39.819Z</time>
      </trkpt>
      <trkpt lat="43.5238" lon="3.47766">
        <ele>18.4</ele>
        <time>2018-09-25T22:19:40.819Z</time>
      </trkpt>
      <trkpt lat="43.52385" lon="3.47768">
        <ele>18.4</ele>
        <time>2018-09-25T22:19:41.819Z</time>
      </trkpt>
      <trkpt lat="43.5239" lon="3.47771">
        <ele>18.5</ele>
        <time>2018-09-25T22:19:42.819Z</time>
      </trkpt>
      <trkpt lat="43.52396" lon="3.47774">
        <ele>18.5</ele>
        <time>2018-09-25T22:19:43.819Z</time>
      </trkpt>
      <trkpt lat="43.52401" lon="3.47777">
        <ele>18.5</ele>
        <time>2018-09-25T22:19:44.819Z</time>
      </trkpt>
      <trkpt lat="43.52406" lon="3.4778">
        <ele>18.6</ele>
        <time>2018-09-25T22:19:45.819Z</time>
      </trkpt>
      <trkpt lat="43.52411" lon="3.47783">
        <ele>18.6</ele>
        <time>2018-09-25T22:19:46.819Z</time>
      </trkpt>
      <trkpt lat="43.52417" lon="3.47785">
        <ele>18.6</ele>
        <time>2018-09-25T22:19:47.819Z</time>
      </trkpt>
      <trkpt lat="43.52422" lon="3.47788">
        <ele>18.7</ele>
        <time>2018-09-25T22:19:48.819Z</time>
      </trkpt>
      <trkpt lat="43.52427" lon="3.47791">
        <ele>18.8</ele>
        <time>2018-09-25T22:19:49.819Z</time>
      </trkpt>
      <trkpt lat="43.52432" lon="3.47794">
        <ele>18.8</ele>
        <time>2018-09-25T22:19:50.819Z</time>
      </trkpt>
      <trkpt lat="43.52438" lon="3.47796">
        <ele>18.9</ele>
        <time>2018-09-25T22:19:51.819Z</time>
      </trkpt>
      <trkpt lat="43.52443" lon="3.478">
        <ele>19</ele>
        <time>2018-09-25T22:19:52.819Z</time>
      </trkpt>
      <trkpt lat="43.52447" lon="3.47803">
        <ele>19</ele>
        <time>2018-09-25T22:19:53.819Z</time>
      </trkpt>
      <trkpt lat="43.52451" lon="3.47805">
        <ele>19.1</ele>
        <time>2018-09-25T22:19:54.819Z</time>
      </trkpt>
      <trkpt lat="43.52455" lon="3.47808">
        <ele>19.2</ele>
        <time>2018-09-25T22:19:55.819Z</time>
      </trkpt>
      <trkpt lat="43.52458" lon="3.47811">
        <ele>19.3</ele>
        <time>2018-09-25T22:19:56.819Z</time>
      </trkpt>
      <trkpt lat="43.52461" lon="3.47812">
        <ele>19.3</ele>
        <time>2018-09-25T22:19:57.819Z</time>
      </trkpt>
      <trkpt lat="43.52465" lon="3.47815">
        <ele>19.4</ele>
        <time>2018-09-25T22:19:59.819Z</time>
      </trkpt>
      <trkpt lat="43.52469" lon="3.47817">
        <ele>19.5</ele>
        <time>2018-09-25T22:20:01.819Z</time>
      </trkpt>
      <trkpt lat="43.52474" lon="3.47809">
        <ele>19.7</ele>
        <time>2018-09-25T22:20:03.819Z</time>
      </trkpt>
      <trkpt lat="43.52476" lon="3.47805">
        <ele>19.8</ele>
        <time>2018-09-25T22:20:04.819Z</time>
      </trkpt>
      <trkpt lat="43.52479" lon="3.47801">
        <ele>19.9</ele>
        <time>2018-09-25T22:20:05.819Z</time>
      </trkpt>
      <trkpt lat="43.52482" lon="3.47796">
        <ele>19.9</ele>
        <time>2018-09-25T22:20:06.819Z</time>
      </trkpt>
      <trkpt lat="43.52485" lon="3.47792">
        <ele>19.8</ele>
        <time>2018-09-25T22:20:07.819Z</time>
      </trkpt>
      <trkpt lat="43.52488" lon="3.47787">
        <ele>19.8</ele>
        <time>2018-09-25T22:20:08.819Z</time>
      </trkpt>
      <trkpt lat="43.52491" lon="3.47783">
        <ele>19.7</ele>
        <time>2018-09-25T22:20:09.819Z</time>
      </trkpt>
      <trkpt lat="43.52495" lon="3.47779">
        <ele>19.7</ele>
        <time>2018-09-25T22:20:10.819Z</time>
      </trkpt>
      <trkpt lat="43.52497" lon="3.47774">
        <ele>19.7</ele>
        <time>2018-09-25T22:20:11.819Z</time>
      </trkpt>
      <trkpt lat="43.52501" lon="3.47769">
        <ele>19.7</ele>
        <time>2018-09-25T22:20:12.819Z</time>
      </trkpt>
      <trkpt lat="43.52505" lon="3.47764">
        <ele>19.7</ele>
        <time>2018-09-25T22:20:13.819Z</time>
      </trkpt>
      <trkpt lat="43.52508" lon="3.47759">
        <ele>19.8</ele>
        <time>2018-09-25T22:20:14.819Z</time>
      </trkpt>
      <trkpt lat="43.52512" lon="3.47753">
        <ele>19.8</ele>
        <time>2018-09-25T22:20:15.819Z</time>
      </trkpt>
      <trkpt lat="43.52516" lon="3.47748">
        <ele>19.9</ele>
        <time>2018-09-25T22:20:16.819Z</time>
      </trkpt>
      <trkpt lat="43.52519" lon="3.47742">
        <ele>20</ele>
        <time>2018-09-25T22:20:17.819Z</time>
      </trkpt>
      <trkpt lat="43.52523" lon="3.47737">
        <ele>20.1</ele>
        <time>2018-09-25T22:20:18.819Z</time>
      </trkpt>
      <trkpt lat="43.52526" lon="3.47733">
        <ele>20.2</ele>
        <time>2018-09-25T22:20:19.819Z</time>
      </trkpt>
      <trkpt lat="43.52528" lon="3.47729">
        <ele>20.3</ele>
        <time>2018-09-25T22:20:20.819Z</time>
      </trkpt>
      <trkpt lat="43.52531" lon="3.47724">
        <ele>20.4</ele>
        <time>2018-09-25T22:20:21.819Z</time>
      </trkpt>
      <trkpt lat="43.52534" lon="3.47719">
        <ele>20.5</ele>
        <time>2018-09-25T22:20:22.819Z</time>
      </trkpt>
      <trkpt lat="43.52538" lon="3.47714">
        <ele>20.6</ele>
        <time>2018-09-25T22:20:23.819Z</time>
      </trkpt>
      <trkpt lat="43.52541" lon="3.4771">
        <ele>20.7</ele>
        <time>2018-09-25T22:20:24.819Z</time>
      </trkpt>
      <trkpt lat="43.52544" lon="3.47706">
        <ele>20.8</ele>
        <time>2018-09-25T22:20:25.819Z</time>
      </trkpt>
      <trkpt lat="43.52547" lon="3.47701">
        <ele>20.8</ele>
        <time>2018-09-25T22:20:26.819Z</time>
      </trkpt>
      <trkpt lat="43.5255" lon="3.47697">
        <ele>20.8</ele>
        <time>2018-09-25T22:20:27.819Z</time>
      </trkpt>
      <trkpt lat="43.52553" lon="3.47693">
        <ele>20.8</ele>
        <time>2018-09-25T22:20:28.819Z</time>
      </trkpt>
      <trkpt lat="43.52555" lon="3.4769">
        <ele>20.9</ele>
        <time>2018-09-25T22:20:29.819Z</time>
      </trkpt>
      <trkpt lat="43.52557" lon="3.47686">
        <ele>20.9</ele>
        <time>2018-09-25T22:20:30.819Z</time>
      </trkpt>
      <trkpt lat="43.5256" lon="3.47681">
        <ele>20.8</ele>
        <time>2018-09-25T22:20:31.819Z</time>
      </trkpt>
      <trkpt lat="43.52563" lon="3.47676">
        <ele>20.8</ele>
        <time>2018-09-25T22:20:32.819Z</time>
      </trkpt>
      <trkpt lat="43.52566" lon="3.47672">
        <ele>20.8</ele>
        <time>2018-09-25T22:20:33.819Z</time>
      </trkpt>
      <trkpt lat="43.52568" lon="3.47668">
        <ele>20.7</ele>
        <time>2018-09-25T22:20:34.819Z</time>
      </trkpt>
      <trkpt lat="43.5257" lon="3.47663">
        <ele>20.7</ele>
        <time>2018-09-25T22:20:35.819Z</time>
      </trkpt>
      <trkpt lat="43.52572" lon="3.4766">
        <ele>20.6</ele>
        <time>2018-09-25T22:20:36.819Z</time>
      </trkpt>
      <trkpt lat="43.52574" lon="3.47657">
        <ele>20.6</ele>
        <time>2018-09-25T22:20:37.819Z</time>
      </trkpt>
      <trkpt lat="43.52578" lon="3.47653">
        <ele>20.4</ele>
        <time>2018-09-25T22:20:39.819Z</time>
      </trkpt>
      <trkpt lat="43.5258" lon="3.47648">
        <ele>20.3</ele>
        <time>2018-09-25T22:20:41.819Z</time>
      </trkpt>
      <trkpt lat="43.52583" lon="3.47644">
        <ele>20.3</ele>
        <time>2018-09-25T22:20:43.819Z</time>
      </trkpt>
      <trkpt lat="43.52585" lon="3.47641">
        <ele>20.2</ele>
        <time>2018-09-25T22:20:45.819Z</time>
      </trkpt>
      <trkpt lat="43.52585" lon="3.47636">
        <ele>20.2</ele>
        <time>2018-09-25T22:20:47.819Z</time>
      </trkpt>
      <trkpt lat="43.52583" lon="3.47633">
        <ele>20.1</ele>
        <time>2018-09-25T22:20:49.819Z</time>
      </trkpt>
      <trkpt lat="43.52583" lon="3.47627">
        <ele>20</ele>
        <time>2018-09-25T22:20:51.819Z</time>
      </trkpt>
      <trkpt lat="43.52587" lon="3.47619">
        <ele>19.9</ele>
        <time>2018-09-25T22:20:53.819Z</time>
      </trkpt>
      <trkpt lat="43.52588" lon="3.47616">
        <ele>19.8</ele>
        <time>2018-09-25T22:20:54.819Z</time>
      </trkpt>
      <trkpt lat="43.5259" lon="3.47611">
        <ele>19.8</ele>
        <time>2018-09-25T22:20:55.819Z</time>
      </trkpt>
      <trkpt lat="43.52593" lon="3.47607">
        <ele>19.8</ele>
        <time>2018-09-25T22:20:56.819Z</time>
      </trkpt>
      <trkpt lat="43.52596" lon="3.47604">
        <ele>19.7</ele>
        <time>2018-09-25T22:20:57.819Z</time>
      </trkpt>
      <trkpt lat="43.52598" lon="3.476">
        <ele>19.7</ele>
        <time>2018-09-25T22:20:58.819Z</time>
      </trkpt>
      <trkpt lat="43.52601" lon="3.47597">
        <ele>19.7</ele>
        <time>2018-09-25T22:20:59.819Z</time>
      </trkpt>
      <trkpt lat="43.52604" lon="3.47592">
        <ele>19.7</ele>
        <time>2018-09-25T22:21:00.819Z</time>
      </trkpt>
      <trkpt lat="43.52606" lon="3.47589">
        <ele>19.7</ele>
        <time>2018-09-25T22:21:01.819Z</time>
      </trkpt>
      <trkpt lat="43.52609" lon="3.47587">
        <ele>19.7</ele>
        <time>2018-09-25T22:21:02.819Z</time>
      </trkpt>
      <trkpt lat="43.5261" lon="3.47584">
        <ele>19.7</ele>
        <time>2018-09-25T22:21:03.819Z</time>
      </trkpt>
      <trkpt lat="43.52612" lon="3.47581">
        <ele>19.8</ele>
        <time>2018-09-25T22:21:04.819Z</time>
      </trkpt>
      <trkpt lat="43.52615" lon="3.47577">
        <ele>19.8</ele>
        <time>2018-09-25T22:21:05.819Z</time>
      </trkpt>
      <trkpt lat="43.52617" lon="3.47574">
        <ele>19.8</ele>
        <time>2018-09-25T22:21:06.819Z</time>
      </trkpt>
      <trkpt lat="43.5262" lon="3.47571">
        <ele>19.9</ele>
        <time>2018-09-25T22:21:07.819Z</time>
      </trkpt>
      <trkpt lat="43.52623" lon="3.47566">
        <ele>19.9</ele>
        <time>2018-09-25T22:21:09.819Z</time>
      </trkpt>
      <trkpt lat="43.52626" lon="3.47563">
        <ele>20</ele>
        <time>2018-09-25T22:21:10.819Z</time>
      </trkpt>
      <trkpt lat="43.52629" lon="3.4756">
        <ele>20</ele>
        <time>2018-09-25T22:21:11.819Z</time>
      </trkpt>
      <trkpt lat="43.52632" lon="3.47557">
        <ele>20.1</ele>
        <time>2018-09-25T22:21:12.819Z</time>
      </trkpt>
      <trkpt lat="43.52635" lon="3.47552">
        <ele>20.2</ele>
        <time>2018-09-25T22:21:13.819Z</time>
      </trkpt>
      <trkpt lat="43.52638" lon="3.47549">
        <ele>20.3</ele>
        <time>2018-09-25T22:21:14.819Z</time>
      </trkpt>
      <trkpt lat="43.5264" lon="3.47546">
        <ele>20.3</ele>
        <time>2018-09-25T22:21:15.819Z</time>
      </trkpt>
      <trkpt lat="43.52642" lon="3.47542">
        <ele>20.4</ele>
        <time>2018-09-25T22:21:16.819Z</time>
      </trkpt>
      <trkpt lat="43.52643" lon="3.47539">
        <ele>20.4</ele>
        <time>2018-09-25T22:21:17.819Z</time>
      </trkpt>
      <trkpt lat="43.52646" lon="3.47536">
        <ele>20.5</ele>
        <time>2018-09-25T22:21:18.819Z</time>
      </trkpt>
      <trkpt lat="43.52648" lon="3.47533">
        <ele>20.5</ele>
        <time>2018-09-25T22:21:19.819Z</time>
      </trkpt>
      <trkpt lat="43.5265" lon="3.4753">
        <ele>20.6</ele>
        <time>2018-09-25T22:21:20.819Z</time>
      </trkpt>
      <trkpt lat="43.52652" lon="3.47526">
        <ele>20.6</ele>
        <time>2018-09-25T22:21:21.819Z</time>
      </trkpt>
      <trkpt lat="43.52653" lon="3.47522">
        <ele>20.7</ele>
        <time>2018-09-25T22:21:22.819Z</time>
      </trkpt>
      <trkpt lat="43.52653" lon="3.47518">
        <ele>20.7</ele>
        <time>2018-09-25T22:21:23.819Z</time>
      </trkpt>
      <trkpt lat="43.52654" lon="3.47514">
        <ele>20.7</ele>
        <time>2018-09-25T22:21:24.819Z</time>
      </trkpt>
      <trkpt lat="43.52654" lon="3.4751">
        <ele>20.7</ele>
        <time>2018-09-25T22:21:25.819Z</time>
      </trkpt>
      <trkpt lat="43.52654" lon="3.47506">
        <ele>20.6</ele>
        <time>2018-09-25T22:21:26.819Z</time>
      </trkpt>
      <trkpt lat="43.52654" lon="3.47502">
        <ele>20.6</ele>
        <time>2018-09-25T22:21:27.819Z</time>
      </trkpt>
      <trkpt lat="43.52655" lon="3.47498">
        <ele>20.6</ele>
        <time>2018-09-25T22:21:28.819Z</time>
      </trkpt>
      <trkpt lat="43.52656" lon="3.47494">
        <ele>20.6</ele>
        <time>2018-09-25T22:21:29.819Z</time>
      </trkpt>
      <trkpt lat="43.52656" lon="3.47489">
        <ele>20.5</ele>
        <time>2018-09-25T22:21:30.819Z</time>
      </trkpt>
      <trkpt lat="43.52657" lon="3.47484">
        <ele>20.4</ele>
        <time>2018-09-25T22:21:31.819Z</time>
      </trkpt>
      <trkpt lat="43.52658" lon="3.47481">
        <ele>20.3</ele>
        <time>2018-09-25T22:21:32.819Z</time>
      </trkpt>
      <trkpt lat="43.52658" lon="3.47477">
        <ele>20.3</ele>
        <time>2018-09-25T22:21:33.819Z</time>
      </trkpt>
      <trkpt lat="43.52659" lon="3.47471">
        <ele>20.2</ele>
        <time>2018-09-25T22:21:34.819Z</time>
      </trkpt>
      <trkpt lat="43.52659" lon="3.47467">
        <ele>20.1</ele>
        <time>2018-09-25T22:21:35.819Z</time>
      </trkpt>
      <trkpt lat="43.52659" lon="3.47463">
        <ele>20.1</ele>
        <time>2018-09-25T22:21:36.819Z</time>
      </trkpt>
      <trkpt lat="43.5266" lon="3.47458">
        <ele>20</ele>
        <time>2018-09-25T22:21:37.819Z</time>
      </trkpt>
      <trkpt lat="43.52661" lon="3.47454">
        <ele>19.9</ele>
        <time>2018-09-25T22:21:38.819Z</time>
      </trkpt>
      <trkpt lat="43.52661" lon="3.47451">
        <ele>19.9</ele>
        <time>2018-09-25T22:21:39.819Z</time>
      </trkpt>
      <trkpt lat="43.52663" lon="3.47444">
        <ele>19.9</ele>
        <time>2018-09-25T22:21:41.819Z</time>
      </trkpt>
      <trkpt lat="43.52664" lon="3.47437">
        <ele>19.8</ele>
        <time>2018-09-25T22:21:43.819Z</time>
      </trkpt>
      <trkpt lat="43.52665" lon="3.47433">
        <ele>19.8</ele>
        <time>2018-09-25T22:21:44.819Z</time>
      </trkpt>
      <trkpt lat="43.52666" lon="3.47429">
        <ele>19.8</ele>
        <time>2018-09-25T22:21:45.819Z</time>
      </trkpt>
      <trkpt lat="43.52667" lon="3.47425">
        <ele>19.8</ele>
        <time>2018-09-25T22:21:46.819Z</time>
      </trkpt>
      <trkpt lat="43.5267" lon="3.47423">
        <ele>19.9</ele>
        <time>2018-09-25T22:21:47.819Z</time>
      </trkpt>
      <trkpt lat="43.52672" lon="3.4742">
        <ele>19.9</ele>
        <time>2018-09-25T22:21:48.819Z</time>
      </trkpt>
      <trkpt lat="43.52676" lon="3.47414">
        <ele>20</ele>
        <time>2018-09-25T22:21:50.819Z</time>
      </trkpt>
      <trkpt lat="43.52678" lon="3.47411">
        <ele>20.1</ele>
        <time>2018-09-25T22:21:51.819Z</time>
      </trkpt>
      <trkpt lat="43.52682" lon="3.47406">
        <ele>20.2</ele>
        <time>2018-09-25T22:21:53.819Z</time>
      </trkpt>
      <trkpt lat="43.52684" lon="3.47402">
        <ele>20.3</ele>
        <time>2018-09-25T22:21:54.819Z</time>
      </trkpt>
      <trkpt lat="43.52686" lon="3.47399">
        <ele>20.3</ele>
        <time>2018-09-25T22:21:55.819Z</time>
      </trkpt>
      <trkpt lat="43.52689" lon="3.47396">
        <ele>20.4</ele>
        <time>2018-09-25T22:21:56.819Z</time>
      </trkpt>
      <trkpt lat="43.52691" lon="3.47392">
        <ele>20.5</ele>
        <time>2018-09-25T22:21:57.819Z</time>
      </trkpt>
      <trkpt lat="43.52693" lon="3.47388">
        <ele>20.6</ele>
        <time>2018-09-25T22:21:58.819Z</time>
      </trkpt>
      <trkpt lat="43.52695" lon="3.47385">
        <ele>20.7</ele>
        <time>2018-09-25T22:21:59.819Z</time>
      </trkpt>
      <trkpt lat="43.52698" lon="3.47382">
        <ele>20.8</ele>
        <time>2018-09-25T22:22:00.819Z</time>
      </trkpt>
      <trkpt lat="43.527" lon="3.47379">
        <ele>20.8</ele>
        <time>2018-09-25T22:22:01.819Z</time>
      </trkpt>
      <trkpt lat="43.52702" lon="3.47376">
        <ele>20.9</ele>
        <time>2018-09-25T22:22:02.819Z</time>
      </trkpt>
      <trkpt lat="43.52703" lon="3.47373">
        <ele>20.9</ele>
        <time>2018-09-25T22:22:03.819Z</time>
      </trkpt>
      <trkpt lat="43.52706" lon="3.4737">
        <ele>21</ele>
        <time>2018-09-25T22:22:04.819Z</time>
      </trkpt>
      <trkpt lat="43.52709" lon="3.47366">
        <ele>21.1</ele>
        <time>2018-09-25T22:22:05.819Z</time>
      </trkpt>
      <trkpt lat="43.52711" lon="3.47362">
        <ele>21.1</ele>
        <time>2018-09-25T22:22:06.819Z</time>
      </trkpt>
      <trkpt lat="43.52713" lon="3.47357">
        <ele>21.2</ele>
        <time>2018-09-25T22:22:07.819Z</time>
      </trkpt>
      <trkpt lat="43.52715" lon="3.47355">
        <ele>21.3</ele>
        <time>2018-09-25T22:22:08.819Z</time>
      </trkpt>
      <trkpt lat="43.52717" lon="3.47352">
        <ele>21.3</ele>
        <time>2018-09-25T22:22:09.819Z</time>
      </trkpt>
      <trkpt lat="43.5272" lon="3.47349">
        <ele>21.3</ele>
        <time>2018-09-25T22:22:10.819Z</time>
      </trkpt>
      <trkpt lat="43.52722" lon="3.47346">
        <ele>21.4</ele>
        <time>2018-09-25T22:22:11.819Z</time>
      </trkpt>
      <trkpt lat="43.52724" lon="3.47342">
        <ele>21.5</ele>
        <time>2018-09-25T22:22:12.819Z</time>
      </trkpt>
      <trkpt lat="43.52726" lon="3.47339">
        <ele>21.5</ele>
        <time>2018-09-25T22:22:13.819Z</time>
      </trkpt>
      <trkpt lat="43.52729" lon="3.47334">
        <ele>21.5</ele>
        <time>2018-09-25T22:22:15.819Z</time>
      </trkpt>
      <trkpt lat="43.52731" lon="3.4733">
        <ele>21.5</ele>
        <time>2018-09-25T22:22:17.819Z</time>
      </trkpt>
      <trkpt lat="43.52734" lon="3.47325">
        <ele>21.5</ele>
        <time>2018-09-25T22:22:19.819Z</time>
      </trkpt>
      <trkpt lat="43.52731" lon="3.47319">
        <ele>21.6</ele>
        <time>2018-09-25T22:22:22.819Z</time>
      </trkpt>
      <trkpt lat="43.52728" lon="3.47317">
        <ele>21.6</ele>
        <time>2018-09-25T22:22:23.819Z</time>
      </trkpt>
      <trkpt lat="43.52725" lon="3.47313">
        <ele>21.6</ele>
        <time>2018-09-25T22:22:24.819Z</time>
      </trkpt>
      <trkpt lat="43.52722" lon="3.47309">
        <ele>21.6</ele>
        <time>2018-09-25T22:22:25.819Z</time>
      </trkpt>
      <trkpt lat="43.52719" lon="3.47305">
        <ele>21.6</ele>
        <time>2018-09-25T22:22:26.819Z</time>
      </trkpt>
      <trkpt lat="43.52716" lon="3.47301">
        <ele>21.6</ele>
        <time>2018-09-25T22:22:27.819Z</time>
      </trkpt>
      <trkpt lat="43.52713" lon="3.47296">
        <ele>21.7</ele>
        <time>2018-09-25T22:22:28.819Z</time>
      </trkpt>
      <trkpt lat="43.5271" lon="3.47292">
        <ele>21.7</ele>
        <time>2018-09-25T22:22:29.819Z</time>
      </trkpt>
      <trkpt lat="43.52707" lon="3.47288">
        <ele>21.7</ele>
        <time>2018-09-25T22:22:30.819Z</time>
      </trkpt>
      <trkpt lat="43.52705" lon="3.47285">
        <ele>21.7</ele>
        <time>2018-09-25T22:22:31.819Z</time>
      </trkpt>
      <trkpt lat="43.52703" lon="3.47282">
        <ele>21.7</ele>
        <time>2018-09-25T22:22:32.819Z</time>
      </trkpt>
      <trkpt lat="43.52699" lon="3.47279">
        <ele>21.7</ele>
        <time>2018-09-25T22:22:33.819Z</time>
      </trkpt>
      <trkpt lat="43.52696" lon="3.47276">
        <ele>21.7</ele>
        <time>2018-09-25T22:22:34.819Z</time>
      </trkpt>
      <trkpt lat="43.52693" lon="3.47272">
        <ele>21.8</ele>
        <time>2018-09-25T22:22:35.819Z</time>
      </trkpt>
      <trkpt lat="43.52691" lon="3.47269">
        <ele>21.8</ele>
        <time>2018-09-25T22:22:36.819Z</time>
      </trkpt>
      <trkpt lat="43.52688" lon="3.47265">
        <ele>21.8</ele>
        <time>2018-09-25T22:22:37.819Z</time>
      </trkpt>
      <trkpt lat="43.52685" lon="3.47263">
        <ele>21.8</ele>
        <time>2018-09-25T22:22:38.819Z</time>
      </trkpt>
      <trkpt lat="43.52683" lon="3.4726">
        <ele>21.8</ele>
        <time>2018-09-25T22:22:39.819Z</time>
      </trkpt>
      <trkpt lat="43.5268" lon="3.47257">
        <ele>21.8</ele>
        <time>2018-09-25T22:22:40.819Z</time>
      </trkpt>
      <trkpt lat="43.52676" lon="3.47253">
        <ele>21.8</ele>
        <time>2018-09-25T22:22:42.819Z</time>
      </trkpt>
      <trkpt lat="43.52673" lon="3.47249">
        <ele>21.9</ele>
        <time>2018-09-25T22:22:44.819Z</time>
      </trkpt>
      <trkpt lat="43.52669" lon="3.47246">
        <ele>21.9</ele>
        <time>2018-09-25T22:22:46.819Z</time>
      </trkpt>
      <trkpt lat="43.52669" lon="3.4724">
        <ele>21.9</ele>
        <time>2018-09-25T22:22:48.819Z</time>
      </trkpt>
      <trkpt lat="43.5267" lon="3.47235">
        <ele>21.9</ele>
        <time>2018-09-25T22:22:49.819Z</time>
      </trkpt>
      <trkpt lat="43.52671" lon="3.47231">
        <ele>21.8</ele>
        <time>2018-09-25T22:22:50.819Z</time>
      </trkpt>
      <trkpt lat="43.52673" lon="3.47229">
        <ele>21.8</ele>
        <time>2018-09-25T22:22:51.819Z</time>
      </trkpt>
      <trkpt lat="43.52677" lon="3.47228">
        <ele>21.8</ele>
        <time>2018-09-25T22:22:52.819Z</time>
      </trkpt>
      <trkpt lat="43.52682" lon="3.47228">
        <ele>21.8</ele>
        <time>2018-09-25T22:22:53.819Z</time>
      </trkpt>
      <trkpt lat="43.52687" lon="3.47227">
        <ele>21.7</ele>
        <time>2018-09-25T22:22:54.819Z</time>
      </trkpt>
      <trkpt lat="43.52691" lon="3.47226">
        <ele>21.6</ele>
        <time>2018-09-25T22:22:55.819Z</time>
      </trkpt>
      <trkpt lat="43.52696" lon="3.47225">
        <ele>21.5</ele>
        <time>2018-09-25T22:22:56.819Z</time>
      </trkpt>
      <trkpt lat="43.52701" lon="3.47224">
        <ele>21.4</ele>
        <time>2018-09-25T22:22:57.819Z</time>
      </trkpt>
      <trkpt lat="43.52706" lon="3.47224">
        <ele>21.4</ele>
        <time>2018-09-25T22:22:58.819Z</time>
      </trkpt>
      <trkpt lat="43.5271" lon="3.47224">
        <ele>21.3</ele>
        <time>2018-09-25T22:22:59.819Z</time>
      </trkpt>
      <trkpt lat="43.52715" lon="3.47223">
        <ele>21.3</ele>
        <time>2018-09-25T22:23:00.819Z</time>
      </trkpt>
      <trkpt lat="43.52719" lon="3.47223">
        <ele>21.2</ele>
        <time>2018-09-25T22:23:01.819Z</time>
      </trkpt>
      <trkpt lat="43.52723" lon="3.47222">
        <ele>21.1</ele>
        <time>2018-09-25T22:23:02.819Z</time>
      </trkpt>
      <trkpt lat="43.52727" lon="3.47222">
        <ele>21.1</ele>
        <time>2018-09-25T22:23:03.819Z</time>
      </trkpt>
      <trkpt lat="43.52732" lon="3.47221">
        <ele>21</ele>
        <time>2018-09-25T22:23:04.819Z</time>
      </trkpt>
      <trkpt lat="43.52737" lon="3.4722">
        <ele>21</ele>
        <time>2018-09-25T22:23:05.819Z</time>
      </trkpt>
      <trkpt lat="43.52742" lon="3.4722">
        <ele>20.9</ele>
        <time>2018-09-25T22:23:06.819Z</time>
      </trkpt>
      <trkpt lat="43.52747" lon="3.4722">
        <ele>20.9</ele>
        <time>2018-09-25T22:23:07.819Z</time>
      </trkpt>
      <trkpt lat="43.52751" lon="3.47219">
        <ele>20.9</ele>
        <time>2018-09-25T22:23:08.819Z</time>
      </trkpt>
      <trkpt lat="43.52757" lon="3.47218">
        <ele>20.9</ele>
        <time>2018-09-25T22:23:09.819Z</time>
      </trkpt>
      <trkpt lat="43.52761" lon="3.47218">
        <ele>20.9</ele>
        <time>2018-09-25T22:23:10.819Z</time>
      </trkpt>
      <trkpt lat="43.52766" lon="3.47217">
        <ele>20.8</ele>
        <time>2018-09-25T22:23:11.819Z</time>
      </trkpt>
      <trkpt lat="43.5277" lon="3.47216">
        <ele>20.8</ele>
        <time>2018-09-25T22:23:12.819Z</time>
      </trkpt>
      <trkpt lat="43.52775" lon="3.47215">
        <ele>20.8</ele>
        <time>2018-09-25T22:23:13.819Z</time>
      </trkpt>
      <trkpt lat="43.5278" lon="3.47214">
        <ele>20.8</ele>
        <time>2018-09-25T22:23:14.819Z</time>
      </trkpt>
      <trkpt lat="43.52784" lon="3.47214">
        <ele>20.8</ele>
        <time>2018-09-25T22:23:15.819Z</time>
      </trkpt>
      <trkpt lat="43.52788" lon="3.47213">
        <ele>20.8</ele>
        <time>2018-09-25T22:23:16.819Z</time>
      </trkpt>
      <trkpt lat="43.52792" lon="3.47211">
        <ele>20.8</ele>
        <time>2018-09-25T22:23:17.819Z</time>
      </trkpt>
      <trkpt lat="43.52797" lon="3.47208">
        <ele>20.8</ele>
        <time>2018-09-25T22:23:18.819Z</time>
      </trkpt>
      <trkpt lat="43.52801" lon="3.47206">
        <ele>20.8</ele>
        <time>2018-09-25T22:23:19.819Z</time>
      </trkpt>
      <trkpt lat="43.52805" lon="3.47203">
        <ele>20.8</ele>
        <time>2018-09-25T22:23:20.819Z</time>
      </trkpt>
      <trkpt lat="43.52809" lon="3.47201">
        <ele>20.9</ele>
        <time>2018-09-25T22:23:21.819Z</time>
      </trkpt>
      <trkpt lat="43.52814" lon="3.47197">
        <ele>20.9</ele>
        <time>2018-09-25T22:23:22.819Z</time>
      </trkpt>
      <trkpt lat="43.52818" lon="3.47194">
        <ele>20.9</ele>
        <time>2018-09-25T22:23:23.819Z</time>
      </trkpt>
      <trkpt lat="43.52823" lon="3.47189">
        <ele>20.9</ele>
        <time>2018-09-25T22:23:24.819Z</time>
      </trkpt>
      <trkpt lat="43.52827" lon="3.47185">
        <ele>21</ele>
        <time>2018-09-25T22:23:25.819Z</time>
      </trkpt>
      <trkpt lat="43.52829" lon="3.47182">
        <ele>21</ele>
        <time>2018-09-25T22:23:26.819Z</time>
      </trkpt>
      <trkpt lat="43.52833" lon="3.47177">
        <ele>21.1</ele>
        <time>2018-09-25T22:23:27.819Z</time>
      </trkpt>
      <trkpt lat="43.52837" lon="3.47173">
        <ele>21.1</ele>
        <time>2018-09-25T22:23:28.819Z</time>
      </trkpt>
      <trkpt lat="43.52841" lon="3.47168">
        <ele>21.2</ele>
        <time>2018-09-25T22:23:29.819Z</time>
      </trkpt>
      <trkpt lat="43.52844" lon="3.47164">
        <ele>21.2</ele>
        <time>2018-09-25T22:23:30.819Z</time>
      </trkpt>
      <trkpt lat="43.52848" lon="3.47158">
        <ele>21.3</ele>
        <time>2018-09-25T22:23:31.819Z</time>
      </trkpt>
      <trkpt lat="43.52852" lon="3.47153">
        <ele>21.4</ele>
        <time>2018-09-25T22:23:32.819Z</time>
      </trkpt>
      <trkpt lat="43.52854" lon="3.47149">
        <ele>21.4</ele>
        <time>2018-09-25T22:23:33.819Z</time>
      </trkpt>
      <trkpt lat="43.52858" lon="3.47145">
        <ele>21.4</ele>
        <time>2018-09-25T22:23:34.819Z</time>
      </trkpt>
      <trkpt lat="43.52862" lon="3.4714">
        <ele>21.5</ele>
        <time>2018-09-25T22:23:35.819Z</time>
      </trkpt>
      <trkpt lat="43.52865" lon="3.47136">
        <ele>21.5</ele>
        <time>2018-09-25T22:23:36.819Z</time>
      </trkpt>
      <trkpt lat="43.52868" lon="3.47132">
        <ele>21.6</ele>
        <time>2018-09-25T22:23:37.819Z</time>
      </trkpt>
      <trkpt lat="43.52871" lon="3.47128">
        <ele>21.6</ele>
        <time>2018-09-25T22:23:38.819Z</time>
      </trkpt>
      <trkpt lat="43.52874" lon="3.47124">
        <ele>21.6</ele>
        <time>2018-09-25T22:23:39.819Z</time>
      </trkpt>
      <trkpt lat="43.52878" lon="3.47119">
        <ele>21.7</ele>
        <time>2018-09-25T22:23:40.819Z</time>
      </trkpt>
      <trkpt lat="43.52882" lon="3.47113">
        <ele>21.7</ele>
        <time>2018-09-25T22:23:41.819Z</time>
      </trkpt>
      <trkpt lat="43.52885" lon="3.47108">
        <ele>21.8</ele>
        <time>2018-09-25T22:23:42.819Z</time>
      </trkpt>
      <trkpt lat="43.52888" lon="3.47105">
        <ele>21.8</ele>
        <time>2018-09-25T22:23:43.819Z</time>
      </trkpt>
      <trkpt lat="43.52891" lon="3.47101">
        <ele>21.9</ele>
        <time>2018-09-25T22:23:44.819Z</time>
      </trkpt>
      <trkpt lat="43.52893" lon="3.47097">
        <ele>22</ele>
        <time>2018-09-25T22:23:45.819Z</time>
      </trkpt>
      <trkpt lat="43.52896" lon="3.47093">
        <ele>22</ele>
        <time>2018-09-25T22:23:46.819Z</time>
      </trkpt>
      <trkpt lat="43.52898" lon="3.47089">
        <ele>22.1</ele>
        <time>2018-09-25T22:23:47.819Z</time>
      </trkpt>
      <trkpt lat="43.52901" lon="3.47085">
        <ele>22.2</ele>
        <time>2018-09-25T22:23:48.819Z</time>
      </trkpt>
      <trkpt lat="43.52904" lon="3.47081">
        <ele>22.3</ele>
        <time>2018-09-25T22:23:49.819Z</time>
      </trkpt>
      <trkpt lat="43.52907" lon="3.47076">
        <ele>22.4</ele>
        <time>2018-09-25T22:23:50.819Z</time>
      </trkpt>
      <trkpt lat="43.5291" lon="3.47072">
        <ele>22.5</ele>
        <time>2018-09-25T22:23:51.819Z</time>
      </trkpt>
      <trkpt lat="43.52914" lon="3.47067">
        <ele>22.6</ele>
        <time>2018-09-25T22:23:52.819Z</time>
      </trkpt>
      <trkpt lat="43.52917" lon="3.47063">
        <ele>22.6</ele>
        <time>2018-09-25T22:23:53.819Z</time>
      </trkpt>
      <trkpt lat="43.5292" lon="3.47059">
        <ele>22.7</ele>
        <time>2018-09-25T22:23:54.819Z</time>
      </trkpt>
      <trkpt lat="43.52923" lon="3.47055">
        <ele>22.8</ele>
        <time>2018-09-25T22:23:55.819Z</time>
      </trkpt>
      <trkpt lat="43.52926" lon="3.47051">
        <ele>22.9</ele>
        <time>2018-09-25T22:23:56.819Z</time>
      </trkpt>
      <trkpt lat="43.52929" lon="3.47047">
        <ele>23</ele>
        <time>2018-09-25T22:23:57.819Z</time>
      </trkpt>
      <trkpt lat="43.52933" lon="3.47042">
        <ele>23.1</ele>
        <time>2018-09-25T22:23:58.819Z</time>
      </trkpt>
      <trkpt lat="43.52936" lon="3.47038">
        <ele>23.2</ele>
        <time>2018-09-25T22:23:59.819Z</time>
      </trkpt>
      <trkpt lat="43.52938" lon="3.47034">
        <ele>23.3</ele>
        <time>2018-09-25T22:24:00.819Z</time>
      </trkpt>
      <trkpt lat="43.52941" lon="3.4703">
        <ele>23.3</ele>
        <time>2018-09-25T22:24:01.819Z</time>
      </trkpt>
      <trkpt lat="43.52943" lon="3.47026">
        <ele>23.4</ele>
        <time>2018-09-25T22:24:02.819Z</time>
      </trkpt>
      <trkpt lat="43.52946" lon="3.47022">
        <ele>23.5</ele>
        <time>2018-09-25T22:24:03.819Z</time>
      </trkpt>
      <trkpt lat="43.52949" lon="3.47018">
        <ele>23.5</ele>
        <time>2018-09-25T22:24:04.819Z</time>
      </trkpt>
      <trkpt lat="43.52951" lon="3.47013">
        <ele>23.6</ele>
        <time>2018-09-25T22:24:05.819Z</time>
      </trkpt>
      <trkpt lat="43.52954" lon="3.47009">
        <ele>23.7</ele>
        <time>2018-09-25T22:24:06.819Z</time>
      </trkpt>
      <trkpt lat="43.52957" lon="3.47005">
        <ele>23.7</ele>
        <time>2018-09-25T22:24:07.819Z</time>
      </trkpt>
      <trkpt lat="43.52959" lon="3.47001">
        <ele>23.8</ele>
        <time>2018-09-25T22:24:08.819Z</time>
      </trkpt>
      <trkpt lat="43.52961" lon="3.46997">
        <ele>23.8</ele>
        <time>2018-09-25T22:24:09.819Z</time>
      </trkpt>
      <trkpt lat="43.52964" lon="3.46993">
        <ele>23.9</ele>
        <time>2018-09-25T22:24:10.819Z</time>
      </trkpt>
      <trkpt lat="43.52967" lon="3.46989">
        <ele>24</ele>
        <time>2018-09-25T22:24:11.819Z</time>
      </trkpt>
      <trkpt lat="43.52969" lon="3.46985">
        <ele>24</ele>
        <time>2018-09-25T22:24:12.819Z</time>
      </trkpt>
      <trkpt lat="43.52971" lon="3.46982">
        <ele>24</ele>
        <time>2018-09-25T22:24:13.819Z</time>
      </trkpt>
      <trkpt lat="43.52973" lon="3.46977">
        <ele>24.1</ele>
        <time>2018-09-25T22:24:14.819Z</time>
      </trkpt>
      <trkpt lat="43.52976" lon="3.46973">
        <ele>24.1</ele>
        <time>2018-09-25T22:24:15.819Z</time>
      </trkpt>
      <trkpt lat="43.52979" lon="3.46969">
        <ele>24.1</ele>
        <time>2018-09-25T22:24:16.819Z</time>
      </trkpt>
      <trkpt lat="43.52981" lon="3.46964">
        <ele>24.2</ele>
        <time>2018-09-25T22:24:17.819Z</time>
      </trkpt>
      <trkpt lat="43.52984" lon="3.4696">
        <ele>24.2</ele>
        <time>2018-09-25T22:24:18.819Z</time>
      </trkpt>
      <trkpt lat="43.52987" lon="3.46956">
        <ele>24.3</ele>
        <time>2018-09-25T22:24:19.819Z</time>
      </trkpt>
      <trkpt lat="43.52989" lon="3.46952">
        <ele>24.3</ele>
        <time>2018-09-25T22:24:20.819Z</time>
      </trkpt>
      <trkpt lat="43.52992" lon="3.46949">
        <ele>24.3</ele>
        <time>2018-09-25T22:24:21.819Z</time>
      </trkpt>
      <trkpt lat="43.52995" lon="3.46946">
        <ele>24.3</ele>
        <time>2018-09-25T22:24:22.819Z</time>
      </trkpt>
      <trkpt lat="43.52999" lon="3.46943">
        <ele>24.4</ele>
        <time>2018-09-25T22:24:23.819Z</time>
      </trkpt>
      <trkpt lat="43.53002" lon="3.4694">
        <ele>24.4</ele>
        <time>2018-09-25T22:24:24.819Z</time>
      </trkpt>
      <trkpt lat="43.53005" lon="3.46938">
        <ele>24.4</ele>
        <time>2018-09-25T22:24:25.819Z</time>
      </trkpt>
      <trkpt lat="43.53008" lon="3.46936">
        <ele>24.4</ele>
        <time>2018-09-25T22:24:26.819Z</time>
      </trkpt>
      <trkpt lat="43.53011" lon="3.46934">
        <ele>24.4</ele>
        <time>2018-09-25T22:24:27.819Z</time>
      </trkpt>
      <trkpt lat="43.53016" lon="3.46933">
        <ele>24.5</ele>
        <time>2018-09-25T22:24:28.819Z</time>
      </trkpt>
      <trkpt lat="43.53019" lon="3.46931">
        <ele>24.5</ele>
        <time>2018-09-25T22:24:29.819Z</time>
      </trkpt>
      <trkpt lat="43.53023" lon="3.46929">
        <ele>24.5</ele>
        <time>2018-09-25T22:24:30.819Z</time>
      </trkpt>
      <trkpt lat="43.53028" lon="3.46928">
        <ele>24.5</ele>
        <time>2018-09-25T22:24:31.819Z</time>
      </trkpt>
      <trkpt lat="43.53032" lon="3.46927">
        <ele>24.5</ele>
        <time>2018-09-25T22:24:32.819Z</time>
      </trkpt>
      <trkpt lat="43.53036" lon="3.46926">
        <ele>24.5</ele>
        <time>2018-09-25T22:24:33.819Z</time>
      </trkpt>
      <trkpt lat="43.5304" lon="3.46926">
        <ele>24.5</ele>
        <time>2018-09-25T22:24:34.819Z</time>
      </trkpt>
      <trkpt lat="43.53044" lon="3.46926">
        <ele>24.6</ele>
        <time>2018-09-25T22:24:35.819Z</time>
      </trkpt>
      <trkpt lat="43.53047" lon="3.46925">
        <ele>24.6</ele>
        <time>2018-09-25T22:24:36.819Z</time>
      </trkpt>
      <trkpt lat="43.53052" lon="3.46925">
        <ele>24.6</ele>
        <time>2018-09-25T22:24:37.819Z</time>
      </trkpt>
      <trkpt lat="43.53056" lon="3.46924">
        <ele>24.6</ele>
        <time>2018-09-25T22:24:38.819Z</time>
      </trkpt>
      <trkpt lat="43.5306" lon="3.46923">
        <ele>24.6</ele>
        <time>2018-09-25T22:24:39.819Z</time>
      </trkpt>
      <trkpt lat="43.53065" lon="3.46923">
        <ele>24.7</ele>
        <time>2018-09-25T22:24:40.819Z</time>
      </trkpt>
      <trkpt lat="43.5307" lon="3.46922">
        <ele>24.8</ele>
        <time>2018-09-25T22:24:41.819Z</time>
      </trkpt>
      <trkpt lat="43.53074" lon="3.46922">
        <ele>24.9</ele>
        <time>2018-09-25T22:24:42.819Z</time>
      </trkpt>
      <trkpt lat="43.53079" lon="3.46922">
        <ele>24.9</ele>
        <time>2018-09-25T22:24:43.819Z</time>
      </trkpt>
      <trkpt lat="43.53083" lon="3.46921">
        <ele>25</ele>
        <time>2018-09-25T22:24:44.819Z</time>
      </trkpt>
      <trkpt lat="43.53088" lon="3.46919">
        <ele>25.1</ele>
        <time>2018-09-25T22:24:45.819Z</time>
      </trkpt>
      <trkpt lat="43.53092" lon="3.46919">
        <ele>25.2</ele>
        <time>2018-09-25T22:24:46.819Z</time>
      </trkpt>
      <trkpt lat="43.53095" lon="3.46918">
        <ele>25.2</ele>
        <time>2018-09-25T22:24:47.819Z</time>
      </trkpt>
      <trkpt lat="43.53099" lon="3.46917">
        <ele>25.3</ele>
        <time>2018-09-25T22:24:48.819Z</time>
      </trkpt>
      <trkpt lat="43.53103" lon="3.46916">
        <ele>25.4</ele>
        <time>2018-09-25T22:24:49.819Z</time>
      </trkpt>
      <trkpt lat="43.53107" lon="3.46915">
        <ele>25.5</ele>
        <time>2018-09-25T22:24:50.819Z</time>
      </trkpt>
      <trkpt lat="43.53111" lon="3.46915">
        <ele>25.6</ele>
        <time>2018-09-25T22:24:51.819Z</time>
      </trkpt>
      <trkpt lat="43.53115" lon="3.46915">
        <ele>25.6</ele>
        <time>2018-09-25T22:24:52.819Z</time>
      </trkpt>
      <trkpt lat="43.53119" lon="3.46914">
        <ele>25.7</ele>
        <time>2018-09-25T22:24:53.819Z</time>
      </trkpt>
      <trkpt lat="43.53123" lon="3.46913">
        <ele>25.8</ele>
        <time>2018-09-25T22:24:54.819Z</time>
      </trkpt>
      <trkpt lat="43.53127" lon="3.46913">
        <ele>25.8</ele>
        <time>2018-09-25T22:24:55.819Z</time>
      </trkpt>
      <trkpt lat="43.53132" lon="3.46913">
        <ele>25.9</ele>
        <time>2018-09-25T22:24:56.819Z</time>
      </trkpt>
      <trkpt lat="43.53137" lon="3.46913">
        <ele>26</ele>
        <time>2018-09-25T22:24:57.819Z</time>
      </trkpt>
      <trkpt lat="43.53141" lon="3.46914">
        <ele>26.1</ele>
        <time>2018-09-25T22:24:58.819Z</time>
      </trkpt>
      <trkpt lat="43.53145" lon="3.46915">
        <ele>26.1</ele>
        <time>2018-09-25T22:24:59.819Z</time>
      </trkpt>
      <trkpt lat="43.53149" lon="3.46915">
        <ele>26.2</ele>
        <time>2018-09-25T22:25:00.819Z</time>
      </trkpt>
      <trkpt lat="43.53153" lon="3.46915">
        <ele>26.3</ele>
        <time>2018-09-25T22:25:01.819Z</time>
      </trkpt>
      <trkpt lat="43.53157" lon="3.46915">
        <ele>26.3</ele>
        <time>2018-09-25T22:25:02.819Z</time>
      </trkpt>
      <trkpt lat="43.53162" lon="3.46914">
        <ele>26.4</ele>
        <time>2018-09-25T22:25:03.819Z</time>
      </trkpt>
      <trkpt lat="43.53167" lon="3.46914">
        <ele>26.5</ele>
        <time>2018-09-25T22:25:04.819Z</time>
      </trkpt>
      <trkpt lat="43.53171" lon="3.46913">
        <ele>26.5</ele>
        <time>2018-09-25T22:25:05.819Z</time>
      </trkpt>
      <trkpt lat="43.53176" lon="3.46913">
        <ele>26.6</ele>
        <time>2018-09-25T22:25:06.819Z</time>
      </trkpt>
      <trkpt lat="43.53179" lon="3.46911">
        <ele>26.6</ele>
        <time>2018-09-25T22:25:07.819Z</time>
      </trkpt>
      <trkpt lat="43.53183" lon="3.46911">
        <ele>26.7</ele>
        <time>2018-09-25T22:25:08.819Z</time>
      </trkpt>
      <trkpt lat="43.53187" lon="3.4691">
        <ele>26.7</ele>
        <time>2018-09-25T22:25:09.819Z</time>
      </trkpt>
      <trkpt lat="43.5319" lon="3.46909">
        <ele>26.7</ele>
        <time>2018-09-25T22:25:10.819Z</time>
      </trkpt>
      <trkpt lat="43.53194" lon="3.46908">
        <ele>26.8</ele>
        <time>2018-09-25T22:25:11.819Z</time>
      </trkpt>
      <trkpt lat="43.53198" lon="3.46907">
        <ele>26.8</ele>
        <time>2018-09-25T22:25:12.819Z</time>
      </trkpt>
      <trkpt lat="43.53202" lon="3.46905">
        <ele>26.8</ele>
        <time>2018-09-25T22:25:13.819Z</time>
      </trkpt>
      <trkpt lat="43.53206" lon="3.46903">
        <ele>26.9</ele>
        <time>2018-09-25T22:25:14.819Z</time>
      </trkpt>
      <trkpt lat="43.5321" lon="3.46902">
        <ele>26.9</ele>
        <time>2018-09-25T22:25:15.819Z</time>
      </trkpt>
      <trkpt lat="43.53213" lon="3.46901">
        <ele>26.9</ele>
        <time>2018-09-25T22:25:16.819Z</time>
      </trkpt>
      <trkpt lat="43.53217" lon="3.469">
        <ele>26.9</ele>
        <time>2018-09-25T22:25:17.819Z</time>
      </trkpt>
      <trkpt lat="43.53221" lon="3.46899">
        <ele>26.9</ele>
        <time>2018-09-25T22:25:18.819Z</time>
      </trkpt>
      <trkpt lat="43.53225" lon="3.46898">
        <ele>26.9</ele>
        <time>2018-09-25T22:25:19.819Z</time>
      </trkpt>
      <trkpt lat="43.53228" lon="3.46897">
        <ele>26.9</ele>
        <time>2018-09-25T22:25:20.819Z</time>
      </trkpt>
      <trkpt lat="43.53232" lon="3.46896">
        <ele>26.9</ele>
        <time>2018-09-25T22:25:21.819Z</time>
      </trkpt>
      <trkpt lat="43.53236" lon="3.46895">
        <ele>27</ele>
        <time>2018-09-25T22:25:22.819Z</time>
      </trkpt>
      <trkpt lat="43.53239" lon="3.46894">
        <ele>27</ele>
        <time>2018-09-25T22:25:23.819Z</time>
      </trkpt>
      <trkpt lat="43.53242" lon="3.46894">
        <ele>27</ele>
        <time>2018-09-25T22:25:24.819Z</time>
      </trkpt>
      <trkpt lat="43.53247" lon="3.46894">
        <ele>27</ele>
        <time>2018-09-25T22:25:26.819Z</time>
      </trkpt>
      <trkpt lat="43.53252" lon="3.46895">
        <ele>26.5</ele>
        <time>2018-09-25T22:25:28.819Z</time>
      </trkpt>
      <trkpt lat="43.53256" lon="3.46896">
        <ele>26</ele>
        <time>2018-09-25T22:25:30.819Z</time>
      </trkpt>
      <trkpt lat="43.53258" lon="3.46895">
        <ele>26</ele>
        <time>2018-09-25T22:25:31.819Z</time>
      </trkpt>
      <trkpt lat="43.53261" lon="3.46892">
        <ele>26</ele>
        <time>2018-09-25T22:25:32.819Z</time>
      </trkpt>
      <trkpt lat="43.53264" lon="3.46888">
        <ele>26</ele>
        <time>2018-09-25T22:25:33.819Z</time>
      </trkpt>
      <trkpt lat="43.53268" lon="3.46884">
        <ele>26</ele>
        <time>2018-09-25T22:25:34.819Z</time>
      </trkpt>
      <trkpt lat="43.53271" lon="3.4688">
        <ele>26</ele>
        <time>2018-09-25T22:25:35.819Z</time>
      </trkpt>
      <trkpt lat="43.53273" lon="3.46875">
        <ele>26</ele>
        <time>2018-09-25T22:25:36.819Z</time>
      </trkpt>
      <trkpt lat="43.53277" lon="3.4687">
        <ele>26</ele>
        <time>2018-09-25T22:25:37.819Z</time>
      </trkpt>
      <trkpt lat="43.53279" lon="3.46866">
        <ele>26.1</ele>
        <time>2018-09-25T22:25:38.819Z</time>
      </trkpt>
      <trkpt lat="43.53282" lon="3.46862">
        <ele>26.1</ele>
        <time>2018-09-25T22:25:39.819Z</time>
      </trkpt>
      <trkpt lat="43.53284" lon="3.46859">
        <ele>26.1</ele>
        <time>2018-09-25T22:25:40.819Z</time>
      </trkpt>
      <trkpt lat="43.53286" lon="3.46855">
        <ele>26.1</ele>
        <time>2018-09-25T22:25:41.819Z</time>
      </trkpt>
      <trkpt lat="43.53289" lon="3.46849">
        <ele>26.1</ele>
        <time>2018-09-25T22:25:42.819Z</time>
      </trkpt>
      <trkpt lat="43.53291" lon="3.46845">
        <ele>26.1</ele>
        <time>2018-09-25T22:25:43.819Z</time>
      </trkpt>
      <trkpt lat="43.53294" lon="3.4684">
        <ele>26.1</ele>
        <time>2018-09-25T22:25:44.819Z</time>
      </trkpt>
      <trkpt lat="43.53296" lon="3.46834">
        <ele>26.1</ele>
        <time>2018-09-25T22:25:45.819Z</time>
      </trkpt>
      <trkpt lat="43.53299" lon="3.46828">
        <ele>26.1</ele>
        <time>2018-09-25T22:25:46.819Z</time>
      </trkpt>
      <trkpt lat="43.53301" lon="3.46822">
        <ele>26.1</ele>
        <time>2018-09-25T22:25:47.819Z</time>
      </trkpt>
      <trkpt lat="43.53303" lon="3.46816">
        <ele>26.1</ele>
        <time>2018-09-25T22:25:48.819Z</time>
      </trkpt>
      <trkpt lat="43.53306" lon="3.46811">
        <ele>26.1</ele>
        <time>2018-09-25T22:25:49.819Z</time>
      </trkpt>
      <trkpt lat="43.53309" lon="3.46806">
        <ele>26.2</ele>
        <time>2018-09-25T22:25:50.819Z</time>
      </trkpt>
      <trkpt lat="43.53312" lon="3.468">
        <ele>26.2</ele>
        <time>2018-09-25T22:25:51.819Z</time>
      </trkpt>
      <trkpt lat="43.53314" lon="3.46794">
        <ele>26.2</ele>
        <time>2018-09-25T22:25:52.819Z</time>
      </trkpt>
      <trkpt lat="43.53317" lon="3.46788">
        <ele>26.2</ele>
        <time>2018-09-25T22:25:53.819Z</time>
      </trkpt>
      <trkpt lat="43.53319" lon="3.46782">
        <ele>26.2</ele>
        <time>2018-09-25T22:25:54.819Z</time>
      </trkpt>
      <trkpt lat="43.53321" lon="3.46777">
        <ele>26.2</ele>
        <time>2018-09-25T22:25:55.819Z</time>
      </trkpt>
      <trkpt lat="43.53324" lon="3.46771">
        <ele>26.3</ele>
        <time>2018-09-25T22:25:56.819Z</time>
      </trkpt>
      <trkpt lat="43.53327" lon="3.46765">
        <ele>26.3</ele>
        <time>2018-09-25T22:25:57.819Z</time>
      </trkpt>
      <trkpt lat="43.53329" lon="3.4676">
        <ele>26.3</ele>
        <time>2018-09-25T22:25:58.819Z</time>
      </trkpt>
      <trkpt lat="43.53331" lon="3.46755">
        <ele>26.3</ele>
        <time>2018-09-25T22:25:59.819Z</time>
      </trkpt>
      <trkpt lat="43.53334" lon="3.46749">
        <ele>26.4</ele>
        <time>2018-09-25T22:26:00.819Z</time>
      </trkpt>
      <trkpt lat="43.53337" lon="3.46743">
        <ele>26.4</ele>
        <time>2018-09-25T22:26:01.819Z</time>
      </trkpt>
      <trkpt lat="43.53339" lon="3.46736">
        <ele>26.5</ele>
        <time>2018-09-25T22:26:02.819Z</time>
      </trkpt>
      <trkpt lat="43.53342" lon="3.46729">
        <ele>26.6</ele>
        <time>2018-09-25T22:26:03.819Z</time>
      </trkpt>
      <trkpt lat="43.53345" lon="3.46722">
        <ele>26.8</ele>
        <time>2018-09-25T22:26:04.819Z</time>
      </trkpt>
      <trkpt lat="43.53348" lon="3.46716">
        <ele>27.2</ele>
        <time>2018-09-25T22:26:05.819Z</time>
      </trkpt>
      <trkpt lat="43.53351" lon="3.46709">
        <ele>27.5</ele>
        <time>2018-09-25T22:26:06.819Z</time>
      </trkpt>
      <trkpt lat="43.53354" lon="3.46704">
        <ele>27.8</ele>
        <time>2018-09-25T22:26:07.819Z</time>
      </trkpt>
      <trkpt lat="43.53356" lon="3.46699">
        <ele>28</ele>
        <time>2018-09-25T22:26:08.819Z</time>
      </trkpt>
      <trkpt lat="43.5336" lon="3.46693">
        <ele>28.3</ele>
        <time>2018-09-25T22:26:09.819Z</time>
      </trkpt>
      <trkpt lat="43.53363" lon="3.46687">
        <ele>28.4</ele>
        <time>2018-09-25T22:26:10.819Z</time>
      </trkpt>
      <trkpt lat="43.53366" lon="3.46681">
        <ele>28.6</ele>
        <time>2018-09-25T22:26:11.819Z</time>
      </trkpt>
      <trkpt lat="43.53368" lon="3.46676">
        <ele>28.6</ele>
        <time>2018-09-25T22:26:12.819Z</time>
      </trkpt>
      <trkpt lat="43.5337" lon="3.4667">
        <ele>28.7</ele>
        <time>2018-09-25T22:26:13.819Z</time>
      </trkpt>
      <trkpt lat="43.53372" lon="3.46666">
        <ele>28.7</ele>
        <time>2018-09-25T22:26:14.819Z</time>
      </trkpt>
      <trkpt lat="43.53374" lon="3.46662">
        <ele>28.7</ele>
        <time>2018-09-25T22:26:15.819Z</time>
      </trkpt>
      <trkpt lat="43.53376" lon="3.46658">
        <ele>28.8</ele>
        <time>2018-09-25T22:26:16.819Z</time>
      </trkpt>
      <trkpt lat="43.53378" lon="3.46653">
        <ele>28.9</ele>
        <time>2018-09-25T22:26:17.819Z</time>
      </trkpt>
      <trkpt lat="43.5338" lon="3.4665">
        <ele>28.9</ele>
        <time>2018-09-25T22:26:18.819Z</time>
      </trkpt>
      <trkpt lat="43.53383" lon="3.46647">
        <ele>29.2</ele>
        <time>2018-09-25T22:26:19.819Z</time>
      </trkpt>
      <trkpt lat="43.53386" lon="3.46645">
        <ele>29.2</ele>
        <time>2018-09-25T22:26:20.819Z</time>
      </trkpt>
      <trkpt lat="43.5339" lon="3.46647">
        <ele>29.3</ele>
        <time>2018-09-25T22:26:21.819Z</time>
      </trkpt>
      <trkpt lat="43.53395" lon="3.46648">
        <ele>29.3</ele>
        <time>2018-09-25T22:26:22.819Z</time>
      </trkpt>
      <trkpt lat="43.53399" lon="3.4665">
        <ele>29.4</ele>
        <time>2018-09-25T22:26:23.819Z</time>
      </trkpt>
      <trkpt lat="43.53405" lon="3.4665">
        <ele>29.4</ele>
        <time>2018-09-25T22:26:24.819Z</time>
      </trkpt>
      <trkpt lat="43.53409" lon="3.46651">
        <ele>29.5</ele>
        <time>2018-09-25T22:26:25.819Z</time>
      </trkpt>
      <trkpt lat="43.53414" lon="3.46652">
        <ele>29.5</ele>
        <time>2018-09-25T22:26:26.819Z</time>
      </trkpt>
      <trkpt lat="43.53418" lon="3.46653">
        <ele>29.6</ele>
        <time>2018-09-25T22:26:27.819Z</time>
      </trkpt>
      <trkpt lat="43.53422" lon="3.46655">
        <ele>29.6</ele>
        <time>2018-09-25T22:26:28.819Z</time>
      </trkpt>
      <trkpt lat="43.53426" lon="3.46656">
        <ele>29.7</ele>
        <time>2018-09-25T22:26:29.819Z</time>
      </trkpt>
      <trkpt lat="43.5343" lon="3.46656">
        <ele>29.8</ele>
        <time>2018-09-25T22:26:30.819Z</time>
      </trkpt>
      <trkpt lat="43.53435" lon="3.46656">
        <ele>29.9</ele>
        <time>2018-09-25T22:26:31.819Z</time>
      </trkpt>
      <trkpt lat="43.5344" lon="3.46656">
        <ele>29.9</ele>
        <time>2018-09-25T22:26:32.819Z</time>
      </trkpt>
      <trkpt lat="43.53444" lon="3.46657">
        <ele>30</ele>
        <time>2018-09-25T22:26:33.819Z</time>
      </trkpt>
      <trkpt lat="43.53449" lon="3.46658">
        <ele>30.1</ele>
        <time>2018-09-25T22:26:34.819Z</time>
      </trkpt>
      <trkpt lat="43.53454" lon="3.46658">
        <ele>30.1</ele>
        <time>2018-09-25T22:26:35.819Z</time>
      </trkpt>
      <trkpt lat="43.53459" lon="3.46659">
        <ele>30.1</ele>
        <time>2018-09-25T22:26:36.819Z</time>
      </trkpt>
      <trkpt lat="43.53463" lon="3.46659">
        <ele>30.2</ele>
        <time>2018-09-25T22:26:37.819Z</time>
      </trkpt>
      <trkpt lat="43.53467" lon="3.4666">
        <ele>30.2</ele>
        <time>2018-09-25T22:26:38.819Z</time>
      </trkpt>
      <trkpt lat="43.53472" lon="3.46662">
        <ele>30.3</ele>
        <time>2018-09-25T22:26:39.819Z</time>
      </trkpt>
      <trkpt lat="43.53476" lon="3.46663">
        <ele>30.3</ele>
        <time>2018-09-25T22:26:40.819Z</time>
      </trkpt>
      <trkpt lat="43.53481" lon="3.46664">
        <ele>30.3</ele>
        <time>2018-09-25T22:26:41.819Z</time>
      </trkpt>
      <trkpt lat="43.53485" lon="3.46665">
        <ele>30.4</ele>
        <time>2018-09-25T22:26:42.819Z</time>
      </trkpt>
      <trkpt lat="43.53489" lon="3.46667">
        <ele>30.4</ele>
        <time>2018-09-25T22:26:43.819Z</time>
      </trkpt>
      <trkpt lat="43.53494" lon="3.46667">
        <ele>30.4</ele>
        <time>2018-09-25T22:26:44.819Z</time>
      </trkpt>
      <trkpt lat="43.53498" lon="3.46668">
        <ele>30.5</ele>
        <time>2018-09-25T22:26:45.819Z</time>
      </trkpt>
      <trkpt lat="43.53503" lon="3.46669">
        <ele>30.5</ele>
        <time>2018-09-25T22:26:46.819Z</time>
      </trkpt>
      <trkpt lat="43.53507" lon="3.4667">
        <ele>30.5</ele>
        <time>2018-09-25T22:26:47.819Z</time>
      </trkpt>
      <trkpt lat="43.53512" lon="3.46671">
        <ele>30.6</ele>
        <time>2018-09-25T22:26:48.819Z</time>
      </trkpt>
      <trkpt lat="43.53518" lon="3.46673">
        <ele>30.6</ele>
        <time>2018-09-25T22:26:49.819Z</time>
      </trkpt>
      <trkpt lat="43.53522" lon="3.46674">
        <ele>30.7</ele>
        <time>2018-09-25T22:26:50.819Z</time>
      </trkpt>
      <trkpt lat="43.53527" lon="3.46675">
        <ele>30.7</ele>
        <time>2018-09-25T22:26:51.819Z</time>
      </trkpt>
      <trkpt lat="43.5353" lon="3.46676">
        <ele>30.7</ele>
        <time>2018-09-25T22:26:52.819Z</time>
      </trkpt>
      <trkpt lat="43.53534" lon="3.46677">
        <ele>30.8</ele>
        <time>2018-09-25T22:26:53.819Z</time>
      </trkpt>
      <trkpt lat="43.53539" lon="3.46679">
        <ele>30.8</ele>
        <time>2018-09-25T22:26:54.819Z</time>
      </trkpt>
      <trkpt lat="43.53544" lon="3.46681">
        <ele>30.9</ele>
        <time>2018-09-25T22:26:55.819Z</time>
      </trkpt>
      <trkpt lat="43.53549" lon="3.46683">
        <ele>31</ele>
        <time>2018-09-25T22:26:56.819Z</time>
      </trkpt>
      <trkpt lat="43.53554" lon="3.46685">
        <ele>30.9</ele>
        <time>2018-09-25T22:26:57.819Z</time>
      </trkpt>
      <trkpt lat="43.53559" lon="3.46687">
        <ele>30.7</ele>
        <time>2018-09-25T22:26:58.819Z</time>
      </trkpt>
      <trkpt lat="43.53564" lon="3.46688">
        <ele>30.6</ele>
        <time>2018-09-25T22:26:59.819Z</time>
      </trkpt>
      <trkpt lat="43.53568" lon="3.46689">
        <ele>30.5</ele>
        <time>2018-09-25T22:27:00.819Z</time>
      </trkpt>
      <trkpt lat="43.53573" lon="3.46691">
        <ele>30.3</ele>
        <time>2018-09-25T22:27:01.819Z</time>
      </trkpt>
      <trkpt lat="43.53579" lon="3.46692">
        <ele>30.2</ele>
        <time>2018-09-25T22:27:02.819Z</time>
      </trkpt>
      <trkpt lat="43.53584" lon="3.46693">
        <ele>30</ele>
        <time>2018-09-25T22:27:03.819Z</time>
      </trkpt>
      <trkpt lat="43.53588" lon="3.46692">
        <ele>30</ele>
        <time>2018-09-25T22:27:04.819Z</time>
      </trkpt>
      <trkpt lat="43.53593" lon="3.46692">
        <ele>30.1</ele>
        <time>2018-09-25T22:27:05.819Z</time>
      </trkpt>
      <trkpt lat="43.53597" lon="3.46691">
        <ele>30.1</ele>
        <time>2018-09-25T22:27:06.819Z</time>
      </trkpt>
      <trkpt lat="43.53603" lon="3.46691">
        <ele>30.1</ele>
        <time>2018-09-25T22:27:07.819Z</time>
      </trkpt>
      <trkpt lat="43.53608" lon="3.46692">
        <ele>30.2</ele>
        <time>2018-09-25T22:27:08.819Z</time>
      </trkpt>
      <trkpt lat="43.53612" lon="3.46692">
        <ele>30.2</ele>
        <time>2018-09-25T22:27:09.819Z</time>
      </trkpt>
      <trkpt lat="43.53617" lon="3.46692">
        <ele>30.2</ele>
        <time>2018-09-25T22:27:10.819Z</time>
      </trkpt>
      <trkpt lat="43.53621" lon="3.46692">
        <ele>30.2</ele>
        <time>2018-09-25T22:27:11.819Z</time>
      </trkpt>
      <trkpt lat="43.53626" lon="3.46692">
        <ele>30.3</ele>
        <time>2018-09-25T22:27:12.819Z</time>
      </trkpt>
      <trkpt lat="43.5363" lon="3.46692">
        <ele>30.3</ele>
        <time>2018-09-25T22:27:13.819Z</time>
      </trkpt>
      <trkpt lat="43.53634" lon="3.46693">
        <ele>30.3</ele>
        <time>2018-09-25T22:27:14.819Z</time>
      </trkpt>
      <trkpt lat="43.53638" lon="3.46693">
        <ele>30.3</ele>
        <time>2018-09-25T22:27:15.819Z</time>
      </trkpt>
      <trkpt lat="43.53642" lon="3.46693">
        <ele>30.4</ele>
        <time>2018-09-25T22:27:16.819Z</time>
      </trkpt>
      <trkpt lat="43.53646" lon="3.46693">
        <ele>30.4</ele>
        <time>2018-09-25T22:27:17.819Z</time>
      </trkpt>
      <trkpt lat="43.53651" lon="3.46694">
        <ele>30.4</ele>
        <time>2018-09-25T22:27:18.819Z</time>
      </trkpt>
      <trkpt lat="43.53655" lon="3.46694">
        <ele>30.4</ele>
        <time>2018-09-25T22:27:19.819Z</time>
      </trkpt>
      <trkpt lat="43.5366" lon="3.46694">
        <ele>30.5</ele>
        <time>2018-09-25T22:27:20.819Z</time>
      </trkpt>
      <trkpt lat="43.53665" lon="3.46694">
        <ele>30.5</ele>
        <time>2018-09-25T22:27:21.819Z</time>
      </trkpt>
      <trkpt lat="43.5367" lon="3.46693">
        <ele>30.5</ele>
        <time>2018-09-25T22:27:22.819Z</time>
      </trkpt>
      <trkpt lat="43.53674" lon="3.46693">
        <ele>30.5</ele>
        <time>2018-09-25T22:27:23.819Z</time>
      </trkpt>
      <trkpt lat="43.53678" lon="3.46693">
        <ele>30.6</ele>
        <time>2018-09-25T22:27:24.819Z</time>
      </trkpt>
      <trkpt lat="43.53681" lon="3.46693">
        <ele>30.6</ele>
        <time>2018-09-25T22:27:25.819Z</time>
      </trkpt>
      <trkpt lat="43.53686" lon="3.46693">
        <ele>30.6</ele>
        <time>2018-09-25T22:27:26.819Z</time>
      </trkpt>
      <trkpt lat="43.5369" lon="3.46693">
        <ele>30.6</ele>
        <time>2018-09-25T22:27:27.819Z</time>
      </trkpt>
      <trkpt lat="43.53694" lon="3.46693">
        <ele>30.6</ele>
        <time>2018-09-25T22:27:28.819Z</time>
      </trkpt>
      <trkpt lat="43.53697" lon="3.46694">
        <ele>30.7</ele>
        <time>2018-09-25T22:27:29.819Z</time>
      </trkpt>
      <trkpt lat="43.537" lon="3.46694">
        <ele>30.7</ele>
        <time>2018-09-25T22:27:30.819Z</time>
      </trkpt>
      <trkpt lat="43.53703" lon="3.46695">
        <ele>30.7</ele>
        <time>2018-09-25T22:27:31.819Z</time>
      </trkpt>
      <trkpt lat="43.53707" lon="3.46696">
        <ele>30.7</ele>
        <time>2018-09-25T22:27:32.819Z</time>
      </trkpt>
      <trkpt lat="43.53711" lon="3.46695">
        <ele>30.8</ele>
        <time>2018-09-25T22:27:33.819Z</time>
      </trkpt>
      <trkpt lat="43.53715" lon="3.46695">
        <ele>30.8</ele>
        <time>2018-09-25T22:27:34.819Z</time>
      </trkpt>
      <trkpt lat="43.5372" lon="3.46694">
        <ele>30.9</ele>
        <time>2018-09-25T22:27:35.819Z</time>
      </trkpt>
      <trkpt lat="43.53723" lon="3.46695">
        <ele>30.9</ele>
        <time>2018-09-25T22:27:36.819Z</time>
      </trkpt>
      <trkpt lat="43.53726" lon="3.46695">
        <ele>30.9</ele>
        <time>2018-09-25T22:27:37.819Z</time>
      </trkpt>
      <trkpt lat="43.53729" lon="3.46695">
        <ele>31</ele>
        <time>2018-09-25T22:27:38.819Z</time>
      </trkpt>
      <trkpt lat="43.53732" lon="3.46696">
        <ele>31</ele>
        <time>2018-09-25T22:27:39.819Z</time>
      </trkpt>
      <trkpt lat="43.53735" lon="3.46696">
        <ele>31</ele>
        <time>2018-09-25T22:27:40.819Z</time>
      </trkpt>
      <trkpt lat="43.53739" lon="3.46695">
        <ele>31</ele>
        <time>2018-09-25T22:27:41.819Z</time>
      </trkpt>
      <trkpt lat="43.53743" lon="3.46694">
        <ele>31</ele>
        <time>2018-09-25T22:27:42.819Z</time>
      </trkpt>
      <trkpt lat="43.53746" lon="3.46691">
        <ele>31</ele>
        <time>2018-09-25T22:27:43.819Z</time>
      </trkpt>
      <trkpt lat="43.53748" lon="3.46686">
        <ele>31</ele>
        <time>2018-09-25T22:27:44.819Z</time>
      </trkpt>
      <trkpt lat="43.53749" lon="3.4668">
        <ele>31</ele>
        <time>2018-09-25T22:27:45.819Z</time>
      </trkpt>
      <trkpt lat="43.53753" lon="3.46676">
        <ele>31</ele>
        <time>2018-09-25T22:27:46.819Z</time>
      </trkpt>
      <trkpt lat="43.53757" lon="3.46672">
        <ele>31</ele>
        <time>2018-09-25T22:27:47.819Z</time>
      </trkpt>
      <trkpt lat="43.5376" lon="3.46668">
        <ele>31</ele>
        <time>2018-09-25T22:27:48.819Z</time>
      </trkpt>
      <trkpt lat="43.53763" lon="3.46663">
        <ele>31</ele>
        <time>2018-09-25T22:27:49.819Z</time>
      </trkpt>
      <trkpt lat="43.53767" lon="3.46658">
        <ele>31</ele>
        <time>2018-09-25T22:27:50.819Z</time>
      </trkpt>
      <trkpt lat="43.53772" lon="3.46653">
        <ele>31</ele>
        <time>2018-09-25T22:27:51.819Z</time>
      </trkpt>
      <trkpt lat="43.53775" lon="3.46649">
        <ele>31.1</ele>
        <time>2018-09-25T22:27:52.819Z</time>
      </trkpt>
      <trkpt lat="43.53779" lon="3.46644">
        <ele>31.1</ele>
        <time>2018-09-25T22:27:53.819Z</time>
      </trkpt>
      <trkpt lat="43.53782" lon="3.4664">
        <ele>31.1</ele>
        <time>2018-09-25T22:27:54.819Z</time>
      </trkpt>
      <trkpt lat="43.53786" lon="3.46636">
        <ele>31.1</ele>
        <time>2018-09-25T22:27:55.819Z</time>
      </trkpt>
      <trkpt lat="43.5379" lon="3.46632">
        <ele>31.2</ele>
        <time>2018-09-25T22:27:56.819Z</time>
      </trkpt>
      <trkpt lat="43.53793" lon="3.46628">
        <ele>31.2</ele>
        <time>2018-09-25T22:27:57.819Z</time>
      </trkpt>
      <trkpt lat="43.53797" lon="3.46624">
        <ele>31.2</ele>
        <time>2018-09-25T22:27:58.819Z</time>
      </trkpt>
      <trkpt lat="43.53801" lon="3.4662">
        <ele>31.2</ele>
        <time>2018-09-25T22:27:59.819Z</time>
      </trkpt>
      <trkpt lat="43.53804" lon="3.46616">
        <ele>31.3</ele>
        <time>2018-09-25T22:28:00.819Z</time>
      </trkpt>
      <trkpt lat="43.53807" lon="3.46612">
        <ele>31.3</ele>
        <time>2018-09-25T22:28:01.819Z</time>
      </trkpt>
      <trkpt lat="43.53811" lon="3.46607">
        <ele>31.3</ele>
        <time>2018-09-25T22:28:02.819Z</time>
      </trkpt>
      <trkpt lat="43.53815" lon="3.46602">
        <ele>31.4</ele>
        <time>2018-09-25T22:28:03.819Z</time>
      </trkpt>
      <trkpt lat="43.53818" lon="3.46597">
        <ele>31.4</ele>
        <time>2018-09-25T22:28:04.819Z</time>
      </trkpt>
      <trkpt lat="43.5382" lon="3.46591">
        <ele>31.4</ele>
        <time>2018-09-25T22:28:05.819Z</time>
      </trkpt>
      <trkpt lat="43.53823" lon="3.46585">
        <ele>31.4</ele>
        <time>2018-09-25T22:28:06.819Z</time>
      </trkpt>
      <trkpt lat="43.53826" lon="3.46579">
        <ele>31.5</ele>
        <time>2018-09-25T22:28:07.819Z</time>
      </trkpt>
      <trkpt lat="43.53828" lon="3.46574">
        <ele>31.5</ele>
        <time>2018-09-25T22:28:08.819Z</time>
      </trkpt>
      <trkpt lat="43.5383" lon="3.46567">
        <ele>31.5</ele>
        <time>2018-09-25T22:28:09.819Z</time>
      </trkpt>
      <trkpt lat="43.53834" lon="3.46561">
        <ele>31.6</ele>
        <time>2018-09-25T22:28:10.819Z</time>
      </trkpt>
      <trkpt lat="43.53837" lon="3.46555">
        <ele>31.6</ele>
        <time>2018-09-25T22:28:11.819Z</time>
      </trkpt>
      <trkpt lat="43.5384" lon="3.46549">
        <ele>31.6</ele>
        <time>2018-09-25T22:28:12.819Z</time>
      </trkpt>
      <trkpt lat="43.53844" lon="3.46544">
        <ele>31.7</ele>
        <time>2018-09-25T22:28:13.819Z</time>
      </trkpt>
      <trkpt lat="43.53847" lon="3.46539">
        <ele>31.7</ele>
        <time>2018-09-25T22:28:14.819Z</time>
      </trkpt>
      <trkpt lat="43.53851" lon="3.46535">
        <ele>31.7</ele>
        <time>2018-09-25T22:28:15.819Z</time>
      </trkpt>
      <trkpt lat="43.53855" lon="3.4653">
        <ele>31.7</ele>
        <time>2018-09-25T22:28:16.819Z</time>
      </trkpt>
      <trkpt lat="43.53859" lon="3.46524">
        <ele>31.8</ele>
        <time>2018-09-25T22:28:17.819Z</time>
      </trkpt>
      <trkpt lat="43.53862" lon="3.4652">
        <ele>31.8</ele>
        <time>2018-09-25T22:28:18.819Z</time>
      </trkpt>
      <trkpt lat="43.53867" lon="3.46515">
        <ele>31.8</ele>
        <time>2018-09-25T22:28:19.819Z</time>
      </trkpt>
      <trkpt lat="43.5387" lon="3.46511">
        <ele>31.9</ele>
        <time>2018-09-25T22:28:20.819Z</time>
      </trkpt>
      <trkpt lat="43.53874" lon="3.46506">
        <ele>31.9</ele>
        <time>2018-09-25T22:28:21.819Z</time>
      </trkpt>
      <trkpt lat="43.53878" lon="3.465">
        <ele>31.9</ele>
        <time>2018-09-25T22:28:22.819Z</time>
      </trkpt>
      <trkpt lat="43.53881" lon="3.46495">
        <ele>31.9</ele>
        <time>2018-09-25T22:28:23.819Z</time>
      </trkpt>
      <trkpt lat="43.53884" lon="3.4649">
        <ele>32</ele>
        <time>2018-09-25T22:28:24.819Z</time>
      </trkpt>
      <trkpt lat="43.53887" lon="3.46486">
        <ele>32</ele>
        <time>2018-09-25T22:28:25.819Z</time>
      </trkpt>
      <trkpt lat="43.5389" lon="3.4648">
        <ele>32</ele>
        <time>2018-09-25T22:28:26.819Z</time>
      </trkpt>
      <trkpt lat="43.53892" lon="3.46476">
        <ele>32</ele>
        <time>2018-09-25T22:28:27.819Z</time>
      </trkpt>
      <trkpt lat="43.53895" lon="3.46471">
        <ele>32</ele>
        <time>2018-09-25T22:28:28.819Z</time>
      </trkpt>
      <trkpt lat="43.53898" lon="3.46463">
        <ele>32.1</ele>
        <time>2018-09-25T22:28:29.819Z</time>
      </trkpt>
      <trkpt lat="43.539" lon="3.46457">
        <ele>32.1</ele>
        <time>2018-09-25T22:28:30.819Z</time>
      </trkpt>
      <trkpt lat="43.53902" lon="3.46451">
        <ele>32.1</ele>
        <time>2018-09-25T22:28:31.819Z</time>
      </trkpt>
      <trkpt lat="43.53904" lon="3.46444">
        <ele>32.2</ele>
        <time>2018-09-25T22:28:32.819Z</time>
      </trkpt>
      <trkpt lat="43.53906" lon="3.46438">
        <ele>32.2</ele>
        <time>2018-09-25T22:28:33.819Z</time>
      </trkpt>
      <trkpt lat="43.53907" lon="3.46432">
        <ele>32.3</ele>
        <time>2018-09-25T22:28:34.819Z</time>
      </trkpt>
      <trkpt lat="43.53909" lon="3.46427">
        <ele>32.3</ele>
        <time>2018-09-25T22:28:35.819Z</time>
      </trkpt>
      <trkpt lat="43.53911" lon="3.46422">
        <ele>32.3</ele>
        <time>2018-09-25T22:28:36.819Z</time>
      </trkpt>
      <trkpt lat="43.53913" lon="3.46418">
        <ele>32.3</ele>
        <time>2018-09-25T22:28:37.819Z</time>
      </trkpt>
      <trkpt lat="43.53914" lon="3.46414">
        <ele>32.4</ele>
        <time>2018-09-25T22:28:38.819Z</time>
      </trkpt>
      <trkpt lat="43.53915" lon="3.4641">
        <ele>32.4</ele>
        <time>2018-09-25T22:28:39.819Z</time>
      </trkpt>
      <trkpt lat="43.53916" lon="3.46407">
        <ele>32.5</ele>
        <time>2018-09-25T22:28:40.819Z</time>
      </trkpt>
      <trkpt lat="43.53917" lon="3.46403">
        <ele>32.5</ele>
        <time>2018-09-25T22:28:45.819Z</time>
      </trkpt>
      <trkpt lat="43.53915" lon="3.464">
        <ele>32.5</ele>
        <time>2018-09-25T22:28:57.819Z</time>
      </trkpt>
      <trkpt lat="43.53916" lon="3.46395">
        <ele>32.6</ele>
        <time>2018-09-25T22:29:07.819Z</time>
      </trkpt>
      <trkpt lat="43.53913" lon="3.46393">
        <ele>32.6</ele>
        <time>2018-09-25T22:29:20.819Z</time>
      </trkpt>
      <trkpt lat="43.53911" lon="3.46393">
        <ele>32.7</ele>
        <time>2018-09-25T22:29:50.819Z</time>
      </trkpt>
    </trkseg>
  </trk>
</gpx>